<?xml version="1.0" encoding="UTF-8" standalone="no" ?>
<gpx xmlns="http://www.topografix.com/GPX/1/1" xmlns:xsi="http://www.w3.org/2001/XMLSchema-instance" xsi:schemaLocation="http://www.topografix.com/GPX/1/1 http://www.topografix.com/GPX/1/1/gpx.xsd" version="1.1" creator="VisuGPX - https://www.visugpx.com">
  <metadata>
    <name>Rando Montpeyroux - Coudes - Sauvagnat ste Marthe - Chadeleuf - Champeix - Montpeyroux</name>
    <desc><![CDATA[Sortie roulante et agréable. Pistes larges.]]></desc>
  </metadata>
  <trk>
    <name><![CDATA[Montpeyroux - Coudes - Chadeleuf - Champeix - Montpeyroux]]></name>
    <trkseg>
      <trkpt lat="45.6251" lon="3.20134">
        <ele>520</ele>
        <time>2015-03-29T12:37:52+02:00</time>
      </trkpt>
      <trkpt lat="45.6251" lon="3.20129">
        <ele>522</ele>
        <time>2015-03-29T12:37:52+02:00</time>
      </trkpt>
      <trkpt lat="45.62508" lon="3.20134">
        <ele>521</ele>
        <time>2015-03-29T12:37:52+02:00</time>
      </trkpt>
      <trkpt lat="45.62524" lon="3.20154">
        <ele>522</ele>
        <time>2015-03-29T12:37:52+02:00</time>
      </trkpt>
      <trkpt lat="45.62525" lon="3.20156">
        <ele>522</ele>
        <time>2015-03-29T12:37:52+02:00</time>
      </trkpt>
      <trkpt lat="45.62527" lon="3.20159">
        <ele>521</ele>
        <time>2015-03-29T12:37:52+02:00</time>
      </trkpt>
      <trkpt lat="45.6253" lon="3.20163">
        <ele>521</ele>
        <time>2015-03-29T12:37:52+02:00</time>
      </trkpt>
      <trkpt lat="45.62532" lon="3.20167">
        <ele>521</ele>
        <time>2015-03-29T12:37:52+02:00</time>
      </trkpt>
      <trkpt lat="45.62534" lon="3.20168">
        <ele>521</ele>
        <time>2015-03-29T12:37:52+02:00</time>
      </trkpt>
      <trkpt lat="45.62537" lon="3.20171">
        <ele>521</ele>
        <time>2015-03-29T12:37:52+02:00</time>
      </trkpt>
      <trkpt lat="45.62538" lon="3.20173">
        <ele>521</ele>
        <time>2015-03-29T12:37:52+02:00</time>
      </trkpt>
      <trkpt lat="45.6254" lon="3.20174">
        <ele>522</ele>
        <time>2015-03-29T12:37:52+02:00</time>
      </trkpt>
      <trkpt lat="45.62543" lon="3.20176">
        <ele>522</ele>
        <time>2015-03-29T12:37:52+02:00</time>
      </trkpt>
      <trkpt lat="45.62546" lon="3.20175">
        <ele>521</ele>
        <time>2015-03-29T12:37:52+02:00</time>
      </trkpt>
      <trkpt lat="45.62548" lon="3.20179">
        <ele>521</ele>
        <time>2015-03-29T12:37:52+02:00</time>
      </trkpt>
      <trkpt lat="45.62549" lon="3.20183">
        <ele>523</ele>
        <time>2015-03-29T12:37:52+02:00</time>
      </trkpt>
      <trkpt lat="45.62552" lon="3.20183">
        <ele>521</ele>
        <time>2015-03-29T12:37:52+02:00</time>
      </trkpt>
      <trkpt lat="45.62555" lon="3.20184">
        <ele>521</ele>
        <time>2015-03-29T12:37:52+02:00</time>
      </trkpt>
      <trkpt lat="45.62558" lon="3.20186">
        <ele>520</ele>
        <time>2015-03-29T12:37:52+02:00</time>
      </trkpt>
      <trkpt lat="45.62561" lon="3.20189">
        <ele>521</ele>
        <time>2015-03-29T12:37:52+02:00</time>
      </trkpt>
      <trkpt lat="45.62564" lon="3.20192">
        <ele>521</ele>
        <time>2015-03-29T12:40:00+02:00</time>
      </trkpt>
      <trkpt lat="45.62566" lon="3.20195">
        <ele>521</ele>
        <time>2015-03-29T12:40:00+02:00</time>
      </trkpt>
      <trkpt lat="45.62568" lon="3.20198">
        <ele>521</ele>
        <time>2015-03-29T12:40:00+02:00</time>
      </trkpt>
      <trkpt lat="45.6257" lon="3.20201">
        <ele>521</ele>
        <time>2015-03-29T12:40:00+02:00</time>
      </trkpt>
      <trkpt lat="45.62573" lon="3.20204">
        <ele>521</ele>
        <time>2015-03-29T12:40:00+02:00</time>
      </trkpt>
      <trkpt lat="45.62575" lon="3.20208">
        <ele>521</ele>
        <time>2015-03-29T12:40:00+02:00</time>
      </trkpt>
      <trkpt lat="45.62577" lon="3.20212">
        <ele>521</ele>
        <time>2015-03-29T12:40:00+02:00</time>
      </trkpt>
      <trkpt lat="45.62579" lon="3.20216">
        <ele>521</ele>
        <time>2015-03-29T12:40:00+02:00</time>
      </trkpt>
      <trkpt lat="45.62581" lon="3.2022">
        <ele>522</ele>
        <time>2015-03-29T12:40:00+02:00</time>
      </trkpt>
      <trkpt lat="45.62583" lon="3.20223">
        <ele>521</ele>
        <time>2015-03-29T12:40:00+02:00</time>
      </trkpt>
      <trkpt lat="45.62584" lon="3.20225">
        <ele>521</ele>
        <time>2015-03-29T12:40:00+02:00</time>
      </trkpt>
      <trkpt lat="45.62585" lon="3.20227">
        <ele>522</ele>
        <time>2015-03-29T12:40:00+02:00</time>
      </trkpt>
      <trkpt lat="45.62589" lon="3.2023">
        <ele>521</ele>
        <time>2015-03-29T12:40:00+02:00</time>
      </trkpt>
      <trkpt lat="45.6259" lon="3.20231">
        <ele>521</ele>
        <time>2015-03-29T12:40:00+02:00</time>
      </trkpt>
      <trkpt lat="45.62591" lon="3.20233">
        <ele>521</ele>
        <time>2015-03-29T12:40:00+02:00</time>
      </trkpt>
      <trkpt lat="45.62594" lon="3.20237">
        <ele>521</ele>
        <time>2015-03-29T12:40:00+02:00</time>
      </trkpt>
      <trkpt lat="45.62597" lon="3.20239">
        <ele>520</ele>
        <time>2015-03-29T12:40:00+02:00</time>
      </trkpt>
      <trkpt lat="45.62599" lon="3.20241">
        <ele>520</ele>
        <time>2015-03-29T12:40:00+02:00</time>
      </trkpt>
      <trkpt lat="45.62601" lon="3.20244">
        <ele>520</ele>
        <time>2015-03-29T12:40:00+02:00</time>
      </trkpt>
      <trkpt lat="45.62603" lon="3.20248">
        <ele>519</ele>
        <time>2015-03-29T12:40:00+02:00</time>
      </trkpt>
      <trkpt lat="45.62605" lon="3.20252">
        <ele>519</ele>
        <time>2015-03-29T12:40:00+02:00</time>
      </trkpt>
      <trkpt lat="45.62606" lon="3.20254">
        <ele>519</ele>
        <time>2015-03-29T12:40:00+02:00</time>
      </trkpt>
      <trkpt lat="45.62608" lon="3.20258">
        <ele>518</ele>
        <time>2015-03-29T12:40:00+02:00</time>
      </trkpt>
      <trkpt lat="45.62609" lon="3.20262">
        <ele>518</ele>
        <time>2015-03-29T12:40:00+02:00</time>
      </trkpt>
      <trkpt lat="45.6261" lon="3.20265">
        <ele>519</ele>
        <time>2015-03-29T12:40:00+02:00</time>
      </trkpt>
      <trkpt lat="45.62612" lon="3.20269">
        <ele>519</ele>
        <time>2015-03-29T12:40:00+02:00</time>
      </trkpt>
      <trkpt lat="45.62613" lon="3.20273">
        <ele>518</ele>
        <time>2015-03-29T12:40:00+02:00</time>
      </trkpt>
      <trkpt lat="45.62613" lon="3.20278">
        <ele>518</ele>
        <time>2015-03-29T12:40:00+02:00</time>
      </trkpt>
      <trkpt lat="45.62614" lon="3.20282">
        <ele>518</ele>
        <time>2015-03-29T12:40:00+02:00</time>
      </trkpt>
      <trkpt lat="45.62613" lon="3.20284">
        <ele>518</ele>
        <time>2015-03-29T12:40:00+02:00</time>
      </trkpt>
      <trkpt lat="45.62613" lon="3.20289">
        <ele>518</ele>
        <time>2015-03-29T12:40:00+02:00</time>
      </trkpt>
      <trkpt lat="45.62613" lon="3.20293">
        <ele>516</ele>
        <time>2015-03-29T12:40:00+02:00</time>
      </trkpt>
      <trkpt lat="45.62611" lon="3.20297">
        <ele>517</ele>
        <time>2015-03-29T12:40:00+02:00</time>
      </trkpt>
      <trkpt lat="45.6261" lon="3.203">
        <ele>517</ele>
        <time>2015-03-29T12:40:00+02:00</time>
      </trkpt>
      <trkpt lat="45.62609" lon="3.20303">
        <ele>516</ele>
        <time>2015-03-29T12:40:00+02:00</time>
      </trkpt>
      <trkpt lat="45.62607" lon="3.20305">
        <ele>516</ele>
        <time>2015-03-29T12:40:00+02:00</time>
      </trkpt>
      <trkpt lat="45.62604" lon="3.20308">
        <ele>516</ele>
        <time>2015-03-29T12:40:00+02:00</time>
      </trkpt>
      <trkpt lat="45.62601" lon="3.20311">
        <ele>516</ele>
        <time>2015-03-29T12:40:00+02:00</time>
      </trkpt>
      <trkpt lat="45.62599" lon="3.20313">
        <ele>516</ele>
        <time>2015-03-29T12:40:00+02:00</time>
      </trkpt>
      <trkpt lat="45.62595" lon="3.20314">
        <ele>516</ele>
        <time>2015-03-29T12:40:00+02:00</time>
      </trkpt>
      <trkpt lat="45.62592" lon="3.20315">
        <ele>516</ele>
        <time>2015-03-29T12:40:00+02:00</time>
      </trkpt>
      <trkpt lat="45.62589" lon="3.20316">
        <ele>516</ele>
        <time>2015-03-29T12:40:00+02:00</time>
      </trkpt>
      <trkpt lat="45.62586" lon="3.20318">
        <ele>516</ele>
        <time>2015-03-29T12:40:00+02:00</time>
      </trkpt>
      <trkpt lat="45.62584" lon="3.20319">
        <ele>516</ele>
        <time>2015-03-29T12:40:00+02:00</time>
      </trkpt>
      <trkpt lat="45.62581" lon="3.2032">
        <ele>516</ele>
        <time>2015-03-29T12:40:00+02:00</time>
      </trkpt>
      <trkpt lat="45.62578" lon="3.20322">
        <ele>516</ele>
        <time>2015-03-29T12:40:00+02:00</time>
      </trkpt>
      <trkpt lat="45.62575" lon="3.20324">
        <ele>516</ele>
        <time>2015-03-29T12:40:00+02:00</time>
      </trkpt>
      <trkpt lat="45.62573" lon="3.20327">
        <ele>516</ele>
        <time>2015-03-29T12:40:00+02:00</time>
      </trkpt>
      <trkpt lat="45.62571" lon="3.2033">
        <ele>515</ele>
        <time>2015-03-29T12:40:00+02:00</time>
      </trkpt>
      <trkpt lat="45.62569" lon="3.20334">
        <ele>515</ele>
        <time>2015-03-29T12:40:00+02:00</time>
      </trkpt>
      <trkpt lat="45.62568" lon="3.20336">
        <ele>515</ele>
        <time>2015-03-29T12:40:00+02:00</time>
      </trkpt>
      <trkpt lat="45.62567" lon="3.2034">
        <ele>514</ele>
        <time>2015-03-29T12:40:00+02:00</time>
      </trkpt>
      <trkpt lat="45.62566" lon="3.20343">
        <ele>514</ele>
        <time>2015-03-29T12:40:00+02:00</time>
      </trkpt>
      <trkpt lat="45.62564" lon="3.20346">
        <ele>513</ele>
        <time>2015-03-29T12:40:00+02:00</time>
      </trkpt>
      <trkpt lat="45.62562" lon="3.2035">
        <ele>513</ele>
        <time>2015-03-29T12:40:00+02:00</time>
      </trkpt>
      <trkpt lat="45.62559" lon="3.20352">
        <ele>513</ele>
        <time>2015-03-29T12:40:00+02:00</time>
      </trkpt>
      <trkpt lat="45.62557" lon="3.20353">
        <ele>513</ele>
        <time>2015-03-29T12:40:00+02:00</time>
      </trkpt>
      <trkpt lat="45.62554" lon="3.20354">
        <ele>513</ele>
        <time>2015-03-29T12:40:00+02:00</time>
      </trkpt>
      <trkpt lat="45.62551" lon="3.20356">
        <ele>513</ele>
        <time>2015-03-29T12:40:00+02:00</time>
      </trkpt>
      <trkpt lat="45.62549" lon="3.20358">
        <ele>513</ele>
        <time>2015-03-29T12:40:00+02:00</time>
      </trkpt>
      <trkpt lat="45.62545" lon="3.2036">
        <ele>513</ele>
        <time>2015-03-29T12:40:00+02:00</time>
      </trkpt>
      <trkpt lat="45.62544" lon="3.20362">
        <ele>513</ele>
        <time>2015-03-29T12:40:00+02:00</time>
      </trkpt>
      <trkpt lat="45.62541" lon="3.20364">
        <ele>513</ele>
        <time>2015-03-29T12:40:00+02:00</time>
      </trkpt>
      <trkpt lat="45.62539" lon="3.20365">
        <ele>514</ele>
        <time>2015-03-29T12:40:00+02:00</time>
      </trkpt>
      <trkpt lat="45.62537" lon="3.20366">
        <ele>513</ele>
        <time>2015-03-29T12:40:00+02:00</time>
      </trkpt>
      <trkpt lat="45.62534" lon="3.20368">
        <ele>513</ele>
        <time>2015-03-29T12:40:00+02:00</time>
      </trkpt>
      <trkpt lat="45.62532" lon="3.2037">
        <ele>513</ele>
        <time>2015-03-29T12:40:00+02:00</time>
      </trkpt>
      <trkpt lat="45.6253" lon="3.2037">
        <ele>513</ele>
        <time>2015-03-29T12:40:00+02:00</time>
      </trkpt>
      <trkpt lat="45.62529" lon="3.20372">
        <ele>513</ele>
        <time>2015-03-29T12:40:00+02:00</time>
      </trkpt>
      <trkpt lat="45.62526" lon="3.20373">
        <ele>513</ele>
        <time>2015-03-29T12:40:00+02:00</time>
      </trkpt>
      <trkpt lat="45.62523" lon="3.20374">
        <ele>513</ele>
        <time>2015-03-29T12:40:00+02:00</time>
      </trkpt>
      <trkpt lat="45.6252" lon="3.20376">
        <ele>513</ele>
        <time>2015-03-29T12:42:08+02:00</time>
      </trkpt>
      <trkpt lat="45.62519" lon="3.2038">
        <ele>513</ele>
        <time>2015-03-29T12:42:08+02:00</time>
      </trkpt>
      <trkpt lat="45.62519" lon="3.20384">
        <ele>512</ele>
        <time>2015-03-29T12:42:08+02:00</time>
      </trkpt>
      <trkpt lat="45.62519" lon="3.20388">
        <ele>512</ele>
        <time>2015-03-29T12:42:08+02:00</time>
      </trkpt>
      <trkpt lat="45.6252" lon="3.20393">
        <ele>512</ele>
        <time>2015-03-29T12:42:08+02:00</time>
      </trkpt>
      <trkpt lat="45.62521" lon="3.20397">
        <ele>512</ele>
        <time>2015-03-29T12:42:08+02:00</time>
      </trkpt>
      <trkpt lat="45.62522" lon="3.20401">
        <ele>511</ele>
        <time>2015-03-29T12:42:08+02:00</time>
      </trkpt>
      <trkpt lat="45.62522" lon="3.20406">
        <ele>511</ele>
        <time>2015-03-29T12:42:08+02:00</time>
      </trkpt>
      <trkpt lat="45.62523" lon="3.2041">
        <ele>510</ele>
        <time>2015-03-29T12:42:08+02:00</time>
      </trkpt>
      <trkpt lat="45.62524" lon="3.20415">
        <ele>510</ele>
        <time>2015-03-29T12:42:08+02:00</time>
      </trkpt>
      <trkpt lat="45.62524" lon="3.20417">
        <ele>510</ele>
        <time>2015-03-29T12:42:08+02:00</time>
      </trkpt>
      <trkpt lat="45.62524" lon="3.20422">
        <ele>509</ele>
        <time>2015-03-29T12:42:08+02:00</time>
      </trkpt>
      <trkpt lat="45.62525" lon="3.20425">
        <ele>509</ele>
        <time>2015-03-29T12:42:08+02:00</time>
      </trkpt>
      <trkpt lat="45.62525" lon="3.20427">
        <ele>509</ele>
        <time>2015-03-29T12:42:08+02:00</time>
      </trkpt>
      <trkpt lat="45.62525" lon="3.2043">
        <ele>509</ele>
        <time>2015-03-29T12:42:08+02:00</time>
      </trkpt>
      <trkpt lat="45.62526" lon="3.20435">
        <ele>508</ele>
        <time>2015-03-29T12:42:08+02:00</time>
      </trkpt>
      <trkpt lat="45.62526" lon="3.2044">
        <ele>508</ele>
        <time>2015-03-29T12:42:08+02:00</time>
      </trkpt>
      <trkpt lat="45.62526" lon="3.20443">
        <ele>508</ele>
        <time>2015-03-29T12:42:08+02:00</time>
      </trkpt>
      <trkpt lat="45.62526" lon="3.20447">
        <ele>508</ele>
        <time>2015-03-29T12:42:08+02:00</time>
      </trkpt>
      <trkpt lat="45.62526" lon="3.20452">
        <ele>507</ele>
        <time>2015-03-29T12:42:08+02:00</time>
      </trkpt>
      <trkpt lat="45.62526" lon="3.20457">
        <ele>507</ele>
        <time>2015-03-29T12:42:08+02:00</time>
      </trkpt>
      <trkpt lat="45.62526" lon="3.20459">
        <ele>507</ele>
        <time>2015-03-29T12:42:08+02:00</time>
      </trkpt>
      <trkpt lat="45.62527" lon="3.20462">
        <ele>507</ele>
        <time>2015-03-29T12:42:08+02:00</time>
      </trkpt>
      <trkpt lat="45.62527" lon="3.20467">
        <ele>507</ele>
        <time>2015-03-29T12:42:08+02:00</time>
      </trkpt>
      <trkpt lat="45.62527" lon="3.20472">
        <ele>506</ele>
        <time>2015-03-29T12:42:08+02:00</time>
      </trkpt>
      <trkpt lat="45.62527" lon="3.20477">
        <ele>506</ele>
        <time>2015-03-29T12:42:08+02:00</time>
      </trkpt>
      <trkpt lat="45.62528" lon="3.20479">
        <ele>506</ele>
        <time>2015-03-29T12:42:08+02:00</time>
      </trkpt>
      <trkpt lat="45.62528" lon="3.20484">
        <ele>506</ele>
        <time>2015-03-29T12:42:08+02:00</time>
      </trkpt>
      <trkpt lat="45.62528" lon="3.20489">
        <ele>506</ele>
        <time>2015-03-29T12:42:08+02:00</time>
      </trkpt>
      <trkpt lat="45.62528" lon="3.20494">
        <ele>506</ele>
        <time>2015-03-29T12:42:08+02:00</time>
      </trkpt>
      <trkpt lat="45.62527" lon="3.20499">
        <ele>506</ele>
        <time>2015-03-29T12:42:08+02:00</time>
      </trkpt>
      <trkpt lat="45.62527" lon="3.20503">
        <ele>507</ele>
        <time>2015-03-29T12:42:08+02:00</time>
      </trkpt>
      <trkpt lat="45.62527" lon="3.20507">
        <ele>506</ele>
        <time>2015-03-29T12:42:08+02:00</time>
      </trkpt>
      <trkpt lat="45.62527" lon="3.20513">
        <ele>505</ele>
        <time>2015-03-29T12:42:08+02:00</time>
      </trkpt>
      <trkpt lat="45.62528" lon="3.20517">
        <ele>505</ele>
        <time>2015-03-29T12:42:08+02:00</time>
      </trkpt>
      <trkpt lat="45.62528" lon="3.20522">
        <ele>505</ele>
        <time>2015-03-29T12:42:08+02:00</time>
      </trkpt>
      <trkpt lat="45.62528" lon="3.20527">
        <ele>505</ele>
        <time>2015-03-29T12:42:08+02:00</time>
      </trkpt>
      <trkpt lat="45.62528" lon="3.2053">
        <ele>504</ele>
        <time>2015-03-29T12:42:08+02:00</time>
      </trkpt>
      <trkpt lat="45.62529" lon="3.20535">
        <ele>504</ele>
        <time>2015-03-29T12:42:08+02:00</time>
      </trkpt>
      <trkpt lat="45.62529" lon="3.20539">
        <ele>504</ele>
        <time>2015-03-29T12:42:08+02:00</time>
      </trkpt>
      <trkpt lat="45.62529" lon="3.20544">
        <ele>504</ele>
        <time>2015-03-29T12:42:08+02:00</time>
      </trkpt>
      <trkpt lat="45.62529" lon="3.20548">
        <ele>504</ele>
        <time>2015-03-29T12:42:08+02:00</time>
      </trkpt>
      <trkpt lat="45.62529" lon="3.20553">
        <ele>504</ele>
        <time>2015-03-29T12:42:08+02:00</time>
      </trkpt>
      <trkpt lat="45.62529" lon="3.20558">
        <ele>503</ele>
        <time>2015-03-29T12:42:08+02:00</time>
      </trkpt>
      <trkpt lat="45.62529" lon="3.20562">
        <ele>503</ele>
        <time>2015-03-29T12:42:08+02:00</time>
      </trkpt>
      <trkpt lat="45.62529" lon="3.20567">
        <ele>503</ele>
        <time>2015-03-29T12:42:08+02:00</time>
      </trkpt>
      <trkpt lat="45.62529" lon="3.20571">
        <ele>502</ele>
        <time>2015-03-29T12:42:08+02:00</time>
      </trkpt>
      <trkpt lat="45.62529" lon="3.20574">
        <ele>502</ele>
        <time>2015-03-29T12:42:08+02:00</time>
      </trkpt>
      <trkpt lat="45.6253" lon="3.20577">
        <ele>502</ele>
        <time>2015-03-29T12:42:08+02:00</time>
      </trkpt>
      <trkpt lat="45.6253" lon="3.20581">
        <ele>501</ele>
        <time>2015-03-29T12:42:08+02:00</time>
      </trkpt>
      <trkpt lat="45.6253" lon="3.20586">
        <ele>501</ele>
        <time>2015-03-29T12:42:08+02:00</time>
      </trkpt>
      <trkpt lat="45.6253" lon="3.20591">
        <ele>500</ele>
        <time>2015-03-29T12:42:08+02:00</time>
      </trkpt>
      <trkpt lat="45.6253" lon="3.20596">
        <ele>500</ele>
        <time>2015-03-29T12:42:08+02:00</time>
      </trkpt>
      <trkpt lat="45.6253" lon="3.20598">
        <ele>500</ele>
        <time>2015-03-29T12:42:08+02:00</time>
      </trkpt>
      <trkpt lat="45.62531" lon="3.20604">
        <ele>500</ele>
        <time>2015-03-29T12:42:08+02:00</time>
      </trkpt>
      <trkpt lat="45.62531" lon="3.20608">
        <ele>500</ele>
        <time>2015-03-29T12:42:08+02:00</time>
      </trkpt>
      <trkpt lat="45.62531" lon="3.20613">
        <ele>500</ele>
        <time>2015-03-29T12:42:08+02:00</time>
      </trkpt>
      <trkpt lat="45.62531" lon="3.20618">
        <ele>499</ele>
        <time>2015-03-29T12:42:08+02:00</time>
      </trkpt>
      <trkpt lat="45.62532" lon="3.20623">
        <ele>499</ele>
        <time>2015-03-29T12:42:08+02:00</time>
      </trkpt>
      <trkpt lat="45.62532" lon="3.20626">
        <ele>499</ele>
        <time>2015-03-29T12:42:08+02:00</time>
      </trkpt>
      <trkpt lat="45.62532" lon="3.2063">
        <ele>499</ele>
        <time>2015-03-29T12:42:08+02:00</time>
      </trkpt>
      <trkpt lat="45.62532" lon="3.20635">
        <ele>498</ele>
        <time>2015-03-29T12:42:08+02:00</time>
      </trkpt>
      <trkpt lat="45.62533" lon="3.20638">
        <ele>498</ele>
        <time>2015-03-29T12:42:08+02:00</time>
      </trkpt>
      <trkpt lat="45.62533" lon="3.20641">
        <ele>498</ele>
        <time>2015-03-29T12:42:08+02:00</time>
      </trkpt>
      <trkpt lat="45.62533" lon="3.20645">
        <ele>498</ele>
        <time>2015-03-29T12:42:08+02:00</time>
      </trkpt>
      <trkpt lat="45.62533" lon="3.2065">
        <ele>498</ele>
        <time>2015-03-29T12:42:08+02:00</time>
      </trkpt>
      <trkpt lat="45.62533" lon="3.20655">
        <ele>498</ele>
        <time>2015-03-29T12:42:08+02:00</time>
      </trkpt>
      <trkpt lat="45.62534" lon="3.2066">
        <ele>497</ele>
        <time>2015-03-29T12:42:08+02:00</time>
      </trkpt>
      <trkpt lat="45.62534" lon="3.20665">
        <ele>497</ele>
        <time>2015-03-29T12:42:08+02:00</time>
      </trkpt>
      <trkpt lat="45.62534" lon="3.2067">
        <ele>497</ele>
        <time>2015-03-29T12:42:08+02:00</time>
      </trkpt>
      <trkpt lat="45.62535" lon="3.20675">
        <ele>497</ele>
        <time>2015-03-29T12:42:08+02:00</time>
      </trkpt>
      <trkpt lat="45.62535" lon="3.20677">
        <ele>497</ele>
        <time>2015-03-29T12:42:08+02:00</time>
      </trkpt>
      <trkpt lat="45.62535" lon="3.20682">
        <ele>496</ele>
        <time>2015-03-29T12:42:08+02:00</time>
      </trkpt>
      <trkpt lat="45.62535" lon="3.20687">
        <ele>496</ele>
        <time>2015-03-29T12:44:16+02:00</time>
      </trkpt>
      <trkpt lat="45.62535" lon="3.20692">
        <ele>496</ele>
        <time>2015-03-29T12:44:16+02:00</time>
      </trkpt>
      <trkpt lat="45.62536" lon="3.20695">
        <ele>496</ele>
        <time>2015-03-29T12:44:16+02:00</time>
      </trkpt>
      <trkpt lat="45.62536" lon="3.20699">
        <ele>496</ele>
        <time>2015-03-29T12:44:16+02:00</time>
      </trkpt>
      <trkpt lat="45.62536" lon="3.20704">
        <ele>495</ele>
        <time>2015-03-29T12:44:16+02:00</time>
      </trkpt>
      <trkpt lat="45.62536" lon="3.20709">
        <ele>495</ele>
        <time>2015-03-29T12:44:16+02:00</time>
      </trkpt>
      <trkpt lat="45.62537" lon="3.20714">
        <ele>494</ele>
        <time>2015-03-29T12:44:16+02:00</time>
      </trkpt>
      <trkpt lat="45.62537" lon="3.20719">
        <ele>494</ele>
        <time>2015-03-29T12:44:16+02:00</time>
      </trkpt>
      <trkpt lat="45.62537" lon="3.20721">
        <ele>494</ele>
        <time>2015-03-29T12:44:16+02:00</time>
      </trkpt>
      <trkpt lat="45.62537" lon="3.20724">
        <ele>494</ele>
        <time>2015-03-29T12:44:16+02:00</time>
      </trkpt>
      <trkpt lat="45.62538" lon="3.20727">
        <ele>494</ele>
        <time>2015-03-29T12:44:16+02:00</time>
      </trkpt>
      <trkpt lat="45.62538" lon="3.20732">
        <ele>494</ele>
        <time>2015-03-29T12:44:16+02:00</time>
      </trkpt>
      <trkpt lat="45.62538" lon="3.20737">
        <ele>494</ele>
        <time>2015-03-29T12:44:16+02:00</time>
      </trkpt>
      <trkpt lat="45.62538" lon="3.20742">
        <ele>493</ele>
        <time>2015-03-29T12:44:16+02:00</time>
      </trkpt>
      <trkpt lat="45.62539" lon="3.20747">
        <ele>493</ele>
        <time>2015-03-29T12:44:16+02:00</time>
      </trkpt>
      <trkpt lat="45.62539" lon="3.20752">
        <ele>493</ele>
        <time>2015-03-29T12:44:16+02:00</time>
      </trkpt>
      <trkpt lat="45.6254" lon="3.20754">
        <ele>493</ele>
        <time>2015-03-29T12:44:16+02:00</time>
      </trkpt>
      <trkpt lat="45.6254" lon="3.20759">
        <ele>493</ele>
        <time>2015-03-29T12:44:16+02:00</time>
      </trkpt>
      <trkpt lat="45.6254" lon="3.20764">
        <ele>492</ele>
        <time>2015-03-29T12:44:16+02:00</time>
      </trkpt>
      <trkpt lat="45.6254" lon="3.20769">
        <ele>492</ele>
        <time>2015-03-29T12:44:16+02:00</time>
      </trkpt>
      <trkpt lat="45.6254" lon="3.20772">
        <ele>492</ele>
        <time>2015-03-29T12:44:16+02:00</time>
      </trkpt>
      <trkpt lat="45.62541" lon="3.20777">
        <ele>491</ele>
        <time>2015-03-29T12:44:16+02:00</time>
      </trkpt>
      <trkpt lat="45.62541" lon="3.20782">
        <ele>491</ele>
        <time>2015-03-29T12:44:16+02:00</time>
      </trkpt>
      <trkpt lat="45.62541" lon="3.20785">
        <ele>491</ele>
        <time>2015-03-29T12:44:16+02:00</time>
      </trkpt>
      <trkpt lat="45.62541" lon="3.20788">
        <ele>491</ele>
        <time>2015-03-29T12:44:16+02:00</time>
      </trkpt>
      <trkpt lat="45.62541" lon="3.20793">
        <ele>491</ele>
        <time>2015-03-29T12:44:16+02:00</time>
      </trkpt>
      <trkpt lat="45.62541" lon="3.20796">
        <ele>490</ele>
        <time>2015-03-29T12:44:16+02:00</time>
      </trkpt>
      <trkpt lat="45.6254" lon="3.208">
        <ele>490</ele>
        <time>2015-03-29T12:44:16+02:00</time>
      </trkpt>
      <trkpt lat="45.62537" lon="3.20804">
        <ele>490</ele>
        <time>2015-03-29T12:44:16+02:00</time>
      </trkpt>
      <trkpt lat="45.62534" lon="3.20805">
        <ele>490</ele>
        <time>2015-03-29T12:44:16+02:00</time>
      </trkpt>
      <trkpt lat="45.62531" lon="3.20807">
        <ele>490</ele>
        <time>2015-03-29T12:44:16+02:00</time>
      </trkpt>
      <trkpt lat="45.62528" lon="3.20808">
        <ele>490</ele>
        <time>2015-03-29T12:44:16+02:00</time>
      </trkpt>
      <trkpt lat="45.62525" lon="3.20809">
        <ele>490</ele>
        <time>2015-03-29T12:44:16+02:00</time>
      </trkpt>
      <trkpt lat="45.62522" lon="3.2081">
        <ele>490</ele>
        <time>2015-03-29T12:44:16+02:00</time>
      </trkpt>
      <trkpt lat="45.62519" lon="3.20812">
        <ele>490</ele>
        <time>2015-03-29T12:44:16+02:00</time>
      </trkpt>
      <trkpt lat="45.62516" lon="3.20813">
        <ele>490</ele>
        <time>2015-03-29T12:44:16+02:00</time>
      </trkpt>
      <trkpt lat="45.62513" lon="3.20815">
        <ele>489</ele>
        <time>2015-03-29T12:44:16+02:00</time>
      </trkpt>
      <trkpt lat="45.62509" lon="3.20816">
        <ele>490</ele>
        <time>2015-03-29T12:44:16+02:00</time>
      </trkpt>
      <trkpt lat="45.62506" lon="3.20817">
        <ele>490</ele>
        <time>2015-03-29T12:44:16+02:00</time>
      </trkpt>
      <trkpt lat="45.62503" lon="3.20819">
        <ele>490</ele>
        <time>2015-03-29T12:44:16+02:00</time>
      </trkpt>
      <trkpt lat="45.625" lon="3.2082">
        <ele>490</ele>
        <time>2015-03-29T12:44:16+02:00</time>
      </trkpt>
      <trkpt lat="45.62498" lon="3.20821">
        <ele>490</ele>
        <time>2015-03-29T12:44:16+02:00</time>
      </trkpt>
      <trkpt lat="45.62497" lon="3.20822">
        <ele>490</ele>
        <time>2015-03-29T12:44:16+02:00</time>
      </trkpt>
      <trkpt lat="45.62494" lon="3.20824">
        <ele>490</ele>
        <time>2015-03-29T12:44:16+02:00</time>
      </trkpt>
      <trkpt lat="45.62492" lon="3.20825">
        <ele>490</ele>
        <time>2015-03-29T12:44:16+02:00</time>
      </trkpt>
      <trkpt lat="45.62488" lon="3.20826">
        <ele>490</ele>
        <time>2015-03-29T12:44:16+02:00</time>
      </trkpt>
      <trkpt lat="45.62485" lon="3.20828">
        <ele>490</ele>
        <time>2015-03-29T12:44:16+02:00</time>
      </trkpt>
      <trkpt lat="45.62482" lon="3.2083">
        <ele>490</ele>
        <time>2015-03-29T12:44:16+02:00</time>
      </trkpt>
      <trkpt lat="45.62481" lon="3.20831">
        <ele>490</ele>
        <time>2015-03-29T12:44:16+02:00</time>
      </trkpt>
      <trkpt lat="45.62477" lon="3.20833">
        <ele>491</ele>
        <time>2015-03-29T12:44:16+02:00</time>
      </trkpt>
      <trkpt lat="45.62473" lon="3.20834">
        <ele>490</ele>
        <time>2015-03-29T12:44:16+02:00</time>
      </trkpt>
      <trkpt lat="45.6247" lon="3.20837">
        <ele>491</ele>
        <time>2015-03-29T12:44:16+02:00</time>
      </trkpt>
      <trkpt lat="45.62468" lon="3.20838">
        <ele>491</ele>
        <time>2015-03-29T12:44:16+02:00</time>
      </trkpt>
      <trkpt lat="45.62465" lon="3.20839">
        <ele>490</ele>
        <time>2015-03-29T12:44:16+02:00</time>
      </trkpt>
      <trkpt lat="45.62464" lon="3.20839">
        <ele>490</ele>
        <time>2015-03-29T12:44:16+02:00</time>
      </trkpt>
      <trkpt lat="45.6246" lon="3.20841">
        <ele>491</ele>
        <time>2015-03-29T12:44:16+02:00</time>
      </trkpt>
      <trkpt lat="45.62457" lon="3.20843">
        <ele>490</ele>
        <time>2015-03-29T12:44:16+02:00</time>
      </trkpt>
      <trkpt lat="45.62454" lon="3.20845">
        <ele>490</ele>
        <time>2015-03-29T12:44:16+02:00</time>
      </trkpt>
      <trkpt lat="45.62451" lon="3.20847">
        <ele>490</ele>
        <time>2015-03-29T12:44:16+02:00</time>
      </trkpt>
      <trkpt lat="45.62449" lon="3.20848">
        <ele>490</ele>
        <time>2015-03-29T12:44:16+02:00</time>
      </trkpt>
      <trkpt lat="45.62446" lon="3.2085">
        <ele>490</ele>
        <time>2015-03-29T12:44:16+02:00</time>
      </trkpt>
      <trkpt lat="45.62443" lon="3.20851">
        <ele>490</ele>
        <time>2015-03-29T12:44:16+02:00</time>
      </trkpt>
      <trkpt lat="45.62439" lon="3.20853">
        <ele>490</ele>
        <time>2015-03-29T12:44:16+02:00</time>
      </trkpt>
      <trkpt lat="45.62436" lon="3.20855">
        <ele>490</ele>
        <time>2015-03-29T12:44:16+02:00</time>
      </trkpt>
      <trkpt lat="45.62433" lon="3.20856">
        <ele>490</ele>
        <time>2015-03-29T12:44:16+02:00</time>
      </trkpt>
      <trkpt lat="45.6243" lon="3.20857">
        <ele>490</ele>
        <time>2015-03-29T12:44:16+02:00</time>
      </trkpt>
      <trkpt lat="45.62427" lon="3.20858">
        <ele>489</ele>
        <time>2015-03-29T12:44:16+02:00</time>
      </trkpt>
      <trkpt lat="45.62424" lon="3.2086">
        <ele>489</ele>
        <time>2015-03-29T12:44:16+02:00</time>
      </trkpt>
      <trkpt lat="45.62422" lon="3.20861">
        <ele>488</ele>
        <time>2015-03-29T12:44:16+02:00</time>
      </trkpt>
      <trkpt lat="45.62419" lon="3.20863">
        <ele>488</ele>
        <time>2015-03-29T12:44:16+02:00</time>
      </trkpt>
      <trkpt lat="45.62416" lon="3.20865">
        <ele>489</ele>
        <time>2015-03-29T12:46:24+02:00</time>
      </trkpt>
      <trkpt lat="45.62414" lon="3.20867">
        <ele>489</ele>
        <time>2015-03-29T12:46:24+02:00</time>
      </trkpt>
      <trkpt lat="45.62411" lon="3.20869">
        <ele>489</ele>
        <time>2015-03-29T12:46:24+02:00</time>
      </trkpt>
      <trkpt lat="45.62407" lon="3.20871">
        <ele>489</ele>
        <time>2015-03-29T12:46:24+02:00</time>
      </trkpt>
      <trkpt lat="45.62404" lon="3.20873">
        <ele>489</ele>
        <time>2015-03-29T12:46:24+02:00</time>
      </trkpt>
      <trkpt lat="45.62401" lon="3.20874">
        <ele>490</ele>
        <time>2015-03-29T12:46:24+02:00</time>
      </trkpt>
      <trkpt lat="45.62399" lon="3.20875">
        <ele>490</ele>
        <time>2015-03-29T12:46:24+02:00</time>
      </trkpt>
      <trkpt lat="45.62397" lon="3.20875">
        <ele>490</ele>
        <time>2015-03-29T12:46:24+02:00</time>
      </trkpt>
      <trkpt lat="45.62395" lon="3.20876">
        <ele>490</ele>
        <time>2015-03-29T12:46:24+02:00</time>
      </trkpt>
      <trkpt lat="45.62393" lon="3.20876">
        <ele>490</ele>
        <time>2015-03-29T12:46:24+02:00</time>
      </trkpt>
      <trkpt lat="45.62391" lon="3.20877">
        <ele>490</ele>
        <time>2015-03-29T12:46:24+02:00</time>
      </trkpt>
      <trkpt lat="45.62389" lon="3.20878">
        <ele>490</ele>
        <time>2015-03-29T12:46:24+02:00</time>
      </trkpt>
      <trkpt lat="45.62388" lon="3.20879">
        <ele>490</ele>
        <time>2015-03-29T12:46:24+02:00</time>
      </trkpt>
      <trkpt lat="45.62386" lon="3.2088">
        <ele>490</ele>
        <time>2015-03-29T12:46:24+02:00</time>
      </trkpt>
      <trkpt lat="45.62383" lon="3.20881">
        <ele>490</ele>
        <time>2015-03-29T12:46:24+02:00</time>
      </trkpt>
      <trkpt lat="45.6238" lon="3.20882">
        <ele>490</ele>
        <time>2015-03-29T12:46:24+02:00</time>
      </trkpt>
      <trkpt lat="45.62377" lon="3.20882">
        <ele>490</ele>
        <time>2015-03-29T12:46:24+02:00</time>
      </trkpt>
      <trkpt lat="45.62374" lon="3.20883">
        <ele>491</ele>
        <time>2015-03-29T12:46:24+02:00</time>
      </trkpt>
      <trkpt lat="45.62371" lon="3.20884">
        <ele>491</ele>
        <time>2015-03-29T12:46:24+02:00</time>
      </trkpt>
      <trkpt lat="45.62368" lon="3.20885">
        <ele>491</ele>
        <time>2015-03-29T12:46:24+02:00</time>
      </trkpt>
      <trkpt lat="45.62365" lon="3.20886">
        <ele>491</ele>
        <time>2015-03-29T12:46:24+02:00</time>
      </trkpt>
      <trkpt lat="45.62362" lon="3.20887">
        <ele>491</ele>
        <time>2015-03-29T12:46:24+02:00</time>
      </trkpt>
      <trkpt lat="45.62359" lon="3.20888">
        <ele>491</ele>
        <time>2015-03-29T12:46:24+02:00</time>
      </trkpt>
      <trkpt lat="45.62356" lon="3.20888">
        <ele>492</ele>
        <time>2015-03-29T12:46:24+02:00</time>
      </trkpt>
      <trkpt lat="45.62353" lon="3.20889">
        <ele>491</ele>
        <time>2015-03-29T12:46:24+02:00</time>
      </trkpt>
      <trkpt lat="45.62349" lon="3.2089">
        <ele>492</ele>
        <time>2015-03-29T12:46:24+02:00</time>
      </trkpt>
      <trkpt lat="45.62346" lon="3.2089">
        <ele>492</ele>
        <time>2015-03-29T12:46:24+02:00</time>
      </trkpt>
      <trkpt lat="45.62343" lon="3.20891">
        <ele>492</ele>
        <time>2015-03-29T12:46:24+02:00</time>
      </trkpt>
      <trkpt lat="45.6234" lon="3.20891">
        <ele>492</ele>
        <time>2015-03-29T12:46:24+02:00</time>
      </trkpt>
      <trkpt lat="45.62338" lon="3.20892">
        <ele>492</ele>
        <time>2015-03-29T12:46:24+02:00</time>
      </trkpt>
      <trkpt lat="45.62334" lon="3.20892">
        <ele>493</ele>
        <time>2015-03-29T12:46:24+02:00</time>
      </trkpt>
      <trkpt lat="45.62331" lon="3.20892">
        <ele>493</ele>
        <time>2015-03-29T12:46:24+02:00</time>
      </trkpt>
      <trkpt lat="45.62328" lon="3.20893">
        <ele>494</ele>
        <time>2015-03-29T12:46:24+02:00</time>
      </trkpt>
      <trkpt lat="45.62325" lon="3.20894">
        <ele>494</ele>
        <time>2015-03-29T12:46:24+02:00</time>
      </trkpt>
      <trkpt lat="45.62322" lon="3.20895">
        <ele>495</ele>
        <time>2015-03-29T12:46:24+02:00</time>
      </trkpt>
      <trkpt lat="45.62319" lon="3.20894">
        <ele>496</ele>
        <time>2015-03-29T12:46:24+02:00</time>
      </trkpt>
      <trkpt lat="45.62317" lon="3.20893">
        <ele>495</ele>
        <time>2015-03-29T12:46:24+02:00</time>
      </trkpt>
      <trkpt lat="45.62314" lon="3.20894">
        <ele>495</ele>
        <time>2015-03-29T12:46:24+02:00</time>
      </trkpt>
      <trkpt lat="45.62312" lon="3.20894">
        <ele>495</ele>
        <time>2015-03-29T12:46:24+02:00</time>
      </trkpt>
      <trkpt lat="45.62309" lon="3.20894">
        <ele>494</ele>
        <time>2015-03-29T12:46:24+02:00</time>
      </trkpt>
      <trkpt lat="45.62306" lon="3.20895">
        <ele>494</ele>
        <time>2015-03-29T12:46:24+02:00</time>
      </trkpt>
      <trkpt lat="45.62303" lon="3.20895">
        <ele>494</ele>
        <time>2015-03-29T12:46:24+02:00</time>
      </trkpt>
      <trkpt lat="45.623" lon="3.20895">
        <ele>493</ele>
        <time>2015-03-29T12:46:24+02:00</time>
      </trkpt>
      <trkpt lat="45.62297" lon="3.20896">
        <ele>493</ele>
        <time>2015-03-29T12:46:24+02:00</time>
      </trkpt>
      <trkpt lat="45.62294" lon="3.20896">
        <ele>493</ele>
        <time>2015-03-29T12:46:24+02:00</time>
      </trkpt>
      <trkpt lat="45.62291" lon="3.20897">
        <ele>492</ele>
        <time>2015-03-29T12:46:24+02:00</time>
      </trkpt>
      <trkpt lat="45.62288" lon="3.20897">
        <ele>492</ele>
        <time>2015-03-29T12:46:24+02:00</time>
      </trkpt>
      <trkpt lat="45.62285" lon="3.20898">
        <ele>492</ele>
        <time>2015-03-29T12:46:24+02:00</time>
      </trkpt>
      <trkpt lat="45.62281" lon="3.20898">
        <ele>492</ele>
        <time>2015-03-29T12:46:24+02:00</time>
      </trkpt>
      <trkpt lat="45.62279" lon="3.20898">
        <ele>492</ele>
        <time>2015-03-29T12:46:24+02:00</time>
      </trkpt>
      <trkpt lat="45.62276" lon="3.20899">
        <ele>492</ele>
        <time>2015-03-29T12:46:24+02:00</time>
      </trkpt>
      <trkpt lat="45.62273" lon="3.209">
        <ele>492</ele>
        <time>2015-03-29T12:46:24+02:00</time>
      </trkpt>
      <trkpt lat="45.6227" lon="3.209">
        <ele>491</ele>
        <time>2015-03-29T12:46:24+02:00</time>
      </trkpt>
      <trkpt lat="45.62267" lon="3.20901">
        <ele>491</ele>
        <time>2015-03-29T12:46:24+02:00</time>
      </trkpt>
      <trkpt lat="45.62264" lon="3.20901">
        <ele>491</ele>
        <time>2015-03-29T12:46:24+02:00</time>
      </trkpt>
      <trkpt lat="45.6226" lon="3.20902">
        <ele>491</ele>
        <time>2015-03-29T12:46:24+02:00</time>
      </trkpt>
      <trkpt lat="45.62257" lon="3.20902">
        <ele>491</ele>
        <time>2015-03-29T12:46:24+02:00</time>
      </trkpt>
      <trkpt lat="45.62254" lon="3.20903">
        <ele>491</ele>
        <time>2015-03-29T12:46:24+02:00</time>
      </trkpt>
      <trkpt lat="45.62252" lon="3.20903">
        <ele>491</ele>
        <time>2015-03-29T12:46:24+02:00</time>
      </trkpt>
      <trkpt lat="45.62249" lon="3.20904">
        <ele>491</ele>
        <time>2015-03-29T12:46:24+02:00</time>
      </trkpt>
      <trkpt lat="45.62245" lon="3.20905">
        <ele>491</ele>
        <time>2015-03-29T12:46:24+02:00</time>
      </trkpt>
      <trkpt lat="45.62243" lon="3.20904">
        <ele>490</ele>
        <time>2015-03-29T12:46:24+02:00</time>
      </trkpt>
      <trkpt lat="45.62241" lon="3.20905">
        <ele>490</ele>
        <time>2015-03-29T12:46:24+02:00</time>
      </trkpt>
      <trkpt lat="45.62238" lon="3.20905">
        <ele>490</ele>
        <time>2015-03-29T12:46:24+02:00</time>
      </trkpt>
      <trkpt lat="45.62235" lon="3.20906">
        <ele>489</ele>
        <time>2015-03-29T12:46:24+02:00</time>
      </trkpt>
      <trkpt lat="45.62231" lon="3.20906">
        <ele>489</ele>
        <time>2015-03-29T12:46:24+02:00</time>
      </trkpt>
      <trkpt lat="45.62228" lon="3.20906">
        <ele>489</ele>
        <time>2015-03-29T12:46:24+02:00</time>
      </trkpt>
      <trkpt lat="45.62224" lon="3.20906">
        <ele>488</ele>
        <time>2015-03-29T12:46:24+02:00</time>
      </trkpt>
      <trkpt lat="45.62221" lon="3.20906">
        <ele>488</ele>
        <time>2015-03-29T12:46:24+02:00</time>
      </trkpt>
      <trkpt lat="45.62218" lon="3.20906">
        <ele>488</ele>
        <time>2015-03-29T12:46:24+02:00</time>
      </trkpt>
      <trkpt lat="45.62216" lon="3.20905">
        <ele>488</ele>
        <time>2015-03-29T12:46:24+02:00</time>
      </trkpt>
      <trkpt lat="45.62213" lon="3.20904">
        <ele>488</ele>
        <time>2015-03-29T12:46:24+02:00</time>
      </trkpt>
      <trkpt lat="45.62212" lon="3.20904">
        <ele>488</ele>
        <time>2015-03-29T12:46:24+02:00</time>
      </trkpt>
      <trkpt lat="45.6221" lon="3.20903">
        <ele>488</ele>
        <time>2015-03-29T12:46:24+02:00</time>
      </trkpt>
      <trkpt lat="45.62208" lon="3.20902">
        <ele>487</ele>
        <time>2015-03-29T12:46:24+02:00</time>
      </trkpt>
      <trkpt lat="45.62205" lon="3.209">
        <ele>487</ele>
        <time>2015-03-29T12:48:32+02:00</time>
      </trkpt>
      <trkpt lat="45.62203" lon="3.20898">
        <ele>487</ele>
        <time>2015-03-29T12:48:32+02:00</time>
      </trkpt>
      <trkpt lat="45.622" lon="3.20895">
        <ele>487</ele>
        <time>2015-03-29T12:48:32+02:00</time>
      </trkpt>
      <trkpt lat="45.62198" lon="3.20892">
        <ele>487</ele>
        <time>2015-03-29T12:48:32+02:00</time>
      </trkpt>
      <trkpt lat="45.62196" lon="3.20889">
        <ele>487</ele>
        <time>2015-03-29T12:48:32+02:00</time>
      </trkpt>
      <trkpt lat="45.62194" lon="3.20886">
        <ele>486</ele>
        <time>2015-03-29T12:48:32+02:00</time>
      </trkpt>
      <trkpt lat="45.62193" lon="3.20884">
        <ele>486</ele>
        <time>2015-03-29T12:48:32+02:00</time>
      </trkpt>
      <trkpt lat="45.62191" lon="3.20881">
        <ele>486</ele>
        <time>2015-03-29T12:48:32+02:00</time>
      </trkpt>
      <trkpt lat="45.62188" lon="3.20878">
        <ele>486</ele>
        <time>2015-03-29T12:48:32+02:00</time>
      </trkpt>
      <trkpt lat="45.62185" lon="3.20875">
        <ele>486</ele>
        <time>2015-03-29T12:48:32+02:00</time>
      </trkpt>
      <trkpt lat="45.62182" lon="3.20873">
        <ele>486</ele>
        <time>2015-03-29T12:48:32+02:00</time>
      </trkpt>
      <trkpt lat="45.6218" lon="3.2087">
        <ele>486</ele>
        <time>2015-03-29T12:48:32+02:00</time>
      </trkpt>
      <trkpt lat="45.62177" lon="3.20868">
        <ele>487</ele>
        <time>2015-03-29T12:48:32+02:00</time>
      </trkpt>
      <trkpt lat="45.62175" lon="3.20866">
        <ele>487</ele>
        <time>2015-03-29T12:48:32+02:00</time>
      </trkpt>
      <trkpt lat="45.62174" lon="3.20863">
        <ele>485</ele>
        <time>2015-03-29T12:48:32+02:00</time>
      </trkpt>
      <trkpt lat="45.62172" lon="3.20862">
        <ele>485</ele>
        <time>2015-03-29T12:48:32+02:00</time>
      </trkpt>
      <trkpt lat="45.62168" lon="3.2086">
        <ele>485</ele>
        <time>2015-03-29T12:48:32+02:00</time>
      </trkpt>
      <trkpt lat="45.62166" lon="3.20858">
        <ele>484</ele>
        <time>2015-03-29T12:48:32+02:00</time>
      </trkpt>
      <trkpt lat="45.62163" lon="3.20856">
        <ele>484</ele>
        <time>2015-03-29T12:48:32+02:00</time>
      </trkpt>
      <trkpt lat="45.6216" lon="3.20855">
        <ele>484</ele>
        <time>2015-03-29T12:48:32+02:00</time>
      </trkpt>
      <trkpt lat="45.62157" lon="3.20854">
        <ele>485</ele>
        <time>2015-03-29T12:48:32+02:00</time>
      </trkpt>
      <trkpt lat="45.62154" lon="3.20853">
        <ele>484</ele>
        <time>2015-03-29T12:48:32+02:00</time>
      </trkpt>
      <trkpt lat="45.62151" lon="3.20852">
        <ele>483</ele>
        <time>2015-03-29T12:48:32+02:00</time>
      </trkpt>
      <trkpt lat="45.62149" lon="3.20852">
        <ele>483</ele>
        <time>2015-03-29T12:48:32+02:00</time>
      </trkpt>
      <trkpt lat="45.62147" lon="3.20853">
        <ele>483</ele>
        <time>2015-03-29T12:48:32+02:00</time>
      </trkpt>
      <trkpt lat="45.62145" lon="3.20852">
        <ele>482</ele>
        <time>2015-03-29T12:48:32+02:00</time>
      </trkpt>
      <trkpt lat="45.62135" lon="3.20849">
        <ele>481</ele>
        <time>2015-03-29T12:48:32+02:00</time>
      </trkpt>
      <trkpt lat="45.62132" lon="3.2085">
        <ele>480</ele>
        <time>2015-03-29T12:48:32+02:00</time>
      </trkpt>
      <trkpt lat="45.62129" lon="3.20849">
        <ele>481</ele>
        <time>2015-03-29T12:48:32+02:00</time>
      </trkpt>
      <trkpt lat="45.62127" lon="3.2085">
        <ele>481</ele>
        <time>2015-03-29T12:48:32+02:00</time>
      </trkpt>
      <trkpt lat="45.62125" lon="3.2085">
        <ele>481</ele>
        <time>2015-03-29T12:48:32+02:00</time>
      </trkpt>
      <trkpt lat="45.62123" lon="3.20849">
        <ele>480</ele>
        <time>2015-03-29T12:48:32+02:00</time>
      </trkpt>
      <trkpt lat="45.62121" lon="3.20849">
        <ele>480</ele>
        <time>2015-03-29T12:48:32+02:00</time>
      </trkpt>
      <trkpt lat="45.62117" lon="3.2085">
        <ele>479</ele>
        <time>2015-03-29T12:48:32+02:00</time>
      </trkpt>
      <trkpt lat="45.62115" lon="3.2085">
        <ele>478</ele>
        <time>2015-03-29T12:48:32+02:00</time>
      </trkpt>
      <trkpt lat="45.62113" lon="3.20851">
        <ele>479</ele>
        <time>2015-03-29T12:48:32+02:00</time>
      </trkpt>
      <trkpt lat="45.62111" lon="3.20851">
        <ele>479</ele>
        <time>2015-03-29T12:48:32+02:00</time>
      </trkpt>
      <trkpt lat="45.62109" lon="3.20851">
        <ele>478</ele>
        <time>2015-03-29T12:48:32+02:00</time>
      </trkpt>
      <trkpt lat="45.62107" lon="3.20851">
        <ele>478</ele>
        <time>2015-03-29T12:48:32+02:00</time>
      </trkpt>
      <trkpt lat="45.62105" lon="3.20851">
        <ele>478</ele>
        <time>2015-03-29T12:48:32+02:00</time>
      </trkpt>
      <trkpt lat="45.62103" lon="3.20851">
        <ele>478</ele>
        <time>2015-03-29T12:48:32+02:00</time>
      </trkpt>
      <trkpt lat="45.62101" lon="3.20851">
        <ele>478</ele>
        <time>2015-03-29T12:48:32+02:00</time>
      </trkpt>
      <trkpt lat="45.62099" lon="3.2085">
        <ele>478</ele>
        <time>2015-03-29T12:48:32+02:00</time>
      </trkpt>
      <trkpt lat="45.62096" lon="3.20849">
        <ele>477</ele>
        <time>2015-03-29T12:48:32+02:00</time>
      </trkpt>
      <trkpt lat="45.62093" lon="3.20848">
        <ele>478</ele>
        <time>2015-03-29T12:48:32+02:00</time>
      </trkpt>
      <trkpt lat="45.6209" lon="3.20847">
        <ele>477</ele>
        <time>2015-03-29T12:48:32+02:00</time>
      </trkpt>
      <trkpt lat="45.62086" lon="3.20846">
        <ele>477</ele>
        <time>2015-03-29T12:48:32+02:00</time>
      </trkpt>
      <trkpt lat="45.62083" lon="3.20844">
        <ele>476</ele>
        <time>2015-03-29T12:48:32+02:00</time>
      </trkpt>
      <trkpt lat="45.62081" lon="3.20844">
        <ele>476</ele>
        <time>2015-03-29T12:48:32+02:00</time>
      </trkpt>
      <trkpt lat="45.62077" lon="3.20844">
        <ele>475</ele>
        <time>2015-03-29T12:48:32+02:00</time>
      </trkpt>
      <trkpt lat="45.62074" lon="3.20844">
        <ele>476</ele>
        <time>2015-03-29T12:48:32+02:00</time>
      </trkpt>
      <trkpt lat="45.62073" lon="3.20843">
        <ele>476</ele>
        <time>2015-03-29T12:48:32+02:00</time>
      </trkpt>
      <trkpt lat="45.62069" lon="3.20843">
        <ele>475</ele>
        <time>2015-03-29T12:48:32+02:00</time>
      </trkpt>
      <trkpt lat="45.62066" lon="3.20843">
        <ele>475</ele>
        <time>2015-03-29T12:48:32+02:00</time>
      </trkpt>
      <trkpt lat="45.62063" lon="3.20842">
        <ele>476</ele>
        <time>2015-03-29T12:48:32+02:00</time>
      </trkpt>
      <trkpt lat="45.6206" lon="3.20842">
        <ele>475</ele>
        <time>2015-03-29T12:48:32+02:00</time>
      </trkpt>
      <trkpt lat="45.62057" lon="3.20841">
        <ele>475</ele>
        <time>2015-03-29T12:48:32+02:00</time>
      </trkpt>
      <trkpt lat="45.62054" lon="3.20842">
        <ele>474</ele>
        <time>2015-03-29T12:48:32+02:00</time>
      </trkpt>
      <trkpt lat="45.62052" lon="3.20841">
        <ele>474</ele>
        <time>2015-03-29T12:48:32+02:00</time>
      </trkpt>
      <trkpt lat="45.6205" lon="3.20841">
        <ele>474</ele>
        <time>2015-03-29T12:48:32+02:00</time>
      </trkpt>
      <trkpt lat="45.62047" lon="3.20842">
        <ele>474</ele>
        <time>2015-03-29T12:48:32+02:00</time>
      </trkpt>
      <trkpt lat="45.62044" lon="3.20843">
        <ele>473</ele>
        <time>2015-03-29T12:48:32+02:00</time>
      </trkpt>
      <trkpt lat="45.62041" lon="3.20843">
        <ele>472</ele>
        <time>2015-03-29T12:48:32+02:00</time>
      </trkpt>
      <trkpt lat="45.62037" lon="3.20843">
        <ele>471</ele>
        <time>2015-03-29T12:48:32+02:00</time>
      </trkpt>
      <trkpt lat="45.62035" lon="3.20843">
        <ele>471</ele>
        <time>2015-03-29T12:48:32+02:00</time>
      </trkpt>
      <trkpt lat="45.62032" lon="3.20843">
        <ele>471</ele>
        <time>2015-03-29T12:48:32+02:00</time>
      </trkpt>
      <trkpt lat="45.62029" lon="3.20843">
        <ele>471</ele>
        <time>2015-03-29T12:48:32+02:00</time>
      </trkpt>
      <trkpt lat="45.62026" lon="3.20842">
        <ele>470</ele>
        <time>2015-03-29T12:48:32+02:00</time>
      </trkpt>
      <trkpt lat="45.62023" lon="3.20842">
        <ele>470</ele>
        <time>2015-03-29T12:48:32+02:00</time>
      </trkpt>
      <trkpt lat="45.6202" lon="3.20842">
        <ele>469</ele>
        <time>2015-03-29T12:48:32+02:00</time>
      </trkpt>
      <trkpt lat="45.62018" lon="3.20841">
        <ele>469</ele>
        <time>2015-03-29T12:48:32+02:00</time>
      </trkpt>
      <trkpt lat="45.62015" lon="3.20839">
        <ele>469</ele>
        <time>2015-03-29T12:50:40+02:00</time>
      </trkpt>
      <trkpt lat="45.62012" lon="3.20838">
        <ele>468</ele>
        <time>2015-03-29T12:50:40+02:00</time>
      </trkpt>
      <trkpt lat="45.62008" lon="3.20837">
        <ele>468</ele>
        <time>2015-03-29T12:50:40+02:00</time>
      </trkpt>
      <trkpt lat="45.62006" lon="3.20836">
        <ele>468</ele>
        <time>2015-03-29T12:50:40+02:00</time>
      </trkpt>
      <trkpt lat="45.62003" lon="3.20835">
        <ele>467</ele>
        <time>2015-03-29T12:50:40+02:00</time>
      </trkpt>
      <trkpt lat="45.62" lon="3.20834">
        <ele>467</ele>
        <time>2015-03-29T12:50:40+02:00</time>
      </trkpt>
      <trkpt lat="45.61997" lon="3.20833">
        <ele>466</ele>
        <time>2015-03-29T12:50:40+02:00</time>
      </trkpt>
      <trkpt lat="45.61994" lon="3.20832">
        <ele>466</ele>
        <time>2015-03-29T12:50:40+02:00</time>
      </trkpt>
      <trkpt lat="45.61991" lon="3.20832">
        <ele>466</ele>
        <time>2015-03-29T12:50:40+02:00</time>
      </trkpt>
      <trkpt lat="45.61988" lon="3.20831">
        <ele>465</ele>
        <time>2015-03-29T12:50:40+02:00</time>
      </trkpt>
      <trkpt lat="45.61986" lon="3.2083">
        <ele>465</ele>
        <time>2015-03-29T12:50:40+02:00</time>
      </trkpt>
      <trkpt lat="45.61983" lon="3.20829">
        <ele>465</ele>
        <time>2015-03-29T12:50:40+02:00</time>
      </trkpt>
      <trkpt lat="45.61981" lon="3.20828">
        <ele>465</ele>
        <time>2015-03-29T12:50:40+02:00</time>
      </trkpt>
      <trkpt lat="45.61979" lon="3.20826">
        <ele>464</ele>
        <time>2015-03-29T12:50:40+02:00</time>
      </trkpt>
      <trkpt lat="45.61977" lon="3.20824">
        <ele>464</ele>
        <time>2015-03-29T12:50:40+02:00</time>
      </trkpt>
      <trkpt lat="45.61975" lon="3.20822">
        <ele>464</ele>
        <time>2015-03-29T12:50:40+02:00</time>
      </trkpt>
      <trkpt lat="45.61973" lon="3.20821">
        <ele>464</ele>
        <time>2015-03-29T12:50:40+02:00</time>
      </trkpt>
      <trkpt lat="45.6197" lon="3.20817">
        <ele>464</ele>
        <time>2015-03-29T12:50:40+02:00</time>
      </trkpt>
      <trkpt lat="45.61969" lon="3.20815">
        <ele>463</ele>
        <time>2015-03-29T12:50:40+02:00</time>
      </trkpt>
      <trkpt lat="45.61967" lon="3.20813">
        <ele>463</ele>
        <time>2015-03-29T12:50:40+02:00</time>
      </trkpt>
      <trkpt lat="45.61965" lon="3.2081">
        <ele>464</ele>
        <time>2015-03-29T12:50:40+02:00</time>
      </trkpt>
      <trkpt lat="45.61962" lon="3.20807">
        <ele>463</ele>
        <time>2015-03-29T12:50:40+02:00</time>
      </trkpt>
      <trkpt lat="45.6196" lon="3.20804">
        <ele>464</ele>
        <time>2015-03-29T12:50:40+02:00</time>
      </trkpt>
      <trkpt lat="45.61957" lon="3.20801">
        <ele>462</ele>
        <time>2015-03-29T12:50:40+02:00</time>
      </trkpt>
      <trkpt lat="45.61955" lon="3.20798">
        <ele>462</ele>
        <time>2015-03-29T12:50:40+02:00</time>
      </trkpt>
      <trkpt lat="45.61954" lon="3.20796">
        <ele>461</ele>
        <time>2015-03-29T12:50:40+02:00</time>
      </trkpt>
      <trkpt lat="45.61952" lon="3.20794">
        <ele>462</ele>
        <time>2015-03-29T12:50:40+02:00</time>
      </trkpt>
      <trkpt lat="45.61949" lon="3.20792">
        <ele>462</ele>
        <time>2015-03-29T12:50:40+02:00</time>
      </trkpt>
      <trkpt lat="45.61947" lon="3.20788">
        <ele>462</ele>
        <time>2015-03-29T12:50:40+02:00</time>
      </trkpt>
      <trkpt lat="45.61946" lon="3.20786">
        <ele>462</ele>
        <time>2015-03-29T12:50:40+02:00</time>
      </trkpt>
      <trkpt lat="45.61945" lon="3.20784">
        <ele>462</ele>
        <time>2015-03-29T12:50:40+02:00</time>
      </trkpt>
      <trkpt lat="45.61942" lon="3.2078">
        <ele>461</ele>
        <time>2015-03-29T12:50:40+02:00</time>
      </trkpt>
      <trkpt lat="45.61939" lon="3.20778">
        <ele>461</ele>
        <time>2015-03-29T12:50:40+02:00</time>
      </trkpt>
      <trkpt lat="45.61937" lon="3.20775">
        <ele>462</ele>
        <time>2015-03-29T12:50:40+02:00</time>
      </trkpt>
      <trkpt lat="45.61935" lon="3.20771">
        <ele>461</ele>
        <time>2015-03-29T12:50:40+02:00</time>
      </trkpt>
      <trkpt lat="45.61933" lon="3.20769">
        <ele>462</ele>
        <time>2015-03-29T12:50:40+02:00</time>
      </trkpt>
      <trkpt lat="45.6193" lon="3.20766">
        <ele>461</ele>
        <time>2015-03-29T12:50:40+02:00</time>
      </trkpt>
      <trkpt lat="45.61929" lon="3.20764">
        <ele>461</ele>
        <time>2015-03-29T12:50:40+02:00</time>
      </trkpt>
      <trkpt lat="45.61927" lon="3.20761">
        <ele>460</ele>
        <time>2015-03-29T12:50:40+02:00</time>
      </trkpt>
      <trkpt lat="45.61925" lon="3.20757">
        <ele>460</ele>
        <time>2015-03-29T12:50:40+02:00</time>
      </trkpt>
      <trkpt lat="45.61923" lon="3.20755">
        <ele>460</ele>
        <time>2015-03-29T12:50:40+02:00</time>
      </trkpt>
      <trkpt lat="45.61921" lon="3.20751">
        <ele>461</ele>
        <time>2015-03-29T12:50:40+02:00</time>
      </trkpt>
      <trkpt lat="45.61919" lon="3.20747">
        <ele>461</ele>
        <time>2015-03-29T12:50:40+02:00</time>
      </trkpt>
      <trkpt lat="45.61918" lon="3.20743">
        <ele>460</ele>
        <time>2015-03-29T12:50:40+02:00</time>
      </trkpt>
      <trkpt lat="45.61917" lon="3.20739">
        <ele>460</ele>
        <time>2015-03-29T12:50:40+02:00</time>
      </trkpt>
      <trkpt lat="45.61915" lon="3.20735">
        <ele>460</ele>
        <time>2015-03-29T12:50:40+02:00</time>
      </trkpt>
      <trkpt lat="45.61912" lon="3.20731">
        <ele>460</ele>
        <time>2015-03-29T12:50:40+02:00</time>
      </trkpt>
      <trkpt lat="45.6191" lon="3.20727">
        <ele>460</ele>
        <time>2015-03-29T12:50:40+02:00</time>
      </trkpt>
      <trkpt lat="45.61908" lon="3.20725">
        <ele>460</ele>
        <time>2015-03-29T12:50:40+02:00</time>
      </trkpt>
      <trkpt lat="45.61906" lon="3.20721">
        <ele>460</ele>
        <time>2015-03-29T12:50:40+02:00</time>
      </trkpt>
      <trkpt lat="45.61904" lon="3.20719">
        <ele>459</ele>
        <time>2015-03-29T12:50:40+02:00</time>
      </trkpt>
      <trkpt lat="45.61902" lon="3.20718">
        <ele>458</ele>
        <time>2015-03-29T12:50:40+02:00</time>
      </trkpt>
      <trkpt lat="45.61899" lon="3.20714">
        <ele>457</ele>
        <time>2015-03-29T12:50:40+02:00</time>
      </trkpt>
      <trkpt lat="45.61898" lon="3.20711">
        <ele>457</ele>
        <time>2015-03-29T12:50:40+02:00</time>
      </trkpt>
      <trkpt lat="45.61895" lon="3.20708">
        <ele>456</ele>
        <time>2015-03-29T12:50:40+02:00</time>
      </trkpt>
      <trkpt lat="45.61893" lon="3.20705">
        <ele>456</ele>
        <time>2015-03-29T12:50:40+02:00</time>
      </trkpt>
      <trkpt lat="45.6189" lon="3.20703">
        <ele>455</ele>
        <time>2015-03-29T12:50:40+02:00</time>
      </trkpt>
      <trkpt lat="45.61889" lon="3.20701">
        <ele>455</ele>
        <time>2015-03-29T12:50:40+02:00</time>
      </trkpt>
      <trkpt lat="45.61887" lon="3.20699">
        <ele>454</ele>
        <time>2015-03-29T12:50:40+02:00</time>
      </trkpt>
      <trkpt lat="45.61884" lon="3.20696">
        <ele>454</ele>
        <time>2015-03-29T12:50:40+02:00</time>
      </trkpt>
      <trkpt lat="45.61881" lon="3.20694">
        <ele>454</ele>
        <time>2015-03-29T12:50:40+02:00</time>
      </trkpt>
      <trkpt lat="45.61878" lon="3.20691">
        <ele>453</ele>
        <time>2015-03-29T12:50:40+02:00</time>
      </trkpt>
      <trkpt lat="45.61876" lon="3.20688">
        <ele>453</ele>
        <time>2015-03-29T12:50:40+02:00</time>
      </trkpt>
      <trkpt lat="45.61874" lon="3.20684">
        <ele>453</ele>
        <time>2015-03-29T12:50:40+02:00</time>
      </trkpt>
      <trkpt lat="45.61872" lon="3.20681">
        <ele>453</ele>
        <time>2015-03-29T12:50:40+02:00</time>
      </trkpt>
      <trkpt lat="45.6187" lon="3.20679">
        <ele>453</ele>
        <time>2015-03-29T12:50:40+02:00</time>
      </trkpt>
      <trkpt lat="45.61868" lon="3.20676">
        <ele>452</ele>
        <time>2015-03-29T12:50:40+02:00</time>
      </trkpt>
      <trkpt lat="45.61866" lon="3.20674">
        <ele>452</ele>
        <time>2015-03-29T12:50:40+02:00</time>
      </trkpt>
      <trkpt lat="45.61863" lon="3.20672">
        <ele>452</ele>
        <time>2015-03-29T12:50:40+02:00</time>
      </trkpt>
      <trkpt lat="45.6186" lon="3.2067">
        <ele>451</ele>
        <time>2015-03-29T12:52:48+02:00</time>
      </trkpt>
      <trkpt lat="45.61858" lon="3.20669">
        <ele>451</ele>
        <time>2015-03-29T12:52:48+02:00</time>
      </trkpt>
      <trkpt lat="45.61856" lon="3.20669">
        <ele>451</ele>
        <time>2015-03-29T12:52:48+02:00</time>
      </trkpt>
      <trkpt lat="45.61853" lon="3.20668">
        <ele>451</ele>
        <time>2015-03-29T12:52:48+02:00</time>
      </trkpt>
      <trkpt lat="45.6185" lon="3.20667">
        <ele>451</ele>
        <time>2015-03-29T12:52:48+02:00</time>
      </trkpt>
      <trkpt lat="45.61848" lon="3.20666">
        <ele>451</ele>
        <time>2015-03-29T12:52:48+02:00</time>
      </trkpt>
      <trkpt lat="45.61846" lon="3.20665">
        <ele>451</ele>
        <time>2015-03-29T12:52:48+02:00</time>
      </trkpt>
      <trkpt lat="45.61843" lon="3.20663">
        <ele>450</ele>
        <time>2015-03-29T12:52:48+02:00</time>
      </trkpt>
      <trkpt lat="45.6184" lon="3.20662">
        <ele>451</ele>
        <time>2015-03-29T12:52:48+02:00</time>
      </trkpt>
      <trkpt lat="45.61838" lon="3.20661">
        <ele>452</ele>
        <time>2015-03-29T12:52:48+02:00</time>
      </trkpt>
      <trkpt lat="45.61836" lon="3.20661">
        <ele>452</ele>
        <time>2015-03-29T12:52:48+02:00</time>
      </trkpt>
      <trkpt lat="45.61833" lon="3.20661">
        <ele>451</ele>
        <time>2015-03-29T12:52:48+02:00</time>
      </trkpt>
      <trkpt lat="45.6183" lon="3.2066">
        <ele>451</ele>
        <time>2015-03-29T12:52:48+02:00</time>
      </trkpt>
      <trkpt lat="45.61828" lon="3.20659">
        <ele>451</ele>
        <time>2015-03-29T12:52:48+02:00</time>
      </trkpt>
      <trkpt lat="45.61826" lon="3.20659">
        <ele>451</ele>
        <time>2015-03-29T12:52:48+02:00</time>
      </trkpt>
      <trkpt lat="45.61824" lon="3.20658">
        <ele>450</ele>
        <time>2015-03-29T12:52:48+02:00</time>
      </trkpt>
      <trkpt lat="45.61822" lon="3.20658">
        <ele>450</ele>
        <time>2015-03-29T12:52:48+02:00</time>
      </trkpt>
      <trkpt lat="45.6182" lon="3.20656">
        <ele>450</ele>
        <time>2015-03-29T12:52:48+02:00</time>
      </trkpt>
      <trkpt lat="45.61818" lon="3.20656">
        <ele>449</ele>
        <time>2015-03-29T12:52:48+02:00</time>
      </trkpt>
      <trkpt lat="45.61815" lon="3.20654">
        <ele>449</ele>
        <time>2015-03-29T12:52:48+02:00</time>
      </trkpt>
      <trkpt lat="45.61813" lon="3.20653">
        <ele>448</ele>
        <time>2015-03-29T12:52:48+02:00</time>
      </trkpt>
      <trkpt lat="45.61812" lon="3.20651">
        <ele>447</ele>
        <time>2015-03-29T12:52:48+02:00</time>
      </trkpt>
      <trkpt lat="45.6181" lon="3.20649">
        <ele>445</ele>
        <time>2015-03-29T12:52:48+02:00</time>
      </trkpt>
      <trkpt lat="45.61809" lon="3.20646">
        <ele>445</ele>
        <time>2015-03-29T12:52:48+02:00</time>
      </trkpt>
      <trkpt lat="45.61805" lon="3.20645">
        <ele>445</ele>
        <time>2015-03-29T12:52:48+02:00</time>
      </trkpt>
      <trkpt lat="45.61803" lon="3.20647">
        <ele>445</ele>
        <time>2015-03-29T12:52:48+02:00</time>
      </trkpt>
      <trkpt lat="45.61801" lon="3.20648">
        <ele>445</ele>
        <time>2015-03-29T12:52:48+02:00</time>
      </trkpt>
      <trkpt lat="45.61802" lon="3.20651">
        <ele>445</ele>
        <time>2015-03-29T12:52:48+02:00</time>
      </trkpt>
      <trkpt lat="45.61804" lon="3.20653">
        <ele>442</ele>
        <time>2015-03-29T12:52:48+02:00</time>
      </trkpt>
      <trkpt lat="45.61802" lon="3.20654">
        <ele>442</ele>
        <time>2015-03-29T12:52:48+02:00</time>
      </trkpt>
      <trkpt lat="45.61799" lon="3.20656">
        <ele>443</ele>
        <time>2015-03-29T12:52:48+02:00</time>
      </trkpt>
      <trkpt lat="45.61797" lon="3.20657">
        <ele>443</ele>
        <time>2015-03-29T12:52:48+02:00</time>
      </trkpt>
      <trkpt lat="45.61795" lon="3.20657">
        <ele>443</ele>
        <time>2015-03-29T12:52:48+02:00</time>
      </trkpt>
      <trkpt lat="45.61792" lon="3.20657">
        <ele>442</ele>
        <time>2015-03-29T12:52:48+02:00</time>
      </trkpt>
      <trkpt lat="45.6179" lon="3.20657">
        <ele>441</ele>
        <time>2015-03-29T12:52:48+02:00</time>
      </trkpt>
      <trkpt lat="45.61788" lon="3.20657">
        <ele>442</ele>
        <time>2015-03-29T12:52:48+02:00</time>
      </trkpt>
      <trkpt lat="45.61785" lon="3.20657">
        <ele>442</ele>
        <time>2015-03-29T12:52:48+02:00</time>
      </trkpt>
      <trkpt lat="45.61783" lon="3.20656">
        <ele>442</ele>
        <time>2015-03-29T12:52:48+02:00</time>
      </trkpt>
      <trkpt lat="45.61781" lon="3.20655">
        <ele>441</ele>
        <time>2015-03-29T12:52:48+02:00</time>
      </trkpt>
      <trkpt lat="45.61779" lon="3.20654">
        <ele>442</ele>
        <time>2015-03-29T12:52:48+02:00</time>
      </trkpt>
      <trkpt lat="45.61777" lon="3.20653">
        <ele>442</ele>
        <time>2015-03-29T12:52:48+02:00</time>
      </trkpt>
      <trkpt lat="45.61773" lon="3.20652">
        <ele>441</ele>
        <time>2015-03-29T12:52:48+02:00</time>
      </trkpt>
      <trkpt lat="45.61771" lon="3.20651">
        <ele>441</ele>
        <time>2015-03-29T12:52:48+02:00</time>
      </trkpt>
      <trkpt lat="45.61768" lon="3.2065">
        <ele>441</ele>
        <time>2015-03-29T12:52:48+02:00</time>
      </trkpt>
      <trkpt lat="45.61766" lon="3.20649">
        <ele>440</ele>
        <time>2015-03-29T12:52:48+02:00</time>
      </trkpt>
      <trkpt lat="45.61763" lon="3.20648">
        <ele>440</ele>
        <time>2015-03-29T12:52:48+02:00</time>
      </trkpt>
      <trkpt lat="45.61761" lon="3.20646">
        <ele>440</ele>
        <time>2015-03-29T12:52:48+02:00</time>
      </trkpt>
      <trkpt lat="45.61758" lon="3.20645">
        <ele>439</ele>
        <time>2015-03-29T12:52:48+02:00</time>
      </trkpt>
      <trkpt lat="45.61756" lon="3.20643">
        <ele>439</ele>
        <time>2015-03-29T12:52:48+02:00</time>
      </trkpt>
      <trkpt lat="45.61753" lon="3.20642">
        <ele>438</ele>
        <time>2015-03-29T12:54:56+02:00</time>
      </trkpt>
      <trkpt lat="45.6175" lon="3.2064">
        <ele>438</ele>
        <time>2015-03-29T12:54:56+02:00</time>
      </trkpt>
      <trkpt lat="45.61748" lon="3.20638">
        <ele>438</ele>
        <time>2015-03-29T12:54:56+02:00</time>
      </trkpt>
      <trkpt lat="45.61746" lon="3.20635">
        <ele>438</ele>
        <time>2015-03-29T12:54:56+02:00</time>
      </trkpt>
      <trkpt lat="45.61743" lon="3.20634">
        <ele>438</ele>
        <time>2015-03-29T12:54:56+02:00</time>
      </trkpt>
      <trkpt lat="45.61741" lon="3.20633">
        <ele>437</ele>
        <time>2015-03-29T12:54:56+02:00</time>
      </trkpt>
      <trkpt lat="45.61739" lon="3.20631">
        <ele>435</ele>
        <time>2015-03-29T12:54:56+02:00</time>
      </trkpt>
      <trkpt lat="45.61737" lon="3.20628">
        <ele>435</ele>
        <time>2015-03-29T12:54:56+02:00</time>
      </trkpt>
      <trkpt lat="45.61735" lon="3.20626">
        <ele>435</ele>
        <time>2015-03-29T12:54:56+02:00</time>
      </trkpt>
      <trkpt lat="45.61733" lon="3.20625">
        <ele>434</ele>
        <time>2015-03-29T12:54:56+02:00</time>
      </trkpt>
      <trkpt lat="45.61731" lon="3.20623">
        <ele>432</ele>
        <time>2015-03-29T12:54:56+02:00</time>
      </trkpt>
      <trkpt lat="45.61727" lon="3.20619">
        <ele>433</ele>
        <time>2015-03-29T12:54:56+02:00</time>
      </trkpt>
      <trkpt lat="45.61724" lon="3.20617">
        <ele>434</ele>
        <time>2015-03-29T12:54:56+02:00</time>
      </trkpt>
      <trkpt lat="45.61721" lon="3.20616">
        <ele>434</ele>
        <time>2015-03-29T12:54:56+02:00</time>
      </trkpt>
      <trkpt lat="45.61719" lon="3.20615">
        <ele>433</ele>
        <time>2015-03-29T12:54:56+02:00</time>
      </trkpt>
      <trkpt lat="45.61717" lon="3.20614">
        <ele>432</ele>
        <time>2015-03-29T12:54:56+02:00</time>
      </trkpt>
      <trkpt lat="45.61715" lon="3.20613">
        <ele>432</ele>
        <time>2015-03-29T12:54:56+02:00</time>
      </trkpt>
      <trkpt lat="45.61712" lon="3.20612">
        <ele>432</ele>
        <time>2015-03-29T12:54:56+02:00</time>
      </trkpt>
      <trkpt lat="45.6171" lon="3.20611">
        <ele>432</ele>
        <time>2015-03-29T12:54:56+02:00</time>
      </trkpt>
      <trkpt lat="45.61707" lon="3.2061">
        <ele>432</ele>
        <time>2015-03-29T12:54:56+02:00</time>
      </trkpt>
      <trkpt lat="45.61704" lon="3.20608">
        <ele>432</ele>
        <time>2015-03-29T12:54:56+02:00</time>
      </trkpt>
      <trkpt lat="45.61702" lon="3.20608">
        <ele>431</ele>
        <time>2015-03-29T12:54:56+02:00</time>
      </trkpt>
      <trkpt lat="45.61699" lon="3.20608">
        <ele>431</ele>
        <time>2015-03-29T12:54:56+02:00</time>
      </trkpt>
      <trkpt lat="45.61696" lon="3.20609">
        <ele>430</ele>
        <time>2015-03-29T12:54:56+02:00</time>
      </trkpt>
      <trkpt lat="45.61694" lon="3.20609">
        <ele>430</ele>
        <time>2015-03-29T12:54:56+02:00</time>
      </trkpt>
      <trkpt lat="45.61691" lon="3.2061">
        <ele>430</ele>
        <time>2015-03-29T12:54:56+02:00</time>
      </trkpt>
      <trkpt lat="45.61688" lon="3.20611">
        <ele>430</ele>
        <time>2015-03-29T12:54:56+02:00</time>
      </trkpt>
      <trkpt lat="45.61686" lon="3.20612">
        <ele>430</ele>
        <time>2015-03-29T12:54:56+02:00</time>
      </trkpt>
      <trkpt lat="45.61684" lon="3.20614">
        <ele>431</ele>
        <time>2015-03-29T12:54:56+02:00</time>
      </trkpt>
      <trkpt lat="45.6168" lon="3.20615">
        <ele>430</ele>
        <time>2015-03-29T12:54:56+02:00</time>
      </trkpt>
      <trkpt lat="45.61678" lon="3.20616">
        <ele>430</ele>
        <time>2015-03-29T12:54:56+02:00</time>
      </trkpt>
      <trkpt lat="45.61676" lon="3.20619">
        <ele>430</ele>
        <time>2015-03-29T12:54:56+02:00</time>
      </trkpt>
      <trkpt lat="45.61674" lon="3.20622">
        <ele>429</ele>
        <time>2015-03-29T12:54:56+02:00</time>
      </trkpt>
      <trkpt lat="45.61672" lon="3.20625">
        <ele>428</ele>
        <time>2015-03-29T12:54:56+02:00</time>
      </trkpt>
      <trkpt lat="45.6167" lon="3.20628">
        <ele>428</ele>
        <time>2015-03-29T12:54:56+02:00</time>
      </trkpt>
      <trkpt lat="45.61668" lon="3.20632">
        <ele>428</ele>
        <time>2015-03-29T12:54:56+02:00</time>
      </trkpt>
      <trkpt lat="45.61666" lon="3.20636">
        <ele>427</ele>
        <time>2015-03-29T12:54:56+02:00</time>
      </trkpt>
      <trkpt lat="45.61666" lon="3.2064">
        <ele>427</ele>
        <time>2015-03-29T12:54:56+02:00</time>
      </trkpt>
      <trkpt lat="45.61665" lon="3.20644">
        <ele>426</ele>
        <time>2015-03-29T12:54:56+02:00</time>
      </trkpt>
      <trkpt lat="45.61663" lon="3.20648">
        <ele>426</ele>
        <time>2015-03-29T12:54:56+02:00</time>
      </trkpt>
      <trkpt lat="45.61662" lon="3.20651">
        <ele>426</ele>
        <time>2015-03-29T12:54:56+02:00</time>
      </trkpt>
      <trkpt lat="45.6166" lon="3.20654">
        <ele>426</ele>
        <time>2015-03-29T12:54:56+02:00</time>
      </trkpt>
      <trkpt lat="45.61659" lon="3.20657">
        <ele>426</ele>
        <time>2015-03-29T12:54:56+02:00</time>
      </trkpt>
      <trkpt lat="45.61657" lon="3.20661">
        <ele>425</ele>
        <time>2015-03-29T12:54:56+02:00</time>
      </trkpt>
      <trkpt lat="45.61655" lon="3.20664">
        <ele>425</ele>
        <time>2015-03-29T12:54:56+02:00</time>
      </trkpt>
      <trkpt lat="45.61654" lon="3.20667">
        <ele>424</ele>
        <time>2015-03-29T12:54:56+02:00</time>
      </trkpt>
      <trkpt lat="45.61653" lon="3.2067">
        <ele>424</ele>
        <time>2015-03-29T12:54:56+02:00</time>
      </trkpt>
      <trkpt lat="45.61651" lon="3.20675">
        <ele>424</ele>
        <time>2015-03-29T12:54:56+02:00</time>
      </trkpt>
      <trkpt lat="45.6165" lon="3.20679">
        <ele>424</ele>
        <time>2015-03-29T12:54:56+02:00</time>
      </trkpt>
      <trkpt lat="45.61648" lon="3.20683">
        <ele>424</ele>
        <time>2015-03-29T12:54:56+02:00</time>
      </trkpt>
      <trkpt lat="45.61646" lon="3.20686">
        <ele>424</ele>
        <time>2015-03-29T12:54:56+02:00</time>
      </trkpt>
      <trkpt lat="45.61644" lon="3.20689">
        <ele>423</ele>
        <time>2015-03-29T12:54:56+02:00</time>
      </trkpt>
      <trkpt lat="45.61642" lon="3.20693">
        <ele>423</ele>
        <time>2015-03-29T12:54:56+02:00</time>
      </trkpt>
      <trkpt lat="45.6164" lon="3.20696">
        <ele>423</ele>
        <time>2015-03-29T12:54:56+02:00</time>
      </trkpt>
      <trkpt lat="45.61638" lon="3.20699">
        <ele>423</ele>
        <time>2015-03-29T12:54:56+02:00</time>
      </trkpt>
      <trkpt lat="45.61635" lon="3.20701">
        <ele>421</ele>
        <time>2015-03-29T12:54:56+02:00</time>
      </trkpt>
      <trkpt lat="45.61634" lon="3.20705">
        <ele>419</ele>
        <time>2015-03-29T12:54:56+02:00</time>
      </trkpt>
      <trkpt lat="45.61631" lon="3.20709">
        <ele>420</ele>
        <time>2015-03-29T12:54:56+02:00</time>
      </trkpt>
      <trkpt lat="45.61629" lon="3.20712">
        <ele>420</ele>
        <time>2015-03-29T12:54:56+02:00</time>
      </trkpt>
      <trkpt lat="45.61627" lon="3.20716">
        <ele>420</ele>
        <time>2015-03-29T12:54:56+02:00</time>
      </trkpt>
      <trkpt lat="45.61624" lon="3.20718">
        <ele>418</ele>
        <time>2015-03-29T12:54:56+02:00</time>
      </trkpt>
      <trkpt lat="45.61623" lon="3.2072">
        <ele>419</ele>
        <time>2015-03-29T12:54:56+02:00</time>
      </trkpt>
      <trkpt lat="45.61621" lon="3.20723">
        <ele>421</ele>
        <time>2015-03-29T12:54:56+02:00</time>
      </trkpt>
      <trkpt lat="45.61618" lon="3.20726">
        <ele>421</ele>
        <time>2015-03-29T12:54:56+02:00</time>
      </trkpt>
      <trkpt lat="45.61616" lon="3.20728">
        <ele>421</ele>
        <time>2015-03-29T12:54:56+02:00</time>
      </trkpt>
      <trkpt lat="45.61614" lon="3.20731">
        <ele>421</ele>
        <time>2015-03-29T12:57:04+02:00</time>
      </trkpt>
      <trkpt lat="45.61612" lon="3.20734">
        <ele>421</ele>
        <time>2015-03-29T12:57:04+02:00</time>
      </trkpt>
      <trkpt lat="45.61609" lon="3.20737">
        <ele>421</ele>
        <time>2015-03-29T12:57:04+02:00</time>
      </trkpt>
      <trkpt lat="45.61606" lon="3.20739">
        <ele>420</ele>
        <time>2015-03-29T12:57:04+02:00</time>
      </trkpt>
      <trkpt lat="45.61604" lon="3.20742">
        <ele>420</ele>
        <time>2015-03-29T12:57:04+02:00</time>
      </trkpt>
      <trkpt lat="45.61602" lon="3.20746">
        <ele>420</ele>
        <time>2015-03-29T12:57:04+02:00</time>
      </trkpt>
      <trkpt lat="45.616" lon="3.20749">
        <ele>420</ele>
        <time>2015-03-29T12:57:04+02:00</time>
      </trkpt>
      <trkpt lat="45.61597" lon="3.20753">
        <ele>420</ele>
        <time>2015-03-29T12:57:04+02:00</time>
      </trkpt>
      <trkpt lat="45.61595" lon="3.20755">
        <ele>420</ele>
        <time>2015-03-29T12:57:04+02:00</time>
      </trkpt>
      <trkpt lat="45.61594" lon="3.20759">
        <ele>419</ele>
        <time>2015-03-29T12:57:04+02:00</time>
      </trkpt>
      <trkpt lat="45.61592" lon="3.20762">
        <ele>418</ele>
        <time>2015-03-29T12:57:04+02:00</time>
      </trkpt>
      <trkpt lat="45.61591" lon="3.20765">
        <ele>417</ele>
        <time>2015-03-29T12:57:04+02:00</time>
      </trkpt>
      <trkpt lat="45.61589" lon="3.20769">
        <ele>418</ele>
        <time>2015-03-29T12:57:04+02:00</time>
      </trkpt>
      <trkpt lat="45.61588" lon="3.20774">
        <ele>416</ele>
        <time>2015-03-29T12:57:04+02:00</time>
      </trkpt>
      <trkpt lat="45.61586" lon="3.20778">
        <ele>417</ele>
        <time>2015-03-29T12:57:04+02:00</time>
      </trkpt>
      <trkpt lat="45.61584" lon="3.2078">
        <ele>415</ele>
        <time>2015-03-29T12:57:04+02:00</time>
      </trkpt>
      <trkpt lat="45.61581" lon="3.20786">
        <ele>416</ele>
        <time>2015-03-29T12:57:04+02:00</time>
      </trkpt>
      <trkpt lat="45.61578" lon="3.20788">
        <ele>416</ele>
        <time>2015-03-29T12:57:04+02:00</time>
      </trkpt>
      <trkpt lat="45.61578" lon="3.20791">
        <ele>416</ele>
        <time>2015-03-29T12:57:04+02:00</time>
      </trkpt>
      <trkpt lat="45.61574" lon="3.20809">
        <ele>415</ele>
        <time>2015-03-29T12:57:04+02:00</time>
      </trkpt>
      <trkpt lat="45.61573" lon="3.20811">
        <ele>416</ele>
        <time>2015-03-29T12:57:04+02:00</time>
      </trkpt>
      <trkpt lat="45.6157" lon="3.20821">
        <ele>418</ele>
        <time>2015-03-29T12:57:04+02:00</time>
      </trkpt>
      <trkpt lat="45.61569" lon="3.20827">
        <ele>418</ele>
        <time>2015-03-29T12:57:04+02:00</time>
      </trkpt>
      <trkpt lat="45.61568" lon="3.20831">
        <ele>418</ele>
        <time>2015-03-29T12:57:04+02:00</time>
      </trkpt>
      <trkpt lat="45.61566" lon="3.20834">
        <ele>417</ele>
        <time>2015-03-29T12:57:04+02:00</time>
      </trkpt>
      <trkpt lat="45.61564" lon="3.20837">
        <ele>417</ele>
        <time>2015-03-29T12:57:04+02:00</time>
      </trkpt>
      <trkpt lat="45.61562" lon="3.20839">
        <ele>417</ele>
        <time>2015-03-29T12:57:04+02:00</time>
      </trkpt>
      <trkpt lat="45.61561" lon="3.20843">
        <ele>417</ele>
        <time>2015-03-29T12:57:04+02:00</time>
      </trkpt>
      <trkpt lat="45.61561" lon="3.20845">
        <ele>416</ele>
        <time>2015-03-29T12:57:04+02:00</time>
      </trkpt>
      <trkpt lat="45.6156" lon="3.20849">
        <ele>415</ele>
        <time>2015-03-29T12:57:04+02:00</time>
      </trkpt>
      <trkpt lat="45.61561" lon="3.20852">
        <ele>415</ele>
        <time>2015-03-29T12:57:04+02:00</time>
      </trkpt>
      <trkpt lat="45.61563" lon="3.20856">
        <ele>415</ele>
        <time>2015-03-29T12:57:04+02:00</time>
      </trkpt>
      <trkpt lat="45.61566" lon="3.20881">
        <ele>414</ele>
        <time>2015-03-29T12:57:04+02:00</time>
      </trkpt>
      <trkpt lat="45.61566" lon="3.20885">
        <ele>414</ele>
        <time>2015-03-29T12:57:04+02:00</time>
      </trkpt>
      <trkpt lat="45.61566" lon="3.2089">
        <ele>414</ele>
        <time>2015-03-29T12:57:04+02:00</time>
      </trkpt>
      <trkpt lat="45.61566" lon="3.20893">
        <ele>414</ele>
        <time>2015-03-29T12:57:04+02:00</time>
      </trkpt>
      <trkpt lat="45.61566" lon="3.20896">
        <ele>414</ele>
        <time>2015-03-29T12:57:04+02:00</time>
      </trkpt>
      <trkpt lat="45.61577" lon="3.20931">
        <ele>413</ele>
        <time>2015-03-29T12:59:12+02:00</time>
      </trkpt>
      <trkpt lat="45.61575" lon="3.20932">
        <ele>411</ele>
        <time>2015-03-29T12:59:12+02:00</time>
      </trkpt>
      <trkpt lat="45.61576" lon="3.20936">
        <ele>410</ele>
        <time>2015-03-29T12:59:12+02:00</time>
      </trkpt>
      <trkpt lat="45.61577" lon="3.2094">
        <ele>410</ele>
        <time>2015-03-29T12:59:12+02:00</time>
      </trkpt>
      <trkpt lat="45.61578" lon="3.20944">
        <ele>410</ele>
        <time>2015-03-29T12:59:12+02:00</time>
      </trkpt>
      <trkpt lat="45.61578" lon="3.20947">
        <ele>410</ele>
        <time>2015-03-29T12:59:12+02:00</time>
      </trkpt>
      <trkpt lat="45.6158" lon="3.20952">
        <ele>410</ele>
        <time>2015-03-29T12:59:12+02:00</time>
      </trkpt>
      <trkpt lat="45.61581" lon="3.20962">
        <ele>410</ele>
        <time>2015-03-29T12:59:12+02:00</time>
      </trkpt>
      <trkpt lat="45.61584" lon="3.20961">
        <ele>409</ele>
        <time>2015-03-29T12:59:12+02:00</time>
      </trkpt>
      <trkpt lat="45.61585" lon="3.20963">
        <ele>408</ele>
        <time>2015-03-29T12:59:12+02:00</time>
      </trkpt>
      <trkpt lat="45.61586" lon="3.20967">
        <ele>408</ele>
        <time>2015-03-29T12:59:12+02:00</time>
      </trkpt>
      <trkpt lat="45.61587" lon="3.2097">
        <ele>408</ele>
        <time>2015-03-29T12:59:12+02:00</time>
      </trkpt>
      <trkpt lat="45.61587" lon="3.20974">
        <ele>408</ele>
        <time>2015-03-29T12:59:12+02:00</time>
      </trkpt>
      <trkpt lat="45.61587" lon="3.20977">
        <ele>408</ele>
        <time>2015-03-29T12:59:12+02:00</time>
      </trkpt>
      <trkpt lat="45.61587" lon="3.2098">
        <ele>407</ele>
        <time>2015-03-29T12:59:12+02:00</time>
      </trkpt>
      <trkpt lat="45.61585" lon="3.20984">
        <ele>408</ele>
        <time>2015-03-29T12:59:12+02:00</time>
      </trkpt>
      <trkpt lat="45.6158" lon="3.20987">
        <ele>409</ele>
        <time>2015-03-29T12:59:12+02:00</time>
      </trkpt>
      <trkpt lat="45.61579" lon="3.20989">
        <ele>408</ele>
        <time>2015-03-29T12:59:12+02:00</time>
      </trkpt>
      <trkpt lat="45.61579" lon="3.20993">
        <ele>408</ele>
        <time>2015-03-29T12:59:12+02:00</time>
      </trkpt>
      <trkpt lat="45.61579" lon="3.20997">
        <ele>408</ele>
        <time>2015-03-29T12:59:12+02:00</time>
      </trkpt>
      <trkpt lat="45.61578" lon="3.21">
        <ele>407</ele>
        <time>2015-03-29T12:59:12+02:00</time>
      </trkpt>
      <trkpt lat="45.61576" lon="3.21003">
        <ele>407</ele>
        <time>2015-03-29T12:59:12+02:00</time>
      </trkpt>
      <trkpt lat="45.61575" lon="3.21004">
        <ele>407</ele>
        <time>2015-03-29T12:59:12+02:00</time>
      </trkpt>
      <trkpt lat="45.61574" lon="3.21008">
        <ele>408</ele>
        <time>2015-03-29T12:59:12+02:00</time>
      </trkpt>
      <trkpt lat="45.61572" lon="3.2101">
        <ele>408</ele>
        <time>2015-03-29T12:59:12+02:00</time>
      </trkpt>
      <trkpt lat="45.61571" lon="3.21012">
        <ele>408</ele>
        <time>2015-03-29T12:59:12+02:00</time>
      </trkpt>
      <trkpt lat="45.61569" lon="3.21015">
        <ele>408</ele>
        <time>2015-03-29T12:59:12+02:00</time>
      </trkpt>
      <trkpt lat="45.61568" lon="3.21018">
        <ele>408</ele>
        <time>2015-03-29T12:59:12+02:00</time>
      </trkpt>
      <trkpt lat="45.61567" lon="3.2102">
        <ele>407</ele>
        <time>2015-03-29T12:59:12+02:00</time>
      </trkpt>
      <trkpt lat="45.61565" lon="3.21024">
        <ele>409</ele>
        <time>2015-03-29T12:59:12+02:00</time>
      </trkpt>
      <trkpt lat="45.61562" lon="3.21027">
        <ele>409</ele>
        <time>2015-03-29T12:59:12+02:00</time>
      </trkpt>
      <trkpt lat="45.6156" lon="3.21031">
        <ele>409</ele>
        <time>2015-03-29T12:59:12+02:00</time>
      </trkpt>
      <trkpt lat="45.61557" lon="3.21033">
        <ele>409</ele>
        <time>2015-03-29T12:59:12+02:00</time>
      </trkpt>
      <trkpt lat="45.61555" lon="3.21034">
        <ele>408</ele>
        <time>2015-03-29T12:59:12+02:00</time>
      </trkpt>
      <trkpt lat="45.61552" lon="3.21036">
        <ele>408</ele>
        <time>2015-03-29T12:59:12+02:00</time>
      </trkpt>
      <trkpt lat="45.61549" lon="3.21038">
        <ele>408</ele>
        <time>2015-03-29T12:59:12+02:00</time>
      </trkpt>
      <trkpt lat="45.61545" lon="3.2104">
        <ele>408</ele>
        <time>2015-03-29T12:59:12+02:00</time>
      </trkpt>
      <trkpt lat="45.61544" lon="3.21041">
        <ele>408</ele>
        <time>2015-03-29T12:59:12+02:00</time>
      </trkpt>
      <trkpt lat="45.61541" lon="3.21043">
        <ele>408</ele>
        <time>2015-03-29T12:59:12+02:00</time>
      </trkpt>
      <trkpt lat="45.61539" lon="3.21045">
        <ele>408</ele>
        <time>2015-03-29T12:59:12+02:00</time>
      </trkpt>
      <trkpt lat="45.61537" lon="3.21047">
        <ele>409</ele>
        <time>2015-03-29T12:59:12+02:00</time>
      </trkpt>
      <trkpt lat="45.61534" lon="3.21049">
        <ele>410</ele>
        <time>2015-03-29T12:59:12+02:00</time>
      </trkpt>
      <trkpt lat="45.61532" lon="3.21051">
        <ele>410</ele>
        <time>2015-03-29T12:59:12+02:00</time>
      </trkpt>
      <trkpt lat="45.6153" lon="3.21053">
        <ele>409</ele>
        <time>2015-03-29T12:59:12+02:00</time>
      </trkpt>
      <trkpt lat="45.61527" lon="3.21055">
        <ele>410</ele>
        <time>2015-03-29T12:59:12+02:00</time>
      </trkpt>
      <trkpt lat="45.61524" lon="3.21057">
        <ele>409</ele>
        <time>2015-03-29T12:59:12+02:00</time>
      </trkpt>
      <trkpt lat="45.61521" lon="3.21059">
        <ele>409</ele>
        <time>2015-03-29T12:59:12+02:00</time>
      </trkpt>
      <trkpt lat="45.61518" lon="3.21061">
        <ele>409</ele>
        <time>2015-03-29T12:59:12+02:00</time>
      </trkpt>
      <trkpt lat="45.61515" lon="3.21063">
        <ele>409</ele>
        <time>2015-03-29T12:59:12+02:00</time>
      </trkpt>
      <trkpt lat="45.61512" lon="3.21065">
        <ele>409</ele>
        <time>2015-03-29T12:59:12+02:00</time>
      </trkpt>
      <trkpt lat="45.6151" lon="3.21066">
        <ele>409</ele>
        <time>2015-03-29T12:59:12+02:00</time>
      </trkpt>
      <trkpt lat="45.61508" lon="3.21067">
        <ele>409</ele>
        <time>2015-03-29T12:59:12+02:00</time>
      </trkpt>
      <trkpt lat="45.61507" lon="3.21068">
        <ele>409</ele>
        <time>2015-03-29T12:59:12+02:00</time>
      </trkpt>
      <trkpt lat="45.61505" lon="3.2107">
        <ele>409</ele>
        <time>2015-03-29T12:59:12+02:00</time>
      </trkpt>
      <trkpt lat="45.61503" lon="3.21072">
        <ele>409</ele>
        <time>2015-03-29T12:59:12+02:00</time>
      </trkpt>
      <trkpt lat="45.615" lon="3.21073">
        <ele>409</ele>
        <time>2015-03-29T12:59:12+02:00</time>
      </trkpt>
      <trkpt lat="45.61498" lon="3.21073">
        <ele>409</ele>
        <time>2015-03-29T12:59:12+02:00</time>
      </trkpt>
      <trkpt lat="45.61496" lon="3.21071">
        <ele>408</ele>
        <time>2015-03-29T12:59:12+02:00</time>
      </trkpt>
      <trkpt lat="45.61494" lon="3.21071">
        <ele>407</ele>
        <time>2015-03-29T12:59:12+02:00</time>
      </trkpt>
      <trkpt lat="45.61492" lon="3.21069">
        <ele>408</ele>
        <time>2015-03-29T12:59:12+02:00</time>
      </trkpt>
      <trkpt lat="45.61488" lon="3.21069">
        <ele>408</ele>
        <time>2015-03-29T12:59:12+02:00</time>
      </trkpt>
      <trkpt lat="45.61486" lon="3.21068">
        <ele>408</ele>
        <time>2015-03-29T12:59:12+02:00</time>
      </trkpt>
      <trkpt lat="45.61484" lon="3.21067">
        <ele>409</ele>
        <time>2015-03-29T12:59:12+02:00</time>
      </trkpt>
      <trkpt lat="45.61481" lon="3.21067">
        <ele>411</ele>
        <time>2015-03-29T12:59:12+02:00</time>
      </trkpt>
      <trkpt lat="45.61479" lon="3.21067">
        <ele>412</ele>
        <time>2015-03-29T12:59:12+02:00</time>
      </trkpt>
      <trkpt lat="45.61476" lon="3.21066">
        <ele>413</ele>
        <time>2015-03-29T12:59:12+02:00</time>
      </trkpt>
      <trkpt lat="45.61475" lon="3.21062">
        <ele>413</ele>
        <time>2015-03-29T12:59:12+02:00</time>
      </trkpt>
      <trkpt lat="45.61473" lon="3.21059">
        <ele>413</ele>
        <time>2015-03-29T12:59:12+02:00</time>
      </trkpt>
      <trkpt lat="45.61471" lon="3.21053">
        <ele>413</ele>
        <time>2015-03-29T12:59:12+02:00</time>
      </trkpt>
      <trkpt lat="45.6147" lon="3.21049">
        <ele>413</ele>
        <time>2015-03-29T12:59:12+02:00</time>
      </trkpt>
      <trkpt lat="45.61469" lon="3.21046">
        <ele>412</ele>
        <time>2015-03-29T12:59:12+02:00</time>
      </trkpt>
      <trkpt lat="45.61468" lon="3.21043">
        <ele>412</ele>
        <time>2015-03-29T12:59:12+02:00</time>
      </trkpt>
      <trkpt lat="45.61467" lon="3.21039">
        <ele>411</ele>
        <time>2015-03-29T12:59:12+02:00</time>
      </trkpt>
      <trkpt lat="45.61468" lon="3.21036">
        <ele>412</ele>
        <time>2015-03-29T12:59:12+02:00</time>
      </trkpt>
      <trkpt lat="45.61467" lon="3.21033">
        <ele>412</ele>
        <time>2015-03-29T12:59:12+02:00</time>
      </trkpt>
      <trkpt lat="45.61468" lon="3.21023">
        <ele>416</ele>
        <time>2015-03-29T13:01:20+02:00</time>
      </trkpt>
      <trkpt lat="45.61466" lon="3.21022">
        <ele>416</ele>
        <time>2015-03-29T13:01:20+02:00</time>
      </trkpt>
      <trkpt lat="45.61463" lon="3.21022">
        <ele>416</ele>
        <time>2015-03-29T13:01:20+02:00</time>
      </trkpt>
      <trkpt lat="45.61461" lon="3.21022">
        <ele>416</ele>
        <time>2015-03-29T13:01:20+02:00</time>
      </trkpt>
      <trkpt lat="45.61458" lon="3.21023">
        <ele>414</ele>
        <time>2015-03-29T13:01:20+02:00</time>
      </trkpt>
      <trkpt lat="45.61456" lon="3.21023">
        <ele>414</ele>
        <time>2015-03-29T13:01:20+02:00</time>
      </trkpt>
      <trkpt lat="45.61454" lon="3.21025">
        <ele>413</ele>
        <time>2015-03-29T13:01:20+02:00</time>
      </trkpt>
      <trkpt lat="45.61452" lon="3.21026">
        <ele>412</ele>
        <time>2015-03-29T13:01:20+02:00</time>
      </trkpt>
      <trkpt lat="45.61451" lon="3.21028">
        <ele>412</ele>
        <time>2015-03-29T13:01:20+02:00</time>
      </trkpt>
      <trkpt lat="45.61448" lon="3.21031">
        <ele>412</ele>
        <time>2015-03-29T13:01:20+02:00</time>
      </trkpt>
      <trkpt lat="45.61442" lon="3.21041">
        <ele>413</ele>
        <time>2015-03-29T13:01:20+02:00</time>
      </trkpt>
      <trkpt lat="45.61442" lon="3.21045">
        <ele>413</ele>
        <time>2015-03-29T13:01:20+02:00</time>
      </trkpt>
      <trkpt lat="45.61439" lon="3.21049">
        <ele>413</ele>
        <time>2015-03-29T13:01:20+02:00</time>
      </trkpt>
      <trkpt lat="45.61438" lon="3.21051">
        <ele>413</ele>
        <time>2015-03-29T13:01:20+02:00</time>
      </trkpt>
      <trkpt lat="45.61436" lon="3.21052">
        <ele>413</ele>
        <time>2015-03-29T13:01:20+02:00</time>
      </trkpt>
      <trkpt lat="45.61435" lon="3.21054">
        <ele>413</ele>
        <time>2015-03-29T13:01:20+02:00</time>
      </trkpt>
      <trkpt lat="45.61433" lon="3.21058">
        <ele>413</ele>
        <time>2015-03-29T13:01:20+02:00</time>
      </trkpt>
      <trkpt lat="45.61432" lon="3.2106">
        <ele>412</ele>
        <time>2015-03-29T13:01:20+02:00</time>
      </trkpt>
      <trkpt lat="45.6143" lon="3.21063">
        <ele>411</ele>
        <time>2015-03-29T13:01:20+02:00</time>
      </trkpt>
      <trkpt lat="45.61427" lon="3.21066">
        <ele>411</ele>
        <time>2015-03-29T13:01:20+02:00</time>
      </trkpt>
      <trkpt lat="45.61424" lon="3.21069">
        <ele>412</ele>
        <time>2015-03-29T13:01:20+02:00</time>
      </trkpt>
      <trkpt lat="45.61421" lon="3.2107">
        <ele>412</ele>
        <time>2015-03-29T13:01:20+02:00</time>
      </trkpt>
      <trkpt lat="45.61418" lon="3.21072">
        <ele>412</ele>
        <time>2015-03-29T13:01:20+02:00</time>
      </trkpt>
      <trkpt lat="45.61415" lon="3.21073">
        <ele>412</ele>
        <time>2015-03-29T13:01:20+02:00</time>
      </trkpt>
      <trkpt lat="45.61412" lon="3.21074">
        <ele>411</ele>
        <time>2015-03-29T13:01:20+02:00</time>
      </trkpt>
      <trkpt lat="45.61409" lon="3.21076">
        <ele>411</ele>
        <time>2015-03-29T13:01:20+02:00</time>
      </trkpt>
      <trkpt lat="45.61408" lon="3.21077">
        <ele>411</ele>
        <time>2015-03-29T13:01:20+02:00</time>
      </trkpt>
      <trkpt lat="45.61406" lon="3.21078">
        <ele>411</ele>
        <time>2015-03-29T13:01:20+02:00</time>
      </trkpt>
      <trkpt lat="45.61404" lon="3.2108">
        <ele>411</ele>
        <time>2015-03-29T13:01:20+02:00</time>
      </trkpt>
      <trkpt lat="45.61401" lon="3.21082">
        <ele>412</ele>
        <time>2015-03-29T13:01:20+02:00</time>
      </trkpt>
      <trkpt lat="45.61399" lon="3.21084">
        <ele>411</ele>
        <time>2015-03-29T13:01:20+02:00</time>
      </trkpt>
      <trkpt lat="45.61397" lon="3.21085">
        <ele>411</ele>
        <time>2015-03-29T13:01:20+02:00</time>
      </trkpt>
      <trkpt lat="45.61395" lon="3.21087">
        <ele>411</ele>
        <time>2015-03-29T13:01:20+02:00</time>
      </trkpt>
      <trkpt lat="45.61392" lon="3.21089">
        <ele>410</ele>
        <time>2015-03-29T13:01:20+02:00</time>
      </trkpt>
      <trkpt lat="45.61389" lon="3.2109">
        <ele>410</ele>
        <time>2015-03-29T13:01:20+02:00</time>
      </trkpt>
      <trkpt lat="45.61386" lon="3.21092">
        <ele>409</ele>
        <time>2015-03-29T13:01:20+02:00</time>
      </trkpt>
      <trkpt lat="45.61383" lon="3.21093">
        <ele>408</ele>
        <time>2015-03-29T13:01:20+02:00</time>
      </trkpt>
      <trkpt lat="45.61381" lon="3.21096">
        <ele>408</ele>
        <time>2015-03-29T13:01:20+02:00</time>
      </trkpt>
      <trkpt lat="45.61379" lon="3.21097">
        <ele>408</ele>
        <time>2015-03-29T13:01:20+02:00</time>
      </trkpt>
      <trkpt lat="45.61377" lon="3.21099">
        <ele>407</ele>
        <time>2015-03-29T13:01:20+02:00</time>
      </trkpt>
      <trkpt lat="45.61376" lon="3.211">
        <ele>407</ele>
        <time>2015-03-29T13:01:20+02:00</time>
      </trkpt>
      <trkpt lat="45.61373" lon="3.21103">
        <ele>407</ele>
        <time>2015-03-29T13:01:20+02:00</time>
      </trkpt>
      <trkpt lat="45.61371" lon="3.21105">
        <ele>406</ele>
        <time>2015-03-29T13:01:20+02:00</time>
      </trkpt>
      <trkpt lat="45.61369" lon="3.21107">
        <ele>406</ele>
        <time>2015-03-29T13:01:20+02:00</time>
      </trkpt>
      <trkpt lat="45.61366" lon="3.21109">
        <ele>405</ele>
        <time>2015-03-29T13:01:20+02:00</time>
      </trkpt>
      <trkpt lat="45.61364" lon="3.21111">
        <ele>404</ele>
        <time>2015-03-29T13:01:20+02:00</time>
      </trkpt>
      <trkpt lat="45.61361" lon="3.21112">
        <ele>403</ele>
        <time>2015-03-29T13:01:20+02:00</time>
      </trkpt>
      <trkpt lat="45.61357" lon="3.21115">
        <ele>404</ele>
        <time>2015-03-29T13:01:20+02:00</time>
      </trkpt>
      <trkpt lat="45.61353" lon="3.21116">
        <ele>404</ele>
        <time>2015-03-29T13:01:20+02:00</time>
      </trkpt>
      <trkpt lat="45.6135" lon="3.21116">
        <ele>404</ele>
        <time>2015-03-29T13:01:20+02:00</time>
      </trkpt>
      <trkpt lat="45.61348" lon="3.21118">
        <ele>405</ele>
        <time>2015-03-29T13:01:20+02:00</time>
      </trkpt>
      <trkpt lat="45.61344" lon="3.21118">
        <ele>406</ele>
        <time>2015-03-29T13:01:20+02:00</time>
      </trkpt>
      <trkpt lat="45.61341" lon="3.2112">
        <ele>405</ele>
        <time>2015-03-29T13:01:20+02:00</time>
      </trkpt>
      <trkpt lat="45.61338" lon="3.21122">
        <ele>405</ele>
        <time>2015-03-29T13:01:20+02:00</time>
      </trkpt>
      <trkpt lat="45.61335" lon="3.21124">
        <ele>405</ele>
        <time>2015-03-29T13:01:20+02:00</time>
      </trkpt>
      <trkpt lat="45.61333" lon="3.21125">
        <ele>406</ele>
        <time>2015-03-29T13:01:20+02:00</time>
      </trkpt>
      <trkpt lat="45.61331" lon="3.21127">
        <ele>406</ele>
        <time>2015-03-29T13:01:20+02:00</time>
      </trkpt>
      <trkpt lat="45.61328" lon="3.21128">
        <ele>406</ele>
        <time>2015-03-29T13:01:20+02:00</time>
      </trkpt>
      <trkpt lat="45.61325" lon="3.2113">
        <ele>407</ele>
        <time>2015-03-29T13:01:20+02:00</time>
      </trkpt>
      <trkpt lat="45.61323" lon="3.21131">
        <ele>408</ele>
        <time>2015-03-29T13:01:20+02:00</time>
      </trkpt>
      <trkpt lat="45.6132" lon="3.21133">
        <ele>408</ele>
        <time>2015-03-29T13:01:20+02:00</time>
      </trkpt>
      <trkpt lat="45.61317" lon="3.21134">
        <ele>409</ele>
        <time>2015-03-29T13:01:20+02:00</time>
      </trkpt>
      <trkpt lat="45.61314" lon="3.21135">
        <ele>410</ele>
        <time>2015-03-29T13:01:20+02:00</time>
      </trkpt>
      <trkpt lat="45.61312" lon="3.21135">
        <ele>411</ele>
        <time>2015-03-29T13:01:20+02:00</time>
      </trkpt>
      <trkpt lat="45.61308" lon="3.21134">
        <ele>412</ele>
        <time>2015-03-29T13:01:20+02:00</time>
      </trkpt>
      <trkpt lat="45.61309" lon="3.21131">
        <ele>412</ele>
        <time>2015-03-29T13:01:20+02:00</time>
      </trkpt>
      <trkpt lat="45.61308" lon="3.21128">
        <ele>411</ele>
        <time>2015-03-29T13:03:28+02:00</time>
      </trkpt>
      <trkpt lat="45.61309" lon="3.21125">
        <ele>411</ele>
        <time>2015-03-29T13:03:28+02:00</time>
      </trkpt>
      <trkpt lat="45.61316" lon="3.21113">
        <ele>411</ele>
        <time>2015-03-29T13:03:28+02:00</time>
      </trkpt>
      <trkpt lat="45.61318" lon="3.21112">
        <ele>412</ele>
        <time>2015-03-29T13:03:28+02:00</time>
      </trkpt>
      <trkpt lat="45.61318" lon="3.21107">
        <ele>414</ele>
        <time>2015-03-29T13:03:28+02:00</time>
      </trkpt>
      <trkpt lat="45.6132" lon="3.21104">
        <ele>414</ele>
        <time>2015-03-29T13:03:28+02:00</time>
      </trkpt>
      <trkpt lat="45.61321" lon="3.211">
        <ele>414</ele>
        <time>2015-03-29T13:03:28+02:00</time>
      </trkpt>
      <trkpt lat="45.61322" lon="3.21098">
        <ele>414</ele>
        <time>2015-03-29T13:03:28+02:00</time>
      </trkpt>
      <trkpt lat="45.61324" lon="3.21096">
        <ele>415</ele>
        <time>2015-03-29T13:03:28+02:00</time>
      </trkpt>
      <trkpt lat="45.61325" lon="3.21093">
        <ele>414</ele>
        <time>2015-03-29T13:03:28+02:00</time>
      </trkpt>
      <trkpt lat="45.61326" lon="3.21089">
        <ele>415</ele>
        <time>2015-03-29T13:03:28+02:00</time>
      </trkpt>
      <trkpt lat="45.61333" lon="3.21073">
        <ele>414</ele>
        <time>2015-03-29T13:03:28+02:00</time>
      </trkpt>
      <trkpt lat="45.61333" lon="3.21068">
        <ele>414</ele>
        <time>2015-03-29T13:03:28+02:00</time>
      </trkpt>
      <trkpt lat="45.61333" lon="3.21065">
        <ele>414</ele>
        <time>2015-03-29T13:03:28+02:00</time>
      </trkpt>
      <trkpt lat="45.61334" lon="3.21062">
        <ele>414</ele>
        <time>2015-03-29T13:03:28+02:00</time>
      </trkpt>
      <trkpt lat="45.61332" lon="3.2106">
        <ele>414</ele>
        <time>2015-03-29T13:03:28+02:00</time>
      </trkpt>
      <trkpt lat="45.61332" lon="3.21057">
        <ele>414</ele>
        <time>2015-03-29T13:03:28+02:00</time>
      </trkpt>
      <trkpt lat="45.61331" lon="3.21055">
        <ele>414</ele>
        <time>2015-03-29T13:03:28+02:00</time>
      </trkpt>
      <trkpt lat="45.61329" lon="3.21053">
        <ele>413</ele>
        <time>2015-03-29T13:03:28+02:00</time>
      </trkpt>
      <trkpt lat="45.61327" lon="3.21049">
        <ele>414</ele>
        <time>2015-03-29T13:03:28+02:00</time>
      </trkpt>
      <trkpt lat="45.61324" lon="3.21047">
        <ele>414</ele>
        <time>2015-03-29T13:03:28+02:00</time>
      </trkpt>
      <trkpt lat="45.61322" lon="3.21045">
        <ele>414</ele>
        <time>2015-03-29T13:03:28+02:00</time>
      </trkpt>
      <trkpt lat="45.6132" lon="3.21044">
        <ele>413</ele>
        <time>2015-03-29T13:03:28+02:00</time>
      </trkpt>
      <trkpt lat="45.61319" lon="3.21043">
        <ele>413</ele>
        <time>2015-03-29T13:03:28+02:00</time>
      </trkpt>
      <trkpt lat="45.61317" lon="3.21041">
        <ele>413</ele>
        <time>2015-03-29T13:03:28+02:00</time>
      </trkpt>
      <trkpt lat="45.61315" lon="3.2104">
        <ele>413</ele>
        <time>2015-03-29T13:03:28+02:00</time>
      </trkpt>
      <trkpt lat="45.61313" lon="3.21039">
        <ele>413</ele>
        <time>2015-03-29T13:03:28+02:00</time>
      </trkpt>
      <trkpt lat="45.6131" lon="3.21038">
        <ele>414</ele>
        <time>2015-03-29T13:03:28+02:00</time>
      </trkpt>
      <trkpt lat="45.61309" lon="3.21037">
        <ele>414</ele>
        <time>2015-03-29T13:03:28+02:00</time>
      </trkpt>
      <trkpt lat="45.61306" lon="3.21036">
        <ele>414</ele>
        <time>2015-03-29T13:03:28+02:00</time>
      </trkpt>
      <trkpt lat="45.61304" lon="3.21035">
        <ele>414</ele>
        <time>2015-03-29T13:03:28+02:00</time>
      </trkpt>
      <trkpt lat="45.61301" lon="3.21033">
        <ele>414</ele>
        <time>2015-03-29T13:03:28+02:00</time>
      </trkpt>
      <trkpt lat="45.61299" lon="3.21031">
        <ele>415</ele>
        <time>2015-03-29T13:03:28+02:00</time>
      </trkpt>
      <trkpt lat="45.61296" lon="3.2103">
        <ele>415</ele>
        <time>2015-03-29T13:03:28+02:00</time>
      </trkpt>
      <trkpt lat="45.61293" lon="3.21028">
        <ele>415</ele>
        <time>2015-03-29T13:03:28+02:00</time>
      </trkpt>
      <trkpt lat="45.6129" lon="3.21026">
        <ele>415</ele>
        <time>2015-03-29T13:03:28+02:00</time>
      </trkpt>
      <trkpt lat="45.61287" lon="3.21024">
        <ele>416</ele>
        <time>2015-03-29T13:03:28+02:00</time>
      </trkpt>
      <trkpt lat="45.61284" lon="3.21023">
        <ele>416</ele>
        <time>2015-03-29T13:03:28+02:00</time>
      </trkpt>
      <trkpt lat="45.61281" lon="3.21021">
        <ele>416</ele>
        <time>2015-03-29T13:03:28+02:00</time>
      </trkpt>
      <trkpt lat="45.61278" lon="3.21019">
        <ele>415</ele>
        <time>2015-03-29T13:03:28+02:00</time>
      </trkpt>
      <trkpt lat="45.61275" lon="3.21016">
        <ele>415</ele>
        <time>2015-03-29T13:03:28+02:00</time>
      </trkpt>
      <trkpt lat="45.61272" lon="3.21014">
        <ele>415</ele>
        <time>2015-03-29T13:03:28+02:00</time>
      </trkpt>
      <trkpt lat="45.61269" lon="3.21012">
        <ele>416</ele>
        <time>2015-03-29T13:03:28+02:00</time>
      </trkpt>
      <trkpt lat="45.61266" lon="3.2101">
        <ele>416</ele>
        <time>2015-03-29T13:03:28+02:00</time>
      </trkpt>
      <trkpt lat="45.61264" lon="3.21008">
        <ele>416</ele>
        <time>2015-03-29T13:03:28+02:00</time>
      </trkpt>
      <trkpt lat="45.61261" lon="3.21006">
        <ele>415</ele>
        <time>2015-03-29T13:03:28+02:00</time>
      </trkpt>
      <trkpt lat="45.61258" lon="3.21004">
        <ele>415</ele>
        <time>2015-03-29T13:03:28+02:00</time>
      </trkpt>
      <trkpt lat="45.61255" lon="3.21002">
        <ele>415</ele>
        <time>2015-03-29T13:03:28+02:00</time>
      </trkpt>
      <trkpt lat="45.61252" lon="3.21001">
        <ele>415</ele>
        <time>2015-03-29T13:03:28+02:00</time>
      </trkpt>
      <trkpt lat="45.61249" lon="3.20999">
        <ele>415</ele>
        <time>2015-03-29T13:03:28+02:00</time>
      </trkpt>
      <trkpt lat="45.61246" lon="3.20997">
        <ele>415</ele>
        <time>2015-03-29T13:03:28+02:00</time>
      </trkpt>
      <trkpt lat="45.61244" lon="3.20995">
        <ele>415</ele>
        <time>2015-03-29T13:03:28+02:00</time>
      </trkpt>
      <trkpt lat="45.61241" lon="3.20994">
        <ele>416</ele>
        <time>2015-03-29T13:03:28+02:00</time>
      </trkpt>
      <trkpt lat="45.61239" lon="3.20992">
        <ele>416</ele>
        <time>2015-03-29T13:03:28+02:00</time>
      </trkpt>
      <trkpt lat="45.61235" lon="3.20989">
        <ele>415</ele>
        <time>2015-03-29T13:03:28+02:00</time>
      </trkpt>
      <trkpt lat="45.61234" lon="3.20988">
        <ele>416</ele>
        <time>2015-03-29T13:03:28+02:00</time>
      </trkpt>
      <trkpt lat="45.61232" lon="3.20987">
        <ele>415</ele>
        <time>2015-03-29T13:03:28+02:00</time>
      </trkpt>
      <trkpt lat="45.61229" lon="3.20985">
        <ele>416</ele>
        <time>2015-03-29T13:03:28+02:00</time>
      </trkpt>
      <trkpt lat="45.61227" lon="3.20983">
        <ele>416</ele>
        <time>2015-03-29T13:03:28+02:00</time>
      </trkpt>
      <trkpt lat="45.61224" lon="3.20981">
        <ele>416</ele>
        <time>2015-03-29T13:03:28+02:00</time>
      </trkpt>
      <trkpt lat="45.61221" lon="3.20979">
        <ele>416</ele>
        <time>2015-03-29T13:03:28+02:00</time>
      </trkpt>
      <trkpt lat="45.61218" lon="3.20977">
        <ele>416</ele>
        <time>2015-03-29T13:03:28+02:00</time>
      </trkpt>
      <trkpt lat="45.61215" lon="3.20976">
        <ele>416</ele>
        <time>2015-03-29T13:03:28+02:00</time>
      </trkpt>
      <trkpt lat="45.61213" lon="3.20976">
        <ele>416</ele>
        <time>2015-03-29T13:03:28+02:00</time>
      </trkpt>
      <trkpt lat="45.61209" lon="3.20975">
        <ele>417</ele>
        <time>2015-03-29T13:03:28+02:00</time>
      </trkpt>
      <trkpt lat="45.61207" lon="3.20972">
        <ele>416</ele>
        <time>2015-03-29T13:03:28+02:00</time>
      </trkpt>
      <trkpt lat="45.61205" lon="3.2097">
        <ele>415</ele>
        <time>2015-03-29T13:05:36+02:00</time>
      </trkpt>
      <trkpt lat="45.61203" lon="3.20968">
        <ele>412</ele>
        <time>2015-03-29T13:05:36+02:00</time>
      </trkpt>
      <trkpt lat="45.61202" lon="3.20965">
        <ele>409</ele>
        <time>2015-03-29T13:05:36+02:00</time>
      </trkpt>
      <trkpt lat="45.61201" lon="3.20963">
        <ele>407</ele>
        <time>2015-03-29T13:05:36+02:00</time>
      </trkpt>
      <trkpt lat="45.61198" lon="3.20962">
        <ele>409</ele>
        <time>2015-03-29T13:05:36+02:00</time>
      </trkpt>
      <trkpt lat="45.61197" lon="3.20961">
        <ele>409</ele>
        <time>2015-03-29T13:05:36+02:00</time>
      </trkpt>
      <trkpt lat="45.61195" lon="3.2096">
        <ele>410</ele>
        <time>2015-03-29T13:05:36+02:00</time>
      </trkpt>
      <trkpt lat="45.61193" lon="3.20959">
        <ele>410</ele>
        <time>2015-03-29T13:05:36+02:00</time>
      </trkpt>
      <trkpt lat="45.6119" lon="3.20958">
        <ele>409</ele>
        <time>2015-03-29T13:05:36+02:00</time>
      </trkpt>
      <trkpt lat="45.61188" lon="3.20957">
        <ele>408</ele>
        <time>2015-03-29T13:05:36+02:00</time>
      </trkpt>
      <trkpt lat="45.61186" lon="3.20955">
        <ele>407</ele>
        <time>2015-03-29T13:05:36+02:00</time>
      </trkpt>
      <trkpt lat="45.61184" lon="3.20953">
        <ele>407</ele>
        <time>2015-03-29T13:05:36+02:00</time>
      </trkpt>
      <trkpt lat="45.61182" lon="3.20951">
        <ele>407</ele>
        <time>2015-03-29T13:05:36+02:00</time>
      </trkpt>
      <trkpt lat="45.61148" lon="3.20932">
        <ele>412</ele>
        <time>2015-03-29T13:05:36+02:00</time>
      </trkpt>
      <trkpt lat="45.61144" lon="3.20931">
        <ele>414</ele>
        <time>2015-03-29T13:05:36+02:00</time>
      </trkpt>
      <trkpt lat="45.6114" lon="3.20932">
        <ele>416</ele>
        <time>2015-03-29T13:05:36+02:00</time>
      </trkpt>
      <trkpt lat="45.61138" lon="3.20933">
        <ele>416</ele>
        <time>2015-03-29T13:05:36+02:00</time>
      </trkpt>
      <trkpt lat="45.61136" lon="3.20934">
        <ele>417</ele>
        <time>2015-03-29T13:05:36+02:00</time>
      </trkpt>
      <trkpt lat="45.61133" lon="3.20935">
        <ele>417</ele>
        <time>2015-03-29T13:05:36+02:00</time>
      </trkpt>
      <trkpt lat="45.61129" lon="3.20936">
        <ele>419</ele>
        <time>2015-03-29T13:05:36+02:00</time>
      </trkpt>
      <trkpt lat="45.61127" lon="3.20938">
        <ele>420</ele>
        <time>2015-03-29T13:05:36+02:00</time>
      </trkpt>
      <trkpt lat="45.61124" lon="3.20941">
        <ele>420</ele>
        <time>2015-03-29T13:05:36+02:00</time>
      </trkpt>
      <trkpt lat="45.61121" lon="3.20944">
        <ele>421</ele>
        <time>2015-03-29T13:05:36+02:00</time>
      </trkpt>
      <trkpt lat="45.61119" lon="3.20947">
        <ele>422</ele>
        <time>2015-03-29T13:05:36+02:00</time>
      </trkpt>
      <trkpt lat="45.61117" lon="3.2095">
        <ele>421</ele>
        <time>2015-03-29T13:05:36+02:00</time>
      </trkpt>
      <trkpt lat="45.61115" lon="3.20953">
        <ele>422</ele>
        <time>2015-03-29T13:05:36+02:00</time>
      </trkpt>
      <trkpt lat="45.61113" lon="3.20956">
        <ele>422</ele>
        <time>2015-03-29T13:05:36+02:00</time>
      </trkpt>
      <trkpt lat="45.61111" lon="3.2096">
        <ele>423</ele>
        <time>2015-03-29T13:05:36+02:00</time>
      </trkpt>
      <trkpt lat="45.61109" lon="3.20963">
        <ele>423</ele>
        <time>2015-03-29T13:05:36+02:00</time>
      </trkpt>
      <trkpt lat="45.61108" lon="3.20967">
        <ele>423</ele>
        <time>2015-03-29T13:05:36+02:00</time>
      </trkpt>
      <trkpt lat="45.61106" lon="3.20971">
        <ele>424</ele>
        <time>2015-03-29T13:05:36+02:00</time>
      </trkpt>
      <trkpt lat="45.61105" lon="3.20975">
        <ele>424</ele>
        <time>2015-03-29T13:05:36+02:00</time>
      </trkpt>
      <trkpt lat="45.61104" lon="3.2098">
        <ele>423</ele>
        <time>2015-03-29T13:05:36+02:00</time>
      </trkpt>
      <trkpt lat="45.61103" lon="3.20984">
        <ele>424</ele>
        <time>2015-03-29T13:05:36+02:00</time>
      </trkpt>
      <trkpt lat="45.61102" lon="3.20988">
        <ele>424</ele>
        <time>2015-03-29T13:05:36+02:00</time>
      </trkpt>
      <trkpt lat="45.611" lon="3.20991">
        <ele>424</ele>
        <time>2015-03-29T13:05:36+02:00</time>
      </trkpt>
      <trkpt lat="45.61099" lon="3.20995">
        <ele>424</ele>
        <time>2015-03-29T13:05:36+02:00</time>
      </trkpt>
      <trkpt lat="45.61097" lon="3.20998">
        <ele>424</ele>
        <time>2015-03-29T13:05:36+02:00</time>
      </trkpt>
      <trkpt lat="45.61094" lon="3.21">
        <ele>424</ele>
        <time>2015-03-29T13:05:36+02:00</time>
      </trkpt>
      <trkpt lat="45.61092" lon="3.21002">
        <ele>425</ele>
        <time>2015-03-29T13:05:36+02:00</time>
      </trkpt>
      <trkpt lat="45.61089" lon="3.21002">
        <ele>425</ele>
        <time>2015-03-29T13:05:36+02:00</time>
      </trkpt>
      <trkpt lat="45.61086" lon="3.21002">
        <ele>425</ele>
        <time>2015-03-29T13:05:36+02:00</time>
      </trkpt>
      <trkpt lat="45.61083" lon="3.21002">
        <ele>426</ele>
        <time>2015-03-29T13:05:36+02:00</time>
      </trkpt>
      <trkpt lat="45.6108" lon="3.21001">
        <ele>426</ele>
        <time>2015-03-29T13:05:36+02:00</time>
      </trkpt>
      <trkpt lat="45.61077" lon="3.21001">
        <ele>426</ele>
        <time>2015-03-29T13:05:36+02:00</time>
      </trkpt>
      <trkpt lat="45.61075" lon="3.21">
        <ele>427</ele>
        <time>2015-03-29T13:05:36+02:00</time>
      </trkpt>
      <trkpt lat="45.61072" lon="3.21">
        <ele>427</ele>
        <time>2015-03-29T13:05:36+02:00</time>
      </trkpt>
      <trkpt lat="45.61069" lon="3.20999">
        <ele>427</ele>
        <time>2015-03-29T13:05:36+02:00</time>
      </trkpt>
      <trkpt lat="45.61066" lon="3.20999">
        <ele>427</ele>
        <time>2015-03-29T13:05:36+02:00</time>
      </trkpt>
      <trkpt lat="45.61064" lon="3.20998">
        <ele>427</ele>
        <time>2015-03-29T13:05:36+02:00</time>
      </trkpt>
      <trkpt lat="45.61061" lon="3.20996">
        <ele>427</ele>
        <time>2015-03-29T13:05:36+02:00</time>
      </trkpt>
      <trkpt lat="45.61059" lon="3.20995">
        <ele>427</ele>
        <time>2015-03-29T13:05:36+02:00</time>
      </trkpt>
      <trkpt lat="45.61057" lon="3.20994">
        <ele>428</ele>
        <time>2015-03-29T13:05:36+02:00</time>
      </trkpt>
      <trkpt lat="45.61055" lon="3.20993">
        <ele>428</ele>
        <time>2015-03-29T13:05:36+02:00</time>
      </trkpt>
      <trkpt lat="45.61052" lon="3.20991">
        <ele>428</ele>
        <time>2015-03-29T13:05:36+02:00</time>
      </trkpt>
      <trkpt lat="45.61049" lon="3.20989">
        <ele>428</ele>
        <time>2015-03-29T13:05:36+02:00</time>
      </trkpt>
      <trkpt lat="45.61046" lon="3.20987">
        <ele>427</ele>
        <time>2015-03-29T13:05:36+02:00</time>
      </trkpt>
      <trkpt lat="45.61043" lon="3.20986">
        <ele>427</ele>
        <time>2015-03-29T13:05:36+02:00</time>
      </trkpt>
      <trkpt lat="45.6104" lon="3.20985">
        <ele>427</ele>
        <time>2015-03-29T13:05:36+02:00</time>
      </trkpt>
      <trkpt lat="45.61037" lon="3.20984">
        <ele>427</ele>
        <time>2015-03-29T13:05:36+02:00</time>
      </trkpt>
      <trkpt lat="45.61034" lon="3.20985">
        <ele>427</ele>
        <time>2015-03-29T13:07:44+02:00</time>
      </trkpt>
      <trkpt lat="45.61031" lon="3.20987">
        <ele>427</ele>
        <time>2015-03-29T13:07:44+02:00</time>
      </trkpt>
      <trkpt lat="45.61029" lon="3.20987">
        <ele>425</ele>
        <time>2015-03-29T13:07:44+02:00</time>
      </trkpt>
      <trkpt lat="45.61027" lon="3.20989">
        <ele>424</ele>
        <time>2015-03-29T13:07:44+02:00</time>
      </trkpt>
      <trkpt lat="45.61024" lon="3.2099">
        <ele>424</ele>
        <time>2015-03-29T13:07:44+02:00</time>
      </trkpt>
      <trkpt lat="45.61021" lon="3.20992">
        <ele>423</ele>
        <time>2015-03-29T13:07:44+02:00</time>
      </trkpt>
      <trkpt lat="45.61019" lon="3.20994">
        <ele>423</ele>
        <time>2015-03-29T13:07:44+02:00</time>
      </trkpt>
      <trkpt lat="45.61016" lon="3.20996">
        <ele>423</ele>
        <time>2015-03-29T13:07:44+02:00</time>
      </trkpt>
      <trkpt lat="45.61014" lon="3.20998">
        <ele>423</ele>
        <time>2015-03-29T13:07:44+02:00</time>
      </trkpt>
      <trkpt lat="45.61011" lon="3.21">
        <ele>423</ele>
        <time>2015-03-29T13:07:44+02:00</time>
      </trkpt>
      <trkpt lat="45.61009" lon="3.21001">
        <ele>423</ele>
        <time>2015-03-29T13:07:44+02:00</time>
      </trkpt>
      <trkpt lat="45.61006" lon="3.21003">
        <ele>423</ele>
        <time>2015-03-29T13:07:44+02:00</time>
      </trkpt>
      <trkpt lat="45.61003" lon="3.21005">
        <ele>423</ele>
        <time>2015-03-29T13:07:44+02:00</time>
      </trkpt>
      <trkpt lat="45.61001" lon="3.21007">
        <ele>422</ele>
        <time>2015-03-29T13:07:44+02:00</time>
      </trkpt>
      <trkpt lat="45.60999" lon="3.21008">
        <ele>422</ele>
        <time>2015-03-29T13:07:44+02:00</time>
      </trkpt>
      <trkpt lat="45.60996" lon="3.21007">
        <ele>423</ele>
        <time>2015-03-29T13:07:44+02:00</time>
      </trkpt>
      <trkpt lat="45.60994" lon="3.21008">
        <ele>424</ele>
        <time>2015-03-29T13:07:44+02:00</time>
      </trkpt>
      <trkpt lat="45.60991" lon="3.21007">
        <ele>424</ele>
        <time>2015-03-29T13:07:44+02:00</time>
      </trkpt>
      <trkpt lat="45.60988" lon="3.21005">
        <ele>425</ele>
        <time>2015-03-29T13:07:44+02:00</time>
      </trkpt>
      <trkpt lat="45.60986" lon="3.21002">
        <ele>425</ele>
        <time>2015-03-29T13:07:44+02:00</time>
      </trkpt>
      <trkpt lat="45.60983" lon="3.21">
        <ele>426</ele>
        <time>2015-03-29T13:07:44+02:00</time>
      </trkpt>
      <trkpt lat="45.60982" lon="3.20998">
        <ele>427</ele>
        <time>2015-03-29T13:07:44+02:00</time>
      </trkpt>
      <trkpt lat="45.6098" lon="3.20995">
        <ele>427</ele>
        <time>2015-03-29T13:07:44+02:00</time>
      </trkpt>
      <trkpt lat="45.60977" lon="3.20993">
        <ele>427</ele>
        <time>2015-03-29T13:07:44+02:00</time>
      </trkpt>
      <trkpt lat="45.60974" lon="3.20992">
        <ele>428</ele>
        <time>2015-03-29T13:07:44+02:00</time>
      </trkpt>
      <trkpt lat="45.60972" lon="3.2099">
        <ele>429</ele>
        <time>2015-03-29T13:07:44+02:00</time>
      </trkpt>
      <trkpt lat="45.6097" lon="3.2099">
        <ele>429</ele>
        <time>2015-03-29T13:07:44+02:00</time>
      </trkpt>
      <trkpt lat="45.60968" lon="3.20991">
        <ele>429</ele>
        <time>2015-03-29T13:07:44+02:00</time>
      </trkpt>
      <trkpt lat="45.60966" lon="3.20992">
        <ele>429</ele>
        <time>2015-03-29T13:07:44+02:00</time>
      </trkpt>
      <trkpt lat="45.60964" lon="3.20994">
        <ele>429</ele>
        <time>2015-03-29T13:07:44+02:00</time>
      </trkpt>
      <trkpt lat="45.60962" lon="3.20996">
        <ele>430</ele>
        <time>2015-03-29T13:07:44+02:00</time>
      </trkpt>
      <trkpt lat="45.6096" lon="3.20998">
        <ele>430</ele>
        <time>2015-03-29T13:07:44+02:00</time>
      </trkpt>
      <trkpt lat="45.60958" lon="3.21001">
        <ele>430</ele>
        <time>2015-03-29T13:07:44+02:00</time>
      </trkpt>
      <trkpt lat="45.60957" lon="3.21003">
        <ele>430</ele>
        <time>2015-03-29T13:07:44+02:00</time>
      </trkpt>
      <trkpt lat="45.60955" lon="3.21005">
        <ele>430</ele>
        <time>2015-03-29T13:07:44+02:00</time>
      </trkpt>
      <trkpt lat="45.60953" lon="3.21007">
        <ele>431</ele>
        <time>2015-03-29T13:07:44+02:00</time>
      </trkpt>
      <trkpt lat="45.60951" lon="3.21009">
        <ele>431</ele>
        <time>2015-03-29T13:07:44+02:00</time>
      </trkpt>
      <trkpt lat="45.60949" lon="3.21011">
        <ele>431</ele>
        <time>2015-03-29T13:07:44+02:00</time>
      </trkpt>
      <trkpt lat="45.60947" lon="3.21014">
        <ele>432</ele>
        <time>2015-03-29T13:07:44+02:00</time>
      </trkpt>
      <trkpt lat="45.60945" lon="3.21016">
        <ele>432</ele>
        <time>2015-03-29T13:07:44+02:00</time>
      </trkpt>
      <trkpt lat="45.60943" lon="3.21018">
        <ele>433</ele>
        <time>2015-03-29T13:07:44+02:00</time>
      </trkpt>
      <trkpt lat="45.60941" lon="3.21019">
        <ele>433</ele>
        <time>2015-03-29T13:07:44+02:00</time>
      </trkpt>
      <trkpt lat="45.60939" lon="3.21021">
        <ele>434</ele>
        <time>2015-03-29T13:07:44+02:00</time>
      </trkpt>
      <trkpt lat="45.60938" lon="3.21023">
        <ele>434</ele>
        <time>2015-03-29T13:07:44+02:00</time>
      </trkpt>
      <trkpt lat="45.60935" lon="3.21025">
        <ele>434</ele>
        <time>2015-03-29T13:07:44+02:00</time>
      </trkpt>
      <trkpt lat="45.60933" lon="3.21027">
        <ele>435</ele>
        <time>2015-03-29T13:07:44+02:00</time>
      </trkpt>
      <trkpt lat="45.60931" lon="3.2103">
        <ele>435</ele>
        <time>2015-03-29T13:07:44+02:00</time>
      </trkpt>
      <trkpt lat="45.6093" lon="3.21033">
        <ele>435</ele>
        <time>2015-03-29T13:07:44+02:00</time>
      </trkpt>
      <trkpt lat="45.60929" lon="3.21036">
        <ele>435</ele>
        <time>2015-03-29T13:07:44+02:00</time>
      </trkpt>
      <trkpt lat="45.60928" lon="3.2104">
        <ele>435</ele>
        <time>2015-03-29T13:07:44+02:00</time>
      </trkpt>
      <trkpt lat="45.60929" lon="3.21044">
        <ele>436</ele>
        <time>2015-03-29T13:07:44+02:00</time>
      </trkpt>
      <trkpt lat="45.6093" lon="3.21048">
        <ele>436</ele>
        <time>2015-03-29T13:07:44+02:00</time>
      </trkpt>
      <trkpt lat="45.60931" lon="3.21052">
        <ele>436</ele>
        <time>2015-03-29T13:07:44+02:00</time>
      </trkpt>
      <trkpt lat="45.60933" lon="3.21056">
        <ele>436</ele>
        <time>2015-03-29T13:07:44+02:00</time>
      </trkpt>
      <trkpt lat="45.60934" lon="3.2106">
        <ele>436</ele>
        <time>2015-03-29T13:07:44+02:00</time>
      </trkpt>
      <trkpt lat="45.60936" lon="3.21064">
        <ele>436</ele>
        <time>2015-03-29T13:07:44+02:00</time>
      </trkpt>
      <trkpt lat="45.60938" lon="3.21068">
        <ele>436</ele>
        <time>2015-03-29T13:07:44+02:00</time>
      </trkpt>
      <trkpt lat="45.6094" lon="3.21071">
        <ele>436</ele>
        <time>2015-03-29T13:07:44+02:00</time>
      </trkpt>
      <trkpt lat="45.60942" lon="3.21075">
        <ele>436</ele>
        <time>2015-03-29T13:07:44+02:00</time>
      </trkpt>
      <trkpt lat="45.60944" lon="3.21078">
        <ele>436</ele>
        <time>2015-03-29T13:07:44+02:00</time>
      </trkpt>
      <trkpt lat="45.60946" lon="3.21081">
        <ele>436</ele>
        <time>2015-03-29T13:07:44+02:00</time>
      </trkpt>
      <trkpt lat="45.60948" lon="3.21085">
        <ele>436</ele>
        <time>2015-03-29T13:07:44+02:00</time>
      </trkpt>
      <trkpt lat="45.60949" lon="3.21088">
        <ele>436</ele>
        <time>2015-03-29T13:07:44+02:00</time>
      </trkpt>
      <trkpt lat="45.60951" lon="3.21091">
        <ele>436</ele>
        <time>2015-03-29T13:07:44+02:00</time>
      </trkpt>
      <trkpt lat="45.60953" lon="3.21095">
        <ele>436</ele>
        <time>2015-03-29T13:07:44+02:00</time>
      </trkpt>
      <trkpt lat="45.60954" lon="3.21098">
        <ele>436</ele>
        <time>2015-03-29T13:07:44+02:00</time>
      </trkpt>
      <trkpt lat="45.60956" lon="3.21102">
        <ele>436</ele>
        <time>2015-03-29T13:07:44+02:00</time>
      </trkpt>
      <trkpt lat="45.60987" lon="3.21255">
        <ele>439</ele>
        <time>2015-03-29T13:09:52+02:00</time>
      </trkpt>
      <trkpt lat="45.60987" lon="3.21259">
        <ele>440</ele>
        <time>2015-03-29T13:09:52+02:00</time>
      </trkpt>
      <trkpt lat="45.60988" lon="3.21262">
        <ele>440</ele>
        <time>2015-03-29T13:09:52+02:00</time>
      </trkpt>
      <trkpt lat="45.60988" lon="3.21266">
        <ele>439</ele>
        <time>2015-03-29T13:09:52+02:00</time>
      </trkpt>
      <trkpt lat="45.60989" lon="3.21269">
        <ele>440</ele>
        <time>2015-03-29T13:09:52+02:00</time>
      </trkpt>
      <trkpt lat="45.60991" lon="3.21346">
        <ele>443</ele>
        <time>2015-03-29T13:09:52+02:00</time>
      </trkpt>
      <trkpt lat="45.6099" lon="3.21349">
        <ele>443</ele>
        <time>2015-03-29T13:09:52+02:00</time>
      </trkpt>
      <trkpt lat="45.6099" lon="3.21354">
        <ele>444</ele>
        <time>2015-03-29T13:09:52+02:00</time>
      </trkpt>
      <trkpt lat="45.60984" lon="3.21426">
        <ele>446</ele>
        <time>2015-03-29T13:12:00+02:00</time>
      </trkpt>
      <trkpt lat="45.60982" lon="3.2144">
        <ele>446</ele>
        <time>2015-03-29T13:12:00+02:00</time>
      </trkpt>
      <trkpt lat="45.60982" lon="3.21443">
        <ele>446</ele>
        <time>2015-03-29T13:12:00+02:00</time>
      </trkpt>
      <trkpt lat="45.60982" lon="3.21459">
        <ele>445</ele>
        <time>2015-03-29T13:12:00+02:00</time>
      </trkpt>
      <trkpt lat="45.60981" lon="3.21462">
        <ele>445</ele>
        <time>2015-03-29T13:12:00+02:00</time>
      </trkpt>
      <trkpt lat="45.6098" lon="3.21465">
        <ele>445</ele>
        <time>2015-03-29T13:12:00+02:00</time>
      </trkpt>
      <trkpt lat="45.60979" lon="3.21469">
        <ele>444</ele>
        <time>2015-03-29T13:12:00+02:00</time>
      </trkpt>
      <trkpt lat="45.60978" lon="3.21474">
        <ele>444</ele>
        <time>2015-03-29T13:12:00+02:00</time>
      </trkpt>
      <trkpt lat="45.60976" lon="3.21477">
        <ele>443</ele>
        <time>2015-03-29T13:12:00+02:00</time>
      </trkpt>
      <trkpt lat="45.60975" lon="3.21482">
        <ele>443</ele>
        <time>2015-03-29T13:12:00+02:00</time>
      </trkpt>
      <trkpt lat="45.60973" lon="3.21486">
        <ele>443</ele>
        <time>2015-03-29T13:12:00+02:00</time>
      </trkpt>
      <trkpt lat="45.60971" lon="3.21489">
        <ele>444</ele>
        <time>2015-03-29T13:12:00+02:00</time>
      </trkpt>
      <trkpt lat="45.60969" lon="3.21492">
        <ele>445</ele>
        <time>2015-03-29T13:12:00+02:00</time>
      </trkpt>
      <trkpt lat="45.60967" lon="3.21495">
        <ele>445</ele>
        <time>2015-03-29T13:12:00+02:00</time>
      </trkpt>
      <trkpt lat="45.60966" lon="3.215">
        <ele>445</ele>
        <time>2015-03-29T13:12:00+02:00</time>
      </trkpt>
      <trkpt lat="45.60964" lon="3.21504">
        <ele>446</ele>
        <time>2015-03-29T13:12:00+02:00</time>
      </trkpt>
      <trkpt lat="45.60962" lon="3.21508">
        <ele>445</ele>
        <time>2015-03-29T13:12:00+02:00</time>
      </trkpt>
      <trkpt lat="45.6096" lon="3.21512">
        <ele>446</ele>
        <time>2015-03-29T13:12:00+02:00</time>
      </trkpt>
      <trkpt lat="45.60958" lon="3.21516">
        <ele>446</ele>
        <time>2015-03-29T13:12:00+02:00</time>
      </trkpt>
      <trkpt lat="45.60956" lon="3.2152">
        <ele>446</ele>
        <time>2015-03-29T13:12:00+02:00</time>
      </trkpt>
      <trkpt lat="45.60955" lon="3.21524">
        <ele>445</ele>
        <time>2015-03-29T13:12:00+02:00</time>
      </trkpt>
      <trkpt lat="45.60953" lon="3.21528">
        <ele>445</ele>
        <time>2015-03-29T13:12:00+02:00</time>
      </trkpt>
      <trkpt lat="45.60951" lon="3.21532">
        <ele>445</ele>
        <time>2015-03-29T13:12:00+02:00</time>
      </trkpt>
      <trkpt lat="45.60949" lon="3.21536">
        <ele>445</ele>
        <time>2015-03-29T13:12:00+02:00</time>
      </trkpt>
      <trkpt lat="45.60947" lon="3.2154">
        <ele>445</ele>
        <time>2015-03-29T13:12:00+02:00</time>
      </trkpt>
      <trkpt lat="45.60945" lon="3.21544">
        <ele>445</ele>
        <time>2015-03-29T13:12:00+02:00</time>
      </trkpt>
      <trkpt lat="45.60944" lon="3.21548">
        <ele>444</ele>
        <time>2015-03-29T13:12:00+02:00</time>
      </trkpt>
      <trkpt lat="45.60942" lon="3.21552">
        <ele>444</ele>
        <time>2015-03-29T13:12:00+02:00</time>
      </trkpt>
      <trkpt lat="45.6094" lon="3.21554">
        <ele>445</ele>
        <time>2015-03-29T13:12:00+02:00</time>
      </trkpt>
      <trkpt lat="45.60938" lon="3.21557">
        <ele>445</ele>
        <time>2015-03-29T13:12:00+02:00</time>
      </trkpt>
      <trkpt lat="45.60936" lon="3.2156">
        <ele>445</ele>
        <time>2015-03-29T13:12:00+02:00</time>
      </trkpt>
      <trkpt lat="45.60934" lon="3.21565">
        <ele>444</ele>
        <time>2015-03-29T13:12:00+02:00</time>
      </trkpt>
      <trkpt lat="45.60934" lon="3.21567">
        <ele>444</ele>
        <time>2015-03-29T13:12:00+02:00</time>
      </trkpt>
      <trkpt lat="45.60933" lon="3.21572">
        <ele>444</ele>
        <time>2015-03-29T13:12:00+02:00</time>
      </trkpt>
      <trkpt lat="45.60933" lon="3.21578">
        <ele>442</ele>
        <time>2015-03-29T13:12:00+02:00</time>
      </trkpt>
      <trkpt lat="45.60932" lon="3.21581">
        <ele>442</ele>
        <time>2015-03-29T13:12:00+02:00</time>
      </trkpt>
      <trkpt lat="45.60933" lon="3.21585">
        <ele>440</ele>
        <time>2015-03-29T13:12:00+02:00</time>
      </trkpt>
      <trkpt lat="45.60933" lon="3.21589">
        <ele>441</ele>
        <time>2015-03-29T13:12:00+02:00</time>
      </trkpt>
      <trkpt lat="45.60934" lon="3.21592">
        <ele>441</ele>
        <time>2015-03-29T13:12:00+02:00</time>
      </trkpt>
      <trkpt lat="45.60933" lon="3.21595">
        <ele>441</ele>
        <time>2015-03-29T13:12:00+02:00</time>
      </trkpt>
      <trkpt lat="45.60933" lon="3.216">
        <ele>440</ele>
        <time>2015-03-29T13:12:00+02:00</time>
      </trkpt>
      <trkpt lat="45.60933" lon="3.21604">
        <ele>441</ele>
        <time>2015-03-29T13:12:00+02:00</time>
      </trkpt>
      <trkpt lat="45.60933" lon="3.21607">
        <ele>441</ele>
        <time>2015-03-29T13:12:00+02:00</time>
      </trkpt>
      <trkpt lat="45.60931" lon="3.21614">
        <ele>449</ele>
        <time>2015-03-29T13:12:00+02:00</time>
      </trkpt>
      <trkpt lat="45.60931" lon="3.21617">
        <ele>450</ele>
        <time>2015-03-29T13:12:00+02:00</time>
      </trkpt>
      <trkpt lat="45.60931" lon="3.21621">
        <ele>451</ele>
        <time>2015-03-29T13:12:00+02:00</time>
      </trkpt>
      <trkpt lat="45.60932" lon="3.21626">
        <ele>451</ele>
        <time>2015-03-29T13:12:00+02:00</time>
      </trkpt>
      <trkpt lat="45.60932" lon="3.21629">
        <ele>451</ele>
        <time>2015-03-29T13:12:00+02:00</time>
      </trkpt>
      <trkpt lat="45.60931" lon="3.21632">
        <ele>451</ele>
        <time>2015-03-29T13:12:00+02:00</time>
      </trkpt>
      <trkpt lat="45.60931" lon="3.21635">
        <ele>451</ele>
        <time>2015-03-29T13:12:00+02:00</time>
      </trkpt>
      <trkpt lat="45.6093" lon="3.2164">
        <ele>450</ele>
        <time>2015-03-29T13:12:00+02:00</time>
      </trkpt>
      <trkpt lat="45.6093" lon="3.21643">
        <ele>450</ele>
        <time>2015-03-29T13:12:00+02:00</time>
      </trkpt>
      <trkpt lat="45.60931" lon="3.21648">
        <ele>448</ele>
        <time>2015-03-29T13:12:00+02:00</time>
      </trkpt>
      <trkpt lat="45.60931" lon="3.21652">
        <ele>447</ele>
        <time>2015-03-29T13:12:00+02:00</time>
      </trkpt>
      <trkpt lat="45.60929" lon="3.21653">
        <ele>450</ele>
        <time>2015-03-29T13:14:08+02:00</time>
      </trkpt>
      <trkpt lat="45.60929" lon="3.21658">
        <ele>450</ele>
        <time>2015-03-29T13:16:16+02:00</time>
      </trkpt>
      <trkpt lat="45.60929" lon="3.21664">
        <ele>452</ele>
        <time>2015-03-29T13:16:16+02:00</time>
      </trkpt>
      <trkpt lat="45.60929" lon="3.21666">
        <ele>451</ele>
        <time>2015-03-29T13:16:16+02:00</time>
      </trkpt>
      <trkpt lat="45.6093" lon="3.21669">
        <ele>450</ele>
        <time>2015-03-29T13:16:16+02:00</time>
      </trkpt>
      <trkpt lat="45.6093" lon="3.21673">
        <ele>451</ele>
        <time>2015-03-29T13:16:16+02:00</time>
      </trkpt>
      <trkpt lat="45.60929" lon="3.21678">
        <ele>452</ele>
        <time>2015-03-29T13:16:16+02:00</time>
      </trkpt>
      <trkpt lat="45.60928" lon="3.21682">
        <ele>453</ele>
        <time>2015-03-29T13:16:16+02:00</time>
      </trkpt>
      <trkpt lat="45.60928" lon="3.21686">
        <ele>453</ele>
        <time>2015-03-29T13:16:16+02:00</time>
      </trkpt>
      <trkpt lat="45.60929" lon="3.2169">
        <ele>452</ele>
        <time>2015-03-29T13:16:16+02:00</time>
      </trkpt>
      <trkpt lat="45.60929" lon="3.21694">
        <ele>451</ele>
        <time>2015-03-29T13:16:16+02:00</time>
      </trkpt>
      <trkpt lat="45.60928" lon="3.21698">
        <ele>451</ele>
        <time>2015-03-29T13:16:16+02:00</time>
      </trkpt>
      <trkpt lat="45.60927" lon="3.21711">
        <ele>451</ele>
        <time>2015-03-29T13:16:16+02:00</time>
      </trkpt>
      <trkpt lat="45.60927" lon="3.21714">
        <ele>451</ele>
        <time>2015-03-29T13:16:16+02:00</time>
      </trkpt>
      <trkpt lat="45.60924" lon="3.21728">
        <ele>451</ele>
        <time>2015-03-29T13:16:16+02:00</time>
      </trkpt>
      <trkpt lat="45.60924" lon="3.21736">
        <ele>450</ele>
        <time>2015-03-29T13:16:16+02:00</time>
      </trkpt>
      <trkpt lat="45.60921" lon="3.21748">
        <ele>452</ele>
        <time>2015-03-29T13:16:16+02:00</time>
      </trkpt>
      <trkpt lat="45.6092" lon="3.21752">
        <ele>453</ele>
        <time>2015-03-29T13:16:16+02:00</time>
      </trkpt>
      <trkpt lat="45.60919" lon="3.21756">
        <ele>454</ele>
        <time>2015-03-29T13:16:16+02:00</time>
      </trkpt>
      <trkpt lat="45.60919" lon="3.21759">
        <ele>454</ele>
        <time>2015-03-29T13:16:16+02:00</time>
      </trkpt>
      <trkpt lat="45.60918" lon="3.21762">
        <ele>454</ele>
        <time>2015-03-29T13:16:16+02:00</time>
      </trkpt>
      <trkpt lat="45.60917" lon="3.21766">
        <ele>454</ele>
        <time>2015-03-29T13:16:16+02:00</time>
      </trkpt>
      <trkpt lat="45.60916" lon="3.2177">
        <ele>455</ele>
        <time>2015-03-29T13:16:16+02:00</time>
      </trkpt>
      <trkpt lat="45.60916" lon="3.21773">
        <ele>455</ele>
        <time>2015-03-29T13:16:16+02:00</time>
      </trkpt>
      <trkpt lat="45.60915" lon="3.21776">
        <ele>455</ele>
        <time>2015-03-29T13:16:16+02:00</time>
      </trkpt>
      <trkpt lat="45.60914" lon="3.2178">
        <ele>455</ele>
        <time>2015-03-29T13:16:16+02:00</time>
      </trkpt>
      <trkpt lat="45.60912" lon="3.21785">
        <ele>456</ele>
        <time>2015-03-29T13:16:16+02:00</time>
      </trkpt>
      <trkpt lat="45.60912" lon="3.21789">
        <ele>457</ele>
        <time>2015-03-29T13:16:16+02:00</time>
      </trkpt>
      <trkpt lat="45.60911" lon="3.21793">
        <ele>457</ele>
        <time>2015-03-29T13:16:16+02:00</time>
      </trkpt>
      <trkpt lat="45.6091" lon="3.21795">
        <ele>458</ele>
        <time>2015-03-29T13:16:16+02:00</time>
      </trkpt>
      <trkpt lat="45.6091" lon="3.218">
        <ele>457</ele>
        <time>2015-03-29T13:16:16+02:00</time>
      </trkpt>
      <trkpt lat="45.60909" lon="3.21802">
        <ele>457</ele>
        <time>2015-03-29T13:16:16+02:00</time>
      </trkpt>
      <trkpt lat="45.60908" lon="3.21806">
        <ele>458</ele>
        <time>2015-03-29T13:16:16+02:00</time>
      </trkpt>
      <trkpt lat="45.60907" lon="3.2181">
        <ele>458</ele>
        <time>2015-03-29T13:16:16+02:00</time>
      </trkpt>
      <trkpt lat="45.60907" lon="3.21813">
        <ele>458</ele>
        <time>2015-03-29T13:16:16+02:00</time>
      </trkpt>
      <trkpt lat="45.60906" lon="3.21816">
        <ele>458</ele>
        <time>2015-03-29T13:16:16+02:00</time>
      </trkpt>
      <trkpt lat="45.60905" lon="3.2182">
        <ele>459</ele>
        <time>2015-03-29T13:16:16+02:00</time>
      </trkpt>
      <trkpt lat="45.60904" lon="3.21823">
        <ele>454</ele>
        <time>2015-03-29T13:16:16+02:00</time>
      </trkpt>
      <trkpt lat="45.60904" lon="3.21827">
        <ele>454</ele>
        <time>2015-03-29T13:16:16+02:00</time>
      </trkpt>
      <trkpt lat="45.60903" lon="3.21831">
        <ele>453</ele>
        <time>2015-03-29T13:16:16+02:00</time>
      </trkpt>
      <trkpt lat="45.60902" lon="3.21834">
        <ele>452</ele>
        <time>2015-03-29T13:16:16+02:00</time>
      </trkpt>
      <trkpt lat="45.60901" lon="3.21839">
        <ele>453</ele>
        <time>2015-03-29T13:16:16+02:00</time>
      </trkpt>
      <trkpt lat="45.609" lon="3.21842">
        <ele>454</ele>
        <time>2015-03-29T13:16:16+02:00</time>
      </trkpt>
      <trkpt lat="45.60899" lon="3.21845">
        <ele>453</ele>
        <time>2015-03-29T13:16:16+02:00</time>
      </trkpt>
      <trkpt lat="45.60898" lon="3.21847">
        <ele>453</ele>
        <time>2015-03-29T13:16:16+02:00</time>
      </trkpt>
      <trkpt lat="45.60897" lon="3.21852">
        <ele>452</ele>
        <time>2015-03-29T13:16:16+02:00</time>
      </trkpt>
      <trkpt lat="45.60897" lon="3.21856">
        <ele>452</ele>
        <time>2015-03-29T13:16:16+02:00</time>
      </trkpt>
      <trkpt lat="45.60896" lon="3.2186">
        <ele>453</ele>
        <time>2015-03-29T13:16:16+02:00</time>
      </trkpt>
      <trkpt lat="45.60895" lon="3.21864">
        <ele>454</ele>
        <time>2015-03-29T13:16:16+02:00</time>
      </trkpt>
      <trkpt lat="45.60894" lon="3.21867">
        <ele>454</ele>
        <time>2015-03-29T13:16:16+02:00</time>
      </trkpt>
      <trkpt lat="45.60894" lon="3.21871">
        <ele>454</ele>
        <time>2015-03-29T13:16:16+02:00</time>
      </trkpt>
      <trkpt lat="45.60892" lon="3.21876">
        <ele>454</ele>
        <time>2015-03-29T13:16:16+02:00</time>
      </trkpt>
      <trkpt lat="45.60892" lon="3.21878">
        <ele>454</ele>
        <time>2015-03-29T13:16:16+02:00</time>
      </trkpt>
      <trkpt lat="45.60891" lon="3.21881">
        <ele>455</ele>
        <time>2015-03-29T13:16:16+02:00</time>
      </trkpt>
      <trkpt lat="45.6089" lon="3.21885">
        <ele>455</ele>
        <time>2015-03-29T13:16:16+02:00</time>
      </trkpt>
      <trkpt lat="45.60889" lon="3.21889">
        <ele>455</ele>
        <time>2015-03-29T13:16:16+02:00</time>
      </trkpt>
      <trkpt lat="45.60889" lon="3.21892">
        <ele>454</ele>
        <time>2015-03-29T13:16:16+02:00</time>
      </trkpt>
      <trkpt lat="45.60888" lon="3.21896">
        <ele>454</ele>
        <time>2015-03-29T13:16:16+02:00</time>
      </trkpt>
      <trkpt lat="45.60887" lon="3.21899">
        <ele>454</ele>
        <time>2015-03-29T13:16:16+02:00</time>
      </trkpt>
      <trkpt lat="45.60886" lon="3.21902">
        <ele>457</ele>
        <time>2015-03-29T13:16:16+02:00</time>
      </trkpt>
      <trkpt lat="45.60884" lon="3.21908">
        <ele>458</ele>
        <time>2015-03-29T13:16:16+02:00</time>
      </trkpt>
      <trkpt lat="45.60883" lon="3.21912">
        <ele>457</ele>
        <time>2015-03-29T13:16:16+02:00</time>
      </trkpt>
      <trkpt lat="45.60882" lon="3.21916">
        <ele>458</ele>
        <time>2015-03-29T13:16:16+02:00</time>
      </trkpt>
      <trkpt lat="45.60881" lon="3.2192">
        <ele>457</ele>
        <time>2015-03-29T13:16:16+02:00</time>
      </trkpt>
      <trkpt lat="45.60879" lon="3.21923">
        <ele>456</ele>
        <time>2015-03-29T13:18:24+02:00</time>
      </trkpt>
      <trkpt lat="45.60877" lon="3.21927">
        <ele>456</ele>
        <time>2015-03-29T13:18:24+02:00</time>
      </trkpt>
      <trkpt lat="45.60875" lon="3.2193">
        <ele>456</ele>
        <time>2015-03-29T13:18:24+02:00</time>
      </trkpt>
      <trkpt lat="45.60873" lon="3.21932">
        <ele>456</ele>
        <time>2015-03-29T13:18:24+02:00</time>
      </trkpt>
      <trkpt lat="45.60871" lon="3.21934">
        <ele>457</ele>
        <time>2015-03-29T13:18:24+02:00</time>
      </trkpt>
      <trkpt lat="45.60868" lon="3.21935">
        <ele>458</ele>
        <time>2015-03-29T13:18:24+02:00</time>
      </trkpt>
      <trkpt lat="45.60865" lon="3.21937">
        <ele>458</ele>
        <time>2015-03-29T13:18:24+02:00</time>
      </trkpt>
      <trkpt lat="45.60862" lon="3.21938">
        <ele>459</ele>
        <time>2015-03-29T13:18:24+02:00</time>
      </trkpt>
      <trkpt lat="45.6086" lon="3.21939">
        <ele>459</ele>
        <time>2015-03-29T13:18:24+02:00</time>
      </trkpt>
      <trkpt lat="45.60858" lon="3.21939">
        <ele>459</ele>
        <time>2015-03-29T13:18:24+02:00</time>
      </trkpt>
      <trkpt lat="45.60855" lon="3.2194">
        <ele>459</ele>
        <time>2015-03-29T13:18:24+02:00</time>
      </trkpt>
      <trkpt lat="45.60852" lon="3.21943">
        <ele>460</ele>
        <time>2015-03-29T13:18:24+02:00</time>
      </trkpt>
      <trkpt lat="45.6085" lon="3.21943">
        <ele>459</ele>
        <time>2015-03-29T13:18:24+02:00</time>
      </trkpt>
      <trkpt lat="45.60847" lon="3.21945">
        <ele>459</ele>
        <time>2015-03-29T13:18:24+02:00</time>
      </trkpt>
      <trkpt lat="45.60844" lon="3.21946">
        <ele>460</ele>
        <time>2015-03-29T13:18:24+02:00</time>
      </trkpt>
      <trkpt lat="45.60841" lon="3.21946">
        <ele>461</ele>
        <time>2015-03-29T13:18:24+02:00</time>
      </trkpt>
      <trkpt lat="45.60838" lon="3.21946">
        <ele>462</ele>
        <time>2015-03-29T13:18:24+02:00</time>
      </trkpt>
      <trkpt lat="45.60835" lon="3.21947">
        <ele>462</ele>
        <time>2015-03-29T13:18:24+02:00</time>
      </trkpt>
      <trkpt lat="45.60832" lon="3.21946">
        <ele>463</ele>
        <time>2015-03-29T13:18:24+02:00</time>
      </trkpt>
      <trkpt lat="45.60828" lon="3.21947">
        <ele>464</ele>
        <time>2015-03-29T13:18:24+02:00</time>
      </trkpt>
      <trkpt lat="45.60825" lon="3.21947">
        <ele>465</ele>
        <time>2015-03-29T13:18:24+02:00</time>
      </trkpt>
      <trkpt lat="45.60822" lon="3.21947">
        <ele>465</ele>
        <time>2015-03-29T13:18:24+02:00</time>
      </trkpt>
      <trkpt lat="45.60819" lon="3.21946">
        <ele>465</ele>
        <time>2015-03-29T13:18:24+02:00</time>
      </trkpt>
      <trkpt lat="45.60816" lon="3.21946">
        <ele>466</ele>
        <time>2015-03-29T13:18:24+02:00</time>
      </trkpt>
      <trkpt lat="45.60814" lon="3.21945">
        <ele>466</ele>
        <time>2015-03-29T13:18:24+02:00</time>
      </trkpt>
      <trkpt lat="45.60811" lon="3.21945">
        <ele>466</ele>
        <time>2015-03-29T13:18:24+02:00</time>
      </trkpt>
      <trkpt lat="45.60808" lon="3.21945">
        <ele>467</ele>
        <time>2015-03-29T13:18:24+02:00</time>
      </trkpt>
      <trkpt lat="45.60804" lon="3.21945">
        <ele>467</ele>
        <time>2015-03-29T13:18:24+02:00</time>
      </trkpt>
      <trkpt lat="45.60801" lon="3.21944">
        <ele>467</ele>
        <time>2015-03-29T13:18:24+02:00</time>
      </trkpt>
      <trkpt lat="45.60798" lon="3.21944">
        <ele>467</ele>
        <time>2015-03-29T13:18:24+02:00</time>
      </trkpt>
      <trkpt lat="45.60794" lon="3.21944">
        <ele>467</ele>
        <time>2015-03-29T13:18:24+02:00</time>
      </trkpt>
      <trkpt lat="45.60791" lon="3.21944">
        <ele>467</ele>
        <time>2015-03-29T13:18:24+02:00</time>
      </trkpt>
      <trkpt lat="45.60788" lon="3.21943">
        <ele>467</ele>
        <time>2015-03-29T13:18:24+02:00</time>
      </trkpt>
      <trkpt lat="45.60784" lon="3.21943">
        <ele>467</ele>
        <time>2015-03-29T13:18:24+02:00</time>
      </trkpt>
      <trkpt lat="45.60783" lon="3.21943">
        <ele>467</ele>
        <time>2015-03-29T13:18:24+02:00</time>
      </trkpt>
      <trkpt lat="45.60781" lon="3.21943">
        <ele>467</ele>
        <time>2015-03-29T13:18:24+02:00</time>
      </trkpt>
      <trkpt lat="45.60778" lon="3.21942">
        <ele>467</ele>
        <time>2015-03-29T13:18:24+02:00</time>
      </trkpt>
      <trkpt lat="45.60776" lon="3.21941">
        <ele>467</ele>
        <time>2015-03-29T13:18:24+02:00</time>
      </trkpt>
      <trkpt lat="45.60774" lon="3.2194">
        <ele>466</ele>
        <time>2015-03-29T13:18:24+02:00</time>
      </trkpt>
      <trkpt lat="45.60771" lon="3.2194">
        <ele>466</ele>
        <time>2015-03-29T13:18:24+02:00</time>
      </trkpt>
      <trkpt lat="45.60767" lon="3.21939">
        <ele>466</ele>
        <time>2015-03-29T13:18:24+02:00</time>
      </trkpt>
      <trkpt lat="45.60764" lon="3.21937">
        <ele>466</ele>
        <time>2015-03-29T13:18:24+02:00</time>
      </trkpt>
      <trkpt lat="45.60761" lon="3.21936">
        <ele>466</ele>
        <time>2015-03-29T13:18:24+02:00</time>
      </trkpt>
      <trkpt lat="45.60759" lon="3.21935">
        <ele>466</ele>
        <time>2015-03-29T13:18:24+02:00</time>
      </trkpt>
      <trkpt lat="45.60757" lon="3.21934">
        <ele>467</ele>
        <time>2015-03-29T13:18:24+02:00</time>
      </trkpt>
      <trkpt lat="45.60755" lon="3.21933">
        <ele>466</ele>
        <time>2015-03-29T13:18:24+02:00</time>
      </trkpt>
      <trkpt lat="45.60753" lon="3.21932">
        <ele>467</ele>
        <time>2015-03-29T13:18:24+02:00</time>
      </trkpt>
      <trkpt lat="45.60751" lon="3.2193">
        <ele>467</ele>
        <time>2015-03-29T13:18:24+02:00</time>
      </trkpt>
      <trkpt lat="45.60748" lon="3.21929">
        <ele>467</ele>
        <time>2015-03-29T13:18:24+02:00</time>
      </trkpt>
      <trkpt lat="45.60745" lon="3.21928">
        <ele>467</ele>
        <time>2015-03-29T13:18:24+02:00</time>
      </trkpt>
      <trkpt lat="45.60744" lon="3.21927">
        <ele>467</ele>
        <time>2015-03-29T13:18:24+02:00</time>
      </trkpt>
      <trkpt lat="45.60742" lon="3.21926">
        <ele>467</ele>
        <time>2015-03-29T13:18:24+02:00</time>
      </trkpt>
      <trkpt lat="45.60739" lon="3.21924">
        <ele>467</ele>
        <time>2015-03-29T13:18:24+02:00</time>
      </trkpt>
      <trkpt lat="45.60736" lon="3.21923">
        <ele>467</ele>
        <time>2015-03-29T13:18:24+02:00</time>
      </trkpt>
      <trkpt lat="45.60733" lon="3.21921">
        <ele>467</ele>
        <time>2015-03-29T13:18:24+02:00</time>
      </trkpt>
      <trkpt lat="45.6073" lon="3.21919">
        <ele>466</ele>
        <time>2015-03-29T13:18:24+02:00</time>
      </trkpt>
      <trkpt lat="45.60728" lon="3.21917">
        <ele>466</ele>
        <time>2015-03-29T13:18:24+02:00</time>
      </trkpt>
      <trkpt lat="45.60725" lon="3.21916">
        <ele>466</ele>
        <time>2015-03-29T13:18:24+02:00</time>
      </trkpt>
      <trkpt lat="45.60722" lon="3.21913">
        <ele>466</ele>
        <time>2015-03-29T13:18:24+02:00</time>
      </trkpt>
      <trkpt lat="45.60719" lon="3.2191">
        <ele>466</ele>
        <time>2015-03-29T13:18:24+02:00</time>
      </trkpt>
      <trkpt lat="45.60716" lon="3.21908">
        <ele>466</ele>
        <time>2015-03-29T13:18:24+02:00</time>
      </trkpt>
      <trkpt lat="45.60713" lon="3.21905">
        <ele>466</ele>
        <time>2015-03-29T13:18:24+02:00</time>
      </trkpt>
      <trkpt lat="45.60711" lon="3.21903">
        <ele>466</ele>
        <time>2015-03-29T13:18:24+02:00</time>
      </trkpt>
      <trkpt lat="45.60708" lon="3.219">
        <ele>466</ele>
        <time>2015-03-29T13:18:24+02:00</time>
      </trkpt>
      <trkpt lat="45.60705" lon="3.21897">
        <ele>466</ele>
        <time>2015-03-29T13:18:24+02:00</time>
      </trkpt>
      <trkpt lat="45.60703" lon="3.21894">
        <ele>466</ele>
        <time>2015-03-29T13:18:24+02:00</time>
      </trkpt>
      <trkpt lat="45.60699" lon="3.21891">
        <ele>465</ele>
        <time>2015-03-29T13:18:24+02:00</time>
      </trkpt>
      <trkpt lat="45.60697" lon="3.21888">
        <ele>465</ele>
        <time>2015-03-29T13:18:24+02:00</time>
      </trkpt>
      <trkpt lat="45.60695" lon="3.21886">
        <ele>464</ele>
        <time>2015-03-29T13:18:24+02:00</time>
      </trkpt>
      <trkpt lat="45.60693" lon="3.21884">
        <ele>464</ele>
        <time>2015-03-29T13:18:24+02:00</time>
      </trkpt>
      <trkpt lat="45.60691" lon="3.2188">
        <ele>465</ele>
        <time>2015-03-29T13:18:24+02:00</time>
      </trkpt>
      <trkpt lat="45.60688" lon="3.21876">
        <ele>465</ele>
        <time>2015-03-29T13:18:24+02:00</time>
      </trkpt>
      <trkpt lat="45.60685" lon="3.21874">
        <ele>465</ele>
        <time>2015-03-29T13:18:24+02:00</time>
      </trkpt>
      <trkpt lat="45.60682" lon="3.2187">
        <ele>466</ele>
        <time>2015-03-29T13:18:24+02:00</time>
      </trkpt>
      <trkpt lat="45.6068" lon="3.21867">
        <ele>465</ele>
        <time>2015-03-29T13:18:24+02:00</time>
      </trkpt>
      <trkpt lat="45.60677" lon="3.21864">
        <ele>466</ele>
        <time>2015-03-29T13:18:24+02:00</time>
      </trkpt>
      <trkpt lat="45.60674" lon="3.2186">
        <ele>466</ele>
        <time>2015-03-29T13:18:24+02:00</time>
      </trkpt>
      <trkpt lat="45.60671" lon="3.21857">
        <ele>465</ele>
        <time>2015-03-29T13:18:24+02:00</time>
      </trkpt>
      <trkpt lat="45.60668" lon="3.21853">
        <ele>465</ele>
        <time>2015-03-29T13:18:24+02:00</time>
      </trkpt>
      <trkpt lat="45.60666" lon="3.21851">
        <ele>466</ele>
        <time>2015-03-29T13:18:24+02:00</time>
      </trkpt>
      <trkpt lat="45.60664" lon="3.21847">
        <ele>466</ele>
        <time>2015-03-29T13:18:24+02:00</time>
      </trkpt>
      <trkpt lat="45.60661" lon="3.21843">
        <ele>466</ele>
        <time>2015-03-29T13:18:24+02:00</time>
      </trkpt>
      <trkpt lat="45.60659" lon="3.2184">
        <ele>467</ele>
        <time>2015-03-29T13:18:24+02:00</time>
      </trkpt>
      <trkpt lat="45.60657" lon="3.21837">
        <ele>467</ele>
        <time>2015-03-29T13:18:24+02:00</time>
      </trkpt>
      <trkpt lat="45.60655" lon="3.21834">
        <ele>467</ele>
        <time>2015-03-29T13:18:24+02:00</time>
      </trkpt>
      <trkpt lat="45.60652" lon="3.2183">
        <ele>467</ele>
        <time>2015-03-29T13:18:24+02:00</time>
      </trkpt>
      <trkpt lat="45.6065" lon="3.21826">
        <ele>467</ele>
        <time>2015-03-29T13:18:24+02:00</time>
      </trkpt>
      <trkpt lat="45.60648" lon="3.21823">
        <ele>467</ele>
        <time>2015-03-29T13:20:32+02:00</time>
      </trkpt>
      <trkpt lat="45.60646" lon="3.21818">
        <ele>468</ele>
        <time>2015-03-29T13:20:32+02:00</time>
      </trkpt>
      <trkpt lat="45.60642" lon="3.21811">
        <ele>468</ele>
        <time>2015-03-29T13:20:32+02:00</time>
      </trkpt>
      <trkpt lat="45.60639" lon="3.21807">
        <ele>468</ele>
        <time>2015-03-29T13:20:32+02:00</time>
      </trkpt>
      <trkpt lat="45.6063" lon="3.21794">
        <ele>468</ele>
        <time>2015-03-29T13:20:32+02:00</time>
      </trkpt>
      <trkpt lat="45.60628" lon="3.21791">
        <ele>468</ele>
        <time>2015-03-29T13:20:32+02:00</time>
      </trkpt>
      <trkpt lat="45.60627" lon="3.21788">
        <ele>469</ele>
        <time>2015-03-29T13:20:32+02:00</time>
      </trkpt>
      <trkpt lat="45.60625" lon="3.21786">
        <ele>468</ele>
        <time>2015-03-29T13:20:32+02:00</time>
      </trkpt>
      <trkpt lat="45.60624" lon="3.21783">
        <ele>469</ele>
        <time>2015-03-29T13:20:32+02:00</time>
      </trkpt>
      <trkpt lat="45.60622" lon="3.2178">
        <ele>469</ele>
        <time>2015-03-29T13:20:32+02:00</time>
      </trkpt>
      <trkpt lat="45.6062" lon="3.21777">
        <ele>469</ele>
        <time>2015-03-29T13:20:32+02:00</time>
      </trkpt>
      <trkpt lat="45.60614" lon="3.21771">
        <ele>469</ele>
        <time>2015-03-29T13:20:32+02:00</time>
      </trkpt>
      <trkpt lat="45.60612" lon="3.21767">
        <ele>469</ele>
        <time>2015-03-29T13:20:32+02:00</time>
      </trkpt>
      <trkpt lat="45.6061" lon="3.21764">
        <ele>469</ele>
        <time>2015-03-29T13:20:32+02:00</time>
      </trkpt>
      <trkpt lat="45.60591" lon="3.21735">
        <ele>470</ele>
        <time>2015-03-29T13:20:32+02:00</time>
      </trkpt>
      <trkpt lat="45.60589" lon="3.21731">
        <ele>470</ele>
        <time>2015-03-29T13:20:32+02:00</time>
      </trkpt>
      <trkpt lat="45.60587" lon="3.21727">
        <ele>471</ele>
        <time>2015-03-29T13:20:32+02:00</time>
      </trkpt>
      <trkpt lat="45.60584" lon="3.21723">
        <ele>470</ele>
        <time>2015-03-29T13:20:32+02:00</time>
      </trkpt>
      <trkpt lat="45.60582" lon="3.21719">
        <ele>470</ele>
        <time>2015-03-29T13:20:32+02:00</time>
      </trkpt>
      <trkpt lat="45.60579" lon="3.21716">
        <ele>470</ele>
        <time>2015-03-29T13:20:32+02:00</time>
      </trkpt>
      <trkpt lat="45.60577" lon="3.21712">
        <ele>471</ele>
        <time>2015-03-29T13:20:32+02:00</time>
      </trkpt>
      <trkpt lat="45.60574" lon="3.21708">
        <ele>471</ele>
        <time>2015-03-29T13:20:32+02:00</time>
      </trkpt>
      <trkpt lat="45.60569" lon="3.217">
        <ele>471</ele>
        <time>2015-03-29T13:20:32+02:00</time>
      </trkpt>
      <trkpt lat="45.60532" lon="3.21651">
        <ele>472</ele>
        <time>2015-03-29T13:20:32+02:00</time>
      </trkpt>
      <trkpt lat="45.6053" lon="3.21649">
        <ele>472</ele>
        <time>2015-03-29T13:20:32+02:00</time>
      </trkpt>
      <trkpt lat="45.60527" lon="3.21646">
        <ele>472</ele>
        <time>2015-03-29T13:20:32+02:00</time>
      </trkpt>
      <trkpt lat="45.60524" lon="3.21643">
        <ele>472</ele>
        <time>2015-03-29T13:20:32+02:00</time>
      </trkpt>
      <trkpt lat="45.60521" lon="3.21641">
        <ele>472</ele>
        <time>2015-03-29T13:20:32+02:00</time>
      </trkpt>
      <trkpt lat="45.60518" lon="3.21638">
        <ele>472</ele>
        <time>2015-03-29T13:20:32+02:00</time>
      </trkpt>
      <trkpt lat="45.60514" lon="3.21635">
        <ele>472</ele>
        <time>2015-03-29T13:20:32+02:00</time>
      </trkpt>
      <trkpt lat="45.60512" lon="3.21633">
        <ele>472</ele>
        <time>2015-03-29T13:20:32+02:00</time>
      </trkpt>
      <trkpt lat="45.60509" lon="3.21631">
        <ele>472</ele>
        <time>2015-03-29T13:20:32+02:00</time>
      </trkpt>
      <trkpt lat="45.60506" lon="3.21628">
        <ele>472</ele>
        <time>2015-03-29T13:20:32+02:00</time>
      </trkpt>
      <trkpt lat="45.60503" lon="3.21626">
        <ele>472</ele>
        <time>2015-03-29T13:20:32+02:00</time>
      </trkpt>
      <trkpt lat="45.605" lon="3.21623">
        <ele>473</ele>
        <time>2015-03-29T13:20:32+02:00</time>
      </trkpt>
      <trkpt lat="45.60497" lon="3.21621">
        <ele>473</ele>
        <time>2015-03-29T13:20:32+02:00</time>
      </trkpt>
      <trkpt lat="45.60494" lon="3.21618">
        <ele>473</ele>
        <time>2015-03-29T13:20:32+02:00</time>
      </trkpt>
      <trkpt lat="45.60491" lon="3.21615">
        <ele>473</ele>
        <time>2015-03-29T13:20:32+02:00</time>
      </trkpt>
      <trkpt lat="45.60488" lon="3.21613">
        <ele>473</ele>
        <time>2015-03-29T13:20:32+02:00</time>
      </trkpt>
      <trkpt lat="45.60485" lon="3.2161">
        <ele>473</ele>
        <time>2015-03-29T13:20:32+02:00</time>
      </trkpt>
      <trkpt lat="45.60483" lon="3.21607">
        <ele>473</ele>
        <time>2015-03-29T13:20:32+02:00</time>
      </trkpt>
      <trkpt lat="45.6048" lon="3.21604">
        <ele>473</ele>
        <time>2015-03-29T13:20:32+02:00</time>
      </trkpt>
      <trkpt lat="45.60477" lon="3.21602">
        <ele>473</ele>
        <time>2015-03-29T13:20:32+02:00</time>
      </trkpt>
      <trkpt lat="45.60474" lon="3.21599">
        <ele>473</ele>
        <time>2015-03-29T13:20:32+02:00</time>
      </trkpt>
      <trkpt lat="45.60471" lon="3.21596">
        <ele>473</ele>
        <time>2015-03-29T13:20:32+02:00</time>
      </trkpt>
      <trkpt lat="45.60468" lon="3.21593">
        <ele>473</ele>
        <time>2015-03-29T13:20:32+02:00</time>
      </trkpt>
      <trkpt lat="45.60466" lon="3.21591">
        <ele>473</ele>
        <time>2015-03-29T13:20:32+02:00</time>
      </trkpt>
      <trkpt lat="45.60463" lon="3.21588">
        <ele>474</ele>
        <time>2015-03-29T13:20:32+02:00</time>
      </trkpt>
      <trkpt lat="45.6046" lon="3.21585">
        <ele>474</ele>
        <time>2015-03-29T13:20:32+02:00</time>
      </trkpt>
      <trkpt lat="45.60457" lon="3.21582">
        <ele>474</ele>
        <time>2015-03-29T13:20:32+02:00</time>
      </trkpt>
      <trkpt lat="45.60454" lon="3.21579">
        <ele>474</ele>
        <time>2015-03-29T13:20:32+02:00</time>
      </trkpt>
      <trkpt lat="45.60452" lon="3.21576">
        <ele>475</ele>
        <time>2015-03-29T13:20:32+02:00</time>
      </trkpt>
      <trkpt lat="45.60449" lon="3.21573">
        <ele>475</ele>
        <time>2015-03-29T13:20:32+02:00</time>
      </trkpt>
      <trkpt lat="45.60446" lon="3.21569">
        <ele>475</ele>
        <time>2015-03-29T13:20:32+02:00</time>
      </trkpt>
      <trkpt lat="45.60443" lon="3.21565">
        <ele>475</ele>
        <time>2015-03-29T13:20:32+02:00</time>
      </trkpt>
      <trkpt lat="45.6044" lon="3.21562">
        <ele>475</ele>
        <time>2015-03-29T13:20:32+02:00</time>
      </trkpt>
      <trkpt lat="45.60437" lon="3.21558">
        <ele>475</ele>
        <time>2015-03-29T13:20:32+02:00</time>
      </trkpt>
      <trkpt lat="45.60434" lon="3.21554">
        <ele>475</ele>
        <time>2015-03-29T13:20:32+02:00</time>
      </trkpt>
      <trkpt lat="45.60431" lon="3.2155">
        <ele>476</ele>
        <time>2015-03-29T13:20:32+02:00</time>
      </trkpt>
      <trkpt lat="45.60428" lon="3.21547">
        <ele>476</ele>
        <time>2015-03-29T13:20:32+02:00</time>
      </trkpt>
      <trkpt lat="45.60425" lon="3.21543">
        <ele>477</ele>
        <time>2015-03-29T13:20:32+02:00</time>
      </trkpt>
      <trkpt lat="45.60422" lon="3.2154">
        <ele>477</ele>
        <time>2015-03-29T13:20:32+02:00</time>
      </trkpt>
      <trkpt lat="45.6042" lon="3.21536">
        <ele>476</ele>
        <time>2015-03-29T13:20:32+02:00</time>
      </trkpt>
      <trkpt lat="45.60416" lon="3.21533">
        <ele>477</ele>
        <time>2015-03-29T13:20:32+02:00</time>
      </trkpt>
      <trkpt lat="45.60413" lon="3.21529">
        <ele>477</ele>
        <time>2015-03-29T13:20:32+02:00</time>
      </trkpt>
      <trkpt lat="45.6041" lon="3.21526">
        <ele>477</ele>
        <time>2015-03-29T13:20:32+02:00</time>
      </trkpt>
      <trkpt lat="45.60406" lon="3.21523">
        <ele>477</ele>
        <time>2015-03-29T13:20:32+02:00</time>
      </trkpt>
      <trkpt lat="45.60397" lon="3.21519">
        <ele>478</ele>
        <time>2015-03-29T13:20:32+02:00</time>
      </trkpt>
      <trkpt lat="45.60394" lon="3.21518">
        <ele>479</ele>
        <time>2015-03-29T13:20:32+02:00</time>
      </trkpt>
      <trkpt lat="45.60391" lon="3.21515">
        <ele>479</ele>
        <time>2015-03-29T13:20:32+02:00</time>
      </trkpt>
      <trkpt lat="45.60387" lon="3.21514">
        <ele>480</ele>
        <time>2015-03-29T13:20:32+02:00</time>
      </trkpt>
      <trkpt lat="45.60384" lon="3.21513">
        <ele>480</ele>
        <time>2015-03-29T13:20:32+02:00</time>
      </trkpt>
      <trkpt lat="45.6038" lon="3.21511">
        <ele>481</ele>
        <time>2015-03-29T13:20:32+02:00</time>
      </trkpt>
      <trkpt lat="45.60376" lon="3.2151">
        <ele>481</ele>
        <time>2015-03-29T13:20:32+02:00</time>
      </trkpt>
      <trkpt lat="45.60373" lon="3.2151">
        <ele>482</ele>
        <time>2015-03-29T13:20:32+02:00</time>
      </trkpt>
      <trkpt lat="45.60371" lon="3.21509">
        <ele>482</ele>
        <time>2015-03-29T13:20:32+02:00</time>
      </trkpt>
      <trkpt lat="45.60368" lon="3.21508">
        <ele>483</ele>
        <time>2015-03-29T13:20:32+02:00</time>
      </trkpt>
      <trkpt lat="45.60365" lon="3.21508">
        <ele>483</ele>
        <time>2015-03-29T13:20:32+02:00</time>
      </trkpt>
      <trkpt lat="45.60362" lon="3.21508">
        <ele>484</ele>
        <time>2015-03-29T13:20:32+02:00</time>
      </trkpt>
      <trkpt lat="45.60359" lon="3.21507">
        <ele>484</ele>
        <time>2015-03-29T13:20:32+02:00</time>
      </trkpt>
      <trkpt lat="45.60356" lon="3.21507">
        <ele>485</ele>
        <time>2015-03-29T13:20:32+02:00</time>
      </trkpt>
      <trkpt lat="45.60353" lon="3.21506">
        <ele>485</ele>
        <time>2015-03-29T13:20:32+02:00</time>
      </trkpt>
      <trkpt lat="45.6035" lon="3.21506">
        <ele>486</ele>
        <time>2015-03-29T13:20:32+02:00</time>
      </trkpt>
      <trkpt lat="45.60347" lon="3.21505">
        <ele>486</ele>
        <time>2015-03-29T13:20:32+02:00</time>
      </trkpt>
      <trkpt lat="45.60344" lon="3.21505">
        <ele>486</ele>
        <time>2015-03-29T13:20:32+02:00</time>
      </trkpt>
      <trkpt lat="45.6034" lon="3.21505">
        <ele>487</ele>
        <time>2015-03-29T13:20:32+02:00</time>
      </trkpt>
      <trkpt lat="45.60338" lon="3.21504">
        <ele>487</ele>
        <time>2015-03-29T13:20:32+02:00</time>
      </trkpt>
      <trkpt lat="45.60336" lon="3.21505">
        <ele>487</ele>
        <time>2015-03-29T13:20:32+02:00</time>
      </trkpt>
      <trkpt lat="45.60333" lon="3.21505">
        <ele>488</ele>
        <time>2015-03-29T13:20:32+02:00</time>
      </trkpt>
      <trkpt lat="45.60331" lon="3.21504">
        <ele>488</ele>
        <time>2015-03-29T13:20:32+02:00</time>
      </trkpt>
      <trkpt lat="45.60329" lon="3.21504">
        <ele>489</ele>
        <time>2015-03-29T13:20:32+02:00</time>
      </trkpt>
      <trkpt lat="45.60327" lon="3.21504">
        <ele>489</ele>
        <time>2015-03-29T13:20:32+02:00</time>
      </trkpt>
      <trkpt lat="45.60325" lon="3.21505">
        <ele>489</ele>
        <time>2015-03-29T13:20:32+02:00</time>
      </trkpt>
      <trkpt lat="45.60323" lon="3.21506">
        <ele>489</ele>
        <time>2015-03-29T13:20:32+02:00</time>
      </trkpt>
      <trkpt lat="45.60321" lon="3.21507">
        <ele>490</ele>
        <time>2015-03-29T13:20:32+02:00</time>
      </trkpt>
      <trkpt lat="45.60319" lon="3.21506">
        <ele>490</ele>
        <time>2015-03-29T13:20:32+02:00</time>
      </trkpt>
      <trkpt lat="45.60316" lon="3.21508">
        <ele>492</ele>
        <time>2015-03-29T13:20:32+02:00</time>
      </trkpt>
      <trkpt lat="45.60314" lon="3.21509">
        <ele>492</ele>
        <time>2015-03-29T13:20:32+02:00</time>
      </trkpt>
      <trkpt lat="45.60311" lon="3.2151">
        <ele>493</ele>
        <time>2015-03-29T13:20:32+02:00</time>
      </trkpt>
      <trkpt lat="45.60309" lon="3.21511">
        <ele>494</ele>
        <time>2015-03-29T13:22:40+02:00</time>
      </trkpt>
      <trkpt lat="45.60306" lon="3.2151">
        <ele>494</ele>
        <time>2015-03-29T13:22:40+02:00</time>
      </trkpt>
      <trkpt lat="45.60304" lon="3.21511">
        <ele>496</ele>
        <time>2015-03-29T13:22:40+02:00</time>
      </trkpt>
      <trkpt lat="45.60302" lon="3.21512">
        <ele>496</ele>
        <time>2015-03-29T13:22:40+02:00</time>
      </trkpt>
      <trkpt lat="45.60299" lon="3.21512">
        <ele>497</ele>
        <time>2015-03-29T13:22:40+02:00</time>
      </trkpt>
      <trkpt lat="45.60297" lon="3.21512">
        <ele>497</ele>
        <time>2015-03-29T13:22:40+02:00</time>
      </trkpt>
      <trkpt lat="45.60294" lon="3.21511">
        <ele>498</ele>
        <time>2015-03-29T13:22:40+02:00</time>
      </trkpt>
      <trkpt lat="45.60292" lon="3.21509">
        <ele>498</ele>
        <time>2015-03-29T13:22:40+02:00</time>
      </trkpt>
      <trkpt lat="45.60289" lon="3.21507">
        <ele>498</ele>
        <time>2015-03-29T13:22:40+02:00</time>
      </trkpt>
      <trkpt lat="45.60287" lon="3.21504">
        <ele>498</ele>
        <time>2015-03-29T13:22:40+02:00</time>
      </trkpt>
      <trkpt lat="45.60285" lon="3.215">
        <ele>498</ele>
        <time>2015-03-29T13:22:40+02:00</time>
      </trkpt>
      <trkpt lat="45.60284" lon="3.21496">
        <ele>498</ele>
        <time>2015-03-29T13:22:40+02:00</time>
      </trkpt>
      <trkpt lat="45.60283" lon="3.21491">
        <ele>498</ele>
        <time>2015-03-29T13:22:40+02:00</time>
      </trkpt>
      <trkpt lat="45.60282" lon="3.21485">
        <ele>498</ele>
        <time>2015-03-29T13:22:40+02:00</time>
      </trkpt>
      <trkpt lat="45.60282" lon="3.2148">
        <ele>498</ele>
        <time>2015-03-29T13:22:40+02:00</time>
      </trkpt>
      <trkpt lat="45.60283" lon="3.21475">
        <ele>498</ele>
        <time>2015-03-29T13:22:40+02:00</time>
      </trkpt>
      <trkpt lat="45.60284" lon="3.21471">
        <ele>498</ele>
        <time>2015-03-29T13:22:40+02:00</time>
      </trkpt>
      <trkpt lat="45.60286" lon="3.21467">
        <ele>498</ele>
        <time>2015-03-29T13:22:40+02:00</time>
      </trkpt>
      <trkpt lat="45.60288" lon="3.21463">
        <ele>499</ele>
        <time>2015-03-29T13:22:40+02:00</time>
      </trkpt>
      <trkpt lat="45.6029" lon="3.21459">
        <ele>499</ele>
        <time>2015-03-29T13:22:40+02:00</time>
      </trkpt>
      <trkpt lat="45.60292" lon="3.21454">
        <ele>499</ele>
        <time>2015-03-29T13:22:40+02:00</time>
      </trkpt>
      <trkpt lat="45.60294" lon="3.21449">
        <ele>499</ele>
        <time>2015-03-29T13:22:40+02:00</time>
      </trkpt>
      <trkpt lat="45.60295" lon="3.21444">
        <ele>499</ele>
        <time>2015-03-29T13:22:40+02:00</time>
      </trkpt>
      <trkpt lat="45.60297" lon="3.21439">
        <ele>499</ele>
        <time>2015-03-29T13:22:40+02:00</time>
      </trkpt>
      <trkpt lat="45.60298" lon="3.21434">
        <ele>499</ele>
        <time>2015-03-29T13:22:40+02:00</time>
      </trkpt>
      <trkpt lat="45.60299" lon="3.21429">
        <ele>499</ele>
        <time>2015-03-29T13:22:40+02:00</time>
      </trkpt>
      <trkpt lat="45.60296" lon="3.21424">
        <ele>500</ele>
        <time>2015-03-29T13:22:40+02:00</time>
      </trkpt>
      <trkpt lat="45.60295" lon="3.2142">
        <ele>500</ele>
        <time>2015-03-29T13:22:40+02:00</time>
      </trkpt>
      <trkpt lat="45.60294" lon="3.21415">
        <ele>500</ele>
        <time>2015-03-29T13:22:40+02:00</time>
      </trkpt>
      <trkpt lat="45.60294" lon="3.21412">
        <ele>500</ele>
        <time>2015-03-29T13:22:40+02:00</time>
      </trkpt>
      <trkpt lat="45.60293" lon="3.21409">
        <ele>500</ele>
        <time>2015-03-29T13:22:40+02:00</time>
      </trkpt>
      <trkpt lat="45.60293" lon="3.21405">
        <ele>500</ele>
        <time>2015-03-29T13:22:40+02:00</time>
      </trkpt>
      <trkpt lat="45.60293" lon="3.21401">
        <ele>500</ele>
        <time>2015-03-29T13:22:40+02:00</time>
      </trkpt>
      <trkpt lat="45.60293" lon="3.21397">
        <ele>500</ele>
        <time>2015-03-29T13:22:40+02:00</time>
      </trkpt>
      <trkpt lat="45.60293" lon="3.21394">
        <ele>501</ele>
        <time>2015-03-29T13:22:40+02:00</time>
      </trkpt>
      <trkpt lat="45.60292" lon="3.21389">
        <ele>501</ele>
        <time>2015-03-29T13:22:40+02:00</time>
      </trkpt>
      <trkpt lat="45.60291" lon="3.21384">
        <ele>502</ele>
        <time>2015-03-29T13:22:40+02:00</time>
      </trkpt>
      <trkpt lat="45.6029" lon="3.21379">
        <ele>502</ele>
        <time>2015-03-29T13:22:40+02:00</time>
      </trkpt>
      <trkpt lat="45.60289" lon="3.21374">
        <ele>503</ele>
        <time>2015-03-29T13:22:40+02:00</time>
      </trkpt>
      <trkpt lat="45.60288" lon="3.2137">
        <ele>503</ele>
        <time>2015-03-29T13:22:40+02:00</time>
      </trkpt>
      <trkpt lat="45.60285" lon="3.21367">
        <ele>504</ele>
        <time>2015-03-29T13:22:40+02:00</time>
      </trkpt>
      <trkpt lat="45.60283" lon="3.21366">
        <ele>505</ele>
        <time>2015-03-29T13:22:40+02:00</time>
      </trkpt>
      <trkpt lat="45.60281" lon="3.21365">
        <ele>506</ele>
        <time>2015-03-29T13:22:40+02:00</time>
      </trkpt>
      <trkpt lat="45.60278" lon="3.21364">
        <ele>506</ele>
        <time>2015-03-29T13:22:40+02:00</time>
      </trkpt>
      <trkpt lat="45.60276" lon="3.21364">
        <ele>506</ele>
        <time>2015-03-29T13:22:40+02:00</time>
      </trkpt>
      <trkpt lat="45.60273" lon="3.21363">
        <ele>507</ele>
        <time>2015-03-29T13:22:40+02:00</time>
      </trkpt>
      <trkpt lat="45.6027" lon="3.21363">
        <ele>508</ele>
        <time>2015-03-29T13:22:40+02:00</time>
      </trkpt>
      <trkpt lat="45.60266" lon="3.21363">
        <ele>508</ele>
        <time>2015-03-29T13:22:40+02:00</time>
      </trkpt>
      <trkpt lat="45.60263" lon="3.21363">
        <ele>508</ele>
        <time>2015-03-29T13:22:40+02:00</time>
      </trkpt>
      <trkpt lat="45.6026" lon="3.21362">
        <ele>509</ele>
        <time>2015-03-29T13:22:40+02:00</time>
      </trkpt>
      <trkpt lat="45.60257" lon="3.2136">
        <ele>509</ele>
        <time>2015-03-29T13:22:40+02:00</time>
      </trkpt>
      <trkpt lat="45.60255" lon="3.21358">
        <ele>510</ele>
        <time>2015-03-29T13:22:40+02:00</time>
      </trkpt>
      <trkpt lat="45.60253" lon="3.21357">
        <ele>510</ele>
        <time>2015-03-29T13:22:40+02:00</time>
      </trkpt>
      <trkpt lat="45.60251" lon="3.21355">
        <ele>511</ele>
        <time>2015-03-29T13:22:40+02:00</time>
      </trkpt>
      <trkpt lat="45.6025" lon="3.21353">
        <ele>512</ele>
        <time>2015-03-29T13:22:40+02:00</time>
      </trkpt>
      <trkpt lat="45.60248" lon="3.2135">
        <ele>512</ele>
        <time>2015-03-29T13:22:40+02:00</time>
      </trkpt>
      <trkpt lat="45.60246" lon="3.21348">
        <ele>513</ele>
        <time>2015-03-29T13:22:40+02:00</time>
      </trkpt>
      <trkpt lat="45.60245" lon="3.21345">
        <ele>513</ele>
        <time>2015-03-29T13:22:40+02:00</time>
      </trkpt>
      <trkpt lat="45.60243" lon="3.21343">
        <ele>514</ele>
        <time>2015-03-29T13:22:40+02:00</time>
      </trkpt>
      <trkpt lat="45.60241" lon="3.2134">
        <ele>514</ele>
        <time>2015-03-29T13:22:40+02:00</time>
      </trkpt>
      <trkpt lat="45.60239" lon="3.21338">
        <ele>515</ele>
        <time>2015-03-29T13:22:40+02:00</time>
      </trkpt>
      <trkpt lat="45.60237" lon="3.21335">
        <ele>516</ele>
        <time>2015-03-29T13:22:40+02:00</time>
      </trkpt>
      <trkpt lat="45.60234" lon="3.21332">
        <ele>517</ele>
        <time>2015-03-29T13:22:40+02:00</time>
      </trkpt>
      <trkpt lat="45.60232" lon="3.21329">
        <ele>517</ele>
        <time>2015-03-29T13:22:40+02:00</time>
      </trkpt>
      <trkpt lat="45.6023" lon="3.21328">
        <ele>518</ele>
        <time>2015-03-29T13:22:40+02:00</time>
      </trkpt>
      <trkpt lat="45.60227" lon="3.21326">
        <ele>519</ele>
        <time>2015-03-29T13:22:40+02:00</time>
      </trkpt>
      <trkpt lat="45.60225" lon="3.21325">
        <ele>519</ele>
        <time>2015-03-29T13:22:40+02:00</time>
      </trkpt>
      <trkpt lat="45.60222" lon="3.21324">
        <ele>519</ele>
        <time>2015-03-29T13:22:40+02:00</time>
      </trkpt>
      <trkpt lat="45.6022" lon="3.21324">
        <ele>520</ele>
        <time>2015-03-29T13:22:40+02:00</time>
      </trkpt>
      <trkpt lat="45.60217" lon="3.21323">
        <ele>520</ele>
        <time>2015-03-29T13:22:40+02:00</time>
      </trkpt>
      <trkpt lat="45.60214" lon="3.21323">
        <ele>521</ele>
        <time>2015-03-29T13:22:40+02:00</time>
      </trkpt>
      <trkpt lat="45.60211" lon="3.21322">
        <ele>521</ele>
        <time>2015-03-29T13:22:40+02:00</time>
      </trkpt>
      <trkpt lat="45.60208" lon="3.21322">
        <ele>522</ele>
        <time>2015-03-29T13:22:40+02:00</time>
      </trkpt>
      <trkpt lat="45.60205" lon="3.21322">
        <ele>522</ele>
        <time>2015-03-29T13:22:40+02:00</time>
      </trkpt>
      <trkpt lat="45.60201" lon="3.21321">
        <ele>522</ele>
        <time>2015-03-29T13:22:40+02:00</time>
      </trkpt>
      <trkpt lat="45.60197" lon="3.2132">
        <ele>523</ele>
        <time>2015-03-29T13:22:40+02:00</time>
      </trkpt>
      <trkpt lat="45.60194" lon="3.2132">
        <ele>523</ele>
        <time>2015-03-29T13:22:40+02:00</time>
      </trkpt>
      <trkpt lat="45.6019" lon="3.2132">
        <ele>523</ele>
        <time>2015-03-29T13:22:40+02:00</time>
      </trkpt>
      <trkpt lat="45.60186" lon="3.2132">
        <ele>524</ele>
        <time>2015-03-29T13:22:40+02:00</time>
      </trkpt>
      <trkpt lat="45.60182" lon="3.2132">
        <ele>524</ele>
        <time>2015-03-29T13:22:40+02:00</time>
      </trkpt>
      <trkpt lat="45.60178" lon="3.2132">
        <ele>525</ele>
        <time>2015-03-29T13:22:40+02:00</time>
      </trkpt>
      <trkpt lat="45.60174" lon="3.2132">
        <ele>525</ele>
        <time>2015-03-29T13:22:40+02:00</time>
      </trkpt>
      <trkpt lat="45.6017" lon="3.2132">
        <ele>525</ele>
        <time>2015-03-29T13:22:40+02:00</time>
      </trkpt>
      <trkpt lat="45.60166" lon="3.21321">
        <ele>526</ele>
        <time>2015-03-29T13:22:40+02:00</time>
      </trkpt>
      <trkpt lat="45.60162" lon="3.21322">
        <ele>526</ele>
        <time>2015-03-29T13:22:40+02:00</time>
      </trkpt>
      <trkpt lat="45.60158" lon="3.21323">
        <ele>527</ele>
        <time>2015-03-29T13:22:40+02:00</time>
      </trkpt>
      <trkpt lat="45.60154" lon="3.21325">
        <ele>527</ele>
        <time>2015-03-29T13:22:40+02:00</time>
      </trkpt>
      <trkpt lat="45.6015" lon="3.21326">
        <ele>527</ele>
        <time>2015-03-29T13:22:40+02:00</time>
      </trkpt>
      <trkpt lat="45.60146" lon="3.21327">
        <ele>528</ele>
        <time>2015-03-29T13:22:40+02:00</time>
      </trkpt>
      <trkpt lat="45.60142" lon="3.21329">
        <ele>528</ele>
        <time>2015-03-29T13:22:40+02:00</time>
      </trkpt>
      <trkpt lat="45.60138" lon="3.21331">
        <ele>528</ele>
        <time>2015-03-29T13:22:40+02:00</time>
      </trkpt>
      <trkpt lat="45.60133" lon="3.21332">
        <ele>529</ele>
        <time>2015-03-29T13:22:40+02:00</time>
      </trkpt>
      <trkpt lat="45.60129" lon="3.21334">
        <ele>530</ele>
        <time>2015-03-29T13:22:40+02:00</time>
      </trkpt>
      <trkpt lat="45.60125" lon="3.21335">
        <ele>530</ele>
        <time>2015-03-29T13:22:40+02:00</time>
      </trkpt>
      <trkpt lat="45.6012" lon="3.21335">
        <ele>530</ele>
        <time>2015-03-29T13:22:40+02:00</time>
      </trkpt>
      <trkpt lat="45.60116" lon="3.21336">
        <ele>530</ele>
        <time>2015-03-29T13:22:40+02:00</time>
      </trkpt>
      <trkpt lat="45.60111" lon="3.21337">
        <ele>531</ele>
        <time>2015-03-29T13:22:40+02:00</time>
      </trkpt>
      <trkpt lat="45.60107" lon="3.21337">
        <ele>531</ele>
        <time>2015-03-29T13:22:40+02:00</time>
      </trkpt>
      <trkpt lat="45.60102" lon="3.21337">
        <ele>531</ele>
        <time>2015-03-29T13:22:40+02:00</time>
      </trkpt>
      <trkpt lat="45.60098" lon="3.21337">
        <ele>531</ele>
        <time>2015-03-29T13:22:40+02:00</time>
      </trkpt>
      <trkpt lat="45.60094" lon="3.21337">
        <ele>531</ele>
        <time>2015-03-29T13:22:40+02:00</time>
      </trkpt>
      <trkpt lat="45.6009" lon="3.21337">
        <ele>531</ele>
        <time>2015-03-29T13:22:40+02:00</time>
      </trkpt>
      <trkpt lat="45.60086" lon="3.21336">
        <ele>531</ele>
        <time>2015-03-29T13:22:40+02:00</time>
      </trkpt>
      <trkpt lat="45.60082" lon="3.21335">
        <ele>531</ele>
        <time>2015-03-29T13:22:40+02:00</time>
      </trkpt>
      <trkpt lat="45.60078" lon="3.21335">
        <ele>531</ele>
        <time>2015-03-29T13:22:40+02:00</time>
      </trkpt>
      <trkpt lat="45.60074" lon="3.21335">
        <ele>531</ele>
        <time>2015-03-29T13:22:40+02:00</time>
      </trkpt>
      <trkpt lat="45.60071" lon="3.21335">
        <ele>531</ele>
        <time>2015-03-29T13:22:40+02:00</time>
      </trkpt>
      <trkpt lat="45.60068" lon="3.21335">
        <ele>532</ele>
        <time>2015-03-29T13:22:40+02:00</time>
      </trkpt>
      <trkpt lat="45.60064" lon="3.21335">
        <ele>532</ele>
        <time>2015-03-29T13:22:40+02:00</time>
      </trkpt>
      <trkpt lat="45.60061" lon="3.21335">
        <ele>532</ele>
        <time>2015-03-29T13:22:40+02:00</time>
      </trkpt>
      <trkpt lat="45.60057" lon="3.21336">
        <ele>532</ele>
        <time>2015-03-29T13:22:40+02:00</time>
      </trkpt>
      <trkpt lat="45.60054" lon="3.21336">
        <ele>532</ele>
        <time>2015-03-29T13:22:40+02:00</time>
      </trkpt>
      <trkpt lat="45.60051" lon="3.21337">
        <ele>532</ele>
        <time>2015-03-29T13:22:40+02:00</time>
      </trkpt>
      <trkpt lat="45.60048" lon="3.21338">
        <ele>532</ele>
        <time>2015-03-29T13:22:40+02:00</time>
      </trkpt>
      <trkpt lat="45.60046" lon="3.21338">
        <ele>532</ele>
        <time>2015-03-29T13:22:40+02:00</time>
      </trkpt>
      <trkpt lat="45.60044" lon="3.21339">
        <ele>532</ele>
        <time>2015-03-29T13:22:40+02:00</time>
      </trkpt>
      <trkpt lat="45.6004" lon="3.2134">
        <ele>532</ele>
        <time>2015-03-29T13:22:40+02:00</time>
      </trkpt>
      <trkpt lat="45.60036" lon="3.2134">
        <ele>532</ele>
        <time>2015-03-29T13:22:40+02:00</time>
      </trkpt>
      <trkpt lat="45.60033" lon="3.21341">
        <ele>532</ele>
        <time>2015-03-29T13:22:40+02:00</time>
      </trkpt>
      <trkpt lat="45.6003" lon="3.21342">
        <ele>532</ele>
        <time>2015-03-29T13:22:40+02:00</time>
      </trkpt>
      <trkpt lat="45.60027" lon="3.21342">
        <ele>532</ele>
        <time>2015-03-29T13:22:40+02:00</time>
      </trkpt>
      <trkpt lat="45.60024" lon="3.21343">
        <ele>533</ele>
        <time>2015-03-29T13:22:40+02:00</time>
      </trkpt>
      <trkpt lat="45.60021" lon="3.21344">
        <ele>533</ele>
        <time>2015-03-29T13:22:40+02:00</time>
      </trkpt>
      <trkpt lat="45.60018" lon="3.21344">
        <ele>533</ele>
        <time>2015-03-29T13:22:40+02:00</time>
      </trkpt>
      <trkpt lat="45.60015" lon="3.21345">
        <ele>533</ele>
        <time>2015-03-29T13:22:40+02:00</time>
      </trkpt>
      <trkpt lat="45.60012" lon="3.21346">
        <ele>533</ele>
        <time>2015-03-29T13:22:40+02:00</time>
      </trkpt>
      <trkpt lat="45.60009" lon="3.21347">
        <ele>532</ele>
        <time>2015-03-29T13:22:40+02:00</time>
      </trkpt>
      <trkpt lat="45.60005" lon="3.21348">
        <ele>532</ele>
        <time>2015-03-29T13:24:48+02:00</time>
      </trkpt>
      <trkpt lat="45.60002" lon="3.21349">
        <ele>532</ele>
        <time>2015-03-29T13:24:48+02:00</time>
      </trkpt>
      <trkpt lat="45.59998" lon="3.21349">
        <ele>531</ele>
        <time>2015-03-29T13:24:48+02:00</time>
      </trkpt>
      <trkpt lat="45.59995" lon="3.2135">
        <ele>531</ele>
        <time>2015-03-29T13:24:48+02:00</time>
      </trkpt>
      <trkpt lat="45.59992" lon="3.2135">
        <ele>531</ele>
        <time>2015-03-29T13:24:48+02:00</time>
      </trkpt>
      <trkpt lat="45.59988" lon="3.21351">
        <ele>531</ele>
        <time>2015-03-29T13:24:48+02:00</time>
      </trkpt>
      <trkpt lat="45.59985" lon="3.21351">
        <ele>531</ele>
        <time>2015-03-29T13:24:48+02:00</time>
      </trkpt>
      <trkpt lat="45.59982" lon="3.21351">
        <ele>530</ele>
        <time>2015-03-29T13:24:48+02:00</time>
      </trkpt>
      <trkpt lat="45.59979" lon="3.2135">
        <ele>530</ele>
        <time>2015-03-29T13:24:48+02:00</time>
      </trkpt>
      <trkpt lat="45.59976" lon="3.2135">
        <ele>530</ele>
        <time>2015-03-29T13:24:48+02:00</time>
      </trkpt>
      <trkpt lat="45.59972" lon="3.21349">
        <ele>530</ele>
        <time>2015-03-29T13:24:48+02:00</time>
      </trkpt>
      <trkpt lat="45.5997" lon="3.21349">
        <ele>530</ele>
        <time>2015-03-29T13:24:48+02:00</time>
      </trkpt>
      <trkpt lat="45.59967" lon="3.21348">
        <ele>530</ele>
        <time>2015-03-29T13:24:48+02:00</time>
      </trkpt>
      <trkpt lat="45.59964" lon="3.21348">
        <ele>530</ele>
        <time>2015-03-29T13:24:48+02:00</time>
      </trkpt>
      <trkpt lat="45.59961" lon="3.21347">
        <ele>529</ele>
        <time>2015-03-29T13:24:48+02:00</time>
      </trkpt>
      <trkpt lat="45.59957" lon="3.21347">
        <ele>529</ele>
        <time>2015-03-29T13:24:48+02:00</time>
      </trkpt>
      <trkpt lat="45.59954" lon="3.21346">
        <ele>529</ele>
        <time>2015-03-29T13:24:48+02:00</time>
      </trkpt>
      <trkpt lat="45.59951" lon="3.21345">
        <ele>529</ele>
        <time>2015-03-29T13:24:48+02:00</time>
      </trkpt>
      <trkpt lat="45.59948" lon="3.21345">
        <ele>529</ele>
        <time>2015-03-29T13:24:48+02:00</time>
      </trkpt>
      <trkpt lat="45.59945" lon="3.21344">
        <ele>528</ele>
        <time>2015-03-29T13:24:48+02:00</time>
      </trkpt>
      <trkpt lat="45.59942" lon="3.21344">
        <ele>528</ele>
        <time>2015-03-29T13:24:48+02:00</time>
      </trkpt>
      <trkpt lat="45.59939" lon="3.21343">
        <ele>528</ele>
        <time>2015-03-29T13:24:48+02:00</time>
      </trkpt>
      <trkpt lat="45.59937" lon="3.21343">
        <ele>528</ele>
        <time>2015-03-29T13:24:48+02:00</time>
      </trkpt>
      <trkpt lat="45.59934" lon="3.21342">
        <ele>528</ele>
        <time>2015-03-29T13:24:48+02:00</time>
      </trkpt>
      <trkpt lat="45.59931" lon="3.21342">
        <ele>528</ele>
        <time>2015-03-29T13:24:48+02:00</time>
      </trkpt>
      <trkpt lat="45.59928" lon="3.21341">
        <ele>528</ele>
        <time>2015-03-29T13:24:48+02:00</time>
      </trkpt>
      <trkpt lat="45.59925" lon="3.21341">
        <ele>529</ele>
        <time>2015-03-29T13:24:48+02:00</time>
      </trkpt>
      <trkpt lat="45.59922" lon="3.21341">
        <ele>528</ele>
        <time>2015-03-29T13:24:48+02:00</time>
      </trkpt>
      <trkpt lat="45.59918" lon="3.21341">
        <ele>528</ele>
        <time>2015-03-29T13:24:48+02:00</time>
      </trkpt>
      <trkpt lat="45.59915" lon="3.21341">
        <ele>528</ele>
        <time>2015-03-29T13:24:48+02:00</time>
      </trkpt>
      <trkpt lat="45.59911" lon="3.2134">
        <ele>528</ele>
        <time>2015-03-29T13:24:48+02:00</time>
      </trkpt>
      <trkpt lat="45.59907" lon="3.21339">
        <ele>528</ele>
        <time>2015-03-29T13:24:48+02:00</time>
      </trkpt>
      <trkpt lat="45.59903" lon="3.21339">
        <ele>528</ele>
        <time>2015-03-29T13:24:48+02:00</time>
      </trkpt>
      <trkpt lat="45.599" lon="3.21339">
        <ele>528</ele>
        <time>2015-03-29T13:24:48+02:00</time>
      </trkpt>
      <trkpt lat="45.59897" lon="3.21338">
        <ele>528</ele>
        <time>2015-03-29T13:24:48+02:00</time>
      </trkpt>
      <trkpt lat="45.59893" lon="3.21337">
        <ele>528</ele>
        <time>2015-03-29T13:24:48+02:00</time>
      </trkpt>
      <trkpt lat="45.5989" lon="3.21336">
        <ele>529</ele>
        <time>2015-03-29T13:24:48+02:00</time>
      </trkpt>
      <trkpt lat="45.59887" lon="3.21335">
        <ele>529</ele>
        <time>2015-03-29T13:24:48+02:00</time>
      </trkpt>
      <trkpt lat="45.59884" lon="3.21334">
        <ele>529</ele>
        <time>2015-03-29T13:24:48+02:00</time>
      </trkpt>
      <trkpt lat="45.59881" lon="3.21334">
        <ele>529</ele>
        <time>2015-03-29T13:24:48+02:00</time>
      </trkpt>
      <trkpt lat="45.59877" lon="3.21334">
        <ele>529</ele>
        <time>2015-03-29T13:24:48+02:00</time>
      </trkpt>
      <trkpt lat="45.59873" lon="3.21334">
        <ele>529</ele>
        <time>2015-03-29T13:24:48+02:00</time>
      </trkpt>
      <trkpt lat="45.5987" lon="3.21334">
        <ele>529</ele>
        <time>2015-03-29T13:24:48+02:00</time>
      </trkpt>
      <trkpt lat="45.59866" lon="3.21334">
        <ele>528</ele>
        <time>2015-03-29T13:24:48+02:00</time>
      </trkpt>
      <trkpt lat="45.59863" lon="3.21334">
        <ele>528</ele>
        <time>2015-03-29T13:24:48+02:00</time>
      </trkpt>
      <trkpt lat="45.59859" lon="3.21334">
        <ele>528</ele>
        <time>2015-03-29T13:24:48+02:00</time>
      </trkpt>
      <trkpt lat="45.59856" lon="3.21333">
        <ele>528</ele>
        <time>2015-03-29T13:24:48+02:00</time>
      </trkpt>
      <trkpt lat="45.59853" lon="3.21332">
        <ele>528</ele>
        <time>2015-03-29T13:24:48+02:00</time>
      </trkpt>
      <trkpt lat="45.59851" lon="3.21331">
        <ele>528</ele>
        <time>2015-03-29T13:24:48+02:00</time>
      </trkpt>
      <trkpt lat="45.59848" lon="3.21331">
        <ele>528</ele>
        <time>2015-03-29T13:24:48+02:00</time>
      </trkpt>
      <trkpt lat="45.59846" lon="3.2133">
        <ele>528</ele>
        <time>2015-03-29T13:24:48+02:00</time>
      </trkpt>
      <trkpt lat="45.59843" lon="3.21328">
        <ele>528</ele>
        <time>2015-03-29T13:24:48+02:00</time>
      </trkpt>
      <trkpt lat="45.5984" lon="3.21326">
        <ele>528</ele>
        <time>2015-03-29T13:24:48+02:00</time>
      </trkpt>
      <trkpt lat="45.59837" lon="3.21324">
        <ele>528</ele>
        <time>2015-03-29T13:24:48+02:00</time>
      </trkpt>
      <trkpt lat="45.59835" lon="3.21322">
        <ele>528</ele>
        <time>2015-03-29T13:24:48+02:00</time>
      </trkpt>
      <trkpt lat="45.59832" lon="3.2132">
        <ele>528</ele>
        <time>2015-03-29T13:24:48+02:00</time>
      </trkpt>
      <trkpt lat="45.59829" lon="3.21318">
        <ele>528</ele>
        <time>2015-03-29T13:24:48+02:00</time>
      </trkpt>
      <trkpt lat="45.59827" lon="3.21316">
        <ele>528</ele>
        <time>2015-03-29T13:24:48+02:00</time>
      </trkpt>
      <trkpt lat="45.59825" lon="3.21315">
        <ele>527</ele>
        <time>2015-03-29T13:24:48+02:00</time>
      </trkpt>
      <trkpt lat="45.59822" lon="3.21313">
        <ele>527</ele>
        <time>2015-03-29T13:24:48+02:00</time>
      </trkpt>
      <trkpt lat="45.5982" lon="3.21311">
        <ele>527</ele>
        <time>2015-03-29T13:24:48+02:00</time>
      </trkpt>
      <trkpt lat="45.59818" lon="3.21309">
        <ele>527</ele>
        <time>2015-03-29T13:24:48+02:00</time>
      </trkpt>
      <trkpt lat="45.59815" lon="3.21307">
        <ele>526</ele>
        <time>2015-03-29T13:24:48+02:00</time>
      </trkpt>
      <trkpt lat="45.59813" lon="3.21306">
        <ele>526</ele>
        <time>2015-03-29T13:24:48+02:00</time>
      </trkpt>
      <trkpt lat="45.59811" lon="3.21305">
        <ele>526</ele>
        <time>2015-03-29T13:24:48+02:00</time>
      </trkpt>
      <trkpt lat="45.59808" lon="3.21303">
        <ele>526</ele>
        <time>2015-03-29T13:24:48+02:00</time>
      </trkpt>
      <trkpt lat="45.59806" lon="3.21302">
        <ele>526</ele>
        <time>2015-03-29T13:24:48+02:00</time>
      </trkpt>
      <trkpt lat="45.59804" lon="3.213">
        <ele>526</ele>
        <time>2015-03-29T13:24:48+02:00</time>
      </trkpt>
      <trkpt lat="45.59801" lon="3.21298">
        <ele>525</ele>
        <time>2015-03-29T13:24:48+02:00</time>
      </trkpt>
      <trkpt lat="45.59798" lon="3.21297">
        <ele>525</ele>
        <time>2015-03-29T13:24:48+02:00</time>
      </trkpt>
      <trkpt lat="45.59795" lon="3.21296">
        <ele>525</ele>
        <time>2015-03-29T13:24:48+02:00</time>
      </trkpt>
      <trkpt lat="45.59792" lon="3.21296">
        <ele>525</ele>
        <time>2015-03-29T13:24:48+02:00</time>
      </trkpt>
      <trkpt lat="45.59788" lon="3.21295">
        <ele>524</ele>
        <time>2015-03-29T13:24:48+02:00</time>
      </trkpt>
      <trkpt lat="45.59785" lon="3.21294">
        <ele>524</ele>
        <time>2015-03-29T13:24:48+02:00</time>
      </trkpt>
      <trkpt lat="45.59782" lon="3.21293">
        <ele>524</ele>
        <time>2015-03-29T13:24:48+02:00</time>
      </trkpt>
      <trkpt lat="45.5978" lon="3.21293">
        <ele>524</ele>
        <time>2015-03-29T13:24:48+02:00</time>
      </trkpt>
      <trkpt lat="45.59777" lon="3.21292">
        <ele>524</ele>
        <time>2015-03-29T13:24:48+02:00</time>
      </trkpt>
      <trkpt lat="45.59773" lon="3.21292">
        <ele>524</ele>
        <time>2015-03-29T13:24:48+02:00</time>
      </trkpt>
      <trkpt lat="45.5977" lon="3.21291">
        <ele>523</ele>
        <time>2015-03-29T13:24:48+02:00</time>
      </trkpt>
      <trkpt lat="45.59767" lon="3.21291">
        <ele>523</ele>
        <time>2015-03-29T13:24:48+02:00</time>
      </trkpt>
      <trkpt lat="45.59765" lon="3.2129">
        <ele>524</ele>
        <time>2015-03-29T13:24:48+02:00</time>
      </trkpt>
      <trkpt lat="45.59762" lon="3.2129">
        <ele>523</ele>
        <time>2015-03-29T13:24:48+02:00</time>
      </trkpt>
      <trkpt lat="45.59759" lon="3.21289">
        <ele>523</ele>
        <time>2015-03-29T13:24:48+02:00</time>
      </trkpt>
      <trkpt lat="45.59756" lon="3.21289">
        <ele>523</ele>
        <time>2015-03-29T13:24:48+02:00</time>
      </trkpt>
      <trkpt lat="45.59753" lon="3.21291">
        <ele>522</ele>
        <time>2015-03-29T13:24:48+02:00</time>
      </trkpt>
      <trkpt lat="45.59751" lon="3.21292">
        <ele>523</ele>
        <time>2015-03-29T13:24:48+02:00</time>
      </trkpt>
      <trkpt lat="45.59748" lon="3.21293">
        <ele>522</ele>
        <time>2015-03-29T13:24:48+02:00</time>
      </trkpt>
      <trkpt lat="45.59746" lon="3.21293">
        <ele>522</ele>
        <time>2015-03-29T13:24:48+02:00</time>
      </trkpt>
      <trkpt lat="45.59743" lon="3.21294">
        <ele>523</ele>
        <time>2015-03-29T13:24:48+02:00</time>
      </trkpt>
      <trkpt lat="45.59741" lon="3.21295">
        <ele>523</ele>
        <time>2015-03-29T13:24:48+02:00</time>
      </trkpt>
      <trkpt lat="45.59738" lon="3.21294">
        <ele>523</ele>
        <time>2015-03-29T13:24:48+02:00</time>
      </trkpt>
      <trkpt lat="45.59736" lon="3.21295">
        <ele>523</ele>
        <time>2015-03-29T13:24:48+02:00</time>
      </trkpt>
      <trkpt lat="45.59734" lon="3.21294">
        <ele>522</ele>
        <time>2015-03-29T13:24:48+02:00</time>
      </trkpt>
      <trkpt lat="45.59732" lon="3.21294">
        <ele>522</ele>
        <time>2015-03-29T13:24:48+02:00</time>
      </trkpt>
      <trkpt lat="45.5973" lon="3.21294">
        <ele>522</ele>
        <time>2015-03-29T13:24:48+02:00</time>
      </trkpt>
      <trkpt lat="45.59726" lon="3.21293">
        <ele>522</ele>
        <time>2015-03-29T13:24:48+02:00</time>
      </trkpt>
      <trkpt lat="45.59723" lon="3.21292">
        <ele>522</ele>
        <time>2015-03-29T13:24:48+02:00</time>
      </trkpt>
      <trkpt lat="45.59719" lon="3.21292">
        <ele>522</ele>
        <time>2015-03-29T13:24:48+02:00</time>
      </trkpt>
      <trkpt lat="45.59716" lon="3.2129">
        <ele>522</ele>
        <time>2015-03-29T13:26:56+02:00</time>
      </trkpt>
      <trkpt lat="45.59714" lon="3.21289">
        <ele>522</ele>
        <time>2015-03-29T13:26:56+02:00</time>
      </trkpt>
      <trkpt lat="45.59712" lon="3.21288">
        <ele>522</ele>
        <time>2015-03-29T13:26:56+02:00</time>
      </trkpt>
      <trkpt lat="45.59709" lon="3.21286">
        <ele>522</ele>
        <time>2015-03-29T13:26:56+02:00</time>
      </trkpt>
      <trkpt lat="45.59706" lon="3.21283">
        <ele>522</ele>
        <time>2015-03-29T13:26:56+02:00</time>
      </trkpt>
      <trkpt lat="45.59704" lon="3.21281">
        <ele>522</ele>
        <time>2015-03-29T13:26:56+02:00</time>
      </trkpt>
      <trkpt lat="45.59702" lon="3.2128">
        <ele>522</ele>
        <time>2015-03-29T13:26:56+02:00</time>
      </trkpt>
      <trkpt lat="45.59699" lon="3.21277">
        <ele>522</ele>
        <time>2015-03-29T13:26:56+02:00</time>
      </trkpt>
      <trkpt lat="45.59697" lon="3.21274">
        <ele>522</ele>
        <time>2015-03-29T13:26:56+02:00</time>
      </trkpt>
      <trkpt lat="45.59694" lon="3.21271">
        <ele>523</ele>
        <time>2015-03-29T13:26:56+02:00</time>
      </trkpt>
      <trkpt lat="45.59691" lon="3.21268">
        <ele>522</ele>
        <time>2015-03-29T13:26:56+02:00</time>
      </trkpt>
      <trkpt lat="45.59689" lon="3.21265">
        <ele>522</ele>
        <time>2015-03-29T13:26:56+02:00</time>
      </trkpt>
      <trkpt lat="45.59686" lon="3.21262">
        <ele>522</ele>
        <time>2015-03-29T13:26:56+02:00</time>
      </trkpt>
      <trkpt lat="45.59683" lon="3.21259">
        <ele>522</ele>
        <time>2015-03-29T13:26:56+02:00</time>
      </trkpt>
      <trkpt lat="45.59682" lon="3.21258">
        <ele>522</ele>
        <time>2015-03-29T13:26:56+02:00</time>
      </trkpt>
      <trkpt lat="45.59679" lon="3.21256">
        <ele>522</ele>
        <time>2015-03-29T13:26:56+02:00</time>
      </trkpt>
      <trkpt lat="45.59677" lon="3.21253">
        <ele>522</ele>
        <time>2015-03-29T13:26:56+02:00</time>
      </trkpt>
      <trkpt lat="45.59674" lon="3.21251">
        <ele>522</ele>
        <time>2015-03-29T13:26:56+02:00</time>
      </trkpt>
      <trkpt lat="45.59671" lon="3.21249">
        <ele>522</ele>
        <time>2015-03-29T13:26:56+02:00</time>
      </trkpt>
      <trkpt lat="45.59668" lon="3.21247">
        <ele>521</ele>
        <time>2015-03-29T13:26:56+02:00</time>
      </trkpt>
      <trkpt lat="45.59666" lon="3.21245">
        <ele>521</ele>
        <time>2015-03-29T13:26:56+02:00</time>
      </trkpt>
      <trkpt lat="45.59663" lon="3.21244">
        <ele>521</ele>
        <time>2015-03-29T13:26:56+02:00</time>
      </trkpt>
      <trkpt lat="45.5966" lon="3.21242">
        <ele>521</ele>
        <time>2015-03-29T13:26:56+02:00</time>
      </trkpt>
      <trkpt lat="45.59658" lon="3.21241">
        <ele>521</ele>
        <time>2015-03-29T13:26:56+02:00</time>
      </trkpt>
      <trkpt lat="45.59655" lon="3.21239">
        <ele>521</ele>
        <time>2015-03-29T13:26:56+02:00</time>
      </trkpt>
      <trkpt lat="45.59652" lon="3.21238">
        <ele>521</ele>
        <time>2015-03-29T13:26:56+02:00</time>
      </trkpt>
      <trkpt lat="45.59649" lon="3.21235">
        <ele>520</ele>
        <time>2015-03-29T13:26:56+02:00</time>
      </trkpt>
      <trkpt lat="45.59646" lon="3.21233">
        <ele>520</ele>
        <time>2015-03-29T13:26:56+02:00</time>
      </trkpt>
      <trkpt lat="45.59644" lon="3.21232">
        <ele>520</ele>
        <time>2015-03-29T13:26:56+02:00</time>
      </trkpt>
      <trkpt lat="45.59642" lon="3.21231">
        <ele>520</ele>
        <time>2015-03-29T13:26:56+02:00</time>
      </trkpt>
      <trkpt lat="45.59639" lon="3.21228">
        <ele>520</ele>
        <time>2015-03-29T13:26:56+02:00</time>
      </trkpt>
      <trkpt lat="45.59636" lon="3.21227">
        <ele>520</ele>
        <time>2015-03-29T13:26:56+02:00</time>
      </trkpt>
      <trkpt lat="45.59633" lon="3.21226">
        <ele>520</ele>
        <time>2015-03-29T13:26:56+02:00</time>
      </trkpt>
      <trkpt lat="45.59631" lon="3.21226">
        <ele>520</ele>
        <time>2015-03-29T13:26:56+02:00</time>
      </trkpt>
      <trkpt lat="45.59628" lon="3.21226">
        <ele>520</ele>
        <time>2015-03-29T13:26:56+02:00</time>
      </trkpt>
      <trkpt lat="45.59625" lon="3.21226">
        <ele>519</ele>
        <time>2015-03-29T13:26:56+02:00</time>
      </trkpt>
      <trkpt lat="45.59621" lon="3.21226">
        <ele>520</ele>
        <time>2015-03-29T13:26:56+02:00</time>
      </trkpt>
      <trkpt lat="45.59618" lon="3.21226">
        <ele>520</ele>
        <time>2015-03-29T13:26:56+02:00</time>
      </trkpt>
      <trkpt lat="45.59615" lon="3.21227">
        <ele>520</ele>
        <time>2015-03-29T13:26:56+02:00</time>
      </trkpt>
      <trkpt lat="45.59612" lon="3.21227">
        <ele>520</ele>
        <time>2015-03-29T13:26:56+02:00</time>
      </trkpt>
      <trkpt lat="45.59609" lon="3.21227">
        <ele>520</ele>
        <time>2015-03-29T13:26:56+02:00</time>
      </trkpt>
      <trkpt lat="45.59606" lon="3.21227">
        <ele>520</ele>
        <time>2015-03-29T13:26:56+02:00</time>
      </trkpt>
      <trkpt lat="45.59603" lon="3.21225">
        <ele>520</ele>
        <time>2015-03-29T13:26:56+02:00</time>
      </trkpt>
      <trkpt lat="45.596" lon="3.21224">
        <ele>520</ele>
        <time>2015-03-29T13:26:56+02:00</time>
      </trkpt>
      <trkpt lat="45.59597" lon="3.21222">
        <ele>521</ele>
        <time>2015-03-29T13:26:56+02:00</time>
      </trkpt>
      <trkpt lat="45.59595" lon="3.21219">
        <ele>521</ele>
        <time>2015-03-29T13:26:56+02:00</time>
      </trkpt>
      <trkpt lat="45.59592" lon="3.21216">
        <ele>521</ele>
        <time>2015-03-29T13:26:56+02:00</time>
      </trkpt>
      <trkpt lat="45.59589" lon="3.21214">
        <ele>521</ele>
        <time>2015-03-29T13:26:56+02:00</time>
      </trkpt>
      <trkpt lat="45.59587" lon="3.21211">
        <ele>521</ele>
        <time>2015-03-29T13:26:56+02:00</time>
      </trkpt>
      <trkpt lat="45.59584" lon="3.21208">
        <ele>521</ele>
        <time>2015-03-29T13:26:56+02:00</time>
      </trkpt>
      <trkpt lat="45.59582" lon="3.21206">
        <ele>522</ele>
        <time>2015-03-29T13:26:56+02:00</time>
      </trkpt>
      <trkpt lat="45.59579" lon="3.21203">
        <ele>522</ele>
        <time>2015-03-29T13:26:56+02:00</time>
      </trkpt>
      <trkpt lat="45.59577" lon="3.212">
        <ele>522</ele>
        <time>2015-03-29T13:26:56+02:00</time>
      </trkpt>
      <trkpt lat="45.59574" lon="3.21198">
        <ele>523</ele>
        <time>2015-03-29T13:26:56+02:00</time>
      </trkpt>
      <trkpt lat="45.59572" lon="3.21196">
        <ele>523</ele>
        <time>2015-03-29T13:26:56+02:00</time>
      </trkpt>
      <trkpt lat="45.59569" lon="3.21193">
        <ele>523</ele>
        <time>2015-03-29T13:26:56+02:00</time>
      </trkpt>
      <trkpt lat="45.59566" lon="3.21191">
        <ele>524</ele>
        <time>2015-03-29T13:26:56+02:00</time>
      </trkpt>
      <trkpt lat="45.59564" lon="3.21189">
        <ele>524</ele>
        <time>2015-03-29T13:26:56+02:00</time>
      </trkpt>
      <trkpt lat="45.59562" lon="3.21186">
        <ele>525</ele>
        <time>2015-03-29T13:26:56+02:00</time>
      </trkpt>
      <trkpt lat="45.59559" lon="3.21184">
        <ele>525</ele>
        <time>2015-03-29T13:26:56+02:00</time>
      </trkpt>
      <trkpt lat="45.59557" lon="3.21182">
        <ele>525</ele>
        <time>2015-03-29T13:26:56+02:00</time>
      </trkpt>
      <trkpt lat="45.59554" lon="3.21179">
        <ele>526</ele>
        <time>2015-03-29T13:26:56+02:00</time>
      </trkpt>
      <trkpt lat="45.59552" lon="3.21177">
        <ele>526</ele>
        <time>2015-03-29T13:26:56+02:00</time>
      </trkpt>
      <trkpt lat="45.59549" lon="3.21175">
        <ele>526</ele>
        <time>2015-03-29T13:26:56+02:00</time>
      </trkpt>
      <trkpt lat="45.59547" lon="3.21174">
        <ele>527</ele>
        <time>2015-03-29T13:26:56+02:00</time>
      </trkpt>
      <trkpt lat="45.59545" lon="3.21171">
        <ele>527</ele>
        <time>2015-03-29T13:26:56+02:00</time>
      </trkpt>
      <trkpt lat="45.59542" lon="3.21169">
        <ele>528</ele>
        <time>2015-03-29T13:26:56+02:00</time>
      </trkpt>
      <trkpt lat="45.5954" lon="3.21167">
        <ele>528</ele>
        <time>2015-03-29T13:29:04+02:00</time>
      </trkpt>
      <trkpt lat="45.59537" lon="3.21164">
        <ele>528</ele>
        <time>2015-03-29T13:29:04+02:00</time>
      </trkpt>
      <trkpt lat="45.59534" lon="3.21162">
        <ele>529</ele>
        <time>2015-03-29T13:29:04+02:00</time>
      </trkpt>
      <trkpt lat="45.59532" lon="3.2116">
        <ele>529</ele>
        <time>2015-03-29T13:29:04+02:00</time>
      </trkpt>
      <trkpt lat="45.59529" lon="3.21157">
        <ele>529</ele>
        <time>2015-03-29T13:29:04+02:00</time>
      </trkpt>
      <trkpt lat="45.59526" lon="3.21155">
        <ele>530</ele>
        <time>2015-03-29T13:29:04+02:00</time>
      </trkpt>
      <trkpt lat="45.59524" lon="3.21153">
        <ele>530</ele>
        <time>2015-03-29T13:29:04+02:00</time>
      </trkpt>
      <trkpt lat="45.59521" lon="3.21151">
        <ele>530</ele>
        <time>2015-03-29T13:29:04+02:00</time>
      </trkpt>
      <trkpt lat="45.59519" lon="3.21149">
        <ele>531</ele>
        <time>2015-03-29T13:29:04+02:00</time>
      </trkpt>
      <trkpt lat="45.59516" lon="3.21146">
        <ele>531</ele>
        <time>2015-03-29T13:29:04+02:00</time>
      </trkpt>
      <trkpt lat="45.59513" lon="3.21144">
        <ele>531</ele>
        <time>2015-03-29T13:29:04+02:00</time>
      </trkpt>
      <trkpt lat="45.59511" lon="3.21143">
        <ele>532</ele>
        <time>2015-03-29T13:29:04+02:00</time>
      </trkpt>
      <trkpt lat="45.59508" lon="3.21141">
        <ele>532</ele>
        <time>2015-03-29T13:29:04+02:00</time>
      </trkpt>
      <trkpt lat="45.59505" lon="3.21139">
        <ele>533</ele>
        <time>2015-03-29T13:29:04+02:00</time>
      </trkpt>
      <trkpt lat="45.59502" lon="3.21137">
        <ele>533</ele>
        <time>2015-03-29T13:29:04+02:00</time>
      </trkpt>
      <trkpt lat="45.59499" lon="3.21135">
        <ele>533</ele>
        <time>2015-03-29T13:29:04+02:00</time>
      </trkpt>
      <trkpt lat="45.59496" lon="3.21133">
        <ele>534</ele>
        <time>2015-03-29T13:29:04+02:00</time>
      </trkpt>
      <trkpt lat="45.59494" lon="3.21131">
        <ele>534</ele>
        <time>2015-03-29T13:29:04+02:00</time>
      </trkpt>
      <trkpt lat="45.59491" lon="3.2113">
        <ele>534</ele>
        <time>2015-03-29T13:29:04+02:00</time>
      </trkpt>
      <trkpt lat="45.59488" lon="3.21127">
        <ele>534</ele>
        <time>2015-03-29T13:29:04+02:00</time>
      </trkpt>
      <trkpt lat="45.59485" lon="3.21125">
        <ele>534</ele>
        <time>2015-03-29T13:29:04+02:00</time>
      </trkpt>
      <trkpt lat="45.59483" lon="3.21123">
        <ele>535</ele>
        <time>2015-03-29T13:29:04+02:00</time>
      </trkpt>
      <trkpt lat="45.5948" lon="3.21121">
        <ele>535</ele>
        <time>2015-03-29T13:29:04+02:00</time>
      </trkpt>
      <trkpt lat="45.59476" lon="3.21119">
        <ele>535</ele>
        <time>2015-03-29T13:29:04+02:00</time>
      </trkpt>
      <trkpt lat="45.59474" lon="3.21118">
        <ele>536</ele>
        <time>2015-03-29T13:29:04+02:00</time>
      </trkpt>
      <trkpt lat="45.59472" lon="3.21116">
        <ele>535</ele>
        <time>2015-03-29T13:29:04+02:00</time>
      </trkpt>
      <trkpt lat="45.59469" lon="3.21114">
        <ele>535</ele>
        <time>2015-03-29T13:29:04+02:00</time>
      </trkpt>
      <trkpt lat="45.59467" lon="3.21113">
        <ele>536</ele>
        <time>2015-03-29T13:29:04+02:00</time>
      </trkpt>
      <trkpt lat="45.59464" lon="3.21111">
        <ele>536</ele>
        <time>2015-03-29T13:29:04+02:00</time>
      </trkpt>
      <trkpt lat="45.59461" lon="3.21109">
        <ele>536</ele>
        <time>2015-03-29T13:29:04+02:00</time>
      </trkpt>
      <trkpt lat="45.59459" lon="3.21107">
        <ele>536</ele>
        <time>2015-03-29T13:29:04+02:00</time>
      </trkpt>
      <trkpt lat="45.59456" lon="3.21105">
        <ele>536</ele>
        <time>2015-03-29T13:29:04+02:00</time>
      </trkpt>
      <trkpt lat="45.59454" lon="3.21103">
        <ele>536</ele>
        <time>2015-03-29T13:29:04+02:00</time>
      </trkpt>
      <trkpt lat="45.59451" lon="3.211">
        <ele>537</ele>
        <time>2015-03-29T13:29:04+02:00</time>
      </trkpt>
      <trkpt lat="45.59448" lon="3.21098">
        <ele>537</ele>
        <time>2015-03-29T13:29:04+02:00</time>
      </trkpt>
      <trkpt lat="45.59446" lon="3.21097">
        <ele>537</ele>
        <time>2015-03-29T13:29:04+02:00</time>
      </trkpt>
      <trkpt lat="45.59443" lon="3.21095">
        <ele>537</ele>
        <time>2015-03-29T13:29:04+02:00</time>
      </trkpt>
      <trkpt lat="45.59441" lon="3.21093">
        <ele>537</ele>
        <time>2015-03-29T13:29:04+02:00</time>
      </trkpt>
      <trkpt lat="45.59438" lon="3.21092">
        <ele>538</ele>
        <time>2015-03-29T13:29:04+02:00</time>
      </trkpt>
      <trkpt lat="45.59436" lon="3.2109">
        <ele>538</ele>
        <time>2015-03-29T13:29:04+02:00</time>
      </trkpt>
      <trkpt lat="45.59434" lon="3.21088">
        <ele>538</ele>
        <time>2015-03-29T13:29:04+02:00</time>
      </trkpt>
      <trkpt lat="45.5943" lon="3.21087">
        <ele>537</ele>
        <time>2015-03-29T13:29:04+02:00</time>
      </trkpt>
      <trkpt lat="45.59429" lon="3.21086">
        <ele>537</ele>
        <time>2015-03-29T13:29:04+02:00</time>
      </trkpt>
      <trkpt lat="45.59425" lon="3.21084">
        <ele>538</ele>
        <time>2015-03-29T13:29:04+02:00</time>
      </trkpt>
      <trkpt lat="45.59422" lon="3.21082">
        <ele>538</ele>
        <time>2015-03-29T13:29:04+02:00</time>
      </trkpt>
      <trkpt lat="45.59418" lon="3.2108">
        <ele>537</ele>
        <time>2015-03-29T13:29:04+02:00</time>
      </trkpt>
      <trkpt lat="45.59415" lon="3.21079">
        <ele>537</ele>
        <time>2015-03-29T13:29:04+02:00</time>
      </trkpt>
      <trkpt lat="45.59412" lon="3.21078">
        <ele>537</ele>
        <time>2015-03-29T13:29:04+02:00</time>
      </trkpt>
      <trkpt lat="45.59409" lon="3.21078">
        <ele>537</ele>
        <time>2015-03-29T13:29:04+02:00</time>
      </trkpt>
      <trkpt lat="45.59406" lon="3.21077">
        <ele>537</ele>
        <time>2015-03-29T13:29:04+02:00</time>
      </trkpt>
      <trkpt lat="45.59404" lon="3.21076">
        <ele>537</ele>
        <time>2015-03-29T13:29:04+02:00</time>
      </trkpt>
      <trkpt lat="45.59401" lon="3.21076">
        <ele>537</ele>
        <time>2015-03-29T13:29:04+02:00</time>
      </trkpt>
      <trkpt lat="45.59398" lon="3.21076">
        <ele>536</ele>
        <time>2015-03-29T13:29:04+02:00</time>
      </trkpt>
      <trkpt lat="45.59394" lon="3.21075">
        <ele>537</ele>
        <time>2015-03-29T13:29:04+02:00</time>
      </trkpt>
      <trkpt lat="45.59391" lon="3.21074">
        <ele>536</ele>
        <time>2015-03-29T13:29:04+02:00</time>
      </trkpt>
      <trkpt lat="45.59389" lon="3.21071">
        <ele>535</ele>
        <time>2015-03-29T13:29:04+02:00</time>
      </trkpt>
      <trkpt lat="45.59387" lon="3.21068">
        <ele>535</ele>
        <time>2015-03-29T13:29:04+02:00</time>
      </trkpt>
      <trkpt lat="45.59385" lon="3.21064">
        <ele>535</ele>
        <time>2015-03-29T13:29:04+02:00</time>
      </trkpt>
      <trkpt lat="45.59383" lon="3.2106">
        <ele>535</ele>
        <time>2015-03-29T13:29:04+02:00</time>
      </trkpt>
      <trkpt lat="45.59382" lon="3.21056">
        <ele>534</ele>
        <time>2015-03-29T13:29:04+02:00</time>
      </trkpt>
      <trkpt lat="45.59381" lon="3.21053">
        <ele>533</ele>
        <time>2015-03-29T13:29:04+02:00</time>
      </trkpt>
      <trkpt lat="45.5938" lon="3.21049">
        <ele>533</ele>
        <time>2015-03-29T13:29:04+02:00</time>
      </trkpt>
      <trkpt lat="45.59379" lon="3.21044">
        <ele>533</ele>
        <time>2015-03-29T13:29:04+02:00</time>
      </trkpt>
      <trkpt lat="45.59378" lon="3.2104">
        <ele>532</ele>
        <time>2015-03-29T13:29:04+02:00</time>
      </trkpt>
      <trkpt lat="45.59379" lon="3.21036">
        <ele>531</ele>
        <time>2015-03-29T13:29:04+02:00</time>
      </trkpt>
      <trkpt lat="45.59378" lon="3.21032">
        <ele>530</ele>
        <time>2015-03-29T13:29:04+02:00</time>
      </trkpt>
      <trkpt lat="45.59377" lon="3.2103">
        <ele>530</ele>
        <time>2015-03-29T13:29:04+02:00</time>
      </trkpt>
      <trkpt lat="45.59376" lon="3.21028">
        <ele>530</ele>
        <time>2015-03-29T13:31:12+02:00</time>
      </trkpt>
      <trkpt lat="45.59374" lon="3.21023">
        <ele>529</ele>
        <time>2015-03-29T13:31:12+02:00</time>
      </trkpt>
      <trkpt lat="45.59373" lon="3.21019">
        <ele>529</ele>
        <time>2015-03-29T13:31:12+02:00</time>
      </trkpt>
      <trkpt lat="45.59371" lon="3.21015">
        <ele>529</ele>
        <time>2015-03-29T13:31:12+02:00</time>
      </trkpt>
      <trkpt lat="45.59371" lon="3.2101">
        <ele>529</ele>
        <time>2015-03-29T13:31:12+02:00</time>
      </trkpt>
      <trkpt lat="45.59369" lon="3.21006">
        <ele>529</ele>
        <time>2015-03-29T13:31:12+02:00</time>
      </trkpt>
      <trkpt lat="45.59367" lon="3.21002">
        <ele>528</ele>
        <time>2015-03-29T13:31:12+02:00</time>
      </trkpt>
      <trkpt lat="45.59365" lon="3.20998">
        <ele>528</ele>
        <time>2015-03-29T13:31:12+02:00</time>
      </trkpt>
      <trkpt lat="45.59363" lon="3.20995">
        <ele>528</ele>
        <time>2015-03-29T13:31:12+02:00</time>
      </trkpt>
      <trkpt lat="45.59363" lon="3.20992">
        <ele>528</ele>
        <time>2015-03-29T13:31:12+02:00</time>
      </trkpt>
      <trkpt lat="45.59361" lon="3.20989">
        <ele>528</ele>
        <time>2015-03-29T13:31:12+02:00</time>
      </trkpt>
      <trkpt lat="45.59359" lon="3.20984">
        <ele>528</ele>
        <time>2015-03-29T13:31:12+02:00</time>
      </trkpt>
      <trkpt lat="45.59357" lon="3.20981">
        <ele>528</ele>
        <time>2015-03-29T13:31:12+02:00</time>
      </trkpt>
      <trkpt lat="45.59355" lon="3.20978">
        <ele>528</ele>
        <time>2015-03-29T13:31:12+02:00</time>
      </trkpt>
      <trkpt lat="45.59353" lon="3.20974">
        <ele>527</ele>
        <time>2015-03-29T13:31:12+02:00</time>
      </trkpt>
      <trkpt lat="45.59352" lon="3.2097">
        <ele>527</ele>
        <time>2015-03-29T13:31:12+02:00</time>
      </trkpt>
      <trkpt lat="45.5935" lon="3.20967">
        <ele>527</ele>
        <time>2015-03-29T13:31:12+02:00</time>
      </trkpt>
      <trkpt lat="45.59347" lon="3.20961">
        <ele>527</ele>
        <time>2015-03-29T13:31:12+02:00</time>
      </trkpt>
      <trkpt lat="45.59345" lon="3.20957">
        <ele>527</ele>
        <time>2015-03-29T13:31:12+02:00</time>
      </trkpt>
      <trkpt lat="45.59343" lon="3.20954">
        <ele>526</ele>
        <time>2015-03-29T13:31:12+02:00</time>
      </trkpt>
      <trkpt lat="45.59341" lon="3.20951">
        <ele>526</ele>
        <time>2015-03-29T13:31:12+02:00</time>
      </trkpt>
      <trkpt lat="45.59339" lon="3.20947">
        <ele>526</ele>
        <time>2015-03-29T13:31:12+02:00</time>
      </trkpt>
      <trkpt lat="45.59338" lon="3.20944">
        <ele>525</ele>
        <time>2015-03-29T13:31:12+02:00</time>
      </trkpt>
      <trkpt lat="45.59306" lon="3.20889">
        <ele>523</ele>
        <time>2015-03-29T13:31:12+02:00</time>
      </trkpt>
      <trkpt lat="45.59303" lon="3.20885">
        <ele>523</ele>
        <time>2015-03-29T13:31:12+02:00</time>
      </trkpt>
      <trkpt lat="45.59302" lon="3.20881">
        <ele>523</ele>
        <time>2015-03-29T13:31:12+02:00</time>
      </trkpt>
      <trkpt lat="45.593" lon="3.20877">
        <ele>523</ele>
        <time>2015-03-29T13:31:12+02:00</time>
      </trkpt>
      <trkpt lat="45.59298" lon="3.20873">
        <ele>522</ele>
        <time>2015-03-29T13:31:12+02:00</time>
      </trkpt>
      <trkpt lat="45.59297" lon="3.20871">
        <ele>522</ele>
        <time>2015-03-29T13:31:12+02:00</time>
      </trkpt>
      <trkpt lat="45.59295" lon="3.20868">
        <ele>522</ele>
        <time>2015-03-29T13:31:12+02:00</time>
      </trkpt>
      <trkpt lat="45.59293" lon="3.20864">
        <ele>521</ele>
        <time>2015-03-29T13:31:12+02:00</time>
      </trkpt>
      <trkpt lat="45.59291" lon="3.2086">
        <ele>521</ele>
        <time>2015-03-29T13:31:12+02:00</time>
      </trkpt>
      <trkpt lat="45.5929" lon="3.20857">
        <ele>521</ele>
        <time>2015-03-29T13:31:12+02:00</time>
      </trkpt>
      <trkpt lat="45.59288" lon="3.20853">
        <ele>521</ele>
        <time>2015-03-29T13:31:12+02:00</time>
      </trkpt>
      <trkpt lat="45.59286" lon="3.20849">
        <ele>520</ele>
        <time>2015-03-29T13:31:12+02:00</time>
      </trkpt>
      <trkpt lat="45.59284" lon="3.20845">
        <ele>520</ele>
        <time>2015-03-29T13:31:12+02:00</time>
      </trkpt>
      <trkpt lat="45.59283" lon="3.20843">
        <ele>520</ele>
        <time>2015-03-29T13:31:12+02:00</time>
      </trkpt>
      <trkpt lat="45.59281" lon="3.20839">
        <ele>520</ele>
        <time>2015-03-29T13:31:12+02:00</time>
      </trkpt>
      <trkpt lat="45.59278" lon="3.20834">
        <ele>519</ele>
        <time>2015-03-29T13:31:12+02:00</time>
      </trkpt>
      <trkpt lat="45.59276" lon="3.2083">
        <ele>519</ele>
        <time>2015-03-29T13:31:12+02:00</time>
      </trkpt>
      <trkpt lat="45.59274" lon="3.20825">
        <ele>519</ele>
        <time>2015-03-29T13:31:12+02:00</time>
      </trkpt>
      <trkpt lat="45.59273" lon="3.20822">
        <ele>519</ele>
        <time>2015-03-29T13:31:12+02:00</time>
      </trkpt>
      <trkpt lat="45.5927" lon="3.20819">
        <ele>518</ele>
        <time>2015-03-29T13:31:12+02:00</time>
      </trkpt>
      <trkpt lat="45.59269" lon="3.20815">
        <ele>518</ele>
        <time>2015-03-29T13:31:12+02:00</time>
      </trkpt>
      <trkpt lat="45.59267" lon="3.20811">
        <ele>518</ele>
        <time>2015-03-29T13:31:12+02:00</time>
      </trkpt>
      <trkpt lat="45.59265" lon="3.20808">
        <ele>518</ele>
        <time>2015-03-29T13:31:12+02:00</time>
      </trkpt>
      <trkpt lat="45.59263" lon="3.20805">
        <ele>517</ele>
        <time>2015-03-29T13:31:12+02:00</time>
      </trkpt>
      <trkpt lat="45.59261" lon="3.20801">
        <ele>517</ele>
        <time>2015-03-29T13:31:12+02:00</time>
      </trkpt>
      <trkpt lat="45.59259" lon="3.20798">
        <ele>517</ele>
        <time>2015-03-29T13:33:20+02:00</time>
      </trkpt>
      <trkpt lat="45.59258" lon="3.20795">
        <ele>516</ele>
        <time>2015-03-29T13:33:20+02:00</time>
      </trkpt>
      <trkpt lat="45.59256" lon="3.20792">
        <ele>516</ele>
        <time>2015-03-29T13:33:20+02:00</time>
      </trkpt>
      <trkpt lat="45.59254" lon="3.20788">
        <ele>516</ele>
        <time>2015-03-29T13:33:20+02:00</time>
      </trkpt>
      <trkpt lat="45.59252" lon="3.20785">
        <ele>516</ele>
        <time>2015-03-29T13:33:20+02:00</time>
      </trkpt>
      <trkpt lat="45.5925" lon="3.20781">
        <ele>516</ele>
        <time>2015-03-29T13:33:20+02:00</time>
      </trkpt>
      <trkpt lat="45.59249" lon="3.20778">
        <ele>516</ele>
        <time>2015-03-29T13:33:20+02:00</time>
      </trkpt>
      <trkpt lat="45.59247" lon="3.20775">
        <ele>515</ele>
        <time>2015-03-29T13:33:20+02:00</time>
      </trkpt>
      <trkpt lat="45.59245" lon="3.20771">
        <ele>515</ele>
        <time>2015-03-29T13:33:20+02:00</time>
      </trkpt>
      <trkpt lat="45.59244" lon="3.20768">
        <ele>515</ele>
        <time>2015-03-29T13:33:20+02:00</time>
      </trkpt>
      <trkpt lat="45.59242" lon="3.20764">
        <ele>515</ele>
        <time>2015-03-29T13:33:20+02:00</time>
      </trkpt>
      <trkpt lat="45.5924" lon="3.20761">
        <ele>514</ele>
        <time>2015-03-29T13:33:20+02:00</time>
      </trkpt>
      <trkpt lat="45.59239" lon="3.20758">
        <ele>514</ele>
        <time>2015-03-29T13:33:20+02:00</time>
      </trkpt>
      <trkpt lat="45.59237" lon="3.20754">
        <ele>514</ele>
        <time>2015-03-29T13:33:20+02:00</time>
      </trkpt>
      <trkpt lat="45.59235" lon="3.20751">
        <ele>514</ele>
        <time>2015-03-29T13:33:20+02:00</time>
      </trkpt>
      <trkpt lat="45.59233" lon="3.20747">
        <ele>514</ele>
        <time>2015-03-29T13:33:20+02:00</time>
      </trkpt>
      <trkpt lat="45.59234" lon="3.2075">
        <ele>514</ele>
        <time>2015-03-29T13:33:20+02:00</time>
      </trkpt>
      <trkpt lat="45.59232" lon="3.2075">
        <ele>514</ele>
        <time>2015-03-29T13:33:20+02:00</time>
      </trkpt>
      <trkpt lat="45.59231" lon="3.20747">
        <ele>514</ele>
        <time>2015-03-29T13:33:20+02:00</time>
      </trkpt>
      <trkpt lat="45.59229" lon="3.20741">
        <ele>514</ele>
        <time>2015-03-29T13:33:20+02:00</time>
      </trkpt>
      <trkpt lat="45.59228" lon="3.20738">
        <ele>514</ele>
        <time>2015-03-29T13:33:20+02:00</time>
      </trkpt>
      <trkpt lat="45.59227" lon="3.20735">
        <ele>514</ele>
        <time>2015-03-29T13:33:20+02:00</time>
      </trkpt>
      <trkpt lat="45.59226" lon="3.20731">
        <ele>514</ele>
        <time>2015-03-29T13:33:20+02:00</time>
      </trkpt>
      <trkpt lat="45.59225" lon="3.20727">
        <ele>514</ele>
        <time>2015-03-29T13:33:20+02:00</time>
      </trkpt>
      <trkpt lat="45.59224" lon="3.20724">
        <ele>514</ele>
        <time>2015-03-29T13:33:20+02:00</time>
      </trkpt>
      <trkpt lat="45.59222" lon="3.2072">
        <ele>515</ele>
        <time>2015-03-29T13:33:20+02:00</time>
      </trkpt>
      <trkpt lat="45.59219" lon="3.20717">
        <ele>515</ele>
        <time>2015-03-29T13:33:20+02:00</time>
      </trkpt>
      <trkpt lat="45.59218" lon="3.20715">
        <ele>514</ele>
        <time>2015-03-29T13:33:20+02:00</time>
      </trkpt>
      <trkpt lat="45.59216" lon="3.20711">
        <ele>515</ele>
        <time>2015-03-29T13:33:20+02:00</time>
      </trkpt>
      <trkpt lat="45.59215" lon="3.20709">
        <ele>515</ele>
        <time>2015-03-29T13:33:20+02:00</time>
      </trkpt>
      <trkpt lat="45.59213" lon="3.20705">
        <ele>515</ele>
        <time>2015-03-29T13:33:20+02:00</time>
      </trkpt>
      <trkpt lat="45.59212" lon="3.20702">
        <ele>515</ele>
        <time>2015-03-29T13:33:20+02:00</time>
      </trkpt>
      <trkpt lat="45.59211" lon="3.207">
        <ele>515</ele>
        <time>2015-03-29T13:33:20+02:00</time>
      </trkpt>
      <trkpt lat="45.5921" lon="3.20695">
        <ele>515</ele>
        <time>2015-03-29T13:33:20+02:00</time>
      </trkpt>
      <trkpt lat="45.59209" lon="3.20693">
        <ele>515</ele>
        <time>2015-03-29T13:33:20+02:00</time>
      </trkpt>
      <trkpt lat="45.59207" lon="3.20689">
        <ele>515</ele>
        <time>2015-03-29T13:33:20+02:00</time>
      </trkpt>
      <trkpt lat="45.59206" lon="3.20686">
        <ele>515</ele>
        <time>2015-03-29T13:33:20+02:00</time>
      </trkpt>
      <trkpt lat="45.59205" lon="3.20679">
        <ele>515</ele>
        <time>2015-03-29T13:33:20+02:00</time>
      </trkpt>
      <trkpt lat="45.59202" lon="3.20671">
        <ele>515</ele>
        <time>2015-03-29T13:33:20+02:00</time>
      </trkpt>
      <trkpt lat="45.59201" lon="3.20668">
        <ele>514</ele>
        <time>2015-03-29T13:33:20+02:00</time>
      </trkpt>
      <trkpt lat="45.592" lon="3.20664">
        <ele>513</ele>
        <time>2015-03-29T13:33:20+02:00</time>
      </trkpt>
      <trkpt lat="45.59199" lon="3.2066">
        <ele>513</ele>
        <time>2015-03-29T13:33:20+02:00</time>
      </trkpt>
      <trkpt lat="45.59198" lon="3.20656">
        <ele>513</ele>
        <time>2015-03-29T13:33:20+02:00</time>
      </trkpt>
      <trkpt lat="45.59197" lon="3.20651">
        <ele>513</ele>
        <time>2015-03-29T13:33:20+02:00</time>
      </trkpt>
      <trkpt lat="45.59196" lon="3.20647">
        <ele>513</ele>
        <time>2015-03-29T13:33:20+02:00</time>
      </trkpt>
      <trkpt lat="45.59194" lon="3.20642">
        <ele>513</ele>
        <time>2015-03-29T13:33:20+02:00</time>
      </trkpt>
      <trkpt lat="45.59193" lon="3.20639">
        <ele>512</ele>
        <time>2015-03-29T13:33:20+02:00</time>
      </trkpt>
      <trkpt lat="45.59192" lon="3.20634">
        <ele>512</ele>
        <time>2015-03-29T13:33:20+02:00</time>
      </trkpt>
      <trkpt lat="45.5919" lon="3.2063">
        <ele>512</ele>
        <time>2015-03-29T13:33:20+02:00</time>
      </trkpt>
      <trkpt lat="45.59189" lon="3.20626">
        <ele>513</ele>
        <time>2015-03-29T13:33:20+02:00</time>
      </trkpt>
      <trkpt lat="45.59188" lon="3.20621">
        <ele>513</ele>
        <time>2015-03-29T13:35:28+02:00</time>
      </trkpt>
      <trkpt lat="45.59186" lon="3.20617">
        <ele>513</ele>
        <time>2015-03-29T13:35:28+02:00</time>
      </trkpt>
      <trkpt lat="45.59185" lon="3.20613">
        <ele>512</ele>
        <time>2015-03-29T13:35:28+02:00</time>
      </trkpt>
      <trkpt lat="45.59185" lon="3.20611">
        <ele>512</ele>
        <time>2015-03-29T13:35:28+02:00</time>
      </trkpt>
      <trkpt lat="45.59183" lon="3.20607">
        <ele>512</ele>
        <time>2015-03-29T13:35:28+02:00</time>
      </trkpt>
      <trkpt lat="45.59183" lon="3.20605">
        <ele>512</ele>
        <time>2015-03-29T13:35:28+02:00</time>
      </trkpt>
      <trkpt lat="45.59181" lon="3.20601">
        <ele>511</ele>
        <time>2015-03-29T13:35:28+02:00</time>
      </trkpt>
      <trkpt lat="45.5918" lon="3.20597">
        <ele>511</ele>
        <time>2015-03-29T13:35:28+02:00</time>
      </trkpt>
      <trkpt lat="45.59179" lon="3.20593">
        <ele>511</ele>
        <time>2015-03-29T13:35:28+02:00</time>
      </trkpt>
      <trkpt lat="45.59177" lon="3.20588">
        <ele>511</ele>
        <time>2015-03-29T13:35:28+02:00</time>
      </trkpt>
      <trkpt lat="45.59176" lon="3.20584">
        <ele>511</ele>
        <time>2015-03-29T13:35:28+02:00</time>
      </trkpt>
      <trkpt lat="45.59175" lon="3.2058">
        <ele>511</ele>
        <time>2015-03-29T13:35:28+02:00</time>
      </trkpt>
      <trkpt lat="45.59174" lon="3.20577">
        <ele>510</ele>
        <time>2015-03-29T13:35:28+02:00</time>
      </trkpt>
      <trkpt lat="45.59172" lon="3.20571">
        <ele>510</ele>
        <time>2015-03-29T13:35:28+02:00</time>
      </trkpt>
      <trkpt lat="45.59171" lon="3.20566">
        <ele>510</ele>
        <time>2015-03-29T13:35:28+02:00</time>
      </trkpt>
      <trkpt lat="45.59169" lon="3.20562">
        <ele>509</ele>
        <time>2015-03-29T13:35:28+02:00</time>
      </trkpt>
      <trkpt lat="45.59169" lon="3.20558">
        <ele>509</ele>
        <time>2015-03-29T13:35:28+02:00</time>
      </trkpt>
      <trkpt lat="45.59168" lon="3.20555">
        <ele>509</ele>
        <time>2015-03-29T13:35:28+02:00</time>
      </trkpt>
      <trkpt lat="45.59168" lon="3.20553">
        <ele>509</ele>
        <time>2015-03-29T13:35:28+02:00</time>
      </trkpt>
      <trkpt lat="45.59167" lon="3.20548">
        <ele>509</ele>
        <time>2015-03-29T13:35:28+02:00</time>
      </trkpt>
      <trkpt lat="45.59166" lon="3.20545">
        <ele>509</ele>
        <time>2015-03-29T13:35:28+02:00</time>
      </trkpt>
      <trkpt lat="45.59164" lon="3.20542">
        <ele>509</ele>
        <time>2015-03-29T13:35:28+02:00</time>
      </trkpt>
      <trkpt lat="45.59164" lon="3.2054">
        <ele>509</ele>
        <time>2015-03-29T13:35:28+02:00</time>
      </trkpt>
      <trkpt lat="45.59163" lon="3.20537">
        <ele>509</ele>
        <time>2015-03-29T13:35:28+02:00</time>
      </trkpt>
      <trkpt lat="45.59161" lon="3.20533">
        <ele>509</ele>
        <time>2015-03-29T13:35:28+02:00</time>
      </trkpt>
      <trkpt lat="45.59161" lon="3.20529">
        <ele>509</ele>
        <time>2015-03-29T13:35:28+02:00</time>
      </trkpt>
      <trkpt lat="45.5916" lon="3.20524">
        <ele>508</ele>
        <time>2015-03-29T13:35:28+02:00</time>
      </trkpt>
      <trkpt lat="45.59159" lon="3.20521">
        <ele>509</ele>
        <time>2015-03-29T13:35:28+02:00</time>
      </trkpt>
      <trkpt lat="45.59159" lon="3.20516">
        <ele>508</ele>
        <time>2015-03-29T13:35:28+02:00</time>
      </trkpt>
      <trkpt lat="45.59158" lon="3.20512">
        <ele>508</ele>
        <time>2015-03-29T13:35:28+02:00</time>
      </trkpt>
      <trkpt lat="45.59156" lon="3.20508">
        <ele>508</ele>
        <time>2015-03-29T13:35:28+02:00</time>
      </trkpt>
      <trkpt lat="45.59155" lon="3.20504">
        <ele>507</ele>
        <time>2015-03-29T13:35:28+02:00</time>
      </trkpt>
      <trkpt lat="45.59154" lon="3.205">
        <ele>508</ele>
        <time>2015-03-29T13:35:28+02:00</time>
      </trkpt>
      <trkpt lat="45.59153" lon="3.20496">
        <ele>507</ele>
        <time>2015-03-29T13:35:28+02:00</time>
      </trkpt>
      <trkpt lat="45.59152" lon="3.20493">
        <ele>507</ele>
        <time>2015-03-29T13:35:28+02:00</time>
      </trkpt>
      <trkpt lat="45.5915" lon="3.20489">
        <ele>507</ele>
        <time>2015-03-29T13:35:28+02:00</time>
      </trkpt>
      <trkpt lat="45.59149" lon="3.20488">
        <ele>508</ele>
        <time>2015-03-29T13:35:28+02:00</time>
      </trkpt>
      <trkpt lat="45.59146" lon="3.20485">
        <ele>508</ele>
        <time>2015-03-29T13:35:28+02:00</time>
      </trkpt>
      <trkpt lat="45.59144" lon="3.20484">
        <ele>508</ele>
        <time>2015-03-29T13:35:28+02:00</time>
      </trkpt>
      <trkpt lat="45.59141" lon="3.20482">
        <ele>508</ele>
        <time>2015-03-29T13:35:28+02:00</time>
      </trkpt>
      <trkpt lat="45.59138" lon="3.2048">
        <ele>508</ele>
        <time>2015-03-29T13:35:28+02:00</time>
      </trkpt>
      <trkpt lat="45.59136" lon="3.20479">
        <ele>508</ele>
        <time>2015-03-29T13:35:28+02:00</time>
      </trkpt>
      <trkpt lat="45.59133" lon="3.20479">
        <ele>509</ele>
        <time>2015-03-29T13:35:28+02:00</time>
      </trkpt>
      <trkpt lat="45.5913" lon="3.20479">
        <ele>508</ele>
        <time>2015-03-29T13:35:28+02:00</time>
      </trkpt>
      <trkpt lat="45.59127" lon="3.20479">
        <ele>508</ele>
        <time>2015-03-29T13:35:28+02:00</time>
      </trkpt>
      <trkpt lat="45.59124" lon="3.2048">
        <ele>508</ele>
        <time>2015-03-29T13:35:28+02:00</time>
      </trkpt>
      <trkpt lat="45.59121" lon="3.2048">
        <ele>508</ele>
        <time>2015-03-29T13:35:28+02:00</time>
      </trkpt>
      <trkpt lat="45.59117" lon="3.20481">
        <ele>508</ele>
        <time>2015-03-29T13:35:28+02:00</time>
      </trkpt>
      <trkpt lat="45.59114" lon="3.20482">
        <ele>509</ele>
        <time>2015-03-29T13:35:28+02:00</time>
      </trkpt>
      <trkpt lat="45.59111" lon="3.20482">
        <ele>509</ele>
        <time>2015-03-29T13:35:28+02:00</time>
      </trkpt>
      <trkpt lat="45.59108" lon="3.20483">
        <ele>509</ele>
        <time>2015-03-29T13:35:28+02:00</time>
      </trkpt>
      <trkpt lat="45.59106" lon="3.20483">
        <ele>509</ele>
        <time>2015-03-29T13:35:28+02:00</time>
      </trkpt>
      <trkpt lat="45.59103" lon="3.20484">
        <ele>509</ele>
        <time>2015-03-29T13:35:28+02:00</time>
      </trkpt>
      <trkpt lat="45.59101" lon="3.20484">
        <ele>508</ele>
        <time>2015-03-29T13:35:28+02:00</time>
      </trkpt>
      <trkpt lat="45.59097" lon="3.20485">
        <ele>508</ele>
        <time>2015-03-29T13:35:28+02:00</time>
      </trkpt>
      <trkpt lat="45.59094" lon="3.20486">
        <ele>509</ele>
        <time>2015-03-29T13:35:28+02:00</time>
      </trkpt>
      <trkpt lat="45.59092" lon="3.20486">
        <ele>510</ele>
        <time>2015-03-29T13:35:28+02:00</time>
      </trkpt>
      <trkpt lat="45.5909" lon="3.20487">
        <ele>509</ele>
        <time>2015-03-29T13:35:28+02:00</time>
      </trkpt>
      <trkpt lat="45.59087" lon="3.20488">
        <ele>509</ele>
        <time>2015-03-29T13:35:28+02:00</time>
      </trkpt>
      <trkpt lat="45.59084" lon="3.20489">
        <ele>510</ele>
        <time>2015-03-29T13:35:28+02:00</time>
      </trkpt>
      <trkpt lat="45.59081" lon="3.2049">
        <ele>510</ele>
        <time>2015-03-29T13:35:28+02:00</time>
      </trkpt>
      <trkpt lat="45.59078" lon="3.2049">
        <ele>510</ele>
        <time>2015-03-29T13:35:28+02:00</time>
      </trkpt>
      <trkpt lat="45.59076" lon="3.2049">
        <ele>509</ele>
        <time>2015-03-29T13:35:28+02:00</time>
      </trkpt>
      <trkpt lat="45.59073" lon="3.20491">
        <ele>509</ele>
        <time>2015-03-29T13:35:28+02:00</time>
      </trkpt>
      <trkpt lat="45.5907" lon="3.20491">
        <ele>510</ele>
        <time>2015-03-29T13:35:28+02:00</time>
      </trkpt>
      <trkpt lat="45.59067" lon="3.20492">
        <ele>510</ele>
        <time>2015-03-29T13:35:28+02:00</time>
      </trkpt>
      <trkpt lat="45.59064" lon="3.20492">
        <ele>510</ele>
        <time>2015-03-29T13:35:28+02:00</time>
      </trkpt>
      <trkpt lat="45.59061" lon="3.20493">
        <ele>510</ele>
        <time>2015-03-29T13:35:28+02:00</time>
      </trkpt>
      <trkpt lat="45.59058" lon="3.20493">
        <ele>510</ele>
        <time>2015-03-29T13:37:36+02:00</time>
      </trkpt>
      <trkpt lat="45.59055" lon="3.20493">
        <ele>510</ele>
        <time>2015-03-29T13:37:36+02:00</time>
      </trkpt>
      <trkpt lat="45.59052" lon="3.20494">
        <ele>510</ele>
        <time>2015-03-29T13:37:36+02:00</time>
      </trkpt>
      <trkpt lat="45.59049" lon="3.20494">
        <ele>509</ele>
        <time>2015-03-29T13:37:36+02:00</time>
      </trkpt>
      <trkpt lat="45.59046" lon="3.20493">
        <ele>509</ele>
        <time>2015-03-29T13:37:36+02:00</time>
      </trkpt>
      <trkpt lat="45.59044" lon="3.20492">
        <ele>510</ele>
        <time>2015-03-29T13:37:36+02:00</time>
      </trkpt>
      <trkpt lat="45.59041" lon="3.20491">
        <ele>510</ele>
        <time>2015-03-29T13:37:36+02:00</time>
      </trkpt>
      <trkpt lat="45.59038" lon="3.20491">
        <ele>510</ele>
        <time>2015-03-29T13:37:36+02:00</time>
      </trkpt>
      <trkpt lat="45.59036" lon="3.20492">
        <ele>510</ele>
        <time>2015-03-29T13:37:36+02:00</time>
      </trkpt>
      <trkpt lat="45.59033" lon="3.20493">
        <ele>510</ele>
        <time>2015-03-29T13:37:36+02:00</time>
      </trkpt>
      <trkpt lat="45.59029" lon="3.20495">
        <ele>510</ele>
        <time>2015-03-29T13:37:36+02:00</time>
      </trkpt>
      <trkpt lat="45.59027" lon="3.20495">
        <ele>510</ele>
        <time>2015-03-29T13:37:36+02:00</time>
      </trkpt>
      <trkpt lat="45.59024" lon="3.20495">
        <ele>510</ele>
        <time>2015-03-29T13:37:36+02:00</time>
      </trkpt>
      <trkpt lat="45.59022" lon="3.20495">
        <ele>510</ele>
        <time>2015-03-29T13:37:36+02:00</time>
      </trkpt>
      <trkpt lat="45.5902" lon="3.20495">
        <ele>510</ele>
        <time>2015-03-29T13:37:36+02:00</time>
      </trkpt>
      <trkpt lat="45.59018" lon="3.20495">
        <ele>510</ele>
        <time>2015-03-29T13:37:36+02:00</time>
      </trkpt>
      <trkpt lat="45.59014" lon="3.20495">
        <ele>510</ele>
        <time>2015-03-29T13:37:36+02:00</time>
      </trkpt>
      <trkpt lat="45.59011" lon="3.20493">
        <ele>510</ele>
        <time>2015-03-29T13:37:36+02:00</time>
      </trkpt>
      <trkpt lat="45.59009" lon="3.20492">
        <ele>511</ele>
        <time>2015-03-29T13:37:36+02:00</time>
      </trkpt>
      <trkpt lat="45.59007" lon="3.20492">
        <ele>511</ele>
        <time>2015-03-29T13:37:36+02:00</time>
      </trkpt>
      <trkpt lat="45.59005" lon="3.20491">
        <ele>511</ele>
        <time>2015-03-29T13:37:36+02:00</time>
      </trkpt>
      <trkpt lat="45.59003" lon="3.20491">
        <ele>511</ele>
        <time>2015-03-29T13:37:36+02:00</time>
      </trkpt>
      <trkpt lat="45.59" lon="3.20489">
        <ele>510</ele>
        <time>2015-03-29T13:37:36+02:00</time>
      </trkpt>
      <trkpt lat="45.58999" lon="3.20488">
        <ele>510</ele>
        <time>2015-03-29T13:37:36+02:00</time>
      </trkpt>
      <trkpt lat="45.58996" lon="3.20488">
        <ele>510</ele>
        <time>2015-03-29T13:37:36+02:00</time>
      </trkpt>
      <trkpt lat="45.58994" lon="3.20487">
        <ele>511</ele>
        <time>2015-03-29T13:37:36+02:00</time>
      </trkpt>
      <trkpt lat="45.58993" lon="3.20486">
        <ele>511</ele>
        <time>2015-03-29T13:37:36+02:00</time>
      </trkpt>
      <trkpt lat="45.58989" lon="3.20486">
        <ele>510</ele>
        <time>2015-03-29T13:37:36+02:00</time>
      </trkpt>
      <trkpt lat="45.58987" lon="3.20485">
        <ele>510</ele>
        <time>2015-03-29T13:37:36+02:00</time>
      </trkpt>
      <trkpt lat="45.58983" lon="3.20484">
        <ele>509</ele>
        <time>2015-03-29T13:37:36+02:00</time>
      </trkpt>
      <trkpt lat="45.5898" lon="3.20484">
        <ele>509</ele>
        <time>2015-03-29T13:37:36+02:00</time>
      </trkpt>
      <trkpt lat="45.58977" lon="3.20483">
        <ele>509</ele>
        <time>2015-03-29T13:37:36+02:00</time>
      </trkpt>
      <trkpt lat="45.58974" lon="3.20482">
        <ele>508</ele>
        <time>2015-03-29T13:37:36+02:00</time>
      </trkpt>
      <trkpt lat="45.58971" lon="3.20481">
        <ele>508</ele>
        <time>2015-03-29T13:37:36+02:00</time>
      </trkpt>
      <trkpt lat="45.58968" lon="3.20479">
        <ele>508</ele>
        <time>2015-03-29T13:37:36+02:00</time>
      </trkpt>
      <trkpt lat="45.58965" lon="3.20479">
        <ele>508</ele>
        <time>2015-03-29T13:37:36+02:00</time>
      </trkpt>
      <trkpt lat="45.58963" lon="3.20478">
        <ele>508</ele>
        <time>2015-03-29T13:37:36+02:00</time>
      </trkpt>
      <trkpt lat="45.5896" lon="3.20477">
        <ele>508</ele>
        <time>2015-03-29T13:37:36+02:00</time>
      </trkpt>
      <trkpt lat="45.58957" lon="3.20476">
        <ele>509</ele>
        <time>2015-03-29T13:37:36+02:00</time>
      </trkpt>
      <trkpt lat="45.58954" lon="3.20475">
        <ele>508</ele>
        <time>2015-03-29T13:37:36+02:00</time>
      </trkpt>
      <trkpt lat="45.5895" lon="3.20475">
        <ele>508</ele>
        <time>2015-03-29T13:37:36+02:00</time>
      </trkpt>
      <trkpt lat="45.58947" lon="3.20474">
        <ele>508</ele>
        <time>2015-03-29T13:37:36+02:00</time>
      </trkpt>
      <trkpt lat="45.58944" lon="3.20472">
        <ele>507</ele>
        <time>2015-03-29T13:37:36+02:00</time>
      </trkpt>
      <trkpt lat="45.58941" lon="3.20471">
        <ele>508</ele>
        <time>2015-03-29T13:37:36+02:00</time>
      </trkpt>
      <trkpt lat="45.58939" lon="3.2047">
        <ele>509</ele>
        <time>2015-03-29T13:37:36+02:00</time>
      </trkpt>
      <trkpt lat="45.58935" lon="3.2047">
        <ele>508</ele>
        <time>2015-03-29T13:37:36+02:00</time>
      </trkpt>
      <trkpt lat="45.58932" lon="3.20469">
        <ele>508</ele>
        <time>2015-03-29T13:37:36+02:00</time>
      </trkpt>
      <trkpt lat="45.58929" lon="3.20468">
        <ele>507</ele>
        <time>2015-03-29T13:37:36+02:00</time>
      </trkpt>
      <trkpt lat="45.58926" lon="3.20467">
        <ele>507</ele>
        <time>2015-03-29T13:37:36+02:00</time>
      </trkpt>
      <trkpt lat="45.58924" lon="3.20468">
        <ele>508</ele>
        <time>2015-03-29T13:37:36+02:00</time>
      </trkpt>
      <trkpt lat="45.58922" lon="3.20467">
        <ele>509</ele>
        <time>2015-03-29T13:37:36+02:00</time>
      </trkpt>
      <trkpt lat="45.5892" lon="3.20467">
        <ele>509</ele>
        <time>2015-03-29T13:37:36+02:00</time>
      </trkpt>
      <trkpt lat="45.58917" lon="3.20466">
        <ele>509</ele>
        <time>2015-03-29T13:37:36+02:00</time>
      </trkpt>
      <trkpt lat="45.58914" lon="3.20464">
        <ele>509</ele>
        <time>2015-03-29T13:37:36+02:00</time>
      </trkpt>
      <trkpt lat="45.58911" lon="3.20462">
        <ele>508</ele>
        <time>2015-03-29T13:37:36+02:00</time>
      </trkpt>
      <trkpt lat="45.58907" lon="3.2046">
        <ele>508</ele>
        <time>2015-03-29T13:37:36+02:00</time>
      </trkpt>
      <trkpt lat="45.58906" lon="3.20459">
        <ele>508</ele>
        <time>2015-03-29T13:37:36+02:00</time>
      </trkpt>
      <trkpt lat="45.58903" lon="3.20458">
        <ele>507</ele>
        <time>2015-03-29T13:37:36+02:00</time>
      </trkpt>
      <trkpt lat="45.58902" lon="3.20458">
        <ele>507</ele>
        <time>2015-03-29T13:37:36+02:00</time>
      </trkpt>
      <trkpt lat="45.58898" lon="3.20457">
        <ele>507</ele>
        <time>2015-03-29T13:37:36+02:00</time>
      </trkpt>
      <trkpt lat="45.58896" lon="3.20455">
        <ele>507</ele>
        <time>2015-03-29T13:37:36+02:00</time>
      </trkpt>
      <trkpt lat="45.58892" lon="3.20454">
        <ele>506</ele>
        <time>2015-03-29T13:37:36+02:00</time>
      </trkpt>
      <trkpt lat="45.5889" lon="3.20453">
        <ele>506</ele>
        <time>2015-03-29T13:37:36+02:00</time>
      </trkpt>
      <trkpt lat="45.58888" lon="3.20452">
        <ele>506</ele>
        <time>2015-03-29T13:37:36+02:00</time>
      </trkpt>
      <trkpt lat="45.58886" lon="3.20451">
        <ele>506</ele>
        <time>2015-03-29T13:37:36+02:00</time>
      </trkpt>
      <trkpt lat="45.58883" lon="3.2045">
        <ele>506</ele>
        <time>2015-03-29T13:37:36+02:00</time>
      </trkpt>
      <trkpt lat="45.5888" lon="3.20448">
        <ele>505</ele>
        <time>2015-03-29T13:37:36+02:00</time>
      </trkpt>
      <trkpt lat="45.58877" lon="3.20447">
        <ele>505</ele>
        <time>2015-03-29T13:37:36+02:00</time>
      </trkpt>
      <trkpt lat="45.58875" lon="3.20446">
        <ele>505</ele>
        <time>2015-03-29T13:37:36+02:00</time>
      </trkpt>
      <trkpt lat="45.58872" lon="3.20445">
        <ele>505</ele>
        <time>2015-03-29T13:37:36+02:00</time>
      </trkpt>
      <trkpt lat="45.58869" lon="3.20443">
        <ele>506</ele>
        <time>2015-03-29T13:37:36+02:00</time>
      </trkpt>
      <trkpt lat="45.58866" lon="3.20442">
        <ele>506</ele>
        <time>2015-03-29T13:37:36+02:00</time>
      </trkpt>
      <trkpt lat="45.58864" lon="3.2044">
        <ele>505</ele>
        <time>2015-03-29T13:39:44+02:00</time>
      </trkpt>
      <trkpt lat="45.5886" lon="3.20439">
        <ele>505</ele>
        <time>2015-03-29T13:39:44+02:00</time>
      </trkpt>
      <trkpt lat="45.58857" lon="3.20438">
        <ele>505</ele>
        <time>2015-03-29T13:39:44+02:00</time>
      </trkpt>
      <trkpt lat="45.58855" lon="3.20438">
        <ele>504</ele>
        <time>2015-03-29T13:39:44+02:00</time>
      </trkpt>
      <trkpt lat="45.58851" lon="3.20437">
        <ele>504</ele>
        <time>2015-03-29T13:39:44+02:00</time>
      </trkpt>
      <trkpt lat="45.58849" lon="3.20436">
        <ele>504</ele>
        <time>2015-03-29T13:39:44+02:00</time>
      </trkpt>
      <trkpt lat="45.58845" lon="3.20436">
        <ele>504</ele>
        <time>2015-03-29T13:39:44+02:00</time>
      </trkpt>
      <trkpt lat="45.58842" lon="3.20436">
        <ele>504</ele>
        <time>2015-03-29T13:39:44+02:00</time>
      </trkpt>
      <trkpt lat="45.58838" lon="3.20435">
        <ele>504</ele>
        <time>2015-03-29T13:39:44+02:00</time>
      </trkpt>
      <trkpt lat="45.58837" lon="3.20437">
        <ele>504</ele>
        <time>2015-03-29T13:39:44+02:00</time>
      </trkpt>
      <trkpt lat="45.58835" lon="3.20436">
        <ele>504</ele>
        <time>2015-03-29T13:39:44+02:00</time>
      </trkpt>
      <trkpt lat="45.58832" lon="3.20435">
        <ele>503</ele>
        <time>2015-03-29T13:39:44+02:00</time>
      </trkpt>
      <trkpt lat="45.58829" lon="3.20434">
        <ele>501</ele>
        <time>2015-03-29T13:39:44+02:00</time>
      </trkpt>
      <trkpt lat="45.58826" lon="3.20435">
        <ele>500</ele>
        <time>2015-03-29T13:39:44+02:00</time>
      </trkpt>
      <trkpt lat="45.58823" lon="3.20435">
        <ele>500</ele>
        <time>2015-03-29T13:39:44+02:00</time>
      </trkpt>
      <trkpt lat="45.5882" lon="3.20435">
        <ele>500</ele>
        <time>2015-03-29T13:39:44+02:00</time>
      </trkpt>
      <trkpt lat="45.58818" lon="3.20436">
        <ele>501</ele>
        <time>2015-03-29T13:39:44+02:00</time>
      </trkpt>
      <trkpt lat="45.58816" lon="3.20437">
        <ele>501</ele>
        <time>2015-03-29T13:39:44+02:00</time>
      </trkpt>
      <trkpt lat="45.58813" lon="3.20438">
        <ele>500</ele>
        <time>2015-03-29T13:39:44+02:00</time>
      </trkpt>
      <trkpt lat="45.58811" lon="3.20439">
        <ele>501</ele>
        <time>2015-03-29T13:39:44+02:00</time>
      </trkpt>
      <trkpt lat="45.58808" lon="3.2044">
        <ele>500</ele>
        <time>2015-03-29T13:39:44+02:00</time>
      </trkpt>
      <trkpt lat="45.58805" lon="3.20441">
        <ele>499</ele>
        <time>2015-03-29T13:39:44+02:00</time>
      </trkpt>
      <trkpt lat="45.58802" lon="3.20444">
        <ele>500</ele>
        <time>2015-03-29T13:39:44+02:00</time>
      </trkpt>
      <trkpt lat="45.588" lon="3.20445">
        <ele>500</ele>
        <time>2015-03-29T13:39:44+02:00</time>
      </trkpt>
      <trkpt lat="45.58799" lon="3.20448">
        <ele>499</ele>
        <time>2015-03-29T13:39:44+02:00</time>
      </trkpt>
      <trkpt lat="45.58796" lon="3.20451">
        <ele>498</ele>
        <time>2015-03-29T13:39:44+02:00</time>
      </trkpt>
      <trkpt lat="45.58795" lon="3.20455">
        <ele>497</ele>
        <time>2015-03-29T13:39:44+02:00</time>
      </trkpt>
      <trkpt lat="45.58794" lon="3.20458">
        <ele>497</ele>
        <time>2015-03-29T13:39:44+02:00</time>
      </trkpt>
      <trkpt lat="45.58793" lon="3.20461">
        <ele>497</ele>
        <time>2015-03-29T13:39:44+02:00</time>
      </trkpt>
      <trkpt lat="45.58793" lon="3.20465">
        <ele>495</ele>
        <time>2015-03-29T13:39:44+02:00</time>
      </trkpt>
      <trkpt lat="45.58794" lon="3.20468">
        <ele>495</ele>
        <time>2015-03-29T13:39:44+02:00</time>
      </trkpt>
      <trkpt lat="45.58794" lon="3.20471">
        <ele>496</ele>
        <time>2015-03-29T13:39:44+02:00</time>
      </trkpt>
      <trkpt lat="45.58792" lon="3.20472">
        <ele>496</ele>
        <time>2015-03-29T13:39:44+02:00</time>
      </trkpt>
      <trkpt lat="45.5879" lon="3.20472">
        <ele>497</ele>
        <time>2015-03-29T13:39:44+02:00</time>
      </trkpt>
      <trkpt lat="45.58787" lon="3.20472">
        <ele>496</ele>
        <time>2015-03-29T13:39:44+02:00</time>
      </trkpt>
      <trkpt lat="45.58785" lon="3.20473">
        <ele>497</ele>
        <time>2015-03-29T13:39:44+02:00</time>
      </trkpt>
      <trkpt lat="45.58782" lon="3.20476">
        <ele>497</ele>
        <time>2015-03-29T13:39:44+02:00</time>
      </trkpt>
      <trkpt lat="45.5878" lon="3.20478">
        <ele>497</ele>
        <time>2015-03-29T13:39:44+02:00</time>
      </trkpt>
      <trkpt lat="45.58778" lon="3.20481">
        <ele>498</ele>
        <time>2015-03-29T13:39:44+02:00</time>
      </trkpt>
      <trkpt lat="45.58777" lon="3.20484">
        <ele>498</ele>
        <time>2015-03-29T13:39:44+02:00</time>
      </trkpt>
      <trkpt lat="45.58775" lon="3.20486">
        <ele>498</ele>
        <time>2015-03-29T13:39:44+02:00</time>
      </trkpt>
      <trkpt lat="45.58773" lon="3.2049">
        <ele>498</ele>
        <time>2015-03-29T13:39:44+02:00</time>
      </trkpt>
      <trkpt lat="45.58771" lon="3.20493">
        <ele>498</ele>
        <time>2015-03-29T13:39:44+02:00</time>
      </trkpt>
      <trkpt lat="45.5877" lon="3.20495">
        <ele>498</ele>
        <time>2015-03-29T13:39:44+02:00</time>
      </trkpt>
      <trkpt lat="45.58771" lon="3.20493">
        <ele>498</ele>
        <time>2015-03-29T13:39:44+02:00</time>
      </trkpt>
      <trkpt lat="45.58773" lon="3.20489">
        <ele>497</ele>
        <time>2015-03-29T13:41:52+02:00</time>
      </trkpt>
      <trkpt lat="45.58774" lon="3.20487">
        <ele>497</ele>
        <time>2015-03-29T13:41:52+02:00</time>
      </trkpt>
      <trkpt lat="45.58776" lon="3.20483">
        <ele>497</ele>
        <time>2015-03-29T13:41:52+02:00</time>
      </trkpt>
      <trkpt lat="45.58778" lon="3.2048">
        <ele>496</ele>
        <time>2015-03-29T13:41:52+02:00</time>
      </trkpt>
      <trkpt lat="45.58779" lon="3.20478">
        <ele>495</ele>
        <time>2015-03-29T13:41:52+02:00</time>
      </trkpt>
      <trkpt lat="45.58781" lon="3.20475">
        <ele>495</ele>
        <time>2015-03-29T13:41:52+02:00</time>
      </trkpt>
      <trkpt lat="45.58785" lon="3.20475">
        <ele>495</ele>
        <time>2015-03-29T13:41:52+02:00</time>
      </trkpt>
      <trkpt lat="45.58788" lon="3.20475">
        <ele>494</ele>
        <time>2015-03-29T13:41:52+02:00</time>
      </trkpt>
      <trkpt lat="45.5879" lon="3.20477">
        <ele>494</ele>
        <time>2015-03-29T13:41:52+02:00</time>
      </trkpt>
      <trkpt lat="45.58792" lon="3.20481">
        <ele>493</ele>
        <time>2015-03-29T13:41:52+02:00</time>
      </trkpt>
      <trkpt lat="45.58795" lon="3.20484">
        <ele>493</ele>
        <time>2015-03-29T13:41:52+02:00</time>
      </trkpt>
      <trkpt lat="45.58797" lon="3.20487">
        <ele>492</ele>
        <time>2015-03-29T13:41:52+02:00</time>
      </trkpt>
      <trkpt lat="45.58799" lon="3.2049">
        <ele>492</ele>
        <time>2015-03-29T13:41:52+02:00</time>
      </trkpt>
      <trkpt lat="45.588" lon="3.20492">
        <ele>491</ele>
        <time>2015-03-29T13:41:52+02:00</time>
      </trkpt>
      <trkpt lat="45.58803" lon="3.20495">
        <ele>491</ele>
        <time>2015-03-29T13:41:52+02:00</time>
      </trkpt>
      <trkpt lat="45.58806" lon="3.20498">
        <ele>491</ele>
        <time>2015-03-29T13:41:52+02:00</time>
      </trkpt>
      <trkpt lat="45.58808" lon="3.20501">
        <ele>490</ele>
        <time>2015-03-29T13:41:52+02:00</time>
      </trkpt>
      <trkpt lat="45.5881" lon="3.20504">
        <ele>490</ele>
        <time>2015-03-29T13:41:52+02:00</time>
      </trkpt>
      <trkpt lat="45.58813" lon="3.20506">
        <ele>489</ele>
        <time>2015-03-29T13:41:52+02:00</time>
      </trkpt>
      <trkpt lat="45.58815" lon="3.20509">
        <ele>489</ele>
        <time>2015-03-29T13:41:52+02:00</time>
      </trkpt>
      <trkpt lat="45.58818" lon="3.20512">
        <ele>489</ele>
        <time>2015-03-29T13:41:52+02:00</time>
      </trkpt>
      <trkpt lat="45.58818" lon="3.20509">
        <ele>490</ele>
        <time>2015-03-29T13:41:52+02:00</time>
      </trkpt>
      <trkpt lat="45.58817" lon="3.20507">
        <ele>490</ele>
        <time>2015-03-29T13:41:52+02:00</time>
      </trkpt>
      <trkpt lat="45.58818" lon="3.20504">
        <ele>491</ele>
        <time>2015-03-29T13:41:52+02:00</time>
      </trkpt>
      <trkpt lat="45.58816" lon="3.20502">
        <ele>492</ele>
        <time>2015-03-29T13:41:52+02:00</time>
      </trkpt>
      <trkpt lat="45.58813" lon="3.20498">
        <ele>492</ele>
        <time>2015-03-29T13:41:52+02:00</time>
      </trkpt>
      <trkpt lat="45.58811" lon="3.20495">
        <ele>492</ele>
        <time>2015-03-29T13:41:52+02:00</time>
      </trkpt>
      <trkpt lat="45.58809" lon="3.20493">
        <ele>492</ele>
        <time>2015-03-29T13:41:52+02:00</time>
      </trkpt>
      <trkpt lat="45.58808" lon="3.20491">
        <ele>493</ele>
        <time>2015-03-29T13:41:52+02:00</time>
      </trkpt>
      <trkpt lat="45.58806" lon="3.20488">
        <ele>493</ele>
        <time>2015-03-29T13:41:52+02:00</time>
      </trkpt>
      <trkpt lat="45.58804" lon="3.20485">
        <ele>494</ele>
        <time>2015-03-29T13:41:52+02:00</time>
      </trkpt>
      <trkpt lat="45.58802" lon="3.20482">
        <ele>494</ele>
        <time>2015-03-29T13:41:52+02:00</time>
      </trkpt>
      <trkpt lat="45.588" lon="3.2048">
        <ele>495</ele>
        <time>2015-03-29T13:41:52+02:00</time>
      </trkpt>
      <trkpt lat="45.58798" lon="3.20476">
        <ele>495</ele>
        <time>2015-03-29T13:41:52+02:00</time>
      </trkpt>
      <trkpt lat="45.58796" lon="3.20472">
        <ele>496</ele>
        <time>2015-03-29T13:41:52+02:00</time>
      </trkpt>
      <trkpt lat="45.58796" lon="3.20468">
        <ele>496</ele>
        <time>2015-03-29T13:41:52+02:00</time>
      </trkpt>
      <trkpt lat="45.58795" lon="3.20463">
        <ele>497</ele>
        <time>2015-03-29T13:41:52+02:00</time>
      </trkpt>
      <trkpt lat="45.58794" lon="3.20459">
        <ele>497</ele>
        <time>2015-03-29T13:41:52+02:00</time>
      </trkpt>
      <trkpt lat="45.58793" lon="3.20454">
        <ele>498</ele>
        <time>2015-03-29T13:44:00+02:00</time>
      </trkpt>
      <trkpt lat="45.58792" lon="3.2045">
        <ele>498</ele>
        <time>2015-03-29T13:44:00+02:00</time>
      </trkpt>
      <trkpt lat="45.58791" lon="3.20446">
        <ele>498</ele>
        <time>2015-03-29T13:44:00+02:00</time>
      </trkpt>
      <trkpt lat="45.58789" lon="3.20442">
        <ele>498</ele>
        <time>2015-03-29T13:44:00+02:00</time>
      </trkpt>
      <trkpt lat="45.58788" lon="3.20438">
        <ele>499</ele>
        <time>2015-03-29T13:44:00+02:00</time>
      </trkpt>
      <trkpt lat="45.58786" lon="3.20434">
        <ele>499</ele>
        <time>2015-03-29T13:44:00+02:00</time>
      </trkpt>
      <trkpt lat="45.58784" lon="3.2043">
        <ele>499</ele>
        <time>2015-03-29T13:44:00+02:00</time>
      </trkpt>
      <trkpt lat="45.58783" lon="3.20428">
        <ele>499</ele>
        <time>2015-03-29T13:44:00+02:00</time>
      </trkpt>
      <trkpt lat="45.58781" lon="3.20426">
        <ele>499</ele>
        <time>2015-03-29T13:44:00+02:00</time>
      </trkpt>
      <trkpt lat="45.58779" lon="3.20423">
        <ele>500</ele>
        <time>2015-03-29T13:44:00+02:00</time>
      </trkpt>
      <trkpt lat="45.58778" lon="3.20421">
        <ele>500</ele>
        <time>2015-03-29T13:44:00+02:00</time>
      </trkpt>
      <trkpt lat="45.58777" lon="3.20419">
        <ele>499</ele>
        <time>2015-03-29T13:44:00+02:00</time>
      </trkpt>
      <trkpt lat="45.58775" lon="3.20417">
        <ele>499</ele>
        <time>2015-03-29T13:44:00+02:00</time>
      </trkpt>
      <trkpt lat="45.58773" lon="3.20414">
        <ele>499</ele>
        <time>2015-03-29T13:44:00+02:00</time>
      </trkpt>
      <trkpt lat="45.58771" lon="3.20412">
        <ele>499</ele>
        <time>2015-03-29T13:44:00+02:00</time>
      </trkpt>
      <trkpt lat="45.58769" lon="3.20409">
        <ele>500</ele>
        <time>2015-03-29T13:44:00+02:00</time>
      </trkpt>
      <trkpt lat="45.58767" lon="3.20406">
        <ele>500</ele>
        <time>2015-03-29T13:44:00+02:00</time>
      </trkpt>
      <trkpt lat="45.58765" lon="3.20403">
        <ele>501</ele>
        <time>2015-03-29T13:44:00+02:00</time>
      </trkpt>
      <trkpt lat="45.58763" lon="3.204">
        <ele>501</ele>
        <time>2015-03-29T13:44:00+02:00</time>
      </trkpt>
      <trkpt lat="45.58761" lon="3.20397">
        <ele>502</ele>
        <time>2015-03-29T13:44:00+02:00</time>
      </trkpt>
      <trkpt lat="45.5876" lon="3.20395">
        <ele>502</ele>
        <time>2015-03-29T13:44:00+02:00</time>
      </trkpt>
      <trkpt lat="45.58758" lon="3.20392">
        <ele>502</ele>
        <time>2015-03-29T13:44:00+02:00</time>
      </trkpt>
      <trkpt lat="45.58756" lon="3.20389">
        <ele>502</ele>
        <time>2015-03-29T13:44:00+02:00</time>
      </trkpt>
      <trkpt lat="45.58754" lon="3.20387">
        <ele>503</ele>
        <time>2015-03-29T13:44:00+02:00</time>
      </trkpt>
      <trkpt lat="45.58752" lon="3.20384">
        <ele>503</ele>
        <time>2015-03-29T13:44:00+02:00</time>
      </trkpt>
      <trkpt lat="45.58751" lon="3.20381">
        <ele>501</ele>
        <time>2015-03-29T13:44:00+02:00</time>
      </trkpt>
      <trkpt lat="45.58749" lon="3.20377">
        <ele>502</ele>
        <time>2015-03-29T13:44:00+02:00</time>
      </trkpt>
      <trkpt lat="45.58746" lon="3.20373">
        <ele>502</ele>
        <time>2015-03-29T13:44:00+02:00</time>
      </trkpt>
      <trkpt lat="45.58744" lon="3.20369">
        <ele>503</ele>
        <time>2015-03-29T13:44:00+02:00</time>
      </trkpt>
      <trkpt lat="45.58742" lon="3.20365">
        <ele>503</ele>
        <time>2015-03-29T13:44:00+02:00</time>
      </trkpt>
      <trkpt lat="45.58739" lon="3.20362">
        <ele>502</ele>
        <time>2015-03-29T13:44:00+02:00</time>
      </trkpt>
      <trkpt lat="45.58737" lon="3.20358">
        <ele>503</ele>
        <time>2015-03-29T13:44:00+02:00</time>
      </trkpt>
      <trkpt lat="45.58734" lon="3.20355">
        <ele>503</ele>
        <time>2015-03-29T13:44:00+02:00</time>
      </trkpt>
      <trkpt lat="45.58731" lon="3.20351">
        <ele>503</ele>
        <time>2015-03-29T13:44:00+02:00</time>
      </trkpt>
      <trkpt lat="45.58728" lon="3.20347">
        <ele>503</ele>
        <time>2015-03-29T13:44:00+02:00</time>
      </trkpt>
      <trkpt lat="45.58726" lon="3.20343">
        <ele>504</ele>
        <time>2015-03-29T13:44:00+02:00</time>
      </trkpt>
      <trkpt lat="45.58723" lon="3.2034">
        <ele>504</ele>
        <time>2015-03-29T13:44:00+02:00</time>
      </trkpt>
      <trkpt lat="45.5872" lon="3.20336">
        <ele>504</ele>
        <time>2015-03-29T13:44:00+02:00</time>
      </trkpt>
      <trkpt lat="45.58717" lon="3.20333">
        <ele>504</ele>
        <time>2015-03-29T13:44:00+02:00</time>
      </trkpt>
      <trkpt lat="45.58715" lon="3.20329">
        <ele>505</ele>
        <time>2015-03-29T13:44:00+02:00</time>
      </trkpt>
      <trkpt lat="45.58712" lon="3.20326">
        <ele>505</ele>
        <time>2015-03-29T13:44:00+02:00</time>
      </trkpt>
      <trkpt lat="45.58709" lon="3.20322">
        <ele>505</ele>
        <time>2015-03-29T13:44:00+02:00</time>
      </trkpt>
      <trkpt lat="45.58706" lon="3.20319">
        <ele>505</ele>
        <time>2015-03-29T13:44:00+02:00</time>
      </trkpt>
      <trkpt lat="45.58703" lon="3.20315">
        <ele>505</ele>
        <time>2015-03-29T13:44:00+02:00</time>
      </trkpt>
      <trkpt lat="45.587" lon="3.20311">
        <ele>505</ele>
        <time>2015-03-29T13:44:00+02:00</time>
      </trkpt>
      <trkpt lat="45.58697" lon="3.20308">
        <ele>506</ele>
        <time>2015-03-29T13:44:00+02:00</time>
      </trkpt>
      <trkpt lat="45.58694" lon="3.20304">
        <ele>506</ele>
        <time>2015-03-29T13:44:00+02:00</time>
      </trkpt>
      <trkpt lat="45.58692" lon="3.20301">
        <ele>506</ele>
        <time>2015-03-29T13:44:00+02:00</time>
      </trkpt>
      <trkpt lat="45.58689" lon="3.20298">
        <ele>506</ele>
        <time>2015-03-29T13:44:00+02:00</time>
      </trkpt>
      <trkpt lat="45.58687" lon="3.20294">
        <ele>507</ele>
        <time>2015-03-29T13:44:00+02:00</time>
      </trkpt>
      <trkpt lat="45.58684" lon="3.20291">
        <ele>507</ele>
        <time>2015-03-29T13:44:00+02:00</time>
      </trkpt>
      <trkpt lat="45.58681" lon="3.20288">
        <ele>507</ele>
        <time>2015-03-29T13:44:00+02:00</time>
      </trkpt>
      <trkpt lat="45.58678" lon="3.20284">
        <ele>507</ele>
        <time>2015-03-29T13:44:00+02:00</time>
      </trkpt>
      <trkpt lat="45.58676" lon="3.20281">
        <ele>507</ele>
        <time>2015-03-29T13:44:00+02:00</time>
      </trkpt>
      <trkpt lat="45.58672" lon="3.20277">
        <ele>508</ele>
        <time>2015-03-29T13:44:00+02:00</time>
      </trkpt>
      <trkpt lat="45.5867" lon="3.20274">
        <ele>508</ele>
        <time>2015-03-29T13:44:00+02:00</time>
      </trkpt>
      <trkpt lat="45.58667" lon="3.2027">
        <ele>508</ele>
        <time>2015-03-29T13:44:00+02:00</time>
      </trkpt>
      <trkpt lat="45.58664" lon="3.20267">
        <ele>508</ele>
        <time>2015-03-29T13:44:00+02:00</time>
      </trkpt>
      <trkpt lat="45.58661" lon="3.20263">
        <ele>508</ele>
        <time>2015-03-29T13:44:00+02:00</time>
      </trkpt>
      <trkpt lat="45.58658" lon="3.2026">
        <ele>509</ele>
        <time>2015-03-29T13:44:00+02:00</time>
      </trkpt>
      <trkpt lat="45.58656" lon="3.20256">
        <ele>509</ele>
        <time>2015-03-29T13:44:00+02:00</time>
      </trkpt>
      <trkpt lat="45.58653" lon="3.20252">
        <ele>509</ele>
        <time>2015-03-29T13:44:00+02:00</time>
      </trkpt>
      <trkpt lat="45.5865" lon="3.20249">
        <ele>509</ele>
        <time>2015-03-29T13:44:00+02:00</time>
      </trkpt>
      <trkpt lat="45.58648" lon="3.20246">
        <ele>510</ele>
        <time>2015-03-29T13:44:00+02:00</time>
      </trkpt>
      <trkpt lat="45.58645" lon="3.20243">
        <ele>510</ele>
        <time>2015-03-29T13:44:00+02:00</time>
      </trkpt>
      <trkpt lat="45.58642" lon="3.20239">
        <ele>510</ele>
        <time>2015-03-29T13:44:00+02:00</time>
      </trkpt>
      <trkpt lat="45.58639" lon="3.20236">
        <ele>510</ele>
        <time>2015-03-29T13:44:00+02:00</time>
      </trkpt>
      <trkpt lat="45.58636" lon="3.20233">
        <ele>510</ele>
        <time>2015-03-29T13:44:00+02:00</time>
      </trkpt>
      <trkpt lat="45.58633" lon="3.20229">
        <ele>511</ele>
        <time>2015-03-29T13:44:00+02:00</time>
      </trkpt>
      <trkpt lat="45.5863" lon="3.20225">
        <ele>511</ele>
        <time>2015-03-29T13:44:00+02:00</time>
      </trkpt>
      <trkpt lat="45.58627" lon="3.20221">
        <ele>511</ele>
        <time>2015-03-29T13:44:00+02:00</time>
      </trkpt>
      <trkpt lat="45.58623" lon="3.20217">
        <ele>512</ele>
        <time>2015-03-29T13:44:00+02:00</time>
      </trkpt>
      <trkpt lat="45.5862" lon="3.20213">
        <ele>512</ele>
        <time>2015-03-29T13:44:00+02:00</time>
      </trkpt>
      <trkpt lat="45.58617" lon="3.20209">
        <ele>512</ele>
        <time>2015-03-29T13:44:00+02:00</time>
      </trkpt>
      <trkpt lat="45.58614" lon="3.20205">
        <ele>513</ele>
        <time>2015-03-29T13:44:00+02:00</time>
      </trkpt>
      <trkpt lat="45.58611" lon="3.20201">
        <ele>513</ele>
        <time>2015-03-29T13:44:00+02:00</time>
      </trkpt>
      <trkpt lat="45.58608" lon="3.20197">
        <ele>513</ele>
        <time>2015-03-29T13:44:00+02:00</time>
      </trkpt>
      <trkpt lat="45.58605" lon="3.20192">
        <ele>513</ele>
        <time>2015-03-29T13:44:00+02:00</time>
      </trkpt>
      <trkpt lat="45.58602" lon="3.20187">
        <ele>513</ele>
        <time>2015-03-29T13:44:00+02:00</time>
      </trkpt>
      <trkpt lat="45.58599" lon="3.20182">
        <ele>514</ele>
        <time>2015-03-29T13:44:00+02:00</time>
      </trkpt>
      <trkpt lat="45.58596" lon="3.20177">
        <ele>514</ele>
        <time>2015-03-29T13:44:00+02:00</time>
      </trkpt>
      <trkpt lat="45.58594" lon="3.20172">
        <ele>514</ele>
        <time>2015-03-29T13:44:00+02:00</time>
      </trkpt>
      <trkpt lat="45.58591" lon="3.20164">
        <ele>515</ele>
        <time>2015-03-29T13:44:00+02:00</time>
      </trkpt>
      <trkpt lat="45.58591" lon="3.20161">
        <ele>514</ele>
        <time>2015-03-29T13:44:00+02:00</time>
      </trkpt>
      <trkpt lat="45.58589" lon="3.20157">
        <ele>515</ele>
        <time>2015-03-29T13:44:00+02:00</time>
      </trkpt>
      <trkpt lat="45.58588" lon="3.20153">
        <ele>515</ele>
        <time>2015-03-29T13:44:00+02:00</time>
      </trkpt>
      <trkpt lat="45.58586" lon="3.20148">
        <ele>515</ele>
        <time>2015-03-29T13:44:00+02:00</time>
      </trkpt>
      <trkpt lat="45.58584" lon="3.20143">
        <ele>516</ele>
        <time>2015-03-29T13:44:00+02:00</time>
      </trkpt>
      <trkpt lat="45.58582" lon="3.20138">
        <ele>515</ele>
        <time>2015-03-29T13:44:00+02:00</time>
      </trkpt>
      <trkpt lat="45.5858" lon="3.20132">
        <ele>516</ele>
        <time>2015-03-29T13:44:00+02:00</time>
      </trkpt>
      <trkpt lat="45.58578" lon="3.20126">
        <ele>516</ele>
        <time>2015-03-29T13:44:00+02:00</time>
      </trkpt>
      <trkpt lat="45.58575" lon="3.2012">
        <ele>517</ele>
        <time>2015-03-29T13:44:00+02:00</time>
      </trkpt>
      <trkpt lat="45.58573" lon="3.20113">
        <ele>517</ele>
        <time>2015-03-29T13:44:00+02:00</time>
      </trkpt>
      <trkpt lat="45.5857" lon="3.20109">
        <ele>518</ele>
        <time>2015-03-29T13:44:00+02:00</time>
      </trkpt>
      <trkpt lat="45.58568" lon="3.20103">
        <ele>518</ele>
        <time>2015-03-29T13:44:00+02:00</time>
      </trkpt>
      <trkpt lat="45.58566" lon="3.20098">
        <ele>518</ele>
        <time>2015-03-29T13:44:00+02:00</time>
      </trkpt>
      <trkpt lat="45.58564" lon="3.20093">
        <ele>518</ele>
        <time>2015-03-29T13:44:00+02:00</time>
      </trkpt>
      <trkpt lat="45.58562" lon="3.20088">
        <ele>519</ele>
        <time>2015-03-29T13:44:00+02:00</time>
      </trkpt>
      <trkpt lat="45.5856" lon="3.20082">
        <ele>519</ele>
        <time>2015-03-29T13:44:00+02:00</time>
      </trkpt>
      <trkpt lat="45.58556" lon="3.20072">
        <ele>519</ele>
        <time>2015-03-29T13:44:00+02:00</time>
      </trkpt>
      <trkpt lat="45.58554" lon="3.20067">
        <ele>519</ele>
        <time>2015-03-29T13:44:00+02:00</time>
      </trkpt>
      <trkpt lat="45.58553" lon="3.20061">
        <ele>520</ele>
        <time>2015-03-29T13:44:00+02:00</time>
      </trkpt>
      <trkpt lat="45.58551" lon="3.20056">
        <ele>520</ele>
        <time>2015-03-29T13:44:00+02:00</time>
      </trkpt>
      <trkpt lat="45.58547" lon="3.20047">
        <ele>520</ele>
        <time>2015-03-29T13:44:00+02:00</time>
      </trkpt>
      <trkpt lat="45.58546" lon="3.20043">
        <ele>520</ele>
        <time>2015-03-29T13:44:00+02:00</time>
      </trkpt>
      <trkpt lat="45.58544" lon="3.20038">
        <ele>520</ele>
        <time>2015-03-29T13:44:00+02:00</time>
      </trkpt>
      <trkpt lat="45.58541" lon="3.20031">
        <ele>521</ele>
        <time>2015-03-29T13:44:00+02:00</time>
      </trkpt>
      <trkpt lat="45.58539" lon="3.20026">
        <ele>521</ele>
        <time>2015-03-29T13:44:00+02:00</time>
      </trkpt>
      <trkpt lat="45.58537" lon="3.2002">
        <ele>521</ele>
        <time>2015-03-29T13:44:00+02:00</time>
      </trkpt>
      <trkpt lat="45.58535" lon="3.20013">
        <ele>521</ele>
        <time>2015-03-29T13:44:00+02:00</time>
      </trkpt>
      <trkpt lat="45.58533" lon="3.20005">
        <ele>521</ele>
        <time>2015-03-29T13:46:08+02:00</time>
      </trkpt>
      <trkpt lat="45.5853" lon="3.19997">
        <ele>521</ele>
        <time>2015-03-29T13:46:08+02:00</time>
      </trkpt>
      <trkpt lat="45.58528" lon="3.1999">
        <ele>522</ele>
        <time>2015-03-29T13:46:08+02:00</time>
      </trkpt>
      <trkpt lat="45.58525" lon="3.19982">
        <ele>522</ele>
        <time>2015-03-29T13:46:08+02:00</time>
      </trkpt>
      <trkpt lat="45.58523" lon="3.19973">
        <ele>522</ele>
        <time>2015-03-29T13:46:08+02:00</time>
      </trkpt>
      <trkpt lat="45.5852" lon="3.19964">
        <ele>522</ele>
        <time>2015-03-29T13:46:08+02:00</time>
      </trkpt>
      <trkpt lat="45.58518" lon="3.19957">
        <ele>522</ele>
        <time>2015-03-29T13:46:08+02:00</time>
      </trkpt>
      <trkpt lat="45.58515" lon="3.19949">
        <ele>523</ele>
        <time>2015-03-29T13:46:08+02:00</time>
      </trkpt>
      <trkpt lat="45.58515" lon="3.19943">
        <ele>523</ele>
        <time>2015-03-29T13:46:08+02:00</time>
      </trkpt>
      <trkpt lat="45.58513" lon="3.19936">
        <ele>523</ele>
        <time>2015-03-29T13:46:08+02:00</time>
      </trkpt>
      <trkpt lat="45.5851" lon="3.19929">
        <ele>524</ele>
        <time>2015-03-29T13:46:08+02:00</time>
      </trkpt>
      <trkpt lat="45.58508" lon="3.19922">
        <ele>524</ele>
        <time>2015-03-29T13:46:08+02:00</time>
      </trkpt>
      <trkpt lat="45.58506" lon="3.19915">
        <ele>525</ele>
        <time>2015-03-29T13:46:08+02:00</time>
      </trkpt>
      <trkpt lat="45.58503" lon="3.19908">
        <ele>525</ele>
        <time>2015-03-29T13:46:08+02:00</time>
      </trkpt>
      <trkpt lat="45.585" lon="3.19901">
        <ele>526</ele>
        <time>2015-03-29T13:46:08+02:00</time>
      </trkpt>
      <trkpt lat="45.58498" lon="3.19895">
        <ele>526</ele>
        <time>2015-03-29T13:46:08+02:00</time>
      </trkpt>
      <trkpt lat="45.58495" lon="3.19888">
        <ele>526</ele>
        <time>2015-03-29T13:46:08+02:00</time>
      </trkpt>
      <trkpt lat="45.58491" lon="3.19882">
        <ele>526</ele>
        <time>2015-03-29T13:46:08+02:00</time>
      </trkpt>
      <trkpt lat="45.58488" lon="3.19876">
        <ele>527</ele>
        <time>2015-03-29T13:46:08+02:00</time>
      </trkpt>
      <trkpt lat="45.58479" lon="3.19859">
        <ele>527</ele>
        <time>2015-03-29T13:46:08+02:00</time>
      </trkpt>
      <trkpt lat="45.58476" lon="3.19854">
        <ele>527</ele>
        <time>2015-03-29T13:46:08+02:00</time>
      </trkpt>
      <trkpt lat="45.58472" lon="3.19849">
        <ele>527</ele>
        <time>2015-03-29T13:46:08+02:00</time>
      </trkpt>
      <trkpt lat="45.58469" lon="3.19845">
        <ele>527</ele>
        <time>2015-03-29T13:46:08+02:00</time>
      </trkpt>
      <trkpt lat="45.58466" lon="3.19839">
        <ele>528</ele>
        <time>2015-03-29T13:46:08+02:00</time>
      </trkpt>
      <trkpt lat="45.58459" lon="3.19829">
        <ele>528</ele>
        <time>2015-03-29T13:46:08+02:00</time>
      </trkpt>
      <trkpt lat="45.58455" lon="3.19824">
        <ele>528</ele>
        <time>2015-03-29T13:46:08+02:00</time>
      </trkpt>
      <trkpt lat="45.58444" lon="3.1981">
        <ele>528</ele>
        <time>2015-03-29T13:46:08+02:00</time>
      </trkpt>
      <trkpt lat="45.5844" lon="3.19806">
        <ele>528</ele>
        <time>2015-03-29T13:46:08+02:00</time>
      </trkpt>
      <trkpt lat="45.58436" lon="3.19801">
        <ele>529</ele>
        <time>2015-03-29T13:46:08+02:00</time>
      </trkpt>
      <trkpt lat="45.58433" lon="3.19796">
        <ele>529</ele>
        <time>2015-03-29T13:46:08+02:00</time>
      </trkpt>
      <trkpt lat="45.58428" lon="3.19791">
        <ele>529</ele>
        <time>2015-03-29T13:46:08+02:00</time>
      </trkpt>
      <trkpt lat="45.58424" lon="3.19786">
        <ele>530</ele>
        <time>2015-03-29T13:46:08+02:00</time>
      </trkpt>
      <trkpt lat="45.5842" lon="3.19781">
        <ele>530</ele>
        <time>2015-03-29T13:46:08+02:00</time>
      </trkpt>
      <trkpt lat="45.58416" lon="3.19776">
        <ele>530</ele>
        <time>2015-03-29T13:46:08+02:00</time>
      </trkpt>
      <trkpt lat="45.58412" lon="3.19772">
        <ele>530</ele>
        <time>2015-03-29T13:46:08+02:00</time>
      </trkpt>
      <trkpt lat="45.58408" lon="3.19768">
        <ele>531</ele>
        <time>2015-03-29T13:46:08+02:00</time>
      </trkpt>
      <trkpt lat="45.58403" lon="3.19763">
        <ele>532</ele>
        <time>2015-03-29T13:46:08+02:00</time>
      </trkpt>
      <trkpt lat="45.58399" lon="3.19758">
        <ele>532</ele>
        <time>2015-03-29T13:46:08+02:00</time>
      </trkpt>
      <trkpt lat="45.58394" lon="3.19753">
        <ele>532</ele>
        <time>2015-03-29T13:46:08+02:00</time>
      </trkpt>
      <trkpt lat="45.58389" lon="3.19748">
        <ele>532</ele>
        <time>2015-03-29T13:46:08+02:00</time>
      </trkpt>
      <trkpt lat="45.58385" lon="3.19744">
        <ele>532</ele>
        <time>2015-03-29T13:46:08+02:00</time>
      </trkpt>
      <trkpt lat="45.58381" lon="3.1974">
        <ele>533</ele>
        <time>2015-03-29T13:46:08+02:00</time>
      </trkpt>
      <trkpt lat="45.58377" lon="3.19736">
        <ele>533</ele>
        <time>2015-03-29T13:46:08+02:00</time>
      </trkpt>
      <trkpt lat="45.58373" lon="3.19732">
        <ele>533</ele>
        <time>2015-03-29T13:46:08+02:00</time>
      </trkpt>
      <trkpt lat="45.58368" lon="3.19727">
        <ele>534</ele>
        <time>2015-03-29T13:46:08+02:00</time>
      </trkpt>
      <trkpt lat="45.58364" lon="3.19723">
        <ele>535</ele>
        <time>2015-03-29T13:46:08+02:00</time>
      </trkpt>
      <trkpt lat="45.58359" lon="3.19718">
        <ele>535</ele>
        <time>2015-03-29T13:46:08+02:00</time>
      </trkpt>
      <trkpt lat="45.58354" lon="3.19713">
        <ele>535</ele>
        <time>2015-03-29T13:46:08+02:00</time>
      </trkpt>
      <trkpt lat="45.5835" lon="3.19709">
        <ele>535</ele>
        <time>2015-03-29T13:46:08+02:00</time>
      </trkpt>
      <trkpt lat="45.58345" lon="3.19704">
        <ele>536</ele>
        <time>2015-03-29T13:46:08+02:00</time>
      </trkpt>
      <trkpt lat="45.58341" lon="3.197">
        <ele>537</ele>
        <time>2015-03-29T13:46:08+02:00</time>
      </trkpt>
      <trkpt lat="45.58338" lon="3.19696">
        <ele>537</ele>
        <time>2015-03-29T13:46:08+02:00</time>
      </trkpt>
      <trkpt lat="45.58333" lon="3.19692">
        <ele>537</ele>
        <time>2015-03-29T13:46:08+02:00</time>
      </trkpt>
      <trkpt lat="45.58326" lon="3.19684">
        <ele>538</ele>
        <time>2015-03-29T13:46:08+02:00</time>
      </trkpt>
      <trkpt lat="45.58322" lon="3.1968">
        <ele>537</ele>
        <time>2015-03-29T13:46:08+02:00</time>
      </trkpt>
      <trkpt lat="45.58318" lon="3.19676">
        <ele>538</ele>
        <time>2015-03-29T13:46:08+02:00</time>
      </trkpt>
      <trkpt lat="45.58314" lon="3.19672">
        <ele>539</ele>
        <time>2015-03-29T13:46:08+02:00</time>
      </trkpt>
      <trkpt lat="45.5831" lon="3.19668">
        <ele>538</ele>
        <time>2015-03-29T13:46:08+02:00</time>
      </trkpt>
      <trkpt lat="45.58306" lon="3.19666">
        <ele>538</ele>
        <time>2015-03-29T13:46:08+02:00</time>
      </trkpt>
      <trkpt lat="45.58302" lon="3.19662">
        <ele>539</ele>
        <time>2015-03-29T13:46:08+02:00</time>
      </trkpt>
      <trkpt lat="45.58298" lon="3.19658">
        <ele>539</ele>
        <time>2015-03-29T13:46:08+02:00</time>
      </trkpt>
      <trkpt lat="45.58286" lon="3.19647">
        <ele>540</ele>
        <time>2015-03-29T13:46:08+02:00</time>
      </trkpt>
      <trkpt lat="45.58283" lon="3.19644">
        <ele>541</ele>
        <time>2015-03-29T13:46:08+02:00</time>
      </trkpt>
      <trkpt lat="45.58279" lon="3.19641">
        <ele>541</ele>
        <time>2015-03-29T13:46:08+02:00</time>
      </trkpt>
      <trkpt lat="45.58275" lon="3.19637">
        <ele>541</ele>
        <time>2015-03-29T13:46:08+02:00</time>
      </trkpt>
      <trkpt lat="45.58271" lon="3.19634">
        <ele>542</ele>
        <time>2015-03-29T13:46:08+02:00</time>
      </trkpt>
      <trkpt lat="45.58267" lon="3.1963">
        <ele>543</ele>
        <time>2015-03-29T13:46:08+02:00</time>
      </trkpt>
      <trkpt lat="45.58263" lon="3.19627">
        <ele>543</ele>
        <time>2015-03-29T13:46:08+02:00</time>
      </trkpt>
      <trkpt lat="45.58259" lon="3.19624">
        <ele>543</ele>
        <time>2015-03-29T13:46:08+02:00</time>
      </trkpt>
      <trkpt lat="45.58255" lon="3.1962">
        <ele>544</ele>
        <time>2015-03-29T13:46:08+02:00</time>
      </trkpt>
      <trkpt lat="45.58252" lon="3.19616">
        <ele>544</ele>
        <time>2015-03-29T13:46:08+02:00</time>
      </trkpt>
      <trkpt lat="45.58248" lon="3.19612">
        <ele>545</ele>
        <time>2015-03-29T13:46:08+02:00</time>
      </trkpt>
      <trkpt lat="45.58245" lon="3.19608">
        <ele>545</ele>
        <time>2015-03-29T13:46:08+02:00</time>
      </trkpt>
      <trkpt lat="45.58241" lon="3.19604">
        <ele>545</ele>
        <time>2015-03-29T13:46:08+02:00</time>
      </trkpt>
      <trkpt lat="45.58238" lon="3.196">
        <ele>546</ele>
        <time>2015-03-29T13:46:08+02:00</time>
      </trkpt>
      <trkpt lat="45.58234" lon="3.19597">
        <ele>546</ele>
        <time>2015-03-29T13:46:08+02:00</time>
      </trkpt>
      <trkpt lat="45.5823" lon="3.19593">
        <ele>546</ele>
        <time>2015-03-29T13:46:08+02:00</time>
      </trkpt>
      <trkpt lat="45.58226" lon="3.19589">
        <ele>547</ele>
        <time>2015-03-29T13:46:08+02:00</time>
      </trkpt>
      <trkpt lat="45.58222" lon="3.19585">
        <ele>547</ele>
        <time>2015-03-29T13:46:08+02:00</time>
      </trkpt>
      <trkpt lat="45.58218" lon="3.19581">
        <ele>547</ele>
        <time>2015-03-29T13:46:08+02:00</time>
      </trkpt>
      <trkpt lat="45.58214" lon="3.19577">
        <ele>547</ele>
        <time>2015-03-29T13:46:08+02:00</time>
      </trkpt>
      <trkpt lat="45.5821" lon="3.19573">
        <ele>548</ele>
        <time>2015-03-29T13:46:08+02:00</time>
      </trkpt>
      <trkpt lat="45.58205" lon="3.19568">
        <ele>548</ele>
        <time>2015-03-29T13:46:08+02:00</time>
      </trkpt>
      <trkpt lat="45.58201" lon="3.19565">
        <ele>549</ele>
        <time>2015-03-29T13:46:08+02:00</time>
      </trkpt>
      <trkpt lat="45.58197" lon="3.1956">
        <ele>549</ele>
        <time>2015-03-29T13:46:08+02:00</time>
      </trkpt>
      <trkpt lat="45.58193" lon="3.19557">
        <ele>549</ele>
        <time>2015-03-29T13:46:08+02:00</time>
      </trkpt>
      <trkpt lat="45.58188" lon="3.19552">
        <ele>550</ele>
        <time>2015-03-29T13:46:08+02:00</time>
      </trkpt>
      <trkpt lat="45.58184" lon="3.19548">
        <ele>550</ele>
        <time>2015-03-29T13:46:08+02:00</time>
      </trkpt>
      <trkpt lat="45.58179" lon="3.19543">
        <ele>551</ele>
        <time>2015-03-29T13:46:08+02:00</time>
      </trkpt>
      <trkpt lat="45.58143" lon="3.19502">
        <ele>553</ele>
        <time>2015-03-29T13:46:08+02:00</time>
      </trkpt>
      <trkpt lat="45.58066" lon="3.19362">
        <ele>559</ele>
        <time>2015-03-29T13:46:08+02:00</time>
      </trkpt>
      <trkpt lat="45.58063" lon="3.19354">
        <ele>560</ele>
        <time>2015-03-29T13:46:08+02:00</time>
      </trkpt>
      <trkpt lat="45.5806" lon="3.19348">
        <ele>560</ele>
        <time>2015-03-29T13:46:08+02:00</time>
      </trkpt>
      <trkpt lat="45.58056" lon="3.1934">
        <ele>560</ele>
        <time>2015-03-29T13:48:16+02:00</time>
      </trkpt>
      <trkpt lat="45.58054" lon="3.19334">
        <ele>560</ele>
        <time>2015-03-29T13:48:16+02:00</time>
      </trkpt>
      <trkpt lat="45.58052" lon="3.19329">
        <ele>561</ele>
        <time>2015-03-29T13:48:16+02:00</time>
      </trkpt>
      <trkpt lat="45.58049" lon="3.19323">
        <ele>561</ele>
        <time>2015-03-29T13:48:16+02:00</time>
      </trkpt>
      <trkpt lat="45.58046" lon="3.19316">
        <ele>561</ele>
        <time>2015-03-29T13:48:16+02:00</time>
      </trkpt>
      <trkpt lat="45.58044" lon="3.1931">
        <ele>561</ele>
        <time>2015-03-29T13:48:16+02:00</time>
      </trkpt>
      <trkpt lat="45.58041" lon="3.19304">
        <ele>562</ele>
        <time>2015-03-29T13:48:16+02:00</time>
      </trkpt>
      <trkpt lat="45.58038" lon="3.19297">
        <ele>562</ele>
        <time>2015-03-29T13:48:16+02:00</time>
      </trkpt>
      <trkpt lat="45.58036" lon="3.1929">
        <ele>562</ele>
        <time>2015-03-29T13:48:16+02:00</time>
      </trkpt>
      <trkpt lat="45.58035" lon="3.19283">
        <ele>563</ele>
        <time>2015-03-29T13:48:16+02:00</time>
      </trkpt>
      <trkpt lat="45.58032" lon="3.19276">
        <ele>563</ele>
        <time>2015-03-29T13:48:16+02:00</time>
      </trkpt>
      <trkpt lat="45.5803" lon="3.19269">
        <ele>563</ele>
        <time>2015-03-29T13:48:16+02:00</time>
      </trkpt>
      <trkpt lat="45.58029" lon="3.19264">
        <ele>564</ele>
        <time>2015-03-29T13:48:16+02:00</time>
      </trkpt>
      <trkpt lat="45.58027" lon="3.19258">
        <ele>564</ele>
        <time>2015-03-29T13:48:16+02:00</time>
      </trkpt>
      <trkpt lat="45.58025" lon="3.19251">
        <ele>564</ele>
        <time>2015-03-29T13:48:16+02:00</time>
      </trkpt>
      <trkpt lat="45.58023" lon="3.19245">
        <ele>564</ele>
        <time>2015-03-29T13:48:16+02:00</time>
      </trkpt>
      <trkpt lat="45.58021" lon="3.19239">
        <ele>564</ele>
        <time>2015-03-29T13:48:16+02:00</time>
      </trkpt>
      <trkpt lat="45.58018" lon="3.19233">
        <ele>564</ele>
        <time>2015-03-29T13:48:16+02:00</time>
      </trkpt>
      <trkpt lat="45.58016" lon="3.19226">
        <ele>564</ele>
        <time>2015-03-29T13:48:16+02:00</time>
      </trkpt>
      <trkpt lat="45.58014" lon="3.1922">
        <ele>564</ele>
        <time>2015-03-29T13:48:16+02:00</time>
      </trkpt>
      <trkpt lat="45.58012" lon="3.19214">
        <ele>564</ele>
        <time>2015-03-29T13:48:16+02:00</time>
      </trkpt>
      <trkpt lat="45.58011" lon="3.19208">
        <ele>564</ele>
        <time>2015-03-29T13:48:16+02:00</time>
      </trkpt>
      <trkpt lat="45.58009" lon="3.19201">
        <ele>564</ele>
        <time>2015-03-29T13:48:16+02:00</time>
      </trkpt>
      <trkpt lat="45.58007" lon="3.19195">
        <ele>564</ele>
        <time>2015-03-29T13:48:16+02:00</time>
      </trkpt>
      <trkpt lat="45.58005" lon="3.19188">
        <ele>565</ele>
        <time>2015-03-29T13:48:16+02:00</time>
      </trkpt>
      <trkpt lat="45.58003" lon="3.19182">
        <ele>565</ele>
        <time>2015-03-29T13:48:16+02:00</time>
      </trkpt>
      <trkpt lat="45.58001" lon="3.19175">
        <ele>564</ele>
        <time>2015-03-29T13:48:16+02:00</time>
      </trkpt>
      <trkpt lat="45.57999" lon="3.19169">
        <ele>564</ele>
        <time>2015-03-29T13:48:16+02:00</time>
      </trkpt>
      <trkpt lat="45.57997" lon="3.19163">
        <ele>564</ele>
        <time>2015-03-29T13:48:16+02:00</time>
      </trkpt>
      <trkpt lat="45.57994" lon="3.19157">
        <ele>564</ele>
        <time>2015-03-29T13:48:16+02:00</time>
      </trkpt>
      <trkpt lat="45.57992" lon="3.19151">
        <ele>564</ele>
        <time>2015-03-29T13:48:16+02:00</time>
      </trkpt>
      <trkpt lat="45.5799" lon="3.19144">
        <ele>564</ele>
        <time>2015-03-29T13:48:16+02:00</time>
      </trkpt>
      <trkpt lat="45.57987" lon="3.19137">
        <ele>565</ele>
        <time>2015-03-29T13:48:16+02:00</time>
      </trkpt>
      <trkpt lat="45.57986" lon="3.1913">
        <ele>565</ele>
        <time>2015-03-29T13:48:16+02:00</time>
      </trkpt>
      <trkpt lat="45.57984" lon="3.19123">
        <ele>565</ele>
        <time>2015-03-29T13:48:16+02:00</time>
      </trkpt>
      <trkpt lat="45.57982" lon="3.19117">
        <ele>564</ele>
        <time>2015-03-29T13:48:16+02:00</time>
      </trkpt>
      <trkpt lat="45.57979" lon="3.19111">
        <ele>565</ele>
        <time>2015-03-29T13:48:16+02:00</time>
      </trkpt>
      <trkpt lat="45.57977" lon="3.19103">
        <ele>564</ele>
        <time>2015-03-29T13:48:16+02:00</time>
      </trkpt>
      <trkpt lat="45.57975" lon="3.19097">
        <ele>563</ele>
        <time>2015-03-29T13:48:16+02:00</time>
      </trkpt>
      <trkpt lat="45.57973" lon="3.19093">
        <ele>563</ele>
        <time>2015-03-29T13:48:16+02:00</time>
      </trkpt>
      <trkpt lat="45.5797" lon="3.19083">
        <ele>563</ele>
        <time>2015-03-29T13:48:16+02:00</time>
      </trkpt>
      <trkpt lat="45.57968" lon="3.19076">
        <ele>563</ele>
        <time>2015-03-29T13:48:16+02:00</time>
      </trkpt>
      <trkpt lat="45.57966" lon="3.1907">
        <ele>563</ele>
        <time>2015-03-29T13:48:16+02:00</time>
      </trkpt>
      <trkpt lat="45.57964" lon="3.19062">
        <ele>562</ele>
        <time>2015-03-29T13:48:16+02:00</time>
      </trkpt>
      <trkpt lat="45.5796" lon="3.19053">
        <ele>563</ele>
        <time>2015-03-29T13:48:16+02:00</time>
      </trkpt>
      <trkpt lat="45.57957" lon="3.19044">
        <ele>564</ele>
        <time>2015-03-29T13:48:16+02:00</time>
      </trkpt>
      <trkpt lat="45.57955" lon="3.19038">
        <ele>562</ele>
        <time>2015-03-29T13:48:16+02:00</time>
      </trkpt>
      <trkpt lat="45.57954" lon="3.19032">
        <ele>562</ele>
        <time>2015-03-29T13:48:16+02:00</time>
      </trkpt>
      <trkpt lat="45.57951" lon="3.19026">
        <ele>561</ele>
        <time>2015-03-29T13:48:16+02:00</time>
      </trkpt>
      <trkpt lat="45.57949" lon="3.1902">
        <ele>561</ele>
        <time>2015-03-29T13:48:16+02:00</time>
      </trkpt>
      <trkpt lat="45.57947" lon="3.19013">
        <ele>560</ele>
        <time>2015-03-29T13:48:16+02:00</time>
      </trkpt>
      <trkpt lat="45.57945" lon="3.19008">
        <ele>560</ele>
        <time>2015-03-29T13:48:16+02:00</time>
      </trkpt>
      <trkpt lat="45.57944" lon="3.19">
        <ele>560</ele>
        <time>2015-03-29T13:48:16+02:00</time>
      </trkpt>
      <trkpt lat="45.57943" lon="3.18995">
        <ele>559</ele>
        <time>2015-03-29T13:48:16+02:00</time>
      </trkpt>
      <trkpt lat="45.5794" lon="3.18986">
        <ele>559</ele>
        <time>2015-03-29T13:48:16+02:00</time>
      </trkpt>
      <trkpt lat="45.57938" lon="3.18978">
        <ele>559</ele>
        <time>2015-03-29T13:48:16+02:00</time>
      </trkpt>
      <trkpt lat="45.57936" lon="3.18969">
        <ele>558</ele>
        <time>2015-03-29T13:48:16+02:00</time>
      </trkpt>
      <trkpt lat="45.57936" lon="3.18964">
        <ele>558</ele>
        <time>2015-03-29T13:48:16+02:00</time>
      </trkpt>
      <trkpt lat="45.57935" lon="3.18957">
        <ele>557</ele>
        <time>2015-03-29T13:48:16+02:00</time>
      </trkpt>
      <trkpt lat="45.57935" lon="3.18952">
        <ele>558</ele>
        <time>2015-03-29T13:48:16+02:00</time>
      </trkpt>
      <trkpt lat="45.57934" lon="3.18945">
        <ele>557</ele>
        <time>2015-03-29T13:48:16+02:00</time>
      </trkpt>
      <trkpt lat="45.57932" lon="3.18936">
        <ele>557</ele>
        <time>2015-03-29T13:48:16+02:00</time>
      </trkpt>
      <trkpt lat="45.57932" lon="3.18929">
        <ele>556</ele>
        <time>2015-03-29T13:48:16+02:00</time>
      </trkpt>
      <trkpt lat="45.57931" lon="3.1892">
        <ele>556</ele>
        <time>2015-03-29T13:48:16+02:00</time>
      </trkpt>
      <trkpt lat="45.5793" lon="3.18912">
        <ele>555</ele>
        <time>2015-03-29T13:48:16+02:00</time>
      </trkpt>
      <trkpt lat="45.57929" lon="3.18903">
        <ele>555</ele>
        <time>2015-03-29T13:48:16+02:00</time>
      </trkpt>
      <trkpt lat="45.57928" lon="3.18895">
        <ele>556</ele>
        <time>2015-03-29T13:48:16+02:00</time>
      </trkpt>
      <trkpt lat="45.57927" lon="3.18886">
        <ele>555</ele>
        <time>2015-03-29T13:48:16+02:00</time>
      </trkpt>
      <trkpt lat="45.57926" lon="3.18877">
        <ele>555</ele>
        <time>2015-03-29T13:48:16+02:00</time>
      </trkpt>
      <trkpt lat="45.57924" lon="3.18867">
        <ele>556</ele>
        <time>2015-03-29T13:48:16+02:00</time>
      </trkpt>
      <trkpt lat="45.57923" lon="3.18856">
        <ele>556</ele>
        <time>2015-03-29T13:48:16+02:00</time>
      </trkpt>
      <trkpt lat="45.57921" lon="3.18848">
        <ele>556</ele>
        <time>2015-03-29T13:48:16+02:00</time>
      </trkpt>
      <trkpt lat="45.57921" lon="3.18839">
        <ele>555</ele>
        <time>2015-03-29T13:48:16+02:00</time>
      </trkpt>
      <trkpt lat="45.57919" lon="3.18827">
        <ele>556</ele>
        <time>2015-03-29T13:48:16+02:00</time>
      </trkpt>
      <trkpt lat="45.57918" lon="3.18817">
        <ele>556</ele>
        <time>2015-03-29T13:48:16+02:00</time>
      </trkpt>
      <trkpt lat="45.57918" lon="3.18808">
        <ele>556</ele>
        <time>2015-03-29T13:48:16+02:00</time>
      </trkpt>
      <trkpt lat="45.57916" lon="3.18799">
        <ele>555</ele>
        <time>2015-03-29T13:48:16+02:00</time>
      </trkpt>
      <trkpt lat="45.57915" lon="3.18788">
        <ele>555</ele>
        <time>2015-03-29T13:48:16+02:00</time>
      </trkpt>
      <trkpt lat="45.57914" lon="3.18776">
        <ele>555</ele>
        <time>2015-03-29T13:48:16+02:00</time>
      </trkpt>
      <trkpt lat="45.57915" lon="3.18768">
        <ele>555</ele>
        <time>2015-03-29T13:48:16+02:00</time>
      </trkpt>
      <trkpt lat="45.57913" lon="3.1876">
        <ele>555</ele>
        <time>2015-03-29T13:48:16+02:00</time>
      </trkpt>
      <trkpt lat="45.57913" lon="3.18749">
        <ele>558</ele>
        <time>2015-03-29T13:48:16+02:00</time>
      </trkpt>
      <trkpt lat="45.57912" lon="3.18739">
        <ele>558</ele>
        <time>2015-03-29T13:48:16+02:00</time>
      </trkpt>
      <trkpt lat="45.57912" lon="3.18729">
        <ele>558</ele>
        <time>2015-03-29T13:48:16+02:00</time>
      </trkpt>
      <trkpt lat="45.57912" lon="3.18719">
        <ele>559</ele>
        <time>2015-03-29T13:48:16+02:00</time>
      </trkpt>
      <trkpt lat="45.57899" lon="3.18633">
        <ele>560</ele>
        <time>2015-03-29T13:48:16+02:00</time>
      </trkpt>
      <trkpt lat="45.57898" lon="3.18624">
        <ele>560</ele>
        <time>2015-03-29T13:48:16+02:00</time>
      </trkpt>
      <trkpt lat="45.57897" lon="3.18617">
        <ele>559</ele>
        <time>2015-03-29T13:48:16+02:00</time>
      </trkpt>
      <trkpt lat="45.57898" lon="3.18611">
        <ele>558</ele>
        <time>2015-03-29T13:48:16+02:00</time>
      </trkpt>
      <trkpt lat="45.57895" lon="3.18589">
        <ele>557</ele>
        <time>2015-03-29T13:48:16+02:00</time>
      </trkpt>
      <trkpt lat="45.57891" lon="3.18542">
        <ele>558</ele>
        <time>2015-03-29T13:48:16+02:00</time>
      </trkpt>
      <trkpt lat="45.5789" lon="3.18533">
        <ele>558</ele>
        <time>2015-03-29T13:48:16+02:00</time>
      </trkpt>
      <trkpt lat="45.57889" lon="3.18525">
        <ele>559</ele>
        <time>2015-03-29T13:48:16+02:00</time>
      </trkpt>
      <trkpt lat="45.57888" lon="3.18519">
        <ele>558</ele>
        <time>2015-03-29T13:48:16+02:00</time>
      </trkpt>
      <trkpt lat="45.57887" lon="3.18511">
        <ele>558</ele>
        <time>2015-03-29T13:48:16+02:00</time>
      </trkpt>
      <trkpt lat="45.57885" lon="3.18504">
        <ele>558</ele>
        <time>2015-03-29T13:48:16+02:00</time>
      </trkpt>
      <trkpt lat="45.57883" lon="3.18497">
        <ele>558</ele>
        <time>2015-03-29T13:48:16+02:00</time>
      </trkpt>
      <trkpt lat="45.57882" lon="3.18487">
        <ele>557</ele>
        <time>2015-03-29T13:48:16+02:00</time>
      </trkpt>
      <trkpt lat="45.57882" lon="3.18479">
        <ele>557</ele>
        <time>2015-03-29T13:48:16+02:00</time>
      </trkpt>
      <trkpt lat="45.57864" lon="3.17955">
        <ele>565</ele>
        <time>2015-03-29T13:50:24+02:00</time>
      </trkpt>
      <trkpt lat="45.57864" lon="3.1795">
        <ele>566</ele>
        <time>2015-03-29T13:50:24+02:00</time>
      </trkpt>
      <trkpt lat="45.57864" lon="3.17944">
        <ele>566</ele>
        <time>2015-03-29T13:50:24+02:00</time>
      </trkpt>
      <trkpt lat="45.57863" lon="3.1794">
        <ele>566</ele>
        <time>2015-03-29T13:50:24+02:00</time>
      </trkpt>
      <trkpt lat="45.57863" lon="3.17936">
        <ele>567</ele>
        <time>2015-03-29T13:50:24+02:00</time>
      </trkpt>
      <trkpt lat="45.57863" lon="3.17931">
        <ele>567</ele>
        <time>2015-03-29T13:50:24+02:00</time>
      </trkpt>
      <trkpt lat="45.57863" lon="3.17925">
        <ele>568</ele>
        <time>2015-03-29T13:50:24+02:00</time>
      </trkpt>
      <trkpt lat="45.57863" lon="3.1792">
        <ele>568</ele>
        <time>2015-03-29T13:50:24+02:00</time>
      </trkpt>
      <trkpt lat="45.57863" lon="3.17915">
        <ele>569</ele>
        <time>2015-03-29T13:50:24+02:00</time>
      </trkpt>
      <trkpt lat="45.57863" lon="3.1791">
        <ele>570</ele>
        <time>2015-03-29T13:50:24+02:00</time>
      </trkpt>
      <trkpt lat="45.57863" lon="3.17905">
        <ele>570</ele>
        <time>2015-03-29T13:50:24+02:00</time>
      </trkpt>
      <trkpt lat="45.57862" lon="3.17899">
        <ele>570</ele>
        <time>2015-03-29T13:50:24+02:00</time>
      </trkpt>
      <trkpt lat="45.57862" lon="3.17894">
        <ele>571</ele>
        <time>2015-03-29T13:50:24+02:00</time>
      </trkpt>
      <trkpt lat="45.57862" lon="3.17889">
        <ele>571</ele>
        <time>2015-03-29T13:50:24+02:00</time>
      </trkpt>
      <trkpt lat="45.57861" lon="3.17884">
        <ele>571</ele>
        <time>2015-03-29T13:50:24+02:00</time>
      </trkpt>
      <trkpt lat="45.57861" lon="3.1788">
        <ele>572</ele>
        <time>2015-03-29T13:50:24+02:00</time>
      </trkpt>
      <trkpt lat="45.57861" lon="3.17877">
        <ele>572</ele>
        <time>2015-03-29T13:50:24+02:00</time>
      </trkpt>
      <trkpt lat="45.57859" lon="3.17875">
        <ele>571</ele>
        <time>2015-03-29T13:50:24+02:00</time>
      </trkpt>
      <trkpt lat="45.57858" lon="3.17872">
        <ele>570</ele>
        <time>2015-03-29T13:50:24+02:00</time>
      </trkpt>
      <trkpt lat="45.57859" lon="3.17869">
        <ele>570</ele>
        <time>2015-03-29T13:50:24+02:00</time>
      </trkpt>
      <trkpt lat="45.57859" lon="3.17865">
        <ele>568</ele>
        <time>2015-03-29T13:50:24+02:00</time>
      </trkpt>
      <trkpt lat="45.5786" lon="3.17859">
        <ele>569</ele>
        <time>2015-03-29T13:50:24+02:00</time>
      </trkpt>
      <trkpt lat="45.57861" lon="3.17855">
        <ele>569</ele>
        <time>2015-03-29T13:50:24+02:00</time>
      </trkpt>
      <trkpt lat="45.57862" lon="3.17852">
        <ele>568</ele>
        <time>2015-03-29T13:50:24+02:00</time>
      </trkpt>
      <trkpt lat="45.57863" lon="3.1785">
        <ele>569</ele>
        <time>2015-03-29T13:50:24+02:00</time>
      </trkpt>
      <trkpt lat="45.57864" lon="3.17847">
        <ele>570</ele>
        <time>2015-03-29T13:50:24+02:00</time>
      </trkpt>
      <trkpt lat="45.57864" lon="3.17843">
        <ele>568</ele>
        <time>2015-03-29T13:50:24+02:00</time>
      </trkpt>
      <trkpt lat="45.57865" lon="3.17841">
        <ele>567</ele>
        <time>2015-03-29T13:50:24+02:00</time>
      </trkpt>
      <trkpt lat="45.57867" lon="3.17837">
        <ele>567</ele>
        <time>2015-03-29T13:50:24+02:00</time>
      </trkpt>
      <trkpt lat="45.57869" lon="3.17835">
        <ele>568</ele>
        <time>2015-03-29T13:50:24+02:00</time>
      </trkpt>
      <trkpt lat="45.57871" lon="3.17827">
        <ele>567</ele>
        <time>2015-03-29T13:50:24+02:00</time>
      </trkpt>
      <trkpt lat="45.57872" lon="3.17825">
        <ele>567</ele>
        <time>2015-03-29T13:50:24+02:00</time>
      </trkpt>
      <trkpt lat="45.57873" lon="3.17822">
        <ele>567</ele>
        <time>2015-03-29T13:50:24+02:00</time>
      </trkpt>
      <trkpt lat="45.57875" lon="3.17821">
        <ele>567</ele>
        <time>2015-03-29T13:50:24+02:00</time>
      </trkpt>
      <trkpt lat="45.57876" lon="3.17817">
        <ele>567</ele>
        <time>2015-03-29T13:50:24+02:00</time>
      </trkpt>
      <trkpt lat="45.57879" lon="3.17814">
        <ele>566</ele>
        <time>2015-03-29T13:50:24+02:00</time>
      </trkpt>
      <trkpt lat="45.5788" lon="3.17812">
        <ele>566</ele>
        <time>2015-03-29T13:50:24+02:00</time>
      </trkpt>
      <trkpt lat="45.57882" lon="3.17808">
        <ele>565</ele>
        <time>2015-03-29T13:50:24+02:00</time>
      </trkpt>
      <trkpt lat="45.57884" lon="3.17805">
        <ele>565</ele>
        <time>2015-03-29T13:50:24+02:00</time>
      </trkpt>
      <trkpt lat="45.57886" lon="3.17801">
        <ele>564</ele>
        <time>2015-03-29T13:50:24+02:00</time>
      </trkpt>
      <trkpt lat="45.57887" lon="3.17799">
        <ele>564</ele>
        <time>2015-03-29T13:50:24+02:00</time>
      </trkpt>
      <trkpt lat="45.5789" lon="3.17796">
        <ele>564</ele>
        <time>2015-03-29T13:50:24+02:00</time>
      </trkpt>
      <trkpt lat="45.57891" lon="3.17794">
        <ele>564</ele>
        <time>2015-03-29T13:50:24+02:00</time>
      </trkpt>
      <trkpt lat="45.57893" lon="3.17792">
        <ele>564</ele>
        <time>2015-03-29T13:50:24+02:00</time>
      </trkpt>
      <trkpt lat="45.57895" lon="3.1779">
        <ele>565</ele>
        <time>2015-03-29T13:50:24+02:00</time>
      </trkpt>
      <trkpt lat="45.57896" lon="3.17787">
        <ele>565</ele>
        <time>2015-03-29T13:50:24+02:00</time>
      </trkpt>
      <trkpt lat="45.57902" lon="3.17779">
        <ele>561</ele>
        <time>2015-03-29T13:50:24+02:00</time>
      </trkpt>
      <trkpt lat="45.57905" lon="3.17776">
        <ele>561</ele>
        <time>2015-03-29T13:50:24+02:00</time>
      </trkpt>
      <trkpt lat="45.57907" lon="3.17775">
        <ele>560</ele>
        <time>2015-03-29T13:50:24+02:00</time>
      </trkpt>
      <trkpt lat="45.57909" lon="3.17771">
        <ele>560</ele>
        <time>2015-03-29T13:50:24+02:00</time>
      </trkpt>
      <trkpt lat="45.57912" lon="3.17766">
        <ele>559</ele>
        <time>2015-03-29T13:50:24+02:00</time>
      </trkpt>
      <trkpt lat="45.57915" lon="3.17761">
        <ele>557</ele>
        <time>2015-03-29T13:50:24+02:00</time>
      </trkpt>
      <trkpt lat="45.57916" lon="3.17759">
        <ele>557</ele>
        <time>2015-03-29T13:52:32+02:00</time>
      </trkpt>
      <trkpt lat="45.57921" lon="3.17753">
        <ele>556</ele>
        <time>2015-03-29T13:52:32+02:00</time>
      </trkpt>
      <trkpt lat="45.57924" lon="3.17749">
        <ele>555</ele>
        <time>2015-03-29T13:52:32+02:00</time>
      </trkpt>
      <trkpt lat="45.57925" lon="3.17745">
        <ele>555</ele>
        <time>2015-03-29T13:52:32+02:00</time>
      </trkpt>
      <trkpt lat="45.57927" lon="3.17742">
        <ele>554</ele>
        <time>2015-03-29T13:52:32+02:00</time>
      </trkpt>
      <trkpt lat="45.57929" lon="3.1774">
        <ele>554</ele>
        <time>2015-03-29T13:52:32+02:00</time>
      </trkpt>
      <trkpt lat="45.57931" lon="3.17736">
        <ele>554</ele>
        <time>2015-03-29T13:52:32+02:00</time>
      </trkpt>
      <trkpt lat="45.57933" lon="3.17735">
        <ele>554</ele>
        <time>2015-03-29T13:52:32+02:00</time>
      </trkpt>
      <trkpt lat="45.57935" lon="3.17733">
        <ele>555</ele>
        <time>2015-03-29T13:52:32+02:00</time>
      </trkpt>
      <trkpt lat="45.57936" lon="3.17729">
        <ele>555</ele>
        <time>2015-03-29T13:52:32+02:00</time>
      </trkpt>
      <trkpt lat="45.57938" lon="3.17726">
        <ele>555</ele>
        <time>2015-03-29T13:52:32+02:00</time>
      </trkpt>
      <trkpt lat="45.5794" lon="3.17723">
        <ele>555</ele>
        <time>2015-03-29T13:52:32+02:00</time>
      </trkpt>
      <trkpt lat="45.57942" lon="3.1772">
        <ele>556</ele>
        <time>2015-03-29T13:52:32+02:00</time>
      </trkpt>
      <trkpt lat="45.57944" lon="3.17717">
        <ele>556</ele>
        <time>2015-03-29T13:52:32+02:00</time>
      </trkpt>
      <trkpt lat="45.57945" lon="3.17715">
        <ele>556</ele>
        <time>2015-03-29T13:52:32+02:00</time>
      </trkpt>
      <trkpt lat="45.57948" lon="3.17711">
        <ele>555</ele>
        <time>2015-03-29T13:52:32+02:00</time>
      </trkpt>
      <trkpt lat="45.5795" lon="3.17707">
        <ele>555</ele>
        <time>2015-03-29T13:52:32+02:00</time>
      </trkpt>
      <trkpt lat="45.57951" lon="3.17705">
        <ele>555</ele>
        <time>2015-03-29T13:52:32+02:00</time>
      </trkpt>
      <trkpt lat="45.57952" lon="3.17703">
        <ele>555</ele>
        <time>2015-03-29T13:52:32+02:00</time>
      </trkpt>
      <trkpt lat="45.57953" lon="3.17701">
        <ele>554</ele>
        <time>2015-03-29T13:52:32+02:00</time>
      </trkpt>
      <trkpt lat="45.57956" lon="3.17698">
        <ele>554</ele>
        <time>2015-03-29T13:52:32+02:00</time>
      </trkpt>
      <trkpt lat="45.57958" lon="3.17694">
        <ele>554</ele>
        <time>2015-03-29T13:52:32+02:00</time>
      </trkpt>
      <trkpt lat="45.5796" lon="3.1769">
        <ele>554</ele>
        <time>2015-03-29T13:52:32+02:00</time>
      </trkpt>
      <trkpt lat="45.57962" lon="3.17686">
        <ele>555</ele>
        <time>2015-03-29T13:52:32+02:00</time>
      </trkpt>
      <trkpt lat="45.57963" lon="3.17684">
        <ele>555</ele>
        <time>2015-03-29T13:52:32+02:00</time>
      </trkpt>
      <trkpt lat="45.57964" lon="3.1768">
        <ele>554</ele>
        <time>2015-03-29T13:52:32+02:00</time>
      </trkpt>
      <trkpt lat="45.57965" lon="3.17678">
        <ele>554</ele>
        <time>2015-03-29T13:52:32+02:00</time>
      </trkpt>
      <trkpt lat="45.57967" lon="3.17674">
        <ele>554</ele>
        <time>2015-03-29T13:52:32+02:00</time>
      </trkpt>
      <trkpt lat="45.57969" lon="3.1767">
        <ele>553</ele>
        <time>2015-03-29T13:52:32+02:00</time>
      </trkpt>
      <trkpt lat="45.57971" lon="3.17667">
        <ele>553</ele>
        <time>2015-03-29T13:52:32+02:00</time>
      </trkpt>
      <trkpt lat="45.57972" lon="3.17663">
        <ele>553</ele>
        <time>2015-03-29T13:52:32+02:00</time>
      </trkpt>
      <trkpt lat="45.57974" lon="3.17659">
        <ele>553</ele>
        <time>2015-03-29T13:52:32+02:00</time>
      </trkpt>
      <trkpt lat="45.57976" lon="3.17656">
        <ele>551</ele>
        <time>2015-03-29T13:52:32+02:00</time>
      </trkpt>
      <trkpt lat="45.57977" lon="3.17654">
        <ele>552</ele>
        <time>2015-03-29T13:52:32+02:00</time>
      </trkpt>
      <trkpt lat="45.57979" lon="3.17651">
        <ele>552</ele>
        <time>2015-03-29T13:52:32+02:00</time>
      </trkpt>
      <trkpt lat="45.5798" lon="3.17648">
        <ele>552</ele>
        <time>2015-03-29T13:52:32+02:00</time>
      </trkpt>
      <trkpt lat="45.57982" lon="3.17644">
        <ele>551</ele>
        <time>2015-03-29T13:52:32+02:00</time>
      </trkpt>
      <trkpt lat="45.57982" lon="3.1764">
        <ele>549</ele>
        <time>2015-03-29T13:52:32+02:00</time>
      </trkpt>
      <trkpt lat="45.57981" lon="3.17637">
        <ele>549</ele>
        <time>2015-03-29T13:52:32+02:00</time>
      </trkpt>
      <trkpt lat="45.57983" lon="3.17634">
        <ele>549</ele>
        <time>2015-03-29T13:52:32+02:00</time>
      </trkpt>
      <trkpt lat="45.57984" lon="3.17632">
        <ele>548</ele>
        <time>2015-03-29T13:52:32+02:00</time>
      </trkpt>
      <trkpt lat="45.57986" lon="3.17628">
        <ele>548</ele>
        <time>2015-03-29T13:52:32+02:00</time>
      </trkpt>
      <trkpt lat="45.57987" lon="3.17624">
        <ele>549</ele>
        <time>2015-03-29T13:52:32+02:00</time>
      </trkpt>
      <trkpt lat="45.5799" lon="3.17621">
        <ele>549</ele>
        <time>2015-03-29T13:52:32+02:00</time>
      </trkpt>
      <trkpt lat="45.57989" lon="3.17618">
        <ele>548</ele>
        <time>2015-03-29T13:52:32+02:00</time>
      </trkpt>
      <trkpt lat="45.57989" lon="3.17614">
        <ele>548</ele>
        <time>2015-03-29T13:52:32+02:00</time>
      </trkpt>
      <trkpt lat="45.57989" lon="3.17611">
        <ele>548</ele>
        <time>2015-03-29T13:52:32+02:00</time>
      </trkpt>
      <trkpt lat="45.57988" lon="3.17608">
        <ele>549</ele>
        <time>2015-03-29T13:52:32+02:00</time>
      </trkpt>
      <trkpt lat="45.57987" lon="3.17606">
        <ele>549</ele>
        <time>2015-03-29T13:52:32+02:00</time>
      </trkpt>
      <trkpt lat="45.57985" lon="3.17603">
        <ele>549</ele>
        <time>2015-03-29T13:52:32+02:00</time>
      </trkpt>
      <trkpt lat="45.57982" lon="3.17598">
        <ele>545</ele>
        <time>2015-03-29T13:52:32+02:00</time>
      </trkpt>
      <trkpt lat="45.57981" lon="3.17594">
        <ele>545</ele>
        <time>2015-03-29T13:52:32+02:00</time>
      </trkpt>
      <trkpt lat="45.57979" lon="3.17593">
        <ele>544</ele>
        <time>2015-03-29T13:52:32+02:00</time>
      </trkpt>
      <trkpt lat="45.57979" lon="3.17591">
        <ele>544</ele>
        <time>2015-03-29T13:52:32+02:00</time>
      </trkpt>
      <trkpt lat="45.57976" lon="3.17589">
        <ele>544</ele>
        <time>2015-03-29T13:52:32+02:00</time>
      </trkpt>
      <trkpt lat="45.57974" lon="3.17587">
        <ele>543</ele>
        <time>2015-03-29T13:52:32+02:00</time>
      </trkpt>
      <trkpt lat="45.57972" lon="3.17586">
        <ele>542</ele>
        <time>2015-03-29T13:52:32+02:00</time>
      </trkpt>
      <trkpt lat="45.5797" lon="3.17586">
        <ele>544</ele>
        <time>2015-03-29T13:52:32+02:00</time>
      </trkpt>
      <trkpt lat="45.57967" lon="3.17583">
        <ele>543</ele>
        <time>2015-03-29T13:52:32+02:00</time>
      </trkpt>
      <trkpt lat="45.57965" lon="3.17581">
        <ele>545</ele>
        <time>2015-03-29T13:52:32+02:00</time>
      </trkpt>
      <trkpt lat="45.57963" lon="3.1758">
        <ele>545</ele>
        <time>2015-03-29T13:52:32+02:00</time>
      </trkpt>
      <trkpt lat="45.57961" lon="3.17579">
        <ele>545</ele>
        <time>2015-03-29T13:52:32+02:00</time>
      </trkpt>
      <trkpt lat="45.57959" lon="3.17577">
        <ele>545</ele>
        <time>2015-03-29T13:52:32+02:00</time>
      </trkpt>
      <trkpt lat="45.57957" lon="3.17574">
        <ele>545</ele>
        <time>2015-03-29T13:52:32+02:00</time>
      </trkpt>
      <trkpt lat="45.57955" lon="3.17572">
        <ele>546</ele>
        <time>2015-03-29T13:52:32+02:00</time>
      </trkpt>
      <trkpt lat="45.57952" lon="3.17571">
        <ele>547</ele>
        <time>2015-03-29T13:52:32+02:00</time>
      </trkpt>
      <trkpt lat="45.57949" lon="3.1757">
        <ele>548</ele>
        <time>2015-03-29T13:52:32+02:00</time>
      </trkpt>
      <trkpt lat="45.57947" lon="3.1757">
        <ele>548</ele>
        <time>2015-03-29T13:52:32+02:00</time>
      </trkpt>
      <trkpt lat="45.57945" lon="3.17569">
        <ele>549</ele>
        <time>2015-03-29T13:52:32+02:00</time>
      </trkpt>
      <trkpt lat="45.57941" lon="3.17567">
        <ele>549</ele>
        <time>2015-03-29T13:52:32+02:00</time>
      </trkpt>
      <trkpt lat="45.57938" lon="3.17568">
        <ele>550</ele>
        <time>2015-03-29T13:52:32+02:00</time>
      </trkpt>
      <trkpt lat="45.57936" lon="3.17568">
        <ele>551</ele>
        <time>2015-03-29T13:52:32+02:00</time>
      </trkpt>
      <trkpt lat="45.57933" lon="3.17566">
        <ele>552</ele>
        <time>2015-03-29T13:52:32+02:00</time>
      </trkpt>
      <trkpt lat="45.57929" lon="3.17566">
        <ele>553</ele>
        <time>2015-03-29T13:52:32+02:00</time>
      </trkpt>
      <trkpt lat="45.57929" lon="3.17563">
        <ele>552</ele>
        <time>2015-03-29T13:52:32+02:00</time>
      </trkpt>
      <trkpt lat="45.57927" lon="3.17562">
        <ele>552</ele>
        <time>2015-03-29T13:52:32+02:00</time>
      </trkpt>
      <trkpt lat="45.57924" lon="3.17561">
        <ele>552</ele>
        <time>2015-03-29T13:54:40+02:00</time>
      </trkpt>
      <trkpt lat="45.57923" lon="3.17561">
        <ele>552</ele>
        <time>2015-03-29T13:54:40+02:00</time>
      </trkpt>
      <trkpt lat="45.57919" lon="3.1756">
        <ele>552</ele>
        <time>2015-03-29T13:54:40+02:00</time>
      </trkpt>
      <trkpt lat="45.57917" lon="3.17559">
        <ele>553</ele>
        <time>2015-03-29T13:54:40+02:00</time>
      </trkpt>
      <trkpt lat="45.57915" lon="3.17558">
        <ele>553</ele>
        <time>2015-03-29T13:54:40+02:00</time>
      </trkpt>
      <trkpt lat="45.57912" lon="3.17556">
        <ele>553</ele>
        <time>2015-03-29T13:54:40+02:00</time>
      </trkpt>
      <trkpt lat="45.57909" lon="3.17556">
        <ele>553</ele>
        <time>2015-03-29T13:54:40+02:00</time>
      </trkpt>
      <trkpt lat="45.57907" lon="3.17556">
        <ele>553</ele>
        <time>2015-03-29T13:54:40+02:00</time>
      </trkpt>
      <trkpt lat="45.57905" lon="3.17553">
        <ele>552</ele>
        <time>2015-03-29T13:54:40+02:00</time>
      </trkpt>
      <trkpt lat="45.57903" lon="3.17553">
        <ele>553</ele>
        <time>2015-03-29T13:54:40+02:00</time>
      </trkpt>
      <trkpt lat="45.57901" lon="3.17554">
        <ele>554</ele>
        <time>2015-03-29T13:54:40+02:00</time>
      </trkpt>
      <trkpt lat="45.579" lon="3.17551">
        <ele>552</ele>
        <time>2015-03-29T13:54:40+02:00</time>
      </trkpt>
      <trkpt lat="45.57899" lon="3.1755">
        <ele>553</ele>
        <time>2015-03-29T13:54:40+02:00</time>
      </trkpt>
      <trkpt lat="45.57897" lon="3.17548">
        <ele>553</ele>
        <time>2015-03-29T13:54:40+02:00</time>
      </trkpt>
      <trkpt lat="45.57895" lon="3.17547">
        <ele>553</ele>
        <time>2015-03-29T13:54:40+02:00</time>
      </trkpt>
      <trkpt lat="45.57893" lon="3.17545">
        <ele>554</ele>
        <time>2015-03-29T13:54:40+02:00</time>
      </trkpt>
      <trkpt lat="45.57891" lon="3.17544">
        <ele>554</ele>
        <time>2015-03-29T13:54:40+02:00</time>
      </trkpt>
      <trkpt lat="45.57888" lon="3.17544">
        <ele>554</ele>
        <time>2015-03-29T13:54:40+02:00</time>
      </trkpt>
      <trkpt lat="45.57885" lon="3.17543">
        <ele>555</ele>
        <time>2015-03-29T13:54:40+02:00</time>
      </trkpt>
      <trkpt lat="45.57882" lon="3.17543">
        <ele>552</ele>
        <time>2015-03-29T13:54:40+02:00</time>
      </trkpt>
      <trkpt lat="45.5788" lon="3.17541">
        <ele>551</ele>
        <time>2015-03-29T13:54:40+02:00</time>
      </trkpt>
      <trkpt lat="45.57877" lon="3.17541">
        <ele>552</ele>
        <time>2015-03-29T13:54:40+02:00</time>
      </trkpt>
      <trkpt lat="45.57876" lon="3.17538">
        <ele>552</ele>
        <time>2015-03-29T13:54:40+02:00</time>
      </trkpt>
      <trkpt lat="45.57874" lon="3.17536">
        <ele>551</ele>
        <time>2015-03-29T13:54:40+02:00</time>
      </trkpt>
      <trkpt lat="45.57873" lon="3.17534">
        <ele>552</ele>
        <time>2015-03-29T13:54:40+02:00</time>
      </trkpt>
      <trkpt lat="45.5787" lon="3.17534">
        <ele>553</ele>
        <time>2015-03-29T13:54:40+02:00</time>
      </trkpt>
      <trkpt lat="45.57867" lon="3.17534">
        <ele>554</ele>
        <time>2015-03-29T13:54:40+02:00</time>
      </trkpt>
      <trkpt lat="45.57865" lon="3.17533">
        <ele>555</ele>
        <time>2015-03-29T13:54:40+02:00</time>
      </trkpt>
      <trkpt lat="45.57863" lon="3.17532">
        <ele>555</ele>
        <time>2015-03-29T13:54:40+02:00</time>
      </trkpt>
      <trkpt lat="45.57861" lon="3.17532">
        <ele>556</ele>
        <time>2015-03-29T13:54:40+02:00</time>
      </trkpt>
      <trkpt lat="45.57858" lon="3.1753">
        <ele>556</ele>
        <time>2015-03-29T13:54:40+02:00</time>
      </trkpt>
      <trkpt lat="45.57856" lon="3.17528">
        <ele>556</ele>
        <time>2015-03-29T13:54:40+02:00</time>
      </trkpt>
      <trkpt lat="45.57854" lon="3.17526">
        <ele>555</ele>
        <time>2015-03-29T13:54:40+02:00</time>
      </trkpt>
      <trkpt lat="45.57851" lon="3.17523">
        <ele>556</ele>
        <time>2015-03-29T13:54:40+02:00</time>
      </trkpt>
      <trkpt lat="45.57848" lon="3.17522">
        <ele>557</ele>
        <time>2015-03-29T13:54:40+02:00</time>
      </trkpt>
      <trkpt lat="45.57846" lon="3.17518">
        <ele>557</ele>
        <time>2015-03-29T13:54:40+02:00</time>
      </trkpt>
      <trkpt lat="45.57842" lon="3.17516">
        <ele>558</ele>
        <time>2015-03-29T13:54:40+02:00</time>
      </trkpt>
      <trkpt lat="45.5784" lon="3.17514">
        <ele>558</ele>
        <time>2015-03-29T13:54:40+02:00</time>
      </trkpt>
      <trkpt lat="45.57838" lon="3.17514">
        <ele>559</ele>
        <time>2015-03-29T13:54:40+02:00</time>
      </trkpt>
      <trkpt lat="45.57834" lon="3.17512">
        <ele>557</ele>
        <time>2015-03-29T13:54:40+02:00</time>
      </trkpt>
      <trkpt lat="45.57833" lon="3.17512">
        <ele>557</ele>
        <time>2015-03-29T13:54:40+02:00</time>
      </trkpt>
      <trkpt lat="45.57829" lon="3.17511">
        <ele>556</ele>
        <time>2015-03-29T13:54:40+02:00</time>
      </trkpt>
      <trkpt lat="45.57826" lon="3.17511">
        <ele>557</ele>
        <time>2015-03-29T13:54:40+02:00</time>
      </trkpt>
      <trkpt lat="45.57823" lon="3.1751">
        <ele>557</ele>
        <time>2015-03-29T13:54:40+02:00</time>
      </trkpt>
      <trkpt lat="45.57821" lon="3.17509">
        <ele>557</ele>
        <time>2015-03-29T13:54:40+02:00</time>
      </trkpt>
      <trkpt lat="45.57818" lon="3.17509">
        <ele>556</ele>
        <time>2015-03-29T13:54:40+02:00</time>
      </trkpt>
      <trkpt lat="45.57814" lon="3.17509">
        <ele>556</ele>
        <time>2015-03-29T13:54:40+02:00</time>
      </trkpt>
      <trkpt lat="45.57812" lon="3.17508">
        <ele>555</ele>
        <time>2015-03-29T13:54:40+02:00</time>
      </trkpt>
      <trkpt lat="45.57809" lon="3.17506">
        <ele>554</ele>
        <time>2015-03-29T13:54:40+02:00</time>
      </trkpt>
      <trkpt lat="45.57806" lon="3.17505">
        <ele>553</ele>
        <time>2015-03-29T13:54:40+02:00</time>
      </trkpt>
      <trkpt lat="45.57803" lon="3.17503">
        <ele>552</ele>
        <time>2015-03-29T13:54:40+02:00</time>
      </trkpt>
      <trkpt lat="45.57801" lon="3.17502">
        <ele>552</ele>
        <time>2015-03-29T13:54:40+02:00</time>
      </trkpt>
      <trkpt lat="45.57799" lon="3.17501">
        <ele>552</ele>
        <time>2015-03-29T13:54:40+02:00</time>
      </trkpt>
      <trkpt lat="45.57796" lon="3.17501">
        <ele>551</ele>
        <time>2015-03-29T13:54:40+02:00</time>
      </trkpt>
      <trkpt lat="45.57792" lon="3.17497">
        <ele>550</ele>
        <time>2015-03-29T13:54:40+02:00</time>
      </trkpt>
      <trkpt lat="45.57789" lon="3.17495">
        <ele>549</ele>
        <time>2015-03-29T13:54:40+02:00</time>
      </trkpt>
      <trkpt lat="45.57787" lon="3.17494">
        <ele>550</ele>
        <time>2015-03-29T13:54:40+02:00</time>
      </trkpt>
      <trkpt lat="45.57785" lon="3.17493">
        <ele>549</ele>
        <time>2015-03-29T13:54:40+02:00</time>
      </trkpt>
      <trkpt lat="45.57783" lon="3.17493">
        <ele>549</ele>
        <time>2015-03-29T13:54:40+02:00</time>
      </trkpt>
      <trkpt lat="45.57781" lon="3.17492">
        <ele>551</ele>
        <time>2015-03-29T13:54:40+02:00</time>
      </trkpt>
      <trkpt lat="45.57779" lon="3.17493">
        <ele>552</ele>
        <time>2015-03-29T13:54:40+02:00</time>
      </trkpt>
      <trkpt lat="45.57777" lon="3.17491">
        <ele>551</ele>
        <time>2015-03-29T13:54:40+02:00</time>
      </trkpt>
      <trkpt lat="45.57774" lon="3.17491">
        <ele>551</ele>
        <time>2015-03-29T13:54:40+02:00</time>
      </trkpt>
      <trkpt lat="45.57772" lon="3.17489">
        <ele>550</ele>
        <time>2015-03-29T13:54:40+02:00</time>
      </trkpt>
      <trkpt lat="45.5777" lon="3.17488">
        <ele>551</ele>
        <time>2015-03-29T13:54:40+02:00</time>
      </trkpt>
      <trkpt lat="45.57767" lon="3.17486">
        <ele>551</ele>
        <time>2015-03-29T13:54:40+02:00</time>
      </trkpt>
      <trkpt lat="45.57764" lon="3.17484">
        <ele>550</ele>
        <time>2015-03-29T13:54:40+02:00</time>
      </trkpt>
      <trkpt lat="45.57761" lon="3.17482">
        <ele>549</ele>
        <time>2015-03-29T13:54:40+02:00</time>
      </trkpt>
      <trkpt lat="45.57759" lon="3.17481">
        <ele>550</ele>
        <time>2015-03-29T13:54:40+02:00</time>
      </trkpt>
      <trkpt lat="45.57756" lon="3.1748">
        <ele>549</ele>
        <time>2015-03-29T13:54:40+02:00</time>
      </trkpt>
      <trkpt lat="45.57753" lon="3.17478">
        <ele>550</ele>
        <time>2015-03-29T13:54:40+02:00</time>
      </trkpt>
      <trkpt lat="45.57751" lon="3.17475">
        <ele>549</ele>
        <time>2015-03-29T13:54:40+02:00</time>
      </trkpt>
      <trkpt lat="45.57748" lon="3.17473">
        <ele>547</ele>
        <time>2015-03-29T13:54:40+02:00</time>
      </trkpt>
      <trkpt lat="45.57745" lon="3.17472">
        <ele>547</ele>
        <time>2015-03-29T13:54:40+02:00</time>
      </trkpt>
      <trkpt lat="45.57742" lon="3.17469">
        <ele>546</ele>
        <time>2015-03-29T13:54:40+02:00</time>
      </trkpt>
      <trkpt lat="45.57742" lon="3.17466">
        <ele>546</ele>
        <time>2015-03-29T13:54:40+02:00</time>
      </trkpt>
      <trkpt lat="45.5774" lon="3.17463">
        <ele>545</ele>
        <time>2015-03-29T13:54:40+02:00</time>
      </trkpt>
      <trkpt lat="45.5774" lon="3.17458">
        <ele>545</ele>
        <time>2015-03-29T13:54:40+02:00</time>
      </trkpt>
      <trkpt lat="45.5774" lon="3.17455">
        <ele>545</ele>
        <time>2015-03-29T13:54:40+02:00</time>
      </trkpt>
      <trkpt lat="45.57739" lon="3.17451">
        <ele>545</ele>
        <time>2015-03-29T13:54:40+02:00</time>
      </trkpt>
      <trkpt lat="45.57738" lon="3.17447">
        <ele>545</ele>
        <time>2015-03-29T13:54:40+02:00</time>
      </trkpt>
      <trkpt lat="45.57737" lon="3.17443">
        <ele>545</ele>
        <time>2015-03-29T13:54:40+02:00</time>
      </trkpt>
      <trkpt lat="45.57737" lon="3.17439">
        <ele>545</ele>
        <time>2015-03-29T13:54:40+02:00</time>
      </trkpt>
      <trkpt lat="45.57737" lon="3.17436">
        <ele>544</ele>
        <time>2015-03-29T13:54:40+02:00</time>
      </trkpt>
      <trkpt lat="45.57734" lon="3.17397">
        <ele>542</ele>
        <time>2015-03-29T13:56:48+02:00</time>
      </trkpt>
      <trkpt lat="45.57733" lon="3.17394">
        <ele>543</ele>
        <time>2015-03-29T13:56:48+02:00</time>
      </trkpt>
      <trkpt lat="45.57733" lon="3.1739">
        <ele>542</ele>
        <time>2015-03-29T13:56:48+02:00</time>
      </trkpt>
      <trkpt lat="45.57732" lon="3.17386">
        <ele>542</ele>
        <time>2015-03-29T13:56:48+02:00</time>
      </trkpt>
      <trkpt lat="45.57732" lon="3.17381">
        <ele>542</ele>
        <time>2015-03-29T13:56:48+02:00</time>
      </trkpt>
      <trkpt lat="45.57732" lon="3.17378">
        <ele>541</ele>
        <time>2015-03-29T13:56:48+02:00</time>
      </trkpt>
      <trkpt lat="45.57731" lon="3.17374">
        <ele>541</ele>
        <time>2015-03-29T13:56:48+02:00</time>
      </trkpt>
      <trkpt lat="45.57731" lon="3.17371">
        <ele>541</ele>
        <time>2015-03-29T13:56:48+02:00</time>
      </trkpt>
      <trkpt lat="45.57731" lon="3.17368">
        <ele>542</ele>
        <time>2015-03-29T13:56:48+02:00</time>
      </trkpt>
      <trkpt lat="45.57731" lon="3.17365">
        <ele>543</ele>
        <time>2015-03-29T13:56:48+02:00</time>
      </trkpt>
      <trkpt lat="45.5773" lon="3.17361">
        <ele>542</ele>
        <time>2015-03-29T13:56:48+02:00</time>
      </trkpt>
      <trkpt lat="45.5773" lon="3.17357">
        <ele>542</ele>
        <time>2015-03-29T13:56:48+02:00</time>
      </trkpt>
      <trkpt lat="45.57733" lon="3.17353">
        <ele>544</ele>
        <time>2015-03-29T13:56:48+02:00</time>
      </trkpt>
      <trkpt lat="45.57733" lon="3.17348">
        <ele>544</ele>
        <time>2015-03-29T13:56:48+02:00</time>
      </trkpt>
      <trkpt lat="45.57734" lon="3.17344">
        <ele>544</ele>
        <time>2015-03-29T13:56:48+02:00</time>
      </trkpt>
      <trkpt lat="45.57734" lon="3.17339">
        <ele>544</ele>
        <time>2015-03-29T13:56:48+02:00</time>
      </trkpt>
      <trkpt lat="45.57734" lon="3.17335">
        <ele>544</ele>
        <time>2015-03-29T13:56:48+02:00</time>
      </trkpt>
      <trkpt lat="45.57733" lon="3.1733">
        <ele>543</ele>
        <time>2015-03-29T13:56:48+02:00</time>
      </trkpt>
      <trkpt lat="45.57734" lon="3.17324">
        <ele>543</ele>
        <time>2015-03-29T13:56:48+02:00</time>
      </trkpt>
      <trkpt lat="45.57733" lon="3.17321">
        <ele>543</ele>
        <time>2015-03-29T13:56:48+02:00</time>
      </trkpt>
      <trkpt lat="45.57731" lon="3.17316">
        <ele>543</ele>
        <time>2015-03-29T13:56:48+02:00</time>
      </trkpt>
      <trkpt lat="45.5773" lon="3.17311">
        <ele>543</ele>
        <time>2015-03-29T13:56:48+02:00</time>
      </trkpt>
      <trkpt lat="45.57728" lon="3.17302">
        <ele>541</ele>
        <time>2015-03-29T13:56:48+02:00</time>
      </trkpt>
      <trkpt lat="45.57731" lon="3.17221">
        <ele>539</ele>
        <time>2015-03-29T13:56:48+02:00</time>
      </trkpt>
      <trkpt lat="45.57731" lon="3.17217">
        <ele>539</ele>
        <time>2015-03-29T13:56:48+02:00</time>
      </trkpt>
      <trkpt lat="45.57731" lon="3.17212">
        <ele>540</ele>
        <time>2015-03-29T13:56:48+02:00</time>
      </trkpt>
      <trkpt lat="45.57732" lon="3.17207">
        <ele>540</ele>
        <time>2015-03-29T13:56:48+02:00</time>
      </trkpt>
      <trkpt lat="45.57733" lon="3.17204">
        <ele>540</ele>
        <time>2015-03-29T13:56:48+02:00</time>
      </trkpt>
      <trkpt lat="45.57734" lon="3.172">
        <ele>541</ele>
        <time>2015-03-29T13:56:48+02:00</time>
      </trkpt>
      <trkpt lat="45.57735" lon="3.17195">
        <ele>541</ele>
        <time>2015-03-29T13:56:48+02:00</time>
      </trkpt>
      <trkpt lat="45.57736" lon="3.1719">
        <ele>540</ele>
        <time>2015-03-29T13:56:48+02:00</time>
      </trkpt>
      <trkpt lat="45.57737" lon="3.17186">
        <ele>540</ele>
        <time>2015-03-29T13:56:48+02:00</time>
      </trkpt>
      <trkpt lat="45.57737" lon="3.17182">
        <ele>541</ele>
        <time>2015-03-29T13:56:48+02:00</time>
      </trkpt>
      <trkpt lat="45.57737" lon="3.17177">
        <ele>540</ele>
        <time>2015-03-29T13:56:48+02:00</time>
      </trkpt>
      <trkpt lat="45.57737" lon="3.17173">
        <ele>540</ele>
        <time>2015-03-29T13:56:48+02:00</time>
      </trkpt>
      <trkpt lat="45.57738" lon="3.17169">
        <ele>540</ele>
        <time>2015-03-29T13:56:48+02:00</time>
      </trkpt>
      <trkpt lat="45.57743" lon="3.17113">
        <ele>540</ele>
        <time>2015-03-29T13:56:48+02:00</time>
      </trkpt>
      <trkpt lat="45.57744" lon="3.17111">
        <ele>541</ele>
        <time>2015-03-29T13:56:48+02:00</time>
      </trkpt>
      <trkpt lat="45.57744" lon="3.17108">
        <ele>542</ele>
        <time>2015-03-29T13:56:48+02:00</time>
      </trkpt>
      <trkpt lat="45.57743" lon="3.17105">
        <ele>543</ele>
        <time>2015-03-29T13:56:48+02:00</time>
      </trkpt>
      <trkpt lat="45.57744" lon="3.17103">
        <ele>543</ele>
        <time>2015-03-29T13:56:48+02:00</time>
      </trkpt>
      <trkpt lat="45.57744" lon="3.17099">
        <ele>543</ele>
        <time>2015-03-29T13:56:48+02:00</time>
      </trkpt>
      <trkpt lat="45.57745" lon="3.17096">
        <ele>543</ele>
        <time>2015-03-29T13:56:48+02:00</time>
      </trkpt>
      <trkpt lat="45.57745" lon="3.17092">
        <ele>542</ele>
        <time>2015-03-29T13:56:48+02:00</time>
      </trkpt>
      <trkpt lat="45.57746" lon="3.17088">
        <ele>543</ele>
        <time>2015-03-29T13:56:48+02:00</time>
      </trkpt>
      <trkpt lat="45.57747" lon="3.17084">
        <ele>543</ele>
        <time>2015-03-29T13:56:48+02:00</time>
      </trkpt>
      <trkpt lat="45.57747" lon="3.17081">
        <ele>543</ele>
        <time>2015-03-29T13:56:48+02:00</time>
      </trkpt>
      <trkpt lat="45.57748" lon="3.17078">
        <ele>544</ele>
        <time>2015-03-29T13:58:56+02:00</time>
      </trkpt>
      <trkpt lat="45.57748" lon="3.17074">
        <ele>543</ele>
        <time>2015-03-29T13:58:56+02:00</time>
      </trkpt>
      <trkpt lat="45.57748" lon="3.17069">
        <ele>544</ele>
        <time>2015-03-29T13:58:56+02:00</time>
      </trkpt>
      <trkpt lat="45.57749" lon="3.17064">
        <ele>545</ele>
        <time>2015-03-29T13:58:56+02:00</time>
      </trkpt>
      <trkpt lat="45.57749" lon="3.17062">
        <ele>544</ele>
        <time>2015-03-29T13:58:56+02:00</time>
      </trkpt>
      <trkpt lat="45.57749" lon="3.17059">
        <ele>544</ele>
        <time>2015-03-29T13:58:56+02:00</time>
      </trkpt>
      <trkpt lat="45.5775" lon="3.17055">
        <ele>545</ele>
        <time>2015-03-29T13:58:56+02:00</time>
      </trkpt>
      <trkpt lat="45.57751" lon="3.17052">
        <ele>545</ele>
        <time>2015-03-29T13:58:56+02:00</time>
      </trkpt>
      <trkpt lat="45.57752" lon="3.17048">
        <ele>545</ele>
        <time>2015-03-29T13:58:56+02:00</time>
      </trkpt>
      <trkpt lat="45.57752" lon="3.17044">
        <ele>545</ele>
        <time>2015-03-29T13:58:56+02:00</time>
      </trkpt>
      <trkpt lat="45.57753" lon="3.17041">
        <ele>544</ele>
        <time>2015-03-29T13:58:56+02:00</time>
      </trkpt>
      <trkpt lat="45.57754" lon="3.17036">
        <ele>544</ele>
        <time>2015-03-29T13:58:56+02:00</time>
      </trkpt>
      <trkpt lat="45.57755" lon="3.17034">
        <ele>544</ele>
        <time>2015-03-29T13:58:56+02:00</time>
      </trkpt>
      <trkpt lat="45.57756" lon="3.17031">
        <ele>544</ele>
        <time>2015-03-29T13:58:56+02:00</time>
      </trkpt>
      <trkpt lat="45.57758" lon="3.17029">
        <ele>544</ele>
        <time>2015-03-29T13:58:56+02:00</time>
      </trkpt>
      <trkpt lat="45.57758" lon="3.17026">
        <ele>544</ele>
        <time>2015-03-29T13:58:56+02:00</time>
      </trkpt>
      <trkpt lat="45.57759" lon="3.17023">
        <ele>544</ele>
        <time>2015-03-29T13:58:56+02:00</time>
      </trkpt>
      <trkpt lat="45.5776" lon="3.1702">
        <ele>545</ele>
        <time>2015-03-29T13:58:56+02:00</time>
      </trkpt>
      <trkpt lat="45.57761" lon="3.17016">
        <ele>545</ele>
        <time>2015-03-29T13:58:56+02:00</time>
      </trkpt>
      <trkpt lat="45.57762" lon="3.17012">
        <ele>545</ele>
        <time>2015-03-29T13:58:56+02:00</time>
      </trkpt>
      <trkpt lat="45.57763" lon="3.1701">
        <ele>545</ele>
        <time>2015-03-29T13:58:56+02:00</time>
      </trkpt>
      <trkpt lat="45.57765" lon="3.17006">
        <ele>545</ele>
        <time>2015-03-29T13:58:56+02:00</time>
      </trkpt>
      <trkpt lat="45.57767" lon="3.17002">
        <ele>545</ele>
        <time>2015-03-29T13:58:56+02:00</time>
      </trkpt>
      <trkpt lat="45.57769" lon="3.16999">
        <ele>546</ele>
        <time>2015-03-29T13:58:56+02:00</time>
      </trkpt>
      <trkpt lat="45.5777" lon="3.16996">
        <ele>545</ele>
        <time>2015-03-29T13:58:56+02:00</time>
      </trkpt>
      <trkpt lat="45.57772" lon="3.16993">
        <ele>544</ele>
        <time>2015-03-29T13:58:56+02:00</time>
      </trkpt>
      <trkpt lat="45.57775" lon="3.16991">
        <ele>544</ele>
        <time>2015-03-29T13:58:56+02:00</time>
      </trkpt>
      <trkpt lat="45.57777" lon="3.16988">
        <ele>543</ele>
        <time>2015-03-29T13:58:56+02:00</time>
      </trkpt>
      <trkpt lat="45.57779" lon="3.16987">
        <ele>543</ele>
        <time>2015-03-29T13:58:56+02:00</time>
      </trkpt>
      <trkpt lat="45.57782" lon="3.16984">
        <ele>543</ele>
        <time>2015-03-29T13:58:56+02:00</time>
      </trkpt>
      <trkpt lat="45.57785" lon="3.16983">
        <ele>544</ele>
        <time>2015-03-29T13:58:56+02:00</time>
      </trkpt>
      <trkpt lat="45.57788" lon="3.16981">
        <ele>544</ele>
        <time>2015-03-29T13:58:56+02:00</time>
      </trkpt>
      <trkpt lat="45.57791" lon="3.1698">
        <ele>544</ele>
        <time>2015-03-29T13:58:56+02:00</time>
      </trkpt>
      <trkpt lat="45.57793" lon="3.16978">
        <ele>544</ele>
        <time>2015-03-29T13:58:56+02:00</time>
      </trkpt>
      <trkpt lat="45.57796" lon="3.16977">
        <ele>544</ele>
        <time>2015-03-29T13:58:56+02:00</time>
      </trkpt>
      <trkpt lat="45.57798" lon="3.16976">
        <ele>545</ele>
        <time>2015-03-29T13:58:56+02:00</time>
      </trkpt>
      <trkpt lat="45.57802" lon="3.16975">
        <ele>545</ele>
        <time>2015-03-29T13:58:56+02:00</time>
      </trkpt>
      <trkpt lat="45.57803" lon="3.16973">
        <ele>545</ele>
        <time>2015-03-29T13:58:56+02:00</time>
      </trkpt>
      <trkpt lat="45.57806" lon="3.16973">
        <ele>545</ele>
        <time>2015-03-29T13:58:56+02:00</time>
      </trkpt>
      <trkpt lat="45.57807" lon="3.16972">
        <ele>545</ele>
        <time>2015-03-29T13:58:56+02:00</time>
      </trkpt>
      <trkpt lat="45.5781" lon="3.16971">
        <ele>546</ele>
        <time>2015-03-29T13:58:56+02:00</time>
      </trkpt>
      <trkpt lat="45.57813" lon="3.1697">
        <ele>546</ele>
        <time>2015-03-29T13:58:56+02:00</time>
      </trkpt>
      <trkpt lat="45.57815" lon="3.16969">
        <ele>546</ele>
        <time>2015-03-29T13:58:56+02:00</time>
      </trkpt>
      <trkpt lat="45.57818" lon="3.16968">
        <ele>546</ele>
        <time>2015-03-29T13:58:56+02:00</time>
      </trkpt>
      <trkpt lat="45.5782" lon="3.16968">
        <ele>545</ele>
        <time>2015-03-29T13:58:56+02:00</time>
      </trkpt>
      <trkpt lat="45.57823" lon="3.16967">
        <ele>545</ele>
        <time>2015-03-29T13:58:56+02:00</time>
      </trkpt>
      <trkpt lat="45.57825" lon="3.16966">
        <ele>545</ele>
        <time>2015-03-29T13:58:56+02:00</time>
      </trkpt>
      <trkpt lat="45.57829" lon="3.16966">
        <ele>545</ele>
        <time>2015-03-29T13:58:56+02:00</time>
      </trkpt>
      <trkpt lat="45.57832" lon="3.16965">
        <ele>545</ele>
        <time>2015-03-29T13:58:56+02:00</time>
      </trkpt>
      <trkpt lat="45.57834" lon="3.16965">
        <ele>546</ele>
        <time>2015-03-29T13:58:56+02:00</time>
      </trkpt>
      <trkpt lat="45.57836" lon="3.16963">
        <ele>546</ele>
        <time>2015-03-29T13:58:56+02:00</time>
      </trkpt>
      <trkpt lat="45.57837" lon="3.16963">
        <ele>546</ele>
        <time>2015-03-29T13:58:56+02:00</time>
      </trkpt>
      <trkpt lat="45.57841" lon="3.1696">
        <ele>546</ele>
        <time>2015-03-29T13:58:56+02:00</time>
      </trkpt>
      <trkpt lat="45.57844" lon="3.16959">
        <ele>546</ele>
        <time>2015-03-29T13:58:56+02:00</time>
      </trkpt>
      <trkpt lat="45.57846" lon="3.1696">
        <ele>545</ele>
        <time>2015-03-29T13:58:56+02:00</time>
      </trkpt>
      <trkpt lat="45.57848" lon="3.16958">
        <ele>546</ele>
        <time>2015-03-29T13:58:56+02:00</time>
      </trkpt>
      <trkpt lat="45.5785" lon="3.16958">
        <ele>546</ele>
        <time>2015-03-29T13:58:56+02:00</time>
      </trkpt>
      <trkpt lat="45.57852" lon="3.16956">
        <ele>546</ele>
        <time>2015-03-29T13:58:56+02:00</time>
      </trkpt>
      <trkpt lat="45.57855" lon="3.16955">
        <ele>547</ele>
        <time>2015-03-29T13:58:56+02:00</time>
      </trkpt>
      <trkpt lat="45.57858" lon="3.16954">
        <ele>546</ele>
        <time>2015-03-29T13:58:56+02:00</time>
      </trkpt>
      <trkpt lat="45.5786" lon="3.16953">
        <ele>546</ele>
        <time>2015-03-29T13:58:56+02:00</time>
      </trkpt>
      <trkpt lat="45.57863" lon="3.16951">
        <ele>546</ele>
        <time>2015-03-29T13:58:56+02:00</time>
      </trkpt>
      <trkpt lat="45.57865" lon="3.1695">
        <ele>545</ele>
        <time>2015-03-29T13:58:56+02:00</time>
      </trkpt>
      <trkpt lat="45.57867" lon="3.16949">
        <ele>545</ele>
        <time>2015-03-29T13:58:56+02:00</time>
      </trkpt>
      <trkpt lat="45.5787" lon="3.16947">
        <ele>545</ele>
        <time>2015-03-29T13:58:56+02:00</time>
      </trkpt>
      <trkpt lat="45.57872" lon="3.16945">
        <ele>544</ele>
        <time>2015-03-29T13:58:56+02:00</time>
      </trkpt>
      <trkpt lat="45.57874" lon="3.16941">
        <ele>543</ele>
        <time>2015-03-29T13:58:56+02:00</time>
      </trkpt>
      <trkpt lat="45.57876" lon="3.16942">
        <ele>542</ele>
        <time>2015-03-29T13:58:56+02:00</time>
      </trkpt>
      <trkpt lat="45.57876" lon="3.16946">
        <ele>545</ele>
        <time>2015-03-29T13:58:56+02:00</time>
      </trkpt>
      <trkpt lat="45.5788" lon="3.16944">
        <ele>544</ele>
        <time>2015-03-29T13:58:56+02:00</time>
      </trkpt>
      <trkpt lat="45.57883" lon="3.16944">
        <ele>544</ele>
        <time>2015-03-29T13:58:56+02:00</time>
      </trkpt>
      <trkpt lat="45.57885" lon="3.16943">
        <ele>544</ele>
        <time>2015-03-29T13:58:56+02:00</time>
      </trkpt>
      <trkpt lat="45.57887" lon="3.16943">
        <ele>545</ele>
        <time>2015-03-29T13:58:56+02:00</time>
      </trkpt>
      <trkpt lat="45.57889" lon="3.16942">
        <ele>544</ele>
        <time>2015-03-29T13:58:56+02:00</time>
      </trkpt>
      <trkpt lat="45.57892" lon="3.16941">
        <ele>544</ele>
        <time>2015-03-29T13:58:56+02:00</time>
      </trkpt>
      <trkpt lat="45.57895" lon="3.1694">
        <ele>544</ele>
        <time>2015-03-29T13:58:56+02:00</time>
      </trkpt>
      <trkpt lat="45.57898" lon="3.16939">
        <ele>543</ele>
        <time>2015-03-29T13:58:56+02:00</time>
      </trkpt>
      <trkpt lat="45.57901" lon="3.16939">
        <ele>543</ele>
        <time>2015-03-29T13:58:56+02:00</time>
      </trkpt>
      <trkpt lat="45.57902" lon="3.16937">
        <ele>543</ele>
        <time>2015-03-29T13:58:56+02:00</time>
      </trkpt>
      <trkpt lat="45.57903" lon="3.16932">
        <ele>541</ele>
        <time>2015-03-29T13:58:56+02:00</time>
      </trkpt>
      <trkpt lat="45.57912" lon="3.16925">
        <ele>539</ele>
        <time>2015-03-29T13:58:56+02:00</time>
      </trkpt>
      <trkpt lat="45.57914" lon="3.16923">
        <ele>539</ele>
        <time>2015-03-29T13:58:56+02:00</time>
      </trkpt>
      <trkpt lat="45.57916" lon="3.1692">
        <ele>538</ele>
        <time>2015-03-29T14:01:04+02:00</time>
      </trkpt>
      <trkpt lat="45.57919" lon="3.16916">
        <ele>538</ele>
        <time>2015-03-29T14:01:04+02:00</time>
      </trkpt>
      <trkpt lat="45.57921" lon="3.16914">
        <ele>538</ele>
        <time>2015-03-29T14:01:04+02:00</time>
      </trkpt>
      <trkpt lat="45.57922" lon="3.1691">
        <ele>538</ele>
        <time>2015-03-29T14:01:04+02:00</time>
      </trkpt>
      <trkpt lat="45.57924" lon="3.16907">
        <ele>538</ele>
        <time>2015-03-29T14:01:04+02:00</time>
      </trkpt>
      <trkpt lat="45.57926" lon="3.16903">
        <ele>538</ele>
        <time>2015-03-29T14:01:04+02:00</time>
      </trkpt>
      <trkpt lat="45.57926" lon="3.169">
        <ele>540</ele>
        <time>2015-03-29T14:01:04+02:00</time>
      </trkpt>
      <trkpt lat="45.57927" lon="3.16897">
        <ele>540</ele>
        <time>2015-03-29T14:01:04+02:00</time>
      </trkpt>
      <trkpt lat="45.57928" lon="3.16895">
        <ele>541</ele>
        <time>2015-03-29T14:01:04+02:00</time>
      </trkpt>
      <trkpt lat="45.57927" lon="3.1689">
        <ele>542</ele>
        <time>2015-03-29T14:01:04+02:00</time>
      </trkpt>
      <trkpt lat="45.57928" lon="3.16887">
        <ele>541</ele>
        <time>2015-03-29T14:01:04+02:00</time>
      </trkpt>
      <trkpt lat="45.57929" lon="3.16883">
        <ele>541</ele>
        <time>2015-03-29T14:01:04+02:00</time>
      </trkpt>
      <trkpt lat="45.57929" lon="3.1688">
        <ele>541</ele>
        <time>2015-03-29T14:01:04+02:00</time>
      </trkpt>
      <trkpt lat="45.5793" lon="3.16882">
        <ele>541</ele>
        <time>2015-03-29T14:01:04+02:00</time>
      </trkpt>
      <trkpt lat="45.5793" lon="3.16879">
        <ele>540</ele>
        <time>2015-03-29T14:01:04+02:00</time>
      </trkpt>
      <trkpt lat="45.57931" lon="3.16875">
        <ele>540</ele>
        <time>2015-03-29T14:01:04+02:00</time>
      </trkpt>
      <trkpt lat="45.57931" lon="3.16873">
        <ele>540</ele>
        <time>2015-03-29T14:01:04+02:00</time>
      </trkpt>
      <trkpt lat="45.57932" lon="3.1687">
        <ele>539</ele>
        <time>2015-03-29T14:01:04+02:00</time>
      </trkpt>
      <trkpt lat="45.57932" lon="3.16866">
        <ele>539</ele>
        <time>2015-03-29T14:01:04+02:00</time>
      </trkpt>
      <trkpt lat="45.57932" lon="3.16863">
        <ele>539</ele>
        <time>2015-03-29T14:01:04+02:00</time>
      </trkpt>
      <trkpt lat="45.57932" lon="3.16859">
        <ele>538</ele>
        <time>2015-03-29T14:01:04+02:00</time>
      </trkpt>
      <trkpt lat="45.57932" lon="3.16855">
        <ele>538</ele>
        <time>2015-03-29T14:01:04+02:00</time>
      </trkpt>
      <trkpt lat="45.57931" lon="3.1685">
        <ele>538</ele>
        <time>2015-03-29T14:01:04+02:00</time>
      </trkpt>
      <trkpt lat="45.57931" lon="3.16846">
        <ele>537</ele>
        <time>2015-03-29T14:01:04+02:00</time>
      </trkpt>
      <trkpt lat="45.57931" lon="3.16837">
        <ele>537</ele>
        <time>2015-03-29T14:01:04+02:00</time>
      </trkpt>
      <trkpt lat="45.5793" lon="3.16833">
        <ele>537</ele>
        <time>2015-03-29T14:01:04+02:00</time>
      </trkpt>
      <trkpt lat="45.5793" lon="3.16822">
        <ele>538</ele>
        <time>2015-03-29T14:01:04+02:00</time>
      </trkpt>
      <trkpt lat="45.579" lon="3.16712">
        <ele>531</ele>
        <time>2015-03-29T14:03:12+02:00</time>
      </trkpt>
      <trkpt lat="45.579" lon="3.1671">
        <ele>533</ele>
        <time>2015-03-29T14:03:12+02:00</time>
      </trkpt>
      <trkpt lat="45.57899" lon="3.16707">
        <ele>537</ele>
        <time>2015-03-29T14:03:12+02:00</time>
      </trkpt>
      <trkpt lat="45.57897" lon="3.16706">
        <ele>537</ele>
        <time>2015-03-29T14:03:12+02:00</time>
      </trkpt>
      <trkpt lat="45.57894" lon="3.16704">
        <ele>537</ele>
        <time>2015-03-29T14:03:12+02:00</time>
      </trkpt>
      <trkpt lat="45.57891" lon="3.16704">
        <ele>538</ele>
        <time>2015-03-29T14:03:12+02:00</time>
      </trkpt>
      <trkpt lat="45.57889" lon="3.16702">
        <ele>538</ele>
        <time>2015-03-29T14:03:12+02:00</time>
      </trkpt>
      <trkpt lat="45.57887" lon="3.16701">
        <ele>537</ele>
        <time>2015-03-29T14:03:12+02:00</time>
      </trkpt>
      <trkpt lat="45.57885" lon="3.16702">
        <ele>538</ele>
        <time>2015-03-29T14:03:12+02:00</time>
      </trkpt>
      <trkpt lat="45.57882" lon="3.16701">
        <ele>538</ele>
        <time>2015-03-29T14:03:12+02:00</time>
      </trkpt>
      <trkpt lat="45.5788" lon="3.16701">
        <ele>539</ele>
        <time>2015-03-29T14:03:12+02:00</time>
      </trkpt>
      <trkpt lat="45.57877" lon="3.167">
        <ele>539</ele>
        <time>2015-03-29T14:03:12+02:00</time>
      </trkpt>
      <trkpt lat="45.57874" lon="3.167">
        <ele>539</ele>
        <time>2015-03-29T14:03:12+02:00</time>
      </trkpt>
      <trkpt lat="45.57869" lon="3.16697">
        <ele>539</ele>
        <time>2015-03-29T14:03:12+02:00</time>
      </trkpt>
      <trkpt lat="45.5786" lon="3.16692">
        <ele>539</ele>
        <time>2015-03-29T14:03:12+02:00</time>
      </trkpt>
      <trkpt lat="45.57858" lon="3.16695">
        <ele>539</ele>
        <time>2015-03-29T14:03:12+02:00</time>
      </trkpt>
      <trkpt lat="45.57855" lon="3.16696">
        <ele>539</ele>
        <time>2015-03-29T14:03:12+02:00</time>
      </trkpt>
      <trkpt lat="45.57854" lon="3.16697">
        <ele>540</ele>
        <time>2015-03-29T14:03:12+02:00</time>
      </trkpt>
      <trkpt lat="45.57851" lon="3.16696">
        <ele>541</ele>
        <time>2015-03-29T14:03:12+02:00</time>
      </trkpt>
      <trkpt lat="45.57847" lon="3.16696">
        <ele>542</ele>
        <time>2015-03-29T14:03:12+02:00</time>
      </trkpt>
      <trkpt lat="45.57845" lon="3.16697">
        <ele>542</ele>
        <time>2015-03-29T14:03:12+02:00</time>
      </trkpt>
      <trkpt lat="45.57842" lon="3.16695">
        <ele>542</ele>
        <time>2015-03-29T14:03:12+02:00</time>
      </trkpt>
      <trkpt lat="45.5784" lon="3.16695">
        <ele>542</ele>
        <time>2015-03-29T14:03:12+02:00</time>
      </trkpt>
      <trkpt lat="45.57836" lon="3.16694">
        <ele>543</ele>
        <time>2015-03-29T14:03:12+02:00</time>
      </trkpt>
      <trkpt lat="45.57835" lon="3.16697">
        <ele>543</ele>
        <time>2015-03-29T14:03:12+02:00</time>
      </trkpt>
      <trkpt lat="45.57833" lon="3.16698">
        <ele>543</ele>
        <time>2015-03-29T14:03:12+02:00</time>
      </trkpt>
      <trkpt lat="45.5783" lon="3.16698">
        <ele>543</ele>
        <time>2015-03-29T14:03:12+02:00</time>
      </trkpt>
      <trkpt lat="45.57828" lon="3.16697">
        <ele>543</ele>
        <time>2015-03-29T14:03:12+02:00</time>
      </trkpt>
      <trkpt lat="45.57825" lon="3.16697">
        <ele>542</ele>
        <time>2015-03-29T14:03:12+02:00</time>
      </trkpt>
      <trkpt lat="45.57822" lon="3.16697">
        <ele>543</ele>
        <time>2015-03-29T14:03:12+02:00</time>
      </trkpt>
      <trkpt lat="45.5782" lon="3.16699">
        <ele>544</ele>
        <time>2015-03-29T14:03:12+02:00</time>
      </trkpt>
      <trkpt lat="45.57818" lon="3.16699">
        <ele>543</ele>
        <time>2015-03-29T14:03:12+02:00</time>
      </trkpt>
      <trkpt lat="45.57816" lon="3.167">
        <ele>542</ele>
        <time>2015-03-29T14:03:12+02:00</time>
      </trkpt>
      <trkpt lat="45.57814" lon="3.16698">
        <ele>540</ele>
        <time>2015-03-29T14:03:12+02:00</time>
      </trkpt>
      <trkpt lat="45.57813" lon="3.16696">
        <ele>539</ele>
        <time>2015-03-29T14:03:12+02:00</time>
      </trkpt>
      <trkpt lat="45.57812" lon="3.16693">
        <ele>539</ele>
        <time>2015-03-29T14:03:12+02:00</time>
      </trkpt>
      <trkpt lat="45.57812" lon="3.16688">
        <ele>538</ele>
        <time>2015-03-29T14:03:12+02:00</time>
      </trkpt>
      <trkpt lat="45.57811" lon="3.16685">
        <ele>537</ele>
        <time>2015-03-29T14:03:12+02:00</time>
      </trkpt>
      <trkpt lat="45.57811" lon="3.1668">
        <ele>537</ele>
        <time>2015-03-29T14:03:12+02:00</time>
      </trkpt>
      <trkpt lat="45.57811" lon="3.16674">
        <ele>537</ele>
        <time>2015-03-29T14:03:12+02:00</time>
      </trkpt>
      <trkpt lat="45.57811" lon="3.16672">
        <ele>537</ele>
        <time>2015-03-29T14:03:12+02:00</time>
      </trkpt>
      <trkpt lat="45.57812" lon="3.16669">
        <ele>538</ele>
        <time>2015-03-29T14:03:12+02:00</time>
      </trkpt>
      <trkpt lat="45.57812" lon="3.16664">
        <ele>537</ele>
        <time>2015-03-29T14:03:12+02:00</time>
      </trkpt>
      <trkpt lat="45.57812" lon="3.1666">
        <ele>536</ele>
        <time>2015-03-29T14:03:12+02:00</time>
      </trkpt>
      <trkpt lat="45.57812" lon="3.16655">
        <ele>536</ele>
        <time>2015-03-29T14:03:12+02:00</time>
      </trkpt>
      <trkpt lat="45.57811" lon="3.16653">
        <ele>535</ele>
        <time>2015-03-29T14:03:12+02:00</time>
      </trkpt>
      <trkpt lat="45.5781" lon="3.16648">
        <ele>536</ele>
        <time>2015-03-29T14:03:12+02:00</time>
      </trkpt>
      <trkpt lat="45.5781" lon="3.16645">
        <ele>536</ele>
        <time>2015-03-29T14:03:12+02:00</time>
      </trkpt>
      <trkpt lat="45.57811" lon="3.16642">
        <ele>536</ele>
        <time>2015-03-29T14:03:12+02:00</time>
      </trkpt>
      <trkpt lat="45.5781" lon="3.16638">
        <ele>537</ele>
        <time>2015-03-29T14:03:12+02:00</time>
      </trkpt>
      <trkpt lat="45.57811" lon="3.16635">
        <ele>538</ele>
        <time>2015-03-29T14:03:12+02:00</time>
      </trkpt>
      <trkpt lat="45.5781" lon="3.16629">
        <ele>537</ele>
        <time>2015-03-29T14:03:12+02:00</time>
      </trkpt>
      <trkpt lat="45.5781" lon="3.16626">
        <ele>538</ele>
        <time>2015-03-29T14:03:12+02:00</time>
      </trkpt>
      <trkpt lat="45.57809" lon="3.16624">
        <ele>539</ele>
        <time>2015-03-29T14:03:12+02:00</time>
      </trkpt>
      <trkpt lat="45.57809" lon="3.1662">
        <ele>541</ele>
        <time>2015-03-29T14:03:12+02:00</time>
      </trkpt>
      <trkpt lat="45.57809" lon="3.16614">
        <ele>540</ele>
        <time>2015-03-29T14:03:12+02:00</time>
      </trkpt>
      <trkpt lat="45.57808" lon="3.16609">
        <ele>540</ele>
        <time>2015-03-29T14:03:12+02:00</time>
      </trkpt>
      <trkpt lat="45.57807" lon="3.16604">
        <ele>541</ele>
        <time>2015-03-29T14:05:20+02:00</time>
      </trkpt>
      <trkpt lat="45.57806" lon="3.16599">
        <ele>540</ele>
        <time>2015-03-29T14:05:20+02:00</time>
      </trkpt>
      <trkpt lat="45.57806" lon="3.16596">
        <ele>539</ele>
        <time>2015-03-29T14:05:20+02:00</time>
      </trkpt>
      <trkpt lat="45.57806" lon="3.16592">
        <ele>538</ele>
        <time>2015-03-29T14:05:20+02:00</time>
      </trkpt>
      <trkpt lat="45.57807" lon="3.16589">
        <ele>538</ele>
        <time>2015-03-29T14:05:20+02:00</time>
      </trkpt>
      <trkpt lat="45.57808" lon="3.1658">
        <ele>535</ele>
        <time>2015-03-29T14:05:20+02:00</time>
      </trkpt>
      <trkpt lat="45.57808" lon="3.16576">
        <ele>535</ele>
        <time>2015-03-29T14:05:20+02:00</time>
      </trkpt>
      <trkpt lat="45.57808" lon="3.16573">
        <ele>535</ele>
        <time>2015-03-29T14:05:20+02:00</time>
      </trkpt>
      <trkpt lat="45.57808" lon="3.1657">
        <ele>535</ele>
        <time>2015-03-29T14:05:20+02:00</time>
      </trkpt>
      <trkpt lat="45.57808" lon="3.16565">
        <ele>535</ele>
        <time>2015-03-29T14:05:20+02:00</time>
      </trkpt>
      <trkpt lat="45.57809" lon="3.16561">
        <ele>535</ele>
        <time>2015-03-29T14:05:20+02:00</time>
      </trkpt>
      <trkpt lat="45.57808" lon="3.16557">
        <ele>535</ele>
        <time>2015-03-29T14:05:20+02:00</time>
      </trkpt>
      <trkpt lat="45.57807" lon="3.16552">
        <ele>535</ele>
        <time>2015-03-29T14:05:20+02:00</time>
      </trkpt>
      <trkpt lat="45.57807" lon="3.16548">
        <ele>535</ele>
        <time>2015-03-29T14:05:20+02:00</time>
      </trkpt>
      <trkpt lat="45.57807" lon="3.16543">
        <ele>535</ele>
        <time>2015-03-29T14:05:20+02:00</time>
      </trkpt>
      <trkpt lat="45.57808" lon="3.1654">
        <ele>535</ele>
        <time>2015-03-29T14:05:20+02:00</time>
      </trkpt>
      <trkpt lat="45.57808" lon="3.16537">
        <ele>534</ele>
        <time>2015-03-29T14:05:20+02:00</time>
      </trkpt>
      <trkpt lat="45.57809" lon="3.16535">
        <ele>534</ele>
        <time>2015-03-29T14:05:20+02:00</time>
      </trkpt>
      <trkpt lat="45.57808" lon="3.1653">
        <ele>536</ele>
        <time>2015-03-29T14:05:20+02:00</time>
      </trkpt>
      <trkpt lat="45.57808" lon="3.16527">
        <ele>535</ele>
        <time>2015-03-29T14:05:20+02:00</time>
      </trkpt>
      <trkpt lat="45.57808" lon="3.16523">
        <ele>535</ele>
        <time>2015-03-29T14:05:20+02:00</time>
      </trkpt>
      <trkpt lat="45.57808" lon="3.1652">
        <ele>536</ele>
        <time>2015-03-29T14:05:20+02:00</time>
      </trkpt>
      <trkpt lat="45.57808" lon="3.16517">
        <ele>535</ele>
        <time>2015-03-29T14:05:20+02:00</time>
      </trkpt>
      <trkpt lat="45.57808" lon="3.16512">
        <ele>534</ele>
        <time>2015-03-29T14:05:20+02:00</time>
      </trkpt>
      <trkpt lat="45.57808" lon="3.16509">
        <ele>534</ele>
        <time>2015-03-29T14:05:20+02:00</time>
      </trkpt>
      <trkpt lat="45.57808" lon="3.16504">
        <ele>534</ele>
        <time>2015-03-29T14:05:20+02:00</time>
      </trkpt>
      <trkpt lat="45.57808" lon="3.165">
        <ele>534</ele>
        <time>2015-03-29T14:05:20+02:00</time>
      </trkpt>
      <trkpt lat="45.57808" lon="3.16497">
        <ele>534</ele>
        <time>2015-03-29T14:05:20+02:00</time>
      </trkpt>
      <trkpt lat="45.57807" lon="3.16493">
        <ele>534</ele>
        <time>2015-03-29T14:05:20+02:00</time>
      </trkpt>
      <trkpt lat="45.57807" lon="3.16488">
        <ele>534</ele>
        <time>2015-03-29T14:05:20+02:00</time>
      </trkpt>
      <trkpt lat="45.57807" lon="3.16485">
        <ele>534</ele>
        <time>2015-03-29T14:05:20+02:00</time>
      </trkpt>
      <trkpt lat="45.57807" lon="3.16482">
        <ele>534</ele>
        <time>2015-03-29T14:05:20+02:00</time>
      </trkpt>
      <trkpt lat="45.57807" lon="3.1648">
        <ele>534</ele>
        <time>2015-03-29T14:05:20+02:00</time>
      </trkpt>
      <trkpt lat="45.57807" lon="3.16477">
        <ele>534</ele>
        <time>2015-03-29T14:05:20+02:00</time>
      </trkpt>
      <trkpt lat="45.57807" lon="3.16474">
        <ele>535</ele>
        <time>2015-03-29T14:05:20+02:00</time>
      </trkpt>
      <trkpt lat="45.57807" lon="3.16471">
        <ele>535</ele>
        <time>2015-03-29T14:05:20+02:00</time>
      </trkpt>
      <trkpt lat="45.57806" lon="3.16467">
        <ele>535</ele>
        <time>2015-03-29T14:05:20+02:00</time>
      </trkpt>
      <trkpt lat="45.57806" lon="3.16464">
        <ele>535</ele>
        <time>2015-03-29T14:05:20+02:00</time>
      </trkpt>
      <trkpt lat="45.57806" lon="3.16461">
        <ele>536</ele>
        <time>2015-03-29T14:05:20+02:00</time>
      </trkpt>
      <trkpt lat="45.57808" lon="3.1643">
        <ele>536</ele>
        <time>2015-03-29T14:05:20+02:00</time>
      </trkpt>
      <trkpt lat="45.57807" lon="3.16426">
        <ele>536</ele>
        <time>2015-03-29T14:05:20+02:00</time>
      </trkpt>
      <trkpt lat="45.57807" lon="3.16421">
        <ele>536</ele>
        <time>2015-03-29T14:05:20+02:00</time>
      </trkpt>
      <trkpt lat="45.57808" lon="3.16418">
        <ele>535</ele>
        <time>2015-03-29T14:05:20+02:00</time>
      </trkpt>
      <trkpt lat="45.57808" lon="3.16415">
        <ele>535</ele>
        <time>2015-03-29T14:05:20+02:00</time>
      </trkpt>
      <trkpt lat="45.57809" lon="3.16411">
        <ele>535</ele>
        <time>2015-03-29T14:05:20+02:00</time>
      </trkpt>
      <trkpt lat="45.5781" lon="3.16407">
        <ele>535</ele>
        <time>2015-03-29T14:05:20+02:00</time>
      </trkpt>
      <trkpt lat="45.57811" lon="3.16402">
        <ele>534</ele>
        <time>2015-03-29T14:05:20+02:00</time>
      </trkpt>
      <trkpt lat="45.57811" lon="3.16397">
        <ele>534</ele>
        <time>2015-03-29T14:05:20+02:00</time>
      </trkpt>
      <trkpt lat="45.57811" lon="3.16394">
        <ele>535</ele>
        <time>2015-03-29T14:05:20+02:00</time>
      </trkpt>
      <trkpt lat="45.57811" lon="3.1639">
        <ele>532</ele>
        <time>2015-03-29T14:05:20+02:00</time>
      </trkpt>
      <trkpt lat="45.57812" lon="3.16387">
        <ele>530</ele>
        <time>2015-03-29T14:05:20+02:00</time>
      </trkpt>
      <trkpt lat="45.57813" lon="3.16383">
        <ele>529</ele>
        <time>2015-03-29T14:05:20+02:00</time>
      </trkpt>
      <trkpt lat="45.57813" lon="3.1638">
        <ele>528</ele>
        <time>2015-03-29T14:05:20+02:00</time>
      </trkpt>
      <trkpt lat="45.57813" lon="3.16377">
        <ele>528</ele>
        <time>2015-03-29T14:05:20+02:00</time>
      </trkpt>
      <trkpt lat="45.57813" lon="3.16372">
        <ele>528</ele>
        <time>2015-03-29T14:05:20+02:00</time>
      </trkpt>
      <trkpt lat="45.57814" lon="3.16368">
        <ele>527</ele>
        <time>2015-03-29T14:05:20+02:00</time>
      </trkpt>
      <trkpt lat="45.57814" lon="3.16366">
        <ele>527</ele>
        <time>2015-03-29T14:05:20+02:00</time>
      </trkpt>
      <trkpt lat="45.57814" lon="3.16362">
        <ele>527</ele>
        <time>2015-03-29T14:05:20+02:00</time>
      </trkpt>
      <trkpt lat="45.57814" lon="3.16358">
        <ele>527</ele>
        <time>2015-03-29T14:05:20+02:00</time>
      </trkpt>
      <trkpt lat="45.57814" lon="3.16354">
        <ele>526</ele>
        <time>2015-03-29T14:05:20+02:00</time>
      </trkpt>
      <trkpt lat="45.57816" lon="3.16352">
        <ele>527</ele>
        <time>2015-03-29T14:05:20+02:00</time>
      </trkpt>
      <trkpt lat="45.57815" lon="3.16348">
        <ele>527</ele>
        <time>2015-03-29T14:05:20+02:00</time>
      </trkpt>
      <trkpt lat="45.57815" lon="3.16343">
        <ele>527</ele>
        <time>2015-03-29T14:05:20+02:00</time>
      </trkpt>
      <trkpt lat="45.57815" lon="3.16341">
        <ele>528</ele>
        <time>2015-03-29T14:05:20+02:00</time>
      </trkpt>
      <trkpt lat="45.57814" lon="3.1633">
        <ele>528</ele>
        <time>2015-03-29T14:05:20+02:00</time>
      </trkpt>
      <trkpt lat="45.57815" lon="3.16326">
        <ele>527</ele>
        <time>2015-03-29T14:05:20+02:00</time>
      </trkpt>
      <trkpt lat="45.57816" lon="3.16322">
        <ele>527</ele>
        <time>2015-03-29T14:05:20+02:00</time>
      </trkpt>
      <trkpt lat="45.57816" lon="3.16319">
        <ele>528</ele>
        <time>2015-03-29T14:05:20+02:00</time>
      </trkpt>
      <trkpt lat="45.57817" lon="3.16316">
        <ele>528</ele>
        <time>2015-03-29T14:05:20+02:00</time>
      </trkpt>
      <trkpt lat="45.57816" lon="3.16313">
        <ele>528</ele>
        <time>2015-03-29T14:05:20+02:00</time>
      </trkpt>
      <trkpt lat="45.57815" lon="3.1631">
        <ele>529</ele>
        <time>2015-03-29T14:05:20+02:00</time>
      </trkpt>
      <trkpt lat="45.57815" lon="3.16305">
        <ele>530</ele>
        <time>2015-03-29T14:05:20+02:00</time>
      </trkpt>
      <trkpt lat="45.57815" lon="3.16302">
        <ele>529</ele>
        <time>2015-03-29T14:05:20+02:00</time>
      </trkpt>
      <trkpt lat="45.57813" lon="3.16298">
        <ele>529</ele>
        <time>2015-03-29T14:05:20+02:00</time>
      </trkpt>
      <trkpt lat="45.57813" lon="3.16295">
        <ele>529</ele>
        <time>2015-03-29T14:05:20+02:00</time>
      </trkpt>
      <trkpt lat="45.57813" lon="3.16291">
        <ele>530</ele>
        <time>2015-03-29T14:05:20+02:00</time>
      </trkpt>
      <trkpt lat="45.57813" lon="3.16288">
        <ele>530</ele>
        <time>2015-03-29T14:07:28+02:00</time>
      </trkpt>
      <trkpt lat="45.57812" lon="3.16285">
        <ele>531</ele>
        <time>2015-03-29T14:07:28+02:00</time>
      </trkpt>
      <trkpt lat="45.57813" lon="3.16283">
        <ele>530</ele>
        <time>2015-03-29T14:07:28+02:00</time>
      </trkpt>
      <trkpt lat="45.57812" lon="3.16279">
        <ele>531</ele>
        <time>2015-03-29T14:07:28+02:00</time>
      </trkpt>
      <trkpt lat="45.57812" lon="3.16274">
        <ele>531</ele>
        <time>2015-03-29T14:07:28+02:00</time>
      </trkpt>
      <trkpt lat="45.57812" lon="3.1627">
        <ele>527</ele>
        <time>2015-03-29T14:07:28+02:00</time>
      </trkpt>
      <trkpt lat="45.57812" lon="3.16267">
        <ele>528</ele>
        <time>2015-03-29T14:07:28+02:00</time>
      </trkpt>
      <trkpt lat="45.57811" lon="3.16263">
        <ele>528</ele>
        <time>2015-03-29T14:07:28+02:00</time>
      </trkpt>
      <trkpt lat="45.57808" lon="3.16257">
        <ele>529</ele>
        <time>2015-03-29T14:07:28+02:00</time>
      </trkpt>
      <trkpt lat="45.57808" lon="3.16252">
        <ele>528</ele>
        <time>2015-03-29T14:07:28+02:00</time>
      </trkpt>
      <trkpt lat="45.57807" lon="3.16247">
        <ele>529</ele>
        <time>2015-03-29T14:07:28+02:00</time>
      </trkpt>
      <trkpt lat="45.57807" lon="3.16241">
        <ele>529</ele>
        <time>2015-03-29T14:07:28+02:00</time>
      </trkpt>
      <trkpt lat="45.57806" lon="3.16236">
        <ele>529</ele>
        <time>2015-03-29T14:07:28+02:00</time>
      </trkpt>
      <trkpt lat="45.57805" lon="3.16233">
        <ele>530</ele>
        <time>2015-03-29T14:07:28+02:00</time>
      </trkpt>
      <trkpt lat="45.57804" lon="3.16229">
        <ele>530</ele>
        <time>2015-03-29T14:07:28+02:00</time>
      </trkpt>
      <trkpt lat="45.57803" lon="3.16226">
        <ele>530</ele>
        <time>2015-03-29T14:07:28+02:00</time>
      </trkpt>
      <trkpt lat="45.57802" lon="3.16223">
        <ele>530</ele>
        <time>2015-03-29T14:07:28+02:00</time>
      </trkpt>
      <trkpt lat="45.57802" lon="3.16221">
        <ele>530</ele>
        <time>2015-03-29T14:07:28+02:00</time>
      </trkpt>
      <trkpt lat="45.57802" lon="3.16218">
        <ele>530</ele>
        <time>2015-03-29T14:07:28+02:00</time>
      </trkpt>
      <trkpt lat="45.578" lon="3.16216">
        <ele>530</ele>
        <time>2015-03-29T14:07:28+02:00</time>
      </trkpt>
      <trkpt lat="45.578" lon="3.16213">
        <ele>530</ele>
        <time>2015-03-29T14:07:28+02:00</time>
      </trkpt>
      <trkpt lat="45.57791" lon="3.16149">
        <ele>536</ele>
        <time>2015-03-29T14:07:28+02:00</time>
      </trkpt>
      <trkpt lat="45.5779" lon="3.16147">
        <ele>536</ele>
        <time>2015-03-29T14:07:28+02:00</time>
      </trkpt>
      <trkpt lat="45.57789" lon="3.16143">
        <ele>535</ele>
        <time>2015-03-29T14:07:28+02:00</time>
      </trkpt>
      <trkpt lat="45.57788" lon="3.16139">
        <ele>536</ele>
        <time>2015-03-29T14:07:28+02:00</time>
      </trkpt>
      <trkpt lat="45.57788" lon="3.16136">
        <ele>538</ele>
        <time>2015-03-29T14:07:28+02:00</time>
      </trkpt>
      <trkpt lat="45.57787" lon="3.16108">
        <ele>540</ele>
        <time>2015-03-29T14:07:28+02:00</time>
      </trkpt>
      <trkpt lat="45.57787" lon="3.16103">
        <ele>540</ele>
        <time>2015-03-29T14:07:28+02:00</time>
      </trkpt>
      <trkpt lat="45.57786" lon="3.161">
        <ele>539</ele>
        <time>2015-03-29T14:07:28+02:00</time>
      </trkpt>
      <trkpt lat="45.57786" lon="3.16096">
        <ele>539</ele>
        <time>2015-03-29T14:07:28+02:00</time>
      </trkpt>
      <trkpt lat="45.57784" lon="3.16092">
        <ele>538</ele>
        <time>2015-03-29T14:07:28+02:00</time>
      </trkpt>
      <trkpt lat="45.57785" lon="3.16088">
        <ele>540</ele>
        <time>2015-03-29T14:07:28+02:00</time>
      </trkpt>
      <trkpt lat="45.57785" lon="3.16084">
        <ele>541</ele>
        <time>2015-03-29T14:07:28+02:00</time>
      </trkpt>
      <trkpt lat="45.57781" lon="3.16071">
        <ele>542</ele>
        <time>2015-03-29T14:07:28+02:00</time>
      </trkpt>
      <trkpt lat="45.57779" lon="3.16062">
        <ele>542</ele>
        <time>2015-03-29T14:07:28+02:00</time>
      </trkpt>
      <trkpt lat="45.57777" lon="3.16057">
        <ele>542</ele>
        <time>2015-03-29T14:07:28+02:00</time>
      </trkpt>
      <trkpt lat="45.57776" lon="3.16052">
        <ele>541</ele>
        <time>2015-03-29T14:07:28+02:00</time>
      </trkpt>
      <trkpt lat="45.57775" lon="3.16048">
        <ele>541</ele>
        <time>2015-03-29T14:07:28+02:00</time>
      </trkpt>
      <trkpt lat="45.57774" lon="3.16042">
        <ele>541</ele>
        <time>2015-03-29T14:07:28+02:00</time>
      </trkpt>
      <trkpt lat="45.57773" lon="3.16038">
        <ele>541</ele>
        <time>2015-03-29T14:07:28+02:00</time>
      </trkpt>
      <trkpt lat="45.57772" lon="3.16032">
        <ele>540</ele>
        <time>2015-03-29T14:07:28+02:00</time>
      </trkpt>
      <trkpt lat="45.5777" lon="3.16028">
        <ele>541</ele>
        <time>2015-03-29T14:07:28+02:00</time>
      </trkpt>
      <trkpt lat="45.57768" lon="3.16018">
        <ele>541</ele>
        <time>2015-03-29T14:07:28+02:00</time>
      </trkpt>
      <trkpt lat="45.57769" lon="3.16014">
        <ele>541</ele>
        <time>2015-03-29T14:07:28+02:00</time>
      </trkpt>
      <trkpt lat="45.57767" lon="3.16009">
        <ele>541</ele>
        <time>2015-03-29T14:07:28+02:00</time>
      </trkpt>
      <trkpt lat="45.57766" lon="3.16">
        <ele>543</ele>
        <time>2015-03-29T14:07:28+02:00</time>
      </trkpt>
      <trkpt lat="45.57766" lon="3.15994">
        <ele>543</ele>
        <time>2015-03-29T14:07:28+02:00</time>
      </trkpt>
      <trkpt lat="45.57765" lon="3.1599">
        <ele>543</ele>
        <time>2015-03-29T14:07:28+02:00</time>
      </trkpt>
      <trkpt lat="45.57765" lon="3.15985">
        <ele>544</ele>
        <time>2015-03-29T14:07:28+02:00</time>
      </trkpt>
      <trkpt lat="45.57765" lon="3.1598">
        <ele>543</ele>
        <time>2015-03-29T14:07:28+02:00</time>
      </trkpt>
      <trkpt lat="45.57764" lon="3.15975">
        <ele>545</ele>
        <time>2015-03-29T14:07:28+02:00</time>
      </trkpt>
      <trkpt lat="45.57763" lon="3.15971">
        <ele>546</ele>
        <time>2015-03-29T14:07:28+02:00</time>
      </trkpt>
      <trkpt lat="45.57762" lon="3.15967">
        <ele>545</ele>
        <time>2015-03-29T14:07:28+02:00</time>
      </trkpt>
      <trkpt lat="45.57761" lon="3.15963">
        <ele>545</ele>
        <time>2015-03-29T14:07:28+02:00</time>
      </trkpt>
      <trkpt lat="45.57761" lon="3.15958">
        <ele>544</ele>
        <time>2015-03-29T14:07:28+02:00</time>
      </trkpt>
      <trkpt lat="45.5776" lon="3.15953">
        <ele>544</ele>
        <time>2015-03-29T14:07:28+02:00</time>
      </trkpt>
      <trkpt lat="45.5776" lon="3.15948">
        <ele>544</ele>
        <time>2015-03-29T14:07:28+02:00</time>
      </trkpt>
      <trkpt lat="45.57759" lon="3.15943">
        <ele>543</ele>
        <time>2015-03-29T14:07:28+02:00</time>
      </trkpt>
      <trkpt lat="45.57758" lon="3.15939">
        <ele>543</ele>
        <time>2015-03-29T14:07:28+02:00</time>
      </trkpt>
      <trkpt lat="45.57758" lon="3.15934">
        <ele>542</ele>
        <time>2015-03-29T14:07:28+02:00</time>
      </trkpt>
      <trkpt lat="45.57757" lon="3.15929">
        <ele>542</ele>
        <time>2015-03-29T14:07:28+02:00</time>
      </trkpt>
      <trkpt lat="45.57757" lon="3.15924">
        <ele>543</ele>
        <time>2015-03-29T14:07:28+02:00</time>
      </trkpt>
      <trkpt lat="45.57756" lon="3.15919">
        <ele>543</ele>
        <time>2015-03-29T14:07:28+02:00</time>
      </trkpt>
      <trkpt lat="45.57756" lon="3.15914">
        <ele>543</ele>
        <time>2015-03-29T14:07:28+02:00</time>
      </trkpt>
      <trkpt lat="45.57756" lon="3.1591">
        <ele>543</ele>
        <time>2015-03-29T14:07:28+02:00</time>
      </trkpt>
      <trkpt lat="45.57755" lon="3.15905">
        <ele>543</ele>
        <time>2015-03-29T14:07:28+02:00</time>
      </trkpt>
      <trkpt lat="45.57755" lon="3.159">
        <ele>544</ele>
        <time>2015-03-29T14:07:28+02:00</time>
      </trkpt>
      <trkpt lat="45.57756" lon="3.15894">
        <ele>544</ele>
        <time>2015-03-29T14:07:28+02:00</time>
      </trkpt>
      <trkpt lat="45.57754" lon="3.15889">
        <ele>544</ele>
        <time>2015-03-29T14:07:28+02:00</time>
      </trkpt>
      <trkpt lat="45.57753" lon="3.15885">
        <ele>544</ele>
        <time>2015-03-29T14:07:28+02:00</time>
      </trkpt>
      <trkpt lat="45.57752" lon="3.15881">
        <ele>544</ele>
        <time>2015-03-29T14:07:28+02:00</time>
      </trkpt>
      <trkpt lat="45.57751" lon="3.15876">
        <ele>544</ele>
        <time>2015-03-29T14:07:28+02:00</time>
      </trkpt>
      <trkpt lat="45.57746" lon="3.1586">
        <ele>545</ele>
        <time>2015-03-29T14:07:28+02:00</time>
      </trkpt>
      <trkpt lat="45.57745" lon="3.15855">
        <ele>545</ele>
        <time>2015-03-29T14:07:28+02:00</time>
      </trkpt>
      <trkpt lat="45.57744" lon="3.1585">
        <ele>545</ele>
        <time>2015-03-29T14:07:28+02:00</time>
      </trkpt>
      <trkpt lat="45.57744" lon="3.15845">
        <ele>544</ele>
        <time>2015-03-29T14:07:28+02:00</time>
      </trkpt>
      <trkpt lat="45.57743" lon="3.15841">
        <ele>544</ele>
        <time>2015-03-29T14:07:28+02:00</time>
      </trkpt>
      <trkpt lat="45.57743" lon="3.15838">
        <ele>544</ele>
        <time>2015-03-29T14:07:28+02:00</time>
      </trkpt>
      <trkpt lat="45.57738" lon="3.15838">
        <ele>545</ele>
        <time>2015-03-29T14:07:28+02:00</time>
      </trkpt>
      <trkpt lat="45.57735" lon="3.15837">
        <ele>545</ele>
        <time>2015-03-29T14:07:28+02:00</time>
      </trkpt>
      <trkpt lat="45.57731" lon="3.15835">
        <ele>545</ele>
        <time>2015-03-29T14:07:28+02:00</time>
      </trkpt>
      <trkpt lat="45.57728" lon="3.15834">
        <ele>545</ele>
        <time>2015-03-29T14:07:28+02:00</time>
      </trkpt>
      <trkpt lat="45.57725" lon="3.15834">
        <ele>545</ele>
        <time>2015-03-29T14:07:28+02:00</time>
      </trkpt>
      <trkpt lat="45.57722" lon="3.15833">
        <ele>544</ele>
        <time>2015-03-29T14:07:28+02:00</time>
      </trkpt>
      <trkpt lat="45.57718" lon="3.15831">
        <ele>544</ele>
        <time>2015-03-29T14:07:28+02:00</time>
      </trkpt>
      <trkpt lat="45.57712" lon="3.15829">
        <ele>542</ele>
        <time>2015-03-29T14:07:28+02:00</time>
      </trkpt>
      <trkpt lat="45.57708" lon="3.15828">
        <ele>541</ele>
        <time>2015-03-29T14:07:28+02:00</time>
      </trkpt>
      <trkpt lat="45.57704" lon="3.15827">
        <ele>540</ele>
        <time>2015-03-29T14:07:28+02:00</time>
      </trkpt>
      <trkpt lat="45.57701" lon="3.15826">
        <ele>540</ele>
        <time>2015-03-29T14:07:28+02:00</time>
      </trkpt>
      <trkpt lat="45.57699" lon="3.15824">
        <ele>541</ele>
        <time>2015-03-29T14:07:28+02:00</time>
      </trkpt>
      <trkpt lat="45.57696" lon="3.15823">
        <ele>542</ele>
        <time>2015-03-29T14:07:28+02:00</time>
      </trkpt>
      <trkpt lat="45.57693" lon="3.15822">
        <ele>542</ele>
        <time>2015-03-29T14:07:28+02:00</time>
      </trkpt>
      <trkpt lat="45.57687" lon="3.1582">
        <ele>541</ele>
        <time>2015-03-29T14:07:28+02:00</time>
      </trkpt>
      <trkpt lat="45.57685" lon="3.15819">
        <ele>542</ele>
        <time>2015-03-29T14:09:36+02:00</time>
      </trkpt>
      <trkpt lat="45.57679" lon="3.15817">
        <ele>542</ele>
        <time>2015-03-29T14:09:36+02:00</time>
      </trkpt>
      <trkpt lat="45.57675" lon="3.15816">
        <ele>544</ele>
        <time>2015-03-29T14:09:36+02:00</time>
      </trkpt>
      <trkpt lat="45.57668" lon="3.15815">
        <ele>544</ele>
        <time>2015-03-29T14:09:36+02:00</time>
      </trkpt>
      <trkpt lat="45.57659" lon="3.15814">
        <ele>545</ele>
        <time>2015-03-29T14:09:36+02:00</time>
      </trkpt>
      <trkpt lat="45.57654" lon="3.15812">
        <ele>545</ele>
        <time>2015-03-29T14:09:36+02:00</time>
      </trkpt>
      <trkpt lat="45.57652" lon="3.15812">
        <ele>545</ele>
        <time>2015-03-29T14:09:36+02:00</time>
      </trkpt>
      <trkpt lat="45.57649" lon="3.15812">
        <ele>545</ele>
        <time>2015-03-29T14:09:36+02:00</time>
      </trkpt>
      <trkpt lat="45.57646" lon="3.15812">
        <ele>546</ele>
        <time>2015-03-29T14:09:36+02:00</time>
      </trkpt>
      <trkpt lat="45.57634" lon="3.15809">
        <ele>546</ele>
        <time>2015-03-29T14:09:36+02:00</time>
      </trkpt>
      <trkpt lat="45.57632" lon="3.15809">
        <ele>547</ele>
        <time>2015-03-29T14:09:36+02:00</time>
      </trkpt>
      <trkpt lat="45.57629" lon="3.1581">
        <ele>548</ele>
        <time>2015-03-29T14:09:36+02:00</time>
      </trkpt>
      <trkpt lat="45.57626" lon="3.15809">
        <ele>548</ele>
        <time>2015-03-29T14:09:36+02:00</time>
      </trkpt>
      <trkpt lat="45.57623" lon="3.15809">
        <ele>548</ele>
        <time>2015-03-29T14:09:36+02:00</time>
      </trkpt>
      <trkpt lat="45.5762" lon="3.15808">
        <ele>548</ele>
        <time>2015-03-29T14:09:36+02:00</time>
      </trkpt>
      <trkpt lat="45.57617" lon="3.15807">
        <ele>548</ele>
        <time>2015-03-29T14:09:36+02:00</time>
      </trkpt>
      <trkpt lat="45.57614" lon="3.15805">
        <ele>550</ele>
        <time>2015-03-29T14:09:36+02:00</time>
      </trkpt>
      <trkpt lat="45.57612" lon="3.15805">
        <ele>550</ele>
        <time>2015-03-29T14:09:36+02:00</time>
      </trkpt>
      <trkpt lat="45.57609" lon="3.15804">
        <ele>551</ele>
        <time>2015-03-29T14:09:36+02:00</time>
      </trkpt>
      <trkpt lat="45.57607" lon="3.15803">
        <ele>551</ele>
        <time>2015-03-29T14:09:36+02:00</time>
      </trkpt>
      <trkpt lat="45.57605" lon="3.15802">
        <ele>552</ele>
        <time>2015-03-29T14:09:36+02:00</time>
      </trkpt>
      <trkpt lat="45.57602" lon="3.15801">
        <ele>552</ele>
        <time>2015-03-29T14:09:36+02:00</time>
      </trkpt>
      <trkpt lat="45.57598" lon="3.158">
        <ele>552</ele>
        <time>2015-03-29T14:09:36+02:00</time>
      </trkpt>
      <trkpt lat="45.57595" lon="3.15799">
        <ele>553</ele>
        <time>2015-03-29T14:09:36+02:00</time>
      </trkpt>
      <trkpt lat="45.57593" lon="3.158">
        <ele>553</ele>
        <time>2015-03-29T14:09:36+02:00</time>
      </trkpt>
      <trkpt lat="45.5759" lon="3.15799">
        <ele>553</ele>
        <time>2015-03-29T14:09:36+02:00</time>
      </trkpt>
      <trkpt lat="45.57588" lon="3.15798">
        <ele>553</ele>
        <time>2015-03-29T14:09:36+02:00</time>
      </trkpt>
      <trkpt lat="45.57586" lon="3.15797">
        <ele>553</ele>
        <time>2015-03-29T14:09:36+02:00</time>
      </trkpt>
      <trkpt lat="45.57584" lon="3.15796">
        <ele>553</ele>
        <time>2015-03-29T14:09:36+02:00</time>
      </trkpt>
      <trkpt lat="45.57581" lon="3.15794">
        <ele>553</ele>
        <time>2015-03-29T14:09:36+02:00</time>
      </trkpt>
      <trkpt lat="45.57568" lon="3.15788">
        <ele>553</ele>
        <time>2015-03-29T14:09:36+02:00</time>
      </trkpt>
      <trkpt lat="45.57566" lon="3.15787">
        <ele>553</ele>
        <time>2015-03-29T14:09:36+02:00</time>
      </trkpt>
      <trkpt lat="45.57563" lon="3.15786">
        <ele>554</ele>
        <time>2015-03-29T14:09:36+02:00</time>
      </trkpt>
      <trkpt lat="45.5756" lon="3.15784">
        <ele>554</ele>
        <time>2015-03-29T14:09:36+02:00</time>
      </trkpt>
      <trkpt lat="45.57557" lon="3.15783">
        <ele>555</ele>
        <time>2015-03-29T14:09:36+02:00</time>
      </trkpt>
      <trkpt lat="45.57554" lon="3.15783">
        <ele>555</ele>
        <time>2015-03-29T14:09:36+02:00</time>
      </trkpt>
      <trkpt lat="45.57552" lon="3.15782">
        <ele>556</ele>
        <time>2015-03-29T14:09:36+02:00</time>
      </trkpt>
      <trkpt lat="45.57547" lon="3.15781">
        <ele>557</ele>
        <time>2015-03-29T14:09:36+02:00</time>
      </trkpt>
      <trkpt lat="45.57545" lon="3.1578">
        <ele>557</ele>
        <time>2015-03-29T14:09:36+02:00</time>
      </trkpt>
      <trkpt lat="45.57543" lon="3.15779">
        <ele>557</ele>
        <time>2015-03-29T14:09:36+02:00</time>
      </trkpt>
      <trkpt lat="45.57537" lon="3.15776">
        <ele>558</ele>
        <time>2015-03-29T14:09:36+02:00</time>
      </trkpt>
      <trkpt lat="45.57535" lon="3.15775">
        <ele>558</ele>
        <time>2015-03-29T14:09:36+02:00</time>
      </trkpt>
      <trkpt lat="45.57533" lon="3.15773">
        <ele>558</ele>
        <time>2015-03-29T14:09:36+02:00</time>
      </trkpt>
      <trkpt lat="45.57529" lon="3.15769">
        <ele>558</ele>
        <time>2015-03-29T14:09:36+02:00</time>
      </trkpt>
      <trkpt lat="45.57527" lon="3.15767">
        <ele>558</ele>
        <time>2015-03-29T14:09:36+02:00</time>
      </trkpt>
      <trkpt lat="45.57525" lon="3.15764">
        <ele>558</ele>
        <time>2015-03-29T14:09:36+02:00</time>
      </trkpt>
      <trkpt lat="45.57525" lon="3.15761">
        <ele>558</ele>
        <time>2015-03-29T14:09:36+02:00</time>
      </trkpt>
      <trkpt lat="45.57524" lon="3.15758">
        <ele>558</ele>
        <time>2015-03-29T14:09:36+02:00</time>
      </trkpt>
      <trkpt lat="45.57524" lon="3.15754">
        <ele>559</ele>
        <time>2015-03-29T14:09:36+02:00</time>
      </trkpt>
      <trkpt lat="45.57523" lon="3.15751">
        <ele>559</ele>
        <time>2015-03-29T14:09:36+02:00</time>
      </trkpt>
      <trkpt lat="45.57522" lon="3.15747">
        <ele>559</ele>
        <time>2015-03-29T14:09:36+02:00</time>
      </trkpt>
      <trkpt lat="45.57522" lon="3.15745">
        <ele>560</ele>
        <time>2015-03-29T14:09:36+02:00</time>
      </trkpt>
      <trkpt lat="45.57521" lon="3.15741">
        <ele>559</ele>
        <time>2015-03-29T14:09:36+02:00</time>
      </trkpt>
      <trkpt lat="45.5752" lon="3.15738">
        <ele>559</ele>
        <time>2015-03-29T14:09:36+02:00</time>
      </trkpt>
      <trkpt lat="45.57519" lon="3.15734">
        <ele>559</ele>
        <time>2015-03-29T14:09:36+02:00</time>
      </trkpt>
      <trkpt lat="45.57519" lon="3.15731">
        <ele>559</ele>
        <time>2015-03-29T14:09:36+02:00</time>
      </trkpt>
      <trkpt lat="45.57518" lon="3.15728">
        <ele>559</ele>
        <time>2015-03-29T14:09:36+02:00</time>
      </trkpt>
      <trkpt lat="45.57517" lon="3.15724">
        <ele>559</ele>
        <time>2015-03-29T14:09:36+02:00</time>
      </trkpt>
      <trkpt lat="45.57516" lon="3.1572">
        <ele>560</ele>
        <time>2015-03-29T14:09:36+02:00</time>
      </trkpt>
      <trkpt lat="45.57515" lon="3.15716">
        <ele>560</ele>
        <time>2015-03-29T14:09:36+02:00</time>
      </trkpt>
      <trkpt lat="45.57514" lon="3.15712">
        <ele>560</ele>
        <time>2015-03-29T14:09:36+02:00</time>
      </trkpt>
      <trkpt lat="45.57513" lon="3.15708">
        <ele>560</ele>
        <time>2015-03-29T14:09:36+02:00</time>
      </trkpt>
      <trkpt lat="45.57512" lon="3.15704">
        <ele>560</ele>
        <time>2015-03-29T14:09:36+02:00</time>
      </trkpt>
      <trkpt lat="45.57511" lon="3.157">
        <ele>561</ele>
        <time>2015-03-29T14:09:36+02:00</time>
      </trkpt>
      <trkpt lat="45.5751" lon="3.15696">
        <ele>561</ele>
        <time>2015-03-29T14:09:36+02:00</time>
      </trkpt>
      <trkpt lat="45.57509" lon="3.15691">
        <ele>562</ele>
        <time>2015-03-29T14:09:36+02:00</time>
      </trkpt>
      <trkpt lat="45.57509" lon="3.15686">
        <ele>562</ele>
        <time>2015-03-29T14:09:36+02:00</time>
      </trkpt>
      <trkpt lat="45.57508" lon="3.15681">
        <ele>563</ele>
        <time>2015-03-29T14:09:36+02:00</time>
      </trkpt>
      <trkpt lat="45.57507" lon="3.15677">
        <ele>563</ele>
        <time>2015-03-29T14:09:36+02:00</time>
      </trkpt>
      <trkpt lat="45.57505" lon="3.15673">
        <ele>562</ele>
        <time>2015-03-29T14:09:36+02:00</time>
      </trkpt>
      <trkpt lat="45.57504" lon="3.15669">
        <ele>562</ele>
        <time>2015-03-29T14:09:36+02:00</time>
      </trkpt>
      <trkpt lat="45.57503" lon="3.15665">
        <ele>563</ele>
        <time>2015-03-29T14:09:36+02:00</time>
      </trkpt>
      <trkpt lat="45.57503" lon="3.15661">
        <ele>562</ele>
        <time>2015-03-29T14:09:36+02:00</time>
      </trkpt>
      <trkpt lat="45.57502" lon="3.15657">
        <ele>562</ele>
        <time>2015-03-29T14:09:36+02:00</time>
      </trkpt>
      <trkpt lat="45.57501" lon="3.15653">
        <ele>562</ele>
        <time>2015-03-29T14:09:36+02:00</time>
      </trkpt>
      <trkpt lat="45.575" lon="3.15648">
        <ele>563</ele>
        <time>2015-03-29T14:09:36+02:00</time>
      </trkpt>
      <trkpt lat="45.57499" lon="3.15644">
        <ele>563</ele>
        <time>2015-03-29T14:09:36+02:00</time>
      </trkpt>
      <trkpt lat="45.57498" lon="3.15639">
        <ele>563</ele>
        <time>2015-03-29T14:09:36+02:00</time>
      </trkpt>
      <trkpt lat="45.57497" lon="3.15635">
        <ele>562</ele>
        <time>2015-03-29T14:09:36+02:00</time>
      </trkpt>
      <trkpt lat="45.57496" lon="3.15631">
        <ele>562</ele>
        <time>2015-03-29T14:09:36+02:00</time>
      </trkpt>
      <trkpt lat="45.57495" lon="3.15627">
        <ele>562</ele>
        <time>2015-03-29T14:09:36+02:00</time>
      </trkpt>
      <trkpt lat="45.57494" lon="3.15622">
        <ele>562</ele>
        <time>2015-03-29T14:09:36+02:00</time>
      </trkpt>
      <trkpt lat="45.57493" lon="3.15618">
        <ele>562</ele>
        <time>2015-03-29T14:09:36+02:00</time>
      </trkpt>
      <trkpt lat="45.57492" lon="3.15613">
        <ele>562</ele>
        <time>2015-03-29T14:09:36+02:00</time>
      </trkpt>
      <trkpt lat="45.57491" lon="3.15608">
        <ele>562</ele>
        <time>2015-03-29T14:09:36+02:00</time>
      </trkpt>
      <trkpt lat="45.5749" lon="3.15604">
        <ele>562</ele>
        <time>2015-03-29T14:09:36+02:00</time>
      </trkpt>
      <trkpt lat="45.57489" lon="3.15599">
        <ele>562</ele>
        <time>2015-03-29T14:09:36+02:00</time>
      </trkpt>
      <trkpt lat="45.57488" lon="3.15594">
        <ele>563</ele>
        <time>2015-03-29T14:09:36+02:00</time>
      </trkpt>
      <trkpt lat="45.57487" lon="3.1559">
        <ele>563</ele>
        <time>2015-03-29T14:09:36+02:00</time>
      </trkpt>
      <trkpt lat="45.57486" lon="3.15586">
        <ele>563</ele>
        <time>2015-03-29T14:09:36+02:00</time>
      </trkpt>
      <trkpt lat="45.57485" lon="3.15583">
        <ele>563</ele>
        <time>2015-03-29T14:09:36+02:00</time>
      </trkpt>
      <trkpt lat="45.57484" lon="3.15578">
        <ele>563</ele>
        <time>2015-03-29T14:09:36+02:00</time>
      </trkpt>
      <trkpt lat="45.57483" lon="3.15575">
        <ele>563</ele>
        <time>2015-03-29T14:09:36+02:00</time>
      </trkpt>
      <trkpt lat="45.57483" lon="3.15571">
        <ele>564</ele>
        <time>2015-03-29T14:09:36+02:00</time>
      </trkpt>
      <trkpt lat="45.57481" lon="3.15567">
        <ele>564</ele>
        <time>2015-03-29T14:09:36+02:00</time>
      </trkpt>
      <trkpt lat="45.5748" lon="3.15563">
        <ele>565</ele>
        <time>2015-03-29T14:09:36+02:00</time>
      </trkpt>
      <trkpt lat="45.5748" lon="3.15559">
        <ele>565</ele>
        <time>2015-03-29T14:09:36+02:00</time>
      </trkpt>
      <trkpt lat="45.5748" lon="3.15555">
        <ele>565</ele>
        <time>2015-03-29T14:09:36+02:00</time>
      </trkpt>
      <trkpt lat="45.57478" lon="3.15551">
        <ele>565</ele>
        <time>2015-03-29T14:09:36+02:00</time>
      </trkpt>
      <trkpt lat="45.57478" lon="3.15547">
        <ele>565</ele>
        <time>2015-03-29T14:09:36+02:00</time>
      </trkpt>
      <trkpt lat="45.57477" lon="3.15543">
        <ele>565</ele>
        <time>2015-03-29T14:09:36+02:00</time>
      </trkpt>
      <trkpt lat="45.57476" lon="3.15539">
        <ele>565</ele>
        <time>2015-03-29T14:09:36+02:00</time>
      </trkpt>
      <trkpt lat="45.57475" lon="3.15534">
        <ele>566</ele>
        <time>2015-03-29T14:09:36+02:00</time>
      </trkpt>
      <trkpt lat="45.57474" lon="3.1553">
        <ele>566</ele>
        <time>2015-03-29T14:09:36+02:00</time>
      </trkpt>
      <trkpt lat="45.57473" lon="3.15525">
        <ele>566</ele>
        <time>2015-03-29T14:09:36+02:00</time>
      </trkpt>
      <trkpt lat="45.57472" lon="3.1552">
        <ele>566</ele>
        <time>2015-03-29T14:09:36+02:00</time>
      </trkpt>
      <trkpt lat="45.57471" lon="3.15516">
        <ele>566</ele>
        <time>2015-03-29T14:11:44+02:00</time>
      </trkpt>
      <trkpt lat="45.57469" lon="3.15511">
        <ele>566</ele>
        <time>2015-03-29T14:11:44+02:00</time>
      </trkpt>
      <trkpt lat="45.57468" lon="3.15506">
        <ele>566</ele>
        <time>2015-03-29T14:11:44+02:00</time>
      </trkpt>
      <trkpt lat="45.57467" lon="3.15502">
        <ele>565</ele>
        <time>2015-03-29T14:11:44+02:00</time>
      </trkpt>
      <trkpt lat="45.57467" lon="3.15499">
        <ele>566</ele>
        <time>2015-03-29T14:11:44+02:00</time>
      </trkpt>
      <trkpt lat="45.57466" lon="3.15496">
        <ele>566</ele>
        <time>2015-03-29T14:11:44+02:00</time>
      </trkpt>
      <trkpt lat="45.57466" lon="3.15492">
        <ele>566</ele>
        <time>2015-03-29T14:11:44+02:00</time>
      </trkpt>
      <trkpt lat="45.57465" lon="3.15489">
        <ele>566</ele>
        <time>2015-03-29T14:11:44+02:00</time>
      </trkpt>
      <trkpt lat="45.57464" lon="3.15486">
        <ele>567</ele>
        <time>2015-03-29T14:11:44+02:00</time>
      </trkpt>
      <trkpt lat="45.57464" lon="3.15483">
        <ele>567</ele>
        <time>2015-03-29T14:11:44+02:00</time>
      </trkpt>
      <trkpt lat="45.57463" lon="3.15479">
        <ele>568</ele>
        <time>2015-03-29T14:11:44+02:00</time>
      </trkpt>
      <trkpt lat="45.57462" lon="3.15475">
        <ele>568</ele>
        <time>2015-03-29T14:11:44+02:00</time>
      </trkpt>
      <trkpt lat="45.57461" lon="3.15472">
        <ele>568</ele>
        <time>2015-03-29T14:11:44+02:00</time>
      </trkpt>
      <trkpt lat="45.57461" lon="3.15468">
        <ele>569</ele>
        <time>2015-03-29T14:11:44+02:00</time>
      </trkpt>
      <trkpt lat="45.5746" lon="3.15465">
        <ele>568</ele>
        <time>2015-03-29T14:11:44+02:00</time>
      </trkpt>
      <trkpt lat="45.57459" lon="3.1546">
        <ele>568</ele>
        <time>2015-03-29T14:11:44+02:00</time>
      </trkpt>
      <trkpt lat="45.57458" lon="3.15455">
        <ele>569</ele>
        <time>2015-03-29T14:11:44+02:00</time>
      </trkpt>
      <trkpt lat="45.57456" lon="3.15451">
        <ele>570</ele>
        <time>2015-03-29T14:11:44+02:00</time>
      </trkpt>
      <trkpt lat="45.57454" lon="3.15446">
        <ele>569</ele>
        <time>2015-03-29T14:11:44+02:00</time>
      </trkpt>
      <trkpt lat="45.57453" lon="3.15442">
        <ele>569</ele>
        <time>2015-03-29T14:11:44+02:00</time>
      </trkpt>
      <trkpt lat="45.57452" lon="3.15438">
        <ele>569</ele>
        <time>2015-03-29T14:11:44+02:00</time>
      </trkpt>
      <trkpt lat="45.57452" lon="3.15435">
        <ele>568</ele>
        <time>2015-03-29T14:11:44+02:00</time>
      </trkpt>
      <trkpt lat="45.57453" lon="3.1543">
        <ele>568</ele>
        <time>2015-03-29T14:11:44+02:00</time>
      </trkpt>
      <trkpt lat="45.5745" lon="3.15424">
        <ele>570</ele>
        <time>2015-03-29T14:11:44+02:00</time>
      </trkpt>
      <trkpt lat="45.5745" lon="3.15421">
        <ele>571</ele>
        <time>2015-03-29T14:11:44+02:00</time>
      </trkpt>
      <trkpt lat="45.57449" lon="3.15418">
        <ele>571</ele>
        <time>2015-03-29T14:11:44+02:00</time>
      </trkpt>
      <trkpt lat="45.57448" lon="3.15415">
        <ele>571</ele>
        <time>2015-03-29T14:11:44+02:00</time>
      </trkpt>
      <trkpt lat="45.57448" lon="3.15411">
        <ele>571</ele>
        <time>2015-03-29T14:11:44+02:00</time>
      </trkpt>
      <trkpt lat="45.57446" lon="3.15404">
        <ele>571</ele>
        <time>2015-03-29T14:11:44+02:00</time>
      </trkpt>
      <trkpt lat="45.57446" lon="3.15401">
        <ele>572</ele>
        <time>2015-03-29T14:11:44+02:00</time>
      </trkpt>
      <trkpt lat="45.57446" lon="3.15398">
        <ele>572</ele>
        <time>2015-03-29T14:11:44+02:00</time>
      </trkpt>
      <trkpt lat="45.57445" lon="3.15396">
        <ele>572</ele>
        <time>2015-03-29T14:11:44+02:00</time>
      </trkpt>
      <trkpt lat="45.57444" lon="3.15392">
        <ele>572</ele>
        <time>2015-03-29T14:11:44+02:00</time>
      </trkpt>
      <trkpt lat="45.57444" lon="3.15389">
        <ele>572</ele>
        <time>2015-03-29T14:11:44+02:00</time>
      </trkpt>
      <trkpt lat="45.57442" lon="3.15379">
        <ele>571</ele>
        <time>2015-03-29T14:11:44+02:00</time>
      </trkpt>
      <trkpt lat="45.5744" lon="3.15374">
        <ele>571</ele>
        <time>2015-03-29T14:11:44+02:00</time>
      </trkpt>
      <trkpt lat="45.5744" lon="3.15364">
        <ele>571</ele>
        <time>2015-03-29T14:11:44+02:00</time>
      </trkpt>
      <trkpt lat="45.57438" lon="3.15357">
        <ele>570</ele>
        <time>2015-03-29T14:11:44+02:00</time>
      </trkpt>
      <trkpt lat="45.57438" lon="3.15354">
        <ele>570</ele>
        <time>2015-03-29T14:11:44+02:00</time>
      </trkpt>
      <trkpt lat="45.57437" lon="3.1535">
        <ele>570</ele>
        <time>2015-03-29T14:11:44+02:00</time>
      </trkpt>
      <trkpt lat="45.57436" lon="3.15346">
        <ele>571</ele>
        <time>2015-03-29T14:11:44+02:00</time>
      </trkpt>
      <trkpt lat="45.57435" lon="3.15342">
        <ele>571</ele>
        <time>2015-03-29T14:11:44+02:00</time>
      </trkpt>
      <trkpt lat="45.57434" lon="3.15339">
        <ele>570</ele>
        <time>2015-03-29T14:11:44+02:00</time>
      </trkpt>
      <trkpt lat="45.57433" lon="3.15336">
        <ele>571</ele>
        <time>2015-03-29T14:11:44+02:00</time>
      </trkpt>
      <trkpt lat="45.57433" lon="3.15333">
        <ele>571</ele>
        <time>2015-03-29T14:11:44+02:00</time>
      </trkpt>
      <trkpt lat="45.57432" lon="3.15328">
        <ele>571</ele>
        <time>2015-03-29T14:11:44+02:00</time>
      </trkpt>
      <trkpt lat="45.57431" lon="3.15325">
        <ele>571</ele>
        <time>2015-03-29T14:11:44+02:00</time>
      </trkpt>
      <trkpt lat="45.5743" lon="3.1532">
        <ele>572</ele>
        <time>2015-03-29T14:11:44+02:00</time>
      </trkpt>
      <trkpt lat="45.57429" lon="3.15316">
        <ele>572</ele>
        <time>2015-03-29T14:11:44+02:00</time>
      </trkpt>
      <trkpt lat="45.57429" lon="3.15312">
        <ele>573</ele>
        <time>2015-03-29T14:11:44+02:00</time>
      </trkpt>
      <trkpt lat="45.57427" lon="3.15309">
        <ele>572</ele>
        <time>2015-03-29T14:11:44+02:00</time>
      </trkpt>
      <trkpt lat="45.57426" lon="3.15304">
        <ele>572</ele>
        <time>2015-03-29T14:11:44+02:00</time>
      </trkpt>
      <trkpt lat="45.57425" lon="3.153">
        <ele>572</ele>
        <time>2015-03-29T14:11:44+02:00</time>
      </trkpt>
      <trkpt lat="45.57424" lon="3.15296">
        <ele>572</ele>
        <time>2015-03-29T14:11:44+02:00</time>
      </trkpt>
      <trkpt lat="45.57424" lon="3.15292">
        <ele>573</ele>
        <time>2015-03-29T14:11:44+02:00</time>
      </trkpt>
      <trkpt lat="45.57423" lon="3.15288">
        <ele>573</ele>
        <time>2015-03-29T14:11:44+02:00</time>
      </trkpt>
      <trkpt lat="45.57422" lon="3.15286">
        <ele>574</ele>
        <time>2015-03-29T14:11:44+02:00</time>
      </trkpt>
      <trkpt lat="45.5742" lon="3.15281">
        <ele>575</ele>
        <time>2015-03-29T14:11:44+02:00</time>
      </trkpt>
      <trkpt lat="45.5742" lon="3.15278">
        <ele>575</ele>
        <time>2015-03-29T14:11:44+02:00</time>
      </trkpt>
      <trkpt lat="45.57419" lon="3.15275">
        <ele>576</ele>
        <time>2015-03-29T14:11:44+02:00</time>
      </trkpt>
      <trkpt lat="45.57418" lon="3.15271">
        <ele>576</ele>
        <time>2015-03-29T14:11:44+02:00</time>
      </trkpt>
      <trkpt lat="45.57418" lon="3.15267">
        <ele>577</ele>
        <time>2015-03-29T14:11:44+02:00</time>
      </trkpt>
      <trkpt lat="45.57417" lon="3.15265">
        <ele>578</ele>
        <time>2015-03-29T14:11:44+02:00</time>
      </trkpt>
      <trkpt lat="45.57416" lon="3.1526">
        <ele>578</ele>
        <time>2015-03-29T14:11:44+02:00</time>
      </trkpt>
      <trkpt lat="45.57416" lon="3.15258">
        <ele>576</ele>
        <time>2015-03-29T14:11:44+02:00</time>
      </trkpt>
      <trkpt lat="45.57414" lon="3.15255">
        <ele>577</ele>
        <time>2015-03-29T14:11:44+02:00</time>
      </trkpt>
      <trkpt lat="45.57414" lon="3.15252">
        <ele>576</ele>
        <time>2015-03-29T14:11:44+02:00</time>
      </trkpt>
      <trkpt lat="45.57412" lon="3.15248">
        <ele>576</ele>
        <time>2015-03-29T14:11:44+02:00</time>
      </trkpt>
      <trkpt lat="45.57411" lon="3.15245">
        <ele>577</ele>
        <time>2015-03-29T14:11:44+02:00</time>
      </trkpt>
      <trkpt lat="45.5741" lon="3.15242">
        <ele>577</ele>
        <time>2015-03-29T14:11:44+02:00</time>
      </trkpt>
      <trkpt lat="45.57409" lon="3.1524">
        <ele>578</ele>
        <time>2015-03-29T14:11:44+02:00</time>
      </trkpt>
      <trkpt lat="45.57409" lon="3.15236">
        <ele>578</ele>
        <time>2015-03-29T14:11:44+02:00</time>
      </trkpt>
      <trkpt lat="45.57409" lon="3.15234">
        <ele>578</ele>
        <time>2015-03-29T14:11:44+02:00</time>
      </trkpt>
      <trkpt lat="45.57407" lon="3.1523">
        <ele>577</ele>
        <time>2015-03-29T14:11:44+02:00</time>
      </trkpt>
      <trkpt lat="45.57408" lon="3.15226">
        <ele>577</ele>
        <time>2015-03-29T14:11:44+02:00</time>
      </trkpt>
      <trkpt lat="45.57407" lon="3.15223">
        <ele>577</ele>
        <time>2015-03-29T14:11:44+02:00</time>
      </trkpt>
      <trkpt lat="45.57406" lon="3.15219">
        <ele>577</ele>
        <time>2015-03-29T14:11:44+02:00</time>
      </trkpt>
      <trkpt lat="45.57405" lon="3.15216">
        <ele>578</ele>
        <time>2015-03-29T14:11:44+02:00</time>
      </trkpt>
      <trkpt lat="45.57406" lon="3.15212">
        <ele>577</ele>
        <time>2015-03-29T14:11:44+02:00</time>
      </trkpt>
      <trkpt lat="45.57408" lon="3.15208">
        <ele>578</ele>
        <time>2015-03-29T14:11:44+02:00</time>
      </trkpt>
      <trkpt lat="45.57409" lon="3.15205">
        <ele>578</ele>
        <time>2015-03-29T14:11:44+02:00</time>
      </trkpt>
      <trkpt lat="45.57411" lon="3.15202">
        <ele>577</ele>
        <time>2015-03-29T14:11:44+02:00</time>
      </trkpt>
      <trkpt lat="45.57413" lon="3.15198">
        <ele>576</ele>
        <time>2015-03-29T14:11:44+02:00</time>
      </trkpt>
      <trkpt lat="45.57415" lon="3.15197">
        <ele>576</ele>
        <time>2015-03-29T14:11:44+02:00</time>
      </trkpt>
      <trkpt lat="45.57418" lon="3.15193">
        <ele>576</ele>
        <time>2015-03-29T14:11:44+02:00</time>
      </trkpt>
      <trkpt lat="45.57423" lon="3.15193">
        <ele>577</ele>
        <time>2015-03-29T14:11:44+02:00</time>
      </trkpt>
      <trkpt lat="45.57426" lon="3.15193">
        <ele>576</ele>
        <time>2015-03-29T14:11:44+02:00</time>
      </trkpt>
      <trkpt lat="45.57428" lon="3.15191">
        <ele>577</ele>
        <time>2015-03-29T14:11:44+02:00</time>
      </trkpt>
      <trkpt lat="45.5743" lon="3.15189">
        <ele>578</ele>
        <time>2015-03-29T14:11:44+02:00</time>
      </trkpt>
      <trkpt lat="45.57432" lon="3.15187">
        <ele>577</ele>
        <time>2015-03-29T14:11:44+02:00</time>
      </trkpt>
      <trkpt lat="45.57435" lon="3.15185">
        <ele>579</ele>
        <time>2015-03-29T14:11:44+02:00</time>
      </trkpt>
      <trkpt lat="45.57436" lon="3.15183">
        <ele>578</ele>
        <time>2015-03-29T14:11:44+02:00</time>
      </trkpt>
      <trkpt lat="45.57438" lon="3.15181">
        <ele>577</ele>
        <time>2015-03-29T14:11:44+02:00</time>
      </trkpt>
      <trkpt lat="45.57441" lon="3.15179">
        <ele>578</ele>
        <time>2015-03-29T14:11:44+02:00</time>
      </trkpt>
      <trkpt lat="45.57444" lon="3.15178">
        <ele>579</ele>
        <time>2015-03-29T14:11:44+02:00</time>
      </trkpt>
      <trkpt lat="45.57446" lon="3.15175">
        <ele>579</ele>
        <time>2015-03-29T14:13:52+02:00</time>
      </trkpt>
      <trkpt lat="45.57447" lon="3.15171">
        <ele>578</ele>
        <time>2015-03-29T14:13:52+02:00</time>
      </trkpt>
      <trkpt lat="45.57449" lon="3.15169">
        <ele>578</ele>
        <time>2015-03-29T14:13:52+02:00</time>
      </trkpt>
      <trkpt lat="45.57452" lon="3.15168">
        <ele>578</ele>
        <time>2015-03-29T14:13:52+02:00</time>
      </trkpt>
      <trkpt lat="45.57454" lon="3.15167">
        <ele>578</ele>
        <time>2015-03-29T14:13:52+02:00</time>
      </trkpt>
      <trkpt lat="45.57456" lon="3.15165">
        <ele>577</ele>
        <time>2015-03-29T14:13:52+02:00</time>
      </trkpt>
      <trkpt lat="45.57458" lon="3.15162">
        <ele>577</ele>
        <time>2015-03-29T14:13:52+02:00</time>
      </trkpt>
      <trkpt lat="45.57459" lon="3.15159">
        <ele>577</ele>
        <time>2015-03-29T14:13:52+02:00</time>
      </trkpt>
      <trkpt lat="45.57461" lon="3.15157">
        <ele>577</ele>
        <time>2015-03-29T14:13:52+02:00</time>
      </trkpt>
      <trkpt lat="45.57463" lon="3.15155">
        <ele>578</ele>
        <time>2015-03-29T14:13:52+02:00</time>
      </trkpt>
      <trkpt lat="45.57464" lon="3.15152">
        <ele>577</ele>
        <time>2015-03-29T14:13:52+02:00</time>
      </trkpt>
      <trkpt lat="45.57467" lon="3.15149">
        <ele>577</ele>
        <time>2015-03-29T14:13:52+02:00</time>
      </trkpt>
      <trkpt lat="45.57469" lon="3.15147">
        <ele>577</ele>
        <time>2015-03-29T14:13:52+02:00</time>
      </trkpt>
      <trkpt lat="45.57471" lon="3.15145">
        <ele>578</ele>
        <time>2015-03-29T14:13:52+02:00</time>
      </trkpt>
      <trkpt lat="45.57473" lon="3.15143">
        <ele>578</ele>
        <time>2015-03-29T14:13:52+02:00</time>
      </trkpt>
      <trkpt lat="45.57475" lon="3.15142">
        <ele>578</ele>
        <time>2015-03-29T14:13:52+02:00</time>
      </trkpt>
      <trkpt lat="45.57477" lon="3.1514">
        <ele>578</ele>
        <time>2015-03-29T14:13:52+02:00</time>
      </trkpt>
      <trkpt lat="45.57479" lon="3.1514">
        <ele>578</ele>
        <time>2015-03-29T14:13:52+02:00</time>
      </trkpt>
      <trkpt lat="45.57481" lon="3.1514">
        <ele>578</ele>
        <time>2015-03-29T14:13:52+02:00</time>
      </trkpt>
      <trkpt lat="45.57483" lon="3.15139">
        <ele>578</ele>
        <time>2015-03-29T14:13:52+02:00</time>
      </trkpt>
      <trkpt lat="45.57485" lon="3.15138">
        <ele>578</ele>
        <time>2015-03-29T14:13:52+02:00</time>
      </trkpt>
      <trkpt lat="45.57487" lon="3.15136">
        <ele>578</ele>
        <time>2015-03-29T14:13:52+02:00</time>
      </trkpt>
      <trkpt lat="45.57489" lon="3.15131">
        <ele>579</ele>
        <time>2015-03-29T14:13:52+02:00</time>
      </trkpt>
      <trkpt lat="45.5749" lon="3.1513">
        <ele>579</ele>
        <time>2015-03-29T14:13:52+02:00</time>
      </trkpt>
      <trkpt lat="45.57493" lon="3.15127">
        <ele>578</ele>
        <time>2015-03-29T14:13:52+02:00</time>
      </trkpt>
      <trkpt lat="45.57495" lon="3.15125">
        <ele>579</ele>
        <time>2015-03-29T14:13:52+02:00</time>
      </trkpt>
      <trkpt lat="45.57497" lon="3.15123">
        <ele>579</ele>
        <time>2015-03-29T14:13:52+02:00</time>
      </trkpt>
      <trkpt lat="45.57498" lon="3.15122">
        <ele>579</ele>
        <time>2015-03-29T14:13:52+02:00</time>
      </trkpt>
      <trkpt lat="45.57501" lon="3.15119">
        <ele>578</ele>
        <time>2015-03-29T14:13:52+02:00</time>
      </trkpt>
      <trkpt lat="45.57503" lon="3.15117">
        <ele>578</ele>
        <time>2015-03-29T14:13:52+02:00</time>
      </trkpt>
      <trkpt lat="45.57507" lon="3.15114">
        <ele>578</ele>
        <time>2015-03-29T14:13:52+02:00</time>
      </trkpt>
      <trkpt lat="45.57509" lon="3.15112">
        <ele>578</ele>
        <time>2015-03-29T14:13:52+02:00</time>
      </trkpt>
      <trkpt lat="45.57511" lon="3.15111">
        <ele>578</ele>
        <time>2015-03-29T14:13:52+02:00</time>
      </trkpt>
      <trkpt lat="45.57513" lon="3.15108">
        <ele>578</ele>
        <time>2015-03-29T14:13:52+02:00</time>
      </trkpt>
      <trkpt lat="45.57516" lon="3.15106">
        <ele>578</ele>
        <time>2015-03-29T14:13:52+02:00</time>
      </trkpt>
      <trkpt lat="45.57518" lon="3.15101">
        <ele>578</ele>
        <time>2015-03-29T14:13:52+02:00</time>
      </trkpt>
      <trkpt lat="45.57519" lon="3.15099">
        <ele>578</ele>
        <time>2015-03-29T14:13:52+02:00</time>
      </trkpt>
      <trkpt lat="45.57522" lon="3.15095">
        <ele>579</ele>
        <time>2015-03-29T14:13:52+02:00</time>
      </trkpt>
      <trkpt lat="45.57522" lon="3.15091">
        <ele>578</ele>
        <time>2015-03-29T14:13:52+02:00</time>
      </trkpt>
      <trkpt lat="45.57523" lon="3.15087">
        <ele>578</ele>
        <time>2015-03-29T14:13:52+02:00</time>
      </trkpt>
      <trkpt lat="45.57523" lon="3.15082">
        <ele>577</ele>
        <time>2015-03-29T14:13:52+02:00</time>
      </trkpt>
      <trkpt lat="45.57524" lon="3.15079">
        <ele>578</ele>
        <time>2015-03-29T14:13:52+02:00</time>
      </trkpt>
      <trkpt lat="45.57524" lon="3.15076">
        <ele>578</ele>
        <time>2015-03-29T14:13:52+02:00</time>
      </trkpt>
      <trkpt lat="45.5752" lon="3.15077">
        <ele>583</ele>
        <time>2015-03-29T14:13:52+02:00</time>
      </trkpt>
      <trkpt lat="45.57519" lon="3.15075">
        <ele>584</ele>
        <time>2015-03-29T14:13:52+02:00</time>
      </trkpt>
      <trkpt lat="45.57518" lon="3.15072">
        <ele>586</ele>
        <time>2015-03-29T14:13:52+02:00</time>
      </trkpt>
      <trkpt lat="45.57518" lon="3.15068">
        <ele>587</ele>
        <time>2015-03-29T14:13:52+02:00</time>
      </trkpt>
      <trkpt lat="45.57517" lon="3.15065">
        <ele>588</ele>
        <time>2015-03-29T14:13:52+02:00</time>
      </trkpt>
      <trkpt lat="45.57517" lon="3.15061">
        <ele>588</ele>
        <time>2015-03-29T14:13:52+02:00</time>
      </trkpt>
      <trkpt lat="45.57516" lon="3.15058">
        <ele>588</ele>
        <time>2015-03-29T14:13:52+02:00</time>
      </trkpt>
      <trkpt lat="45.57516" lon="3.15054">
        <ele>587</ele>
        <time>2015-03-29T14:13:52+02:00</time>
      </trkpt>
      <trkpt lat="45.57515" lon="3.1505">
        <ele>586</ele>
        <time>2015-03-29T14:13:52+02:00</time>
      </trkpt>
      <trkpt lat="45.57515" lon="3.15045">
        <ele>586</ele>
        <time>2015-03-29T14:13:52+02:00</time>
      </trkpt>
      <trkpt lat="45.57514" lon="3.15043">
        <ele>586</ele>
        <time>2015-03-29T14:13:52+02:00</time>
      </trkpt>
      <trkpt lat="45.57514" lon="3.15038">
        <ele>585</ele>
        <time>2015-03-29T14:13:52+02:00</time>
      </trkpt>
      <trkpt lat="45.57513" lon="3.15033">
        <ele>585</ele>
        <time>2015-03-29T14:13:52+02:00</time>
      </trkpt>
      <trkpt lat="45.57512" lon="3.15028">
        <ele>585</ele>
        <time>2015-03-29T14:13:52+02:00</time>
      </trkpt>
      <trkpt lat="45.57511" lon="3.15023">
        <ele>584</ele>
        <time>2015-03-29T14:13:52+02:00</time>
      </trkpt>
      <trkpt lat="45.57509" lon="3.15021">
        <ele>584</ele>
        <time>2015-03-29T14:13:52+02:00</time>
      </trkpt>
      <trkpt lat="45.57511" lon="3.15021">
        <ele>584</ele>
        <time>2015-03-29T14:13:52+02:00</time>
      </trkpt>
      <trkpt lat="45.5751" lon="3.15019">
        <ele>583</ele>
        <time>2015-03-29T14:16:00+02:00</time>
      </trkpt>
      <trkpt lat="45.5751" lon="3.15016">
        <ele>584</ele>
        <time>2015-03-29T14:16:00+02:00</time>
      </trkpt>
      <trkpt lat="45.57509" lon="3.15012">
        <ele>585</ele>
        <time>2015-03-29T14:16:00+02:00</time>
      </trkpt>
      <trkpt lat="45.57508" lon="3.1501">
        <ele>585</ele>
        <time>2015-03-29T14:16:00+02:00</time>
      </trkpt>
      <trkpt lat="45.57508" lon="3.15008">
        <ele>585</ele>
        <time>2015-03-29T14:16:00+02:00</time>
      </trkpt>
      <trkpt lat="45.57507" lon="3.15003">
        <ele>585</ele>
        <time>2015-03-29T14:16:00+02:00</time>
      </trkpt>
      <trkpt lat="45.57507" lon="3.15">
        <ele>586</ele>
        <time>2015-03-29T14:16:00+02:00</time>
      </trkpt>
      <trkpt lat="45.57506" lon="3.14996">
        <ele>585</ele>
        <time>2015-03-29T14:16:00+02:00</time>
      </trkpt>
      <trkpt lat="45.57505" lon="3.14992">
        <ele>585</ele>
        <time>2015-03-29T14:16:00+02:00</time>
      </trkpt>
      <trkpt lat="45.57504" lon="3.14988">
        <ele>585</ele>
        <time>2015-03-29T14:16:00+02:00</time>
      </trkpt>
      <trkpt lat="45.57504" lon="3.14984">
        <ele>585</ele>
        <time>2015-03-29T14:16:00+02:00</time>
      </trkpt>
      <trkpt lat="45.57503" lon="3.1498">
        <ele>585</ele>
        <time>2015-03-29T14:16:00+02:00</time>
      </trkpt>
      <trkpt lat="45.57502" lon="3.14977">
        <ele>585</ele>
        <time>2015-03-29T14:16:00+02:00</time>
      </trkpt>
      <trkpt lat="45.57502" lon="3.14973">
        <ele>584</ele>
        <time>2015-03-29T14:16:00+02:00</time>
      </trkpt>
      <trkpt lat="45.57501" lon="3.1497">
        <ele>584</ele>
        <time>2015-03-29T14:16:00+02:00</time>
      </trkpt>
      <trkpt lat="45.575" lon="3.14968">
        <ele>584</ele>
        <time>2015-03-29T14:16:00+02:00</time>
      </trkpt>
      <trkpt lat="45.575" lon="3.14965">
        <ele>584</ele>
        <time>2015-03-29T14:16:00+02:00</time>
      </trkpt>
      <trkpt lat="45.57499" lon="3.14961">
        <ele>584</ele>
        <time>2015-03-29T14:16:00+02:00</time>
      </trkpt>
      <trkpt lat="45.57499" lon="3.14956">
        <ele>585</ele>
        <time>2015-03-29T14:16:00+02:00</time>
      </trkpt>
      <trkpt lat="45.57498" lon="3.14937">
        <ele>583</ele>
        <time>2015-03-29T14:16:00+02:00</time>
      </trkpt>
      <trkpt lat="45.57518" lon="3.14859">
        <ele>585</ele>
        <time>2015-03-29T14:16:00+02:00</time>
      </trkpt>
      <trkpt lat="45.5752" lon="3.14856">
        <ele>585</ele>
        <time>2015-03-29T14:16:00+02:00</time>
      </trkpt>
      <trkpt lat="45.57521" lon="3.14853">
        <ele>586</ele>
        <time>2015-03-29T14:16:00+02:00</time>
      </trkpt>
      <trkpt lat="45.57523" lon="3.14851">
        <ele>586</ele>
        <time>2015-03-29T14:16:00+02:00</time>
      </trkpt>
      <trkpt lat="45.57524" lon="3.14849">
        <ele>586</ele>
        <time>2015-03-29T14:16:00+02:00</time>
      </trkpt>
      <trkpt lat="45.57525" lon="3.14846">
        <ele>586</ele>
        <time>2015-03-29T14:16:00+02:00</time>
      </trkpt>
      <trkpt lat="45.57528" lon="3.14843">
        <ele>587</ele>
        <time>2015-03-29T14:16:00+02:00</time>
      </trkpt>
      <trkpt lat="45.57529" lon="3.14841">
        <ele>587</ele>
        <time>2015-03-29T14:16:00+02:00</time>
      </trkpt>
      <trkpt lat="45.57532" lon="3.14837">
        <ele>588</ele>
        <time>2015-03-29T14:16:00+02:00</time>
      </trkpt>
      <trkpt lat="45.57534" lon="3.14835">
        <ele>589</ele>
        <time>2015-03-29T14:16:00+02:00</time>
      </trkpt>
      <trkpt lat="45.57535" lon="3.14832">
        <ele>589</ele>
        <time>2015-03-29T14:16:00+02:00</time>
      </trkpt>
      <trkpt lat="45.57537" lon="3.1483">
        <ele>590</ele>
        <time>2015-03-29T14:16:00+02:00</time>
      </trkpt>
      <trkpt lat="45.57539" lon="3.14827">
        <ele>590</ele>
        <time>2015-03-29T14:16:00+02:00</time>
      </trkpt>
      <trkpt lat="45.57541" lon="3.14825">
        <ele>590</ele>
        <time>2015-03-29T14:16:00+02:00</time>
      </trkpt>
      <trkpt lat="45.57543" lon="3.14823">
        <ele>591</ele>
        <time>2015-03-29T14:16:00+02:00</time>
      </trkpt>
      <trkpt lat="45.57544" lon="3.14821">
        <ele>592</ele>
        <time>2015-03-29T14:16:00+02:00</time>
      </trkpt>
      <trkpt lat="45.57546" lon="3.14817">
        <ele>592</ele>
        <time>2015-03-29T14:16:00+02:00</time>
      </trkpt>
      <trkpt lat="45.57547" lon="3.14815">
        <ele>592</ele>
        <time>2015-03-29T14:16:00+02:00</time>
      </trkpt>
      <trkpt lat="45.5755" lon="3.14812">
        <ele>593</ele>
        <time>2015-03-29T14:16:00+02:00</time>
      </trkpt>
      <trkpt lat="45.57551" lon="3.1481">
        <ele>593</ele>
        <time>2015-03-29T14:16:00+02:00</time>
      </trkpt>
      <trkpt lat="45.57553" lon="3.14807">
        <ele>593</ele>
        <time>2015-03-29T14:16:00+02:00</time>
      </trkpt>
      <trkpt lat="45.57555" lon="3.14804">
        <ele>592</ele>
        <time>2015-03-29T14:16:00+02:00</time>
      </trkpt>
      <trkpt lat="45.57556" lon="3.14802">
        <ele>592</ele>
        <time>2015-03-29T14:16:00+02:00</time>
      </trkpt>
      <trkpt lat="45.57557" lon="3.14799">
        <ele>592</ele>
        <time>2015-03-29T14:16:00+02:00</time>
      </trkpt>
      <trkpt lat="45.57559" lon="3.14796">
        <ele>593</ele>
        <time>2015-03-29T14:16:00+02:00</time>
      </trkpt>
      <trkpt lat="45.57561" lon="3.14793">
        <ele>593</ele>
        <time>2015-03-29T14:18:08+02:00</time>
      </trkpt>
      <trkpt lat="45.57563" lon="3.14792">
        <ele>593</ele>
        <time>2015-03-29T14:18:08+02:00</time>
      </trkpt>
      <trkpt lat="45.57565" lon="3.14789">
        <ele>594</ele>
        <time>2015-03-29T14:18:08+02:00</time>
      </trkpt>
      <trkpt lat="45.5757" lon="3.14783">
        <ele>595</ele>
        <time>2015-03-29T14:18:08+02:00</time>
      </trkpt>
      <trkpt lat="45.57573" lon="3.14781">
        <ele>596</ele>
        <time>2015-03-29T14:18:08+02:00</time>
      </trkpt>
      <trkpt lat="45.57576" lon="3.14777">
        <ele>596</ele>
        <time>2015-03-29T14:18:08+02:00</time>
      </trkpt>
      <trkpt lat="45.57578" lon="3.14774">
        <ele>595</ele>
        <time>2015-03-29T14:18:08+02:00</time>
      </trkpt>
      <trkpt lat="45.5758" lon="3.1477">
        <ele>594</ele>
        <time>2015-03-29T14:18:08+02:00</time>
      </trkpt>
      <trkpt lat="45.57583" lon="3.14768">
        <ele>595</ele>
        <time>2015-03-29T14:18:08+02:00</time>
      </trkpt>
      <trkpt lat="45.57585" lon="3.14766">
        <ele>595</ele>
        <time>2015-03-29T14:18:08+02:00</time>
      </trkpt>
      <trkpt lat="45.57587" lon="3.14764">
        <ele>595</ele>
        <time>2015-03-29T14:18:08+02:00</time>
      </trkpt>
      <trkpt lat="45.57589" lon="3.14761">
        <ele>595</ele>
        <time>2015-03-29T14:18:08+02:00</time>
      </trkpt>
      <trkpt lat="45.57591" lon="3.14757">
        <ele>593</ele>
        <time>2015-03-29T14:18:08+02:00</time>
      </trkpt>
      <trkpt lat="45.57593" lon="3.14754">
        <ele>593</ele>
        <time>2015-03-29T14:18:08+02:00</time>
      </trkpt>
      <trkpt lat="45.57595" lon="3.14752">
        <ele>592</ele>
        <time>2015-03-29T14:18:08+02:00</time>
      </trkpt>
      <trkpt lat="45.57597" lon="3.14751">
        <ele>591</ele>
        <time>2015-03-29T14:18:08+02:00</time>
      </trkpt>
      <trkpt lat="45.576" lon="3.14747">
        <ele>591</ele>
        <time>2015-03-29T14:18:08+02:00</time>
      </trkpt>
      <trkpt lat="45.57602" lon="3.14745">
        <ele>591</ele>
        <time>2015-03-29T14:18:08+02:00</time>
      </trkpt>
      <trkpt lat="45.57604" lon="3.14743">
        <ele>590</ele>
        <time>2015-03-29T14:18:08+02:00</time>
      </trkpt>
      <trkpt lat="45.57606" lon="3.14741">
        <ele>590</ele>
        <time>2015-03-29T14:18:08+02:00</time>
      </trkpt>
      <trkpt lat="45.57608" lon="3.1474">
        <ele>590</ele>
        <time>2015-03-29T14:18:08+02:00</time>
      </trkpt>
      <trkpt lat="45.5761" lon="3.14738">
        <ele>590</ele>
        <time>2015-03-29T14:18:08+02:00</time>
      </trkpt>
      <trkpt lat="45.57611" lon="3.14737">
        <ele>590</ele>
        <time>2015-03-29T14:18:08+02:00</time>
      </trkpt>
      <trkpt lat="45.57613" lon="3.14736">
        <ele>591</ele>
        <time>2015-03-29T14:18:08+02:00</time>
      </trkpt>
      <trkpt lat="45.57615" lon="3.14735">
        <ele>592</ele>
        <time>2015-03-29T14:18:08+02:00</time>
      </trkpt>
      <trkpt lat="45.57617" lon="3.14734">
        <ele>592</ele>
        <time>2015-03-29T14:18:08+02:00</time>
      </trkpt>
      <trkpt lat="45.57619" lon="3.14731">
        <ele>592</ele>
        <time>2015-03-29T14:18:08+02:00</time>
      </trkpt>
      <trkpt lat="45.57621" lon="3.1473">
        <ele>592</ele>
        <time>2015-03-29T14:18:08+02:00</time>
      </trkpt>
      <trkpt lat="45.57623" lon="3.14728">
        <ele>593</ele>
        <time>2015-03-29T14:18:08+02:00</time>
      </trkpt>
      <trkpt lat="45.57626" lon="3.14725">
        <ele>592</ele>
        <time>2015-03-29T14:18:08+02:00</time>
      </trkpt>
      <trkpt lat="45.57628" lon="3.14722">
        <ele>593</ele>
        <time>2015-03-29T14:18:08+02:00</time>
      </trkpt>
      <trkpt lat="45.57629" lon="3.1472">
        <ele>593</ele>
        <time>2015-03-29T14:18:08+02:00</time>
      </trkpt>
      <trkpt lat="45.57631" lon="3.14717">
        <ele>592</ele>
        <time>2015-03-29T14:18:08+02:00</time>
      </trkpt>
      <trkpt lat="45.57633" lon="3.14715">
        <ele>592</ele>
        <time>2015-03-29T14:18:08+02:00</time>
      </trkpt>
      <trkpt lat="45.57634" lon="3.14712">
        <ele>592</ele>
        <time>2015-03-29T14:18:08+02:00</time>
      </trkpt>
      <trkpt lat="45.57636" lon="3.14709">
        <ele>592</ele>
        <time>2015-03-29T14:18:08+02:00</time>
      </trkpt>
      <trkpt lat="45.57637" lon="3.14707">
        <ele>592</ele>
        <time>2015-03-29T14:18:08+02:00</time>
      </trkpt>
      <trkpt lat="45.57639" lon="3.14704">
        <ele>593</ele>
        <time>2015-03-29T14:18:08+02:00</time>
      </trkpt>
      <trkpt lat="45.57641" lon="3.14701">
        <ele>593</ele>
        <time>2015-03-29T14:18:08+02:00</time>
      </trkpt>
      <trkpt lat="45.57643" lon="3.14699">
        <ele>593</ele>
        <time>2015-03-29T14:18:08+02:00</time>
      </trkpt>
      <trkpt lat="45.57644" lon="3.14697">
        <ele>592</ele>
        <time>2015-03-29T14:18:08+02:00</time>
      </trkpt>
      <trkpt lat="45.57646" lon="3.14696">
        <ele>593</ele>
        <time>2015-03-29T14:18:08+02:00</time>
      </trkpt>
      <trkpt lat="45.57647" lon="3.14694">
        <ele>592</ele>
        <time>2015-03-29T14:18:08+02:00</time>
      </trkpt>
      <trkpt lat="45.57647" lon="3.14689">
        <ele>591</ele>
        <time>2015-03-29T14:18:08+02:00</time>
      </trkpt>
      <trkpt lat="45.57647" lon="3.14686">
        <ele>592</ele>
        <time>2015-03-29T14:18:08+02:00</time>
      </trkpt>
      <trkpt lat="45.57651" lon="3.14678">
        <ele>595</ele>
        <time>2015-03-29T14:18:08+02:00</time>
      </trkpt>
      <trkpt lat="45.57653" lon="3.14677">
        <ele>595</ele>
        <time>2015-03-29T14:18:08+02:00</time>
      </trkpt>
      <trkpt lat="45.57655" lon="3.14674">
        <ele>594</ele>
        <time>2015-03-29T14:18:08+02:00</time>
      </trkpt>
      <trkpt lat="45.58407" lon="3.13622">
        <ele>602</ele>
        <time>2015-03-29T14:30:56+02:00</time>
      </trkpt>
      <trkpt lat="45.58409" lon="3.13619">
        <ele>600</ele>
        <time>2015-03-29T14:30:56+02:00</time>
      </trkpt>
      <trkpt lat="45.5841" lon="3.13618">
        <ele>600</ele>
        <time>2015-03-29T14:30:56+02:00</time>
      </trkpt>
      <trkpt lat="45.58412" lon="3.13614">
        <ele>599</ele>
        <time>2015-03-29T14:30:56+02:00</time>
      </trkpt>
      <trkpt lat="45.58414" lon="3.13611">
        <ele>598</ele>
        <time>2015-03-29T14:30:56+02:00</time>
      </trkpt>
      <trkpt lat="45.58415" lon="3.13609">
        <ele>598</ele>
        <time>2015-03-29T14:30:56+02:00</time>
      </trkpt>
      <trkpt lat="45.58417" lon="3.13607">
        <ele>597</ele>
        <time>2015-03-29T14:30:56+02:00</time>
      </trkpt>
      <trkpt lat="45.58418" lon="3.13604">
        <ele>597</ele>
        <time>2015-03-29T14:30:56+02:00</time>
      </trkpt>
      <trkpt lat="45.58421" lon="3.13602">
        <ele>596</ele>
        <time>2015-03-29T14:30:56+02:00</time>
      </trkpt>
      <trkpt lat="45.58422" lon="3.136">
        <ele>596</ele>
        <time>2015-03-29T14:30:56+02:00</time>
      </trkpt>
      <trkpt lat="45.58424" lon="3.13597">
        <ele>595</ele>
        <time>2015-03-29T14:30:56+02:00</time>
      </trkpt>
      <trkpt lat="45.58426" lon="3.13595">
        <ele>595</ele>
        <time>2015-03-29T14:30:56+02:00</time>
      </trkpt>
      <trkpt lat="45.58428" lon="3.13594">
        <ele>595</ele>
        <time>2015-03-29T14:30:56+02:00</time>
      </trkpt>
      <trkpt lat="45.5843" lon="3.13596">
        <ele>595</ele>
        <time>2015-03-29T14:30:56+02:00</time>
      </trkpt>
      <trkpt lat="45.58432" lon="3.13597">
        <ele>595</ele>
        <time>2015-03-29T14:30:56+02:00</time>
      </trkpt>
      <trkpt lat="45.58437" lon="3.13596">
        <ele>596</ele>
        <time>2015-03-29T14:30:56+02:00</time>
      </trkpt>
      <trkpt lat="45.58439" lon="3.13595">
        <ele>596</ele>
        <time>2015-03-29T14:30:56+02:00</time>
      </trkpt>
      <trkpt lat="45.58441" lon="3.13595">
        <ele>595</ele>
        <time>2015-03-29T14:30:56+02:00</time>
      </trkpt>
      <trkpt lat="45.58443" lon="3.13594">
        <ele>595</ele>
        <time>2015-03-29T14:30:56+02:00</time>
      </trkpt>
      <trkpt lat="45.58445" lon="3.13595">
        <ele>595</ele>
        <time>2015-03-29T14:30:56+02:00</time>
      </trkpt>
      <trkpt lat="45.58447" lon="3.13595">
        <ele>595</ele>
        <time>2015-03-29T14:30:56+02:00</time>
      </trkpt>
      <trkpt lat="45.5845" lon="3.13594">
        <ele>591</ele>
        <time>2015-03-29T14:30:56+02:00</time>
      </trkpt>
      <trkpt lat="45.58452" lon="3.13594">
        <ele>591</ele>
        <time>2015-03-29T14:30:56+02:00</time>
      </trkpt>
      <trkpt lat="45.58455" lon="3.13594">
        <ele>591</ele>
        <time>2015-03-29T14:30:56+02:00</time>
      </trkpt>
      <trkpt lat="45.58457" lon="3.13595">
        <ele>590</ele>
        <time>2015-03-29T14:30:56+02:00</time>
      </trkpt>
      <trkpt lat="45.58473" lon="3.13593">
        <ele>589</ele>
        <time>2015-03-29T14:30:56+02:00</time>
      </trkpt>
      <trkpt lat="45.58475" lon="3.13593">
        <ele>589</ele>
        <time>2015-03-29T14:30:56+02:00</time>
      </trkpt>
      <trkpt lat="45.58478" lon="3.13593">
        <ele>588</ele>
        <time>2015-03-29T14:30:56+02:00</time>
      </trkpt>
      <trkpt lat="45.5848" lon="3.13594">
        <ele>587</ele>
        <time>2015-03-29T14:30:56+02:00</time>
      </trkpt>
      <trkpt lat="45.58482" lon="3.13594">
        <ele>587</ele>
        <time>2015-03-29T14:30:56+02:00</time>
      </trkpt>
      <trkpt lat="45.58485" lon="3.13593">
        <ele>588</ele>
        <time>2015-03-29T14:30:56+02:00</time>
      </trkpt>
      <trkpt lat="45.58487" lon="3.13593">
        <ele>587</ele>
        <time>2015-03-29T14:30:56+02:00</time>
      </trkpt>
      <trkpt lat="45.58491" lon="3.13593">
        <ele>586</ele>
        <time>2015-03-29T14:30:56+02:00</time>
      </trkpt>
      <trkpt lat="45.58494" lon="3.13593">
        <ele>586</ele>
        <time>2015-03-29T14:30:56+02:00</time>
      </trkpt>
      <trkpt lat="45.58497" lon="3.13593">
        <ele>586</ele>
        <time>2015-03-29T14:30:56+02:00</time>
      </trkpt>
      <trkpt lat="45.58499" lon="3.13593">
        <ele>586</ele>
        <time>2015-03-29T14:30:56+02:00</time>
      </trkpt>
      <trkpt lat="45.58502" lon="3.13593">
        <ele>586</ele>
        <time>2015-03-29T14:30:56+02:00</time>
      </trkpt>
      <trkpt lat="45.58505" lon="3.13592">
        <ele>586</ele>
        <time>2015-03-29T14:30:56+02:00</time>
      </trkpt>
      <trkpt lat="45.58506" lon="3.13592">
        <ele>586</ele>
        <time>2015-03-29T14:30:56+02:00</time>
      </trkpt>
      <trkpt lat="45.58508" lon="3.13594">
        <ele>586</ele>
        <time>2015-03-29T14:30:56+02:00</time>
      </trkpt>
      <trkpt lat="45.58511" lon="3.13594">
        <ele>586</ele>
        <time>2015-03-29T14:33:04+02:00</time>
      </trkpt>
      <trkpt lat="45.58514" lon="3.13595">
        <ele>586</ele>
        <time>2015-03-29T14:33:04+02:00</time>
      </trkpt>
      <trkpt lat="45.58516" lon="3.13596">
        <ele>586</ele>
        <time>2015-03-29T14:33:04+02:00</time>
      </trkpt>
      <trkpt lat="45.58522" lon="3.13598">
        <ele>587</ele>
        <time>2015-03-29T14:33:04+02:00</time>
      </trkpt>
      <trkpt lat="45.58526" lon="3.13598">
        <ele>588</ele>
        <time>2015-03-29T14:33:04+02:00</time>
      </trkpt>
      <trkpt lat="45.58528" lon="3.13599">
        <ele>589</ele>
        <time>2015-03-29T14:33:04+02:00</time>
      </trkpt>
      <trkpt lat="45.5853" lon="3.13601">
        <ele>589</ele>
        <time>2015-03-29T14:33:04+02:00</time>
      </trkpt>
      <trkpt lat="45.58533" lon="3.13601">
        <ele>588</ele>
        <time>2015-03-29T14:33:04+02:00</time>
      </trkpt>
      <trkpt lat="45.58535" lon="3.13602">
        <ele>588</ele>
        <time>2015-03-29T14:33:04+02:00</time>
      </trkpt>
      <trkpt lat="45.58537" lon="3.13602">
        <ele>588</ele>
        <time>2015-03-29T14:33:04+02:00</time>
      </trkpt>
      <trkpt lat="45.58539" lon="3.13603">
        <ele>589</ele>
        <time>2015-03-29T14:33:04+02:00</time>
      </trkpt>
      <trkpt lat="45.58542" lon="3.13604">
        <ele>589</ele>
        <time>2015-03-29T14:33:04+02:00</time>
      </trkpt>
      <trkpt lat="45.58545" lon="3.13604">
        <ele>589</ele>
        <time>2015-03-29T14:33:04+02:00</time>
      </trkpt>
      <trkpt lat="45.58547" lon="3.13603">
        <ele>588</ele>
        <time>2015-03-29T14:33:04+02:00</time>
      </trkpt>
      <trkpt lat="45.5855" lon="3.13603">
        <ele>587</ele>
        <time>2015-03-29T14:33:04+02:00</time>
      </trkpt>
      <trkpt lat="45.58554" lon="3.13603">
        <ele>586</ele>
        <time>2015-03-29T14:33:04+02:00</time>
      </trkpt>
      <trkpt lat="45.58558" lon="3.13602">
        <ele>585</ele>
        <time>2015-03-29T14:33:04+02:00</time>
      </trkpt>
      <trkpt lat="45.5856" lon="3.13602">
        <ele>585</ele>
        <time>2015-03-29T14:33:04+02:00</time>
      </trkpt>
      <trkpt lat="45.58562" lon="3.13602">
        <ele>584</ele>
        <time>2015-03-29T14:33:04+02:00</time>
      </trkpt>
      <trkpt lat="45.58564" lon="3.13599">
        <ele>584</ele>
        <time>2015-03-29T14:33:04+02:00</time>
      </trkpt>
      <trkpt lat="45.58566" lon="3.13597">
        <ele>584</ele>
        <time>2015-03-29T14:33:04+02:00</time>
      </trkpt>
      <trkpt lat="45.58569" lon="3.13597">
        <ele>583</ele>
        <time>2015-03-29T14:33:04+02:00</time>
      </trkpt>
      <trkpt lat="45.58571" lon="3.13595">
        <ele>583</ele>
        <time>2015-03-29T14:33:04+02:00</time>
      </trkpt>
      <trkpt lat="45.58573" lon="3.13594">
        <ele>582</ele>
        <time>2015-03-29T14:33:04+02:00</time>
      </trkpt>
      <trkpt lat="45.58575" lon="3.13594">
        <ele>582</ele>
        <time>2015-03-29T14:33:04+02:00</time>
      </trkpt>
      <trkpt lat="45.58577" lon="3.13594">
        <ele>581</ele>
        <time>2015-03-29T14:33:04+02:00</time>
      </trkpt>
      <trkpt lat="45.58579" lon="3.13593">
        <ele>581</ele>
        <time>2015-03-29T14:33:04+02:00</time>
      </trkpt>
      <trkpt lat="45.5858" lon="3.1359">
        <ele>579</ele>
        <time>2015-03-29T14:33:04+02:00</time>
      </trkpt>
      <trkpt lat="45.58583" lon="3.13589">
        <ele>578</ele>
        <time>2015-03-29T14:33:04+02:00</time>
      </trkpt>
      <trkpt lat="45.58585" lon="3.13589">
        <ele>577</ele>
        <time>2015-03-29T14:33:04+02:00</time>
      </trkpt>
      <trkpt lat="45.58588" lon="3.13588">
        <ele>577</ele>
        <time>2015-03-29T14:33:04+02:00</time>
      </trkpt>
      <trkpt lat="45.58591" lon="3.13588">
        <ele>577</ele>
        <time>2015-03-29T14:33:04+02:00</time>
      </trkpt>
      <trkpt lat="45.58595" lon="3.13587">
        <ele>575</ele>
        <time>2015-03-29T14:33:04+02:00</time>
      </trkpt>
      <trkpt lat="45.58598" lon="3.13586">
        <ele>574</ele>
        <time>2015-03-29T14:33:04+02:00</time>
      </trkpt>
      <trkpt lat="45.586" lon="3.13585">
        <ele>574</ele>
        <time>2015-03-29T14:33:04+02:00</time>
      </trkpt>
      <trkpt lat="45.58602" lon="3.13585">
        <ele>574</ele>
        <time>2015-03-29T14:33:04+02:00</time>
      </trkpt>
      <trkpt lat="45.58605" lon="3.13584">
        <ele>574</ele>
        <time>2015-03-29T14:33:04+02:00</time>
      </trkpt>
      <trkpt lat="45.58635" lon="3.13577">
        <ele>567</ele>
        <time>2015-03-29T14:33:04+02:00</time>
      </trkpt>
      <trkpt lat="45.58638" lon="3.13576">
        <ele>566</ele>
        <time>2015-03-29T14:33:04+02:00</time>
      </trkpt>
      <trkpt lat="45.5864" lon="3.13575">
        <ele>567</ele>
        <time>2015-03-29T14:33:04+02:00</time>
      </trkpt>
      <trkpt lat="45.58642" lon="3.13575">
        <ele>567</ele>
        <time>2015-03-29T14:33:04+02:00</time>
      </trkpt>
      <trkpt lat="45.58644" lon="3.13573">
        <ele>568</ele>
        <time>2015-03-29T14:33:04+02:00</time>
      </trkpt>
      <trkpt lat="45.58646" lon="3.13572">
        <ele>566</ele>
        <time>2015-03-29T14:33:04+02:00</time>
      </trkpt>
      <trkpt lat="45.58649" lon="3.13571">
        <ele>566</ele>
        <time>2015-03-29T14:33:04+02:00</time>
      </trkpt>
      <trkpt lat="45.58651" lon="3.13568">
        <ele>566</ele>
        <time>2015-03-29T14:33:04+02:00</time>
      </trkpt>
      <trkpt lat="45.58653" lon="3.13565">
        <ele>565</ele>
        <time>2015-03-29T14:33:04+02:00</time>
      </trkpt>
      <trkpt lat="45.58653" lon="3.13562">
        <ele>563</ele>
        <time>2015-03-29T14:33:04+02:00</time>
      </trkpt>
      <trkpt lat="45.58654" lon="3.13558">
        <ele>562</ele>
        <time>2015-03-29T14:33:04+02:00</time>
      </trkpt>
      <trkpt lat="45.58658" lon="3.13555">
        <ele>563</ele>
        <time>2015-03-29T14:33:04+02:00</time>
      </trkpt>
      <trkpt lat="45.5866" lon="3.13551">
        <ele>564</ele>
        <time>2015-03-29T14:33:04+02:00</time>
      </trkpt>
      <trkpt lat="45.58662" lon="3.13549">
        <ele>563</ele>
        <time>2015-03-29T14:33:04+02:00</time>
      </trkpt>
      <trkpt lat="45.58662" lon="3.13546">
        <ele>562</ele>
        <time>2015-03-29T14:33:04+02:00</time>
      </trkpt>
      <trkpt lat="45.58662" lon="3.13541">
        <ele>562</ele>
        <time>2015-03-29T14:33:04+02:00</time>
      </trkpt>
      <trkpt lat="45.58662" lon="3.13537">
        <ele>561</ele>
        <time>2015-03-29T14:33:04+02:00</time>
      </trkpt>
      <trkpt lat="45.58662" lon="3.13534">
        <ele>560</ele>
        <time>2015-03-29T14:33:04+02:00</time>
      </trkpt>
      <trkpt lat="45.58664" lon="3.1353">
        <ele>561</ele>
        <time>2015-03-29T14:33:04+02:00</time>
      </trkpt>
      <trkpt lat="45.58665" lon="3.13528">
        <ele>561</ele>
        <time>2015-03-29T14:33:04+02:00</time>
      </trkpt>
      <trkpt lat="45.58666" lon="3.13524">
        <ele>561</ele>
        <time>2015-03-29T14:33:04+02:00</time>
      </trkpt>
      <trkpt lat="45.58668" lon="3.1352">
        <ele>561</ele>
        <time>2015-03-29T14:33:04+02:00</time>
      </trkpt>
      <trkpt lat="45.58668" lon="3.13516">
        <ele>561</ele>
        <time>2015-03-29T14:33:04+02:00</time>
      </trkpt>
      <trkpt lat="45.58665" lon="3.13513">
        <ele>559</ele>
        <time>2015-03-29T14:33:04+02:00</time>
      </trkpt>
      <trkpt lat="45.58667" lon="3.1351">
        <ele>559</ele>
        <time>2015-03-29T14:33:04+02:00</time>
      </trkpt>
      <trkpt lat="45.58668" lon="3.13506">
        <ele>559</ele>
        <time>2015-03-29T14:35:12+02:00</time>
      </trkpt>
      <trkpt lat="45.58667" lon="3.13502">
        <ele>557</ele>
        <time>2015-03-29T14:35:12+02:00</time>
      </trkpt>
      <trkpt lat="45.58668" lon="3.135">
        <ele>557</ele>
        <time>2015-03-29T14:35:12+02:00</time>
      </trkpt>
      <trkpt lat="45.58671" lon="3.13494">
        <ele>557</ele>
        <time>2015-03-29T14:35:12+02:00</time>
      </trkpt>
      <trkpt lat="45.58673" lon="3.13489">
        <ele>555</ele>
        <time>2015-03-29T14:35:12+02:00</time>
      </trkpt>
      <trkpt lat="45.58674" lon="3.13485">
        <ele>554</ele>
        <time>2015-03-29T14:35:12+02:00</time>
      </trkpt>
      <trkpt lat="45.58674" lon="3.13483">
        <ele>555</ele>
        <time>2015-03-29T14:35:12+02:00</time>
      </trkpt>
      <trkpt lat="45.58679" lon="3.13482">
        <ele>557</ele>
        <time>2015-03-29T14:35:12+02:00</time>
      </trkpt>
      <trkpt lat="45.58677" lon="3.13479">
        <ele>555</ele>
        <time>2015-03-29T14:35:12+02:00</time>
      </trkpt>
      <trkpt lat="45.58678" lon="3.13476">
        <ele>554</ele>
        <time>2015-03-29T14:35:12+02:00</time>
      </trkpt>
      <trkpt lat="45.58679" lon="3.13473">
        <ele>554</ele>
        <time>2015-03-29T14:35:12+02:00</time>
      </trkpt>
      <trkpt lat="45.58681" lon="3.1347">
        <ele>554</ele>
        <time>2015-03-29T14:35:12+02:00</time>
      </trkpt>
      <trkpt lat="45.58682" lon="3.13465">
        <ele>554</ele>
        <time>2015-03-29T14:35:12+02:00</time>
      </trkpt>
      <trkpt lat="45.58682" lon="3.13461">
        <ele>552</ele>
        <time>2015-03-29T14:35:12+02:00</time>
      </trkpt>
      <trkpt lat="45.58684" lon="3.13457">
        <ele>552</ele>
        <time>2015-03-29T14:35:12+02:00</time>
      </trkpt>
      <trkpt lat="45.58685" lon="3.13453">
        <ele>552</ele>
        <time>2015-03-29T14:35:12+02:00</time>
      </trkpt>
      <trkpt lat="45.58687" lon="3.13449">
        <ele>553</ele>
        <time>2015-03-29T14:35:12+02:00</time>
      </trkpt>
      <trkpt lat="45.58685" lon="3.13449">
        <ele>550</ele>
        <time>2015-03-29T14:35:12+02:00</time>
      </trkpt>
      <trkpt lat="45.58687" lon="3.13448">
        <ele>550</ele>
        <time>2015-03-29T14:35:12+02:00</time>
      </trkpt>
      <trkpt lat="45.58688" lon="3.13444">
        <ele>549</ele>
        <time>2015-03-29T14:35:12+02:00</time>
      </trkpt>
      <trkpt lat="45.5869" lon="3.13439">
        <ele>550</ele>
        <time>2015-03-29T14:35:12+02:00</time>
      </trkpt>
      <trkpt lat="45.58692" lon="3.13436">
        <ele>549</ele>
        <time>2015-03-29T14:35:12+02:00</time>
      </trkpt>
      <trkpt lat="45.58693" lon="3.13433">
        <ele>548</ele>
        <time>2015-03-29T14:35:12+02:00</time>
      </trkpt>
      <trkpt lat="45.58694" lon="3.1343">
        <ele>547</ele>
        <time>2015-03-29T14:35:12+02:00</time>
      </trkpt>
      <trkpt lat="45.58695" lon="3.13426">
        <ele>547</ele>
        <time>2015-03-29T14:35:12+02:00</time>
      </trkpt>
      <trkpt lat="45.58696" lon="3.13422">
        <ele>546</ele>
        <time>2015-03-29T14:35:12+02:00</time>
      </trkpt>
      <trkpt lat="45.58697" lon="3.13419">
        <ele>546</ele>
        <time>2015-03-29T14:35:12+02:00</time>
      </trkpt>
      <trkpt lat="45.58698" lon="3.13415">
        <ele>546</ele>
        <time>2015-03-29T14:35:12+02:00</time>
      </trkpt>
      <trkpt lat="45.58699" lon="3.13412">
        <ele>545</ele>
        <time>2015-03-29T14:35:12+02:00</time>
      </trkpt>
      <trkpt lat="45.58699" lon="3.13409">
        <ele>546</ele>
        <time>2015-03-29T14:35:12+02:00</time>
      </trkpt>
      <trkpt lat="45.587" lon="3.13405">
        <ele>545</ele>
        <time>2015-03-29T14:35:12+02:00</time>
      </trkpt>
      <trkpt lat="45.587" lon="3.13403">
        <ele>545</ele>
        <time>2015-03-29T14:35:12+02:00</time>
      </trkpt>
      <trkpt lat="45.58701" lon="3.13398">
        <ele>544</ele>
        <time>2015-03-29T14:35:12+02:00</time>
      </trkpt>
      <trkpt lat="45.587" lon="3.13394">
        <ele>544</ele>
        <time>2015-03-29T14:35:12+02:00</time>
      </trkpt>
      <trkpt lat="45.587" lon="3.1339">
        <ele>544</ele>
        <time>2015-03-29T14:35:12+02:00</time>
      </trkpt>
      <trkpt lat="45.587" lon="3.13386">
        <ele>543</ele>
        <time>2015-03-29T14:35:12+02:00</time>
      </trkpt>
      <trkpt lat="45.58701" lon="3.13382">
        <ele>542</ele>
        <time>2015-03-29T14:35:12+02:00</time>
      </trkpt>
      <trkpt lat="45.58701" lon="3.13379">
        <ele>541</ele>
        <time>2015-03-29T14:35:12+02:00</time>
      </trkpt>
      <trkpt lat="45.58702" lon="3.13375">
        <ele>540</ele>
        <time>2015-03-29T14:35:12+02:00</time>
      </trkpt>
      <trkpt lat="45.58702" lon="3.13372">
        <ele>540</ele>
        <time>2015-03-29T14:35:12+02:00</time>
      </trkpt>
      <trkpt lat="45.58702" lon="3.13368">
        <ele>540</ele>
        <time>2015-03-29T14:35:12+02:00</time>
      </trkpt>
      <trkpt lat="45.58703" lon="3.13364">
        <ele>539</ele>
        <time>2015-03-29T14:35:12+02:00</time>
      </trkpt>
      <trkpt lat="45.58704" lon="3.1336">
        <ele>539</ele>
        <time>2015-03-29T14:35:12+02:00</time>
      </trkpt>
      <trkpt lat="45.58706" lon="3.13358">
        <ele>538</ele>
        <time>2015-03-29T14:35:12+02:00</time>
      </trkpt>
      <trkpt lat="45.58706" lon="3.13355">
        <ele>538</ele>
        <time>2015-03-29T14:35:12+02:00</time>
      </trkpt>
      <trkpt lat="45.58708" lon="3.13357">
        <ele>538</ele>
        <time>2015-03-29T14:35:12+02:00</time>
      </trkpt>
      <trkpt lat="45.5871" lon="3.1336">
        <ele>537</ele>
        <time>2015-03-29T14:35:12+02:00</time>
      </trkpt>
      <trkpt lat="45.58711" lon="3.13362">
        <ele>537</ele>
        <time>2015-03-29T14:35:12+02:00</time>
      </trkpt>
      <trkpt lat="45.58712" lon="3.13366">
        <ele>537</ele>
        <time>2015-03-29T14:35:12+02:00</time>
      </trkpt>
      <trkpt lat="45.58713" lon="3.1337">
        <ele>537</ele>
        <time>2015-03-29T14:35:12+02:00</time>
      </trkpt>
      <trkpt lat="45.58714" lon="3.13373">
        <ele>538</ele>
        <time>2015-03-29T14:35:12+02:00</time>
      </trkpt>
      <trkpt lat="45.58714" lon="3.13376">
        <ele>539</ele>
        <time>2015-03-29T14:35:12+02:00</time>
      </trkpt>
      <trkpt lat="45.58716" lon="3.1338">
        <ele>539</ele>
        <time>2015-03-29T14:35:12+02:00</time>
      </trkpt>
      <trkpt lat="45.58718" lon="3.13386">
        <ele>539</ele>
        <time>2015-03-29T14:35:12+02:00</time>
      </trkpt>
      <trkpt lat="45.58718" lon="3.13389">
        <ele>539</ele>
        <time>2015-03-29T14:35:12+02:00</time>
      </trkpt>
      <trkpt lat="45.58719" lon="3.13394">
        <ele>539</ele>
        <time>2015-03-29T14:37:20+02:00</time>
      </trkpt>
      <trkpt lat="45.58731" lon="3.13427">
        <ele>544</ele>
        <time>2015-03-29T14:37:20+02:00</time>
      </trkpt>
      <trkpt lat="45.58732" lon="3.13431">
        <ele>544</ele>
        <time>2015-03-29T14:37:20+02:00</time>
      </trkpt>
      <trkpt lat="45.58733" lon="3.13433">
        <ele>544</ele>
        <time>2015-03-29T14:37:20+02:00</time>
      </trkpt>
      <trkpt lat="45.58734" lon="3.13438">
        <ele>544</ele>
        <time>2015-03-29T14:37:20+02:00</time>
      </trkpt>
      <trkpt lat="45.58735" lon="3.13441">
        <ele>544</ele>
        <time>2015-03-29T14:37:20+02:00</time>
      </trkpt>
      <trkpt lat="45.58735" lon="3.13444">
        <ele>544</ele>
        <time>2015-03-29T14:37:20+02:00</time>
      </trkpt>
      <trkpt lat="45.5874" lon="3.1345">
        <ele>543</ele>
        <time>2015-03-29T14:37:20+02:00</time>
      </trkpt>
      <trkpt lat="45.58741" lon="3.13452">
        <ele>542</ele>
        <time>2015-03-29T14:37:20+02:00</time>
      </trkpt>
      <trkpt lat="45.58743" lon="3.13455">
        <ele>542</ele>
        <time>2015-03-29T14:37:20+02:00</time>
      </trkpt>
      <trkpt lat="45.58744" lon="3.13459">
        <ele>543</ele>
        <time>2015-03-29T14:37:20+02:00</time>
      </trkpt>
      <trkpt lat="45.58746" lon="3.13463">
        <ele>542</ele>
        <time>2015-03-29T14:37:20+02:00</time>
      </trkpt>
      <trkpt lat="45.58747" lon="3.13467">
        <ele>541</ele>
        <time>2015-03-29T14:37:20+02:00</time>
      </trkpt>
      <trkpt lat="45.58747" lon="3.1347">
        <ele>541</ele>
        <time>2015-03-29T14:37:20+02:00</time>
      </trkpt>
      <trkpt lat="45.58748" lon="3.13472">
        <ele>541</ele>
        <time>2015-03-29T14:37:20+02:00</time>
      </trkpt>
      <trkpt lat="45.58749" lon="3.13474">
        <ele>541</ele>
        <time>2015-03-29T14:37:20+02:00</time>
      </trkpt>
      <trkpt lat="45.58751" lon="3.13478">
        <ele>541</ele>
        <time>2015-03-29T14:37:20+02:00</time>
      </trkpt>
      <trkpt lat="45.58752" lon="3.13482">
        <ele>541</ele>
        <time>2015-03-29T14:37:20+02:00</time>
      </trkpt>
      <trkpt lat="45.58753" lon="3.13486">
        <ele>541</ele>
        <time>2015-03-29T14:37:20+02:00</time>
      </trkpt>
      <trkpt lat="45.58753" lon="3.13489">
        <ele>540</ele>
        <time>2015-03-29T14:37:20+02:00</time>
      </trkpt>
      <trkpt lat="45.58753" lon="3.13492">
        <ele>540</ele>
        <time>2015-03-29T14:37:20+02:00</time>
      </trkpt>
      <trkpt lat="45.58752" lon="3.13496">
        <ele>539</ele>
        <time>2015-03-29T14:37:20+02:00</time>
      </trkpt>
      <trkpt lat="45.58754" lon="3.13501">
        <ele>539</ele>
        <time>2015-03-29T14:37:20+02:00</time>
      </trkpt>
      <trkpt lat="45.58754" lon="3.13504">
        <ele>539</ele>
        <time>2015-03-29T14:37:20+02:00</time>
      </trkpt>
      <trkpt lat="45.58754" lon="3.13506">
        <ele>539</ele>
        <time>2015-03-29T14:37:20+02:00</time>
      </trkpt>
      <trkpt lat="45.58756" lon="3.13512">
        <ele>539</ele>
        <time>2015-03-29T14:37:20+02:00</time>
      </trkpt>
      <trkpt lat="45.58757" lon="3.13516">
        <ele>538</ele>
        <time>2015-03-29T14:37:20+02:00</time>
      </trkpt>
      <trkpt lat="45.58759" lon="3.13525">
        <ele>537</ele>
        <time>2015-03-29T14:37:20+02:00</time>
      </trkpt>
      <trkpt lat="45.5876" lon="3.13529">
        <ele>537</ele>
        <time>2015-03-29T14:37:20+02:00</time>
      </trkpt>
      <trkpt lat="45.58761" lon="3.13533">
        <ele>536</ele>
        <time>2015-03-29T14:37:20+02:00</time>
      </trkpt>
      <trkpt lat="45.58763" lon="3.13537">
        <ele>537</ele>
        <time>2015-03-29T14:37:20+02:00</time>
      </trkpt>
      <trkpt lat="45.58764" lon="3.1354">
        <ele>536</ele>
        <time>2015-03-29T14:37:20+02:00</time>
      </trkpt>
      <trkpt lat="45.58766" lon="3.13543">
        <ele>536</ele>
        <time>2015-03-29T14:37:20+02:00</time>
      </trkpt>
      <trkpt lat="45.58767" lon="3.13546">
        <ele>536</ele>
        <time>2015-03-29T14:37:20+02:00</time>
      </trkpt>
      <trkpt lat="45.58768" lon="3.13548">
        <ele>536</ele>
        <time>2015-03-29T14:37:20+02:00</time>
      </trkpt>
      <trkpt lat="45.58768" lon="3.13551">
        <ele>537</ele>
        <time>2015-03-29T14:37:20+02:00</time>
      </trkpt>
      <trkpt lat="45.5877" lon="3.13556">
        <ele>538</ele>
        <time>2015-03-29T14:37:20+02:00</time>
      </trkpt>
      <trkpt lat="45.58772" lon="3.1356">
        <ele>537</ele>
        <time>2015-03-29T14:37:20+02:00</time>
      </trkpt>
      <trkpt lat="45.58774" lon="3.13565">
        <ele>537</ele>
        <time>2015-03-29T14:37:20+02:00</time>
      </trkpt>
      <trkpt lat="45.58776" lon="3.13567">
        <ele>537</ele>
        <time>2015-03-29T14:37:20+02:00</time>
      </trkpt>
      <trkpt lat="45.58777" lon="3.13569">
        <ele>537</ele>
        <time>2015-03-29T14:37:20+02:00</time>
      </trkpt>
      <trkpt lat="45.58782" lon="3.13587">
        <ele>535</ele>
        <time>2015-03-29T14:37:20+02:00</time>
      </trkpt>
      <trkpt lat="45.58783" lon="3.13591">
        <ele>535</ele>
        <time>2015-03-29T14:37:20+02:00</time>
      </trkpt>
      <trkpt lat="45.58784" lon="3.13594">
        <ele>535</ele>
        <time>2015-03-29T14:37:20+02:00</time>
      </trkpt>
      <trkpt lat="45.58785" lon="3.13598">
        <ele>534</ele>
        <time>2015-03-29T14:37:20+02:00</time>
      </trkpt>
      <trkpt lat="45.58787" lon="3.13601">
        <ele>533</ele>
        <time>2015-03-29T14:37:20+02:00</time>
      </trkpt>
      <trkpt lat="45.58789" lon="3.13604">
        <ele>533</ele>
        <time>2015-03-29T14:37:20+02:00</time>
      </trkpt>
      <trkpt lat="45.5879" lon="3.13608">
        <ele>532</ele>
        <time>2015-03-29T14:37:20+02:00</time>
      </trkpt>
      <trkpt lat="45.58792" lon="3.13609">
        <ele>532</ele>
        <time>2015-03-29T14:37:20+02:00</time>
      </trkpt>
      <trkpt lat="45.58789" lon="3.13611">
        <ele>535</ele>
        <time>2015-03-29T14:37:20+02:00</time>
      </trkpt>
      <trkpt lat="45.5879" lon="3.13615">
        <ele>537</ele>
        <time>2015-03-29T14:37:20+02:00</time>
      </trkpt>
      <trkpt lat="45.5879" lon="3.13617">
        <ele>538</ele>
        <time>2015-03-29T14:37:20+02:00</time>
      </trkpt>
      <trkpt lat="45.5879" lon="3.1362">
        <ele>538</ele>
        <time>2015-03-29T14:37:20+02:00</time>
      </trkpt>
      <trkpt lat="45.58791" lon="3.13622">
        <ele>539</ele>
        <time>2015-03-29T14:37:20+02:00</time>
      </trkpt>
      <trkpt lat="45.58792" lon="3.13624">
        <ele>539</ele>
        <time>2015-03-29T14:37:20+02:00</time>
      </trkpt>
      <trkpt lat="45.58792" lon="3.13629">
        <ele>538</ele>
        <time>2015-03-29T14:37:20+02:00</time>
      </trkpt>
      <trkpt lat="45.58793" lon="3.13631">
        <ele>538</ele>
        <time>2015-03-29T14:37:20+02:00</time>
      </trkpt>
      <trkpt lat="45.58794" lon="3.13636">
        <ele>538</ele>
        <time>2015-03-29T14:37:20+02:00</time>
      </trkpt>
      <trkpt lat="45.58794" lon="3.1364">
        <ele>539</ele>
        <time>2015-03-29T14:37:20+02:00</time>
      </trkpt>
      <trkpt lat="45.58793" lon="3.13644">
        <ele>538</ele>
        <time>2015-03-29T14:37:20+02:00</time>
      </trkpt>
      <trkpt lat="45.58792" lon="3.13647">
        <ele>537</ele>
        <time>2015-03-29T14:37:20+02:00</time>
      </trkpt>
      <trkpt lat="45.58792" lon="3.13652">
        <ele>537</ele>
        <time>2015-03-29T14:37:20+02:00</time>
      </trkpt>
      <trkpt lat="45.5879" lon="3.13656">
        <ele>536</ele>
        <time>2015-03-29T14:37:20+02:00</time>
      </trkpt>
      <trkpt lat="45.5879" lon="3.13659">
        <ele>534</ele>
        <time>2015-03-29T14:37:20+02:00</time>
      </trkpt>
      <trkpt lat="45.5879" lon="3.13662">
        <ele>534</ele>
        <time>2015-03-29T14:37:20+02:00</time>
      </trkpt>
      <trkpt lat="45.5879" lon="3.13665">
        <ele>534</ele>
        <time>2015-03-29T14:37:20+02:00</time>
      </trkpt>
      <trkpt lat="45.58789" lon="3.1367">
        <ele>534</ele>
        <time>2015-03-29T14:37:20+02:00</time>
      </trkpt>
      <trkpt lat="45.58788" lon="3.13673">
        <ele>534</ele>
        <time>2015-03-29T14:39:28+02:00</time>
      </trkpt>
      <trkpt lat="45.58788" lon="3.13678">
        <ele>534</ele>
        <time>2015-03-29T14:39:28+02:00</time>
      </trkpt>
      <trkpt lat="45.58787" lon="3.13682">
        <ele>535</ele>
        <time>2015-03-29T14:39:28+02:00</time>
      </trkpt>
      <trkpt lat="45.58786" lon="3.13686">
        <ele>535</ele>
        <time>2015-03-29T14:39:28+02:00</time>
      </trkpt>
      <trkpt lat="45.58787" lon="3.13689">
        <ele>536</ele>
        <time>2015-03-29T14:39:28+02:00</time>
      </trkpt>
      <trkpt lat="45.58786" lon="3.13691">
        <ele>535</ele>
        <time>2015-03-29T14:39:28+02:00</time>
      </trkpt>
      <trkpt lat="45.58786" lon="3.13694">
        <ele>535</ele>
        <time>2015-03-29T14:39:28+02:00</time>
      </trkpt>
      <trkpt lat="45.58781" lon="3.13698">
        <ele>534</ele>
        <time>2015-03-29T14:39:28+02:00</time>
      </trkpt>
      <trkpt lat="45.5878" lon="3.13701">
        <ele>534</ele>
        <time>2015-03-29T14:39:28+02:00</time>
      </trkpt>
      <trkpt lat="45.58779" lon="3.13704">
        <ele>533</ele>
        <time>2015-03-29T14:39:28+02:00</time>
      </trkpt>
      <trkpt lat="45.58777" lon="3.13707">
        <ele>534</ele>
        <time>2015-03-29T14:39:28+02:00</time>
      </trkpt>
      <trkpt lat="45.58774" lon="3.1371">
        <ele>534</ele>
        <time>2015-03-29T14:39:28+02:00</time>
      </trkpt>
      <trkpt lat="45.58772" lon="3.13713">
        <ele>534</ele>
        <time>2015-03-29T14:39:28+02:00</time>
      </trkpt>
      <trkpt lat="45.58772" lon="3.13716">
        <ele>534</ele>
        <time>2015-03-29T14:39:28+02:00</time>
      </trkpt>
      <trkpt lat="45.58769" lon="3.13719">
        <ele>533</ele>
        <time>2015-03-29T14:39:28+02:00</time>
      </trkpt>
      <trkpt lat="45.58768" lon="3.13724">
        <ele>532</ele>
        <time>2015-03-29T14:39:28+02:00</time>
      </trkpt>
      <trkpt lat="45.58766" lon="3.13726">
        <ele>531</ele>
        <time>2015-03-29T14:39:28+02:00</time>
      </trkpt>
      <trkpt lat="45.58764" lon="3.1373">
        <ele>531</ele>
        <time>2015-03-29T14:39:28+02:00</time>
      </trkpt>
      <trkpt lat="45.58763" lon="3.13733">
        <ele>531</ele>
        <time>2015-03-29T14:39:28+02:00</time>
      </trkpt>
      <trkpt lat="45.58761" lon="3.1374">
        <ele>528</ele>
        <time>2015-03-29T14:39:28+02:00</time>
      </trkpt>
      <trkpt lat="45.58762" lon="3.13742">
        <ele>527</ele>
        <time>2015-03-29T14:39:28+02:00</time>
      </trkpt>
      <trkpt lat="45.58761" lon="3.13746">
        <ele>527</ele>
        <time>2015-03-29T14:39:28+02:00</time>
      </trkpt>
      <trkpt lat="45.58761" lon="3.13749">
        <ele>526</ele>
        <time>2015-03-29T14:39:28+02:00</time>
      </trkpt>
      <trkpt lat="45.58759" lon="3.13751">
        <ele>527</ele>
        <time>2015-03-29T14:39:28+02:00</time>
      </trkpt>
      <trkpt lat="45.58758" lon="3.13754">
        <ele>527</ele>
        <time>2015-03-29T14:39:28+02:00</time>
      </trkpt>
      <trkpt lat="45.58757" lon="3.13759">
        <ele>527</ele>
        <time>2015-03-29T14:39:28+02:00</time>
      </trkpt>
      <trkpt lat="45.58756" lon="3.13762">
        <ele>527</ele>
        <time>2015-03-29T14:39:28+02:00</time>
      </trkpt>
      <trkpt lat="45.58755" lon="3.13766">
        <ele>526</ele>
        <time>2015-03-29T14:39:28+02:00</time>
      </trkpt>
      <trkpt lat="45.58756" lon="3.13769">
        <ele>526</ele>
        <time>2015-03-29T14:39:28+02:00</time>
      </trkpt>
      <trkpt lat="45.58755" lon="3.13773">
        <ele>525</ele>
        <time>2015-03-29T14:39:28+02:00</time>
      </trkpt>
      <trkpt lat="45.58755" lon="3.13776">
        <ele>525</ele>
        <time>2015-03-29T14:39:28+02:00</time>
      </trkpt>
      <trkpt lat="45.58754" lon="3.13779">
        <ele>525</ele>
        <time>2015-03-29T14:39:28+02:00</time>
      </trkpt>
      <trkpt lat="45.58752" lon="3.13781">
        <ele>525</ele>
        <time>2015-03-29T14:39:28+02:00</time>
      </trkpt>
      <trkpt lat="45.58751" lon="3.13784">
        <ele>525</ele>
        <time>2015-03-29T14:39:28+02:00</time>
      </trkpt>
      <trkpt lat="45.58751" lon="3.13789">
        <ele>524</ele>
        <time>2015-03-29T14:39:28+02:00</time>
      </trkpt>
      <trkpt lat="45.58748" lon="3.1379">
        <ele>524</ele>
        <time>2015-03-29T14:39:28+02:00</time>
      </trkpt>
      <trkpt lat="45.58746" lon="3.13794">
        <ele>524</ele>
        <time>2015-03-29T14:39:28+02:00</time>
      </trkpt>
      <trkpt lat="45.58745" lon="3.13798">
        <ele>524</ele>
        <time>2015-03-29T14:39:28+02:00</time>
      </trkpt>
      <trkpt lat="45.58743" lon="3.13802">
        <ele>524</ele>
        <time>2015-03-29T14:39:28+02:00</time>
      </trkpt>
      <trkpt lat="45.58741" lon="3.13805">
        <ele>525</ele>
        <time>2015-03-29T14:39:28+02:00</time>
      </trkpt>
      <trkpt lat="45.58739" lon="3.13807">
        <ele>526</ele>
        <time>2015-03-29T14:39:28+02:00</time>
      </trkpt>
      <trkpt lat="45.58737" lon="3.13815">
        <ele>527</ele>
        <time>2015-03-29T14:39:28+02:00</time>
      </trkpt>
      <trkpt lat="45.58735" lon="3.13818">
        <ele>527</ele>
        <time>2015-03-29T14:39:28+02:00</time>
      </trkpt>
      <trkpt lat="45.58734" lon="3.13822">
        <ele>528</ele>
        <time>2015-03-29T14:39:28+02:00</time>
      </trkpt>
      <trkpt lat="45.58732" lon="3.13828">
        <ele>527</ele>
        <time>2015-03-29T14:39:28+02:00</time>
      </trkpt>
      <trkpt lat="45.5873" lon="3.13832">
        <ele>526</ele>
        <time>2015-03-29T14:39:28+02:00</time>
      </trkpt>
      <trkpt lat="45.58728" lon="3.13834">
        <ele>526</ele>
        <time>2015-03-29T14:39:28+02:00</time>
      </trkpt>
      <trkpt lat="45.58727" lon="3.13838">
        <ele>526</ele>
        <time>2015-03-29T14:39:28+02:00</time>
      </trkpt>
      <trkpt lat="45.58726" lon="3.13841">
        <ele>525</ele>
        <time>2015-03-29T14:39:28+02:00</time>
      </trkpt>
      <trkpt lat="45.58724" lon="3.13845">
        <ele>525</ele>
        <time>2015-03-29T14:39:28+02:00</time>
      </trkpt>
      <trkpt lat="45.58724" lon="3.13848">
        <ele>525</ele>
        <time>2015-03-29T14:39:28+02:00</time>
      </trkpt>
      <trkpt lat="45.58723" lon="3.1385">
        <ele>525</ele>
        <time>2015-03-29T14:39:28+02:00</time>
      </trkpt>
      <trkpt lat="45.58717" lon="3.13857">
        <ele>525</ele>
        <time>2015-03-29T14:39:28+02:00</time>
      </trkpt>
      <trkpt lat="45.58715" lon="3.1386">
        <ele>524</ele>
        <time>2015-03-29T14:39:28+02:00</time>
      </trkpt>
      <trkpt lat="45.58713" lon="3.13864">
        <ele>525</ele>
        <time>2015-03-29T14:39:28+02:00</time>
      </trkpt>
      <trkpt lat="45.58714" lon="3.13868">
        <ele>523</ele>
        <time>2015-03-29T14:39:28+02:00</time>
      </trkpt>
      <trkpt lat="45.58714" lon="3.13873">
        <ele>523</ele>
        <time>2015-03-29T14:39:28+02:00</time>
      </trkpt>
      <trkpt lat="45.58715" lon="3.13876">
        <ele>522</ele>
        <time>2015-03-29T14:39:28+02:00</time>
      </trkpt>
      <trkpt lat="45.58716" lon="3.13881">
        <ele>522</ele>
        <time>2015-03-29T14:39:28+02:00</time>
      </trkpt>
      <trkpt lat="45.58732" lon="3.1389">
        <ele>522</ele>
        <time>2015-03-29T14:39:28+02:00</time>
      </trkpt>
      <trkpt lat="45.58735" lon="3.13889">
        <ele>523</ele>
        <time>2015-03-29T14:39:28+02:00</time>
      </trkpt>
      <trkpt lat="45.58738" lon="3.1389">
        <ele>523</ele>
        <time>2015-03-29T14:39:28+02:00</time>
      </trkpt>
      <trkpt lat="45.58741" lon="3.1389">
        <ele>521</ele>
        <time>2015-03-29T14:39:28+02:00</time>
      </trkpt>
      <trkpt lat="45.58743" lon="3.1389">
        <ele>520</ele>
        <time>2015-03-29T14:39:28+02:00</time>
      </trkpt>
      <trkpt lat="45.58745" lon="3.13891">
        <ele>521</ele>
        <time>2015-03-29T14:39:28+02:00</time>
      </trkpt>
      <trkpt lat="45.58748" lon="3.13891">
        <ele>522</ele>
        <time>2015-03-29T14:41:36+02:00</time>
      </trkpt>
      <trkpt lat="45.5875" lon="3.1389">
        <ele>521</ele>
        <time>2015-03-29T14:41:36+02:00</time>
      </trkpt>
      <trkpt lat="45.58754" lon="3.13889">
        <ele>521</ele>
        <time>2015-03-29T14:41:36+02:00</time>
      </trkpt>
      <trkpt lat="45.58771" lon="3.13879">
        <ele>520</ele>
        <time>2015-03-29T14:41:36+02:00</time>
      </trkpt>
      <trkpt lat="45.58773" lon="3.13876">
        <ele>519</ele>
        <time>2015-03-29T14:41:36+02:00</time>
      </trkpt>
      <trkpt lat="45.58775" lon="3.13874">
        <ele>519</ele>
        <time>2015-03-29T14:41:36+02:00</time>
      </trkpt>
      <trkpt lat="45.58777" lon="3.13872">
        <ele>519</ele>
        <time>2015-03-29T14:41:36+02:00</time>
      </trkpt>
      <trkpt lat="45.58779" lon="3.1387">
        <ele>519</ele>
        <time>2015-03-29T14:41:36+02:00</time>
      </trkpt>
      <trkpt lat="45.58781" lon="3.13869">
        <ele>519</ele>
        <time>2015-03-29T14:41:36+02:00</time>
      </trkpt>
      <trkpt lat="45.58783" lon="3.13867">
        <ele>519</ele>
        <time>2015-03-29T14:41:36+02:00</time>
      </trkpt>
      <trkpt lat="45.58785" lon="3.13865">
        <ele>519</ele>
        <time>2015-03-29T14:41:36+02:00</time>
      </trkpt>
      <trkpt lat="45.58787" lon="3.13863">
        <ele>518</ele>
        <time>2015-03-29T14:41:36+02:00</time>
      </trkpt>
      <trkpt lat="45.58789" lon="3.1386">
        <ele>519</ele>
        <time>2015-03-29T14:41:36+02:00</time>
      </trkpt>
      <trkpt lat="45.58791" lon="3.13857">
        <ele>518</ele>
        <time>2015-03-29T14:41:36+02:00</time>
      </trkpt>
      <trkpt lat="45.58794" lon="3.13854">
        <ele>518</ele>
        <time>2015-03-29T14:41:36+02:00</time>
      </trkpt>
      <trkpt lat="45.58796" lon="3.1385">
        <ele>518</ele>
        <time>2015-03-29T14:41:36+02:00</time>
      </trkpt>
      <trkpt lat="45.58797" lon="3.13848">
        <ele>518</ele>
        <time>2015-03-29T14:41:36+02:00</time>
      </trkpt>
      <trkpt lat="45.588" lon="3.13844">
        <ele>517</ele>
        <time>2015-03-29T14:41:36+02:00</time>
      </trkpt>
      <trkpt lat="45.58801" lon="3.13841">
        <ele>517</ele>
        <time>2015-03-29T14:41:36+02:00</time>
      </trkpt>
      <trkpt lat="45.58803" lon="3.13837">
        <ele>517</ele>
        <time>2015-03-29T14:41:36+02:00</time>
      </trkpt>
      <trkpt lat="45.58804" lon="3.13835">
        <ele>517</ele>
        <time>2015-03-29T14:41:36+02:00</time>
      </trkpt>
      <trkpt lat="45.58806" lon="3.13833">
        <ele>518</ele>
        <time>2015-03-29T14:41:36+02:00</time>
      </trkpt>
      <trkpt lat="45.58808" lon="3.13829">
        <ele>517</ele>
        <time>2015-03-29T14:41:36+02:00</time>
      </trkpt>
      <trkpt lat="45.5881" lon="3.13826">
        <ele>517</ele>
        <time>2015-03-29T14:41:36+02:00</time>
      </trkpt>
      <trkpt lat="45.58812" lon="3.13822">
        <ele>517</ele>
        <time>2015-03-29T14:41:36+02:00</time>
      </trkpt>
      <trkpt lat="45.58814" lon="3.13819">
        <ele>517</ele>
        <time>2015-03-29T14:41:36+02:00</time>
      </trkpt>
      <trkpt lat="45.58817" lon="3.13816">
        <ele>517</ele>
        <time>2015-03-29T14:41:36+02:00</time>
      </trkpt>
      <trkpt lat="45.58819" lon="3.13813">
        <ele>516</ele>
        <time>2015-03-29T14:41:36+02:00</time>
      </trkpt>
      <trkpt lat="45.5882" lon="3.13811">
        <ele>516</ele>
        <time>2015-03-29T14:41:36+02:00</time>
      </trkpt>
      <trkpt lat="45.58822" lon="3.13807">
        <ele>515</ele>
        <time>2015-03-29T14:41:36+02:00</time>
      </trkpt>
      <trkpt lat="45.58824" lon="3.13803">
        <ele>515</ele>
        <time>2015-03-29T14:41:36+02:00</time>
      </trkpt>
      <trkpt lat="45.58826" lon="3.13799">
        <ele>515</ele>
        <time>2015-03-29T14:41:36+02:00</time>
      </trkpt>
      <trkpt lat="45.58829" lon="3.13796">
        <ele>514</ele>
        <time>2015-03-29T14:41:36+02:00</time>
      </trkpt>
      <trkpt lat="45.58831" lon="3.13792">
        <ele>514</ele>
        <time>2015-03-29T14:41:36+02:00</time>
      </trkpt>
      <trkpt lat="45.58832" lon="3.1379">
        <ele>512</ele>
        <time>2015-03-29T14:41:36+02:00</time>
      </trkpt>
      <trkpt lat="45.58834" lon="3.13787">
        <ele>514</ele>
        <time>2015-03-29T14:41:36+02:00</time>
      </trkpt>
      <trkpt lat="45.58836" lon="3.13785">
        <ele>514</ele>
        <time>2015-03-29T14:41:36+02:00</time>
      </trkpt>
      <trkpt lat="45.58837" lon="3.13781">
        <ele>514</ele>
        <time>2015-03-29T14:41:36+02:00</time>
      </trkpt>
      <trkpt lat="45.58839" lon="3.13778">
        <ele>513</ele>
        <time>2015-03-29T14:41:36+02:00</time>
      </trkpt>
      <trkpt lat="45.5884" lon="3.13773">
        <ele>513</ele>
        <time>2015-03-29T14:41:36+02:00</time>
      </trkpt>
      <trkpt lat="45.58863" lon="3.13738">
        <ele>514</ele>
        <time>2015-03-29T14:41:36+02:00</time>
      </trkpt>
      <trkpt lat="45.58866" lon="3.13734">
        <ele>514</ele>
        <time>2015-03-29T14:41:36+02:00</time>
      </trkpt>
      <trkpt lat="45.58868" lon="3.13729">
        <ele>514</ele>
        <time>2015-03-29T14:41:36+02:00</time>
      </trkpt>
      <trkpt lat="45.58869" lon="3.13727">
        <ele>513</ele>
        <time>2015-03-29T14:41:36+02:00</time>
      </trkpt>
      <trkpt lat="45.58871" lon="3.13725">
        <ele>513</ele>
        <time>2015-03-29T14:41:36+02:00</time>
      </trkpt>
      <trkpt lat="45.58873" lon="3.13722">
        <ele>513</ele>
        <time>2015-03-29T14:41:36+02:00</time>
      </trkpt>
      <trkpt lat="45.58875" lon="3.13719">
        <ele>513</ele>
        <time>2015-03-29T14:41:36+02:00</time>
      </trkpt>
      <trkpt lat="45.58877" lon="3.13716">
        <ele>513</ele>
        <time>2015-03-29T14:41:36+02:00</time>
      </trkpt>
      <trkpt lat="45.58878" lon="3.13712">
        <ele>513</ele>
        <time>2015-03-29T14:41:36+02:00</time>
      </trkpt>
      <trkpt lat="45.58879" lon="3.1371">
        <ele>512</ele>
        <time>2015-03-29T14:41:36+02:00</time>
      </trkpt>
      <trkpt lat="45.58881" lon="3.13706">
        <ele>513</ele>
        <time>2015-03-29T14:41:36+02:00</time>
      </trkpt>
      <trkpt lat="45.58882" lon="3.13703">
        <ele>512</ele>
        <time>2015-03-29T14:41:36+02:00</time>
      </trkpt>
      <trkpt lat="45.58884" lon="3.13699">
        <ele>512</ele>
        <time>2015-03-29T14:41:36+02:00</time>
      </trkpt>
      <trkpt lat="45.58885" lon="3.13695">
        <ele>511</ele>
        <time>2015-03-29T14:41:36+02:00</time>
      </trkpt>
      <trkpt lat="45.58887" lon="3.1369">
        <ele>511</ele>
        <time>2015-03-29T14:41:36+02:00</time>
      </trkpt>
      <trkpt lat="45.58888" lon="3.13686">
        <ele>511</ele>
        <time>2015-03-29T14:41:36+02:00</time>
      </trkpt>
      <trkpt lat="45.58889" lon="3.13681">
        <ele>511</ele>
        <time>2015-03-29T14:41:36+02:00</time>
      </trkpt>
      <trkpt lat="45.58889" lon="3.13677">
        <ele>511</ele>
        <time>2015-03-29T14:41:36+02:00</time>
      </trkpt>
      <trkpt lat="45.5889" lon="3.13674">
        <ele>510</ele>
        <time>2015-03-29T14:43:44+02:00</time>
      </trkpt>
      <trkpt lat="45.5889" lon="3.13671">
        <ele>510</ele>
        <time>2015-03-29T14:43:44+02:00</time>
      </trkpt>
      <trkpt lat="45.5889" lon="3.13667">
        <ele>510</ele>
        <time>2015-03-29T14:43:44+02:00</time>
      </trkpt>
      <trkpt lat="45.5889" lon="3.13663">
        <ele>510</ele>
        <time>2015-03-29T14:43:44+02:00</time>
      </trkpt>
      <trkpt lat="45.5889" lon="3.13659">
        <ele>510</ele>
        <time>2015-03-29T14:43:44+02:00</time>
      </trkpt>
      <trkpt lat="45.58891" lon="3.13656">
        <ele>509</ele>
        <time>2015-03-29T14:43:44+02:00</time>
      </trkpt>
      <trkpt lat="45.5889" lon="3.13652">
        <ele>509</ele>
        <time>2015-03-29T14:43:44+02:00</time>
      </trkpt>
      <trkpt lat="45.58891" lon="3.13649">
        <ele>510</ele>
        <time>2015-03-29T14:43:44+02:00</time>
      </trkpt>
      <trkpt lat="45.58891" lon="3.13645">
        <ele>509</ele>
        <time>2015-03-29T14:43:44+02:00</time>
      </trkpt>
      <trkpt lat="45.5889" lon="3.13639">
        <ele>508</ele>
        <time>2015-03-29T14:43:44+02:00</time>
      </trkpt>
      <trkpt lat="45.5889" lon="3.1362">
        <ele>507</ele>
        <time>2015-03-29T14:43:44+02:00</time>
      </trkpt>
      <trkpt lat="45.58889" lon="3.13615">
        <ele>507</ele>
        <time>2015-03-29T14:43:44+02:00</time>
      </trkpt>
      <trkpt lat="45.58888" lon="3.13611">
        <ele>507</ele>
        <time>2015-03-29T14:43:44+02:00</time>
      </trkpt>
      <trkpt lat="45.58887" lon="3.13608">
        <ele>507</ele>
        <time>2015-03-29T14:43:44+02:00</time>
      </trkpt>
      <trkpt lat="45.58887" lon="3.13606">
        <ele>507</ele>
        <time>2015-03-29T14:43:44+02:00</time>
      </trkpt>
      <trkpt lat="45.58886" lon="3.136">
        <ele>508</ele>
        <time>2015-03-29T14:43:44+02:00</time>
      </trkpt>
      <trkpt lat="45.58885" lon="3.13598">
        <ele>508</ele>
        <time>2015-03-29T14:43:44+02:00</time>
      </trkpt>
      <trkpt lat="45.58883" lon="3.13595">
        <ele>508</ele>
        <time>2015-03-29T14:43:44+02:00</time>
      </trkpt>
      <trkpt lat="45.58882" lon="3.1359">
        <ele>507</ele>
        <time>2015-03-29T14:43:44+02:00</time>
      </trkpt>
      <trkpt lat="45.58881" lon="3.13588">
        <ele>507</ele>
        <time>2015-03-29T14:43:44+02:00</time>
      </trkpt>
      <trkpt lat="45.5888" lon="3.13584">
        <ele>508</ele>
        <time>2015-03-29T14:43:44+02:00</time>
      </trkpt>
      <trkpt lat="45.58878" lon="3.1358">
        <ele>507</ele>
        <time>2015-03-29T14:43:44+02:00</time>
      </trkpt>
      <trkpt lat="45.58876" lon="3.13575">
        <ele>507</ele>
        <time>2015-03-29T14:43:44+02:00</time>
      </trkpt>
      <trkpt lat="45.58875" lon="3.13571">
        <ele>507</ele>
        <time>2015-03-29T14:43:44+02:00</time>
      </trkpt>
      <trkpt lat="45.58873" lon="3.13566">
        <ele>507</ele>
        <time>2015-03-29T14:43:44+02:00</time>
      </trkpt>
      <trkpt lat="45.58871" lon="3.13563">
        <ele>507</ele>
        <time>2015-03-29T14:43:44+02:00</time>
      </trkpt>
      <trkpt lat="45.5887" lon="3.13561">
        <ele>507</ele>
        <time>2015-03-29T14:43:44+02:00</time>
      </trkpt>
      <trkpt lat="45.58869" lon="3.13557">
        <ele>506</ele>
        <time>2015-03-29T14:43:44+02:00</time>
      </trkpt>
      <trkpt lat="45.58868" lon="3.13552">
        <ele>506</ele>
        <time>2015-03-29T14:43:44+02:00</time>
      </trkpt>
      <trkpt lat="45.58867" lon="3.13547">
        <ele>506</ele>
        <time>2015-03-29T14:43:44+02:00</time>
      </trkpt>
      <trkpt lat="45.58866" lon="3.13545">
        <ele>506</ele>
        <time>2015-03-29T14:43:44+02:00</time>
      </trkpt>
      <trkpt lat="45.58866" lon="3.13542">
        <ele>506</ele>
        <time>2015-03-29T14:43:44+02:00</time>
      </trkpt>
      <trkpt lat="45.58866" lon="3.13539">
        <ele>506</ele>
        <time>2015-03-29T14:43:44+02:00</time>
      </trkpt>
      <trkpt lat="45.58865" lon="3.13536">
        <ele>506</ele>
        <time>2015-03-29T14:43:44+02:00</time>
      </trkpt>
      <trkpt lat="45.58865" lon="3.13532">
        <ele>506</ele>
        <time>2015-03-29T14:43:44+02:00</time>
      </trkpt>
      <trkpt lat="45.58865" lon="3.13528">
        <ele>506</ele>
        <time>2015-03-29T14:43:44+02:00</time>
      </trkpt>
      <trkpt lat="45.58864" lon="3.13524">
        <ele>506</ele>
        <time>2015-03-29T14:43:44+02:00</time>
      </trkpt>
      <trkpt lat="45.58865" lon="3.1352">
        <ele>506</ele>
        <time>2015-03-29T14:43:44+02:00</time>
      </trkpt>
      <trkpt lat="45.58864" lon="3.13516">
        <ele>506</ele>
        <time>2015-03-29T14:43:44+02:00</time>
      </trkpt>
      <trkpt lat="45.58866" lon="3.13513">
        <ele>507</ele>
        <time>2015-03-29T14:43:44+02:00</time>
      </trkpt>
      <trkpt lat="45.58866" lon="3.13507">
        <ele>508</ele>
        <time>2015-03-29T14:43:44+02:00</time>
      </trkpt>
      <trkpt lat="45.58865" lon="3.13503">
        <ele>508</ele>
        <time>2015-03-29T14:43:44+02:00</time>
      </trkpt>
      <trkpt lat="45.58865" lon="3.135">
        <ele>508</ele>
        <time>2015-03-29T14:43:44+02:00</time>
      </trkpt>
      <trkpt lat="45.58865" lon="3.13496">
        <ele>508</ele>
        <time>2015-03-29T14:43:44+02:00</time>
      </trkpt>
      <trkpt lat="45.58865" lon="3.13491">
        <ele>509</ele>
        <time>2015-03-29T14:43:44+02:00</time>
      </trkpt>
      <trkpt lat="45.58865" lon="3.13488">
        <ele>509</ele>
        <time>2015-03-29T14:43:44+02:00</time>
      </trkpt>
      <trkpt lat="45.58866" lon="3.13485">
        <ele>509</ele>
        <time>2015-03-29T14:43:44+02:00</time>
      </trkpt>
      <trkpt lat="45.58867" lon="3.13482">
        <ele>509</ele>
        <time>2015-03-29T14:43:44+02:00</time>
      </trkpt>
      <trkpt lat="45.58867" lon="3.13479">
        <ele>509</ele>
        <time>2015-03-29T14:43:44+02:00</time>
      </trkpt>
      <trkpt lat="45.58867" lon="3.13477">
        <ele>509</ele>
        <time>2015-03-29T14:43:44+02:00</time>
      </trkpt>
      <trkpt lat="45.58875" lon="3.13424">
        <ele>511</ele>
        <time>2015-03-29T14:43:44+02:00</time>
      </trkpt>
      <trkpt lat="45.58876" lon="3.13421">
        <ele>511</ele>
        <time>2015-03-29T14:43:44+02:00</time>
      </trkpt>
      <trkpt lat="45.58875" lon="3.13419">
        <ele>511</ele>
        <time>2015-03-29T14:43:44+02:00</time>
      </trkpt>
      <trkpt lat="45.58873" lon="3.13417">
        <ele>511</ele>
        <time>2015-03-29T14:43:44+02:00</time>
      </trkpt>
      <trkpt lat="45.58874" lon="3.13412">
        <ele>512</ele>
        <time>2015-03-29T14:43:44+02:00</time>
      </trkpt>
      <trkpt lat="45.58875" lon="3.13408">
        <ele>512</ele>
        <time>2015-03-29T14:43:44+02:00</time>
      </trkpt>
      <trkpt lat="45.58874" lon="3.13405">
        <ele>513</ele>
        <time>2015-03-29T14:43:44+02:00</time>
      </trkpt>
      <trkpt lat="45.58876" lon="3.13404">
        <ele>512</ele>
        <time>2015-03-29T14:43:44+02:00</time>
      </trkpt>
      <trkpt lat="45.58878" lon="3.13405">
        <ele>512</ele>
        <time>2015-03-29T14:43:44+02:00</time>
      </trkpt>
      <trkpt lat="45.5888" lon="3.13406">
        <ele>511</ele>
        <time>2015-03-29T14:43:44+02:00</time>
      </trkpt>
      <trkpt lat="45.58883" lon="3.13408">
        <ele>511</ele>
        <time>2015-03-29T14:43:44+02:00</time>
      </trkpt>
      <trkpt lat="45.58885" lon="3.1341">
        <ele>510</ele>
        <time>2015-03-29T14:43:44+02:00</time>
      </trkpt>
      <trkpt lat="45.58887" lon="3.1341">
        <ele>509</ele>
        <time>2015-03-29T14:43:44+02:00</time>
      </trkpt>
      <trkpt lat="45.58888" lon="3.13413">
        <ele>512</ele>
        <time>2015-03-29T14:43:44+02:00</time>
      </trkpt>
      <trkpt lat="45.5889" lon="3.13415">
        <ele>512</ele>
        <time>2015-03-29T14:45:52+02:00</time>
      </trkpt>
      <trkpt lat="45.58893" lon="3.13418">
        <ele>510</ele>
        <time>2015-03-29T14:45:52+02:00</time>
      </trkpt>
      <trkpt lat="45.58896" lon="3.13421">
        <ele>509</ele>
        <time>2015-03-29T14:45:52+02:00</time>
      </trkpt>
      <trkpt lat="45.58898" lon="3.13422">
        <ele>509</ele>
        <time>2015-03-29T14:45:52+02:00</time>
      </trkpt>
      <trkpt lat="45.58899" lon="3.13423">
        <ele>508</ele>
        <time>2015-03-29T14:45:52+02:00</time>
      </trkpt>
      <trkpt lat="45.58901" lon="3.13424">
        <ele>508</ele>
        <time>2015-03-29T14:45:52+02:00</time>
      </trkpt>
      <trkpt lat="45.58905" lon="3.13425">
        <ele>508</ele>
        <time>2015-03-29T14:45:52+02:00</time>
      </trkpt>
      <trkpt lat="45.58907" lon="3.13427">
        <ele>507</ele>
        <time>2015-03-29T14:45:52+02:00</time>
      </trkpt>
      <trkpt lat="45.58909" lon="3.13429">
        <ele>507</ele>
        <time>2015-03-29T14:45:52+02:00</time>
      </trkpt>
      <trkpt lat="45.58912" lon="3.13431">
        <ele>507</ele>
        <time>2015-03-29T14:45:52+02:00</time>
      </trkpt>
      <trkpt lat="45.58913" lon="3.13434">
        <ele>509</ele>
        <time>2015-03-29T14:45:52+02:00</time>
      </trkpt>
      <trkpt lat="45.58915" lon="3.13437">
        <ele>509</ele>
        <time>2015-03-29T14:45:52+02:00</time>
      </trkpt>
      <trkpt lat="45.58917" lon="3.13439">
        <ele>510</ele>
        <time>2015-03-29T14:45:52+02:00</time>
      </trkpt>
      <trkpt lat="45.58919" lon="3.13441">
        <ele>510</ele>
        <time>2015-03-29T14:45:52+02:00</time>
      </trkpt>
      <trkpt lat="45.58922" lon="3.13442">
        <ele>508</ele>
        <time>2015-03-29T14:45:52+02:00</time>
      </trkpt>
      <trkpt lat="45.58924" lon="3.13443">
        <ele>508</ele>
        <time>2015-03-29T14:45:52+02:00</time>
      </trkpt>
      <trkpt lat="45.58926" lon="3.13443">
        <ele>508</ele>
        <time>2015-03-29T14:45:52+02:00</time>
      </trkpt>
      <trkpt lat="45.58929" lon="3.13445">
        <ele>508</ele>
        <time>2015-03-29T14:45:52+02:00</time>
      </trkpt>
      <trkpt lat="45.58932" lon="3.13446">
        <ele>508</ele>
        <time>2015-03-29T14:45:52+02:00</time>
      </trkpt>
      <trkpt lat="45.58935" lon="3.13447">
        <ele>508</ele>
        <time>2015-03-29T14:45:52+02:00</time>
      </trkpt>
      <trkpt lat="45.58938" lon="3.1345">
        <ele>508</ele>
        <time>2015-03-29T14:45:52+02:00</time>
      </trkpt>
      <trkpt lat="45.5894" lon="3.13451">
        <ele>508</ele>
        <time>2015-03-29T14:45:52+02:00</time>
      </trkpt>
      <trkpt lat="45.5898" lon="3.13486">
        <ele>507</ele>
        <time>2015-03-29T14:45:52+02:00</time>
      </trkpt>
      <trkpt lat="45.58983" lon="3.13488">
        <ele>506</ele>
        <time>2015-03-29T14:45:52+02:00</time>
      </trkpt>
      <trkpt lat="45.58985" lon="3.13491">
        <ele>505</ele>
        <time>2015-03-29T14:45:52+02:00</time>
      </trkpt>
      <trkpt lat="45.58987" lon="3.13494">
        <ele>506</ele>
        <time>2015-03-29T14:45:52+02:00</time>
      </trkpt>
      <trkpt lat="45.58989" lon="3.13496">
        <ele>504</ele>
        <time>2015-03-29T14:45:52+02:00</time>
      </trkpt>
      <trkpt lat="45.58992" lon="3.13498">
        <ele>504</ele>
        <time>2015-03-29T14:45:52+02:00</time>
      </trkpt>
      <trkpt lat="45.58993" lon="3.135">
        <ele>505</ele>
        <time>2015-03-29T14:45:52+02:00</time>
      </trkpt>
      <trkpt lat="45.58995" lon="3.13501">
        <ele>505</ele>
        <time>2015-03-29T14:45:52+02:00</time>
      </trkpt>
      <trkpt lat="45.58996" lon="3.13504">
        <ele>504</ele>
        <time>2015-03-29T14:45:52+02:00</time>
      </trkpt>
      <trkpt lat="45.58998" lon="3.13505">
        <ele>503</ele>
        <time>2015-03-29T14:45:52+02:00</time>
      </trkpt>
      <trkpt lat="45.59001" lon="3.13505">
        <ele>501</ele>
        <time>2015-03-29T14:45:52+02:00</time>
      </trkpt>
      <trkpt lat="45.59003" lon="3.13505">
        <ele>500</ele>
        <time>2015-03-29T14:45:52+02:00</time>
      </trkpt>
      <trkpt lat="45.59005" lon="3.13506">
        <ele>500</ele>
        <time>2015-03-29T14:45:52+02:00</time>
      </trkpt>
      <trkpt lat="45.59007" lon="3.13508">
        <ele>499</ele>
        <time>2015-03-29T14:45:52+02:00</time>
      </trkpt>
      <trkpt lat="45.59007" lon="3.13511">
        <ele>502</ele>
        <time>2015-03-29T14:45:52+02:00</time>
      </trkpt>
      <trkpt lat="45.59009" lon="3.13513">
        <ele>503</ele>
        <time>2015-03-29T14:45:52+02:00</time>
      </trkpt>
      <trkpt lat="45.5901" lon="3.13516">
        <ele>504</ele>
        <time>2015-03-29T14:45:52+02:00</time>
      </trkpt>
      <trkpt lat="45.59012" lon="3.13518">
        <ele>504</ele>
        <time>2015-03-29T14:45:52+02:00</time>
      </trkpt>
      <trkpt lat="45.59014" lon="3.1352">
        <ele>504</ele>
        <time>2015-03-29T14:45:52+02:00</time>
      </trkpt>
      <trkpt lat="45.59015" lon="3.13523">
        <ele>505</ele>
        <time>2015-03-29T14:45:52+02:00</time>
      </trkpt>
      <trkpt lat="45.59016" lon="3.13527">
        <ele>505</ele>
        <time>2015-03-29T14:45:52+02:00</time>
      </trkpt>
      <trkpt lat="45.59018" lon="3.1353">
        <ele>505</ele>
        <time>2015-03-29T14:45:52+02:00</time>
      </trkpt>
      <trkpt lat="45.59019" lon="3.13533">
        <ele>505</ele>
        <time>2015-03-29T14:45:52+02:00</time>
      </trkpt>
      <trkpt lat="45.59021" lon="3.13536">
        <ele>505</ele>
        <time>2015-03-29T14:45:52+02:00</time>
      </trkpt>
      <trkpt lat="45.59022" lon="3.1354">
        <ele>505</ele>
        <time>2015-03-29T14:45:52+02:00</time>
      </trkpt>
      <trkpt lat="45.59023" lon="3.13542">
        <ele>504</ele>
        <time>2015-03-29T14:45:52+02:00</time>
      </trkpt>
      <trkpt lat="45.59024" lon="3.13545">
        <ele>505</ele>
        <time>2015-03-29T14:45:52+02:00</time>
      </trkpt>
      <trkpt lat="45.59026" lon="3.13548">
        <ele>506</ele>
        <time>2015-03-29T14:45:52+02:00</time>
      </trkpt>
      <trkpt lat="45.59027" lon="3.13551">
        <ele>506</ele>
        <time>2015-03-29T14:45:52+02:00</time>
      </trkpt>
      <trkpt lat="45.59027" lon="3.13554">
        <ele>507</ele>
        <time>2015-03-29T14:45:52+02:00</time>
      </trkpt>
      <trkpt lat="45.59027" lon="3.13557">
        <ele>506</ele>
        <time>2015-03-29T14:45:52+02:00</time>
      </trkpt>
      <trkpt lat="45.59028" lon="3.13561">
        <ele>506</ele>
        <time>2015-03-29T14:45:52+02:00</time>
      </trkpt>
      <trkpt lat="45.5903" lon="3.13564">
        <ele>506</ele>
        <time>2015-03-29T14:45:52+02:00</time>
      </trkpt>
      <trkpt lat="45.59031" lon="3.13567">
        <ele>506</ele>
        <time>2015-03-29T14:45:52+02:00</time>
      </trkpt>
      <trkpt lat="45.59032" lon="3.1357">
        <ele>506</ele>
        <time>2015-03-29T14:45:52+02:00</time>
      </trkpt>
      <trkpt lat="45.59033" lon="3.13574">
        <ele>507</ele>
        <time>2015-03-29T14:45:52+02:00</time>
      </trkpt>
      <trkpt lat="45.59033" lon="3.13578">
        <ele>507</ele>
        <time>2015-03-29T14:45:52+02:00</time>
      </trkpt>
      <trkpt lat="45.59034" lon="3.13581">
        <ele>506</ele>
        <time>2015-03-29T14:45:52+02:00</time>
      </trkpt>
      <trkpt lat="45.59036" lon="3.13587">
        <ele>507</ele>
        <time>2015-03-29T14:45:52+02:00</time>
      </trkpt>
      <trkpt lat="45.59038" lon="3.13589">
        <ele>506</ele>
        <time>2015-03-29T14:45:52+02:00</time>
      </trkpt>
      <trkpt lat="45.59039" lon="3.13592">
        <ele>505</ele>
        <time>2015-03-29T14:45:52+02:00</time>
      </trkpt>
      <trkpt lat="45.59041" lon="3.13594">
        <ele>505</ele>
        <time>2015-03-29T14:45:52+02:00</time>
      </trkpt>
      <trkpt lat="45.59042" lon="3.13598">
        <ele>507</ele>
        <time>2015-03-29T14:45:52+02:00</time>
      </trkpt>
      <trkpt lat="45.59043" lon="3.13601">
        <ele>508</ele>
        <time>2015-03-29T14:45:52+02:00</time>
      </trkpt>
      <trkpt lat="45.59044" lon="3.13604">
        <ele>509</ele>
        <time>2015-03-29T14:45:52+02:00</time>
      </trkpt>
      <trkpt lat="45.59045" lon="3.13606">
        <ele>508</ele>
        <time>2015-03-29T14:45:52+02:00</time>
      </trkpt>
      <trkpt lat="45.59045" lon="3.13609">
        <ele>509</ele>
        <time>2015-03-29T14:45:52+02:00</time>
      </trkpt>
      <trkpt lat="45.59054" lon="3.13632">
        <ele>509</ele>
        <time>2015-03-29T14:45:52+02:00</time>
      </trkpt>
      <trkpt lat="45.59055" lon="3.13637">
        <ele>510</ele>
        <time>2015-03-29T14:45:52+02:00</time>
      </trkpt>
      <trkpt lat="45.59057" lon="3.13642">
        <ele>509</ele>
        <time>2015-03-29T14:48:00+02:00</time>
      </trkpt>
      <trkpt lat="45.59057" lon="3.13645">
        <ele>509</ele>
        <time>2015-03-29T14:48:00+02:00</time>
      </trkpt>
      <trkpt lat="45.59058" lon="3.13648">
        <ele>510</ele>
        <time>2015-03-29T14:48:00+02:00</time>
      </trkpt>
      <trkpt lat="45.59058" lon="3.13651">
        <ele>510</ele>
        <time>2015-03-29T14:48:00+02:00</time>
      </trkpt>
      <trkpt lat="45.59059" lon="3.13654">
        <ele>510</ele>
        <time>2015-03-29T14:48:00+02:00</time>
      </trkpt>
      <trkpt lat="45.59061" lon="3.13657">
        <ele>511</ele>
        <time>2015-03-29T14:48:00+02:00</time>
      </trkpt>
      <trkpt lat="45.59062" lon="3.1366">
        <ele>511</ele>
        <time>2015-03-29T14:48:00+02:00</time>
      </trkpt>
      <trkpt lat="45.59063" lon="3.13662">
        <ele>511</ele>
        <time>2015-03-29T14:48:00+02:00</time>
      </trkpt>
      <trkpt lat="45.59063" lon="3.13665">
        <ele>511</ele>
        <time>2015-03-29T14:48:00+02:00</time>
      </trkpt>
      <trkpt lat="45.59064" lon="3.13668">
        <ele>512</ele>
        <time>2015-03-29T14:48:00+02:00</time>
      </trkpt>
      <trkpt lat="45.59065" lon="3.13671">
        <ele>512</ele>
        <time>2015-03-29T14:48:00+02:00</time>
      </trkpt>
      <trkpt lat="45.59066" lon="3.13674">
        <ele>512</ele>
        <time>2015-03-29T14:48:00+02:00</time>
      </trkpt>
      <trkpt lat="45.59067" lon="3.13677">
        <ele>513</ele>
        <time>2015-03-29T14:48:00+02:00</time>
      </trkpt>
      <trkpt lat="45.59067" lon="3.13679">
        <ele>513</ele>
        <time>2015-03-29T14:48:00+02:00</time>
      </trkpt>
      <trkpt lat="45.59068" lon="3.13682">
        <ele>515</ele>
        <time>2015-03-29T14:48:00+02:00</time>
      </trkpt>
      <trkpt lat="45.59069" lon="3.13685">
        <ele>516</ele>
        <time>2015-03-29T14:48:00+02:00</time>
      </trkpt>
      <trkpt lat="45.5907" lon="3.13689">
        <ele>518</ele>
        <time>2015-03-29T14:48:00+02:00</time>
      </trkpt>
      <trkpt lat="45.59071" lon="3.13692">
        <ele>518</ele>
        <time>2015-03-29T14:48:00+02:00</time>
      </trkpt>
      <trkpt lat="45.59072" lon="3.13696">
        <ele>518</ele>
        <time>2015-03-29T14:48:00+02:00</time>
      </trkpt>
      <trkpt lat="45.59073" lon="3.13699">
        <ele>519</ele>
        <time>2015-03-29T14:48:00+02:00</time>
      </trkpt>
      <trkpt lat="45.59074" lon="3.13701">
        <ele>519</ele>
        <time>2015-03-29T14:48:00+02:00</time>
      </trkpt>
      <trkpt lat="45.59075" lon="3.13705">
        <ele>519</ele>
        <time>2015-03-29T14:48:00+02:00</time>
      </trkpt>
      <trkpt lat="45.59076" lon="3.13709">
        <ele>519</ele>
        <time>2015-03-29T14:48:00+02:00</time>
      </trkpt>
      <trkpt lat="45.59077" lon="3.13711">
        <ele>519</ele>
        <time>2015-03-29T14:48:00+02:00</time>
      </trkpt>
      <trkpt lat="45.59085" lon="3.13737">
        <ele>517</ele>
        <time>2015-03-29T14:48:00+02:00</time>
      </trkpt>
      <trkpt lat="45.59086" lon="3.1374">
        <ele>516</ele>
        <time>2015-03-29T14:48:00+02:00</time>
      </trkpt>
      <trkpt lat="45.59087" lon="3.13743">
        <ele>516</ele>
        <time>2015-03-29T14:48:00+02:00</time>
      </trkpt>
      <trkpt lat="45.59088" lon="3.13746">
        <ele>516</ele>
        <time>2015-03-29T14:48:00+02:00</time>
      </trkpt>
      <trkpt lat="45.59089" lon="3.13749">
        <ele>516</ele>
        <time>2015-03-29T14:48:00+02:00</time>
      </trkpt>
      <trkpt lat="45.5909" lon="3.13752">
        <ele>516</ele>
        <time>2015-03-29T14:48:00+02:00</time>
      </trkpt>
      <trkpt lat="45.59092" lon="3.13755">
        <ele>517</ele>
        <time>2015-03-29T14:48:00+02:00</time>
      </trkpt>
      <trkpt lat="45.59093" lon="3.13758">
        <ele>516</ele>
        <time>2015-03-29T14:48:00+02:00</time>
      </trkpt>
      <trkpt lat="45.59094" lon="3.13761">
        <ele>516</ele>
        <time>2015-03-29T14:48:00+02:00</time>
      </trkpt>
      <trkpt lat="45.59095" lon="3.13764">
        <ele>516</ele>
        <time>2015-03-29T14:48:00+02:00</time>
      </trkpt>
      <trkpt lat="45.59096" lon="3.13766">
        <ele>516</ele>
        <time>2015-03-29T14:48:00+02:00</time>
      </trkpt>
      <trkpt lat="45.59097" lon="3.1377">
        <ele>516</ele>
        <time>2015-03-29T14:48:00+02:00</time>
      </trkpt>
      <trkpt lat="45.59098" lon="3.13773">
        <ele>516</ele>
        <time>2015-03-29T14:48:00+02:00</time>
      </trkpt>
      <trkpt lat="45.59098" lon="3.13776">
        <ele>517</ele>
        <time>2015-03-29T14:48:00+02:00</time>
      </trkpt>
      <trkpt lat="45.59099" lon="3.13779">
        <ele>517</ele>
        <time>2015-03-29T14:48:00+02:00</time>
      </trkpt>
      <trkpt lat="45.591" lon="3.13782">
        <ele>518</ele>
        <time>2015-03-29T14:48:00+02:00</time>
      </trkpt>
      <trkpt lat="45.59101" lon="3.13784">
        <ele>518</ele>
        <time>2015-03-29T14:48:00+02:00</time>
      </trkpt>
      <trkpt lat="45.59101" lon="3.13787">
        <ele>518</ele>
        <time>2015-03-29T14:48:00+02:00</time>
      </trkpt>
      <trkpt lat="45.59102" lon="3.1379">
        <ele>518</ele>
        <time>2015-03-29T14:48:00+02:00</time>
      </trkpt>
      <trkpt lat="45.59103" lon="3.13792">
        <ele>519</ele>
        <time>2015-03-29T14:48:00+02:00</time>
      </trkpt>
      <trkpt lat="45.59104" lon="3.13795">
        <ele>518</ele>
        <time>2015-03-29T14:48:00+02:00</time>
      </trkpt>
      <trkpt lat="45.59105" lon="3.13799">
        <ele>518</ele>
        <time>2015-03-29T14:48:00+02:00</time>
      </trkpt>
      <trkpt lat="45.59106" lon="3.13802">
        <ele>519</ele>
        <time>2015-03-29T14:48:00+02:00</time>
      </trkpt>
      <trkpt lat="45.59107" lon="3.13804">
        <ele>519</ele>
        <time>2015-03-29T14:48:00+02:00</time>
      </trkpt>
      <trkpt lat="45.59108" lon="3.13807">
        <ele>519</ele>
        <time>2015-03-29T14:48:00+02:00</time>
      </trkpt>
      <trkpt lat="45.59109" lon="3.13809">
        <ele>519</ele>
        <time>2015-03-29T14:48:00+02:00</time>
      </trkpt>
      <trkpt lat="45.5911" lon="3.13812">
        <ele>519</ele>
        <time>2015-03-29T14:48:00+02:00</time>
      </trkpt>
      <trkpt lat="45.5911" lon="3.13815">
        <ele>519</ele>
        <time>2015-03-29T14:48:00+02:00</time>
      </trkpt>
      <trkpt lat="45.59111" lon="3.13817">
        <ele>519</ele>
        <time>2015-03-29T14:48:00+02:00</time>
      </trkpt>
      <trkpt lat="45.59112" lon="3.1382">
        <ele>520</ele>
        <time>2015-03-29T14:48:00+02:00</time>
      </trkpt>
      <trkpt lat="45.59113" lon="3.13822">
        <ele>520</ele>
        <time>2015-03-29T14:48:00+02:00</time>
      </trkpt>
      <trkpt lat="45.59113" lon="3.13825">
        <ele>520</ele>
        <time>2015-03-29T14:48:00+02:00</time>
      </trkpt>
      <trkpt lat="45.59113" lon="3.13829">
        <ele>522</ele>
        <time>2015-03-29T14:48:00+02:00</time>
      </trkpt>
      <trkpt lat="45.59115" lon="3.13831">
        <ele>521</ele>
        <time>2015-03-29T14:48:00+02:00</time>
      </trkpt>
      <trkpt lat="45.59116" lon="3.13834">
        <ele>521</ele>
        <time>2015-03-29T14:48:00+02:00</time>
      </trkpt>
      <trkpt lat="45.59118" lon="3.1384">
        <ele>520</ele>
        <time>2015-03-29T14:48:00+02:00</time>
      </trkpt>
      <trkpt lat="45.59119" lon="3.13844">
        <ele>521</ele>
        <time>2015-03-29T14:48:00+02:00</time>
      </trkpt>
      <trkpt lat="45.5912" lon="3.13848">
        <ele>521</ele>
        <time>2015-03-29T14:48:00+02:00</time>
      </trkpt>
      <trkpt lat="45.59121" lon="3.13851">
        <ele>522</ele>
        <time>2015-03-29T14:48:00+02:00</time>
      </trkpt>
      <trkpt lat="45.59122" lon="3.13854">
        <ele>522</ele>
        <time>2015-03-29T14:48:00+02:00</time>
      </trkpt>
      <trkpt lat="45.59123" lon="3.13857">
        <ele>522</ele>
        <time>2015-03-29T14:48:00+02:00</time>
      </trkpt>
      <trkpt lat="45.59123" lon="3.1386">
        <ele>522</ele>
        <time>2015-03-29T14:48:00+02:00</time>
      </trkpt>
      <trkpt lat="45.59124" lon="3.13862">
        <ele>523</ele>
        <time>2015-03-29T14:48:00+02:00</time>
      </trkpt>
      <trkpt lat="45.59125" lon="3.13865">
        <ele>523</ele>
        <time>2015-03-29T14:48:00+02:00</time>
      </trkpt>
      <trkpt lat="45.59127" lon="3.1387">
        <ele>523</ele>
        <time>2015-03-29T14:48:00+02:00</time>
      </trkpt>
      <trkpt lat="45.59129" lon="3.13875">
        <ele>523</ele>
        <time>2015-03-29T14:48:00+02:00</time>
      </trkpt>
      <trkpt lat="45.59129" lon="3.13878">
        <ele>524</ele>
        <time>2015-03-29T14:48:00+02:00</time>
      </trkpt>
      <trkpt lat="45.5913" lon="3.13881">
        <ele>524</ele>
        <time>2015-03-29T14:48:00+02:00</time>
      </trkpt>
      <trkpt lat="45.59131" lon="3.13884">
        <ele>524</ele>
        <time>2015-03-29T14:48:00+02:00</time>
      </trkpt>
      <trkpt lat="45.59131" lon="3.13886">
        <ele>524</ele>
        <time>2015-03-29T14:48:00+02:00</time>
      </trkpt>
      <trkpt lat="45.59132" lon="3.13889">
        <ele>525</ele>
        <time>2015-03-29T14:48:00+02:00</time>
      </trkpt>
      <trkpt lat="45.59133" lon="3.13892">
        <ele>525</ele>
        <time>2015-03-29T14:48:00+02:00</time>
      </trkpt>
      <trkpt lat="45.59134" lon="3.13895">
        <ele>525</ele>
        <time>2015-03-29T14:48:00+02:00</time>
      </trkpt>
      <trkpt lat="45.59136" lon="3.13898">
        <ele>526</ele>
        <time>2015-03-29T14:48:00+02:00</time>
      </trkpt>
      <trkpt lat="45.59136" lon="3.13902">
        <ele>526</ele>
        <time>2015-03-29T14:48:00+02:00</time>
      </trkpt>
      <trkpt lat="45.59137" lon="3.13905">
        <ele>526</ele>
        <time>2015-03-29T14:48:00+02:00</time>
      </trkpt>
      <trkpt lat="45.59138" lon="3.13908">
        <ele>526</ele>
        <time>2015-03-29T14:48:00+02:00</time>
      </trkpt>
      <trkpt lat="45.59139" lon="3.13912">
        <ele>526</ele>
        <time>2015-03-29T14:48:00+02:00</time>
      </trkpt>
      <trkpt lat="45.59139" lon="3.13914">
        <ele>526</ele>
        <time>2015-03-29T14:48:00+02:00</time>
      </trkpt>
      <trkpt lat="45.5914" lon="3.13917">
        <ele>526</ele>
        <time>2015-03-29T14:48:00+02:00</time>
      </trkpt>
      <trkpt lat="45.59141" lon="3.13922">
        <ele>526</ele>
        <time>2015-03-29T14:48:00+02:00</time>
      </trkpt>
      <trkpt lat="45.59142" lon="3.13925">
        <ele>526</ele>
        <time>2015-03-29T14:48:00+02:00</time>
      </trkpt>
      <trkpt lat="45.59142" lon="3.13927">
        <ele>527</ele>
        <time>2015-03-29T14:48:00+02:00</time>
      </trkpt>
      <trkpt lat="45.59143" lon="3.1393">
        <ele>527</ele>
        <time>2015-03-29T14:48:00+02:00</time>
      </trkpt>
      <trkpt lat="45.59144" lon="3.13933">
        <ele>527</ele>
        <time>2015-03-29T14:48:00+02:00</time>
      </trkpt>
      <trkpt lat="45.59144" lon="3.13936">
        <ele>527</ele>
        <time>2015-03-29T14:48:00+02:00</time>
      </trkpt>
      <trkpt lat="45.59145" lon="3.13939">
        <ele>528</ele>
        <time>2015-03-29T14:48:00+02:00</time>
      </trkpt>
      <trkpt lat="45.59146" lon="3.13942">
        <ele>528</ele>
        <time>2015-03-29T14:48:00+02:00</time>
      </trkpt>
      <trkpt lat="45.59146" lon="3.13945">
        <ele>528</ele>
        <time>2015-03-29T14:48:00+02:00</time>
      </trkpt>
      <trkpt lat="45.59147" lon="3.13948">
        <ele>528</ele>
        <time>2015-03-29T14:48:00+02:00</time>
      </trkpt>
      <trkpt lat="45.59147" lon="3.13953">
        <ele>529</ele>
        <time>2015-03-29T14:48:00+02:00</time>
      </trkpt>
      <trkpt lat="45.59148" lon="3.13956">
        <ele>530</ele>
        <time>2015-03-29T14:48:00+02:00</time>
      </trkpt>
      <trkpt lat="45.59148" lon="3.13959">
        <ele>530</ele>
        <time>2015-03-29T14:48:00+02:00</time>
      </trkpt>
      <trkpt lat="45.59149" lon="3.13963">
        <ele>530</ele>
        <time>2015-03-29T14:48:00+02:00</time>
      </trkpt>
      <trkpt lat="45.59149" lon="3.13966">
        <ele>529</ele>
        <time>2015-03-29T14:48:00+02:00</time>
      </trkpt>
      <trkpt lat="45.5915" lon="3.1397">
        <ele>529</ele>
        <time>2015-03-29T14:50:08+02:00</time>
      </trkpt>
      <trkpt lat="45.5915" lon="3.13973">
        <ele>530</ele>
        <time>2015-03-29T14:50:08+02:00</time>
      </trkpt>
      <trkpt lat="45.59151" lon="3.13977">
        <ele>531</ele>
        <time>2015-03-29T14:50:08+02:00</time>
      </trkpt>
      <trkpt lat="45.59151" lon="3.1398">
        <ele>531</ele>
        <time>2015-03-29T14:50:08+02:00</time>
      </trkpt>
      <trkpt lat="45.59151" lon="3.13983">
        <ele>531</ele>
        <time>2015-03-29T14:50:08+02:00</time>
      </trkpt>
      <trkpt lat="45.59152" lon="3.13986">
        <ele>531</ele>
        <time>2015-03-29T14:50:08+02:00</time>
      </trkpt>
      <trkpt lat="45.59152" lon="3.13989">
        <ele>532</ele>
        <time>2015-03-29T14:50:08+02:00</time>
      </trkpt>
      <trkpt lat="45.59152" lon="3.13992">
        <ele>532</ele>
        <time>2015-03-29T14:50:08+02:00</time>
      </trkpt>
      <trkpt lat="45.59152" lon="3.13996">
        <ele>532</ele>
        <time>2015-03-29T14:50:08+02:00</time>
      </trkpt>
      <trkpt lat="45.59153" lon="3.13999">
        <ele>532</ele>
        <time>2015-03-29T14:50:08+02:00</time>
      </trkpt>
      <trkpt lat="45.59153" lon="3.14002">
        <ele>532</ele>
        <time>2015-03-29T14:50:08+02:00</time>
      </trkpt>
      <trkpt lat="45.59153" lon="3.14006">
        <ele>533</ele>
        <time>2015-03-29T14:50:08+02:00</time>
      </trkpt>
      <trkpt lat="45.59154" lon="3.1401">
        <ele>533</ele>
        <time>2015-03-29T14:50:08+02:00</time>
      </trkpt>
      <trkpt lat="45.59154" lon="3.14015">
        <ele>533</ele>
        <time>2015-03-29T14:50:08+02:00</time>
      </trkpt>
      <trkpt lat="45.59154" lon="3.14018">
        <ele>533</ele>
        <time>2015-03-29T14:50:08+02:00</time>
      </trkpt>
      <trkpt lat="45.59155" lon="3.14021">
        <ele>534</ele>
        <time>2015-03-29T14:50:08+02:00</time>
      </trkpt>
      <trkpt lat="45.59155" lon="3.14024">
        <ele>534</ele>
        <time>2015-03-29T14:50:08+02:00</time>
      </trkpt>
      <trkpt lat="45.59155" lon="3.14028">
        <ele>533</ele>
        <time>2015-03-29T14:50:08+02:00</time>
      </trkpt>
      <trkpt lat="45.59155" lon="3.1403">
        <ele>534</ele>
        <time>2015-03-29T14:50:08+02:00</time>
      </trkpt>
      <trkpt lat="45.59156" lon="3.14034">
        <ele>535</ele>
        <time>2015-03-29T14:50:08+02:00</time>
      </trkpt>
      <trkpt lat="45.59156" lon="3.14039">
        <ele>535</ele>
        <time>2015-03-29T14:50:08+02:00</time>
      </trkpt>
      <trkpt lat="45.59157" lon="3.14044">
        <ele>535</ele>
        <time>2015-03-29T14:50:08+02:00</time>
      </trkpt>
      <trkpt lat="45.59157" lon="3.14048">
        <ele>536</ele>
        <time>2015-03-29T14:50:08+02:00</time>
      </trkpt>
      <trkpt lat="45.59157" lon="3.14052">
        <ele>536</ele>
        <time>2015-03-29T14:50:08+02:00</time>
      </trkpt>
      <trkpt lat="45.59158" lon="3.14056">
        <ele>537</ele>
        <time>2015-03-29T14:50:08+02:00</time>
      </trkpt>
      <trkpt lat="45.59158" lon="3.14059">
        <ele>537</ele>
        <time>2015-03-29T14:50:08+02:00</time>
      </trkpt>
      <trkpt lat="45.59158" lon="3.14063">
        <ele>537</ele>
        <time>2015-03-29T14:50:08+02:00</time>
      </trkpt>
      <trkpt lat="45.59159" lon="3.14066">
        <ele>537</ele>
        <time>2015-03-29T14:50:08+02:00</time>
      </trkpt>
      <trkpt lat="45.59159" lon="3.14069">
        <ele>537</ele>
        <time>2015-03-29T14:50:08+02:00</time>
      </trkpt>
      <trkpt lat="45.59159" lon="3.14072">
        <ele>538</ele>
        <time>2015-03-29T14:50:08+02:00</time>
      </trkpt>
      <trkpt lat="45.59159" lon="3.14076">
        <ele>538</ele>
        <time>2015-03-29T14:50:08+02:00</time>
      </trkpt>
      <trkpt lat="45.59159" lon="3.14079">
        <ele>538</ele>
        <time>2015-03-29T14:50:08+02:00</time>
      </trkpt>
      <trkpt lat="45.59159" lon="3.14082">
        <ele>538</ele>
        <time>2015-03-29T14:50:08+02:00</time>
      </trkpt>
      <trkpt lat="45.59159" lon="3.14085">
        <ele>539</ele>
        <time>2015-03-29T14:50:08+02:00</time>
      </trkpt>
      <trkpt lat="45.5916" lon="3.1409">
        <ele>539</ele>
        <time>2015-03-29T14:50:08+02:00</time>
      </trkpt>
      <trkpt lat="45.59159" lon="3.14096">
        <ele>539</ele>
        <time>2015-03-29T14:50:08+02:00</time>
      </trkpt>
      <trkpt lat="45.59159" lon="3.14099">
        <ele>540</ele>
        <time>2015-03-29T14:50:08+02:00</time>
      </trkpt>
      <trkpt lat="45.59159" lon="3.14102">
        <ele>540</ele>
        <time>2015-03-29T14:50:08+02:00</time>
      </trkpt>
      <trkpt lat="45.59159" lon="3.14106">
        <ele>540</ele>
        <time>2015-03-29T14:50:08+02:00</time>
      </trkpt>
      <trkpt lat="45.5916" lon="3.1411">
        <ele>540</ele>
        <time>2015-03-29T14:50:08+02:00</time>
      </trkpt>
      <trkpt lat="45.5916" lon="3.14115">
        <ele>540</ele>
        <time>2015-03-29T14:50:08+02:00</time>
      </trkpt>
      <trkpt lat="45.5916" lon="3.14118">
        <ele>541</ele>
        <time>2015-03-29T14:50:08+02:00</time>
      </trkpt>
      <trkpt lat="45.59159" lon="3.14121">
        <ele>541</ele>
        <time>2015-03-29T14:50:08+02:00</time>
      </trkpt>
      <trkpt lat="45.59159" lon="3.14124">
        <ele>541</ele>
        <time>2015-03-29T14:50:08+02:00</time>
      </trkpt>
      <trkpt lat="45.59159" lon="3.14127">
        <ele>541</ele>
        <time>2015-03-29T14:50:08+02:00</time>
      </trkpt>
      <trkpt lat="45.59159" lon="3.14131">
        <ele>542</ele>
        <time>2015-03-29T14:50:08+02:00</time>
      </trkpt>
      <trkpt lat="45.59159" lon="3.14135">
        <ele>542</ele>
        <time>2015-03-29T14:50:08+02:00</time>
      </trkpt>
      <trkpt lat="45.59159" lon="3.14142">
        <ele>542</ele>
        <time>2015-03-29T14:50:08+02:00</time>
      </trkpt>
      <trkpt lat="45.59159" lon="3.14145">
        <ele>542</ele>
        <time>2015-03-29T14:50:08+02:00</time>
      </trkpt>
      <trkpt lat="45.59158" lon="3.14148">
        <ele>542</ele>
        <time>2015-03-29T14:50:08+02:00</time>
      </trkpt>
      <trkpt lat="45.59158" lon="3.14151">
        <ele>542</ele>
        <time>2015-03-29T14:50:08+02:00</time>
      </trkpt>
      <trkpt lat="45.59157" lon="3.14154">
        <ele>543</ele>
        <time>2015-03-29T14:50:08+02:00</time>
      </trkpt>
      <trkpt lat="45.59155" lon="3.14157">
        <ele>543</ele>
        <time>2015-03-29T14:50:08+02:00</time>
      </trkpt>
      <trkpt lat="45.59154" lon="3.1416">
        <ele>543</ele>
        <time>2015-03-29T14:50:08+02:00</time>
      </trkpt>
      <trkpt lat="45.59154" lon="3.14164">
        <ele>542</ele>
        <time>2015-03-29T14:50:08+02:00</time>
      </trkpt>
      <trkpt lat="45.59153" lon="3.14168">
        <ele>544</ele>
        <time>2015-03-29T14:50:08+02:00</time>
      </trkpt>
      <trkpt lat="45.59153" lon="3.14173">
        <ele>545</ele>
        <time>2015-03-29T14:50:08+02:00</time>
      </trkpt>
      <trkpt lat="45.59154" lon="3.14176">
        <ele>544</ele>
        <time>2015-03-29T14:50:08+02:00</time>
      </trkpt>
      <trkpt lat="45.59154" lon="3.14179">
        <ele>544</ele>
        <time>2015-03-29T14:50:08+02:00</time>
      </trkpt>
      <trkpt lat="45.59155" lon="3.14182">
        <ele>544</ele>
        <time>2015-03-29T14:50:08+02:00</time>
      </trkpt>
      <trkpt lat="45.59155" lon="3.14187">
        <ele>544</ele>
        <time>2015-03-29T14:50:08+02:00</time>
      </trkpt>
      <trkpt lat="45.59153" lon="3.1419">
        <ele>546</ele>
        <time>2015-03-29T14:50:08+02:00</time>
      </trkpt>
      <trkpt lat="45.59153" lon="3.14194">
        <ele>546</ele>
        <time>2015-03-29T14:50:08+02:00</time>
      </trkpt>
      <trkpt lat="45.5915" lon="3.14208">
        <ele>547</ele>
        <time>2015-03-29T14:50:08+02:00</time>
      </trkpt>
      <trkpt lat="45.5915" lon="3.14216">
        <ele>548</ele>
        <time>2015-03-29T14:50:08+02:00</time>
      </trkpt>
      <trkpt lat="45.59149" lon="3.14219">
        <ele>548</ele>
        <time>2015-03-29T14:50:08+02:00</time>
      </trkpt>
      <trkpt lat="45.59149" lon="3.14222">
        <ele>548</ele>
        <time>2015-03-29T14:50:08+02:00</time>
      </trkpt>
      <trkpt lat="45.59149" lon="3.14226">
        <ele>548</ele>
        <time>2015-03-29T14:50:08+02:00</time>
      </trkpt>
      <trkpt lat="45.59149" lon="3.14229">
        <ele>548</ele>
        <time>2015-03-29T14:50:08+02:00</time>
      </trkpt>
      <trkpt lat="45.59148" lon="3.14233">
        <ele>548</ele>
        <time>2015-03-29T14:50:08+02:00</time>
      </trkpt>
      <trkpt lat="45.59148" lon="3.14236">
        <ele>548</ele>
        <time>2015-03-29T14:50:08+02:00</time>
      </trkpt>
      <trkpt lat="45.59147" lon="3.14241">
        <ele>549</ele>
        <time>2015-03-29T14:50:08+02:00</time>
      </trkpt>
      <trkpt lat="45.59146" lon="3.14243">
        <ele>549</ele>
        <time>2015-03-29T14:50:08+02:00</time>
      </trkpt>
      <trkpt lat="45.59146" lon="3.14249">
        <ele>549</ele>
        <time>2015-03-29T14:50:08+02:00</time>
      </trkpt>
      <trkpt lat="45.59145" lon="3.14252">
        <ele>549</ele>
        <time>2015-03-29T14:50:08+02:00</time>
      </trkpt>
      <trkpt lat="45.59144" lon="3.14256">
        <ele>549</ele>
        <time>2015-03-29T14:50:08+02:00</time>
      </trkpt>
      <trkpt lat="45.59143" lon="3.1426">
        <ele>549</ele>
        <time>2015-03-29T14:50:08+02:00</time>
      </trkpt>
      <trkpt lat="45.59143" lon="3.14263">
        <ele>549</ele>
        <time>2015-03-29T14:50:08+02:00</time>
      </trkpt>
      <trkpt lat="45.59142" lon="3.14268">
        <ele>549</ele>
        <time>2015-03-29T14:50:08+02:00</time>
      </trkpt>
      <trkpt lat="45.59141" lon="3.14272">
        <ele>549</ele>
        <time>2015-03-29T14:50:08+02:00</time>
      </trkpt>
      <trkpt lat="45.59141" lon="3.14275">
        <ele>550</ele>
        <time>2015-03-29T14:50:08+02:00</time>
      </trkpt>
      <trkpt lat="45.5914" lon="3.14277">
        <ele>550</ele>
        <time>2015-03-29T14:50:08+02:00</time>
      </trkpt>
      <trkpt lat="45.59139" lon="3.14282">
        <ele>551</ele>
        <time>2015-03-29T14:50:08+02:00</time>
      </trkpt>
      <trkpt lat="45.59139" lon="3.14286">
        <ele>551</ele>
        <time>2015-03-29T14:50:08+02:00</time>
      </trkpt>
      <trkpt lat="45.59136" lon="3.143">
        <ele>551</ele>
        <time>2015-03-29T14:50:08+02:00</time>
      </trkpt>
      <trkpt lat="45.59135" lon="3.14304">
        <ele>551</ele>
        <time>2015-03-29T14:50:08+02:00</time>
      </trkpt>
      <trkpt lat="45.59134" lon="3.14307">
        <ele>552</ele>
        <time>2015-03-29T14:50:08+02:00</time>
      </trkpt>
      <trkpt lat="45.59132" lon="3.14311">
        <ele>552</ele>
        <time>2015-03-29T14:50:08+02:00</time>
      </trkpt>
      <trkpt lat="45.59131" lon="3.14315">
        <ele>552</ele>
        <time>2015-03-29T14:52:16+02:00</time>
      </trkpt>
      <trkpt lat="45.59131" lon="3.14319">
        <ele>552</ele>
        <time>2015-03-29T14:52:16+02:00</time>
      </trkpt>
      <trkpt lat="45.5913" lon="3.14322">
        <ele>552</ele>
        <time>2015-03-29T14:52:16+02:00</time>
      </trkpt>
      <trkpt lat="45.5913" lon="3.14326">
        <ele>552</ele>
        <time>2015-03-29T14:52:16+02:00</time>
      </trkpt>
      <trkpt lat="45.59125" lon="3.14336">
        <ele>552</ele>
        <time>2015-03-29T14:52:16+02:00</time>
      </trkpt>
      <trkpt lat="45.59124" lon="3.14339">
        <ele>553</ele>
        <time>2015-03-29T14:52:16+02:00</time>
      </trkpt>
      <trkpt lat="45.59122" lon="3.14343">
        <ele>554</ele>
        <time>2015-03-29T14:52:16+02:00</time>
      </trkpt>
      <trkpt lat="45.59118" lon="3.14352">
        <ele>553</ele>
        <time>2015-03-29T14:52:16+02:00</time>
      </trkpt>
      <trkpt lat="45.59117" lon="3.14356">
        <ele>553</ele>
        <time>2015-03-29T14:52:16+02:00</time>
      </trkpt>
      <trkpt lat="45.59115" lon="3.14359">
        <ele>553</ele>
        <time>2015-03-29T14:52:16+02:00</time>
      </trkpt>
      <trkpt lat="45.59113" lon="3.14362">
        <ele>553</ele>
        <time>2015-03-29T14:52:16+02:00</time>
      </trkpt>
      <trkpt lat="45.59112" lon="3.14366">
        <ele>553</ele>
        <time>2015-03-29T14:52:16+02:00</time>
      </trkpt>
      <trkpt lat="45.5911" lon="3.14369">
        <ele>553</ele>
        <time>2015-03-29T14:52:16+02:00</time>
      </trkpt>
      <trkpt lat="45.59108" lon="3.14371">
        <ele>553</ele>
        <time>2015-03-29T14:52:16+02:00</time>
      </trkpt>
      <trkpt lat="45.59107" lon="3.14373">
        <ele>552</ele>
        <time>2015-03-29T14:52:16+02:00</time>
      </trkpt>
      <trkpt lat="45.59105" lon="3.14377">
        <ele>552</ele>
        <time>2015-03-29T14:52:16+02:00</time>
      </trkpt>
      <trkpt lat="45.59104" lon="3.14381">
        <ele>552</ele>
        <time>2015-03-29T14:52:16+02:00</time>
      </trkpt>
      <trkpt lat="45.59103" lon="3.14384">
        <ele>552</ele>
        <time>2015-03-29T14:52:16+02:00</time>
      </trkpt>
      <trkpt lat="45.59101" lon="3.14387">
        <ele>552</ele>
        <time>2015-03-29T14:52:16+02:00</time>
      </trkpt>
      <trkpt lat="45.59101" lon="3.1439">
        <ele>552</ele>
        <time>2015-03-29T14:52:16+02:00</time>
      </trkpt>
      <trkpt lat="45.59099" lon="3.14394">
        <ele>551</ele>
        <time>2015-03-29T14:52:16+02:00</time>
      </trkpt>
      <trkpt lat="45.59098" lon="3.14397">
        <ele>551</ele>
        <time>2015-03-29T14:52:16+02:00</time>
      </trkpt>
      <trkpt lat="45.59097" lon="3.14399">
        <ele>550</ele>
        <time>2015-03-29T14:52:16+02:00</time>
      </trkpt>
      <trkpt lat="45.59096" lon="3.14403">
        <ele>550</ele>
        <time>2015-03-29T14:52:16+02:00</time>
      </trkpt>
      <trkpt lat="45.59095" lon="3.14405">
        <ele>550</ele>
        <time>2015-03-29T14:52:16+02:00</time>
      </trkpt>
      <trkpt lat="45.59095" lon="3.14408">
        <ele>550</ele>
        <time>2015-03-29T14:52:16+02:00</time>
      </trkpt>
      <trkpt lat="45.59094" lon="3.14412">
        <ele>550</ele>
        <time>2015-03-29T14:52:16+02:00</time>
      </trkpt>
      <trkpt lat="45.59093" lon="3.14415">
        <ele>549</ele>
        <time>2015-03-29T14:52:16+02:00</time>
      </trkpt>
      <trkpt lat="45.59092" lon="3.14418">
        <ele>549</ele>
        <time>2015-03-29T14:52:16+02:00</time>
      </trkpt>
      <trkpt lat="45.59091" lon="3.14422">
        <ele>550</ele>
        <time>2015-03-29T14:52:16+02:00</time>
      </trkpt>
      <trkpt lat="45.5909" lon="3.14426">
        <ele>550</ele>
        <time>2015-03-29T14:52:16+02:00</time>
      </trkpt>
      <trkpt lat="45.5909" lon="3.1443">
        <ele>550</ele>
        <time>2015-03-29T14:52:16+02:00</time>
      </trkpt>
      <trkpt lat="45.59089" lon="3.14434">
        <ele>550</ele>
        <time>2015-03-29T14:52:16+02:00</time>
      </trkpt>
      <trkpt lat="45.59088" lon="3.14438">
        <ele>550</ele>
        <time>2015-03-29T14:52:16+02:00</time>
      </trkpt>
      <trkpt lat="45.59087" lon="3.14441">
        <ele>549</ele>
        <time>2015-03-29T14:52:16+02:00</time>
      </trkpt>
      <trkpt lat="45.59086" lon="3.14444">
        <ele>550</ele>
        <time>2015-03-29T14:52:16+02:00</time>
      </trkpt>
      <trkpt lat="45.59086" lon="3.14448">
        <ele>549</ele>
        <time>2015-03-29T14:52:16+02:00</time>
      </trkpt>
      <trkpt lat="45.59086" lon="3.1445">
        <ele>549</ele>
        <time>2015-03-29T14:52:16+02:00</time>
      </trkpt>
      <trkpt lat="45.59085" lon="3.14455">
        <ele>549</ele>
        <time>2015-03-29T14:52:16+02:00</time>
      </trkpt>
      <trkpt lat="45.59085" lon="3.14457">
        <ele>549</ele>
        <time>2015-03-29T14:52:16+02:00</time>
      </trkpt>
      <trkpt lat="45.59084" lon="3.1446">
        <ele>549</ele>
        <time>2015-03-29T14:52:16+02:00</time>
      </trkpt>
      <trkpt lat="45.59083" lon="3.14463">
        <ele>549</ele>
        <time>2015-03-29T14:52:16+02:00</time>
      </trkpt>
      <trkpt lat="45.59082" lon="3.14467">
        <ele>549</ele>
        <time>2015-03-29T14:52:16+02:00</time>
      </trkpt>
      <trkpt lat="45.59082" lon="3.14471">
        <ele>549</ele>
        <time>2015-03-29T14:52:16+02:00</time>
      </trkpt>
      <trkpt lat="45.59082" lon="3.14474">
        <ele>549</ele>
        <time>2015-03-29T14:52:16+02:00</time>
      </trkpt>
      <trkpt lat="45.59081" lon="3.14478">
        <ele>549</ele>
        <time>2015-03-29T14:52:16+02:00</time>
      </trkpt>
      <trkpt lat="45.59082" lon="3.14482">
        <ele>549</ele>
        <time>2015-03-29T14:52:16+02:00</time>
      </trkpt>
      <trkpt lat="45.59081" lon="3.14485">
        <ele>549</ele>
        <time>2015-03-29T14:52:16+02:00</time>
      </trkpt>
      <trkpt lat="45.59081" lon="3.14487">
        <ele>548</ele>
        <time>2015-03-29T14:52:16+02:00</time>
      </trkpt>
      <trkpt lat="45.5908" lon="3.14492">
        <ele>548</ele>
        <time>2015-03-29T14:52:16+02:00</time>
      </trkpt>
      <trkpt lat="45.5908" lon="3.14498">
        <ele>547</ele>
        <time>2015-03-29T14:52:16+02:00</time>
      </trkpt>
      <trkpt lat="45.5908" lon="3.14502">
        <ele>547</ele>
        <time>2015-03-29T14:52:16+02:00</time>
      </trkpt>
      <trkpt lat="45.59079" lon="3.14507">
        <ele>547</ele>
        <time>2015-03-29T14:52:16+02:00</time>
      </trkpt>
      <trkpt lat="45.59079" lon="3.1451">
        <ele>547</ele>
        <time>2015-03-29T14:52:16+02:00</time>
      </trkpt>
      <trkpt lat="45.59079" lon="3.14513">
        <ele>547</ele>
        <time>2015-03-29T14:52:16+02:00</time>
      </trkpt>
      <trkpt lat="45.59078" lon="3.14517">
        <ele>546</ele>
        <time>2015-03-29T14:52:16+02:00</time>
      </trkpt>
      <trkpt lat="45.59078" lon="3.14522">
        <ele>546</ele>
        <time>2015-03-29T14:52:16+02:00</time>
      </trkpt>
      <trkpt lat="45.59079" lon="3.14526">
        <ele>546</ele>
        <time>2015-03-29T14:52:16+02:00</time>
      </trkpt>
      <trkpt lat="45.59078" lon="3.14531">
        <ele>546</ele>
        <time>2015-03-29T14:52:16+02:00</time>
      </trkpt>
      <trkpt lat="45.59077" lon="3.14535">
        <ele>546</ele>
        <time>2015-03-29T14:52:16+02:00</time>
      </trkpt>
      <trkpt lat="45.59077" lon="3.14538">
        <ele>545</ele>
        <time>2015-03-29T14:52:16+02:00</time>
      </trkpt>
      <trkpt lat="45.59076" lon="3.14543">
        <ele>545</ele>
        <time>2015-03-29T14:52:16+02:00</time>
      </trkpt>
      <trkpt lat="45.59077" lon="3.14547">
        <ele>545</ele>
        <time>2015-03-29T14:52:16+02:00</time>
      </trkpt>
      <trkpt lat="45.59077" lon="3.1455">
        <ele>545</ele>
        <time>2015-03-29T14:52:16+02:00</time>
      </trkpt>
      <trkpt lat="45.59077" lon="3.14555">
        <ele>546</ele>
        <time>2015-03-29T14:52:16+02:00</time>
      </trkpt>
      <trkpt lat="45.59077" lon="3.14558">
        <ele>545</ele>
        <time>2015-03-29T14:52:16+02:00</time>
      </trkpt>
      <trkpt lat="45.59076" lon="3.14563">
        <ele>545</ele>
        <time>2015-03-29T14:52:16+02:00</time>
      </trkpt>
      <trkpt lat="45.59077" lon="3.14566">
        <ele>545</ele>
        <time>2015-03-29T14:52:16+02:00</time>
      </trkpt>
      <trkpt lat="45.59076" lon="3.1457">
        <ele>544</ele>
        <time>2015-03-29T14:52:16+02:00</time>
      </trkpt>
      <trkpt lat="45.59076" lon="3.14574">
        <ele>544</ele>
        <time>2015-03-29T14:52:16+02:00</time>
      </trkpt>
      <trkpt lat="45.59076" lon="3.14577">
        <ele>544</ele>
        <time>2015-03-29T14:52:16+02:00</time>
      </trkpt>
      <trkpt lat="45.59076" lon="3.14581">
        <ele>544</ele>
        <time>2015-03-29T14:54:24+02:00</time>
      </trkpt>
      <trkpt lat="45.59076" lon="3.14584">
        <ele>543</ele>
        <time>2015-03-29T14:54:24+02:00</time>
      </trkpt>
      <trkpt lat="45.59076" lon="3.14587">
        <ele>543</ele>
        <time>2015-03-29T14:54:24+02:00</time>
      </trkpt>
      <trkpt lat="45.59075" lon="3.1459">
        <ele>543</ele>
        <time>2015-03-29T14:54:24+02:00</time>
      </trkpt>
      <trkpt lat="45.59075" lon="3.14593">
        <ele>543</ele>
        <time>2015-03-29T14:54:24+02:00</time>
      </trkpt>
      <trkpt lat="45.59075" lon="3.14597">
        <ele>543</ele>
        <time>2015-03-29T14:54:24+02:00</time>
      </trkpt>
      <trkpt lat="45.59075" lon="3.146">
        <ele>543</ele>
        <time>2015-03-29T14:54:24+02:00</time>
      </trkpt>
      <trkpt lat="45.59075" lon="3.14603">
        <ele>543</ele>
        <time>2015-03-29T14:54:24+02:00</time>
      </trkpt>
      <trkpt lat="45.59075" lon="3.14607">
        <ele>543</ele>
        <time>2015-03-29T14:54:24+02:00</time>
      </trkpt>
      <trkpt lat="45.59075" lon="3.1461">
        <ele>543</ele>
        <time>2015-03-29T14:54:24+02:00</time>
      </trkpt>
      <trkpt lat="45.59074" lon="3.14614">
        <ele>542</ele>
        <time>2015-03-29T14:54:24+02:00</time>
      </trkpt>
      <trkpt lat="45.59074" lon="3.14617">
        <ele>542</ele>
        <time>2015-03-29T14:54:24+02:00</time>
      </trkpt>
      <trkpt lat="45.59075" lon="3.14621">
        <ele>542</ele>
        <time>2015-03-29T14:54:24+02:00</time>
      </trkpt>
      <trkpt lat="45.59075" lon="3.14624">
        <ele>542</ele>
        <time>2015-03-29T14:54:24+02:00</time>
      </trkpt>
      <trkpt lat="45.59075" lon="3.14628">
        <ele>542</ele>
        <time>2015-03-29T14:54:24+02:00</time>
      </trkpt>
      <trkpt lat="45.59075" lon="3.14631">
        <ele>542</ele>
        <time>2015-03-29T14:54:24+02:00</time>
      </trkpt>
      <trkpt lat="45.59075" lon="3.14635">
        <ele>542</ele>
        <time>2015-03-29T14:54:24+02:00</time>
      </trkpt>
      <trkpt lat="45.59075" lon="3.1464">
        <ele>542</ele>
        <time>2015-03-29T14:54:24+02:00</time>
      </trkpt>
      <trkpt lat="45.59075" lon="3.14643">
        <ele>541</ele>
        <time>2015-03-29T14:54:24+02:00</time>
      </trkpt>
      <trkpt lat="45.59075" lon="3.14646">
        <ele>542</ele>
        <time>2015-03-29T14:54:24+02:00</time>
      </trkpt>
      <trkpt lat="45.59075" lon="3.1465">
        <ele>541</ele>
        <time>2015-03-29T14:54:24+02:00</time>
      </trkpt>
      <trkpt lat="45.59075" lon="3.14654">
        <ele>541</ele>
        <time>2015-03-29T14:54:24+02:00</time>
      </trkpt>
      <trkpt lat="45.59076" lon="3.14657">
        <ele>541</ele>
        <time>2015-03-29T14:54:24+02:00</time>
      </trkpt>
      <trkpt lat="45.59076" lon="3.14661">
        <ele>541</ele>
        <time>2015-03-29T14:54:24+02:00</time>
      </trkpt>
      <trkpt lat="45.59076" lon="3.14665">
        <ele>541</ele>
        <time>2015-03-29T14:54:24+02:00</time>
      </trkpt>
      <trkpt lat="45.59077" lon="3.14668">
        <ele>541</ele>
        <time>2015-03-29T14:54:24+02:00</time>
      </trkpt>
      <trkpt lat="45.59077" lon="3.14671">
        <ele>541</ele>
        <time>2015-03-29T14:54:24+02:00</time>
      </trkpt>
      <trkpt lat="45.59077" lon="3.14675">
        <ele>541</ele>
        <time>2015-03-29T14:54:24+02:00</time>
      </trkpt>
      <trkpt lat="45.59078" lon="3.14679">
        <ele>541</ele>
        <time>2015-03-29T14:54:24+02:00</time>
      </trkpt>
      <trkpt lat="45.59078" lon="3.14683">
        <ele>541</ele>
        <time>2015-03-29T14:54:24+02:00</time>
      </trkpt>
      <trkpt lat="45.59079" lon="3.14687">
        <ele>541</ele>
        <time>2015-03-29T14:54:24+02:00</time>
      </trkpt>
      <trkpt lat="45.59079" lon="3.14691">
        <ele>541</ele>
        <time>2015-03-29T14:54:24+02:00</time>
      </trkpt>
      <trkpt lat="45.5908" lon="3.14695">
        <ele>540</ele>
        <time>2015-03-29T14:54:24+02:00</time>
      </trkpt>
      <trkpt lat="45.59081" lon="3.14699">
        <ele>540</ele>
        <time>2015-03-29T14:54:24+02:00</time>
      </trkpt>
      <trkpt lat="45.59082" lon="3.14703">
        <ele>540</ele>
        <time>2015-03-29T14:54:24+02:00</time>
      </trkpt>
      <trkpt lat="45.59082" lon="3.14707">
        <ele>540</ele>
        <time>2015-03-29T14:54:24+02:00</time>
      </trkpt>
      <trkpt lat="45.59083" lon="3.14711">
        <ele>540</ele>
        <time>2015-03-29T14:54:24+02:00</time>
      </trkpt>
      <trkpt lat="45.59083" lon="3.14717">
        <ele>540</ele>
        <time>2015-03-29T14:54:24+02:00</time>
      </trkpt>
      <trkpt lat="45.59084" lon="3.14721">
        <ele>540</ele>
        <time>2015-03-29T14:54:24+02:00</time>
      </trkpt>
      <trkpt lat="45.59084" lon="3.14724">
        <ele>539</ele>
        <time>2015-03-29T14:54:24+02:00</time>
      </trkpt>
      <trkpt lat="45.59084" lon="3.14729">
        <ele>540</ele>
        <time>2015-03-29T14:54:24+02:00</time>
      </trkpt>
      <trkpt lat="45.59084" lon="3.14733">
        <ele>539</ele>
        <time>2015-03-29T14:54:24+02:00</time>
      </trkpt>
      <trkpt lat="45.59085" lon="3.14737">
        <ele>539</ele>
        <time>2015-03-29T14:54:24+02:00</time>
      </trkpt>
      <trkpt lat="45.59085" lon="3.14742">
        <ele>539</ele>
        <time>2015-03-29T14:54:24+02:00</time>
      </trkpt>
      <trkpt lat="45.59085" lon="3.14746">
        <ele>539</ele>
        <time>2015-03-29T14:54:24+02:00</time>
      </trkpt>
      <trkpt lat="45.59085" lon="3.1475">
        <ele>540</ele>
        <time>2015-03-29T14:54:24+02:00</time>
      </trkpt>
      <trkpt lat="45.59085" lon="3.14754">
        <ele>540</ele>
        <time>2015-03-29T14:54:24+02:00</time>
      </trkpt>
      <trkpt lat="45.59085" lon="3.14757">
        <ele>541</ele>
        <time>2015-03-29T14:54:24+02:00</time>
      </trkpt>
      <trkpt lat="45.59085" lon="3.14761">
        <ele>541</ele>
        <time>2015-03-29T14:54:24+02:00</time>
      </trkpt>
      <trkpt lat="45.59084" lon="3.14765">
        <ele>542</ele>
        <time>2015-03-29T14:54:24+02:00</time>
      </trkpt>
      <trkpt lat="45.59085" lon="3.14768">
        <ele>542</ele>
        <time>2015-03-29T14:54:24+02:00</time>
      </trkpt>
      <trkpt lat="45.59086" lon="3.14775">
        <ele>541</ele>
        <time>2015-03-29T14:54:24+02:00</time>
      </trkpt>
      <trkpt lat="45.59086" lon="3.1478">
        <ele>541</ele>
        <time>2015-03-29T14:54:24+02:00</time>
      </trkpt>
      <trkpt lat="45.59086" lon="3.14785">
        <ele>542</ele>
        <time>2015-03-29T14:54:24+02:00</time>
      </trkpt>
      <trkpt lat="45.59086" lon="3.14791">
        <ele>542</ele>
        <time>2015-03-29T14:54:24+02:00</time>
      </trkpt>
      <trkpt lat="45.59087" lon="3.14796">
        <ele>540</ele>
        <time>2015-03-29T14:54:24+02:00</time>
      </trkpt>
      <trkpt lat="45.59087" lon="3.14801">
        <ele>540</ele>
        <time>2015-03-29T14:54:24+02:00</time>
      </trkpt>
      <trkpt lat="45.59087" lon="3.14806">
        <ele>539</ele>
        <time>2015-03-29T14:54:24+02:00</time>
      </trkpt>
      <trkpt lat="45.59087" lon="3.14812">
        <ele>539</ele>
        <time>2015-03-29T14:54:24+02:00</time>
      </trkpt>
      <trkpt lat="45.59087" lon="3.14816">
        <ele>538</ele>
        <time>2015-03-29T14:54:24+02:00</time>
      </trkpt>
      <trkpt lat="45.59088" lon="3.14821">
        <ele>538</ele>
        <time>2015-03-29T14:54:24+02:00</time>
      </trkpt>
      <trkpt lat="45.59089" lon="3.14825">
        <ele>537</ele>
        <time>2015-03-29T14:54:24+02:00</time>
      </trkpt>
      <trkpt lat="45.5909" lon="3.14828">
        <ele>537</ele>
        <time>2015-03-29T14:54:24+02:00</time>
      </trkpt>
      <trkpt lat="45.59091" lon="3.14833">
        <ele>537</ele>
        <time>2015-03-29T14:54:24+02:00</time>
      </trkpt>
      <trkpt lat="45.5909" lon="3.14838">
        <ele>537</ele>
        <time>2015-03-29T14:54:24+02:00</time>
      </trkpt>
      <trkpt lat="45.5909" lon="3.14841">
        <ele>537</ele>
        <time>2015-03-29T14:54:24+02:00</time>
      </trkpt>
      <trkpt lat="45.59089" lon="3.14845">
        <ele>537</ele>
        <time>2015-03-29T14:54:24+02:00</time>
      </trkpt>
      <trkpt lat="45.5909" lon="3.14851">
        <ele>537</ele>
        <time>2015-03-29T14:54:24+02:00</time>
      </trkpt>
      <trkpt lat="45.59091" lon="3.14858">
        <ele>536</ele>
        <time>2015-03-29T14:54:24+02:00</time>
      </trkpt>
      <trkpt lat="45.59091" lon="3.14862">
        <ele>536</ele>
        <time>2015-03-29T14:54:24+02:00</time>
      </trkpt>
      <trkpt lat="45.5909" lon="3.14867">
        <ele>536</ele>
        <time>2015-03-29T14:54:24+02:00</time>
      </trkpt>
      <trkpt lat="45.59091" lon="3.14872">
        <ele>535</ele>
        <time>2015-03-29T14:54:24+02:00</time>
      </trkpt>
      <trkpt lat="45.59092" lon="3.14877">
        <ele>534</ele>
        <time>2015-03-29T14:54:24+02:00</time>
      </trkpt>
      <trkpt lat="45.59093" lon="3.14882">
        <ele>534</ele>
        <time>2015-03-29T14:54:24+02:00</time>
      </trkpt>
      <trkpt lat="45.59093" lon="3.14887">
        <ele>534</ele>
        <time>2015-03-29T14:54:24+02:00</time>
      </trkpt>
      <trkpt lat="45.59093" lon="3.14891">
        <ele>533</ele>
        <time>2015-03-29T14:54:24+02:00</time>
      </trkpt>
      <trkpt lat="45.59093" lon="3.14896">
        <ele>533</ele>
        <time>2015-03-29T14:54:24+02:00</time>
      </trkpt>
      <trkpt lat="45.59093" lon="3.149">
        <ele>531</ele>
        <time>2015-03-29T14:54:24+02:00</time>
      </trkpt>
      <trkpt lat="45.59093" lon="3.14905">
        <ele>530</ele>
        <time>2015-03-29T14:54:24+02:00</time>
      </trkpt>
      <trkpt lat="45.59094" lon="3.1491">
        <ele>530</ele>
        <time>2015-03-29T14:54:24+02:00</time>
      </trkpt>
      <trkpt lat="45.59094" lon="3.14914">
        <ele>530</ele>
        <time>2015-03-29T14:54:24+02:00</time>
      </trkpt>
      <trkpt lat="45.59094" lon="3.14917">
        <ele>530</ele>
        <time>2015-03-29T14:54:24+02:00</time>
      </trkpt>
      <trkpt lat="45.59095" lon="3.14922">
        <ele>530</ele>
        <time>2015-03-29T14:54:24+02:00</time>
      </trkpt>
      <trkpt lat="45.59096" lon="3.14927">
        <ele>530</ele>
        <time>2015-03-29T14:54:24+02:00</time>
      </trkpt>
      <trkpt lat="45.59097" lon="3.14931">
        <ele>530</ele>
        <time>2015-03-29T14:54:24+02:00</time>
      </trkpt>
      <trkpt lat="45.59098" lon="3.14936">
        <ele>530</ele>
        <time>2015-03-29T14:54:24+02:00</time>
      </trkpt>
      <trkpt lat="45.59099" lon="3.14942">
        <ele>530</ele>
        <time>2015-03-29T14:54:24+02:00</time>
      </trkpt>
      <trkpt lat="45.59101" lon="3.14975">
        <ele>531</ele>
        <time>2015-03-29T14:54:24+02:00</time>
      </trkpt>
      <trkpt lat="45.59102" lon="3.14979">
        <ele>531</ele>
        <time>2015-03-29T14:54:24+02:00</time>
      </trkpt>
      <trkpt lat="45.59102" lon="3.14984">
        <ele>531</ele>
        <time>2015-03-29T14:54:24+02:00</time>
      </trkpt>
      <trkpt lat="45.59102" lon="3.14989">
        <ele>532</ele>
        <time>2015-03-29T14:54:24+02:00</time>
      </trkpt>
      <trkpt lat="45.59102" lon="3.14995">
        <ele>532</ele>
        <time>2015-03-29T14:54:24+02:00</time>
      </trkpt>
      <trkpt lat="45.59102" lon="3.15">
        <ele>532</ele>
        <time>2015-03-29T14:54:24+02:00</time>
      </trkpt>
      <trkpt lat="45.59103" lon="3.15004">
        <ele>532</ele>
        <time>2015-03-29T14:54:24+02:00</time>
      </trkpt>
      <trkpt lat="45.59103" lon="3.15009">
        <ele>532</ele>
        <time>2015-03-29T14:54:24+02:00</time>
      </trkpt>
      <trkpt lat="45.59102" lon="3.15015">
        <ele>532</ele>
        <time>2015-03-29T14:54:24+02:00</time>
      </trkpt>
      <trkpt lat="45.59103" lon="3.1502">
        <ele>532</ele>
        <time>2015-03-29T14:54:24+02:00</time>
      </trkpt>
      <trkpt lat="45.59102" lon="3.15025">
        <ele>532</ele>
        <time>2015-03-29T14:54:24+02:00</time>
      </trkpt>
      <trkpt lat="45.59102" lon="3.1503">
        <ele>532</ele>
        <time>2015-03-29T14:54:24+02:00</time>
      </trkpt>
      <trkpt lat="45.59102" lon="3.15035">
        <ele>532</ele>
        <time>2015-03-29T14:54:24+02:00</time>
      </trkpt>
      <trkpt lat="45.59102" lon="3.1504">
        <ele>532</ele>
        <time>2015-03-29T14:54:24+02:00</time>
      </trkpt>
      <trkpt lat="45.59101" lon="3.15045">
        <ele>532</ele>
        <time>2015-03-29T14:54:24+02:00</time>
      </trkpt>
      <trkpt lat="45.59101" lon="3.15049">
        <ele>533</ele>
        <time>2015-03-29T14:54:24+02:00</time>
      </trkpt>
      <trkpt lat="45.59101" lon="3.15054">
        <ele>532</ele>
        <time>2015-03-29T14:54:24+02:00</time>
      </trkpt>
      <trkpt lat="45.59101" lon="3.15059">
        <ele>532</ele>
        <time>2015-03-29T14:54:24+02:00</time>
      </trkpt>
      <trkpt lat="45.591" lon="3.15064">
        <ele>532</ele>
        <time>2015-03-29T14:54:24+02:00</time>
      </trkpt>
      <trkpt lat="45.591" lon="3.15069">
        <ele>532</ele>
        <time>2015-03-29T14:54:24+02:00</time>
      </trkpt>
      <trkpt lat="45.59103" lon="3.15135">
        <ele>531</ele>
        <time>2015-03-29T14:54:24+02:00</time>
      </trkpt>
      <trkpt lat="45.59104" lon="3.15142">
        <ele>531</ele>
        <time>2015-03-29T14:54:24+02:00</time>
      </trkpt>
      <trkpt lat="45.59103" lon="3.15147">
        <ele>531</ele>
        <time>2015-03-29T14:54:24+02:00</time>
      </trkpt>
      <trkpt lat="45.59103" lon="3.15152">
        <ele>530</ele>
        <time>2015-03-29T14:56:32+02:00</time>
      </trkpt>
      <trkpt lat="45.59103" lon="3.15157">
        <ele>530</ele>
        <time>2015-03-29T14:56:32+02:00</time>
      </trkpt>
      <trkpt lat="45.59103" lon="3.15164">
        <ele>531</ele>
        <time>2015-03-29T14:56:32+02:00</time>
      </trkpt>
      <trkpt lat="45.59103" lon="3.15169">
        <ele>529</ele>
        <time>2015-03-29T14:56:32+02:00</time>
      </trkpt>
      <trkpt lat="45.59103" lon="3.15174">
        <ele>528</ele>
        <time>2015-03-29T14:56:32+02:00</time>
      </trkpt>
      <trkpt lat="45.59104" lon="3.15179">
        <ele>529</ele>
        <time>2015-03-29T14:56:32+02:00</time>
      </trkpt>
      <trkpt lat="45.59104" lon="3.15185">
        <ele>528</ele>
        <time>2015-03-29T14:56:32+02:00</time>
      </trkpt>
      <trkpt lat="45.59105" lon="3.15191">
        <ele>529</ele>
        <time>2015-03-29T14:56:32+02:00</time>
      </trkpt>
      <trkpt lat="45.59105" lon="3.15196">
        <ele>528</ele>
        <time>2015-03-29T14:56:32+02:00</time>
      </trkpt>
      <trkpt lat="45.59105" lon="3.15201">
        <ele>528</ele>
        <time>2015-03-29T14:56:32+02:00</time>
      </trkpt>
      <trkpt lat="45.59105" lon="3.15206">
        <ele>528</ele>
        <time>2015-03-29T14:56:32+02:00</time>
      </trkpt>
      <trkpt lat="45.59107" lon="3.15211">
        <ele>528</ele>
        <time>2015-03-29T14:56:32+02:00</time>
      </trkpt>
      <trkpt lat="45.59108" lon="3.15216">
        <ele>528</ele>
        <time>2015-03-29T14:56:32+02:00</time>
      </trkpt>
      <trkpt lat="45.5911" lon="3.15219">
        <ele>528</ele>
        <time>2015-03-29T14:56:32+02:00</time>
      </trkpt>
      <trkpt lat="45.59113" lon="3.15223">
        <ele>528</ele>
        <time>2015-03-29T14:56:32+02:00</time>
      </trkpt>
      <trkpt lat="45.59113" lon="3.15229">
        <ele>528</ele>
        <time>2015-03-29T14:56:32+02:00</time>
      </trkpt>
      <trkpt lat="45.59114" lon="3.15232">
        <ele>527</ele>
        <time>2015-03-29T14:56:32+02:00</time>
      </trkpt>
      <trkpt lat="45.59115" lon="3.15236">
        <ele>527</ele>
        <time>2015-03-29T14:56:32+02:00</time>
      </trkpt>
      <trkpt lat="45.59115" lon="3.15241">
        <ele>527</ele>
        <time>2015-03-29T14:56:32+02:00</time>
      </trkpt>
      <trkpt lat="45.59116" lon="3.15246">
        <ele>527</ele>
        <time>2015-03-29T14:56:32+02:00</time>
      </trkpt>
      <trkpt lat="45.59117" lon="3.15251">
        <ele>527</ele>
        <time>2015-03-29T14:56:32+02:00</time>
      </trkpt>
      <trkpt lat="45.59118" lon="3.15255">
        <ele>526</ele>
        <time>2015-03-29T14:56:32+02:00</time>
      </trkpt>
      <trkpt lat="45.59119" lon="3.15258">
        <ele>525</ele>
        <time>2015-03-29T14:56:32+02:00</time>
      </trkpt>
      <trkpt lat="45.5912" lon="3.15263">
        <ele>525</ele>
        <time>2015-03-29T14:56:32+02:00</time>
      </trkpt>
      <trkpt lat="45.59121" lon="3.15267">
        <ele>524</ele>
        <time>2015-03-29T14:56:32+02:00</time>
      </trkpt>
      <trkpt lat="45.59121" lon="3.15271">
        <ele>524</ele>
        <time>2015-03-29T14:56:32+02:00</time>
      </trkpt>
      <trkpt lat="45.59123" lon="3.15275">
        <ele>523</ele>
        <time>2015-03-29T14:56:32+02:00</time>
      </trkpt>
      <trkpt lat="45.59124" lon="3.15279">
        <ele>523</ele>
        <time>2015-03-29T14:56:32+02:00</time>
      </trkpt>
      <trkpt lat="45.59126" lon="3.15284">
        <ele>522</ele>
        <time>2015-03-29T14:56:32+02:00</time>
      </trkpt>
      <trkpt lat="45.59127" lon="3.15287">
        <ele>522</ele>
        <time>2015-03-29T14:56:32+02:00</time>
      </trkpt>
      <trkpt lat="45.59128" lon="3.15291">
        <ele>522</ele>
        <time>2015-03-29T14:56:32+02:00</time>
      </trkpt>
      <trkpt lat="45.5913" lon="3.15296">
        <ele>522</ele>
        <time>2015-03-29T14:56:32+02:00</time>
      </trkpt>
      <trkpt lat="45.59131" lon="3.15299">
        <ele>522</ele>
        <time>2015-03-29T14:56:32+02:00</time>
      </trkpt>
      <trkpt lat="45.59133" lon="3.15303">
        <ele>522</ele>
        <time>2015-03-29T14:56:32+02:00</time>
      </trkpt>
      <trkpt lat="45.59135" lon="3.15305">
        <ele>522</ele>
        <time>2015-03-29T14:56:32+02:00</time>
      </trkpt>
      <trkpt lat="45.59138" lon="3.15308">
        <ele>521</ele>
        <time>2015-03-29T14:56:32+02:00</time>
      </trkpt>
      <trkpt lat="45.5914" lon="3.15312">
        <ele>520</ele>
        <time>2015-03-29T14:56:32+02:00</time>
      </trkpt>
      <trkpt lat="45.59143" lon="3.15314">
        <ele>519</ele>
        <time>2015-03-29T14:56:32+02:00</time>
      </trkpt>
      <trkpt lat="45.59145" lon="3.15316">
        <ele>519</ele>
        <time>2015-03-29T14:56:32+02:00</time>
      </trkpt>
      <trkpt lat="45.59148" lon="3.15319">
        <ele>518</ele>
        <time>2015-03-29T14:56:32+02:00</time>
      </trkpt>
      <trkpt lat="45.59151" lon="3.15321">
        <ele>518</ele>
        <time>2015-03-29T14:56:32+02:00</time>
      </trkpt>
      <trkpt lat="45.59154" lon="3.15323">
        <ele>517</ele>
        <time>2015-03-29T14:56:32+02:00</time>
      </trkpt>
      <trkpt lat="45.59156" lon="3.15325">
        <ele>517</ele>
        <time>2015-03-29T14:56:32+02:00</time>
      </trkpt>
      <trkpt lat="45.59159" lon="3.15327">
        <ele>517</ele>
        <time>2015-03-29T14:56:32+02:00</time>
      </trkpt>
      <trkpt lat="45.59162" lon="3.15329">
        <ele>517</ele>
        <time>2015-03-29T14:56:32+02:00</time>
      </trkpt>
      <trkpt lat="45.59165" lon="3.1533">
        <ele>517</ele>
        <time>2015-03-29T14:56:32+02:00</time>
      </trkpt>
      <trkpt lat="45.59168" lon="3.15333">
        <ele>517</ele>
        <time>2015-03-29T14:56:32+02:00</time>
      </trkpt>
      <trkpt lat="45.5917" lon="3.15335">
        <ele>516</ele>
        <time>2015-03-29T14:56:32+02:00</time>
      </trkpt>
      <trkpt lat="45.59173" lon="3.15336">
        <ele>516</ele>
        <time>2015-03-29T14:56:32+02:00</time>
      </trkpt>
      <trkpt lat="45.59176" lon="3.15337">
        <ele>516</ele>
        <time>2015-03-29T14:56:32+02:00</time>
      </trkpt>
      <trkpt lat="45.59179" lon="3.15339">
        <ele>516</ele>
        <time>2015-03-29T14:56:32+02:00</time>
      </trkpt>
      <trkpt lat="45.59181" lon="3.15341">
        <ele>516</ele>
        <time>2015-03-29T14:56:32+02:00</time>
      </trkpt>
      <trkpt lat="45.59184" lon="3.15343">
        <ele>516</ele>
        <time>2015-03-29T14:56:32+02:00</time>
      </trkpt>
      <trkpt lat="45.59186" lon="3.15345">
        <ele>517</ele>
        <time>2015-03-29T14:56:32+02:00</time>
      </trkpt>
      <trkpt lat="45.59189" lon="3.15348">
        <ele>516</ele>
        <time>2015-03-29T14:56:32+02:00</time>
      </trkpt>
      <trkpt lat="45.59192" lon="3.1535">
        <ele>515</ele>
        <time>2015-03-29T14:56:32+02:00</time>
      </trkpt>
      <trkpt lat="45.59194" lon="3.15352">
        <ele>515</ele>
        <time>2015-03-29T14:56:32+02:00</time>
      </trkpt>
      <trkpt lat="45.59198" lon="3.15355">
        <ele>514</ele>
        <time>2015-03-29T14:56:32+02:00</time>
      </trkpt>
      <trkpt lat="45.59201" lon="3.15357">
        <ele>514</ele>
        <time>2015-03-29T14:56:32+02:00</time>
      </trkpt>
      <trkpt lat="45.59204" lon="3.15358">
        <ele>513</ele>
        <time>2015-03-29T14:56:32+02:00</time>
      </trkpt>
      <trkpt lat="45.59206" lon="3.1536">
        <ele>513</ele>
        <time>2015-03-29T14:56:32+02:00</time>
      </trkpt>
      <trkpt lat="45.59208" lon="3.15362">
        <ele>513</ele>
        <time>2015-03-29T14:56:32+02:00</time>
      </trkpt>
      <trkpt lat="45.59211" lon="3.15365">
        <ele>514</ele>
        <time>2015-03-29T14:56:32+02:00</time>
      </trkpt>
      <trkpt lat="45.59212" lon="3.15369">
        <ele>513</ele>
        <time>2015-03-29T14:56:32+02:00</time>
      </trkpt>
      <trkpt lat="45.59214" lon="3.15372">
        <ele>514</ele>
        <time>2015-03-29T14:56:32+02:00</time>
      </trkpt>
      <trkpt lat="45.59216" lon="3.15375">
        <ele>513</ele>
        <time>2015-03-29T14:56:32+02:00</time>
      </trkpt>
      <trkpt lat="45.59218" lon="3.15378">
        <ele>514</ele>
        <time>2015-03-29T14:56:32+02:00</time>
      </trkpt>
      <trkpt lat="45.5922" lon="3.15381">
        <ele>514</ele>
        <time>2015-03-29T14:56:32+02:00</time>
      </trkpt>
      <trkpt lat="45.59223" lon="3.15384">
        <ele>515</ele>
        <time>2015-03-29T14:56:32+02:00</time>
      </trkpt>
      <trkpt lat="45.59225" lon="3.15389">
        <ele>515</ele>
        <time>2015-03-29T14:56:32+02:00</time>
      </trkpt>
      <trkpt lat="45.59227" lon="3.15392">
        <ele>515</ele>
        <time>2015-03-29T14:56:32+02:00</time>
      </trkpt>
      <trkpt lat="45.5923" lon="3.15394">
        <ele>515</ele>
        <time>2015-03-29T14:56:32+02:00</time>
      </trkpt>
      <trkpt lat="45.59233" lon="3.15397">
        <ele>514</ele>
        <time>2015-03-29T14:56:32+02:00</time>
      </trkpt>
      <trkpt lat="45.59237" lon="3.15398">
        <ele>513</ele>
        <time>2015-03-29T14:56:32+02:00</time>
      </trkpt>
      <trkpt lat="45.59239" lon="3.154">
        <ele>513</ele>
        <time>2015-03-29T14:56:32+02:00</time>
      </trkpt>
      <trkpt lat="45.59242" lon="3.15403">
        <ele>514</ele>
        <time>2015-03-29T14:56:32+02:00</time>
      </trkpt>
      <trkpt lat="45.59246" lon="3.15406">
        <ele>514</ele>
        <time>2015-03-29T14:56:32+02:00</time>
      </trkpt>
      <trkpt lat="45.59249" lon="3.15407">
        <ele>514</ele>
        <time>2015-03-29T14:56:32+02:00</time>
      </trkpt>
      <trkpt lat="45.59253" lon="3.1541">
        <ele>515</ele>
        <time>2015-03-29T14:56:32+02:00</time>
      </trkpt>
      <trkpt lat="45.59255" lon="3.15412">
        <ele>515</ele>
        <time>2015-03-29T14:56:32+02:00</time>
      </trkpt>
      <trkpt lat="45.59258" lon="3.15415">
        <ele>515</ele>
        <time>2015-03-29T14:56:32+02:00</time>
      </trkpt>
      <trkpt lat="45.5926" lon="3.15419">
        <ele>515</ele>
        <time>2015-03-29T14:56:32+02:00</time>
      </trkpt>
      <trkpt lat="45.59263" lon="3.15422">
        <ele>516</ele>
        <time>2015-03-29T14:56:32+02:00</time>
      </trkpt>
      <trkpt lat="45.59265" lon="3.15425">
        <ele>515</ele>
        <time>2015-03-29T14:56:32+02:00</time>
      </trkpt>
      <trkpt lat="45.59267" lon="3.15429">
        <ele>516</ele>
        <time>2015-03-29T14:56:32+02:00</time>
      </trkpt>
      <trkpt lat="45.5927" lon="3.15432">
        <ele>516</ele>
        <time>2015-03-29T14:56:32+02:00</time>
      </trkpt>
      <trkpt lat="45.59273" lon="3.15435">
        <ele>516</ele>
        <time>2015-03-29T14:56:32+02:00</time>
      </trkpt>
      <trkpt lat="45.59276" lon="3.15438">
        <ele>516</ele>
        <time>2015-03-29T14:56:32+02:00</time>
      </trkpt>
      <trkpt lat="45.59278" lon="3.15443">
        <ele>516</ele>
        <time>2015-03-29T14:56:32+02:00</time>
      </trkpt>
      <trkpt lat="45.59279" lon="3.15446">
        <ele>517</ele>
        <time>2015-03-29T14:56:32+02:00</time>
      </trkpt>
      <trkpt lat="45.5928" lon="3.1545">
        <ele>519</ele>
        <time>2015-03-29T14:56:32+02:00</time>
      </trkpt>
      <trkpt lat="45.59282" lon="3.15455">
        <ele>521</ele>
        <time>2015-03-29T14:56:32+02:00</time>
      </trkpt>
      <trkpt lat="45.59284" lon="3.15459">
        <ele>521</ele>
        <time>2015-03-29T14:56:32+02:00</time>
      </trkpt>
      <trkpt lat="45.59286" lon="3.15464">
        <ele>521</ele>
        <time>2015-03-29T14:56:32+02:00</time>
      </trkpt>
      <trkpt lat="45.59288" lon="3.15469">
        <ele>522</ele>
        <time>2015-03-29T14:56:32+02:00</time>
      </trkpt>
      <trkpt lat="45.59291" lon="3.15473">
        <ele>523</ele>
        <time>2015-03-29T14:56:32+02:00</time>
      </trkpt>
      <trkpt lat="45.59292" lon="3.15477">
        <ele>523</ele>
        <time>2015-03-29T14:56:32+02:00</time>
      </trkpt>
      <trkpt lat="45.59295" lon="3.15482">
        <ele>523</ele>
        <time>2015-03-29T14:56:32+02:00</time>
      </trkpt>
      <trkpt lat="45.59298" lon="3.15484">
        <ele>522</ele>
        <time>2015-03-29T14:56:32+02:00</time>
      </trkpt>
      <trkpt lat="45.593" lon="3.15488">
        <ele>522</ele>
        <time>2015-03-29T14:56:32+02:00</time>
      </trkpt>
      <trkpt lat="45.59302" lon="3.15493">
        <ele>523</ele>
        <time>2015-03-29T14:56:32+02:00</time>
      </trkpt>
      <trkpt lat="45.59304" lon="3.15496">
        <ele>523</ele>
        <time>2015-03-29T14:56:32+02:00</time>
      </trkpt>
      <trkpt lat="45.59307" lon="3.15499">
        <ele>522</ele>
        <time>2015-03-29T14:56:32+02:00</time>
      </trkpt>
      <trkpt lat="45.5931" lon="3.15502">
        <ele>522</ele>
        <time>2015-03-29T14:56:32+02:00</time>
      </trkpt>
      <trkpt lat="45.59313" lon="3.15505">
        <ele>522</ele>
        <time>2015-03-29T14:56:32+02:00</time>
      </trkpt>
      <trkpt lat="45.59315" lon="3.15508">
        <ele>522</ele>
        <time>2015-03-29T14:56:32+02:00</time>
      </trkpt>
      <trkpt lat="45.59318" lon="3.15511">
        <ele>522</ele>
        <time>2015-03-29T14:56:32+02:00</time>
      </trkpt>
      <trkpt lat="45.59321" lon="3.15514">
        <ele>522</ele>
        <time>2015-03-29T14:56:32+02:00</time>
      </trkpt>
      <trkpt lat="45.59323" lon="3.15518">
        <ele>522</ele>
        <time>2015-03-29T14:56:32+02:00</time>
      </trkpt>
      <trkpt lat="45.59325" lon="3.15522">
        <ele>523</ele>
        <time>2015-03-29T14:56:32+02:00</time>
      </trkpt>
      <trkpt lat="45.59327" lon="3.15524">
        <ele>523</ele>
        <time>2015-03-29T14:56:32+02:00</time>
      </trkpt>
      <trkpt lat="45.5933" lon="3.15528">
        <ele>523</ele>
        <time>2015-03-29T14:56:32+02:00</time>
      </trkpt>
      <trkpt lat="45.59333" lon="3.1553">
        <ele>523</ele>
        <time>2015-03-29T14:56:32+02:00</time>
      </trkpt>
      <trkpt lat="45.59336" lon="3.15533">
        <ele>523</ele>
        <time>2015-03-29T14:56:32+02:00</time>
      </trkpt>
      <trkpt lat="45.59338" lon="3.15535">
        <ele>523</ele>
        <time>2015-03-29T14:56:32+02:00</time>
      </trkpt>
      <trkpt lat="45.59339" lon="3.15537">
        <ele>523</ele>
        <time>2015-03-29T14:56:32+02:00</time>
      </trkpt>
      <trkpt lat="45.59342" lon="3.15539">
        <ele>523</ele>
        <time>2015-03-29T14:56:32+02:00</time>
      </trkpt>
      <trkpt lat="45.59344" lon="3.15542">
        <ele>523</ele>
        <time>2015-03-29T14:56:32+02:00</time>
      </trkpt>
      <trkpt lat="45.59346" lon="3.15545">
        <ele>523</ele>
        <time>2015-03-29T14:56:32+02:00</time>
      </trkpt>
      <trkpt lat="45.59349" lon="3.15548">
        <ele>523</ele>
        <time>2015-03-29T14:56:32+02:00</time>
      </trkpt>
      <trkpt lat="45.5935" lon="3.15555">
        <ele>524</ele>
        <time>2015-03-29T14:56:32+02:00</time>
      </trkpt>
      <trkpt lat="45.59351" lon="3.15558">
        <ele>525</ele>
        <time>2015-03-29T14:56:32+02:00</time>
      </trkpt>
      <trkpt lat="45.59353" lon="3.15561">
        <ele>524</ele>
        <time>2015-03-29T14:56:32+02:00</time>
      </trkpt>
      <trkpt lat="45.59354" lon="3.15566">
        <ele>525</ele>
        <time>2015-03-29T14:56:32+02:00</time>
      </trkpt>
      <trkpt lat="45.59356" lon="3.15569">
        <ele>525</ele>
        <time>2015-03-29T14:56:32+02:00</time>
      </trkpt>
      <trkpt lat="45.59357" lon="3.15573">
        <ele>525</ele>
        <time>2015-03-29T14:58:40+02:00</time>
      </trkpt>
      <trkpt lat="45.59359" lon="3.15578">
        <ele>527</ele>
        <time>2015-03-29T14:58:40+02:00</time>
      </trkpt>
      <trkpt lat="45.59361" lon="3.15582">
        <ele>526</ele>
        <time>2015-03-29T14:58:40+02:00</time>
      </trkpt>
      <trkpt lat="45.59362" lon="3.15587">
        <ele>527</ele>
        <time>2015-03-29T14:58:40+02:00</time>
      </trkpt>
      <trkpt lat="45.59363" lon="3.15591">
        <ele>527</ele>
        <time>2015-03-29T14:58:40+02:00</time>
      </trkpt>
      <trkpt lat="45.59364" lon="3.15595">
        <ele>527</ele>
        <time>2015-03-29T14:58:40+02:00</time>
      </trkpt>
      <trkpt lat="45.59365" lon="3.156">
        <ele>527</ele>
        <time>2015-03-29T14:58:40+02:00</time>
      </trkpt>
      <trkpt lat="45.59366" lon="3.15603">
        <ele>528</ele>
        <time>2015-03-29T14:58:40+02:00</time>
      </trkpt>
      <trkpt lat="45.59367" lon="3.15608">
        <ele>528</ele>
        <time>2015-03-29T14:58:40+02:00</time>
      </trkpt>
      <trkpt lat="45.59368" lon="3.15613">
        <ele>529</ele>
        <time>2015-03-29T14:58:40+02:00</time>
      </trkpt>
      <trkpt lat="45.59369" lon="3.15618">
        <ele>529</ele>
        <time>2015-03-29T14:58:40+02:00</time>
      </trkpt>
      <trkpt lat="45.59371" lon="3.15623">
        <ele>529</ele>
        <time>2015-03-29T14:58:40+02:00</time>
      </trkpt>
      <trkpt lat="45.59372" lon="3.15628">
        <ele>529</ele>
        <time>2015-03-29T14:58:40+02:00</time>
      </trkpt>
      <trkpt lat="45.59373" lon="3.15632">
        <ele>530</ele>
        <time>2015-03-29T14:58:40+02:00</time>
      </trkpt>
      <trkpt lat="45.59375" lon="3.15637">
        <ele>529</ele>
        <time>2015-03-29T14:58:40+02:00</time>
      </trkpt>
      <trkpt lat="45.59376" lon="3.15642">
        <ele>529</ele>
        <time>2015-03-29T14:58:40+02:00</time>
      </trkpt>
      <trkpt lat="45.59377" lon="3.15647">
        <ele>529</ele>
        <time>2015-03-29T14:58:40+02:00</time>
      </trkpt>
      <trkpt lat="45.59379" lon="3.15652">
        <ele>529</ele>
        <time>2015-03-29T14:58:40+02:00</time>
      </trkpt>
      <trkpt lat="45.5938" lon="3.15656">
        <ele>529</ele>
        <time>2015-03-29T14:58:40+02:00</time>
      </trkpt>
      <trkpt lat="45.59381" lon="3.15661">
        <ele>529</ele>
        <time>2015-03-29T14:58:40+02:00</time>
      </trkpt>
      <trkpt lat="45.59383" lon="3.15664">
        <ele>529</ele>
        <time>2015-03-29T14:58:40+02:00</time>
      </trkpt>
      <trkpt lat="45.59383" lon="3.15669">
        <ele>531</ele>
        <time>2015-03-29T14:58:40+02:00</time>
      </trkpt>
      <trkpt lat="45.59385" lon="3.15674">
        <ele>531</ele>
        <time>2015-03-29T14:58:40+02:00</time>
      </trkpt>
      <trkpt lat="45.59386" lon="3.15679">
        <ele>532</ele>
        <time>2015-03-29T14:58:40+02:00</time>
      </trkpt>
      <trkpt lat="45.59388" lon="3.15684">
        <ele>532</ele>
        <time>2015-03-29T14:58:40+02:00</time>
      </trkpt>
      <trkpt lat="45.59394" lon="3.15704">
        <ele>532</ele>
        <time>2015-03-29T14:58:40+02:00</time>
      </trkpt>
      <trkpt lat="45.59396" lon="3.15708">
        <ele>532</ele>
        <time>2015-03-29T14:58:40+02:00</time>
      </trkpt>
      <trkpt lat="45.59398" lon="3.15713">
        <ele>532</ele>
        <time>2015-03-29T14:58:40+02:00</time>
      </trkpt>
      <trkpt lat="45.594" lon="3.15716">
        <ele>533</ele>
        <time>2015-03-29T14:58:40+02:00</time>
      </trkpt>
      <trkpt lat="45.59402" lon="3.1572">
        <ele>533</ele>
        <time>2015-03-29T14:58:40+02:00</time>
      </trkpt>
      <trkpt lat="45.59404" lon="3.15724">
        <ele>533</ele>
        <time>2015-03-29T14:58:40+02:00</time>
      </trkpt>
      <trkpt lat="45.59406" lon="3.15728">
        <ele>534</ele>
        <time>2015-03-29T14:58:40+02:00</time>
      </trkpt>
      <trkpt lat="45.59408" lon="3.15732">
        <ele>535</ele>
        <time>2015-03-29T14:58:40+02:00</time>
      </trkpt>
      <trkpt lat="45.5941" lon="3.15736">
        <ele>536</ele>
        <time>2015-03-29T14:58:40+02:00</time>
      </trkpt>
      <trkpt lat="45.59413" lon="3.1574">
        <ele>536</ele>
        <time>2015-03-29T14:58:40+02:00</time>
      </trkpt>
      <trkpt lat="45.59415" lon="3.15744">
        <ele>536</ele>
        <time>2015-03-29T14:58:40+02:00</time>
      </trkpt>
      <trkpt lat="45.59417" lon="3.15747">
        <ele>537</ele>
        <time>2015-03-29T14:58:40+02:00</time>
      </trkpt>
      <trkpt lat="45.59419" lon="3.15752">
        <ele>537</ele>
        <time>2015-03-29T14:58:40+02:00</time>
      </trkpt>
      <trkpt lat="45.59421" lon="3.15757">
        <ele>537</ele>
        <time>2015-03-29T14:58:40+02:00</time>
      </trkpt>
      <trkpt lat="45.59423" lon="3.1576">
        <ele>537</ele>
        <time>2015-03-29T14:58:40+02:00</time>
      </trkpt>
      <trkpt lat="45.59425" lon="3.15772">
        <ele>537</ele>
        <time>2015-03-29T14:58:40+02:00</time>
      </trkpt>
      <trkpt lat="45.59428" lon="3.1578">
        <ele>537</ele>
        <time>2015-03-29T14:58:40+02:00</time>
      </trkpt>
      <trkpt lat="45.59429" lon="3.15785">
        <ele>537</ele>
        <time>2015-03-29T14:58:40+02:00</time>
      </trkpt>
      <trkpt lat="45.5943" lon="3.15789">
        <ele>537</ele>
        <time>2015-03-29T14:58:40+02:00</time>
      </trkpt>
      <trkpt lat="45.59432" lon="3.15794">
        <ele>537</ele>
        <time>2015-03-29T14:58:40+02:00</time>
      </trkpt>
      <trkpt lat="45.59434" lon="3.15798">
        <ele>537</ele>
        <time>2015-03-29T14:58:40+02:00</time>
      </trkpt>
      <trkpt lat="45.59436" lon="3.15803">
        <ele>537</ele>
        <time>2015-03-29T14:58:40+02:00</time>
      </trkpt>
      <trkpt lat="45.59437" lon="3.15809">
        <ele>536</ele>
        <time>2015-03-29T14:58:40+02:00</time>
      </trkpt>
      <trkpt lat="45.59438" lon="3.15815">
        <ele>536</ele>
        <time>2015-03-29T14:58:40+02:00</time>
      </trkpt>
      <trkpt lat="45.59439" lon="3.15821">
        <ele>536</ele>
        <time>2015-03-29T14:58:40+02:00</time>
      </trkpt>
      <trkpt lat="45.5944" lon="3.15824">
        <ele>536</ele>
        <time>2015-03-29T14:58:40+02:00</time>
      </trkpt>
      <trkpt lat="45.5945" lon="3.15862">
        <ele>535</ele>
        <time>2015-03-29T14:58:40+02:00</time>
      </trkpt>
      <trkpt lat="45.59452" lon="3.15866">
        <ele>536</ele>
        <time>2015-03-29T14:58:40+02:00</time>
      </trkpt>
      <trkpt lat="45.59453" lon="3.1587">
        <ele>536</ele>
        <time>2015-03-29T14:58:40+02:00</time>
      </trkpt>
      <trkpt lat="45.59454" lon="3.15876">
        <ele>536</ele>
        <time>2015-03-29T14:58:40+02:00</time>
      </trkpt>
      <trkpt lat="45.59455" lon="3.15881">
        <ele>536</ele>
        <time>2015-03-29T14:58:40+02:00</time>
      </trkpt>
      <trkpt lat="45.59456" lon="3.15887">
        <ele>535</ele>
        <time>2015-03-29T14:58:40+02:00</time>
      </trkpt>
      <trkpt lat="45.59457" lon="3.15892">
        <ele>536</ele>
        <time>2015-03-29T14:58:40+02:00</time>
      </trkpt>
      <trkpt lat="45.59458" lon="3.15896">
        <ele>537</ele>
        <time>2015-03-29T14:58:40+02:00</time>
      </trkpt>
      <trkpt lat="45.5946" lon="3.15902">
        <ele>537</ele>
        <time>2015-03-29T14:58:40+02:00</time>
      </trkpt>
      <trkpt lat="45.5946" lon="3.15907">
        <ele>537</ele>
        <time>2015-03-29T14:58:40+02:00</time>
      </trkpt>
      <trkpt lat="45.59462" lon="3.15912">
        <ele>536</ele>
        <time>2015-03-29T14:58:40+02:00</time>
      </trkpt>
      <trkpt lat="45.59463" lon="3.15916">
        <ele>537</ele>
        <time>2015-03-29T14:58:40+02:00</time>
      </trkpt>
      <trkpt lat="45.59464" lon="3.1592">
        <ele>537</ele>
        <time>2015-03-29T14:58:40+02:00</time>
      </trkpt>
      <trkpt lat="45.59468" lon="3.15924">
        <ele>535</ele>
        <time>2015-03-29T14:58:40+02:00</time>
      </trkpt>
      <trkpt lat="45.59469" lon="3.1593">
        <ele>535</ele>
        <time>2015-03-29T14:58:40+02:00</time>
      </trkpt>
      <trkpt lat="45.5947" lon="3.15936">
        <ele>535</ele>
        <time>2015-03-29T14:58:40+02:00</time>
      </trkpt>
      <trkpt lat="45.59472" lon="3.15942">
        <ele>535</ele>
        <time>2015-03-29T14:58:40+02:00</time>
      </trkpt>
      <trkpt lat="45.59473" lon="3.15946">
        <ele>535</ele>
        <time>2015-03-29T14:58:40+02:00</time>
      </trkpt>
      <trkpt lat="45.59477" lon="3.15955">
        <ele>534</ele>
        <time>2015-03-29T14:58:40+02:00</time>
      </trkpt>
      <trkpt lat="45.59478" lon="3.1596">
        <ele>533</ele>
        <time>2015-03-29T14:58:40+02:00</time>
      </trkpt>
      <trkpt lat="45.59481" lon="3.15964">
        <ele>533</ele>
        <time>2015-03-29T14:58:40+02:00</time>
      </trkpt>
      <trkpt lat="45.59482" lon="3.1597">
        <ele>532</ele>
        <time>2015-03-29T14:58:40+02:00</time>
      </trkpt>
      <trkpt lat="45.59484" lon="3.15975">
        <ele>532</ele>
        <time>2015-03-29T14:58:40+02:00</time>
      </trkpt>
      <trkpt lat="45.59483" lon="3.1598">
        <ele>534</ele>
        <time>2015-03-29T14:58:40+02:00</time>
      </trkpt>
      <trkpt lat="45.59484" lon="3.15984">
        <ele>534</ele>
        <time>2015-03-29T14:58:40+02:00</time>
      </trkpt>
      <trkpt lat="45.59486" lon="3.15989">
        <ele>534</ele>
        <time>2015-03-29T14:58:40+02:00</time>
      </trkpt>
      <trkpt lat="45.59487" lon="3.15993">
        <ele>534</ele>
        <time>2015-03-29T14:58:40+02:00</time>
      </trkpt>
      <trkpt lat="45.59488" lon="3.15998">
        <ele>534</ele>
        <time>2015-03-29T14:58:40+02:00</time>
      </trkpt>
      <trkpt lat="45.5949" lon="3.16001">
        <ele>534</ele>
        <time>2015-03-29T14:58:40+02:00</time>
      </trkpt>
      <trkpt lat="45.5949" lon="3.16007">
        <ele>534</ele>
        <time>2015-03-29T14:58:40+02:00</time>
      </trkpt>
      <trkpt lat="45.59491" lon="3.16013">
        <ele>536</ele>
        <time>2015-03-29T14:58:40+02:00</time>
      </trkpt>
      <trkpt lat="45.59493" lon="3.16016">
        <ele>537</ele>
        <time>2015-03-29T14:58:40+02:00</time>
      </trkpt>
      <trkpt lat="45.59494" lon="3.16021">
        <ele>537</ele>
        <time>2015-03-29T14:58:40+02:00</time>
      </trkpt>
      <trkpt lat="45.59495" lon="3.16026">
        <ele>537</ele>
        <time>2015-03-29T14:58:40+02:00</time>
      </trkpt>
      <trkpt lat="45.59496" lon="3.16031">
        <ele>537</ele>
        <time>2015-03-29T14:58:40+02:00</time>
      </trkpt>
      <trkpt lat="45.59498" lon="3.16036">
        <ele>537</ele>
        <time>2015-03-29T14:58:40+02:00</time>
      </trkpt>
      <trkpt lat="45.59499" lon="3.16041">
        <ele>537</ele>
        <time>2015-03-29T14:58:40+02:00</time>
      </trkpt>
      <trkpt lat="45.595" lon="3.16046">
        <ele>536</ele>
        <time>2015-03-29T14:58:40+02:00</time>
      </trkpt>
      <trkpt lat="45.59501" lon="3.1605">
        <ele>536</ele>
        <time>2015-03-29T14:58:40+02:00</time>
      </trkpt>
      <trkpt lat="45.59503" lon="3.16056">
        <ele>535</ele>
        <time>2015-03-29T14:58:40+02:00</time>
      </trkpt>
      <trkpt lat="45.59505" lon="3.16062">
        <ele>534</ele>
        <time>2015-03-29T14:58:40+02:00</time>
      </trkpt>
      <trkpt lat="45.59507" lon="3.16067">
        <ele>533</ele>
        <time>2015-03-29T14:58:40+02:00</time>
      </trkpt>
      <trkpt lat="45.59509" lon="3.16071">
        <ele>533</ele>
        <time>2015-03-29T14:58:40+02:00</time>
      </trkpt>
      <trkpt lat="45.59511" lon="3.16075">
        <ele>533</ele>
        <time>2015-03-29T14:58:40+02:00</time>
      </trkpt>
      <trkpt lat="45.59513" lon="3.1608">
        <ele>534</ele>
        <time>2015-03-29T14:58:40+02:00</time>
      </trkpt>
      <trkpt lat="45.59515" lon="3.16085">
        <ele>534</ele>
        <time>2015-03-29T14:58:40+02:00</time>
      </trkpt>
      <trkpt lat="45.59517" lon="3.1609">
        <ele>534</ele>
        <time>2015-03-29T14:58:40+02:00</time>
      </trkpt>
      <trkpt lat="45.59518" lon="3.16094">
        <ele>534</ele>
        <time>2015-03-29T14:58:40+02:00</time>
      </trkpt>
      <trkpt lat="45.5952" lon="3.16099">
        <ele>533</ele>
        <time>2015-03-29T14:58:40+02:00</time>
      </trkpt>
      <trkpt lat="45.59521" lon="3.16103">
        <ele>533</ele>
        <time>2015-03-29T14:58:40+02:00</time>
      </trkpt>
      <trkpt lat="45.59522" lon="3.16107">
        <ele>533</ele>
        <time>2015-03-29T14:58:40+02:00</time>
      </trkpt>
      <trkpt lat="45.59523" lon="3.16112">
        <ele>533</ele>
        <time>2015-03-29T14:58:40+02:00</time>
      </trkpt>
      <trkpt lat="45.59524" lon="3.16118">
        <ele>533</ele>
        <time>2015-03-29T14:58:40+02:00</time>
      </trkpt>
      <trkpt lat="45.59525" lon="3.16124">
        <ele>532</ele>
        <time>2015-03-29T14:58:40+02:00</time>
      </trkpt>
      <trkpt lat="45.59526" lon="3.16129">
        <ele>532</ele>
        <time>2015-03-29T14:58:40+02:00</time>
      </trkpt>
      <trkpt lat="45.59528" lon="3.16134">
        <ele>532</ele>
        <time>2015-03-29T14:58:40+02:00</time>
      </trkpt>
      <trkpt lat="45.59529" lon="3.16139">
        <ele>532</ele>
        <time>2015-03-29T14:58:40+02:00</time>
      </trkpt>
      <trkpt lat="45.5953" lon="3.16145">
        <ele>532</ele>
        <time>2015-03-29T14:58:40+02:00</time>
      </trkpt>
      <trkpt lat="45.59531" lon="3.16149">
        <ele>532</ele>
        <time>2015-03-29T14:58:40+02:00</time>
      </trkpt>
      <trkpt lat="45.59532" lon="3.16154">
        <ele>533</ele>
        <time>2015-03-29T14:58:40+02:00</time>
      </trkpt>
      <trkpt lat="45.59534" lon="3.1616">
        <ele>532</ele>
        <time>2015-03-29T14:58:40+02:00</time>
      </trkpt>
      <trkpt lat="45.59536" lon="3.16166">
        <ele>531</ele>
        <time>2015-03-29T14:58:40+02:00</time>
      </trkpt>
      <trkpt lat="45.59537" lon="3.16171">
        <ele>532</ele>
        <time>2015-03-29T14:58:40+02:00</time>
      </trkpt>
      <trkpt lat="45.59539" lon="3.16175">
        <ele>531</ele>
        <time>2015-03-29T14:58:40+02:00</time>
      </trkpt>
      <trkpt lat="45.59541" lon="3.1618">
        <ele>532</ele>
        <time>2015-03-29T14:58:40+02:00</time>
      </trkpt>
      <trkpt lat="45.59542" lon="3.16185">
        <ele>532</ele>
        <time>2015-03-29T15:00:48+02:00</time>
      </trkpt>
      <trkpt lat="45.59544" lon="3.16191">
        <ele>532</ele>
        <time>2015-03-29T15:00:48+02:00</time>
      </trkpt>
      <trkpt lat="45.59546" lon="3.16195">
        <ele>532</ele>
        <time>2015-03-29T15:00:48+02:00</time>
      </trkpt>
      <trkpt lat="45.59546" lon="3.16201">
        <ele>533</ele>
        <time>2015-03-29T15:00:48+02:00</time>
      </trkpt>
      <trkpt lat="45.59547" lon="3.16208">
        <ele>532</ele>
        <time>2015-03-29T15:00:48+02:00</time>
      </trkpt>
      <trkpt lat="45.59548" lon="3.16213">
        <ele>532</ele>
        <time>2015-03-29T15:00:48+02:00</time>
      </trkpt>
      <trkpt lat="45.59549" lon="3.16218">
        <ele>532</ele>
        <time>2015-03-29T15:00:48+02:00</time>
      </trkpt>
      <trkpt lat="45.59551" lon="3.16222">
        <ele>532</ele>
        <time>2015-03-29T15:00:48+02:00</time>
      </trkpt>
      <trkpt lat="45.59552" lon="3.16228">
        <ele>532</ele>
        <time>2015-03-29T15:00:48+02:00</time>
      </trkpt>
      <trkpt lat="45.59553" lon="3.16233">
        <ele>533</ele>
        <time>2015-03-29T15:00:48+02:00</time>
      </trkpt>
      <trkpt lat="45.59554" lon="3.1624">
        <ele>532</ele>
        <time>2015-03-29T15:00:48+02:00</time>
      </trkpt>
      <trkpt lat="45.59555" lon="3.16245">
        <ele>532</ele>
        <time>2015-03-29T15:00:48+02:00</time>
      </trkpt>
      <trkpt lat="45.59556" lon="3.16249">
        <ele>532</ele>
        <time>2015-03-29T15:00:48+02:00</time>
      </trkpt>
      <trkpt lat="45.59559" lon="3.16256">
        <ele>531</ele>
        <time>2015-03-29T15:00:48+02:00</time>
      </trkpt>
      <trkpt lat="45.5956" lon="3.16261">
        <ele>530</ele>
        <time>2015-03-29T15:00:48+02:00</time>
      </trkpt>
      <trkpt lat="45.59561" lon="3.16267">
        <ele>529</ele>
        <time>2015-03-29T15:00:48+02:00</time>
      </trkpt>
      <trkpt lat="45.59562" lon="3.16271">
        <ele>529</ele>
        <time>2015-03-29T15:00:48+02:00</time>
      </trkpt>
      <trkpt lat="45.59563" lon="3.16274">
        <ele>529</ele>
        <time>2015-03-29T15:00:48+02:00</time>
      </trkpt>
      <trkpt lat="45.59565" lon="3.16278">
        <ele>530</ele>
        <time>2015-03-29T15:00:48+02:00</time>
      </trkpt>
      <trkpt lat="45.59565" lon="3.16284">
        <ele>529</ele>
        <time>2015-03-29T15:00:48+02:00</time>
      </trkpt>
      <trkpt lat="45.59565" lon="3.1629">
        <ele>530</ele>
        <time>2015-03-29T15:00:48+02:00</time>
      </trkpt>
      <trkpt lat="45.59566" lon="3.16297">
        <ele>529</ele>
        <time>2015-03-29T15:00:48+02:00</time>
      </trkpt>
      <trkpt lat="45.59566" lon="3.16305">
        <ele>528</ele>
        <time>2015-03-29T15:00:48+02:00</time>
      </trkpt>
      <trkpt lat="45.59568" lon="3.1631">
        <ele>525</ele>
        <time>2015-03-29T15:00:48+02:00</time>
      </trkpt>
      <trkpt lat="45.5957" lon="3.16315">
        <ele>524</ele>
        <time>2015-03-29T15:00:48+02:00</time>
      </trkpt>
      <trkpt lat="45.59571" lon="3.1632">
        <ele>524</ele>
        <time>2015-03-29T15:00:48+02:00</time>
      </trkpt>
      <trkpt lat="45.59573" lon="3.16325">
        <ele>525</ele>
        <time>2015-03-29T15:00:48+02:00</time>
      </trkpt>
      <trkpt lat="45.59574" lon="3.1633">
        <ele>525</ele>
        <time>2015-03-29T15:00:48+02:00</time>
      </trkpt>
      <trkpt lat="45.59575" lon="3.16335">
        <ele>525</ele>
        <time>2015-03-29T15:00:48+02:00</time>
      </trkpt>
      <trkpt lat="45.59575" lon="3.16341">
        <ele>525</ele>
        <time>2015-03-29T15:00:48+02:00</time>
      </trkpt>
      <trkpt lat="45.59576" lon="3.16345">
        <ele>525</ele>
        <time>2015-03-29T15:00:48+02:00</time>
      </trkpt>
      <trkpt lat="45.59577" lon="3.16349">
        <ele>526</ele>
        <time>2015-03-29T15:00:48+02:00</time>
      </trkpt>
      <trkpt lat="45.59578" lon="3.16354">
        <ele>525</ele>
        <time>2015-03-29T15:00:48+02:00</time>
      </trkpt>
      <trkpt lat="45.59578" lon="3.1636">
        <ele>525</ele>
        <time>2015-03-29T15:00:48+02:00</time>
      </trkpt>
      <trkpt lat="45.59579" lon="3.16365">
        <ele>525</ele>
        <time>2015-03-29T15:00:48+02:00</time>
      </trkpt>
      <trkpt lat="45.59579" lon="3.16371">
        <ele>525</ele>
        <time>2015-03-29T15:00:48+02:00</time>
      </trkpt>
      <trkpt lat="45.59579" lon="3.16376">
        <ele>525</ele>
        <time>2015-03-29T15:00:48+02:00</time>
      </trkpt>
      <trkpt lat="45.59579" lon="3.16382">
        <ele>525</ele>
        <time>2015-03-29T15:00:48+02:00</time>
      </trkpt>
      <trkpt lat="45.5958" lon="3.16388">
        <ele>524</ele>
        <time>2015-03-29T15:00:48+02:00</time>
      </trkpt>
      <trkpt lat="45.59581" lon="3.16394">
        <ele>523</ele>
        <time>2015-03-29T15:00:48+02:00</time>
      </trkpt>
      <trkpt lat="45.59582" lon="3.16399">
        <ele>523</ele>
        <time>2015-03-29T15:00:48+02:00</time>
      </trkpt>
      <trkpt lat="45.59582" lon="3.16404">
        <ele>524</ele>
        <time>2015-03-29T15:00:48+02:00</time>
      </trkpt>
      <trkpt lat="45.59583" lon="3.16409">
        <ele>525</ele>
        <time>2015-03-29T15:00:48+02:00</time>
      </trkpt>
      <trkpt lat="45.59583" lon="3.16415">
        <ele>524</ele>
        <time>2015-03-29T15:00:48+02:00</time>
      </trkpt>
      <trkpt lat="45.59583" lon="3.16421">
        <ele>523</ele>
        <time>2015-03-29T15:00:48+02:00</time>
      </trkpt>
      <trkpt lat="45.59583" lon="3.16426">
        <ele>523</ele>
        <time>2015-03-29T15:00:48+02:00</time>
      </trkpt>
      <trkpt lat="45.59583" lon="3.16431">
        <ele>523</ele>
        <time>2015-03-29T15:00:48+02:00</time>
      </trkpt>
      <trkpt lat="45.59583" lon="3.16436">
        <ele>523</ele>
        <time>2015-03-29T15:00:48+02:00</time>
      </trkpt>
      <trkpt lat="45.59584" lon="3.16441">
        <ele>523</ele>
        <time>2015-03-29T15:00:48+02:00</time>
      </trkpt>
      <trkpt lat="45.59584" lon="3.16446">
        <ele>523</ele>
        <time>2015-03-29T15:00:48+02:00</time>
      </trkpt>
      <trkpt lat="45.59585" lon="3.16452">
        <ele>523</ele>
        <time>2015-03-29T15:00:48+02:00</time>
      </trkpt>
      <trkpt lat="45.59585" lon="3.16457">
        <ele>523</ele>
        <time>2015-03-29T15:00:48+02:00</time>
      </trkpt>
      <trkpt lat="45.59586" lon="3.16463">
        <ele>522</ele>
        <time>2015-03-29T15:00:48+02:00</time>
      </trkpt>
      <trkpt lat="45.59586" lon="3.16468">
        <ele>522</ele>
        <time>2015-03-29T15:00:48+02:00</time>
      </trkpt>
      <trkpt lat="45.59587" lon="3.16474">
        <ele>523</ele>
        <time>2015-03-29T15:00:48+02:00</time>
      </trkpt>
      <trkpt lat="45.59588" lon="3.16479">
        <ele>522</ele>
        <time>2015-03-29T15:00:48+02:00</time>
      </trkpt>
      <trkpt lat="45.59588" lon="3.16485">
        <ele>522</ele>
        <time>2015-03-29T15:00:48+02:00</time>
      </trkpt>
      <trkpt lat="45.59589" lon="3.16492">
        <ele>521</ele>
        <time>2015-03-29T15:00:48+02:00</time>
      </trkpt>
      <trkpt lat="45.59589" lon="3.16497">
        <ele>521</ele>
        <time>2015-03-29T15:00:48+02:00</time>
      </trkpt>
      <trkpt lat="45.59589" lon="3.16503">
        <ele>521</ele>
        <time>2015-03-29T15:00:48+02:00</time>
      </trkpt>
      <trkpt lat="45.59589" lon="3.16508">
        <ele>521</ele>
        <time>2015-03-29T15:00:48+02:00</time>
      </trkpt>
      <trkpt lat="45.5959" lon="3.16512">
        <ele>522</ele>
        <time>2015-03-29T15:00:48+02:00</time>
      </trkpt>
      <trkpt lat="45.59591" lon="3.16517">
        <ele>523</ele>
        <time>2015-03-29T15:00:48+02:00</time>
      </trkpt>
      <trkpt lat="45.59591" lon="3.16522">
        <ele>524</ele>
        <time>2015-03-29T15:00:48+02:00</time>
      </trkpt>
      <trkpt lat="45.59592" lon="3.16527">
        <ele>524</ele>
        <time>2015-03-29T15:00:48+02:00</time>
      </trkpt>
      <trkpt lat="45.59594" lon="3.16531">
        <ele>525</ele>
        <time>2015-03-29T15:00:48+02:00</time>
      </trkpt>
      <trkpt lat="45.59596" lon="3.16536">
        <ele>525</ele>
        <time>2015-03-29T15:00:48+02:00</time>
      </trkpt>
      <trkpt lat="45.59597" lon="3.16542">
        <ele>525</ele>
        <time>2015-03-29T15:00:48+02:00</time>
      </trkpt>
      <trkpt lat="45.59599" lon="3.16546">
        <ele>525</ele>
        <time>2015-03-29T15:00:48+02:00</time>
      </trkpt>
      <trkpt lat="45.59599" lon="3.16554">
        <ele>524</ele>
        <time>2015-03-29T15:00:48+02:00</time>
      </trkpt>
      <trkpt lat="45.59601" lon="3.16559">
        <ele>523</ele>
        <time>2015-03-29T15:00:48+02:00</time>
      </trkpt>
      <trkpt lat="45.59602" lon="3.16563">
        <ele>525</ele>
        <time>2015-03-29T15:00:48+02:00</time>
      </trkpt>
      <trkpt lat="45.59605" lon="3.16568">
        <ele>525</ele>
        <time>2015-03-29T15:00:48+02:00</time>
      </trkpt>
      <trkpt lat="45.59607" lon="3.16573">
        <ele>526</ele>
        <time>2015-03-29T15:00:48+02:00</time>
      </trkpt>
      <trkpt lat="45.59607" lon="3.16579">
        <ele>525</ele>
        <time>2015-03-29T15:00:48+02:00</time>
      </trkpt>
      <trkpt lat="45.59607" lon="3.16587">
        <ele>524</ele>
        <time>2015-03-29T15:00:48+02:00</time>
      </trkpt>
      <trkpt lat="45.59608" lon="3.16594">
        <ele>524</ele>
        <time>2015-03-29T15:00:48+02:00</time>
      </trkpt>
      <trkpt lat="45.5961" lon="3.16599">
        <ele>524</ele>
        <time>2015-03-29T15:00:48+02:00</time>
      </trkpt>
      <trkpt lat="45.59611" lon="3.16605">
        <ele>524</ele>
        <time>2015-03-29T15:00:48+02:00</time>
      </trkpt>
      <trkpt lat="45.59613" lon="3.16611">
        <ele>524</ele>
        <time>2015-03-29T15:00:48+02:00</time>
      </trkpt>
      <trkpt lat="45.59615" lon="3.16615">
        <ele>524</ele>
        <time>2015-03-29T15:00:48+02:00</time>
      </trkpt>
      <trkpt lat="45.59616" lon="3.1662">
        <ele>524</ele>
        <time>2015-03-29T15:00:48+02:00</time>
      </trkpt>
      <trkpt lat="45.59617" lon="3.16625">
        <ele>524</ele>
        <time>2015-03-29T15:00:48+02:00</time>
      </trkpt>
      <trkpt lat="45.59618" lon="3.1663">
        <ele>524</ele>
        <time>2015-03-29T15:00:48+02:00</time>
      </trkpt>
      <trkpt lat="45.59619" lon="3.16637">
        <ele>522</ele>
        <time>2015-03-29T15:00:48+02:00</time>
      </trkpt>
      <trkpt lat="45.59621" lon="3.16642">
        <ele>522</ele>
        <time>2015-03-29T15:00:48+02:00</time>
      </trkpt>
      <trkpt lat="45.59622" lon="3.16648">
        <ele>521</ele>
        <time>2015-03-29T15:00:48+02:00</time>
      </trkpt>
      <trkpt lat="45.59623" lon="3.16653">
        <ele>521</ele>
        <time>2015-03-29T15:00:48+02:00</time>
      </trkpt>
      <trkpt lat="45.59624" lon="3.16658">
        <ele>520</ele>
        <time>2015-03-29T15:00:48+02:00</time>
      </trkpt>
      <trkpt lat="45.59625" lon="3.16664">
        <ele>519</ele>
        <time>2015-03-29T15:00:48+02:00</time>
      </trkpt>
      <trkpt lat="45.59626" lon="3.16671">
        <ele>519</ele>
        <time>2015-03-29T15:00:48+02:00</time>
      </trkpt>
      <trkpt lat="45.59627" lon="3.16677">
        <ele>519</ele>
        <time>2015-03-29T15:00:48+02:00</time>
      </trkpt>
      <trkpt lat="45.59629" lon="3.16683">
        <ele>519</ele>
        <time>2015-03-29T15:00:48+02:00</time>
      </trkpt>
      <trkpt lat="45.5963" lon="3.16688">
        <ele>519</ele>
        <time>2015-03-29T15:00:48+02:00</time>
      </trkpt>
      <trkpt lat="45.59632" lon="3.16694">
        <ele>519</ele>
        <time>2015-03-29T15:00:48+02:00</time>
      </trkpt>
      <trkpt lat="45.59634" lon="3.16701">
        <ele>518</ele>
        <time>2015-03-29T15:00:48+02:00</time>
      </trkpt>
      <trkpt lat="45.59635" lon="3.16707">
        <ele>518</ele>
        <time>2015-03-29T15:00:48+02:00</time>
      </trkpt>
      <trkpt lat="45.59637" lon="3.16714">
        <ele>518</ele>
        <time>2015-03-29T15:00:48+02:00</time>
      </trkpt>
      <trkpt lat="45.59639" lon="3.16719">
        <ele>518</ele>
        <time>2015-03-29T15:00:48+02:00</time>
      </trkpt>
      <trkpt lat="45.59641" lon="3.16724">
        <ele>518</ele>
        <time>2015-03-29T15:00:48+02:00</time>
      </trkpt>
      <trkpt lat="45.59642" lon="3.16728">
        <ele>519</ele>
        <time>2015-03-29T15:00:48+02:00</time>
      </trkpt>
      <trkpt lat="45.59643" lon="3.16734">
        <ele>519</ele>
        <time>2015-03-29T15:00:48+02:00</time>
      </trkpt>
      <trkpt lat="45.59645" lon="3.1674">
        <ele>518</ele>
        <time>2015-03-29T15:00:48+02:00</time>
      </trkpt>
      <trkpt lat="45.59648" lon="3.16744">
        <ele>515</ele>
        <time>2015-03-29T15:00:48+02:00</time>
      </trkpt>
      <trkpt lat="45.5965" lon="3.16749">
        <ele>516</ele>
        <time>2015-03-29T15:00:48+02:00</time>
      </trkpt>
      <trkpt lat="45.59652" lon="3.16755">
        <ele>517</ele>
        <time>2015-03-29T15:00:48+02:00</time>
      </trkpt>
      <trkpt lat="45.59654" lon="3.1676">
        <ele>517</ele>
        <time>2015-03-29T15:00:48+02:00</time>
      </trkpt>
      <trkpt lat="45.59656" lon="3.16765">
        <ele>518</ele>
        <time>2015-03-29T15:00:48+02:00</time>
      </trkpt>
      <trkpt lat="45.59659" lon="3.16771">
        <ele>517</ele>
        <time>2015-03-29T15:00:48+02:00</time>
      </trkpt>
      <trkpt lat="45.59661" lon="3.16776">
        <ele>517</ele>
        <time>2015-03-29T15:00:48+02:00</time>
      </trkpt>
      <trkpt lat="45.59662" lon="3.16782">
        <ele>517</ele>
        <time>2015-03-29T15:00:48+02:00</time>
      </trkpt>
      <trkpt lat="45.59664" lon="3.16787">
        <ele>517</ele>
        <time>2015-03-29T15:00:48+02:00</time>
      </trkpt>
      <trkpt lat="45.59666" lon="3.16793">
        <ele>517</ele>
        <time>2015-03-29T15:00:48+02:00</time>
      </trkpt>
      <trkpt lat="45.59668" lon="3.16799">
        <ele>516</ele>
        <time>2015-03-29T15:00:48+02:00</time>
      </trkpt>
      <trkpt lat="45.59671" lon="3.16805">
        <ele>516</ele>
        <time>2015-03-29T15:00:48+02:00</time>
      </trkpt>
      <trkpt lat="45.59673" lon="3.1681">
        <ele>517</ele>
        <time>2015-03-29T15:00:48+02:00</time>
      </trkpt>
      <trkpt lat="45.59674" lon="3.16814">
        <ele>517</ele>
        <time>2015-03-29T15:00:48+02:00</time>
      </trkpt>
      <trkpt lat="45.59677" lon="3.16819">
        <ele>517</ele>
        <time>2015-03-29T15:00:48+02:00</time>
      </trkpt>
      <trkpt lat="45.59678" lon="3.16824">
        <ele>517</ele>
        <time>2015-03-29T15:00:48+02:00</time>
      </trkpt>
      <trkpt lat="45.5968" lon="3.16829">
        <ele>517</ele>
        <time>2015-03-29T15:00:48+02:00</time>
      </trkpt>
      <trkpt lat="45.59682" lon="3.16835">
        <ele>518</ele>
        <time>2015-03-29T15:00:48+02:00</time>
      </trkpt>
      <trkpt lat="45.59684" lon="3.1684">
        <ele>519</ele>
        <time>2015-03-29T15:00:48+02:00</time>
      </trkpt>
      <trkpt lat="45.59685" lon="3.16845">
        <ele>519</ele>
        <time>2015-03-29T15:00:48+02:00</time>
      </trkpt>
      <trkpt lat="45.59686" lon="3.16849">
        <ele>520</ele>
        <time>2015-03-29T15:00:48+02:00</time>
      </trkpt>
      <trkpt lat="45.59689" lon="3.16851">
        <ele>519</ele>
        <time>2015-03-29T15:00:48+02:00</time>
      </trkpt>
      <trkpt lat="45.5969" lon="3.16855">
        <ele>519</ele>
        <time>2015-03-29T15:00:48+02:00</time>
      </trkpt>
      <trkpt lat="45.59691" lon="3.16858">
        <ele>519</ele>
        <time>2015-03-29T15:00:48+02:00</time>
      </trkpt>
      <trkpt lat="45.59692" lon="3.16861">
        <ele>519</ele>
        <time>2015-03-29T15:02:56+02:00</time>
      </trkpt>
      <trkpt lat="45.59693" lon="3.16863">
        <ele>518</ele>
        <time>2015-03-29T15:02:56+02:00</time>
      </trkpt>
      <trkpt lat="45.59695" lon="3.16867">
        <ele>518</ele>
        <time>2015-03-29T15:02:56+02:00</time>
      </trkpt>
      <trkpt lat="45.59696" lon="3.16871">
        <ele>518</ele>
        <time>2015-03-29T15:02:56+02:00</time>
      </trkpt>
      <trkpt lat="45.59698" lon="3.16875">
        <ele>518</ele>
        <time>2015-03-29T15:02:56+02:00</time>
      </trkpt>
      <trkpt lat="45.59699" lon="3.16878">
        <ele>518</ele>
        <time>2015-03-29T15:02:56+02:00</time>
      </trkpt>
      <trkpt lat="45.59701" lon="3.16881">
        <ele>518</ele>
        <time>2015-03-29T15:02:56+02:00</time>
      </trkpt>
      <trkpt lat="45.59702" lon="3.16885">
        <ele>517</ele>
        <time>2015-03-29T15:02:56+02:00</time>
      </trkpt>
      <trkpt lat="45.59703" lon="3.16889">
        <ele>517</ele>
        <time>2015-03-29T15:02:56+02:00</time>
      </trkpt>
      <trkpt lat="45.59703" lon="3.16894">
        <ele>517</ele>
        <time>2015-03-29T15:02:56+02:00</time>
      </trkpt>
      <trkpt lat="45.59705" lon="3.16897">
        <ele>516</ele>
        <time>2015-03-29T15:02:56+02:00</time>
      </trkpt>
      <trkpt lat="45.59706" lon="3.169">
        <ele>516</ele>
        <time>2015-03-29T15:02:56+02:00</time>
      </trkpt>
      <trkpt lat="45.59707" lon="3.16903">
        <ele>516</ele>
        <time>2015-03-29T15:02:56+02:00</time>
      </trkpt>
      <trkpt lat="45.59708" lon="3.16906">
        <ele>516</ele>
        <time>2015-03-29T15:02:56+02:00</time>
      </trkpt>
      <trkpt lat="45.5971" lon="3.1691">
        <ele>515</ele>
        <time>2015-03-29T15:02:56+02:00</time>
      </trkpt>
      <trkpt lat="45.59711" lon="3.16913">
        <ele>514</ele>
        <time>2015-03-29T15:02:56+02:00</time>
      </trkpt>
      <trkpt lat="45.59711" lon="3.16916">
        <ele>514</ele>
        <time>2015-03-29T15:02:56+02:00</time>
      </trkpt>
      <trkpt lat="45.59712" lon="3.1692">
        <ele>514</ele>
        <time>2015-03-29T15:02:56+02:00</time>
      </trkpt>
      <trkpt lat="45.59713" lon="3.16923">
        <ele>514</ele>
        <time>2015-03-29T15:02:56+02:00</time>
      </trkpt>
      <trkpt lat="45.59714" lon="3.16927">
        <ele>514</ele>
        <time>2015-03-29T15:02:56+02:00</time>
      </trkpt>
      <trkpt lat="45.59715" lon="3.1693">
        <ele>514</ele>
        <time>2015-03-29T15:02:56+02:00</time>
      </trkpt>
      <trkpt lat="45.59717" lon="3.16934">
        <ele>514</ele>
        <time>2015-03-29T15:02:56+02:00</time>
      </trkpt>
      <trkpt lat="45.59718" lon="3.16937">
        <ele>514</ele>
        <time>2015-03-29T15:02:56+02:00</time>
      </trkpt>
      <trkpt lat="45.5972" lon="3.16941">
        <ele>514</ele>
        <time>2015-03-29T15:02:56+02:00</time>
      </trkpt>
      <trkpt lat="45.59721" lon="3.16944">
        <ele>514</ele>
        <time>2015-03-29T15:02:56+02:00</time>
      </trkpt>
      <trkpt lat="45.59722" lon="3.16948">
        <ele>514</ele>
        <time>2015-03-29T15:02:56+02:00</time>
      </trkpt>
      <trkpt lat="45.59724" lon="3.16952">
        <ele>514</ele>
        <time>2015-03-29T15:02:56+02:00</time>
      </trkpt>
      <trkpt lat="45.59725" lon="3.16956">
        <ele>514</ele>
        <time>2015-03-29T15:02:56+02:00</time>
      </trkpt>
      <trkpt lat="45.59726" lon="3.16959">
        <ele>514</ele>
        <time>2015-03-29T15:02:56+02:00</time>
      </trkpt>
      <trkpt lat="45.59727" lon="3.16963">
        <ele>514</ele>
        <time>2015-03-29T15:02:56+02:00</time>
      </trkpt>
      <trkpt lat="45.59728" lon="3.16967">
        <ele>514</ele>
        <time>2015-03-29T15:02:56+02:00</time>
      </trkpt>
      <trkpt lat="45.5973" lon="3.16969">
        <ele>514</ele>
        <time>2015-03-29T15:02:56+02:00</time>
      </trkpt>
      <trkpt lat="45.59731" lon="3.16972">
        <ele>514</ele>
        <time>2015-03-29T15:02:56+02:00</time>
      </trkpt>
      <trkpt lat="45.59732" lon="3.16975">
        <ele>515</ele>
        <time>2015-03-29T15:02:56+02:00</time>
      </trkpt>
      <trkpt lat="45.59735" lon="3.16977">
        <ele>515</ele>
        <time>2015-03-29T15:02:56+02:00</time>
      </trkpt>
      <trkpt lat="45.59736" lon="3.1698">
        <ele>515</ele>
        <time>2015-03-29T15:02:56+02:00</time>
      </trkpt>
      <trkpt lat="45.59738" lon="3.16984">
        <ele>517</ele>
        <time>2015-03-29T15:02:56+02:00</time>
      </trkpt>
      <trkpt lat="45.59739" lon="3.16987">
        <ele>517</ele>
        <time>2015-03-29T15:02:56+02:00</time>
      </trkpt>
      <trkpt lat="45.5974" lon="3.1699">
        <ele>517</ele>
        <time>2015-03-29T15:02:56+02:00</time>
      </trkpt>
      <trkpt lat="45.59742" lon="3.16993">
        <ele>517</ele>
        <time>2015-03-29T15:02:56+02:00</time>
      </trkpt>
      <trkpt lat="45.59744" lon="3.16994">
        <ele>517</ele>
        <time>2015-03-29T15:02:56+02:00</time>
      </trkpt>
      <trkpt lat="45.59745" lon="3.16996">
        <ele>517</ele>
        <time>2015-03-29T15:02:56+02:00</time>
      </trkpt>
      <trkpt lat="45.59747" lon="3.16997">
        <ele>517</ele>
        <time>2015-03-29T15:02:56+02:00</time>
      </trkpt>
      <trkpt lat="45.59749" lon="3.17001">
        <ele>517</ele>
        <time>2015-03-29T15:02:56+02:00</time>
      </trkpt>
      <trkpt lat="45.59751" lon="3.17003">
        <ele>516</ele>
        <time>2015-03-29T15:02:56+02:00</time>
      </trkpt>
      <trkpt lat="45.59753" lon="3.17006">
        <ele>517</ele>
        <time>2015-03-29T15:02:56+02:00</time>
      </trkpt>
      <trkpt lat="45.59756" lon="3.17009">
        <ele>517</ele>
        <time>2015-03-29T15:02:56+02:00</time>
      </trkpt>
      <trkpt lat="45.59758" lon="3.17011">
        <ele>516</ele>
        <time>2015-03-29T15:02:56+02:00</time>
      </trkpt>
      <trkpt lat="45.5976" lon="3.17014">
        <ele>517</ele>
        <time>2015-03-29T15:02:56+02:00</time>
      </trkpt>
      <trkpt lat="45.59762" lon="3.17015">
        <ele>518</ele>
        <time>2015-03-29T15:02:56+02:00</time>
      </trkpt>
      <trkpt lat="45.59763" lon="3.17018">
        <ele>517</ele>
        <time>2015-03-29T15:02:56+02:00</time>
      </trkpt>
      <trkpt lat="45.59764" lon="3.1702">
        <ele>517</ele>
        <time>2015-03-29T15:02:56+02:00</time>
      </trkpt>
      <trkpt lat="45.59766" lon="3.17022">
        <ele>517</ele>
        <time>2015-03-29T15:02:56+02:00</time>
      </trkpt>
      <trkpt lat="45.59768" lon="3.17026">
        <ele>516</ele>
        <time>2015-03-29T15:02:56+02:00</time>
      </trkpt>
      <trkpt lat="45.5977" lon="3.17029">
        <ele>516</ele>
        <time>2015-03-29T15:02:56+02:00</time>
      </trkpt>
      <trkpt lat="45.59771" lon="3.1703">
        <ele>517</ele>
        <time>2015-03-29T15:02:56+02:00</time>
      </trkpt>
      <trkpt lat="45.59773" lon="3.17033">
        <ele>517</ele>
        <time>2015-03-29T15:02:56+02:00</time>
      </trkpt>
      <trkpt lat="45.59775" lon="3.17035">
        <ele>517</ele>
        <time>2015-03-29T15:02:56+02:00</time>
      </trkpt>
      <trkpt lat="45.59777" lon="3.17037">
        <ele>517</ele>
        <time>2015-03-29T15:02:56+02:00</time>
      </trkpt>
      <trkpt lat="45.59779" lon="3.17039">
        <ele>517</ele>
        <time>2015-03-29T15:02:56+02:00</time>
      </trkpt>
      <trkpt lat="45.59781" lon="3.17042">
        <ele>517</ele>
        <time>2015-03-29T15:02:56+02:00</time>
      </trkpt>
      <trkpt lat="45.59782" lon="3.17046">
        <ele>517</ele>
        <time>2015-03-29T15:02:56+02:00</time>
      </trkpt>
      <trkpt lat="45.59784" lon="3.17049">
        <ele>517</ele>
        <time>2015-03-29T15:02:56+02:00</time>
      </trkpt>
      <trkpt lat="45.59785" lon="3.17054">
        <ele>517</ele>
        <time>2015-03-29T15:02:56+02:00</time>
      </trkpt>
      <trkpt lat="45.59788" lon="3.17056">
        <ele>517</ele>
        <time>2015-03-29T15:02:56+02:00</time>
      </trkpt>
      <trkpt lat="45.59789" lon="3.17059">
        <ele>517</ele>
        <time>2015-03-29T15:02:56+02:00</time>
      </trkpt>
      <trkpt lat="45.59792" lon="3.17061">
        <ele>517</ele>
        <time>2015-03-29T15:02:56+02:00</time>
      </trkpt>
      <trkpt lat="45.59793" lon="3.17064">
        <ele>517</ele>
        <time>2015-03-29T15:02:56+02:00</time>
      </trkpt>
      <trkpt lat="45.59795" lon="3.17067">
        <ele>517</ele>
        <time>2015-03-29T15:02:56+02:00</time>
      </trkpt>
      <trkpt lat="45.59797" lon="3.17069">
        <ele>518</ele>
        <time>2015-03-29T15:02:56+02:00</time>
      </trkpt>
      <trkpt lat="45.59799" lon="3.17073">
        <ele>516</ele>
        <time>2015-03-29T15:02:56+02:00</time>
      </trkpt>
      <trkpt lat="45.59801" lon="3.17077">
        <ele>515</ele>
        <time>2015-03-29T15:02:56+02:00</time>
      </trkpt>
      <trkpt lat="45.59803" lon="3.17081">
        <ele>515</ele>
        <time>2015-03-29T15:02:56+02:00</time>
      </trkpt>
      <trkpt lat="45.59805" lon="3.17085">
        <ele>514</ele>
        <time>2015-03-29T15:02:56+02:00</time>
      </trkpt>
      <trkpt lat="45.59806" lon="3.17088">
        <ele>514</ele>
        <time>2015-03-29T15:02:56+02:00</time>
      </trkpt>
      <trkpt lat="45.59808" lon="3.17092">
        <ele>514</ele>
        <time>2015-03-29T15:02:56+02:00</time>
      </trkpt>
      <trkpt lat="45.5981" lon="3.17095">
        <ele>515</ele>
        <time>2015-03-29T15:02:56+02:00</time>
      </trkpt>
      <trkpt lat="45.59813" lon="3.17097">
        <ele>513</ele>
        <time>2015-03-29T15:02:56+02:00</time>
      </trkpt>
      <trkpt lat="45.59816" lon="3.171">
        <ele>513</ele>
        <time>2015-03-29T15:02:56+02:00</time>
      </trkpt>
      <trkpt lat="45.59819" lon="3.17102">
        <ele>512</ele>
        <time>2015-03-29T15:02:56+02:00</time>
      </trkpt>
      <trkpt lat="45.59823" lon="3.17106">
        <ele>511</ele>
        <time>2015-03-29T15:02:56+02:00</time>
      </trkpt>
      <trkpt lat="45.59825" lon="3.17109">
        <ele>510</ele>
        <time>2015-03-29T15:02:56+02:00</time>
      </trkpt>
      <trkpt lat="45.59827" lon="3.17113">
        <ele>511</ele>
        <time>2015-03-29T15:02:56+02:00</time>
      </trkpt>
      <trkpt lat="45.59829" lon="3.17118">
        <ele>510</ele>
        <time>2015-03-29T15:02:56+02:00</time>
      </trkpt>
      <trkpt lat="45.59831" lon="3.17121">
        <ele>511</ele>
        <time>2015-03-29T15:02:56+02:00</time>
      </trkpt>
      <trkpt lat="45.59833" lon="3.17126">
        <ele>510</ele>
        <time>2015-03-29T15:02:56+02:00</time>
      </trkpt>
      <trkpt lat="45.59836" lon="3.1713">
        <ele>510</ele>
        <time>2015-03-29T15:02:56+02:00</time>
      </trkpt>
      <trkpt lat="45.59837" lon="3.17135">
        <ele>510</ele>
        <time>2015-03-29T15:02:56+02:00</time>
      </trkpt>
      <trkpt lat="45.59839" lon="3.1714">
        <ele>510</ele>
        <time>2015-03-29T15:02:56+02:00</time>
      </trkpt>
      <trkpt lat="45.59841" lon="3.17144">
        <ele>510</ele>
        <time>2015-03-29T15:02:56+02:00</time>
      </trkpt>
      <trkpt lat="45.59843" lon="3.17147">
        <ele>510</ele>
        <time>2015-03-29T15:02:56+02:00</time>
      </trkpt>
      <trkpt lat="45.59843" lon="3.17152">
        <ele>511</ele>
        <time>2015-03-29T15:02:56+02:00</time>
      </trkpt>
      <trkpt lat="45.59845" lon="3.17155">
        <ele>511</ele>
        <time>2015-03-29T15:02:56+02:00</time>
      </trkpt>
      <trkpt lat="45.59847" lon="3.17159">
        <ele>511</ele>
        <time>2015-03-29T15:05:04+02:00</time>
      </trkpt>
      <trkpt lat="45.59849" lon="3.17164">
        <ele>511</ele>
        <time>2015-03-29T15:05:04+02:00</time>
      </trkpt>
      <trkpt lat="45.5985" lon="3.17167">
        <ele>511</ele>
        <time>2015-03-29T15:05:04+02:00</time>
      </trkpt>
      <trkpt lat="45.59852" lon="3.17168">
        <ele>512</ele>
        <time>2015-03-29T15:05:04+02:00</time>
      </trkpt>
      <trkpt lat="45.59852" lon="3.17166">
        <ele>513</ele>
        <time>2015-03-29T15:05:04+02:00</time>
      </trkpt>
      <trkpt lat="45.59854" lon="3.17164">
        <ele>514</ele>
        <time>2015-03-29T15:05:04+02:00</time>
      </trkpt>
      <trkpt lat="45.59859" lon="3.17165">
        <ele>514</ele>
        <time>2015-03-29T15:05:04+02:00</time>
      </trkpt>
      <trkpt lat="45.59861" lon="3.17166">
        <ele>514</ele>
        <time>2015-03-29T15:05:04+02:00</time>
      </trkpt>
      <trkpt lat="45.59864" lon="3.17167">
        <ele>514</ele>
        <time>2015-03-29T15:05:04+02:00</time>
      </trkpt>
      <trkpt lat="45.59866" lon="3.17167">
        <ele>514</ele>
        <time>2015-03-29T15:05:04+02:00</time>
      </trkpt>
      <trkpt lat="45.59868" lon="3.17168">
        <ele>515</ele>
        <time>2015-03-29T15:05:04+02:00</time>
      </trkpt>
      <trkpt lat="45.59871" lon="3.17168">
        <ele>515</ele>
        <time>2015-03-29T15:05:04+02:00</time>
      </trkpt>
      <trkpt lat="45.59874" lon="3.17169">
        <ele>515</ele>
        <time>2015-03-29T15:05:04+02:00</time>
      </trkpt>
      <trkpt lat="45.59877" lon="3.1717">
        <ele>515</ele>
        <time>2015-03-29T15:05:04+02:00</time>
      </trkpt>
      <trkpt lat="45.59881" lon="3.17171">
        <ele>515</ele>
        <time>2015-03-29T15:05:04+02:00</time>
      </trkpt>
      <trkpt lat="45.59883" lon="3.17172">
        <ele>515</ele>
        <time>2015-03-29T15:05:04+02:00</time>
      </trkpt>
      <trkpt lat="45.59903" lon="3.17184">
        <ele>515</ele>
        <time>2015-03-29T15:05:04+02:00</time>
      </trkpt>
      <trkpt lat="45.59906" lon="3.17186">
        <ele>515</ele>
        <time>2015-03-29T15:05:04+02:00</time>
      </trkpt>
      <trkpt lat="45.59909" lon="3.17188">
        <ele>515</ele>
        <time>2015-03-29T15:05:04+02:00</time>
      </trkpt>
      <trkpt lat="45.59912" lon="3.17189">
        <ele>516</ele>
        <time>2015-03-29T15:05:04+02:00</time>
      </trkpt>
      <trkpt lat="45.59915" lon="3.17191">
        <ele>516</ele>
        <time>2015-03-29T15:05:04+02:00</time>
      </trkpt>
      <trkpt lat="45.59918" lon="3.17193">
        <ele>516</ele>
        <time>2015-03-29T15:05:04+02:00</time>
      </trkpt>
      <trkpt lat="45.59921" lon="3.17195">
        <ele>516</ele>
        <time>2015-03-29T15:05:04+02:00</time>
      </trkpt>
      <trkpt lat="45.59925" lon="3.17199">
        <ele>517</ele>
        <time>2015-03-29T15:05:04+02:00</time>
      </trkpt>
      <trkpt lat="45.59928" lon="3.172">
        <ele>517</ele>
        <time>2015-03-29T15:05:04+02:00</time>
      </trkpt>
      <trkpt lat="45.59931" lon="3.17202">
        <ele>517</ele>
        <time>2015-03-29T15:05:04+02:00</time>
      </trkpt>
      <trkpt lat="45.59934" lon="3.17204">
        <ele>517</ele>
        <time>2015-03-29T15:05:04+02:00</time>
      </trkpt>
      <trkpt lat="45.59938" lon="3.17207">
        <ele>517</ele>
        <time>2015-03-29T15:05:04+02:00</time>
      </trkpt>
      <trkpt lat="45.59941" lon="3.17209">
        <ele>517</ele>
        <time>2015-03-29T15:05:04+02:00</time>
      </trkpt>
      <trkpt lat="45.59944" lon="3.17212">
        <ele>517</ele>
        <time>2015-03-29T15:05:04+02:00</time>
      </trkpt>
      <trkpt lat="45.59947" lon="3.17214">
        <ele>517</ele>
        <time>2015-03-29T15:05:04+02:00</time>
      </trkpt>
      <trkpt lat="45.59951" lon="3.17216">
        <ele>517</ele>
        <time>2015-03-29T15:05:04+02:00</time>
      </trkpt>
      <trkpt lat="45.59954" lon="3.17218">
        <ele>517</ele>
        <time>2015-03-29T15:05:04+02:00</time>
      </trkpt>
      <trkpt lat="45.59957" lon="3.1722">
        <ele>517</ele>
        <time>2015-03-29T15:05:04+02:00</time>
      </trkpt>
      <trkpt lat="45.59961" lon="3.17223">
        <ele>516</ele>
        <time>2015-03-29T15:05:04+02:00</time>
      </trkpt>
      <trkpt lat="45.59964" lon="3.17226">
        <ele>516</ele>
        <time>2015-03-29T15:05:04+02:00</time>
      </trkpt>
      <trkpt lat="45.59967" lon="3.17229">
        <ele>516</ele>
        <time>2015-03-29T15:05:04+02:00</time>
      </trkpt>
      <trkpt lat="45.59975" lon="3.17236">
        <ele>516</ele>
        <time>2015-03-29T15:05:04+02:00</time>
      </trkpt>
      <trkpt lat="45.59986" lon="3.17245">
        <ele>516</ele>
        <time>2015-03-29T15:05:04+02:00</time>
      </trkpt>
      <trkpt lat="45.59993" lon="3.17251">
        <ele>515</ele>
        <time>2015-03-29T15:05:04+02:00</time>
      </trkpt>
      <trkpt lat="45.59996" lon="3.17254">
        <ele>515</ele>
        <time>2015-03-29T15:05:04+02:00</time>
      </trkpt>
      <trkpt lat="45.59999" lon="3.17257">
        <ele>515</ele>
        <time>2015-03-29T15:05:04+02:00</time>
      </trkpt>
      <trkpt lat="45.60003" lon="3.17259">
        <ele>515</ele>
        <time>2015-03-29T15:05:04+02:00</time>
      </trkpt>
      <trkpt lat="45.60006" lon="3.17261">
        <ele>515</ele>
        <time>2015-03-29T15:05:04+02:00</time>
      </trkpt>
      <trkpt lat="45.60009" lon="3.17264">
        <ele>516</ele>
        <time>2015-03-29T15:05:04+02:00</time>
      </trkpt>
      <trkpt lat="45.60013" lon="3.17266">
        <ele>516</ele>
        <time>2015-03-29T15:05:04+02:00</time>
      </trkpt>
      <trkpt lat="45.60016" lon="3.17268">
        <ele>516</ele>
        <time>2015-03-29T15:05:04+02:00</time>
      </trkpt>
      <trkpt lat="45.6002" lon="3.17271">
        <ele>516</ele>
        <time>2015-03-29T15:05:04+02:00</time>
      </trkpt>
      <trkpt lat="45.60023" lon="3.17274">
        <ele>516</ele>
        <time>2015-03-29T15:05:04+02:00</time>
      </trkpt>
      <trkpt lat="45.60026" lon="3.17276">
        <ele>516</ele>
        <time>2015-03-29T15:05:04+02:00</time>
      </trkpt>
      <trkpt lat="45.60034" lon="3.1728">
        <ele>515</ele>
        <time>2015-03-29T15:05:04+02:00</time>
      </trkpt>
      <trkpt lat="45.60037" lon="3.17281">
        <ele>515</ele>
        <time>2015-03-29T15:05:04+02:00</time>
      </trkpt>
      <trkpt lat="45.60041" lon="3.17283">
        <ele>515</ele>
        <time>2015-03-29T15:05:04+02:00</time>
      </trkpt>
      <trkpt lat="45.60045" lon="3.17284">
        <ele>515</ele>
        <time>2015-03-29T15:05:04+02:00</time>
      </trkpt>
      <trkpt lat="45.60048" lon="3.17287">
        <ele>515</ele>
        <time>2015-03-29T15:05:04+02:00</time>
      </trkpt>
      <trkpt lat="45.60052" lon="3.17289">
        <ele>514</ele>
        <time>2015-03-29T15:05:04+02:00</time>
      </trkpt>
      <trkpt lat="45.60055" lon="3.17291">
        <ele>515</ele>
        <time>2015-03-29T15:05:04+02:00</time>
      </trkpt>
      <trkpt lat="45.60062" lon="3.17298">
        <ele>516</ele>
        <time>2015-03-29T15:05:04+02:00</time>
      </trkpt>
      <trkpt lat="45.60065" lon="3.17301">
        <ele>516</ele>
        <time>2015-03-29T15:05:04+02:00</time>
      </trkpt>
      <trkpt lat="45.60068" lon="3.17304">
        <ele>516</ele>
        <time>2015-03-29T15:05:04+02:00</time>
      </trkpt>
      <trkpt lat="45.60071" lon="3.17307">
        <ele>516</ele>
        <time>2015-03-29T15:05:04+02:00</time>
      </trkpt>
      <trkpt lat="45.60073" lon="3.17312">
        <ele>515</ele>
        <time>2015-03-29T15:05:04+02:00</time>
      </trkpt>
      <trkpt lat="45.60076" lon="3.17316">
        <ele>515</ele>
        <time>2015-03-29T15:05:04+02:00</time>
      </trkpt>
      <trkpt lat="45.60079" lon="3.1732">
        <ele>515</ele>
        <time>2015-03-29T15:05:04+02:00</time>
      </trkpt>
      <trkpt lat="45.60082" lon="3.17324">
        <ele>514</ele>
        <time>2015-03-29T15:05:04+02:00</time>
      </trkpt>
      <trkpt lat="45.60085" lon="3.17328">
        <ele>514</ele>
        <time>2015-03-29T15:05:04+02:00</time>
      </trkpt>
      <trkpt lat="45.60088" lon="3.17333">
        <ele>513</ele>
        <time>2015-03-29T15:05:04+02:00</time>
      </trkpt>
      <trkpt lat="45.60091" lon="3.17339">
        <ele>513</ele>
        <time>2015-03-29T15:05:04+02:00</time>
      </trkpt>
      <trkpt lat="45.60094" lon="3.17344">
        <ele>513</ele>
        <time>2015-03-29T15:05:04+02:00</time>
      </trkpt>
      <trkpt lat="45.60098" lon="3.17349">
        <ele>513</ele>
        <time>2015-03-29T15:05:04+02:00</time>
      </trkpt>
      <trkpt lat="45.60101" lon="3.17355">
        <ele>514</ele>
        <time>2015-03-29T15:05:04+02:00</time>
      </trkpt>
      <trkpt lat="45.60104" lon="3.1736">
        <ele>514</ele>
        <time>2015-03-29T15:05:04+02:00</time>
      </trkpt>
      <trkpt lat="45.60106" lon="3.17365">
        <ele>513</ele>
        <time>2015-03-29T15:05:04+02:00</time>
      </trkpt>
      <trkpt lat="45.60109" lon="3.17371">
        <ele>513</ele>
        <time>2015-03-29T15:05:04+02:00</time>
      </trkpt>
      <trkpt lat="45.60111" lon="3.17376">
        <ele>513</ele>
        <time>2015-03-29T15:05:04+02:00</time>
      </trkpt>
      <trkpt lat="45.60114" lon="3.17382">
        <ele>513</ele>
        <time>2015-03-29T15:05:04+02:00</time>
      </trkpt>
      <trkpt lat="45.60117" lon="3.17387">
        <ele>513</ele>
        <time>2015-03-29T15:05:04+02:00</time>
      </trkpt>
      <trkpt lat="45.60119" lon="3.17394">
        <ele>513</ele>
        <time>2015-03-29T15:05:04+02:00</time>
      </trkpt>
      <trkpt lat="45.60121" lon="3.174">
        <ele>513</ele>
        <time>2015-03-29T15:05:04+02:00</time>
      </trkpt>
      <trkpt lat="45.60123" lon="3.17405">
        <ele>514</ele>
        <time>2015-03-29T15:05:04+02:00</time>
      </trkpt>
      <trkpt lat="45.60126" lon="3.1741">
        <ele>513</ele>
        <time>2015-03-29T15:05:04+02:00</time>
      </trkpt>
      <trkpt lat="45.60128" lon="3.17415">
        <ele>513</ele>
        <time>2015-03-29T15:05:04+02:00</time>
      </trkpt>
      <trkpt lat="45.60131" lon="3.17421">
        <ele>513</ele>
        <time>2015-03-29T15:05:04+02:00</time>
      </trkpt>
      <trkpt lat="45.60133" lon="3.17428">
        <ele>513</ele>
        <time>2015-03-29T15:05:04+02:00</time>
      </trkpt>
      <trkpt lat="45.60135" lon="3.17435">
        <ele>512</ele>
        <time>2015-03-29T15:05:04+02:00</time>
      </trkpt>
      <trkpt lat="45.60138" lon="3.17442">
        <ele>512</ele>
        <time>2015-03-29T15:05:04+02:00</time>
      </trkpt>
      <trkpt lat="45.60141" lon="3.17448">
        <ele>511</ele>
        <time>2015-03-29T15:05:04+02:00</time>
      </trkpt>
      <trkpt lat="45.60143" lon="3.17455">
        <ele>511</ele>
        <time>2015-03-29T15:05:04+02:00</time>
      </trkpt>
      <trkpt lat="45.60146" lon="3.17462">
        <ele>511</ele>
        <time>2015-03-29T15:05:04+02:00</time>
      </trkpt>
      <trkpt lat="45.60149" lon="3.17467">
        <ele>511</ele>
        <time>2015-03-29T15:05:04+02:00</time>
      </trkpt>
      <trkpt lat="45.6015" lon="3.17474">
        <ele>511</ele>
        <time>2015-03-29T15:05:04+02:00</time>
      </trkpt>
      <trkpt lat="45.60152" lon="3.17481">
        <ele>510</ele>
        <time>2015-03-29T15:05:04+02:00</time>
      </trkpt>
      <trkpt lat="45.60154" lon="3.17487">
        <ele>510</ele>
        <time>2015-03-29T15:05:04+02:00</time>
      </trkpt>
      <trkpt lat="45.60156" lon="3.17493">
        <ele>510</ele>
        <time>2015-03-29T15:05:04+02:00</time>
      </trkpt>
      <trkpt lat="45.60158" lon="3.175">
        <ele>510</ele>
        <time>2015-03-29T15:05:04+02:00</time>
      </trkpt>
      <trkpt lat="45.6016" lon="3.17508">
        <ele>509</ele>
        <time>2015-03-29T15:05:04+02:00</time>
      </trkpt>
      <trkpt lat="45.60162" lon="3.17514">
        <ele>509</ele>
        <time>2015-03-29T15:05:04+02:00</time>
      </trkpt>
      <trkpt lat="45.60163" lon="3.17521">
        <ele>509</ele>
        <time>2015-03-29T15:05:04+02:00</time>
      </trkpt>
      <trkpt lat="45.60165" lon="3.17527">
        <ele>509</ele>
        <time>2015-03-29T15:05:04+02:00</time>
      </trkpt>
      <trkpt lat="45.60167" lon="3.17534">
        <ele>509</ele>
        <time>2015-03-29T15:05:04+02:00</time>
      </trkpt>
      <trkpt lat="45.60168" lon="3.17541">
        <ele>509</ele>
        <time>2015-03-29T15:05:04+02:00</time>
      </trkpt>
      <trkpt lat="45.6017" lon="3.17547">
        <ele>509</ele>
        <time>2015-03-29T15:05:04+02:00</time>
      </trkpt>
      <trkpt lat="45.60172" lon="3.17554">
        <ele>509</ele>
        <time>2015-03-29T15:05:04+02:00</time>
      </trkpt>
      <trkpt lat="45.60174" lon="3.1756">
        <ele>509</ele>
        <time>2015-03-29T15:05:04+02:00</time>
      </trkpt>
      <trkpt lat="45.60177" lon="3.17567">
        <ele>508</ele>
        <time>2015-03-29T15:05:04+02:00</time>
      </trkpt>
      <trkpt lat="45.60179" lon="3.17574">
        <ele>508</ele>
        <time>2015-03-29T15:05:04+02:00</time>
      </trkpt>
      <trkpt lat="45.60181" lon="3.17579">
        <ele>509</ele>
        <time>2015-03-29T15:05:04+02:00</time>
      </trkpt>
      <trkpt lat="45.60183" lon="3.17585">
        <ele>509</ele>
        <time>2015-03-29T15:05:04+02:00</time>
      </trkpt>
      <trkpt lat="45.60184" lon="3.17592">
        <ele>509</ele>
        <time>2015-03-29T15:05:04+02:00</time>
      </trkpt>
      <trkpt lat="45.60186" lon="3.17598">
        <ele>508</ele>
        <time>2015-03-29T15:07:12+02:00</time>
      </trkpt>
      <trkpt lat="45.60188" lon="3.17605">
        <ele>509</ele>
        <time>2015-03-29T15:07:12+02:00</time>
      </trkpt>
      <trkpt lat="45.60189" lon="3.17612">
        <ele>510</ele>
        <time>2015-03-29T15:07:12+02:00</time>
      </trkpt>
      <trkpt lat="45.6019" lon="3.17618">
        <ele>510</ele>
        <time>2015-03-29T15:07:12+02:00</time>
      </trkpt>
      <trkpt lat="45.60191" lon="3.17625">
        <ele>510</ele>
        <time>2015-03-29T15:07:12+02:00</time>
      </trkpt>
      <trkpt lat="45.60191" lon="3.17631">
        <ele>510</ele>
        <time>2015-03-29T15:07:12+02:00</time>
      </trkpt>
      <trkpt lat="45.60192" lon="3.17637">
        <ele>511</ele>
        <time>2015-03-29T15:07:12+02:00</time>
      </trkpt>
      <trkpt lat="45.60194" lon="3.17643">
        <ele>511</ele>
        <time>2015-03-29T15:07:12+02:00</time>
      </trkpt>
      <trkpt lat="45.60195" lon="3.17648">
        <ele>511</ele>
        <time>2015-03-29T15:07:12+02:00</time>
      </trkpt>
      <trkpt lat="45.60197" lon="3.17652">
        <ele>511</ele>
        <time>2015-03-29T15:07:12+02:00</time>
      </trkpt>
      <trkpt lat="45.60198" lon="3.17659">
        <ele>511</ele>
        <time>2015-03-29T15:07:12+02:00</time>
      </trkpt>
      <trkpt lat="45.602" lon="3.17665">
        <ele>512</ele>
        <time>2015-03-29T15:07:12+02:00</time>
      </trkpt>
      <trkpt lat="45.60202" lon="3.1767">
        <ele>512</ele>
        <time>2015-03-29T15:07:12+02:00</time>
      </trkpt>
      <trkpt lat="45.60204" lon="3.17675">
        <ele>512</ele>
        <time>2015-03-29T15:07:12+02:00</time>
      </trkpt>
      <trkpt lat="45.60206" lon="3.17681">
        <ele>512</ele>
        <time>2015-03-29T15:07:12+02:00</time>
      </trkpt>
      <trkpt lat="45.60208" lon="3.17687">
        <ele>513</ele>
        <time>2015-03-29T15:07:12+02:00</time>
      </trkpt>
      <trkpt lat="45.60212" lon="3.17693">
        <ele>512</ele>
        <time>2015-03-29T15:07:12+02:00</time>
      </trkpt>
      <trkpt lat="45.60215" lon="3.17698">
        <ele>513</ele>
        <time>2015-03-29T15:07:12+02:00</time>
      </trkpt>
      <trkpt lat="45.60217" lon="3.17703">
        <ele>513</ele>
        <time>2015-03-29T15:07:12+02:00</time>
      </trkpt>
      <trkpt lat="45.6022" lon="3.1771">
        <ele>512</ele>
        <time>2015-03-29T15:07:12+02:00</time>
      </trkpt>
      <trkpt lat="45.60224" lon="3.17715">
        <ele>512</ele>
        <time>2015-03-29T15:07:12+02:00</time>
      </trkpt>
      <trkpt lat="45.60227" lon="3.17718">
        <ele>512</ele>
        <time>2015-03-29T15:07:12+02:00</time>
      </trkpt>
      <trkpt lat="45.60231" lon="3.17721">
        <ele>513</ele>
        <time>2015-03-29T15:07:12+02:00</time>
      </trkpt>
      <trkpt lat="45.60233" lon="3.17725">
        <ele>513</ele>
        <time>2015-03-29T15:07:12+02:00</time>
      </trkpt>
      <trkpt lat="45.60239" lon="3.1773">
        <ele>513</ele>
        <time>2015-03-29T15:07:12+02:00</time>
      </trkpt>
      <trkpt lat="45.60242" lon="3.17735">
        <ele>512</ele>
        <time>2015-03-29T15:07:12+02:00</time>
      </trkpt>
      <trkpt lat="45.60246" lon="3.1774">
        <ele>512</ele>
        <time>2015-03-29T15:07:12+02:00</time>
      </trkpt>
      <trkpt lat="45.6025" lon="3.17744">
        <ele>512</ele>
        <time>2015-03-29T15:07:12+02:00</time>
      </trkpt>
      <trkpt lat="45.60253" lon="3.17752">
        <ele>512</ele>
        <time>2015-03-29T15:07:12+02:00</time>
      </trkpt>
      <trkpt lat="45.60256" lon="3.17757">
        <ele>513</ele>
        <time>2015-03-29T15:07:12+02:00</time>
      </trkpt>
      <trkpt lat="45.60259" lon="3.17762">
        <ele>514</ele>
        <time>2015-03-29T15:07:12+02:00</time>
      </trkpt>
      <trkpt lat="45.60262" lon="3.17769">
        <ele>513</ele>
        <time>2015-03-29T15:07:12+02:00</time>
      </trkpt>
      <trkpt lat="45.60266" lon="3.17775">
        <ele>513</ele>
        <time>2015-03-29T15:07:12+02:00</time>
      </trkpt>
      <trkpt lat="45.60269" lon="3.17781">
        <ele>513</ele>
        <time>2015-03-29T15:07:12+02:00</time>
      </trkpt>
      <trkpt lat="45.60273" lon="3.17788">
        <ele>512</ele>
        <time>2015-03-29T15:07:12+02:00</time>
      </trkpt>
      <trkpt lat="45.60276" lon="3.17793">
        <ele>512</ele>
        <time>2015-03-29T15:07:12+02:00</time>
      </trkpt>
      <trkpt lat="45.60279" lon="3.17799">
        <ele>513</ele>
        <time>2015-03-29T15:07:12+02:00</time>
      </trkpt>
      <trkpt lat="45.60281" lon="3.17805">
        <ele>512</ele>
        <time>2015-03-29T15:07:12+02:00</time>
      </trkpt>
      <trkpt lat="45.60283" lon="3.17811">
        <ele>511</ele>
        <time>2015-03-29T15:07:12+02:00</time>
      </trkpt>
      <trkpt lat="45.60287" lon="3.17815">
        <ele>510</ele>
        <time>2015-03-29T15:07:12+02:00</time>
      </trkpt>
      <trkpt lat="45.60289" lon="3.17823">
        <ele>509</ele>
        <time>2015-03-29T15:07:12+02:00</time>
      </trkpt>
      <trkpt lat="45.6029" lon="3.17827">
        <ele>509</ele>
        <time>2015-03-29T15:07:12+02:00</time>
      </trkpt>
      <trkpt lat="45.60294" lon="3.17833">
        <ele>509</ele>
        <time>2015-03-29T15:07:12+02:00</time>
      </trkpt>
      <trkpt lat="45.60297" lon="3.17837">
        <ele>509</ele>
        <time>2015-03-29T15:07:12+02:00</time>
      </trkpt>
      <trkpt lat="45.603" lon="3.17845">
        <ele>508</ele>
        <time>2015-03-29T15:07:12+02:00</time>
      </trkpt>
      <trkpt lat="45.60302" lon="3.17851">
        <ele>508</ele>
        <time>2015-03-29T15:07:12+02:00</time>
      </trkpt>
      <trkpt lat="45.60304" lon="3.17861">
        <ele>509</ele>
        <time>2015-03-29T15:07:12+02:00</time>
      </trkpt>
      <trkpt lat="45.60305" lon="3.1787">
        <ele>509</ele>
        <time>2015-03-29T15:07:12+02:00</time>
      </trkpt>
      <trkpt lat="45.60309" lon="3.17877">
        <ele>510</ele>
        <time>2015-03-29T15:07:12+02:00</time>
      </trkpt>
      <trkpt lat="45.60311" lon="3.17883">
        <ele>510</ele>
        <time>2015-03-29T15:07:12+02:00</time>
      </trkpt>
      <trkpt lat="45.60314" lon="3.17889">
        <ele>510</ele>
        <time>2015-03-29T15:07:12+02:00</time>
      </trkpt>
      <trkpt lat="45.60316" lon="3.17895">
        <ele>510</ele>
        <time>2015-03-29T15:07:12+02:00</time>
      </trkpt>
      <trkpt lat="45.60318" lon="3.17901">
        <ele>510</ele>
        <time>2015-03-29T15:07:12+02:00</time>
      </trkpt>
      <trkpt lat="45.6032" lon="3.17908">
        <ele>510</ele>
        <time>2015-03-29T15:07:12+02:00</time>
      </trkpt>
      <trkpt lat="45.60324" lon="3.17915">
        <ele>510</ele>
        <time>2015-03-29T15:07:12+02:00</time>
      </trkpt>
      <trkpt lat="45.60325" lon="3.17923">
        <ele>510</ele>
        <time>2015-03-29T15:07:12+02:00</time>
      </trkpt>
      <trkpt lat="45.60329" lon="3.1793">
        <ele>511</ele>
        <time>2015-03-29T15:07:12+02:00</time>
      </trkpt>
      <trkpt lat="45.60332" lon="3.17937">
        <ele>510</ele>
        <time>2015-03-29T15:07:12+02:00</time>
      </trkpt>
      <trkpt lat="45.60337" lon="3.1794">
        <ele>509</ele>
        <time>2015-03-29T15:07:12+02:00</time>
      </trkpt>
      <trkpt lat="45.60341" lon="3.17947">
        <ele>510</ele>
        <time>2015-03-29T15:07:12+02:00</time>
      </trkpt>
      <trkpt lat="45.60345" lon="3.17953">
        <ele>510</ele>
        <time>2015-03-29T15:07:12+02:00</time>
      </trkpt>
      <trkpt lat="45.60349" lon="3.17957">
        <ele>510</ele>
        <time>2015-03-29T15:07:12+02:00</time>
      </trkpt>
      <trkpt lat="45.60355" lon="3.17961">
        <ele>509</ele>
        <time>2015-03-29T15:07:12+02:00</time>
      </trkpt>
      <trkpt lat="45.60357" lon="3.17969">
        <ele>509</ele>
        <time>2015-03-29T15:07:12+02:00</time>
      </trkpt>
      <trkpt lat="45.60361" lon="3.17975">
        <ele>509</ele>
        <time>2015-03-29T15:07:12+02:00</time>
      </trkpt>
      <trkpt lat="45.60365" lon="3.17981">
        <ele>509</ele>
        <time>2015-03-29T15:07:12+02:00</time>
      </trkpt>
      <trkpt lat="45.6037" lon="3.17987">
        <ele>508</ele>
        <time>2015-03-29T15:07:12+02:00</time>
      </trkpt>
      <trkpt lat="45.60375" lon="3.17992">
        <ele>508</ele>
        <time>2015-03-29T15:07:12+02:00</time>
      </trkpt>
      <trkpt lat="45.60378" lon="3.17999">
        <ele>508</ele>
        <time>2015-03-29T15:07:12+02:00</time>
      </trkpt>
      <trkpt lat="45.60382" lon="3.18003">
        <ele>507</ele>
        <time>2015-03-29T15:07:12+02:00</time>
      </trkpt>
      <trkpt lat="45.60385" lon="3.18015">
        <ele>509</ele>
        <time>2015-03-29T15:07:12+02:00</time>
      </trkpt>
      <trkpt lat="45.60389" lon="3.18021">
        <ele>509</ele>
        <time>2015-03-29T15:07:12+02:00</time>
      </trkpt>
      <trkpt lat="45.60392" lon="3.18028">
        <ele>509</ele>
        <time>2015-03-29T15:07:12+02:00</time>
      </trkpt>
      <trkpt lat="45.60395" lon="3.18037">
        <ele>510</ele>
        <time>2015-03-29T15:07:12+02:00</time>
      </trkpt>
      <trkpt lat="45.60398" lon="3.18044">
        <ele>511</ele>
        <time>2015-03-29T15:07:12+02:00</time>
      </trkpt>
      <trkpt lat="45.60401" lon="3.18056">
        <ele>512</ele>
        <time>2015-03-29T15:07:12+02:00</time>
      </trkpt>
      <trkpt lat="45.60406" lon="3.18057">
        <ele>512</ele>
        <time>2015-03-29T15:07:12+02:00</time>
      </trkpt>
      <trkpt lat="45.60409" lon="3.18064">
        <ele>512</ele>
        <time>2015-03-29T15:07:12+02:00</time>
      </trkpt>
      <trkpt lat="45.60413" lon="3.18067">
        <ele>512</ele>
        <time>2015-03-29T15:07:12+02:00</time>
      </trkpt>
      <trkpt lat="45.60417" lon="3.18071">
        <ele>512</ele>
        <time>2015-03-29T15:07:12+02:00</time>
      </trkpt>
      <trkpt lat="45.60419" lon="3.18079">
        <ele>511</ele>
        <time>2015-03-29T15:07:12+02:00</time>
      </trkpt>
      <trkpt lat="45.60422" lon="3.18086">
        <ele>512</ele>
        <time>2015-03-29T15:07:12+02:00</time>
      </trkpt>
      <trkpt lat="45.60425" lon="3.18094">
        <ele>511</ele>
        <time>2015-03-29T15:07:12+02:00</time>
      </trkpt>
      <trkpt lat="45.60428" lon="3.181">
        <ele>511</ele>
        <time>2015-03-29T15:07:12+02:00</time>
      </trkpt>
      <trkpt lat="45.6043" lon="3.18106">
        <ele>511</ele>
        <time>2015-03-29T15:07:12+02:00</time>
      </trkpt>
      <trkpt lat="45.60433" lon="3.1811">
        <ele>511</ele>
        <time>2015-03-29T15:07:12+02:00</time>
      </trkpt>
      <trkpt lat="45.6044" lon="3.18123">
        <ele>510</ele>
        <time>2015-03-29T15:07:12+02:00</time>
      </trkpt>
      <trkpt lat="45.60453" lon="3.18155">
        <ele>511</ele>
        <time>2015-03-29T15:07:12+02:00</time>
      </trkpt>
      <trkpt lat="45.60456" lon="3.18161">
        <ele>512</ele>
        <time>2015-03-29T15:07:12+02:00</time>
      </trkpt>
      <trkpt lat="45.60458" lon="3.18167">
        <ele>511</ele>
        <time>2015-03-29T15:07:12+02:00</time>
      </trkpt>
      <trkpt lat="45.60461" lon="3.18173">
        <ele>511</ele>
        <time>2015-03-29T15:07:12+02:00</time>
      </trkpt>
      <trkpt lat="45.60463" lon="3.18179">
        <ele>512</ele>
        <time>2015-03-29T15:07:12+02:00</time>
      </trkpt>
      <trkpt lat="45.60466" lon="3.18184">
        <ele>512</ele>
        <time>2015-03-29T15:07:12+02:00</time>
      </trkpt>
      <trkpt lat="45.6047" lon="3.18191">
        <ele>512</ele>
        <time>2015-03-29T15:07:12+02:00</time>
      </trkpt>
      <trkpt lat="45.60482" lon="3.18206">
        <ele>511</ele>
        <time>2015-03-29T15:07:12+02:00</time>
      </trkpt>
      <trkpt lat="45.60485" lon="3.18213">
        <ele>509</ele>
        <time>2015-03-29T15:07:12+02:00</time>
      </trkpt>
      <trkpt lat="45.60488" lon="3.18218">
        <ele>510</ele>
        <time>2015-03-29T15:07:12+02:00</time>
      </trkpt>
      <trkpt lat="45.6049" lon="3.18224">
        <ele>511</ele>
        <time>2015-03-29T15:07:12+02:00</time>
      </trkpt>
      <trkpt lat="45.60493" lon="3.18231">
        <ele>511</ele>
        <time>2015-03-29T15:07:12+02:00</time>
      </trkpt>
      <trkpt lat="45.60496" lon="3.18238">
        <ele>512</ele>
        <time>2015-03-29T15:07:12+02:00</time>
      </trkpt>
      <trkpt lat="45.60499" lon="3.18244">
        <ele>511</ele>
        <time>2015-03-29T15:07:12+02:00</time>
      </trkpt>
      <trkpt lat="45.60502" lon="3.1825">
        <ele>510</ele>
        <time>2015-03-29T15:07:12+02:00</time>
      </trkpt>
      <trkpt lat="45.60504" lon="3.18256">
        <ele>510</ele>
        <time>2015-03-29T15:07:12+02:00</time>
      </trkpt>
      <trkpt lat="45.60507" lon="3.18262">
        <ele>511</ele>
        <time>2015-03-29T15:07:12+02:00</time>
      </trkpt>
      <trkpt lat="45.6051" lon="3.18266">
        <ele>510</ele>
        <time>2015-03-29T15:07:12+02:00</time>
      </trkpt>
      <trkpt lat="45.60513" lon="3.18271">
        <ele>509</ele>
        <time>2015-03-29T15:07:12+02:00</time>
      </trkpt>
      <trkpt lat="45.60515" lon="3.18276">
        <ele>509</ele>
        <time>2015-03-29T15:07:12+02:00</time>
      </trkpt>
      <trkpt lat="45.60518" lon="3.18281">
        <ele>508</ele>
        <time>2015-03-29T15:07:12+02:00</time>
      </trkpt>
      <trkpt lat="45.60521" lon="3.18285">
        <ele>508</ele>
        <time>2015-03-29T15:07:12+02:00</time>
      </trkpt>
      <trkpt lat="45.60523" lon="3.1829">
        <ele>510</ele>
        <time>2015-03-29T15:07:12+02:00</time>
      </trkpt>
      <trkpt lat="45.60526" lon="3.18296">
        <ele>509</ele>
        <time>2015-03-29T15:07:12+02:00</time>
      </trkpt>
      <trkpt lat="45.60528" lon="3.18299">
        <ele>509</ele>
        <time>2015-03-29T15:07:12+02:00</time>
      </trkpt>
      <trkpt lat="45.60531" lon="3.18304">
        <ele>509</ele>
        <time>2015-03-29T15:07:12+02:00</time>
      </trkpt>
      <trkpt lat="45.60533" lon="3.18308">
        <ele>509</ele>
        <time>2015-03-29T15:07:12+02:00</time>
      </trkpt>
      <trkpt lat="45.60535" lon="3.18312">
        <ele>509</ele>
        <time>2015-03-29T15:07:12+02:00</time>
      </trkpt>
      <trkpt lat="45.60537" lon="3.18316">
        <ele>509</ele>
        <time>2015-03-29T15:07:12+02:00</time>
      </trkpt>
      <trkpt lat="45.60538" lon="3.18321">
        <ele>508</ele>
        <time>2015-03-29T15:07:12+02:00</time>
      </trkpt>
      <trkpt lat="45.6054" lon="3.18325">
        <ele>508</ele>
        <time>2015-03-29T15:07:12+02:00</time>
      </trkpt>
      <trkpt lat="45.60541" lon="3.1833">
        <ele>508</ele>
        <time>2015-03-29T15:07:12+02:00</time>
      </trkpt>
      <trkpt lat="45.60543" lon="3.18335">
        <ele>508</ele>
        <time>2015-03-29T15:07:12+02:00</time>
      </trkpt>
      <trkpt lat="45.60545" lon="3.1834">
        <ele>508</ele>
        <time>2015-03-29T15:07:12+02:00</time>
      </trkpt>
      <trkpt lat="45.60547" lon="3.18345">
        <ele>508</ele>
        <time>2015-03-29T15:07:12+02:00</time>
      </trkpt>
      <trkpt lat="45.6055" lon="3.1835">
        <ele>507</ele>
        <time>2015-03-29T15:09:20+02:00</time>
      </trkpt>
      <trkpt lat="45.60552" lon="3.18355">
        <ele>507</ele>
        <time>2015-03-29T15:09:20+02:00</time>
      </trkpt>
      <trkpt lat="45.60553" lon="3.18361">
        <ele>506</ele>
        <time>2015-03-29T15:09:20+02:00</time>
      </trkpt>
      <trkpt lat="45.60556" lon="3.18367">
        <ele>506</ele>
        <time>2015-03-29T15:09:20+02:00</time>
      </trkpt>
      <trkpt lat="45.60559" lon="3.18373">
        <ele>506</ele>
        <time>2015-03-29T15:09:20+02:00</time>
      </trkpt>
      <trkpt lat="45.60562" lon="3.18379">
        <ele>505</ele>
        <time>2015-03-29T15:09:20+02:00</time>
      </trkpt>
      <trkpt lat="45.60565" lon="3.18385">
        <ele>506</ele>
        <time>2015-03-29T15:09:20+02:00</time>
      </trkpt>
      <trkpt lat="45.60567" lon="3.18391">
        <ele>505</ele>
        <time>2015-03-29T15:09:20+02:00</time>
      </trkpt>
      <trkpt lat="45.6057" lon="3.18397">
        <ele>505</ele>
        <time>2015-03-29T15:09:20+02:00</time>
      </trkpt>
      <trkpt lat="45.60573" lon="3.18403">
        <ele>505</ele>
        <time>2015-03-29T15:09:20+02:00</time>
      </trkpt>
      <trkpt lat="45.60575" lon="3.18408">
        <ele>505</ele>
        <time>2015-03-29T15:09:20+02:00</time>
      </trkpt>
      <trkpt lat="45.60577" lon="3.18414">
        <ele>505</ele>
        <time>2015-03-29T15:09:20+02:00</time>
      </trkpt>
      <trkpt lat="45.60581" lon="3.1842">
        <ele>505</ele>
        <time>2015-03-29T15:09:20+02:00</time>
      </trkpt>
      <trkpt lat="45.60584" lon="3.18426">
        <ele>504</ele>
        <time>2015-03-29T15:09:20+02:00</time>
      </trkpt>
      <trkpt lat="45.60587" lon="3.18432">
        <ele>504</ele>
        <time>2015-03-29T15:09:20+02:00</time>
      </trkpt>
      <trkpt lat="45.6059" lon="3.18437">
        <ele>504</ele>
        <time>2015-03-29T15:09:20+02:00</time>
      </trkpt>
      <trkpt lat="45.60593" lon="3.18441">
        <ele>504</ele>
        <time>2015-03-29T15:09:20+02:00</time>
      </trkpt>
      <trkpt lat="45.60596" lon="3.18446">
        <ele>505</ele>
        <time>2015-03-29T15:09:20+02:00</time>
      </trkpt>
      <trkpt lat="45.606" lon="3.18451">
        <ele>504</ele>
        <time>2015-03-29T15:09:20+02:00</time>
      </trkpt>
      <trkpt lat="45.60602" lon="3.18455">
        <ele>504</ele>
        <time>2015-03-29T15:09:20+02:00</time>
      </trkpt>
      <trkpt lat="45.60606" lon="3.18461">
        <ele>504</ele>
        <time>2015-03-29T15:09:20+02:00</time>
      </trkpt>
      <trkpt lat="45.6061" lon="3.18465">
        <ele>505</ele>
        <time>2015-03-29T15:09:20+02:00</time>
      </trkpt>
      <trkpt lat="45.60613" lon="3.18469">
        <ele>504</ele>
        <time>2015-03-29T15:09:20+02:00</time>
      </trkpt>
      <trkpt lat="45.60615" lon="3.18473">
        <ele>504</ele>
        <time>2015-03-29T15:09:20+02:00</time>
      </trkpt>
      <trkpt lat="45.60618" lon="3.18479">
        <ele>504</ele>
        <time>2015-03-29T15:09:20+02:00</time>
      </trkpt>
      <trkpt lat="45.6062" lon="3.18482">
        <ele>504</ele>
        <time>2015-03-29T15:09:20+02:00</time>
      </trkpt>
      <trkpt lat="45.60622" lon="3.18485">
        <ele>504</ele>
        <time>2015-03-29T15:09:20+02:00</time>
      </trkpt>
      <trkpt lat="45.60625" lon="3.18489">
        <ele>505</ele>
        <time>2015-03-29T15:09:20+02:00</time>
      </trkpt>
      <trkpt lat="45.60627" lon="3.18491">
        <ele>505</ele>
        <time>2015-03-29T15:09:20+02:00</time>
      </trkpt>
      <trkpt lat="45.60628" lon="3.18495">
        <ele>505</ele>
        <time>2015-03-29T15:09:20+02:00</time>
      </trkpt>
      <trkpt lat="45.6063" lon="3.18498">
        <ele>506</ele>
        <time>2015-03-29T15:09:20+02:00</time>
      </trkpt>
      <trkpt lat="45.60632" lon="3.185">
        <ele>506</ele>
        <time>2015-03-29T15:09:20+02:00</time>
      </trkpt>
      <trkpt lat="45.60635" lon="3.18503">
        <ele>504</ele>
        <time>2015-03-29T15:09:20+02:00</time>
      </trkpt>
      <trkpt lat="45.60637" lon="3.18506">
        <ele>504</ele>
        <time>2015-03-29T15:09:20+02:00</time>
      </trkpt>
      <trkpt lat="45.6064" lon="3.18509">
        <ele>504</ele>
        <time>2015-03-29T15:09:20+02:00</time>
      </trkpt>
      <trkpt lat="45.60642" lon="3.18513">
        <ele>504</ele>
        <time>2015-03-29T15:09:20+02:00</time>
      </trkpt>
      <trkpt lat="45.60645" lon="3.18516">
        <ele>504</ele>
        <time>2015-03-29T15:09:20+02:00</time>
      </trkpt>
      <trkpt lat="45.60648" lon="3.1852">
        <ele>503</ele>
        <time>2015-03-29T15:09:20+02:00</time>
      </trkpt>
      <trkpt lat="45.60651" lon="3.18524">
        <ele>503</ele>
        <time>2015-03-29T15:09:20+02:00</time>
      </trkpt>
      <trkpt lat="45.60653" lon="3.18527">
        <ele>503</ele>
        <time>2015-03-29T15:09:20+02:00</time>
      </trkpt>
      <trkpt lat="45.60656" lon="3.18531">
        <ele>502</ele>
        <time>2015-03-29T15:09:20+02:00</time>
      </trkpt>
      <trkpt lat="45.60658" lon="3.18535">
        <ele>502</ele>
        <time>2015-03-29T15:09:20+02:00</time>
      </trkpt>
      <trkpt lat="45.60661" lon="3.18539">
        <ele>502</ele>
        <time>2015-03-29T15:09:20+02:00</time>
      </trkpt>
      <trkpt lat="45.60664" lon="3.18542">
        <ele>502</ele>
        <time>2015-03-29T15:09:20+02:00</time>
      </trkpt>
      <trkpt lat="45.60666" lon="3.18545">
        <ele>502</ele>
        <time>2015-03-29T15:09:20+02:00</time>
      </trkpt>
      <trkpt lat="45.60669" lon="3.18548">
        <ele>502</ele>
        <time>2015-03-29T15:09:20+02:00</time>
      </trkpt>
      <trkpt lat="45.60671" lon="3.1855">
        <ele>502</ele>
        <time>2015-03-29T15:09:20+02:00</time>
      </trkpt>
      <trkpt lat="45.60674" lon="3.18553">
        <ele>503</ele>
        <time>2015-03-29T15:09:20+02:00</time>
      </trkpt>
      <trkpt lat="45.60676" lon="3.18556">
        <ele>503</ele>
        <time>2015-03-29T15:09:20+02:00</time>
      </trkpt>
      <trkpt lat="45.6068" lon="3.18558">
        <ele>500</ele>
        <time>2015-03-29T15:09:20+02:00</time>
      </trkpt>
      <trkpt lat="45.60684" lon="3.18561">
        <ele>500</ele>
        <time>2015-03-29T15:09:20+02:00</time>
      </trkpt>
      <trkpt lat="45.60685" lon="3.18566">
        <ele>500</ele>
        <time>2015-03-29T15:09:20+02:00</time>
      </trkpt>
      <trkpt lat="45.60688" lon="3.1857">
        <ele>499</ele>
        <time>2015-03-29T15:09:20+02:00</time>
      </trkpt>
      <trkpt lat="45.6069" lon="3.18574">
        <ele>499</ele>
        <time>2015-03-29T15:09:20+02:00</time>
      </trkpt>
      <trkpt lat="45.60693" lon="3.18578">
        <ele>499</ele>
        <time>2015-03-29T15:09:20+02:00</time>
      </trkpt>
      <trkpt lat="45.60696" lon="3.18582">
        <ele>498</ele>
        <time>2015-03-29T15:09:20+02:00</time>
      </trkpt>
      <trkpt lat="45.60699" lon="3.18586">
        <ele>498</ele>
        <time>2015-03-29T15:09:20+02:00</time>
      </trkpt>
      <trkpt lat="45.60703" lon="3.1859">
        <ele>498</ele>
        <time>2015-03-29T15:09:20+02:00</time>
      </trkpt>
      <trkpt lat="45.60706" lon="3.18594">
        <ele>499</ele>
        <time>2015-03-29T15:09:20+02:00</time>
      </trkpt>
      <trkpt lat="45.60709" lon="3.18599">
        <ele>499</ele>
        <time>2015-03-29T15:09:20+02:00</time>
      </trkpt>
      <trkpt lat="45.60712" lon="3.18603">
        <ele>499</ele>
        <time>2015-03-29T15:09:20+02:00</time>
      </trkpt>
      <trkpt lat="45.60715" lon="3.18609">
        <ele>499</ele>
        <time>2015-03-29T15:09:20+02:00</time>
      </trkpt>
      <trkpt lat="45.60719" lon="3.18614">
        <ele>499</ele>
        <time>2015-03-29T15:09:20+02:00</time>
      </trkpt>
      <trkpt lat="45.60722" lon="3.18619">
        <ele>499</ele>
        <time>2015-03-29T15:09:20+02:00</time>
      </trkpt>
      <trkpt lat="45.60724" lon="3.18625">
        <ele>499</ele>
        <time>2015-03-29T15:09:20+02:00</time>
      </trkpt>
      <trkpt lat="45.60728" lon="3.18629">
        <ele>499</ele>
        <time>2015-03-29T15:09:20+02:00</time>
      </trkpt>
      <trkpt lat="45.60731" lon="3.18634">
        <ele>499</ele>
        <time>2015-03-29T15:09:20+02:00</time>
      </trkpt>
      <trkpt lat="45.60733" lon="3.18638">
        <ele>499</ele>
        <time>2015-03-29T15:09:20+02:00</time>
      </trkpt>
      <trkpt lat="45.60736" lon="3.18642">
        <ele>499</ele>
        <time>2015-03-29T15:09:20+02:00</time>
      </trkpt>
      <trkpt lat="45.60739" lon="3.18646">
        <ele>498</ele>
        <time>2015-03-29T15:09:20+02:00</time>
      </trkpt>
      <trkpt lat="45.60742" lon="3.18649">
        <ele>498</ele>
        <time>2015-03-29T15:09:20+02:00</time>
      </trkpt>
      <trkpt lat="45.60744" lon="3.18653">
        <ele>498</ele>
        <time>2015-03-29T15:09:20+02:00</time>
      </trkpt>
      <trkpt lat="45.60746" lon="3.18659">
        <ele>498</ele>
        <time>2015-03-29T15:09:20+02:00</time>
      </trkpt>
      <trkpt lat="45.60749" lon="3.18663">
        <ele>499</ele>
        <time>2015-03-29T15:09:20+02:00</time>
      </trkpt>
      <trkpt lat="45.60752" lon="3.18668">
        <ele>498</ele>
        <time>2015-03-29T15:09:20+02:00</time>
      </trkpt>
      <trkpt lat="45.60754" lon="3.18674">
        <ele>497</ele>
        <time>2015-03-29T15:09:20+02:00</time>
      </trkpt>
      <trkpt lat="45.60757" lon="3.1868">
        <ele>498</ele>
        <time>2015-03-29T15:09:20+02:00</time>
      </trkpt>
      <trkpt lat="45.60759" lon="3.18686">
        <ele>498</ele>
        <time>2015-03-29T15:09:20+02:00</time>
      </trkpt>
      <trkpt lat="45.6076" lon="3.18692">
        <ele>498</ele>
        <time>2015-03-29T15:09:20+02:00</time>
      </trkpt>
      <trkpt lat="45.60763" lon="3.18697">
        <ele>497</ele>
        <time>2015-03-29T15:09:20+02:00</time>
      </trkpt>
      <trkpt lat="45.60764" lon="3.18703">
        <ele>497</ele>
        <time>2015-03-29T15:09:20+02:00</time>
      </trkpt>
      <trkpt lat="45.60767" lon="3.18707">
        <ele>498</ele>
        <time>2015-03-29T15:09:20+02:00</time>
      </trkpt>
      <trkpt lat="45.6077" lon="3.18712">
        <ele>497</ele>
        <time>2015-03-29T15:09:20+02:00</time>
      </trkpt>
      <trkpt lat="45.60772" lon="3.18717">
        <ele>497</ele>
        <time>2015-03-29T15:09:20+02:00</time>
      </trkpt>
      <trkpt lat="45.60774" lon="3.18722">
        <ele>496</ele>
        <time>2015-03-29T15:09:20+02:00</time>
      </trkpt>
      <trkpt lat="45.60776" lon="3.18727">
        <ele>497</ele>
        <time>2015-03-29T15:09:20+02:00</time>
      </trkpt>
      <trkpt lat="45.60778" lon="3.18733">
        <ele>497</ele>
        <time>2015-03-29T15:09:20+02:00</time>
      </trkpt>
      <trkpt lat="45.60778" lon="3.1874">
        <ele>498</ele>
        <time>2015-03-29T15:09:20+02:00</time>
      </trkpt>
      <trkpt lat="45.6078" lon="3.18745">
        <ele>499</ele>
        <time>2015-03-29T15:09:20+02:00</time>
      </trkpt>
      <trkpt lat="45.60783" lon="3.1875">
        <ele>499</ele>
        <time>2015-03-29T15:09:20+02:00</time>
      </trkpt>
      <trkpt lat="45.60786" lon="3.18757">
        <ele>497</ele>
        <time>2015-03-29T15:09:20+02:00</time>
      </trkpt>
      <trkpt lat="45.60789" lon="3.18763">
        <ele>497</ele>
        <time>2015-03-29T15:09:20+02:00</time>
      </trkpt>
      <trkpt lat="45.60791" lon="3.1877">
        <ele>497</ele>
        <time>2015-03-29T15:09:20+02:00</time>
      </trkpt>
      <trkpt lat="45.60793" lon="3.18776">
        <ele>497</ele>
        <time>2015-03-29T15:09:20+02:00</time>
      </trkpt>
      <trkpt lat="45.60795" lon="3.18783">
        <ele>497</ele>
        <time>2015-03-29T15:09:20+02:00</time>
      </trkpt>
      <trkpt lat="45.60798" lon="3.18788">
        <ele>498</ele>
        <time>2015-03-29T15:09:20+02:00</time>
      </trkpt>
      <trkpt lat="45.60799" lon="3.18793">
        <ele>498</ele>
        <time>2015-03-29T15:09:20+02:00</time>
      </trkpt>
      <trkpt lat="45.60802" lon="3.18799">
        <ele>498</ele>
        <time>2015-03-29T15:09:20+02:00</time>
      </trkpt>
      <trkpt lat="45.60803" lon="3.18805">
        <ele>499</ele>
        <time>2015-03-29T15:09:20+02:00</time>
      </trkpt>
      <trkpt lat="45.60804" lon="3.18811">
        <ele>500</ele>
        <time>2015-03-29T15:09:20+02:00</time>
      </trkpt>
      <trkpt lat="45.60807" lon="3.18816">
        <ele>500</ele>
        <time>2015-03-29T15:09:20+02:00</time>
      </trkpt>
      <trkpt lat="45.60808" lon="3.18822">
        <ele>500</ele>
        <time>2015-03-29T15:09:20+02:00</time>
      </trkpt>
      <trkpt lat="45.6081" lon="3.18828">
        <ele>500</ele>
        <time>2015-03-29T15:09:20+02:00</time>
      </trkpt>
      <trkpt lat="45.60811" lon="3.18835">
        <ele>500</ele>
        <time>2015-03-29T15:09:20+02:00</time>
      </trkpt>
      <trkpt lat="45.60815" lon="3.18842">
        <ele>499</ele>
        <time>2015-03-29T15:09:20+02:00</time>
      </trkpt>
      <trkpt lat="45.60817" lon="3.18847">
        <ele>498</ele>
        <time>2015-03-29T15:09:20+02:00</time>
      </trkpt>
      <trkpt lat="45.60819" lon="3.18853">
        <ele>497</ele>
        <time>2015-03-29T15:09:20+02:00</time>
      </trkpt>
      <trkpt lat="45.60822" lon="3.18859">
        <ele>496</ele>
        <time>2015-03-29T15:09:20+02:00</time>
      </trkpt>
      <trkpt lat="45.60824" lon="3.18864">
        <ele>496</ele>
        <time>2015-03-29T15:09:20+02:00</time>
      </trkpt>
      <trkpt lat="45.60826" lon="3.18869">
        <ele>496</ele>
        <time>2015-03-29T15:09:20+02:00</time>
      </trkpt>
      <trkpt lat="45.60827" lon="3.18874">
        <ele>496</ele>
        <time>2015-03-29T15:09:20+02:00</time>
      </trkpt>
      <trkpt lat="45.60829" lon="3.1888">
        <ele>496</ele>
        <time>2015-03-29T15:09:20+02:00</time>
      </trkpt>
      <trkpt lat="45.60831" lon="3.18885">
        <ele>496</ele>
        <time>2015-03-29T15:09:20+02:00</time>
      </trkpt>
      <trkpt lat="45.60833" lon="3.18891">
        <ele>496</ele>
        <time>2015-03-29T15:09:20+02:00</time>
      </trkpt>
      <trkpt lat="45.60834" lon="3.18896">
        <ele>496</ele>
        <time>2015-03-29T15:09:20+02:00</time>
      </trkpt>
      <trkpt lat="45.60836" lon="3.18901">
        <ele>495</ele>
        <time>2015-03-29T15:09:20+02:00</time>
      </trkpt>
      <trkpt lat="45.60838" lon="3.18906">
        <ele>495</ele>
        <time>2015-03-29T15:09:20+02:00</time>
      </trkpt>
      <trkpt lat="45.6084" lon="3.18912">
        <ele>496</ele>
        <time>2015-03-29T15:09:20+02:00</time>
      </trkpt>
      <trkpt lat="45.60842" lon="3.18917">
        <ele>495</ele>
        <time>2015-03-29T15:09:20+02:00</time>
      </trkpt>
      <trkpt lat="45.60844" lon="3.18922">
        <ele>495</ele>
        <time>2015-03-29T15:09:20+02:00</time>
      </trkpt>
      <trkpt lat="45.60846" lon="3.18927">
        <ele>495</ele>
        <time>2015-03-29T15:09:20+02:00</time>
      </trkpt>
      <trkpt lat="45.60849" lon="3.18933">
        <ele>495</ele>
        <time>2015-03-29T15:09:20+02:00</time>
      </trkpt>
      <trkpt lat="45.6085" lon="3.18939">
        <ele>495</ele>
        <time>2015-03-29T15:09:20+02:00</time>
      </trkpt>
      <trkpt lat="45.60852" lon="3.18944">
        <ele>495</ele>
        <time>2015-03-29T15:09:20+02:00</time>
      </trkpt>
      <trkpt lat="45.60854" lon="3.18949">
        <ele>495</ele>
        <time>2015-03-29T15:09:20+02:00</time>
      </trkpt>
      <trkpt lat="45.60856" lon="3.18955">
        <ele>495</ele>
        <time>2015-03-29T15:09:20+02:00</time>
      </trkpt>
      <trkpt lat="45.60858" lon="3.18961">
        <ele>496</ele>
        <time>2015-03-29T15:11:28+02:00</time>
      </trkpt>
      <trkpt lat="45.6086" lon="3.18966">
        <ele>495</ele>
        <time>2015-03-29T15:11:28+02:00</time>
      </trkpt>
      <trkpt lat="45.60863" lon="3.18971">
        <ele>495</ele>
        <time>2015-03-29T15:11:28+02:00</time>
      </trkpt>
      <trkpt lat="45.60865" lon="3.18976">
        <ele>495</ele>
        <time>2015-03-29T15:11:28+02:00</time>
      </trkpt>
      <trkpt lat="45.60867" lon="3.18981">
        <ele>495</ele>
        <time>2015-03-29T15:11:28+02:00</time>
      </trkpt>
      <trkpt lat="45.60869" lon="3.18986">
        <ele>495</ele>
        <time>2015-03-29T15:11:28+02:00</time>
      </trkpt>
      <trkpt lat="45.60871" lon="3.1899">
        <ele>495</ele>
        <time>2015-03-29T15:11:28+02:00</time>
      </trkpt>
      <trkpt lat="45.60874" lon="3.18995">
        <ele>495</ele>
        <time>2015-03-29T15:11:28+02:00</time>
      </trkpt>
      <trkpt lat="45.60876" lon="3.18999">
        <ele>495</ele>
        <time>2015-03-29T15:11:28+02:00</time>
      </trkpt>
      <trkpt lat="45.60879" lon="3.19002">
        <ele>496</ele>
        <time>2015-03-29T15:11:28+02:00</time>
      </trkpt>
      <trkpt lat="45.60885" lon="3.18996">
        <ele>495</ele>
        <time>2015-03-29T15:11:28+02:00</time>
      </trkpt>
      <trkpt lat="45.60889" lon="3.18993">
        <ele>495</ele>
        <time>2015-03-29T15:11:28+02:00</time>
      </trkpt>
      <trkpt lat="45.60893" lon="3.1899">
        <ele>495</ele>
        <time>2015-03-29T15:11:28+02:00</time>
      </trkpt>
      <trkpt lat="45.60896" lon="3.18986">
        <ele>496</ele>
        <time>2015-03-29T15:11:28+02:00</time>
      </trkpt>
      <trkpt lat="45.60901" lon="3.18983">
        <ele>496</ele>
        <time>2015-03-29T15:11:28+02:00</time>
      </trkpt>
      <trkpt lat="45.60906" lon="3.18979">
        <ele>496</ele>
        <time>2015-03-29T15:11:28+02:00</time>
      </trkpt>
      <trkpt lat="45.60987" lon="3.18914">
        <ele>496</ele>
        <time>2015-03-29T15:11:28+02:00</time>
      </trkpt>
      <trkpt lat="45.60993" lon="3.18908">
        <ele>495</ele>
        <time>2015-03-29T15:11:28+02:00</time>
      </trkpt>
      <trkpt lat="45.60998" lon="3.18903">
        <ele>495</ele>
        <time>2015-03-29T15:11:28+02:00</time>
      </trkpt>
      <trkpt lat="45.61003" lon="3.189">
        <ele>496</ele>
        <time>2015-03-29T15:11:28+02:00</time>
      </trkpt>
      <trkpt lat="45.61007" lon="3.18896">
        <ele>496</ele>
        <time>2015-03-29T15:11:28+02:00</time>
      </trkpt>
      <trkpt lat="45.61011" lon="3.18894">
        <ele>496</ele>
        <time>2015-03-29T15:11:28+02:00</time>
      </trkpt>
      <trkpt lat="45.61016" lon="3.18891">
        <ele>496</ele>
        <time>2015-03-29T15:11:28+02:00</time>
      </trkpt>
      <trkpt lat="45.6102" lon="3.18887">
        <ele>496</ele>
        <time>2015-03-29T15:11:28+02:00</time>
      </trkpt>
      <trkpt lat="45.61024" lon="3.18882">
        <ele>497</ele>
        <time>2015-03-29T15:11:28+02:00</time>
      </trkpt>
      <trkpt lat="45.61028" lon="3.18877">
        <ele>497</ele>
        <time>2015-03-29T15:11:28+02:00</time>
      </trkpt>
      <trkpt lat="45.61032" lon="3.18872">
        <ele>497</ele>
        <time>2015-03-29T15:11:28+02:00</time>
      </trkpt>
      <trkpt lat="45.61037" lon="3.18868">
        <ele>497</ele>
        <time>2015-03-29T15:11:28+02:00</time>
      </trkpt>
      <trkpt lat="45.61041" lon="3.18864">
        <ele>497</ele>
        <time>2015-03-29T15:11:28+02:00</time>
      </trkpt>
      <trkpt lat="45.61046" lon="3.18862">
        <ele>497</ele>
        <time>2015-03-29T15:11:28+02:00</time>
      </trkpt>
      <trkpt lat="45.61051" lon="3.18859">
        <ele>497</ele>
        <time>2015-03-29T15:11:28+02:00</time>
      </trkpt>
      <trkpt lat="45.61057" lon="3.18856">
        <ele>497</ele>
        <time>2015-03-29T15:11:28+02:00</time>
      </trkpt>
      <trkpt lat="45.61062" lon="3.18852">
        <ele>496</ele>
        <time>2015-03-29T15:11:28+02:00</time>
      </trkpt>
      <trkpt lat="45.61068" lon="3.18847">
        <ele>496</ele>
        <time>2015-03-29T15:11:28+02:00</time>
      </trkpt>
      <trkpt lat="45.61073" lon="3.18841">
        <ele>496</ele>
        <time>2015-03-29T15:11:28+02:00</time>
      </trkpt>
      <trkpt lat="45.61078" lon="3.18838">
        <ele>497</ele>
        <time>2015-03-29T15:11:28+02:00</time>
      </trkpt>
      <trkpt lat="45.61083" lon="3.18834">
        <ele>497</ele>
        <time>2015-03-29T15:11:28+02:00</time>
      </trkpt>
      <trkpt lat="45.61088" lon="3.18831">
        <ele>498</ele>
        <time>2015-03-29T15:11:28+02:00</time>
      </trkpt>
      <trkpt lat="45.61093" lon="3.18826">
        <ele>498</ele>
        <time>2015-03-29T15:11:28+02:00</time>
      </trkpt>
      <trkpt lat="45.61098" lon="3.18822">
        <ele>498</ele>
        <time>2015-03-29T15:11:28+02:00</time>
      </trkpt>
      <trkpt lat="45.61105" lon="3.18816">
        <ele>498</ele>
        <time>2015-03-29T15:11:28+02:00</time>
      </trkpt>
      <trkpt lat="45.61111" lon="3.1881">
        <ele>499</ele>
        <time>2015-03-29T15:11:28+02:00</time>
      </trkpt>
      <trkpt lat="45.61118" lon="3.18806">
        <ele>499</ele>
        <time>2015-03-29T15:11:28+02:00</time>
      </trkpt>
      <trkpt lat="45.61124" lon="3.18799">
        <ele>500</ele>
        <time>2015-03-29T15:11:28+02:00</time>
      </trkpt>
      <trkpt lat="45.6113" lon="3.18794">
        <ele>500</ele>
        <time>2015-03-29T15:11:28+02:00</time>
      </trkpt>
      <trkpt lat="45.61135" lon="3.18791">
        <ele>502</ele>
        <time>2015-03-29T15:11:28+02:00</time>
      </trkpt>
      <trkpt lat="45.61141" lon="3.18788">
        <ele>502</ele>
        <time>2015-03-29T15:11:28+02:00</time>
      </trkpt>
      <trkpt lat="45.61148" lon="3.18783">
        <ele>502</ele>
        <time>2015-03-29T15:11:28+02:00</time>
      </trkpt>
      <trkpt lat="45.61154" lon="3.18777">
        <ele>503</ele>
        <time>2015-03-29T15:11:28+02:00</time>
      </trkpt>
      <trkpt lat="45.61161" lon="3.18773">
        <ele>503</ele>
        <time>2015-03-29T15:11:28+02:00</time>
      </trkpt>
      <trkpt lat="45.61168" lon="3.18766">
        <ele>503</ele>
        <time>2015-03-29T15:11:28+02:00</time>
      </trkpt>
      <trkpt lat="45.61174" lon="3.18759">
        <ele>503</ele>
        <time>2015-03-29T15:11:28+02:00</time>
      </trkpt>
      <trkpt lat="45.6118" lon="3.18753">
        <ele>504</ele>
        <time>2015-03-29T15:11:28+02:00</time>
      </trkpt>
      <trkpt lat="45.61187" lon="3.18746">
        <ele>503</ele>
        <time>2015-03-29T15:11:28+02:00</time>
      </trkpt>
      <trkpt lat="45.61195" lon="3.18742">
        <ele>503</ele>
        <time>2015-03-29T15:11:28+02:00</time>
      </trkpt>
      <trkpt lat="45.61203" lon="3.18735">
        <ele>502</ele>
        <time>2015-03-29T15:11:28+02:00</time>
      </trkpt>
      <trkpt lat="45.6121" lon="3.18729">
        <ele>503</ele>
        <time>2015-03-29T15:11:28+02:00</time>
      </trkpt>
      <trkpt lat="45.61218" lon="3.18723">
        <ele>502</ele>
        <time>2015-03-29T15:11:28+02:00</time>
      </trkpt>
      <trkpt lat="45.61225" lon="3.18716">
        <ele>503</ele>
        <time>2015-03-29T15:11:28+02:00</time>
      </trkpt>
      <trkpt lat="45.61234" lon="3.18709">
        <ele>503</ele>
        <time>2015-03-29T15:11:28+02:00</time>
      </trkpt>
      <trkpt lat="45.6124" lon="3.18704">
        <ele>503</ele>
        <time>2015-03-29T15:11:28+02:00</time>
      </trkpt>
      <trkpt lat="45.61247" lon="3.18699">
        <ele>503</ele>
        <time>2015-03-29T15:11:28+02:00</time>
      </trkpt>
      <trkpt lat="45.61254" lon="3.18693">
        <ele>503</ele>
        <time>2015-03-29T15:11:28+02:00</time>
      </trkpt>
      <trkpt lat="45.61261" lon="3.18688">
        <ele>503</ele>
        <time>2015-03-29T15:11:28+02:00</time>
      </trkpt>
      <trkpt lat="45.61266" lon="3.18683">
        <ele>503</ele>
        <time>2015-03-29T15:11:28+02:00</time>
      </trkpt>
      <trkpt lat="45.61271" lon="3.18678">
        <ele>503</ele>
        <time>2015-03-29T15:11:28+02:00</time>
      </trkpt>
      <trkpt lat="45.61277" lon="3.18673">
        <ele>503</ele>
        <time>2015-03-29T15:11:28+02:00</time>
      </trkpt>
      <trkpt lat="45.61281" lon="3.18669">
        <ele>504</ele>
        <time>2015-03-29T15:11:28+02:00</time>
      </trkpt>
      <trkpt lat="45.61286" lon="3.18665">
        <ele>504</ele>
        <time>2015-03-29T15:11:28+02:00</time>
      </trkpt>
      <trkpt lat="45.6129" lon="3.18662">
        <ele>505</ele>
        <time>2015-03-29T15:11:28+02:00</time>
      </trkpt>
      <trkpt lat="45.61294" lon="3.1866">
        <ele>505</ele>
        <time>2015-03-29T15:11:28+02:00</time>
      </trkpt>
      <trkpt lat="45.61296" lon="3.1866">
        <ele>506</ele>
        <time>2015-03-29T15:11:28+02:00</time>
      </trkpt>
      <trkpt lat="45.613" lon="3.18658">
        <ele>506</ele>
        <time>2015-03-29T15:11:28+02:00</time>
      </trkpt>
      <trkpt lat="45.61303" lon="3.18661">
        <ele>505</ele>
        <time>2015-03-29T15:11:28+02:00</time>
      </trkpt>
      <trkpt lat="45.61305" lon="3.18665">
        <ele>505</ele>
        <time>2015-03-29T15:11:28+02:00</time>
      </trkpt>
      <trkpt lat="45.61308" lon="3.18669">
        <ele>506</ele>
        <time>2015-03-29T15:11:28+02:00</time>
      </trkpt>
      <trkpt lat="45.61309" lon="3.18674">
        <ele>506</ele>
        <time>2015-03-29T15:11:28+02:00</time>
      </trkpt>
      <trkpt lat="45.61311" lon="3.1868">
        <ele>506</ele>
        <time>2015-03-29T15:11:28+02:00</time>
      </trkpt>
      <trkpt lat="45.61314" lon="3.18685">
        <ele>506</ele>
        <time>2015-03-29T15:11:28+02:00</time>
      </trkpt>
      <trkpt lat="45.61316" lon="3.1869">
        <ele>506</ele>
        <time>2015-03-29T15:11:28+02:00</time>
      </trkpt>
      <trkpt lat="45.61318" lon="3.18696">
        <ele>506</ele>
        <time>2015-03-29T15:11:28+02:00</time>
      </trkpt>
      <trkpt lat="45.61321" lon="3.18701">
        <ele>506</ele>
        <time>2015-03-29T15:11:28+02:00</time>
      </trkpt>
      <trkpt lat="45.61322" lon="3.18707">
        <ele>506</ele>
        <time>2015-03-29T15:11:28+02:00</time>
      </trkpt>
      <trkpt lat="45.61325" lon="3.18714">
        <ele>506</ele>
        <time>2015-03-29T15:11:28+02:00</time>
      </trkpt>
      <trkpt lat="45.61328" lon="3.18718">
        <ele>505</ele>
        <time>2015-03-29T15:11:28+02:00</time>
      </trkpt>
      <trkpt lat="45.61332" lon="3.18723">
        <ele>504</ele>
        <time>2015-03-29T15:11:28+02:00</time>
      </trkpt>
      <trkpt lat="45.61335" lon="3.1873">
        <ele>504</ele>
        <time>2015-03-29T15:11:28+02:00</time>
      </trkpt>
      <trkpt lat="45.61337" lon="3.18737">
        <ele>503</ele>
        <time>2015-03-29T15:11:28+02:00</time>
      </trkpt>
      <trkpt lat="45.61341" lon="3.18743">
        <ele>503</ele>
        <time>2015-03-29T15:11:28+02:00</time>
      </trkpt>
      <trkpt lat="45.61344" lon="3.18748">
        <ele>502</ele>
        <time>2015-03-29T15:11:28+02:00</time>
      </trkpt>
      <trkpt lat="45.61346" lon="3.18755">
        <ele>502</ele>
        <time>2015-03-29T15:11:28+02:00</time>
      </trkpt>
      <trkpt lat="45.61349" lon="3.18761">
        <ele>502</ele>
        <time>2015-03-29T15:11:28+02:00</time>
      </trkpt>
      <trkpt lat="45.61352" lon="3.18767">
        <ele>502</ele>
        <time>2015-03-29T15:11:28+02:00</time>
      </trkpt>
      <trkpt lat="45.61354" lon="3.18773">
        <ele>502</ele>
        <time>2015-03-29T15:11:28+02:00</time>
      </trkpt>
      <trkpt lat="45.61356" lon="3.18779">
        <ele>502</ele>
        <time>2015-03-29T15:11:28+02:00</time>
      </trkpt>
      <trkpt lat="45.61359" lon="3.18785">
        <ele>502</ele>
        <time>2015-03-29T15:11:28+02:00</time>
      </trkpt>
      <trkpt lat="45.61361" lon="3.1879">
        <ele>501</ele>
        <time>2015-03-29T15:11:28+02:00</time>
      </trkpt>
      <trkpt lat="45.61364" lon="3.18796">
        <ele>501</ele>
        <time>2015-03-29T15:11:28+02:00</time>
      </trkpt>
      <trkpt lat="45.61366" lon="3.18801">
        <ele>501</ele>
        <time>2015-03-29T15:11:28+02:00</time>
      </trkpt>
      <trkpt lat="45.61369" lon="3.18807">
        <ele>502</ele>
        <time>2015-03-29T15:11:28+02:00</time>
      </trkpt>
      <trkpt lat="45.61372" lon="3.18812">
        <ele>502</ele>
        <time>2015-03-29T15:11:28+02:00</time>
      </trkpt>
      <trkpt lat="45.61374" lon="3.18818">
        <ele>502</ele>
        <time>2015-03-29T15:11:28+02:00</time>
      </trkpt>
      <trkpt lat="45.61377" lon="3.18824">
        <ele>501</ele>
        <time>2015-03-29T15:11:28+02:00</time>
      </trkpt>
      <trkpt lat="45.61379" lon="3.18829">
        <ele>501</ele>
        <time>2015-03-29T15:11:28+02:00</time>
      </trkpt>
      <trkpt lat="45.61381" lon="3.18834">
        <ele>502</ele>
        <time>2015-03-29T15:11:28+02:00</time>
      </trkpt>
      <trkpt lat="45.61383" lon="3.1884">
        <ele>502</ele>
        <time>2015-03-29T15:11:28+02:00</time>
      </trkpt>
      <trkpt lat="45.61386" lon="3.18846">
        <ele>502</ele>
        <time>2015-03-29T15:11:28+02:00</time>
      </trkpt>
      <trkpt lat="45.61387" lon="3.18852">
        <ele>502</ele>
        <time>2015-03-29T15:11:28+02:00</time>
      </trkpt>
      <trkpt lat="45.61389" lon="3.18859">
        <ele>504</ele>
        <time>2015-03-29T15:11:28+02:00</time>
      </trkpt>
      <trkpt lat="45.61391" lon="3.18865">
        <ele>504</ele>
        <time>2015-03-29T15:11:28+02:00</time>
      </trkpt>
      <trkpt lat="45.61394" lon="3.1887">
        <ele>504</ele>
        <time>2015-03-29T15:11:28+02:00</time>
      </trkpt>
      <trkpt lat="45.61396" lon="3.18875">
        <ele>503</ele>
        <time>2015-03-29T15:11:28+02:00</time>
      </trkpt>
      <trkpt lat="45.61399" lon="3.18881">
        <ele>503</ele>
        <time>2015-03-29T15:11:28+02:00</time>
      </trkpt>
      <trkpt lat="45.61401" lon="3.18886">
        <ele>504</ele>
        <time>2015-03-29T15:11:28+02:00</time>
      </trkpt>
      <trkpt lat="45.61403" lon="3.18891">
        <ele>503</ele>
        <time>2015-03-29T15:11:28+02:00</time>
      </trkpt>
      <trkpt lat="45.61405" lon="3.18896">
        <ele>503</ele>
        <time>2015-03-29T15:13:36+02:00</time>
      </trkpt>
      <trkpt lat="45.61407" lon="3.18903">
        <ele>503</ele>
        <time>2015-03-29T15:13:36+02:00</time>
      </trkpt>
      <trkpt lat="45.61409" lon="3.18908">
        <ele>502</ele>
        <time>2015-03-29T15:13:36+02:00</time>
      </trkpt>
      <trkpt lat="45.61411" lon="3.18913">
        <ele>503</ele>
        <time>2015-03-29T15:13:36+02:00</time>
      </trkpt>
      <trkpt lat="45.61413" lon="3.18918">
        <ele>503</ele>
        <time>2015-03-29T15:13:36+02:00</time>
      </trkpt>
      <trkpt lat="45.61415" lon="3.18922">
        <ele>503</ele>
        <time>2015-03-29T15:13:36+02:00</time>
      </trkpt>
      <trkpt lat="45.61417" lon="3.18928">
        <ele>502</ele>
        <time>2015-03-29T15:13:36+02:00</time>
      </trkpt>
      <trkpt lat="45.6142" lon="3.18933">
        <ele>501</ele>
        <time>2015-03-29T15:13:36+02:00</time>
      </trkpt>
      <trkpt lat="45.61422" lon="3.18941">
        <ele>503</ele>
        <time>2015-03-29T15:13:36+02:00</time>
      </trkpt>
      <trkpt lat="45.61424" lon="3.18945">
        <ele>504</ele>
        <time>2015-03-29T15:13:36+02:00</time>
      </trkpt>
      <trkpt lat="45.61426" lon="3.1895">
        <ele>504</ele>
        <time>2015-03-29T15:13:36+02:00</time>
      </trkpt>
      <trkpt lat="45.61429" lon="3.18956">
        <ele>503</ele>
        <time>2015-03-29T15:13:36+02:00</time>
      </trkpt>
      <trkpt lat="45.61431" lon="3.18963">
        <ele>502</ele>
        <time>2015-03-29T15:13:36+02:00</time>
      </trkpt>
      <trkpt lat="45.61433" lon="3.18969">
        <ele>502</ele>
        <time>2015-03-29T15:13:36+02:00</time>
      </trkpt>
      <trkpt lat="45.61436" lon="3.18975">
        <ele>503</ele>
        <time>2015-03-29T15:13:36+02:00</time>
      </trkpt>
      <trkpt lat="45.61438" lon="3.1898">
        <ele>504</ele>
        <time>2015-03-29T15:13:36+02:00</time>
      </trkpt>
      <trkpt lat="45.6144" lon="3.18986">
        <ele>503</ele>
        <time>2015-03-29T15:13:36+02:00</time>
      </trkpt>
      <trkpt lat="45.61442" lon="3.18991">
        <ele>503</ele>
        <time>2015-03-29T15:13:36+02:00</time>
      </trkpt>
      <trkpt lat="45.61444" lon="3.18995">
        <ele>503</ele>
        <time>2015-03-29T15:13:36+02:00</time>
      </trkpt>
      <trkpt lat="45.61445" lon="3.19001">
        <ele>503</ele>
        <time>2015-03-29T15:13:36+02:00</time>
      </trkpt>
      <trkpt lat="45.61454" lon="3.1902">
        <ele>503</ele>
        <time>2015-03-29T15:13:36+02:00</time>
      </trkpt>
      <trkpt lat="45.61456" lon="3.19025">
        <ele>502</ele>
        <time>2015-03-29T15:13:36+02:00</time>
      </trkpt>
      <trkpt lat="45.61462" lon="3.19042">
        <ele>503</ele>
        <time>2015-03-29T15:13:36+02:00</time>
      </trkpt>
      <trkpt lat="45.61464" lon="3.19047">
        <ele>503</ele>
        <time>2015-03-29T15:13:36+02:00</time>
      </trkpt>
      <trkpt lat="45.61466" lon="3.19054">
        <ele>502</ele>
        <time>2015-03-29T15:13:36+02:00</time>
      </trkpt>
      <trkpt lat="45.61469" lon="3.1906">
        <ele>502</ele>
        <time>2015-03-29T15:13:36+02:00</time>
      </trkpt>
      <trkpt lat="45.61472" lon="3.19066">
        <ele>502</ele>
        <time>2015-03-29T15:13:36+02:00</time>
      </trkpt>
      <trkpt lat="45.61474" lon="3.19071">
        <ele>502</ele>
        <time>2015-03-29T15:13:36+02:00</time>
      </trkpt>
      <trkpt lat="45.61476" lon="3.19076">
        <ele>501</ele>
        <time>2015-03-29T15:13:36+02:00</time>
      </trkpt>
      <trkpt lat="45.61483" lon="3.19088">
        <ele>501</ele>
        <time>2015-03-29T15:13:36+02:00</time>
      </trkpt>
      <trkpt lat="45.61496" lon="3.19111">
        <ele>500</ele>
        <time>2015-03-29T15:13:36+02:00</time>
      </trkpt>
      <trkpt lat="45.61498" lon="3.19118">
        <ele>500</ele>
        <time>2015-03-29T15:13:36+02:00</time>
      </trkpt>
      <trkpt lat="45.61499" lon="3.19125">
        <ele>500</ele>
        <time>2015-03-29T15:13:36+02:00</time>
      </trkpt>
      <trkpt lat="45.615" lon="3.19129">
        <ele>501</ele>
        <time>2015-03-29T15:13:36+02:00</time>
      </trkpt>
      <trkpt lat="45.61504" lon="3.19134">
        <ele>501</ele>
        <time>2015-03-29T15:13:36+02:00</time>
      </trkpt>
      <trkpt lat="45.61506" lon="3.19142">
        <ele>500</ele>
        <time>2015-03-29T15:13:36+02:00</time>
      </trkpt>
      <trkpt lat="45.61508" lon="3.19148">
        <ele>500</ele>
        <time>2015-03-29T15:13:36+02:00</time>
      </trkpt>
      <trkpt lat="45.6151" lon="3.19154">
        <ele>500</ele>
        <time>2015-03-29T15:13:36+02:00</time>
      </trkpt>
      <trkpt lat="45.61513" lon="3.19159">
        <ele>500</ele>
        <time>2015-03-29T15:13:36+02:00</time>
      </trkpt>
      <trkpt lat="45.61515" lon="3.19165">
        <ele>500</ele>
        <time>2015-03-29T15:13:36+02:00</time>
      </trkpt>
      <trkpt lat="45.61518" lon="3.1917">
        <ele>500</ele>
        <time>2015-03-29T15:13:36+02:00</time>
      </trkpt>
      <trkpt lat="45.61519" lon="3.19177">
        <ele>499</ele>
        <time>2015-03-29T15:13:36+02:00</time>
      </trkpt>
      <trkpt lat="45.61522" lon="3.19182">
        <ele>499</ele>
        <time>2015-03-29T15:13:36+02:00</time>
      </trkpt>
      <trkpt lat="45.61525" lon="3.19188">
        <ele>499</ele>
        <time>2015-03-29T15:13:36+02:00</time>
      </trkpt>
      <trkpt lat="45.61527" lon="3.19193">
        <ele>500</ele>
        <time>2015-03-29T15:13:36+02:00</time>
      </trkpt>
      <trkpt lat="45.61529" lon="3.19197">
        <ele>500</ele>
        <time>2015-03-29T15:13:36+02:00</time>
      </trkpt>
      <trkpt lat="45.61531" lon="3.19203">
        <ele>500</ele>
        <time>2015-03-29T15:13:36+02:00</time>
      </trkpt>
      <trkpt lat="45.61533" lon="3.19208">
        <ele>500</ele>
        <time>2015-03-29T15:13:36+02:00</time>
      </trkpt>
      <trkpt lat="45.61534" lon="3.19214">
        <ele>500</ele>
        <time>2015-03-29T15:13:36+02:00</time>
      </trkpt>
      <trkpt lat="45.61536" lon="3.19219">
        <ele>500</ele>
        <time>2015-03-29T15:13:36+02:00</time>
      </trkpt>
      <trkpt lat="45.61538" lon="3.19224">
        <ele>499</ele>
        <time>2015-03-29T15:13:36+02:00</time>
      </trkpt>
      <trkpt lat="45.61541" lon="3.19229">
        <ele>499</ele>
        <time>2015-03-29T15:13:36+02:00</time>
      </trkpt>
      <trkpt lat="45.61542" lon="3.19235">
        <ele>500</ele>
        <time>2015-03-29T15:13:36+02:00</time>
      </trkpt>
      <trkpt lat="45.61542" lon="3.1924">
        <ele>500</ele>
        <time>2015-03-29T15:13:36+02:00</time>
      </trkpt>
      <trkpt lat="45.61544" lon="3.19244">
        <ele>500</ele>
        <time>2015-03-29T15:13:36+02:00</time>
      </trkpt>
      <trkpt lat="45.61546" lon="3.19248">
        <ele>500</ele>
        <time>2015-03-29T15:13:36+02:00</time>
      </trkpt>
      <trkpt lat="45.6155" lon="3.19252">
        <ele>499</ele>
        <time>2015-03-29T15:13:36+02:00</time>
      </trkpt>
      <trkpt lat="45.61553" lon="3.19256">
        <ele>498</ele>
        <time>2015-03-29T15:13:36+02:00</time>
      </trkpt>
      <trkpt lat="45.61555" lon="3.19261">
        <ele>498</ele>
        <time>2015-03-29T15:13:36+02:00</time>
      </trkpt>
      <trkpt lat="45.61558" lon="3.19266">
        <ele>497</ele>
        <time>2015-03-29T15:13:36+02:00</time>
      </trkpt>
      <trkpt lat="45.61561" lon="3.19271">
        <ele>497</ele>
        <time>2015-03-29T15:13:36+02:00</time>
      </trkpt>
      <trkpt lat="45.61563" lon="3.19276">
        <ele>497</ele>
        <time>2015-03-29T15:13:36+02:00</time>
      </trkpt>
      <trkpt lat="45.61564" lon="3.19283">
        <ele>499</ele>
        <time>2015-03-29T15:13:36+02:00</time>
      </trkpt>
      <trkpt lat="45.61566" lon="3.19288">
        <ele>499</ele>
        <time>2015-03-29T15:13:36+02:00</time>
      </trkpt>
      <trkpt lat="45.61569" lon="3.19293">
        <ele>498</ele>
        <time>2015-03-29T15:13:36+02:00</time>
      </trkpt>
      <trkpt lat="45.61571" lon="3.19299">
        <ele>499</ele>
        <time>2015-03-29T15:13:36+02:00</time>
      </trkpt>
      <trkpt lat="45.61575" lon="3.19304">
        <ele>498</ele>
        <time>2015-03-29T15:13:36+02:00</time>
      </trkpt>
      <trkpt lat="45.61577" lon="3.19311">
        <ele>497</ele>
        <time>2015-03-29T15:13:36+02:00</time>
      </trkpt>
      <trkpt lat="45.61579" lon="3.19317">
        <ele>496</ele>
        <time>2015-03-29T15:13:36+02:00</time>
      </trkpt>
      <trkpt lat="45.61581" lon="3.19324">
        <ele>496</ele>
        <time>2015-03-29T15:13:36+02:00</time>
      </trkpt>
      <trkpt lat="45.61583" lon="3.19331">
        <ele>496</ele>
        <time>2015-03-29T15:13:36+02:00</time>
      </trkpt>
      <trkpt lat="45.61585" lon="3.19337">
        <ele>496</ele>
        <time>2015-03-29T15:13:36+02:00</time>
      </trkpt>
      <trkpt lat="45.61588" lon="3.19343">
        <ele>496</ele>
        <time>2015-03-29T15:13:36+02:00</time>
      </trkpt>
      <trkpt lat="45.61591" lon="3.1935">
        <ele>496</ele>
        <time>2015-03-29T15:13:36+02:00</time>
      </trkpt>
      <trkpt lat="45.61593" lon="3.19356">
        <ele>495</ele>
        <time>2015-03-29T15:13:36+02:00</time>
      </trkpt>
      <trkpt lat="45.61596" lon="3.19363">
        <ele>495</ele>
        <time>2015-03-29T15:13:36+02:00</time>
      </trkpt>
      <trkpt lat="45.61598" lon="3.19369">
        <ele>495</ele>
        <time>2015-03-29T15:13:36+02:00</time>
      </trkpt>
      <trkpt lat="45.61601" lon="3.19374">
        <ele>495</ele>
        <time>2015-03-29T15:13:36+02:00</time>
      </trkpt>
      <trkpt lat="45.61603" lon="3.19381">
        <ele>495</ele>
        <time>2015-03-29T15:13:36+02:00</time>
      </trkpt>
      <trkpt lat="45.61606" lon="3.19387">
        <ele>495</ele>
        <time>2015-03-29T15:13:36+02:00</time>
      </trkpt>
      <trkpt lat="45.61608" lon="3.19394">
        <ele>495</ele>
        <time>2015-03-29T15:13:36+02:00</time>
      </trkpt>
      <trkpt lat="45.61611" lon="3.19399">
        <ele>495</ele>
        <time>2015-03-29T15:13:36+02:00</time>
      </trkpt>
      <trkpt lat="45.61613" lon="3.19405">
        <ele>495</ele>
        <time>2015-03-29T15:13:36+02:00</time>
      </trkpt>
      <trkpt lat="45.61616" lon="3.1941">
        <ele>496</ele>
        <time>2015-03-29T15:13:36+02:00</time>
      </trkpt>
      <trkpt lat="45.61619" lon="3.19415">
        <ele>496</ele>
        <time>2015-03-29T15:13:36+02:00</time>
      </trkpt>
      <trkpt lat="45.61621" lon="3.19421">
        <ele>496</ele>
        <time>2015-03-29T15:13:36+02:00</time>
      </trkpt>
      <trkpt lat="45.61623" lon="3.19427">
        <ele>496</ele>
        <time>2015-03-29T15:13:36+02:00</time>
      </trkpt>
      <trkpt lat="45.61626" lon="3.19433">
        <ele>495</ele>
        <time>2015-03-29T15:13:36+02:00</time>
      </trkpt>
      <trkpt lat="45.61628" lon="3.19439">
        <ele>496</ele>
        <time>2015-03-29T15:13:36+02:00</time>
      </trkpt>
      <trkpt lat="45.61631" lon="3.19445">
        <ele>495</ele>
        <time>2015-03-29T15:13:36+02:00</time>
      </trkpt>
      <trkpt lat="45.61634" lon="3.19451">
        <ele>496</ele>
        <time>2015-03-29T15:13:36+02:00</time>
      </trkpt>
      <trkpt lat="45.61636" lon="3.19456">
        <ele>496</ele>
        <time>2015-03-29T15:13:36+02:00</time>
      </trkpt>
      <trkpt lat="45.61639" lon="3.19462">
        <ele>496</ele>
        <time>2015-03-29T15:13:36+02:00</time>
      </trkpt>
      <trkpt lat="45.61642" lon="3.19467">
        <ele>496</ele>
        <time>2015-03-29T15:13:36+02:00</time>
      </trkpt>
      <trkpt lat="45.61644" lon="3.19472">
        <ele>495</ele>
        <time>2015-03-29T15:13:36+02:00</time>
      </trkpt>
      <trkpt lat="45.61646" lon="3.19477">
        <ele>495</ele>
        <time>2015-03-29T15:13:36+02:00</time>
      </trkpt>
      <trkpt lat="45.61648" lon="3.19482">
        <ele>495</ele>
        <time>2015-03-29T15:13:36+02:00</time>
      </trkpt>
      <trkpt lat="45.6165" lon="3.19487">
        <ele>496</ele>
        <time>2015-03-29T15:13:36+02:00</time>
      </trkpt>
      <trkpt lat="45.61651" lon="3.19493">
        <ele>495</ele>
        <time>2015-03-29T15:13:36+02:00</time>
      </trkpt>
      <trkpt lat="45.61652" lon="3.19499">
        <ele>496</ele>
        <time>2015-03-29T15:13:36+02:00</time>
      </trkpt>
      <trkpt lat="45.61654" lon="3.19506">
        <ele>496</ele>
        <time>2015-03-29T15:13:36+02:00</time>
      </trkpt>
      <trkpt lat="45.61656" lon="3.19512">
        <ele>496</ele>
        <time>2015-03-29T15:13:36+02:00</time>
      </trkpt>
      <trkpt lat="45.61658" lon="3.19517">
        <ele>496</ele>
        <time>2015-03-29T15:13:36+02:00</time>
      </trkpt>
      <trkpt lat="45.6166" lon="3.19522">
        <ele>496</ele>
        <time>2015-03-29T15:13:36+02:00</time>
      </trkpt>
      <trkpt lat="45.61662" lon="3.19528">
        <ele>496</ele>
        <time>2015-03-29T15:13:36+02:00</time>
      </trkpt>
      <trkpt lat="45.61665" lon="3.19533">
        <ele>496</ele>
        <time>2015-03-29T15:13:36+02:00</time>
      </trkpt>
      <trkpt lat="45.61667" lon="3.19538">
        <ele>496</ele>
        <time>2015-03-29T15:13:36+02:00</time>
      </trkpt>
      <trkpt lat="45.61669" lon="3.19543">
        <ele>496</ele>
        <time>2015-03-29T15:13:36+02:00</time>
      </trkpt>
      <trkpt lat="45.6167" lon="3.19547">
        <ele>497</ele>
        <time>2015-03-29T15:13:36+02:00</time>
      </trkpt>
      <trkpt lat="45.61672" lon="3.19551">
        <ele>497</ele>
        <time>2015-03-29T15:13:36+02:00</time>
      </trkpt>
      <trkpt lat="45.61673" lon="3.19555">
        <ele>497</ele>
        <time>2015-03-29T15:13:36+02:00</time>
      </trkpt>
      <trkpt lat="45.61674" lon="3.19558">
        <ele>498</ele>
        <time>2015-03-29T15:13:36+02:00</time>
      </trkpt>
      <trkpt lat="45.61675" lon="3.19561">
        <ele>498</ele>
        <time>2015-03-29T15:13:36+02:00</time>
      </trkpt>
      <trkpt lat="45.61677" lon="3.19563">
        <ele>497</ele>
        <time>2015-03-29T15:13:36+02:00</time>
      </trkpt>
      <trkpt lat="45.61678" lon="3.19566">
        <ele>497</ele>
        <time>2015-03-29T15:13:36+02:00</time>
      </trkpt>
      <trkpt lat="45.61679" lon="3.19569">
        <ele>497</ele>
        <time>2015-03-29T15:13:36+02:00</time>
      </trkpt>
      <trkpt lat="45.61681" lon="3.19571">
        <ele>498</ele>
        <time>2015-03-29T15:13:36+02:00</time>
      </trkpt>
      <trkpt lat="45.61684" lon="3.19572">
        <ele>498</ele>
        <time>2015-03-29T15:15:44+02:00</time>
      </trkpt>
      <trkpt lat="45.61686" lon="3.1957">
        <ele>498</ele>
        <time>2015-03-29T15:15:44+02:00</time>
      </trkpt>
      <trkpt lat="45.61689" lon="3.19567">
        <ele>497</ele>
        <time>2015-03-29T15:15:44+02:00</time>
      </trkpt>
      <trkpt lat="45.61691" lon="3.19564">
        <ele>498</ele>
        <time>2015-03-29T15:15:44+02:00</time>
      </trkpt>
      <trkpt lat="45.61692" lon="3.19562">
        <ele>498</ele>
        <time>2015-03-29T15:15:44+02:00</time>
      </trkpt>
      <trkpt lat="45.61694" lon="3.19558">
        <ele>498</ele>
        <time>2015-03-29T15:15:44+02:00</time>
      </trkpt>
      <trkpt lat="45.61695" lon="3.19556">
        <ele>498</ele>
        <time>2015-03-29T15:15:44+02:00</time>
      </trkpt>
      <trkpt lat="45.61697" lon="3.19553">
        <ele>499</ele>
        <time>2015-03-29T15:15:44+02:00</time>
      </trkpt>
      <trkpt lat="45.61699" lon="3.19549">
        <ele>499</ele>
        <time>2015-03-29T15:15:44+02:00</time>
      </trkpt>
      <trkpt lat="45.61701" lon="3.19547">
        <ele>499</ele>
        <time>2015-03-29T15:15:44+02:00</time>
      </trkpt>
      <trkpt lat="45.61702" lon="3.19544">
        <ele>499</ele>
        <time>2015-03-29T15:15:44+02:00</time>
      </trkpt>
      <trkpt lat="45.61704" lon="3.19542">
        <ele>499</ele>
        <time>2015-03-29T15:15:44+02:00</time>
      </trkpt>
      <trkpt lat="45.61705" lon="3.19538">
        <ele>498</ele>
        <time>2015-03-29T15:15:44+02:00</time>
      </trkpt>
      <trkpt lat="45.61706" lon="3.19535">
        <ele>498</ele>
        <time>2015-03-29T15:15:44+02:00</time>
      </trkpt>
      <trkpt lat="45.61707" lon="3.19532">
        <ele>498</ele>
        <time>2015-03-29T15:15:44+02:00</time>
      </trkpt>
      <trkpt lat="45.6171" lon="3.1953">
        <ele>499</ele>
        <time>2015-03-29T15:15:44+02:00</time>
      </trkpt>
      <trkpt lat="45.61712" lon="3.19525">
        <ele>501</ele>
        <time>2015-03-29T15:15:44+02:00</time>
      </trkpt>
      <trkpt lat="45.61712" lon="3.19523">
        <ele>500</ele>
        <time>2015-03-29T15:15:44+02:00</time>
      </trkpt>
      <trkpt lat="45.61714" lon="3.19519">
        <ele>502</ele>
        <time>2015-03-29T15:15:44+02:00</time>
      </trkpt>
      <trkpt lat="45.61716" lon="3.19516">
        <ele>501</ele>
        <time>2015-03-29T15:15:44+02:00</time>
      </trkpt>
      <trkpt lat="45.61718" lon="3.19513">
        <ele>502</ele>
        <time>2015-03-29T15:15:44+02:00</time>
      </trkpt>
      <trkpt lat="45.6172" lon="3.19509">
        <ele>502</ele>
        <time>2015-03-29T15:15:44+02:00</time>
      </trkpt>
      <trkpt lat="45.61722" lon="3.19506">
        <ele>502</ele>
        <time>2015-03-29T15:15:44+02:00</time>
      </trkpt>
      <trkpt lat="45.61725" lon="3.19502">
        <ele>502</ele>
        <time>2015-03-29T15:15:44+02:00</time>
      </trkpt>
      <trkpt lat="45.61726" lon="3.19499">
        <ele>502</ele>
        <time>2015-03-29T15:15:44+02:00</time>
      </trkpt>
      <trkpt lat="45.61727" lon="3.19496">
        <ele>501</ele>
        <time>2015-03-29T15:15:44+02:00</time>
      </trkpt>
      <trkpt lat="45.61729" lon="3.19493">
        <ele>501</ele>
        <time>2015-03-29T15:15:44+02:00</time>
      </trkpt>
      <trkpt lat="45.61731" lon="3.1949">
        <ele>501</ele>
        <time>2015-03-29T15:15:44+02:00</time>
      </trkpt>
      <trkpt lat="45.61732" lon="3.19486">
        <ele>502</ele>
        <time>2015-03-29T15:15:44+02:00</time>
      </trkpt>
      <trkpt lat="45.61734" lon="3.19483">
        <ele>501</ele>
        <time>2015-03-29T15:15:44+02:00</time>
      </trkpt>
      <trkpt lat="45.61736" lon="3.1948">
        <ele>502</ele>
        <time>2015-03-29T15:15:44+02:00</time>
      </trkpt>
      <trkpt lat="45.61738" lon="3.19477">
        <ele>502</ele>
        <time>2015-03-29T15:15:44+02:00</time>
      </trkpt>
      <trkpt lat="45.6174" lon="3.19473">
        <ele>502</ele>
        <time>2015-03-29T15:15:44+02:00</time>
      </trkpt>
      <trkpt lat="45.61742" lon="3.19469">
        <ele>501</ele>
        <time>2015-03-29T15:15:44+02:00</time>
      </trkpt>
      <trkpt lat="45.61744" lon="3.19466">
        <ele>502</ele>
        <time>2015-03-29T15:15:44+02:00</time>
      </trkpt>
      <trkpt lat="45.61745" lon="3.19462">
        <ele>502</ele>
        <time>2015-03-29T15:15:44+02:00</time>
      </trkpt>
      <trkpt lat="45.61747" lon="3.19461">
        <ele>501</ele>
        <time>2015-03-29T15:15:44+02:00</time>
      </trkpt>
      <trkpt lat="45.6175" lon="3.19458">
        <ele>501</ele>
        <time>2015-03-29T15:15:44+02:00</time>
      </trkpt>
      <trkpt lat="45.61752" lon="3.19455">
        <ele>502</ele>
        <time>2015-03-29T15:15:44+02:00</time>
      </trkpt>
      <trkpt lat="45.61754" lon="3.19453">
        <ele>502</ele>
        <time>2015-03-29T15:15:44+02:00</time>
      </trkpt>
      <trkpt lat="45.61755" lon="3.19448">
        <ele>501</ele>
        <time>2015-03-29T15:15:44+02:00</time>
      </trkpt>
      <trkpt lat="45.61756" lon="3.19444">
        <ele>502</ele>
        <time>2015-03-29T15:15:44+02:00</time>
      </trkpt>
      <trkpt lat="45.61758" lon="3.19441">
        <ele>502</ele>
        <time>2015-03-29T15:15:44+02:00</time>
      </trkpt>
      <trkpt lat="45.61759" lon="3.19437">
        <ele>501</ele>
        <time>2015-03-29T15:15:44+02:00</time>
      </trkpt>
      <trkpt lat="45.61761" lon="3.19434">
        <ele>501</ele>
        <time>2015-03-29T15:15:44+02:00</time>
      </trkpt>
      <trkpt lat="45.61762" lon="3.19431">
        <ele>500</ele>
        <time>2015-03-29T15:15:44+02:00</time>
      </trkpt>
      <trkpt lat="45.61764" lon="3.19427">
        <ele>501</ele>
        <time>2015-03-29T15:15:44+02:00</time>
      </trkpt>
      <trkpt lat="45.61766" lon="3.19425">
        <ele>500</ele>
        <time>2015-03-29T15:15:44+02:00</time>
      </trkpt>
      <trkpt lat="45.61767" lon="3.19422">
        <ele>500</ele>
        <time>2015-03-29T15:15:44+02:00</time>
      </trkpt>
      <trkpt lat="45.61769" lon="3.19419">
        <ele>500</ele>
        <time>2015-03-29T15:15:44+02:00</time>
      </trkpt>
      <trkpt lat="45.61775" lon="3.19411">
        <ele>500</ele>
        <time>2015-03-29T15:15:44+02:00</time>
      </trkpt>
      <trkpt lat="45.61778" lon="3.1941">
        <ele>500</ele>
        <time>2015-03-29T15:15:44+02:00</time>
      </trkpt>
      <trkpt lat="45.61781" lon="3.19408">
        <ele>500</ele>
        <time>2015-03-29T15:15:44+02:00</time>
      </trkpt>
      <trkpt lat="45.61783" lon="3.19407">
        <ele>500</ele>
        <time>2015-03-29T15:15:44+02:00</time>
      </trkpt>
      <trkpt lat="45.61787" lon="3.19407">
        <ele>500</ele>
        <time>2015-03-29T15:15:44+02:00</time>
      </trkpt>
      <trkpt lat="45.61789" lon="3.19406">
        <ele>500</ele>
        <time>2015-03-29T15:15:44+02:00</time>
      </trkpt>
      <trkpt lat="45.61792" lon="3.19405">
        <ele>501</ele>
        <time>2015-03-29T15:15:44+02:00</time>
      </trkpt>
      <trkpt lat="45.61795" lon="3.19404">
        <ele>500</ele>
        <time>2015-03-29T15:15:44+02:00</time>
      </trkpt>
      <trkpt lat="45.61799" lon="3.19403">
        <ele>500</ele>
        <time>2015-03-29T15:15:44+02:00</time>
      </trkpt>
      <trkpt lat="45.61802" lon="3.19402">
        <ele>500</ele>
        <time>2015-03-29T15:15:44+02:00</time>
      </trkpt>
      <trkpt lat="45.61805" lon="3.19401">
        <ele>500</ele>
        <time>2015-03-29T15:15:44+02:00</time>
      </trkpt>
      <trkpt lat="45.61807" lon="3.194">
        <ele>500</ele>
        <time>2015-03-29T15:15:44+02:00</time>
      </trkpt>
      <trkpt lat="45.61809" lon="3.194">
        <ele>500</ele>
        <time>2015-03-29T15:15:44+02:00</time>
      </trkpt>
      <trkpt lat="45.61812" lon="3.19398">
        <ele>500</ele>
        <time>2015-03-29T15:15:44+02:00</time>
      </trkpt>
      <trkpt lat="45.61814" lon="3.19399">
        <ele>500</ele>
        <time>2015-03-29T15:15:44+02:00</time>
      </trkpt>
      <trkpt lat="45.61817" lon="3.19398">
        <ele>501</ele>
        <time>2015-03-29T15:15:44+02:00</time>
      </trkpt>
      <trkpt lat="45.6182" lon="3.19397">
        <ele>501</ele>
        <time>2015-03-29T15:15:44+02:00</time>
      </trkpt>
      <trkpt lat="45.61822" lon="3.19395">
        <ele>501</ele>
        <time>2015-03-29T15:15:44+02:00</time>
      </trkpt>
      <trkpt lat="45.61825" lon="3.19394">
        <ele>502</ele>
        <time>2015-03-29T15:15:44+02:00</time>
      </trkpt>
      <trkpt lat="45.61829" lon="3.19392">
        <ele>501</ele>
        <time>2015-03-29T15:15:44+02:00</time>
      </trkpt>
      <trkpt lat="45.61833" lon="3.1939">
        <ele>500</ele>
        <time>2015-03-29T15:15:44+02:00</time>
      </trkpt>
      <trkpt lat="45.61835" lon="3.19389">
        <ele>500</ele>
        <time>2015-03-29T15:15:44+02:00</time>
      </trkpt>
      <trkpt lat="45.61837" lon="3.19389">
        <ele>500</ele>
        <time>2015-03-29T15:15:44+02:00</time>
      </trkpt>
      <trkpt lat="45.6184" lon="3.19388">
        <ele>499</ele>
        <time>2015-03-29T15:15:44+02:00</time>
      </trkpt>
      <trkpt lat="45.61842" lon="3.19387">
        <ele>499</ele>
        <time>2015-03-29T15:17:52+02:00</time>
      </trkpt>
      <trkpt lat="45.61845" lon="3.19386">
        <ele>499</ele>
        <time>2015-03-29T15:17:52+02:00</time>
      </trkpt>
      <trkpt lat="45.61848" lon="3.19385">
        <ele>499</ele>
        <time>2015-03-29T15:17:52+02:00</time>
      </trkpt>
      <trkpt lat="45.6185" lon="3.19385">
        <ele>499</ele>
        <time>2015-03-29T15:17:52+02:00</time>
      </trkpt>
      <trkpt lat="45.61852" lon="3.19385">
        <ele>500</ele>
        <time>2015-03-29T15:17:52+02:00</time>
      </trkpt>
      <trkpt lat="45.61854" lon="3.19384">
        <ele>499</ele>
        <time>2015-03-29T15:17:52+02:00</time>
      </trkpt>
      <trkpt lat="45.61856" lon="3.19383">
        <ele>499</ele>
        <time>2015-03-29T15:17:52+02:00</time>
      </trkpt>
      <trkpt lat="45.61859" lon="3.19382">
        <ele>499</ele>
        <time>2015-03-29T15:17:52+02:00</time>
      </trkpt>
      <trkpt lat="45.61862" lon="3.19382">
        <ele>499</ele>
        <time>2015-03-29T15:17:52+02:00</time>
      </trkpt>
      <trkpt lat="45.61865" lon="3.19381">
        <ele>499</ele>
        <time>2015-03-29T15:17:52+02:00</time>
      </trkpt>
      <trkpt lat="45.61866" lon="3.19381">
        <ele>499</ele>
        <time>2015-03-29T15:17:52+02:00</time>
      </trkpt>
      <trkpt lat="45.61868" lon="3.19381">
        <ele>499</ele>
        <time>2015-03-29T15:17:52+02:00</time>
      </trkpt>
      <trkpt lat="45.6187" lon="3.1938">
        <ele>499</ele>
        <time>2015-03-29T15:17:52+02:00</time>
      </trkpt>
      <trkpt lat="45.61874" lon="3.19379">
        <ele>499</ele>
        <time>2015-03-29T15:17:52+02:00</time>
      </trkpt>
      <trkpt lat="45.61877" lon="3.19378">
        <ele>499</ele>
        <time>2015-03-29T15:17:52+02:00</time>
      </trkpt>
      <trkpt lat="45.61879" lon="3.19376">
        <ele>499</ele>
        <time>2015-03-29T15:17:52+02:00</time>
      </trkpt>
      <trkpt lat="45.61882" lon="3.19376">
        <ele>499</ele>
        <time>2015-03-29T15:17:52+02:00</time>
      </trkpt>
      <trkpt lat="45.61885" lon="3.19374">
        <ele>500</ele>
        <time>2015-03-29T15:17:52+02:00</time>
      </trkpt>
      <trkpt lat="45.61887" lon="3.19373">
        <ele>500</ele>
        <time>2015-03-29T15:17:52+02:00</time>
      </trkpt>
      <trkpt lat="45.6189" lon="3.19371">
        <ele>500</ele>
        <time>2015-03-29T15:17:52+02:00</time>
      </trkpt>
      <trkpt lat="45.61892" lon="3.19371">
        <ele>500</ele>
        <time>2015-03-29T15:17:52+02:00</time>
      </trkpt>
      <trkpt lat="45.61894" lon="3.19372">
        <ele>500</ele>
        <time>2015-03-29T15:17:52+02:00</time>
      </trkpt>
      <trkpt lat="45.61896" lon="3.1937">
        <ele>500</ele>
        <time>2015-03-29T15:17:52+02:00</time>
      </trkpt>
      <trkpt lat="45.61899" lon="3.19369">
        <ele>499</ele>
        <time>2015-03-29T15:17:52+02:00</time>
      </trkpt>
      <trkpt lat="45.619" lon="3.19368">
        <ele>498</ele>
        <time>2015-03-29T15:17:52+02:00</time>
      </trkpt>
      <trkpt lat="45.61904" lon="3.19367">
        <ele>498</ele>
        <time>2015-03-29T15:17:52+02:00</time>
      </trkpt>
      <trkpt lat="45.61906" lon="3.19366">
        <ele>497</ele>
        <time>2015-03-29T15:17:52+02:00</time>
      </trkpt>
      <trkpt lat="45.61908" lon="3.19365">
        <ele>498</ele>
        <time>2015-03-29T15:17:52+02:00</time>
      </trkpt>
      <trkpt lat="45.6191" lon="3.19364">
        <ele>498</ele>
        <time>2015-03-29T15:17:52+02:00</time>
      </trkpt>
      <trkpt lat="45.61914" lon="3.19363">
        <ele>498</ele>
        <time>2015-03-29T15:17:52+02:00</time>
      </trkpt>
      <trkpt lat="45.61917" lon="3.19362">
        <ele>498</ele>
        <time>2015-03-29T15:17:52+02:00</time>
      </trkpt>
      <trkpt lat="45.6192" lon="3.19361">
        <ele>498</ele>
        <time>2015-03-29T15:17:52+02:00</time>
      </trkpt>
      <trkpt lat="45.61922" lon="3.1936">
        <ele>499</ele>
        <time>2015-03-29T15:17:52+02:00</time>
      </trkpt>
      <trkpt lat="45.61924" lon="3.19359">
        <ele>499</ele>
        <time>2015-03-29T15:17:52+02:00</time>
      </trkpt>
      <trkpt lat="45.61927" lon="3.19357">
        <ele>500</ele>
        <time>2015-03-29T15:17:52+02:00</time>
      </trkpt>
      <trkpt lat="45.61931" lon="3.19356">
        <ele>500</ele>
        <time>2015-03-29T15:17:52+02:00</time>
      </trkpt>
      <trkpt lat="45.61932" lon="3.19356">
        <ele>500</ele>
        <time>2015-03-29T15:17:52+02:00</time>
      </trkpt>
      <trkpt lat="45.61936" lon="3.19354">
        <ele>500</ele>
        <time>2015-03-29T15:17:52+02:00</time>
      </trkpt>
      <trkpt lat="45.61939" lon="3.19353">
        <ele>501</ele>
        <time>2015-03-29T15:17:52+02:00</time>
      </trkpt>
      <trkpt lat="45.61942" lon="3.19352">
        <ele>501</ele>
        <time>2015-03-29T15:17:52+02:00</time>
      </trkpt>
      <trkpt lat="45.61944" lon="3.19351">
        <ele>501</ele>
        <time>2015-03-29T15:17:52+02:00</time>
      </trkpt>
      <trkpt lat="45.61946" lon="3.19351">
        <ele>501</ele>
        <time>2015-03-29T15:17:52+02:00</time>
      </trkpt>
      <trkpt lat="45.61949" lon="3.1935">
        <ele>501</ele>
        <time>2015-03-29T15:17:52+02:00</time>
      </trkpt>
      <trkpt lat="45.61952" lon="3.19348">
        <ele>501</ele>
        <time>2015-03-29T15:17:52+02:00</time>
      </trkpt>
      <trkpt lat="45.61955" lon="3.19348">
        <ele>501</ele>
        <time>2015-03-29T15:17:52+02:00</time>
      </trkpt>
      <trkpt lat="45.61957" lon="3.19346">
        <ele>500</ele>
        <time>2015-03-29T15:17:52+02:00</time>
      </trkpt>
      <trkpt lat="45.6196" lon="3.19346">
        <ele>500</ele>
        <time>2015-03-29T15:17:52+02:00</time>
      </trkpt>
      <trkpt lat="45.61963" lon="3.19344">
        <ele>500</ele>
        <time>2015-03-29T15:17:52+02:00</time>
      </trkpt>
      <trkpt lat="45.61966" lon="3.19343">
        <ele>500</ele>
        <time>2015-03-29T15:17:52+02:00</time>
      </trkpt>
      <trkpt lat="45.61969" lon="3.19342">
        <ele>500</ele>
        <time>2015-03-29T15:17:52+02:00</time>
      </trkpt>
      <trkpt lat="45.61972" lon="3.19342">
        <ele>500</ele>
        <time>2015-03-29T15:17:52+02:00</time>
      </trkpt>
      <trkpt lat="45.61974" lon="3.19342">
        <ele>500</ele>
        <time>2015-03-29T15:17:52+02:00</time>
      </trkpt>
      <trkpt lat="45.61977" lon="3.1934">
        <ele>499</ele>
        <time>2015-03-29T15:17:52+02:00</time>
      </trkpt>
      <trkpt lat="45.6198" lon="3.19339">
        <ele>499</ele>
        <time>2015-03-29T15:17:52+02:00</time>
      </trkpt>
      <trkpt lat="45.61983" lon="3.19338">
        <ele>499</ele>
        <time>2015-03-29T15:17:52+02:00</time>
      </trkpt>
      <trkpt lat="45.61987" lon="3.19338">
        <ele>499</ele>
        <time>2015-03-29T15:17:52+02:00</time>
      </trkpt>
      <trkpt lat="45.61989" lon="3.19337">
        <ele>499</ele>
        <time>2015-03-29T15:17:52+02:00</time>
      </trkpt>
      <trkpt lat="45.61992" lon="3.19336">
        <ele>499</ele>
        <time>2015-03-29T15:17:52+02:00</time>
      </trkpt>
      <trkpt lat="45.61995" lon="3.19336">
        <ele>499</ele>
        <time>2015-03-29T15:17:52+02:00</time>
      </trkpt>
      <trkpt lat="45.61996" lon="3.19334">
        <ele>499</ele>
        <time>2015-03-29T15:17:52+02:00</time>
      </trkpt>
      <trkpt lat="45.62" lon="3.19334">
        <ele>500</ele>
        <time>2015-03-29T15:17:52+02:00</time>
      </trkpt>
      <trkpt lat="45.62003" lon="3.19333">
        <ele>499</ele>
        <time>2015-03-29T15:17:52+02:00</time>
      </trkpt>
      <trkpt lat="45.62007" lon="3.19331">
        <ele>499</ele>
        <time>2015-03-29T15:17:52+02:00</time>
      </trkpt>
      <trkpt lat="45.62008" lon="3.1933">
        <ele>499</ele>
        <time>2015-03-29T15:17:52+02:00</time>
      </trkpt>
      <trkpt lat="45.62012" lon="3.19329">
        <ele>499</ele>
        <time>2015-03-29T15:17:52+02:00</time>
      </trkpt>
      <trkpt lat="45.62024" lon="3.19325">
        <ele>498</ele>
        <time>2015-03-29T15:17:52+02:00</time>
      </trkpt>
      <trkpt lat="45.62026" lon="3.19323">
        <ele>499</ele>
        <time>2015-03-29T15:17:52+02:00</time>
      </trkpt>
      <trkpt lat="45.62028" lon="3.19322">
        <ele>499</ele>
        <time>2015-03-29T15:17:52+02:00</time>
      </trkpt>
      <trkpt lat="45.62032" lon="3.19321">
        <ele>498</ele>
        <time>2015-03-29T15:17:52+02:00</time>
      </trkpt>
      <trkpt lat="45.62034" lon="3.1932">
        <ele>497</ele>
        <time>2015-03-29T15:17:52+02:00</time>
      </trkpt>
      <trkpt lat="45.62036" lon="3.1932">
        <ele>496</ele>
        <time>2015-03-29T15:17:52+02:00</time>
      </trkpt>
      <trkpt lat="45.6204" lon="3.19319">
        <ele>497</ele>
        <time>2015-03-29T15:17:52+02:00</time>
      </trkpt>
      <trkpt lat="45.62043" lon="3.19318">
        <ele>496</ele>
        <time>2015-03-29T15:20:00+02:00</time>
      </trkpt>
      <trkpt lat="45.62045" lon="3.19318">
        <ele>496</ele>
        <time>2015-03-29T15:20:00+02:00</time>
      </trkpt>
      <trkpt lat="45.62048" lon="3.19316">
        <ele>496</ele>
        <time>2015-03-29T15:20:00+02:00</time>
      </trkpt>
      <trkpt lat="45.62051" lon="3.19316">
        <ele>496</ele>
        <time>2015-03-29T15:20:00+02:00</time>
      </trkpt>
      <trkpt lat="45.62054" lon="3.19315">
        <ele>496</ele>
        <time>2015-03-29T15:20:00+02:00</time>
      </trkpt>
      <trkpt lat="45.62058" lon="3.19314">
        <ele>496</ele>
        <time>2015-03-29T15:20:00+02:00</time>
      </trkpt>
      <trkpt lat="45.62061" lon="3.19313">
        <ele>496</ele>
        <time>2015-03-29T15:20:00+02:00</time>
      </trkpt>
      <trkpt lat="45.62063" lon="3.19312">
        <ele>496</ele>
        <time>2015-03-29T15:20:00+02:00</time>
      </trkpt>
      <trkpt lat="45.62065" lon="3.19311">
        <ele>497</ele>
        <time>2015-03-29T15:20:00+02:00</time>
      </trkpt>
      <trkpt lat="45.62068" lon="3.1931">
        <ele>497</ele>
        <time>2015-03-29T15:20:00+02:00</time>
      </trkpt>
      <trkpt lat="45.62073" lon="3.19308">
        <ele>497</ele>
        <time>2015-03-29T15:20:00+02:00</time>
      </trkpt>
      <trkpt lat="45.62075" lon="3.19307">
        <ele>497</ele>
        <time>2015-03-29T15:20:00+02:00</time>
      </trkpt>
      <trkpt lat="45.62078" lon="3.19307">
        <ele>497</ele>
        <time>2015-03-29T15:20:00+02:00</time>
      </trkpt>
      <trkpt lat="45.62081" lon="3.19305">
        <ele>497</ele>
        <time>2015-03-29T15:20:00+02:00</time>
      </trkpt>
      <trkpt lat="45.62085" lon="3.19304">
        <ele>497</ele>
        <time>2015-03-29T15:20:00+02:00</time>
      </trkpt>
      <trkpt lat="45.62087" lon="3.19304">
        <ele>498</ele>
        <time>2015-03-29T15:20:00+02:00</time>
      </trkpt>
      <trkpt lat="45.6209" lon="3.19304">
        <ele>498</ele>
        <time>2015-03-29T15:20:00+02:00</time>
      </trkpt>
      <trkpt lat="45.62092" lon="3.19302">
        <ele>497</ele>
        <time>2015-03-29T15:20:00+02:00</time>
      </trkpt>
      <trkpt lat="45.62094" lon="3.19302">
        <ele>497</ele>
        <time>2015-03-29T15:20:00+02:00</time>
      </trkpt>
      <trkpt lat="45.62098" lon="3.19299">
        <ele>495</ele>
        <time>2015-03-29T15:20:00+02:00</time>
      </trkpt>
      <trkpt lat="45.621" lon="3.19297">
        <ele>494</ele>
        <time>2015-03-29T15:20:00+02:00</time>
      </trkpt>
      <trkpt lat="45.62102" lon="3.19295">
        <ele>494</ele>
        <time>2015-03-29T15:20:00+02:00</time>
      </trkpt>
      <trkpt lat="45.62104" lon="3.19295">
        <ele>494</ele>
        <time>2015-03-29T15:20:00+02:00</time>
      </trkpt>
      <trkpt lat="45.62107" lon="3.19294">
        <ele>493</ele>
        <time>2015-03-29T15:20:00+02:00</time>
      </trkpt>
      <trkpt lat="45.62109" lon="3.19293">
        <ele>493</ele>
        <time>2015-03-29T15:20:00+02:00</time>
      </trkpt>
      <trkpt lat="45.62111" lon="3.19291">
        <ele>493</ele>
        <time>2015-03-29T15:20:00+02:00</time>
      </trkpt>
      <trkpt lat="45.62114" lon="3.19292">
        <ele>495</ele>
        <time>2015-03-29T15:20:00+02:00</time>
      </trkpt>
      <trkpt lat="45.62116" lon="3.19291">
        <ele>494</ele>
        <time>2015-03-29T15:20:00+02:00</time>
      </trkpt>
      <trkpt lat="45.6212" lon="3.19289">
        <ele>495</ele>
        <time>2015-03-29T15:20:00+02:00</time>
      </trkpt>
      <trkpt lat="45.62123" lon="3.19288">
        <ele>495</ele>
        <time>2015-03-29T15:20:00+02:00</time>
      </trkpt>
      <trkpt lat="45.62125" lon="3.19288">
        <ele>495</ele>
        <time>2015-03-29T15:20:00+02:00</time>
      </trkpt>
      <trkpt lat="45.62129" lon="3.19287">
        <ele>495</ele>
        <time>2015-03-29T15:20:00+02:00</time>
      </trkpt>
      <trkpt lat="45.62132" lon="3.19287">
        <ele>494</ele>
        <time>2015-03-29T15:20:00+02:00</time>
      </trkpt>
      <trkpt lat="45.62135" lon="3.19286">
        <ele>494</ele>
        <time>2015-03-29T15:20:00+02:00</time>
      </trkpt>
      <trkpt lat="45.62138" lon="3.19285">
        <ele>494</ele>
        <time>2015-03-29T15:20:00+02:00</time>
      </trkpt>
      <trkpt lat="45.6214" lon="3.19285">
        <ele>494</ele>
        <time>2015-03-29T15:20:00+02:00</time>
      </trkpt>
      <trkpt lat="45.62141" lon="3.19284">
        <ele>493</ele>
        <time>2015-03-29T15:20:00+02:00</time>
      </trkpt>
      <trkpt lat="45.62144" lon="3.19283">
        <ele>493</ele>
        <time>2015-03-29T15:20:00+02:00</time>
      </trkpt>
      <trkpt lat="45.62148" lon="3.19281">
        <ele>493</ele>
        <time>2015-03-29T15:20:00+02:00</time>
      </trkpt>
      <trkpt lat="45.62151" lon="3.19281">
        <ele>493</ele>
        <time>2015-03-29T15:20:00+02:00</time>
      </trkpt>
      <trkpt lat="45.62153" lon="3.19283">
        <ele>494</ele>
        <time>2015-03-29T15:20:00+02:00</time>
      </trkpt>
      <trkpt lat="45.62155" lon="3.19284">
        <ele>494</ele>
        <time>2015-03-29T15:20:00+02:00</time>
      </trkpt>
      <trkpt lat="45.62158" lon="3.19284">
        <ele>494</ele>
        <time>2015-03-29T15:20:00+02:00</time>
      </trkpt>
      <trkpt lat="45.6216" lon="3.19287">
        <ele>493</ele>
        <time>2015-03-29T15:20:00+02:00</time>
      </trkpt>
      <trkpt lat="45.62161" lon="3.19289">
        <ele>493</ele>
        <time>2015-03-29T15:20:00+02:00</time>
      </trkpt>
      <trkpt lat="45.62162" lon="3.19293">
        <ele>493</ele>
        <time>2015-03-29T15:20:00+02:00</time>
      </trkpt>
      <trkpt lat="45.62164" lon="3.19296">
        <ele>493</ele>
        <time>2015-03-29T15:20:00+02:00</time>
      </trkpt>
      <trkpt lat="45.62163" lon="3.193">
        <ele>494</ele>
        <time>2015-03-29T15:20:00+02:00</time>
      </trkpt>
      <trkpt lat="45.62164" lon="3.19304">
        <ele>493</ele>
        <time>2015-03-29T15:20:00+02:00</time>
      </trkpt>
      <trkpt lat="45.62165" lon="3.19308">
        <ele>493</ele>
        <time>2015-03-29T15:20:00+02:00</time>
      </trkpt>
      <trkpt lat="45.62166" lon="3.19312">
        <ele>493</ele>
        <time>2015-03-29T15:20:00+02:00</time>
      </trkpt>
      <trkpt lat="45.62167" lon="3.19316">
        <ele>494</ele>
        <time>2015-03-29T15:20:00+02:00</time>
      </trkpt>
      <trkpt lat="45.62169" lon="3.19319">
        <ele>494</ele>
        <time>2015-03-29T15:20:00+02:00</time>
      </trkpt>
      <trkpt lat="45.62171" lon="3.19321">
        <ele>493</ele>
        <time>2015-03-29T15:20:00+02:00</time>
      </trkpt>
      <trkpt lat="45.62174" lon="3.19323">
        <ele>493</ele>
        <time>2015-03-29T15:20:00+02:00</time>
      </trkpt>
      <trkpt lat="45.62177" lon="3.19326">
        <ele>493</ele>
        <time>2015-03-29T15:20:00+02:00</time>
      </trkpt>
      <trkpt lat="45.62177" lon="3.19328">
        <ele>493</ele>
        <time>2015-03-29T15:20:00+02:00</time>
      </trkpt>
      <trkpt lat="45.62179" lon="3.19332">
        <ele>493</ele>
        <time>2015-03-29T15:20:00+02:00</time>
      </trkpt>
      <trkpt lat="45.62179" lon="3.19334">
        <ele>493</ele>
        <time>2015-03-29T15:20:00+02:00</time>
      </trkpt>
      <trkpt lat="45.6218" lon="3.19338">
        <ele>493</ele>
        <time>2015-03-29T15:20:00+02:00</time>
      </trkpt>
      <trkpt lat="45.62181" lon="3.19342">
        <ele>492</ele>
        <time>2015-03-29T15:20:00+02:00</time>
      </trkpt>
      <trkpt lat="45.62182" lon="3.19346">
        <ele>493</ele>
        <time>2015-03-29T15:20:00+02:00</time>
      </trkpt>
      <trkpt lat="45.62183" lon="3.1935">
        <ele>493</ele>
        <time>2015-03-29T15:20:00+02:00</time>
      </trkpt>
      <trkpt lat="45.62183" lon="3.19354">
        <ele>493</ele>
        <time>2015-03-29T15:20:00+02:00</time>
      </trkpt>
      <trkpt lat="45.62184" lon="3.19359">
        <ele>493</ele>
        <time>2015-03-29T15:20:00+02:00</time>
      </trkpt>
      <trkpt lat="45.62184" lon="3.19363">
        <ele>493</ele>
        <time>2015-03-29T15:20:00+02:00</time>
      </trkpt>
      <trkpt lat="45.62185" lon="3.19368">
        <ele>493</ele>
        <time>2015-03-29T15:20:00+02:00</time>
      </trkpt>
      <trkpt lat="45.62186" lon="3.19371">
        <ele>493</ele>
        <time>2015-03-29T15:20:00+02:00</time>
      </trkpt>
      <trkpt lat="45.62186" lon="3.19373">
        <ele>494</ele>
        <time>2015-03-29T15:20:00+02:00</time>
      </trkpt>
      <trkpt lat="45.62187" lon="3.19377">
        <ele>494</ele>
        <time>2015-03-29T15:20:00+02:00</time>
      </trkpt>
      <trkpt lat="45.62188" lon="3.19382">
        <ele>493</ele>
        <time>2015-03-29T15:20:00+02:00</time>
      </trkpt>
      <trkpt lat="45.62189" lon="3.19385">
        <ele>494</ele>
        <time>2015-03-29T15:20:00+02:00</time>
      </trkpt>
      <trkpt lat="45.62189" lon="3.19389">
        <ele>494</ele>
        <time>2015-03-29T15:20:00+02:00</time>
      </trkpt>
      <trkpt lat="45.62188" lon="3.19393">
        <ele>494</ele>
        <time>2015-03-29T15:20:00+02:00</time>
      </trkpt>
      <trkpt lat="45.62188" lon="3.19397">
        <ele>494</ele>
        <time>2015-03-29T15:22:08+02:00</time>
      </trkpt>
      <trkpt lat="45.62189" lon="3.19402">
        <ele>494</ele>
        <time>2015-03-29T15:22:08+02:00</time>
      </trkpt>
      <trkpt lat="45.6219" lon="3.19404">
        <ele>494</ele>
        <time>2015-03-29T15:22:08+02:00</time>
      </trkpt>
      <trkpt lat="45.6219" lon="3.19409">
        <ele>493</ele>
        <time>2015-03-29T15:22:08+02:00</time>
      </trkpt>
      <trkpt lat="45.62191" lon="3.19413">
        <ele>494</ele>
        <time>2015-03-29T15:22:08+02:00</time>
      </trkpt>
      <trkpt lat="45.62192" lon="3.19419">
        <ele>494</ele>
        <time>2015-03-29T15:22:08+02:00</time>
      </trkpt>
      <trkpt lat="45.62192" lon="3.19422">
        <ele>494</ele>
        <time>2015-03-29T15:22:08+02:00</time>
      </trkpt>
      <trkpt lat="45.62193" lon="3.19425">
        <ele>494</ele>
        <time>2015-03-29T15:22:08+02:00</time>
      </trkpt>
      <trkpt lat="45.62194" lon="3.19427">
        <ele>493</ele>
        <time>2015-03-29T15:22:08+02:00</time>
      </trkpt>
      <trkpt lat="45.62194" lon="3.1943">
        <ele>493</ele>
        <time>2015-03-29T15:22:08+02:00</time>
      </trkpt>
      <trkpt lat="45.62195" lon="3.19434">
        <ele>493</ele>
        <time>2015-03-29T15:22:08+02:00</time>
      </trkpt>
      <trkpt lat="45.62196" lon="3.19438">
        <ele>493</ele>
        <time>2015-03-29T15:22:08+02:00</time>
      </trkpt>
      <trkpt lat="45.62195" lon="3.19441">
        <ele>496</ele>
        <time>2015-03-29T15:22:08+02:00</time>
      </trkpt>
      <trkpt lat="45.62195" lon="3.19445">
        <ele>496</ele>
        <time>2015-03-29T15:22:08+02:00</time>
      </trkpt>
      <trkpt lat="45.62195" lon="3.1945">
        <ele>496</ele>
        <time>2015-03-29T15:22:08+02:00</time>
      </trkpt>
      <trkpt lat="45.62196" lon="3.19452">
        <ele>496</ele>
        <time>2015-03-29T15:22:08+02:00</time>
      </trkpt>
      <trkpt lat="45.62196" lon="3.19456">
        <ele>497</ele>
        <time>2015-03-29T15:22:08+02:00</time>
      </trkpt>
      <trkpt lat="45.62196" lon="3.1946">
        <ele>497</ele>
        <time>2015-03-29T15:22:08+02:00</time>
      </trkpt>
      <trkpt lat="45.62196" lon="3.19464">
        <ele>498</ele>
        <time>2015-03-29T15:22:08+02:00</time>
      </trkpt>
      <trkpt lat="45.62197" lon="3.19466">
        <ele>497</ele>
        <time>2015-03-29T15:22:08+02:00</time>
      </trkpt>
      <trkpt lat="45.62197" lon="3.19469">
        <ele>498</ele>
        <time>2015-03-29T15:22:08+02:00</time>
      </trkpt>
      <trkpt lat="45.62198" lon="3.19473">
        <ele>498</ele>
        <time>2015-03-29T15:22:08+02:00</time>
      </trkpt>
      <trkpt lat="45.62198" lon="3.19478">
        <ele>499</ele>
        <time>2015-03-29T15:22:08+02:00</time>
      </trkpt>
      <trkpt lat="45.62198" lon="3.19482">
        <ele>500</ele>
        <time>2015-03-29T15:22:08+02:00</time>
      </trkpt>
      <trkpt lat="45.62199" lon="3.19486">
        <ele>500</ele>
        <time>2015-03-29T15:22:08+02:00</time>
      </trkpt>
      <trkpt lat="45.62199" lon="3.1949">
        <ele>500</ele>
        <time>2015-03-29T15:22:08+02:00</time>
      </trkpt>
      <trkpt lat="45.622" lon="3.19493">
        <ele>501</ele>
        <time>2015-03-29T15:22:08+02:00</time>
      </trkpt>
      <trkpt lat="45.62201" lon="3.19496">
        <ele>500</ele>
        <time>2015-03-29T15:22:08+02:00</time>
      </trkpt>
      <trkpt lat="45.62202" lon="3.195">
        <ele>501</ele>
        <time>2015-03-29T15:22:08+02:00</time>
      </trkpt>
      <trkpt lat="45.62202" lon="3.19505">
        <ele>501</ele>
        <time>2015-03-29T15:22:08+02:00</time>
      </trkpt>
      <trkpt lat="45.62202" lon="3.19507">
        <ele>501</ele>
        <time>2015-03-29T15:22:08+02:00</time>
      </trkpt>
      <trkpt lat="45.62203" lon="3.1951">
        <ele>500</ele>
        <time>2015-03-29T15:22:08+02:00</time>
      </trkpt>
      <trkpt lat="45.62203" lon="3.19515">
        <ele>499</ele>
        <time>2015-03-29T15:22:08+02:00</time>
      </trkpt>
      <trkpt lat="45.62203" lon="3.19518">
        <ele>499</ele>
        <time>2015-03-29T15:22:08+02:00</time>
      </trkpt>
      <trkpt lat="45.62204" lon="3.19521">
        <ele>499</ele>
        <time>2015-03-29T15:22:08+02:00</time>
      </trkpt>
      <trkpt lat="45.62204" lon="3.19523">
        <ele>499</ele>
        <time>2015-03-29T15:22:08+02:00</time>
      </trkpt>
      <trkpt lat="45.62204" lon="3.19526">
        <ele>499</ele>
        <time>2015-03-29T15:22:08+02:00</time>
      </trkpt>
      <trkpt lat="45.62204" lon="3.19529">
        <ele>499</ele>
        <time>2015-03-29T15:22:08+02:00</time>
      </trkpt>
      <trkpt lat="45.62205" lon="3.19534">
        <ele>499</ele>
        <time>2015-03-29T15:22:08+02:00</time>
      </trkpt>
      <trkpt lat="45.62206" lon="3.19539">
        <ele>499</ele>
        <time>2015-03-29T15:22:08+02:00</time>
      </trkpt>
      <trkpt lat="45.62205" lon="3.19542">
        <ele>499</ele>
        <time>2015-03-29T15:22:08+02:00</time>
      </trkpt>
      <trkpt lat="45.62205" lon="3.19545">
        <ele>499</ele>
        <time>2015-03-29T15:22:08+02:00</time>
      </trkpt>
      <trkpt lat="45.62206" lon="3.19548">
        <ele>499</ele>
        <time>2015-03-29T15:22:08+02:00</time>
      </trkpt>
      <trkpt lat="45.62206" lon="3.19551">
        <ele>499</ele>
        <time>2015-03-29T15:22:08+02:00</time>
      </trkpt>
      <trkpt lat="45.62207" lon="3.19555">
        <ele>499</ele>
        <time>2015-03-29T15:22:08+02:00</time>
      </trkpt>
      <trkpt lat="45.62209" lon="3.19559">
        <ele>499</ele>
        <time>2015-03-29T15:22:08+02:00</time>
      </trkpt>
      <trkpt lat="45.6221" lon="3.19561">
        <ele>499</ele>
        <time>2015-03-29T15:22:08+02:00</time>
      </trkpt>
      <trkpt lat="45.62212" lon="3.19565">
        <ele>499</ele>
        <time>2015-03-29T15:22:08+02:00</time>
      </trkpt>
      <trkpt lat="45.62215" lon="3.19567">
        <ele>499</ele>
        <time>2015-03-29T15:22:08+02:00</time>
      </trkpt>
      <trkpt lat="45.62217" lon="3.19568">
        <ele>499</ele>
        <time>2015-03-29T15:22:08+02:00</time>
      </trkpt>
      <trkpt lat="45.62219" lon="3.19568">
        <ele>498</ele>
        <time>2015-03-29T15:22:08+02:00</time>
      </trkpt>
      <trkpt lat="45.62221" lon="3.19567">
        <ele>497</ele>
        <time>2015-03-29T15:22:08+02:00</time>
      </trkpt>
      <trkpt lat="45.62224" lon="3.19567">
        <ele>496</ele>
        <time>2015-03-29T15:22:08+02:00</time>
      </trkpt>
      <trkpt lat="45.62226" lon="3.19566">
        <ele>496</ele>
        <time>2015-03-29T15:22:08+02:00</time>
      </trkpt>
      <trkpt lat="45.62225" lon="3.19569">
        <ele>498</ele>
        <time>2015-03-29T15:22:08+02:00</time>
      </trkpt>
      <trkpt lat="45.62227" lon="3.19568">
        <ele>498</ele>
        <time>2015-03-29T15:22:08+02:00</time>
      </trkpt>
      <trkpt lat="45.62229" lon="3.19567">
        <ele>497</ele>
        <time>2015-03-29T15:22:08+02:00</time>
      </trkpt>
      <trkpt lat="45.62232" lon="3.19565">
        <ele>497</ele>
        <time>2015-03-29T15:22:08+02:00</time>
      </trkpt>
      <trkpt lat="45.62234" lon="3.19563">
        <ele>497</ele>
        <time>2015-03-29T15:22:08+02:00</time>
      </trkpt>
      <trkpt lat="45.62236" lon="3.19561">
        <ele>497</ele>
        <time>2015-03-29T15:22:08+02:00</time>
      </trkpt>
      <trkpt lat="45.62239" lon="3.19559">
        <ele>496</ele>
        <time>2015-03-29T15:22:08+02:00</time>
      </trkpt>
      <trkpt lat="45.62242" lon="3.19558">
        <ele>496</ele>
        <time>2015-03-29T15:22:08+02:00</time>
      </trkpt>
      <trkpt lat="45.62245" lon="3.19558">
        <ele>496</ele>
        <time>2015-03-29T15:22:08+02:00</time>
      </trkpt>
      <trkpt lat="45.62246" lon="3.19555">
        <ele>496</ele>
        <time>2015-03-29T15:22:08+02:00</time>
      </trkpt>
      <trkpt lat="45.62248" lon="3.19553">
        <ele>496</ele>
        <time>2015-03-29T15:22:08+02:00</time>
      </trkpt>
      <trkpt lat="45.6225" lon="3.19551">
        <ele>495</ele>
        <time>2015-03-29T15:22:08+02:00</time>
      </trkpt>
      <trkpt lat="45.62252" lon="3.19548">
        <ele>495</ele>
        <time>2015-03-29T15:22:08+02:00</time>
      </trkpt>
      <trkpt lat="45.62253" lon="3.19546">
        <ele>495</ele>
        <time>2015-03-29T15:22:08+02:00</time>
      </trkpt>
      <trkpt lat="45.62255" lon="3.19543">
        <ele>495</ele>
        <time>2015-03-29T15:22:08+02:00</time>
      </trkpt>
      <trkpt lat="45.62286" lon="3.19513">
        <ele>492</ele>
        <time>2015-03-29T15:24:16+02:00</time>
      </trkpt>
      <trkpt lat="45.6229" lon="3.19511">
        <ele>492</ele>
        <time>2015-03-29T15:24:16+02:00</time>
      </trkpt>
      <trkpt lat="45.62293" lon="3.1951">
        <ele>492</ele>
        <time>2015-03-29T15:24:16+02:00</time>
      </trkpt>
      <trkpt lat="45.62295" lon="3.1951">
        <ele>493</ele>
        <time>2015-03-29T15:24:16+02:00</time>
      </trkpt>
      <trkpt lat="45.62297" lon="3.19508">
        <ele>492</ele>
        <time>2015-03-29T15:24:16+02:00</time>
      </trkpt>
      <trkpt lat="45.62299" lon="3.19508">
        <ele>493</ele>
        <time>2015-03-29T15:24:16+02:00</time>
      </trkpt>
      <trkpt lat="45.62303" lon="3.19506">
        <ele>492</ele>
        <time>2015-03-29T15:24:16+02:00</time>
      </trkpt>
      <trkpt lat="45.62306" lon="3.19506">
        <ele>491</ele>
        <time>2015-03-29T15:24:16+02:00</time>
      </trkpt>
      <trkpt lat="45.62308" lon="3.19506">
        <ele>491</ele>
        <time>2015-03-29T15:24:16+02:00</time>
      </trkpt>
      <trkpt lat="45.62309" lon="3.19508">
        <ele>492</ele>
        <time>2015-03-29T15:24:16+02:00</time>
      </trkpt>
      <trkpt lat="45.62311" lon="3.1951">
        <ele>492</ele>
        <time>2015-03-29T15:24:16+02:00</time>
      </trkpt>
      <trkpt lat="45.62311" lon="3.19513">
        <ele>492</ele>
        <time>2015-03-29T15:24:16+02:00</time>
      </trkpt>
      <trkpt lat="45.62312" lon="3.19516">
        <ele>493</ele>
        <time>2015-03-29T15:24:16+02:00</time>
      </trkpt>
      <trkpt lat="45.62314" lon="3.19519">
        <ele>493</ele>
        <time>2015-03-29T15:24:16+02:00</time>
      </trkpt>
      <trkpt lat="45.62315" lon="3.19524">
        <ele>494</ele>
        <time>2015-03-29T15:24:16+02:00</time>
      </trkpt>
      <trkpt lat="45.62317" lon="3.19526">
        <ele>494</ele>
        <time>2015-03-29T15:24:16+02:00</time>
      </trkpt>
      <trkpt lat="45.62318" lon="3.19528">
        <ele>494</ele>
        <time>2015-03-29T15:24:16+02:00</time>
      </trkpt>
      <trkpt lat="45.62319" lon="3.19532">
        <ele>494</ele>
        <time>2015-03-29T15:24:16+02:00</time>
      </trkpt>
      <trkpt lat="45.6232" lon="3.19537">
        <ele>494</ele>
        <time>2015-03-29T15:24:16+02:00</time>
      </trkpt>
      <trkpt lat="45.62322" lon="3.1954">
        <ele>494</ele>
        <time>2015-03-29T15:24:16+02:00</time>
      </trkpt>
      <trkpt lat="45.62324" lon="3.19544">
        <ele>493</ele>
        <time>2015-03-29T15:24:16+02:00</time>
      </trkpt>
      <trkpt lat="45.62325" lon="3.19547">
        <ele>494</ele>
        <time>2015-03-29T15:24:16+02:00</time>
      </trkpt>
      <trkpt lat="45.62326" lon="3.19551">
        <ele>494</ele>
        <time>2015-03-29T15:24:16+02:00</time>
      </trkpt>
      <trkpt lat="45.62327" lon="3.19557">
        <ele>495</ele>
        <time>2015-03-29T15:24:16+02:00</time>
      </trkpt>
      <trkpt lat="45.62329" lon="3.19561">
        <ele>495</ele>
        <time>2015-03-29T15:24:16+02:00</time>
      </trkpt>
      <trkpt lat="45.62331" lon="3.19564">
        <ele>495</ele>
        <time>2015-03-29T15:24:16+02:00</time>
      </trkpt>
      <trkpt lat="45.62331" lon="3.19568">
        <ele>495</ele>
        <time>2015-03-29T15:24:16+02:00</time>
      </trkpt>
      <trkpt lat="45.62332" lon="3.19571">
        <ele>496</ele>
        <time>2015-03-29T15:24:16+02:00</time>
      </trkpt>
      <trkpt lat="45.62333" lon="3.19574">
        <ele>496</ele>
        <time>2015-03-29T15:24:16+02:00</time>
      </trkpt>
      <trkpt lat="45.62332" lon="3.19577">
        <ele>497</ele>
        <time>2015-03-29T15:24:16+02:00</time>
      </trkpt>
      <trkpt lat="45.62332" lon="3.1958">
        <ele>497</ele>
        <time>2015-03-29T15:24:16+02:00</time>
      </trkpt>
      <trkpt lat="45.62334" lon="3.19584">
        <ele>497</ele>
        <time>2015-03-29T15:24:16+02:00</time>
      </trkpt>
      <trkpt lat="45.62335" lon="3.19587">
        <ele>497</ele>
        <time>2015-03-29T15:24:16+02:00</time>
      </trkpt>
      <trkpt lat="45.62336" lon="3.1959">
        <ele>497</ele>
        <time>2015-03-29T15:24:16+02:00</time>
      </trkpt>
      <trkpt lat="45.62345" lon="3.19643">
        <ele>494</ele>
        <time>2015-03-29T15:24:16+02:00</time>
      </trkpt>
      <trkpt lat="45.62347" lon="3.19646">
        <ele>494</ele>
        <time>2015-03-29T15:24:16+02:00</time>
      </trkpt>
      <trkpt lat="45.62349" lon="3.19649">
        <ele>495</ele>
        <time>2015-03-29T15:24:16+02:00</time>
      </trkpt>
      <trkpt lat="45.6235" lon="3.19653">
        <ele>496</ele>
        <time>2015-03-29T15:24:16+02:00</time>
      </trkpt>
      <trkpt lat="45.62352" lon="3.19657">
        <ele>496</ele>
        <time>2015-03-29T15:24:16+02:00</time>
      </trkpt>
      <trkpt lat="45.62353" lon="3.1966">
        <ele>496</ele>
        <time>2015-03-29T15:24:16+02:00</time>
      </trkpt>
      <trkpt lat="45.62354" lon="3.19663">
        <ele>496</ele>
        <time>2015-03-29T15:24:16+02:00</time>
      </trkpt>
      <trkpt lat="45.62355" lon="3.19666">
        <ele>496</ele>
        <time>2015-03-29T15:24:16+02:00</time>
      </trkpt>
      <trkpt lat="45.62355" lon="3.19669">
        <ele>496</ele>
        <time>2015-03-29T15:24:16+02:00</time>
      </trkpt>
      <trkpt lat="45.62356" lon="3.19673">
        <ele>496</ele>
        <time>2015-03-29T15:24:16+02:00</time>
      </trkpt>
      <trkpt lat="45.62355" lon="3.19676">
        <ele>496</ele>
        <time>2015-03-29T15:24:16+02:00</time>
      </trkpt>
      <trkpt lat="45.62354" lon="3.1968">
        <ele>497</ele>
        <time>2015-03-29T15:24:16+02:00</time>
      </trkpt>
      <trkpt lat="45.62354" lon="3.19685">
        <ele>497</ele>
        <time>2015-03-29T15:24:16+02:00</time>
      </trkpt>
      <trkpt lat="45.62353" lon="3.19689">
        <ele>499</ele>
        <time>2015-03-29T15:24:16+02:00</time>
      </trkpt>
      <trkpt lat="45.62353" lon="3.19693">
        <ele>499</ele>
        <time>2015-03-29T15:24:16+02:00</time>
      </trkpt>
      <trkpt lat="45.62353" lon="3.19697">
        <ele>499</ele>
        <time>2015-03-29T15:24:16+02:00</time>
      </trkpt>
      <trkpt lat="45.62354" lon="3.19701">
        <ele>499</ele>
        <time>2015-03-29T15:24:16+02:00</time>
      </trkpt>
      <trkpt lat="45.62355" lon="3.19704">
        <ele>499</ele>
        <time>2015-03-29T15:24:16+02:00</time>
      </trkpt>
      <trkpt lat="45.62354" lon="3.19707">
        <ele>499</ele>
        <time>2015-03-29T15:24:16+02:00</time>
      </trkpt>
      <trkpt lat="45.62354" lon="3.1971">
        <ele>500</ele>
        <time>2015-03-29T15:24:16+02:00</time>
      </trkpt>
      <trkpt lat="45.62354" lon="3.19713">
        <ele>499</ele>
        <time>2015-03-29T15:24:16+02:00</time>
      </trkpt>
      <trkpt lat="45.62355" lon="3.19716">
        <ele>500</ele>
        <time>2015-03-29T15:24:16+02:00</time>
      </trkpt>
      <trkpt lat="45.62355" lon="3.19719">
        <ele>499</ele>
        <time>2015-03-29T15:24:16+02:00</time>
      </trkpt>
      <trkpt lat="45.62355" lon="3.19723">
        <ele>500</ele>
        <time>2015-03-29T15:24:16+02:00</time>
      </trkpt>
      <trkpt lat="45.62355" lon="3.19726">
        <ele>500</ele>
        <time>2015-03-29T15:24:16+02:00</time>
      </trkpt>
      <trkpt lat="45.62355" lon="3.19729">
        <ele>501</ele>
        <time>2015-03-29T15:24:16+02:00</time>
      </trkpt>
      <trkpt lat="45.62356" lon="3.19732">
        <ele>501</ele>
        <time>2015-03-29T15:24:16+02:00</time>
      </trkpt>
      <trkpt lat="45.62355" lon="3.19734">
        <ele>501</ele>
        <time>2015-03-29T15:24:16+02:00</time>
      </trkpt>
      <trkpt lat="45.62354" lon="3.19739">
        <ele>502</ele>
        <time>2015-03-29T15:24:16+02:00</time>
      </trkpt>
      <trkpt lat="45.62354" lon="3.19742">
        <ele>503</ele>
        <time>2015-03-29T15:24:16+02:00</time>
      </trkpt>
      <trkpt lat="45.62355" lon="3.19745">
        <ele>503</ele>
        <time>2015-03-29T15:24:16+02:00</time>
      </trkpt>
      <trkpt lat="45.62355" lon="3.1975">
        <ele>504</ele>
        <time>2015-03-29T15:24:16+02:00</time>
      </trkpt>
      <trkpt lat="45.62355" lon="3.19753">
        <ele>504</ele>
        <time>2015-03-29T15:24:16+02:00</time>
      </trkpt>
      <trkpt lat="45.62355" lon="3.19758">
        <ele>504</ele>
        <time>2015-03-29T15:24:16+02:00</time>
      </trkpt>
      <trkpt lat="45.62355" lon="3.19761">
        <ele>505</ele>
        <time>2015-03-29T15:24:16+02:00</time>
      </trkpt>
      <trkpt lat="45.62355" lon="3.19765">
        <ele>505</ele>
        <time>2015-03-29T15:24:16+02:00</time>
      </trkpt>
      <trkpt lat="45.62355" lon="3.1977">
        <ele>505</ele>
        <time>2015-03-29T15:24:16+02:00</time>
      </trkpt>
      <trkpt lat="45.62353" lon="3.19774">
        <ele>508</ele>
        <time>2015-03-29T15:26:24+02:00</time>
      </trkpt>
      <trkpt lat="45.62352" lon="3.19777">
        <ele>510</ele>
        <time>2015-03-29T15:26:24+02:00</time>
      </trkpt>
      <trkpt lat="45.62351" lon="3.1978">
        <ele>510</ele>
        <time>2015-03-29T15:26:24+02:00</time>
      </trkpt>
      <trkpt lat="45.62351" lon="3.19785">
        <ele>510</ele>
        <time>2015-03-29T15:26:24+02:00</time>
      </trkpt>
      <trkpt lat="45.62351" lon="3.19788">
        <ele>511</ele>
        <time>2015-03-29T15:26:24+02:00</time>
      </trkpt>
      <trkpt lat="45.62352" lon="3.19793">
        <ele>510</ele>
        <time>2015-03-29T15:26:24+02:00</time>
      </trkpt>
      <trkpt lat="45.62352" lon="3.19798">
        <ele>510</ele>
        <time>2015-03-29T15:26:24+02:00</time>
      </trkpt>
      <trkpt lat="45.62353" lon="3.198">
        <ele>511</ele>
        <time>2015-03-29T15:26:24+02:00</time>
      </trkpt>
      <trkpt lat="45.62352" lon="3.19805">
        <ele>511</ele>
        <time>2015-03-29T15:26:24+02:00</time>
      </trkpt>
      <trkpt lat="45.62352" lon="3.19809">
        <ele>512</ele>
        <time>2015-03-29T15:26:24+02:00</time>
      </trkpt>
      <trkpt lat="45.62353" lon="3.19815">
        <ele>512</ele>
        <time>2015-03-29T15:26:24+02:00</time>
      </trkpt>
      <trkpt lat="45.62353" lon="3.19819">
        <ele>512</ele>
        <time>2015-03-29T15:26:24+02:00</time>
      </trkpt>
      <trkpt lat="45.62353" lon="3.19824">
        <ele>512</ele>
        <time>2015-03-29T15:26:24+02:00</time>
      </trkpt>
      <trkpt lat="45.62353" lon="3.19828">
        <ele>512</ele>
        <time>2015-03-29T15:26:24+02:00</time>
      </trkpt>
      <trkpt lat="45.62353" lon="3.19833">
        <ele>512</ele>
        <time>2015-03-29T15:26:24+02:00</time>
      </trkpt>
      <trkpt lat="45.62353" lon="3.19838">
        <ele>512</ele>
        <time>2015-03-29T15:26:24+02:00</time>
      </trkpt>
      <trkpt lat="45.62354" lon="3.19843">
        <ele>512</ele>
        <time>2015-03-29T15:26:24+02:00</time>
      </trkpt>
      <trkpt lat="45.62354" lon="3.19847">
        <ele>512</ele>
        <time>2015-03-29T15:26:24+02:00</time>
      </trkpt>
      <trkpt lat="45.62354" lon="3.19851">
        <ele>513</ele>
        <time>2015-03-29T15:26:24+02:00</time>
      </trkpt>
      <trkpt lat="45.62354" lon="3.19856">
        <ele>513</ele>
        <time>2015-03-29T15:26:24+02:00</time>
      </trkpt>
      <trkpt lat="45.62354" lon="3.1986">
        <ele>513</ele>
        <time>2015-03-29T15:26:24+02:00</time>
      </trkpt>
      <trkpt lat="45.62355" lon="3.19864">
        <ele>514</ele>
        <time>2015-03-29T15:26:24+02:00</time>
      </trkpt>
      <trkpt lat="45.62355" lon="3.19868">
        <ele>513</ele>
        <time>2015-03-29T15:26:24+02:00</time>
      </trkpt>
      <trkpt lat="45.62355" lon="3.19873">
        <ele>513</ele>
        <time>2015-03-29T15:26:24+02:00</time>
      </trkpt>
      <trkpt lat="45.62355" lon="3.19876">
        <ele>513</ele>
        <time>2015-03-29T15:26:24+02:00</time>
      </trkpt>
      <trkpt lat="45.62356" lon="3.19881">
        <ele>511</ele>
        <time>2015-03-29T15:26:24+02:00</time>
      </trkpt>
      <trkpt lat="45.62358" lon="3.19883">
        <ele>511</ele>
        <time>2015-03-29T15:26:24+02:00</time>
      </trkpt>
      <trkpt lat="45.62359" lon="3.19886">
        <ele>511</ele>
        <time>2015-03-29T15:26:24+02:00</time>
      </trkpt>
      <trkpt lat="45.62359" lon="3.19891">
        <ele>511</ele>
        <time>2015-03-29T15:26:24+02:00</time>
      </trkpt>
      <trkpt lat="45.62358" lon="3.19894">
        <ele>512</ele>
        <time>2015-03-29T15:26:24+02:00</time>
      </trkpt>
      <trkpt lat="45.62358" lon="3.19897">
        <ele>512</ele>
        <time>2015-03-29T15:26:24+02:00</time>
      </trkpt>
      <trkpt lat="45.62357" lon="3.19901">
        <ele>513</ele>
        <time>2015-03-29T15:26:24+02:00</time>
      </trkpt>
      <trkpt lat="45.62357" lon="3.19904">
        <ele>513</ele>
        <time>2015-03-29T15:26:24+02:00</time>
      </trkpt>
      <trkpt lat="45.62357" lon="3.19907">
        <ele>514</ele>
        <time>2015-03-29T15:26:24+02:00</time>
      </trkpt>
      <trkpt lat="45.62355" lon="3.19909">
        <ele>513</ele>
        <time>2015-03-29T15:26:24+02:00</time>
      </trkpt>
      <trkpt lat="45.62353" lon="3.19912">
        <ele>512</ele>
        <time>2015-03-29T15:26:24+02:00</time>
      </trkpt>
      <trkpt lat="45.62351" lon="3.19913">
        <ele>513</ele>
        <time>2015-03-29T15:26:24+02:00</time>
      </trkpt>
      <trkpt lat="45.62348" lon="3.19914">
        <ele>512</ele>
        <time>2015-03-29T15:26:24+02:00</time>
      </trkpt>
      <trkpt lat="45.62346" lon="3.19915">
        <ele>512</ele>
        <time>2015-03-29T15:26:24+02:00</time>
      </trkpt>
      <trkpt lat="45.62343" lon="3.19916">
        <ele>512</ele>
        <time>2015-03-29T15:26:24+02:00</time>
      </trkpt>
      <trkpt lat="45.62339" lon="3.19917">
        <ele>512</ele>
        <time>2015-03-29T15:26:24+02:00</time>
      </trkpt>
      <trkpt lat="45.62338" lon="3.19917">
        <ele>512</ele>
        <time>2015-03-29T15:26:24+02:00</time>
      </trkpt>
      <trkpt lat="45.62335" lon="3.19918">
        <ele>512</ele>
        <time>2015-03-29T15:26:24+02:00</time>
      </trkpt>
      <trkpt lat="45.62333" lon="3.19918">
        <ele>512</ele>
        <time>2015-03-29T15:26:24+02:00</time>
      </trkpt>
      <trkpt lat="45.62331" lon="3.19919">
        <ele>512</ele>
        <time>2015-03-29T15:26:24+02:00</time>
      </trkpt>
      <trkpt lat="45.62328" lon="3.19919">
        <ele>512</ele>
        <time>2015-03-29T15:26:24+02:00</time>
      </trkpt>
      <trkpt lat="45.62327" lon="3.1992">
        <ele>512</ele>
        <time>2015-03-29T15:26:24+02:00</time>
      </trkpt>
      <trkpt lat="45.6228" lon="3.19936">
        <ele>513</ele>
        <time>2015-03-29T15:26:24+02:00</time>
      </trkpt>
      <trkpt lat="45.62279" lon="3.19939">
        <ele>512</ele>
        <time>2015-03-29T15:26:24+02:00</time>
      </trkpt>
      <trkpt lat="45.62277" lon="3.19941">
        <ele>513</ele>
        <time>2015-03-29T15:26:24+02:00</time>
      </trkpt>
      <trkpt lat="45.62275" lon="3.19942">
        <ele>512</ele>
        <time>2015-03-29T15:26:24+02:00</time>
      </trkpt>
      <trkpt lat="45.62273" lon="3.19944">
        <ele>512</ele>
        <time>2015-03-29T15:28:32+02:00</time>
      </trkpt>
      <trkpt lat="45.62271" lon="3.19945">
        <ele>512</ele>
        <time>2015-03-29T15:28:32+02:00</time>
      </trkpt>
      <trkpt lat="45.62269" lon="3.19947">
        <ele>512</ele>
        <time>2015-03-29T15:28:32+02:00</time>
      </trkpt>
      <trkpt lat="45.62259" lon="3.19946">
        <ele>514</ele>
        <time>2015-03-29T15:28:32+02:00</time>
      </trkpt>
      <trkpt lat="45.62258" lon="3.19943">
        <ele>514</ele>
        <time>2015-03-29T15:28:32+02:00</time>
      </trkpt>
      <trkpt lat="45.62256" lon="3.19941">
        <ele>514</ele>
        <time>2015-03-29T15:28:32+02:00</time>
      </trkpt>
      <trkpt lat="45.62255" lon="3.19936">
        <ele>514</ele>
        <time>2015-03-29T15:28:32+02:00</time>
      </trkpt>
      <trkpt lat="45.62254" lon="3.19934">
        <ele>514</ele>
        <time>2015-03-29T15:28:32+02:00</time>
      </trkpt>
      <trkpt lat="45.62252" lon="3.19932">
        <ele>514</ele>
        <time>2015-03-29T15:28:32+02:00</time>
      </trkpt>
      <trkpt lat="45.62251" lon="3.1993">
        <ele>514</ele>
        <time>2015-03-29T15:28:32+02:00</time>
      </trkpt>
      <trkpt lat="45.62249" lon="3.19927">
        <ele>512</ele>
        <time>2015-03-29T15:28:32+02:00</time>
      </trkpt>
      <trkpt lat="45.62248" lon="3.19924">
        <ele>512</ele>
        <time>2015-03-29T15:28:32+02:00</time>
      </trkpt>
      <trkpt lat="45.62247" lon="3.19921">
        <ele>512</ele>
        <time>2015-03-29T15:28:32+02:00</time>
      </trkpt>
      <trkpt lat="45.62245" lon="3.19919">
        <ele>513</ele>
        <time>2015-03-29T15:28:32+02:00</time>
      </trkpt>
      <trkpt lat="45.62243" lon="3.19916">
        <ele>512</ele>
        <time>2015-03-29T15:28:32+02:00</time>
      </trkpt>
      <trkpt lat="45.62243" lon="3.19913">
        <ele>512</ele>
        <time>2015-03-29T15:28:32+02:00</time>
      </trkpt>
      <trkpt lat="45.62242" lon="3.19909">
        <ele>510</ele>
        <time>2015-03-29T15:28:32+02:00</time>
      </trkpt>
      <trkpt lat="45.62241" lon="3.19905">
        <ele>509</ele>
        <time>2015-03-29T15:28:32+02:00</time>
      </trkpt>
      <trkpt lat="45.6224" lon="3.19903">
        <ele>510</ele>
        <time>2015-03-29T15:28:32+02:00</time>
      </trkpt>
      <trkpt lat="45.62238" lon="3.19901">
        <ele>510</ele>
        <time>2015-03-29T15:28:32+02:00</time>
      </trkpt>
      <trkpt lat="45.62237" lon="3.19898">
        <ele>510</ele>
        <time>2015-03-29T15:28:32+02:00</time>
      </trkpt>
      <trkpt lat="45.62236" lon="3.19894">
        <ele>512</ele>
        <time>2015-03-29T15:28:32+02:00</time>
      </trkpt>
      <trkpt lat="45.62235" lon="3.19891">
        <ele>512</ele>
        <time>2015-03-29T15:28:32+02:00</time>
      </trkpt>
      <trkpt lat="45.62233" lon="3.19889">
        <ele>513</ele>
        <time>2015-03-29T15:28:32+02:00</time>
      </trkpt>
      <trkpt lat="45.62232" lon="3.19885">
        <ele>515</ele>
        <time>2015-03-29T15:28:32+02:00</time>
      </trkpt>
      <trkpt lat="45.62231" lon="3.19882">
        <ele>514</ele>
        <time>2015-03-29T15:28:32+02:00</time>
      </trkpt>
      <trkpt lat="45.62229" lon="3.19877">
        <ele>516</ele>
        <time>2015-03-29T15:28:32+02:00</time>
      </trkpt>
      <trkpt lat="45.62228" lon="3.19874">
        <ele>515</ele>
        <time>2015-03-29T15:28:32+02:00</time>
      </trkpt>
      <trkpt lat="45.62227" lon="3.19871">
        <ele>514</ele>
        <time>2015-03-29T15:28:32+02:00</time>
      </trkpt>
      <trkpt lat="45.62226" lon="3.19869">
        <ele>513</ele>
        <time>2015-03-29T15:28:32+02:00</time>
      </trkpt>
      <trkpt lat="45.62224" lon="3.19865">
        <ele>513</ele>
        <time>2015-03-29T15:28:32+02:00</time>
      </trkpt>
      <trkpt lat="45.62222" lon="3.1986">
        <ele>513</ele>
        <time>2015-03-29T15:28:32+02:00</time>
      </trkpt>
      <trkpt lat="45.62221" lon="3.19858">
        <ele>513</ele>
        <time>2015-03-29T15:28:32+02:00</time>
      </trkpt>
      <trkpt lat="45.6222" lon="3.19855">
        <ele>514</ele>
        <time>2015-03-29T15:28:32+02:00</time>
      </trkpt>
      <trkpt lat="45.62219" lon="3.19853">
        <ele>514</ele>
        <time>2015-03-29T15:28:32+02:00</time>
      </trkpt>
      <trkpt lat="45.62216" lon="3.19851">
        <ele>514</ele>
        <time>2015-03-29T15:28:32+02:00</time>
      </trkpt>
      <trkpt lat="45.62214" lon="3.19849">
        <ele>514</ele>
        <time>2015-03-29T15:28:32+02:00</time>
      </trkpt>
      <trkpt lat="45.62212" lon="3.19847">
        <ele>514</ele>
        <time>2015-03-29T15:28:32+02:00</time>
      </trkpt>
      <trkpt lat="45.6221" lon="3.19849">
        <ele>513</ele>
        <time>2015-03-29T15:28:32+02:00</time>
      </trkpt>
      <trkpt lat="45.62208" lon="3.1985">
        <ele>512</ele>
        <time>2015-03-29T15:28:32+02:00</time>
      </trkpt>
      <trkpt lat="45.62206" lon="3.19851">
        <ele>512</ele>
        <time>2015-03-29T15:28:32+02:00</time>
      </trkpt>
      <trkpt lat="45.62205" lon="3.19853">
        <ele>512</ele>
        <time>2015-03-29T15:28:32+02:00</time>
      </trkpt>
      <trkpt lat="45.62203" lon="3.19855">
        <ele>511</ele>
        <time>2015-03-29T15:28:32+02:00</time>
      </trkpt>
      <trkpt lat="45.622" lon="3.19858">
        <ele>512</ele>
        <time>2015-03-29T15:28:32+02:00</time>
      </trkpt>
      <trkpt lat="45.622" lon="3.19861">
        <ele>512</ele>
        <time>2015-03-29T15:28:32+02:00</time>
      </trkpt>
      <trkpt lat="45.62196" lon="3.19864">
        <ele>511</ele>
        <time>2015-03-29T15:28:32+02:00</time>
      </trkpt>
      <trkpt lat="45.62195" lon="3.19869">
        <ele>511</ele>
        <time>2015-03-29T15:28:32+02:00</time>
      </trkpt>
      <trkpt lat="45.62194" lon="3.19872">
        <ele>510</ele>
        <time>2015-03-29T15:28:32+02:00</time>
      </trkpt>
      <trkpt lat="45.62193" lon="3.19874">
        <ele>509</ele>
        <time>2015-03-29T15:28:32+02:00</time>
      </trkpt>
      <trkpt lat="45.62192" lon="3.19877">
        <ele>508</ele>
        <time>2015-03-29T15:28:32+02:00</time>
      </trkpt>
      <trkpt lat="45.62191" lon="3.19879">
        <ele>508</ele>
        <time>2015-03-29T15:28:32+02:00</time>
      </trkpt>
      <trkpt lat="45.62189" lon="3.19884">
        <ele>508</ele>
        <time>2015-03-29T15:28:32+02:00</time>
      </trkpt>
      <trkpt lat="45.62187" lon="3.19887">
        <ele>507</ele>
        <time>2015-03-29T15:28:32+02:00</time>
      </trkpt>
      <trkpt lat="45.62186" lon="3.1989">
        <ele>507</ele>
        <time>2015-03-29T15:28:32+02:00</time>
      </trkpt>
      <trkpt lat="45.62184" lon="3.19892">
        <ele>506</ele>
        <time>2015-03-29T15:28:32+02:00</time>
      </trkpt>
      <trkpt lat="45.62183" lon="3.19894">
        <ele>506</ele>
        <time>2015-03-29T15:28:32+02:00</time>
      </trkpt>
      <trkpt lat="45.62181" lon="3.19895">
        <ele>505</ele>
        <time>2015-03-29T15:28:32+02:00</time>
      </trkpt>
      <trkpt lat="45.62178" lon="3.19899">
        <ele>504</ele>
        <time>2015-03-29T15:30:40+02:00</time>
      </trkpt>
      <trkpt lat="45.62177" lon="3.19901">
        <ele>504</ele>
        <time>2015-03-29T15:30:40+02:00</time>
      </trkpt>
      <trkpt lat="45.62175" lon="3.19903">
        <ele>502</ele>
        <time>2015-03-29T15:30:40+02:00</time>
      </trkpt>
      <trkpt lat="45.62173" lon="3.19906">
        <ele>502</ele>
        <time>2015-03-29T15:30:40+02:00</time>
      </trkpt>
      <trkpt lat="45.62171" lon="3.19911">
        <ele>502</ele>
        <time>2015-03-29T15:30:40+02:00</time>
      </trkpt>
      <trkpt lat="45.6217" lon="3.19913">
        <ele>502</ele>
        <time>2015-03-29T15:30:40+02:00</time>
      </trkpt>
      <trkpt lat="45.62169" lon="3.19919">
        <ele>503</ele>
        <time>2015-03-29T15:30:40+02:00</time>
      </trkpt>
      <trkpt lat="45.62169" lon="3.19924">
        <ele>503</ele>
        <time>2015-03-29T15:30:40+02:00</time>
      </trkpt>
      <trkpt lat="45.62167" lon="3.19928">
        <ele>503</ele>
        <time>2015-03-29T15:30:40+02:00</time>
      </trkpt>
      <trkpt lat="45.62153" lon="3.19956">
        <ele>503</ele>
        <time>2015-03-29T15:30:40+02:00</time>
      </trkpt>
      <trkpt lat="45.6215" lon="3.1996">
        <ele>504</ele>
        <time>2015-03-29T15:30:40+02:00</time>
      </trkpt>
      <trkpt lat="45.6215" lon="3.19963">
        <ele>503</ele>
        <time>2015-03-29T15:30:40+02:00</time>
      </trkpt>
      <trkpt lat="45.62149" lon="3.19967">
        <ele>503</ele>
        <time>2015-03-29T15:30:40+02:00</time>
      </trkpt>
      <trkpt lat="45.62148" lon="3.19969">
        <ele>504</ele>
        <time>2015-03-29T15:30:40+02:00</time>
      </trkpt>
      <trkpt lat="45.62142" lon="3.19981">
        <ele>502</ele>
        <time>2015-03-29T15:30:40+02:00</time>
      </trkpt>
      <trkpt lat="45.6214" lon="3.19987">
        <ele>502</ele>
        <time>2015-03-29T15:30:40+02:00</time>
      </trkpt>
      <trkpt lat="45.62139" lon="3.19989">
        <ele>503</ele>
        <time>2015-03-29T15:30:40+02:00</time>
      </trkpt>
      <trkpt lat="45.62138" lon="3.19991">
        <ele>504</ele>
        <time>2015-03-29T15:30:40+02:00</time>
      </trkpt>
      <trkpt lat="45.62137" lon="3.19993">
        <ele>503</ele>
        <time>2015-03-29T15:30:40+02:00</time>
      </trkpt>
      <trkpt lat="45.62136" lon="3.19996">
        <ele>503</ele>
        <time>2015-03-29T15:30:40+02:00</time>
      </trkpt>
      <trkpt lat="45.62134" lon="3.19999">
        <ele>502</ele>
        <time>2015-03-29T15:30:40+02:00</time>
      </trkpt>
      <trkpt lat="45.62132" lon="3.20002">
        <ele>502</ele>
        <time>2015-03-29T15:30:40+02:00</time>
      </trkpt>
      <trkpt lat="45.62131" lon="3.20006">
        <ele>503</ele>
        <time>2015-03-29T15:30:40+02:00</time>
      </trkpt>
      <trkpt lat="45.6213" lon="3.20008">
        <ele>503</ele>
        <time>2015-03-29T15:30:40+02:00</time>
      </trkpt>
      <trkpt lat="45.62129" lon="3.2001">
        <ele>503</ele>
        <time>2015-03-29T15:30:40+02:00</time>
      </trkpt>
      <trkpt lat="45.62128" lon="3.20013">
        <ele>502</ele>
        <time>2015-03-29T15:30:40+02:00</time>
      </trkpt>
      <trkpt lat="45.62126" lon="3.20015">
        <ele>502</ele>
        <time>2015-03-29T15:30:40+02:00</time>
      </trkpt>
      <trkpt lat="45.62125" lon="3.20018">
        <ele>501</ele>
        <time>2015-03-29T15:30:40+02:00</time>
      </trkpt>
      <trkpt lat="45.62123" lon="3.20021">
        <ele>500</ele>
        <time>2015-03-29T15:30:40+02:00</time>
      </trkpt>
      <trkpt lat="45.62122" lon="3.20023">
        <ele>500</ele>
        <time>2015-03-29T15:30:40+02:00</time>
      </trkpt>
    </trkseg>
  </trk>
</gpx>